<?xml version="1.0" encoding="UTF-8" standalone="no" ?>
<gpx xmlns="http://www.topografix.com/GPX/1/1" xmlns:xsi="http://www.w3.org/2001/XMLSchema-instance" xsi:schemaLocation="http://www.topografix.com/GPX/1/1 http://www.topografix.com/GPX/1/1/gpx.xsd" version="1.1" creator="VisuGPX - https://www.visugpx.com">
  <metadata>
    <name>Itinéraire prévu Norvège</name>
  </metadata>
  <trk>
    <name><![CDATA[5_Moskenes-Tromsø: 552km]]></name>
    <trkseg>
      <trkpt lat="67.89983" lon="13.04379">
        <ele>8.54804</ele>
        <time>2020-07-15T12:15:47.171Z</time>
      </trkpt>
      <trkpt lat="67.89985" lon="13.04423">
        <ele>8.54804</ele>
        <time>2020-07-15T12:15:52.863Z</time>
      </trkpt>
      <trkpt lat="67.89993" lon="13.04661">
        <ele>9.285324</ele>
        <time>2020-07-15T12:16:23.310Z</time>
      </trkpt>
      <trkpt lat="67.89999" lon="13.0466">
        <ele>9.548777</ele>
        <time>2020-07-15T12:16:26.269Z</time>
      </trkpt>
      <trkpt lat="67.90002" lon="13.0466">
        <ele>9.658583</ele>
        <time>2020-07-15T12:16:27.834Z</time>
      </trkpt>
      <trkpt lat="67.90004" lon="13.0466">
        <ele>9.772713</ele>
        <time>2020-07-15T12:16:28.843Z</time>
      </trkpt>
      <trkpt lat="67.90007" lon="13.0466">
        <ele>9.895671</ele>
        <time>2020-07-15T12:16:29.382Z</time>
      </trkpt>
      <trkpt lat="67.9001" lon="13.04659">
        <ele>10.031783</ele>
        <time>2020-07-15T12:16:29.986Z</time>
      </trkpt>
      <trkpt lat="67.90014" lon="13.04659">
        <ele>10.17223</ele>
        <time>2020-07-15T12:16:30.768Z</time>
      </trkpt>
      <trkpt lat="67.90017" lon="13.04659">
        <ele>10.325945</ele>
        <time>2020-07-15T12:16:31.763Z</time>
      </trkpt>
      <trkpt lat="67.90019" lon="13.04658">
        <ele>10.40061</ele>
        <time>2020-07-15T12:16:32.311Z</time>
      </trkpt>
      <trkpt lat="67.90024" lon="13.04656">
        <ele>10.648995</ele>
        <time>2020-07-15T12:16:34.092Z</time>
      </trkpt>
      <trkpt lat="67.90032" lon="13.04653">
        <ele>10.981785</ele>
        <time>2020-07-15T12:16:36.269Z</time>
      </trkpt>
      <trkpt lat="67.90037" lon="13.04651">
        <ele>11.19014</ele>
        <time>2020-07-15T12:16:39.648Z</time>
      </trkpt>
      <trkpt lat="67.90103" lon="13.04647">
        <ele>14.121999</ele>
        <time>2020-07-15T12:16:58.828Z</time>
      </trkpt>
      <trkpt lat="67.90111" lon="13.04644">
        <ele>14.458659</ele>
        <time>2020-07-15T12:17:03.161Z</time>
      </trkpt>
      <trkpt lat="67.90122" lon="13.04638">
        <ele>14.962747</ele>
        <time>2020-07-15T12:17:05.404Z</time>
      </trkpt>
      <trkpt lat="67.90149" lon="13.04594">
        <ele>16.356433</ele>
        <time>2020-07-15T12:17:14.605Z</time>
      </trkpt>
      <trkpt lat="67.90174" lon="13.04483">
        <ele>18.731916</ele>
        <time>2020-07-15T12:17:28.903Z</time>
      </trkpt>
      <trkpt lat="67.90179" lon="13.04453">
        <ele>19.339128</ele>
        <time>2020-07-15T12:17:32.893Z</time>
      </trkpt>
      <trkpt lat="67.90185" lon="13.04421">
        <ele>19.996258</ele>
        <time>2020-07-15T12:17:37.820Z</time>
      </trkpt>
      <trkpt lat="67.90197" lon="13.04341">
        <ele>21.603963</ele>
        <time>2020-07-15T12:17:49.906Z</time>
      </trkpt>
      <trkpt lat="67.90211" lon="13.04261">
        <ele>23.223647</ele>
        <time>2020-07-15T12:18:01.022Z</time>
      </trkpt>
      <trkpt lat="67.90214" lon="13.0424">
        <ele>23.647992</ele>
        <time>2020-07-15T12:18:05.085Z</time>
      </trkpt>
      <trkpt lat="67.9023" lon="13.04167">
        <ele>25.2122</ele>
        <time>2020-07-15T12:18:15.293Z</time>
      </trkpt>
      <trkpt lat="67.90233" lon="13.04156">
        <ele>25.374419</ele>
        <time>2020-07-15T12:18:17.639Z</time>
      </trkpt>
      <trkpt lat="67.90241" lon="13.04173">
        <ele>25.636166</ele>
        <time>2020-07-15T12:18:20.819Z</time>
      </trkpt>
      <trkpt lat="67.90253" lon="13.04195">
        <ele>26.001742</ele>
        <time>2020-07-15T12:18:25.015Z</time>
      </trkpt>
      <trkpt lat="67.90262" lon="13.04214">
        <ele>26.307827</ele>
        <time>2020-07-15T12:18:29.965Z</time>
      </trkpt>
      <trkpt lat="67.90274" lon="13.04234">
        <ele>26.664071</ele>
        <time>2020-07-15T12:18:34.348Z</time>
      </trkpt>
      <trkpt lat="67.90295" lon="13.04272">
        <ele>27.302404</ele>
        <time>2020-07-15T12:18:43.101Z</time>
      </trkpt>
      <trkpt lat="67.90341" lon="13.04359">
        <ele>28.754783</ele>
        <time>2020-07-15T12:18:57.271Z</time>
      </trkpt>
      <trkpt lat="67.90352" lon="13.04379">
        <ele>29.081369</ele>
        <time>2020-07-15T12:19:00.334Z</time>
      </trkpt>
      <trkpt lat="67.90424" lon="13.04497">
        <ele>28.265512</ele>
        <time>2020-07-15T12:19:12.682Z</time>
      </trkpt>
      <trkpt lat="67.90436" lon="13.04517">
        <ele>27.83619</ele>
        <time>2020-07-15T12:19:14.410Z</time>
      </trkpt>
      <trkpt lat="67.90442" lon="13.04526">
        <ele>27.637424</ele>
        <time>2020-07-15T12:19:15.165Z</time>
      </trkpt>
      <trkpt lat="67.90486" lon="13.04595">
        <ele>26.116096</ele>
        <time>2020-07-15T12:19:21.790Z</time>
      </trkpt>
      <trkpt lat="67.90494" lon="13.04606">
        <ele>25.856546</ele>
        <time>2020-07-15T12:19:22.906Z</time>
      </trkpt>
      <trkpt lat="67.90525" lon="13.04656">
        <ele>24.78855</ele>
        <time>2020-07-15T12:19:27.570Z</time>
      </trkpt>
      <trkpt lat="67.90523" lon="13.04675">
        <ele>24.572582</ele>
        <time>2020-07-15T12:19:29.126Z</time>
      </trkpt>
      <trkpt lat="67.90525" lon="13.04691">
        <ele>24.402074</ele>
        <time>2020-07-15T12:19:30.522Z</time>
      </trkpt>
      <trkpt lat="67.90526" lon="13.04698">
        <ele>24.330279</ele>
        <time>2020-07-15T12:19:31.272Z</time>
      </trkpt>
      <trkpt lat="67.90545" lon="13.04732">
        <ele>23.74537</ele>
        <time>2020-07-15T12:19:36.898Z</time>
      </trkpt>
      <trkpt lat="67.90553" lon="13.04749">
        <ele>23.470699</ele>
        <time>2020-07-15T12:19:39.244Z</time>
      </trkpt>
      <trkpt lat="67.90562" lon="13.04767">
        <ele>23.193417</ele>
        <time>2020-07-15T12:19:41.146Z</time>
      </trkpt>
      <trkpt lat="67.90595" lon="13.04832">
        <ele>22.15875</ele>
        <time>2020-07-15T12:19:47.024Z</time>
      </trkpt>
      <trkpt lat="67.90639" lon="13.04885">
        <ele>20.91487</ele>
        <time>2020-07-15T12:19:53.929Z</time>
      </trkpt>
      <trkpt lat="67.90731" lon="13.05046">
        <ele>18.532001</ele>
        <time>2020-07-15T12:20:10.592Z</time>
      </trkpt>
      <trkpt lat="67.90801" lon="13.05229">
        <ele>16.59042</ele>
        <time>2020-07-15T12:20:24.946Z</time>
      </trkpt>
      <trkpt lat="67.9083" lon="13.0533">
        <ele>16.206683</ele>
        <time>2020-07-15T12:20:31.939Z</time>
      </trkpt>
      <trkpt lat="67.90859" lon="13.05567">
        <ele>15.733288</ele>
        <time>2020-07-15T12:20:46.964Z</time>
      </trkpt>
      <trkpt lat="67.909" lon="13.05742">
        <ele>16.542433</ele>
        <time>2020-07-15T12:21:04.461Z</time>
      </trkpt>
      <trkpt lat="67.90954" lon="13.06116">
        <ele>21.96413</ele>
        <time>2020-07-15T12:21:53.372Z</time>
      </trkpt>
      <trkpt lat="67.91026" lon="13.06478">
        <ele>27.126366</ele>
        <time>2020-07-15T12:22:44.636Z</time>
      </trkpt>
      <trkpt lat="67.91031" lon="13.06556">
        <ele>27.805937</ele>
        <time>2020-07-15T12:22:50.996Z</time>
      </trkpt>
      <trkpt lat="67.91031" lon="13.06676">
        <ele>25.938429</ele>
        <time>2020-07-15T12:22:57.379Z</time>
      </trkpt>
      <trkpt lat="67.91014" lon="13.06876">
        <ele>22.734526</ele>
        <time>2020-07-15T12:23:07.212Z</time>
      </trkpt>
      <trkpt lat="67.91016" lon="13.06935">
        <ele>21.811768</ele>
        <time>2020-07-15T12:23:09.856Z</time>
      </trkpt>
      <trkpt lat="67.91025" lon="13.06993">
        <ele>20.836235</ele>
        <time>2020-07-15T12:23:12.873Z</time>
      </trkpt>
      <trkpt lat="67.91033" lon="13.07016">
        <ele>20.280926</ele>
        <time>2020-07-15T12:23:14.189Z</time>
      </trkpt>
      <trkpt lat="67.91041" lon="13.07054">
        <ele>19.307006</ele>
        <time>2020-07-15T12:23:17.799Z</time>
      </trkpt>
      <trkpt lat="67.91065" lon="13.07131">
        <ele>17.043646</ele>
        <time>2020-07-15T12:23:25.755Z</time>
      </trkpt>
      <trkpt lat="67.91179" lon="13.07355">
        <ele>9.116131</ele>
        <time>2020-07-15T12:23:56.191Z</time>
      </trkpt>
      <trkpt lat="67.91182" lon="13.07384">
        <ele>8.719455</ele>
        <time>2020-07-15T12:23:58.702Z</time>
      </trkpt>
      <trkpt lat="67.91187" lon="13.07403">
        <ele>8.407418</ele>
        <time>2020-07-15T12:24:00.722Z</time>
      </trkpt>
      <trkpt lat="67.91201" lon="13.07415">
        <ele>7.873181</ele>
        <time>2020-07-15T12:24:04.408Z</time>
      </trkpt>
      <trkpt lat="67.91204" lon="13.07391">
        <ele>7.55268</ele>
        <time>2020-07-15T12:24:05.995Z</time>
      </trkpt>
      <trkpt lat="67.91215" lon="13.07418">
        <ele>7.017853</ele>
        <time>2020-07-15T12:24:07.889Z</time>
      </trkpt>
      <trkpt lat="67.91248" lon="13.07496">
        <ele>5.43981</ele>
        <time>2020-07-15T12:24:13.833Z</time>
      </trkpt>
      <trkpt lat="67.91257" lon="13.07516">
        <ele>5.048738</ele>
        <time>2020-07-15T12:24:15.236Z</time>
      </trkpt>
      <trkpt lat="67.91373" lon="13.07799">
        <ele>1.791837</ele>
        <time>2020-07-15T12:24:37.122Z</time>
      </trkpt>
      <trkpt lat="67.91401" lon="13.0787">
        <ele>1.221633</ele>
        <time>2020-07-15T12:24:43.768Z</time>
      </trkpt>
      <trkpt lat="67.91427" lon="13.07934">
        <ele>0.81275</ele>
        <time>2020-07-15T12:24:49.989Z</time>
      </trkpt>
      <trkpt lat="67.91448" lon="13.07982">
        <ele>0.8603</ele>
        <time>2020-07-15T12:24:54.827Z</time>
      </trkpt>
      <trkpt lat="67.91473" lon="13.08021">
        <ele>0.910175</ele>
        <time>2020-07-15T12:24:59.940Z</time>
      </trkpt>
      <trkpt lat="67.91483" lon="13.08031">
        <ele>0.927847</ele>
        <time>2020-07-15T12:25:01.811Z</time>
      </trkpt>
      <trkpt lat="67.91492" lon="13.08038">
        <ele>0.943303</ele>
        <time>2020-07-15T12:25:03.379Z</time>
      </trkpt>
      <trkpt lat="67.91599" lon="13.08074">
        <ele>1.253836</ele>
        <time>2020-07-15T12:25:23.599Z</time>
      </trkpt>
      <trkpt lat="67.91712" lon="13.08162">
        <ele>2.731128</ele>
        <time>2020-07-15T12:25:48.766Z</time>
      </trkpt>
      <trkpt lat="67.91775" lon="13.08179">
        <ele>3.598668</ele>
        <time>2020-07-15T12:26:04.024Z</time>
      </trkpt>
      <trkpt lat="67.91811" lon="13.08164">
        <ele>4.267232</ele>
        <time>2020-07-15T12:26:13.177Z</time>
      </trkpt>
      <trkpt lat="67.91842" lon="13.08134">
        <ele>4.880308</ele>
        <time>2020-07-15T12:26:21.726Z</time>
      </trkpt>
      <trkpt lat="67.91933" lon="13.07994">
        <ele>6.676309</ele>
        <time>2020-07-15T12:26:46.638Z</time>
      </trkpt>
      <trkpt lat="67.92003" lon="13.07916">
        <ele>6.719943</ele>
        <time>2020-07-15T12:27:00.793Z</time>
      </trkpt>
      <trkpt lat="67.92012" lon="13.07901">
        <ele>6.726165</ele>
        <time>2020-07-15T12:27:02.716Z</time>
      </trkpt>
      <trkpt lat="67.92031" lon="13.07874">
        <ele>6.738413</ele>
        <time>2020-07-15T12:27:05.920Z</time>
      </trkpt>
      <trkpt lat="67.92039" lon="13.07863">
        <ele>6.74386</ele>
        <time>2020-07-15T12:27:07.492Z</time>
      </trkpt>
      <trkpt lat="67.92052" lon="13.07847">
        <ele>6.752029</ele>
        <time>2020-07-15T12:27:09.816Z</time>
      </trkpt>
      <trkpt lat="67.92088" lon="13.07831">
        <ele>6.772801</ele>
        <time>2020-07-15T12:27:15.732Z</time>
      </trkpt>
      <trkpt lat="67.92159" lon="13.07848">
        <ele>6.850676</ele>
        <time>2020-07-15T12:27:28.329Z</time>
      </trkpt>
      <trkpt lat="67.92173" lon="13.07846">
        <ele>6.866635</ele>
        <time>2020-07-15T12:27:30.563Z</time>
      </trkpt>
      <trkpt lat="67.92175" lon="13.07852">
        <ele>6.870524</ele>
        <time>2020-07-15T12:27:31.466Z</time>
      </trkpt>
      <trkpt lat="67.92199" lon="13.07858">
        <ele>6.897771</ele>
        <time>2020-07-15T12:27:39.171Z</time>
      </trkpt>
      <trkpt lat="67.92219" lon="13.07845">
        <ele>6.920517</ele>
        <time>2020-07-15T12:27:44.900Z</time>
      </trkpt>
      <trkpt lat="67.92226" lon="13.07842">
        <ele>6.928083</ele>
        <time>2020-07-15T12:27:47.305Z</time>
      </trkpt>
      <trkpt lat="67.92228" lon="13.07841">
        <ele>6.931302</ele>
        <time>2020-07-15T12:27:48.133Z</time>
      </trkpt>
      <trkpt lat="67.92234" lon="13.07841">
        <ele>6.93763</ele>
        <time>2020-07-15T12:27:49.344Z</time>
      </trkpt>
      <trkpt lat="67.92237" lon="13.07842">
        <ele>6.940961</ele>
        <time>2020-07-15T12:27:50.307Z</time>
      </trkpt>
      <trkpt lat="67.92293" lon="13.07895">
        <ele>6.96878</ele>
        <time>2020-07-15T12:28:01.411Z</time>
      </trkpt>
      <trkpt lat="67.92302" lon="13.07912">
        <ele>6.964585</ele>
        <time>2020-07-15T12:28:04.345Z</time>
      </trkpt>
      <trkpt lat="67.92311" lon="13.07928">
        <ele>6.960702</ele>
        <time>2020-07-15T12:28:05.862Z</time>
      </trkpt>
      <trkpt lat="67.92398" lon="13.08128">
        <ele>6.917682</ele>
        <time>2020-07-15T12:28:26.662Z</time>
      </trkpt>
      <trkpt lat="67.9243" lon="13.08185">
        <ele>6.671658</ele>
        <time>2020-07-15T12:28:32.530Z</time>
      </trkpt>
      <trkpt lat="67.92457" lon="13.08218">
        <ele>6.344235</ele>
        <time>2020-07-15T12:28:37.029Z</time>
      </trkpt>
      <trkpt lat="67.92502" lon="13.08236">
        <ele>5.839177</ele>
        <time>2020-07-15T12:28:43.759Z</time>
      </trkpt>
      <trkpt lat="67.92564" lon="13.08301">
        <ele>5.107487</ele>
        <time>2020-07-15T12:28:53.958Z</time>
      </trkpt>
      <trkpt lat="67.92571" lon="13.08305">
        <ele>5.03097</ele>
        <time>2020-07-15T12:28:54.858Z</time>
      </trkpt>
      <trkpt lat="67.92581" lon="13.0831">
        <ele>4.922828</ele>
        <time>2020-07-15T12:28:56.779Z</time>
      </trkpt>
      <trkpt lat="67.92743" lon="13.08359">
        <ele>3.438565</ele>
        <time>2020-07-15T12:29:23.432Z</time>
      </trkpt>
      <trkpt lat="67.92805" lon="13.08361">
        <ele>3.068481</ele>
        <time>2020-07-15T12:29:33.982Z</time>
      </trkpt>
      <trkpt lat="67.92813" lon="13.08368">
        <ele>3.029171</ele>
        <time>2020-07-15T12:29:35.653Z</time>
      </trkpt>
      <trkpt lat="67.92819" lon="13.08424">
        <ele>2.920406</ele>
        <time>2020-07-15T12:29:39.748Z</time>
      </trkpt>
      <trkpt lat="67.92823" lon="13.08423">
        <ele>2.901112</ele>
        <time>2020-07-15T12:29:40.235Z</time>
      </trkpt>
      <trkpt lat="67.92822" lon="13.08402">
        <ele>2.861703</ele>
        <time>2020-07-15T12:29:41.948Z</time>
      </trkpt>
      <trkpt lat="67.92818" lon="13.08356">
        <ele>2.775837</ele>
        <time>2020-07-15T12:29:44.659Z</time>
      </trkpt>
      <trkpt lat="67.92817" lon="13.0834">
        <ele>2.744779</ele>
        <time>2020-07-15T12:29:46.255Z</time>
      </trkpt>
      <trkpt lat="67.92823" lon="13.08336">
        <ele>2.715856</ele>
        <time>2020-07-15T12:29:47.005Z</time>
      </trkpt>
      <trkpt lat="67.92914" lon="13.08229">
        <ele>2.413546</ele>
        <time>2020-07-15T12:30:03.671Z</time>
      </trkpt>
      <trkpt lat="67.92967" lon="13.08188">
        <ele>2.413983</ele>
        <time>2020-07-15T12:30:13.785Z</time>
      </trkpt>
      <trkpt lat="67.92983" lon="13.08175">
        <ele>2.414111</ele>
        <time>2020-07-15T12:30:16.416Z</time>
      </trkpt>
      <trkpt lat="67.92994" lon="13.08164">
        <ele>2.414203</ele>
        <time>2020-07-15T12:30:18.612Z</time>
      </trkpt>
      <trkpt lat="67.93003" lon="13.08152">
        <ele>2.414282</ele>
        <time>2020-07-15T12:30:20.408Z</time>
      </trkpt>
      <trkpt lat="67.9301" lon="13.0814">
        <ele>2.414351</ele>
        <time>2020-07-15T12:30:21.866Z</time>
      </trkpt>
      <trkpt lat="67.93019" lon="13.08123">
        <ele>2.414436</ele>
        <time>2020-07-15T12:30:23.902Z</time>
      </trkpt>
      <trkpt lat="67.93044" lon="13.08042">
        <ele>2.486373</ele>
        <time>2020-07-15T12:30:31.381Z</time>
      </trkpt>
      <trkpt lat="67.93133" lon="13.07654">
        <ele>3.612405</ele>
        <time>2020-07-15T12:31:06.563Z</time>
      </trkpt>
      <trkpt lat="67.93139" lon="13.07633">
        <ele>3.567282</ele>
        <time>2020-07-15T12:31:08.891Z</time>
      </trkpt>
      <trkpt lat="67.9315" lon="13.07597">
        <ele>3.486289</ele>
        <time>2020-07-15T12:31:11.807Z</time>
      </trkpt>
      <trkpt lat="67.93182" lon="13.07521">
        <ele>3.287196</ele>
        <time>2020-07-15T12:31:19.286Z</time>
      </trkpt>
      <trkpt lat="67.93237" lon="13.07456">
        <ele>3.006053</ele>
        <time>2020-07-15T12:31:28.936Z</time>
      </trkpt>
      <trkpt lat="67.93283" lon="13.07446">
        <ele>2.795267</ele>
        <time>2020-07-15T12:31:35.911Z</time>
      </trkpt>
      <trkpt lat="67.93333" lon="13.07466">
        <ele>2.358462</ele>
        <time>2020-07-15T12:31:43.555Z</time>
      </trkpt>
      <trkpt lat="67.93336" lon="13.07466">
        <ele>2.33053</ele>
        <time>2020-07-15T12:31:43.956Z</time>
      </trkpt>
      <trkpt lat="67.93341" lon="13.07466">
        <ele>2.291292</ele>
        <time>2020-07-15T12:31:44.669Z</time>
      </trkpt>
      <trkpt lat="67.93383" lon="13.07451">
        <ele>1.923307</ele>
        <time>2020-07-15T12:31:51.181Z</time>
      </trkpt>
      <trkpt lat="67.93448" lon="13.07385">
        <ele>1.312994</ele>
        <time>2020-07-15T12:32:02.496Z</time>
      </trkpt>
      <trkpt lat="67.93482" lon="13.07391">
        <ele>1.253606</ele>
        <time>2020-07-15T12:32:08.340Z</time>
      </trkpt>
      <trkpt lat="67.93507" lon="13.0741">
        <ele>1.291636</ele>
        <time>2020-07-15T12:32:13.004Z</time>
      </trkpt>
      <trkpt lat="67.93511" lon="13.07413">
        <ele>1.298215</ele>
        <time>2020-07-15T12:32:13.888Z</time>
      </trkpt>
      <trkpt lat="67.93546" lon="13.07427">
        <ele>1.351286</ele>
        <time>2020-07-15T12:32:20.525Z</time>
      </trkpt>
      <trkpt lat="67.93577" lon="13.07417">
        <ele>1.398172</ele>
        <time>2020-07-15T12:32:26.393Z</time>
      </trkpt>
      <trkpt lat="67.9361" lon="13.07366">
        <ele>1.454048</ele>
        <time>2020-07-15T12:32:33.501Z</time>
      </trkpt>
      <trkpt lat="67.93668" lon="13.07233">
        <ele>1.451811</ele>
        <time>2020-07-15T12:32:48.043Z</time>
      </trkpt>
      <trkpt lat="67.93694" lon="13.07204">
        <ele>1.434214</ele>
        <time>2020-07-15T12:32:53.067Z</time>
      </trkpt>
      <trkpt lat="67.9371" lon="13.07201">
        <ele>1.423677</ele>
        <time>2020-07-15T12:32:55.987Z</time>
      </trkpt>
      <trkpt lat="67.93742" lon="13.07218">
        <ele>1.403407</ele>
        <time>2020-07-15T12:33:01.429Z</time>
      </trkpt>
      <trkpt lat="67.93822" lon="13.07316">
        <ele>1.274834</ele>
        <time>2020-07-15T12:33:16.222Z</time>
      </trkpt>
      <trkpt lat="67.9384" lon="13.0734">
        <ele>1.223709</ele>
        <time>2020-07-15T12:33:19.648Z</time>
      </trkpt>
      <trkpt lat="67.93861" lon="13.07373">
        <ele>1.165437</ele>
        <time>2020-07-15T12:33:23.620Z</time>
      </trkpt>
      <trkpt lat="67.93868" lon="13.07384">
        <ele>1.145244</ele>
        <time>2020-07-15T12:33:24.951Z</time>
      </trkpt>
      <trkpt lat="67.93897" lon="13.07448">
        <ele>1.052258</ele>
        <time>2020-07-15T12:33:31.360Z</time>
      </trkpt>
      <trkpt lat="67.93924" lon="13.07518">
        <ele>0.960071</ele>
        <time>2020-07-15T12:33:37.740Z</time>
      </trkpt>
      <trkpt lat="67.93947" lon="13.07581">
        <ele>1.126243</ele>
        <time>2020-07-15T12:33:43.912Z</time>
      </trkpt>
      <trkpt lat="67.93964" lon="13.07659">
        <ele>1.436484</ele>
        <time>2020-07-15T12:33:50.364Z</time>
      </trkpt>
      <trkpt lat="67.93967" lon="13.07691">
        <ele>1.548604</ele>
        <time>2020-07-15T12:33:52.979Z</time>
      </trkpt>
      <trkpt lat="67.93967" lon="13.077">
        <ele>1.580108</ele>
        <time>2020-07-15T12:33:53.755Z</time>
      </trkpt>
      <trkpt lat="67.93966" lon="13.07707">
        <ele>1.604426</ele>
        <time>2020-07-15T12:33:54.278Z</time>
      </trkpt>
      <trkpt lat="67.93964" lon="13.07729">
        <ele>1.682681</ele>
        <time>2020-07-15T12:33:55.876Z</time>
      </trkpt>
      <trkpt lat="67.93962" lon="13.07752">
        <ele>1.76471</ele>
        <time>2020-07-15T12:33:57.529Z</time>
      </trkpt>
      <trkpt lat="67.93957" lon="13.07794">
        <ele>1.919159</ele>
        <time>2020-07-15T12:34:01.244Z</time>
      </trkpt>
      <trkpt lat="67.93952" lon="13.07824">
        <ele>2.03447</ele>
        <time>2020-07-15T12:34:03.660Z</time>
      </trkpt>
      <trkpt lat="67.93948" lon="13.07838">
        <ele>2.089818</ele>
        <time>2020-07-15T12:34:04.800Z</time>
      </trkpt>
      <trkpt lat="67.93946" lon="13.07849">
        <ele>2.135872</ele>
        <time>2020-07-15T12:34:05.780Z</time>
      </trkpt>
      <trkpt lat="67.9394" lon="13.07874">
        <ele>2.237079</ele>
        <time>2020-07-15T12:34:08.523Z</time>
      </trkpt>
      <trkpt lat="67.93916" lon="13.07972">
        <ele>2.791527</ele>
        <time>2020-07-15T12:34:18.270Z</time>
      </trkpt>
      <trkpt lat="67.93908" lon="13.08109">
        <ele>4.508288</ele>
        <time>2020-07-15T12:34:31.687Z</time>
      </trkpt>
      <trkpt lat="67.93888" lon="13.08217">
        <ele>6.004074</ele>
        <time>2020-07-15T12:34:45.905Z</time>
      </trkpt>
      <trkpt lat="67.93887" lon="13.08226">
        <ele>6.119563</ele>
        <time>2020-07-15T12:34:47.069Z</time>
      </trkpt>
      <trkpt lat="67.93886" lon="13.08234">
        <ele>6.228224</ele>
        <time>2020-07-15T12:34:48.133Z</time>
      </trkpt>
      <trkpt lat="67.93887" lon="13.08282">
        <ele>6.82104</ele>
        <time>2020-07-15T12:34:53.737Z</time>
      </trkpt>
      <trkpt lat="67.9389" lon="13.08308">
        <ele>7.15678</ele>
        <time>2020-07-15T12:34:57.331Z</time>
      </trkpt>
      <trkpt lat="67.93892" lon="13.08323">
        <ele>7.355427</ele>
        <time>2020-07-15T12:34:59.166Z</time>
      </trkpt>
      <trkpt lat="67.93894" lon="13.08338">
        <ele>7.556429</ele>
        <time>2020-07-15T12:35:01.157Z</time>
      </trkpt>
      <trkpt lat="67.93903" lon="13.08392">
        <ele>8.286063</ele>
        <time>2020-07-15T12:35:08.396Z</time>
      </trkpt>
      <trkpt lat="67.93907" lon="13.08407">
        <ele>8.509628</ele>
        <time>2020-07-15T12:35:10.264Z</time>
      </trkpt>
      <trkpt lat="67.93915" lon="13.08433">
        <ele>8.726518</ele>
        <time>2020-07-15T12:35:13.818Z</time>
      </trkpt>
      <trkpt lat="67.93939" lon="13.08527">
        <ele>9.4212</ele>
        <time>2020-07-15T12:35:23.827Z</time>
      </trkpt>
      <trkpt lat="67.9394" lon="13.08541">
        <ele>9.511028</ele>
        <time>2020-07-15T12:35:26.257Z</time>
      </trkpt>
      <trkpt lat="67.93941" lon="13.08554">
        <ele>9.592919</ele>
        <time>2020-07-15T12:35:27.630Z</time>
      </trkpt>
      <trkpt lat="67.93941" lon="13.08583">
        <ele>9.773087</ele>
        <time>2020-07-15T12:35:30.488Z</time>
      </trkpt>
      <trkpt lat="67.93939" lon="13.08611">
        <ele>9.950797</ele>
        <time>2020-07-15T12:35:32.718Z</time>
      </trkpt>
      <trkpt lat="67.93935" lon="13.08676">
        <ele>10.35242</ele>
        <time>2020-07-15T12:35:38.538Z</time>
      </trkpt>
      <trkpt lat="67.93931" lon="13.08729">
        <ele>10.687791</ele>
        <time>2020-07-15T12:35:43.091Z</time>
      </trkpt>
      <trkpt lat="67.93928" lon="13.08752">
        <ele>10.836974</ele>
        <time>2020-07-15T12:35:45.131Z</time>
      </trkpt>
      <trkpt lat="67.9392" lon="13.08806">
        <ele>11.196536</ele>
        <time>2020-07-15T12:35:48.553Z</time>
      </trkpt>
      <trkpt lat="67.93904" lon="13.08872">
        <ele>11.295203</ele>
        <time>2020-07-15T12:35:54.005Z</time>
      </trkpt>
      <trkpt lat="67.93903" lon="13.08883">
        <ele>11.225897</ele>
        <time>2020-07-15T12:35:54.515Z</time>
      </trkpt>
      <trkpt lat="67.93901" lon="13.08898">
        <ele>11.137814</ele>
        <time>2020-07-15T12:35:56.555Z</time>
      </trkpt>
      <trkpt lat="67.93901" lon="13.08934">
        <ele>10.929412</ele>
        <time>2020-07-15T12:35:58.830Z</time>
      </trkpt>
      <trkpt lat="67.93906" lon="13.09002">
        <ele>10.533859</ele>
        <time>2020-07-15T12:36:02.352Z</time>
      </trkpt>
      <trkpt lat="67.93909" lon="13.09051">
        <ele>10.249268</ele>
        <time>2020-07-15T12:36:04.862Z</time>
      </trkpt>
      <trkpt lat="67.93924" lon="13.09155">
        <ele>9.606325</ele>
        <time>2020-07-15T12:36:10.387Z</time>
      </trkpt>
      <trkpt lat="67.93974" lon="13.09333">
        <ele>8.470221</ele>
        <time>2020-07-15T12:36:23.321Z</time>
      </trkpt>
      <trkpt lat="67.94003" lon="13.09399">
        <ele>8.088252</ele>
        <time>2020-07-15T12:36:29.417Z</time>
      </trkpt>
      <trkpt lat="67.94078" lon="13.09528">
        <ele>7.196665</ele>
        <time>2020-07-15T12:36:43.487Z</time>
      </trkpt>
      <trkpt lat="67.94106" lon="13.09609">
        <ele>6.663308</ele>
        <time>2020-07-15T12:36:49.842Z</time>
      </trkpt>
      <trkpt lat="67.94111" lon="13.0963">
        <ele>6.501696</ele>
        <time>2020-07-15T12:36:51.597Z</time>
      </trkpt>
      <trkpt lat="67.94113" lon="13.09643">
        <ele>6.412135</ele>
        <time>2020-07-15T12:36:52.168Z</time>
      </trkpt>
      <trkpt lat="67.94131" lon="13.098">
        <ele>5.319485</ele>
        <time>2020-07-15T12:37:01.581Z</time>
      </trkpt>
      <trkpt lat="67.94143" lon="13.09852">
        <ele>4.914577</ele>
        <time>2020-07-15T12:37:04.717Z</time>
      </trkpt>
      <trkpt lat="67.94217" lon="13.0995">
        <ele>3.515844</ele>
        <time>2020-07-15T12:37:16.076Z</time>
      </trkpt>
      <trkpt lat="67.94242" lon="13.09997">
        <ele>3.063656</ele>
        <time>2020-07-15T12:37:20.494Z</time>
      </trkpt>
      <trkpt lat="67.94248" lon="13.10018">
        <ele>2.923105</ele>
        <time>2020-07-15T12:37:21.886Z</time>
      </trkpt>
      <trkpt lat="67.94254" lon="13.10043">
        <ele>2.764788</ele>
        <time>2020-07-15T12:37:23.459Z</time>
      </trkpt>
      <trkpt lat="67.94258" lon="13.10066">
        <ele>2.622948</ele>
        <time>2020-07-15T12:37:24.896Z</time>
      </trkpt>
      <trkpt lat="67.94261" lon="13.10086">
        <ele>2.509855</ele>
        <time>2020-07-15T12:37:26.093Z</time>
      </trkpt>
      <trkpt lat="67.94263" lon="13.10109">
        <ele>2.381245</ele>
        <time>2020-07-15T12:37:27.364Z</time>
      </trkpt>
      <trkpt lat="67.9426" lon="13.10185">
        <ele>1.963198</ele>
        <time>2020-07-15T12:37:31.768Z</time>
      </trkpt>
      <trkpt lat="67.94257" lon="13.1021">
        <ele>1.820039</ele>
        <time>2020-07-15T12:37:33.226Z</time>
      </trkpt>
      <trkpt lat="67.94252" lon="13.10234">
        <ele>1.670512</ele>
        <time>2020-07-15T12:37:34.842Z</time>
      </trkpt>
      <trkpt lat="67.94231" lon="13.10317">
        <ele>1.14579</ele>
        <time>2020-07-15T12:37:40.777Z</time>
      </trkpt>
      <trkpt lat="67.9423" lon="13.10323">
        <ele>1.136653</ele>
        <time>2020-07-15T12:37:41.153Z</time>
      </trkpt>
      <trkpt lat="67.94225" lon="13.10348">
        <ele>1.100387</ele>
        <time>2020-07-15T12:37:42.928Z</time>
      </trkpt>
      <trkpt lat="67.94223" lon="13.10364">
        <ele>1.076264</ele>
        <time>2020-07-15T12:37:43.977Z</time>
      </trkpt>
      <trkpt lat="67.94211" lon="13.10453">
        <ele>0.951772</ele>
        <time>2020-07-15T12:37:49.669Z</time>
      </trkpt>
      <trkpt lat="67.94193" lon="13.10666">
        <ele>0.662486</ele>
        <time>2020-07-15T12:38:03.759Z</time>
      </trkpt>
      <trkpt lat="67.94187" lon="13.10911">
        <ele>0.511436</ele>
        <time>2020-07-15T12:38:20.216Z</time>
      </trkpt>
      <trkpt lat="67.94187" lon="13.10929">
        <ele>0.510837</ele>
        <time>2020-07-15T12:38:21.520Z</time>
      </trkpt>
      <trkpt lat="67.94186" lon="13.10979">
        <ele>0.509172</ele>
        <time>2020-07-15T12:38:24.796Z</time>
      </trkpt>
      <trkpt lat="67.9418" lon="13.11058">
        <ele>0.506485</ele>
        <time>2020-07-15T12:38:30.217Z</time>
      </trkpt>
      <trkpt lat="67.9417" lon="13.11138">
        <ele>0.503667</ele>
        <time>2020-07-15T12:38:35.944Z</time>
      </trkpt>
      <trkpt lat="67.94164" lon="13.11181">
        <ele>0.502146</ele>
        <time>2020-07-15T12:38:39.007Z</time>
      </trkpt>
      <trkpt lat="67.94155" lon="13.11283">
        <ele>0.499634</ele>
        <time>2020-07-15T12:38:46.132Z</time>
      </trkpt>
      <trkpt lat="67.94154" lon="13.11408">
        <ele>0.498504</ele>
        <time>2020-07-15T12:38:54.488Z</time>
      </trkpt>
      <trkpt lat="67.94145" lon="13.11487">
        <ele>0.497771</ele>
        <time>2020-07-15T12:38:59.865Z</time>
      </trkpt>
      <trkpt lat="67.94143" lon="13.11501">
        <ele>0.497625</ele>
        <time>2020-07-15T12:39:00.882Z</time>
      </trkpt>
      <trkpt lat="67.94141" lon="13.11517">
        <ele>0.497472</ele>
        <time>2020-07-15T12:39:02.056Z</time>
      </trkpt>
      <trkpt lat="67.94134" lon="13.11564">
        <ele>0.497015</ele>
        <time>2020-07-15T12:39:05.388Z</time>
      </trkpt>
      <trkpt lat="67.94127" lon="13.11609">
        <ele>0.496579</ele>
        <time>2020-07-15T12:39:08.628Z</time>
      </trkpt>
      <trkpt lat="67.94125" lon="13.11625">
        <ele>0.49643</ele>
        <time>2020-07-15T12:39:09.769Z</time>
      </trkpt>
      <trkpt lat="67.94124" lon="13.11642">
        <ele>0.496275</ele>
        <time>2020-07-15T12:39:10.866Z</time>
      </trkpt>
      <trkpt lat="67.94122" lon="13.11747">
        <ele>0.480126</ele>
        <time>2020-07-15T12:39:17.925Z</time>
      </trkpt>
      <trkpt lat="67.94136" lon="13.11852">
        <ele>0.435552</ele>
        <time>2020-07-15T12:39:25.396Z</time>
      </trkpt>
      <trkpt lat="67.9414" lon="13.11865">
        <ele>0.428711</ele>
        <time>2020-07-15T12:39:26.484Z</time>
      </trkpt>
      <trkpt lat="67.94146" lon="13.11883">
        <ele>0.419059</ele>
        <time>2020-07-15T12:39:28.180Z</time>
      </trkpt>
      <trkpt lat="67.94156" lon="13.11902">
        <ele>0.406376</ele>
        <time>2020-07-15T12:39:30.278Z</time>
      </trkpt>
      <trkpt lat="67.9416" lon="13.1191">
        <ele>0.401322</ele>
        <time>2020-07-15T12:39:31.112Z</time>
      </trkpt>
      <trkpt lat="67.94186" lon="13.11945">
        <ele>0.370156</ele>
        <time>2020-07-15T12:39:36.126Z</time>
      </trkpt>
      <trkpt lat="67.94231" lon="13.11985">
        <ele>0.319581</ele>
        <time>2020-07-15T12:39:44.340Z</time>
      </trkpt>
      <trkpt lat="67.94259" lon="13.12008">
        <ele>0.313687</ele>
        <time>2020-07-15T12:39:49.465Z</time>
      </trkpt>
      <trkpt lat="67.94274" lon="13.12018">
        <ele>0.323077</ele>
        <time>2020-07-15T12:39:52.113Z</time>
      </trkpt>
      <trkpt lat="67.94279" lon="13.12024">
        <ele>0.326923</ele>
        <time>2020-07-15T12:39:53.216Z</time>
      </trkpt>
      <trkpt lat="67.94295" lon="13.12037">
        <ele>0.33687</ele>
        <time>2020-07-15T12:39:56.147Z</time>
      </trkpt>
      <trkpt lat="67.94361" lon="13.12102">
        <ele>0.380442</ele>
        <time>2020-07-15T12:40:09.070Z</time>
      </trkpt>
      <trkpt lat="67.94385" lon="13.1213">
        <ele>0.396796</ele>
        <time>2020-07-15T12:40:13.902Z</time>
      </trkpt>
      <trkpt lat="67.94407" lon="13.12156">
        <ele>0.411534</ele>
        <time>2020-07-15T12:40:18.325Z</time>
      </trkpt>
      <trkpt lat="67.94436" lon="13.122">
        <ele>0.439628</ele>
        <time>2020-07-15T12:40:24.366Z</time>
      </trkpt>
      <trkpt lat="67.94475" lon="13.12281">
        <ele>0.484343</ele>
        <time>2020-07-15T12:40:33.389Z</time>
      </trkpt>
      <trkpt lat="67.94497" lon="13.12363">
        <ele>0.518767</ele>
        <time>2020-07-15T12:40:40.237Z</time>
      </trkpt>
      <trkpt lat="67.94522" lon="13.12512">
        <ele>0.574159</ele>
        <time>2020-07-15T12:40:51.187Z</time>
      </trkpt>
      <trkpt lat="67.94528" lon="13.1267">
        <ele>0.569983</ele>
        <time>2020-07-15T12:41:01.892Z</time>
      </trkpt>
      <trkpt lat="67.94529" lon="13.12684">
        <ele>0.569224</ele>
        <time>2020-07-15T12:41:02.715Z</time>
      </trkpt>
      <trkpt lat="67.94531" lon="13.12734">
        <ele>0.566388</ele>
        <time>2020-07-15T12:41:06.123Z</time>
      </trkpt>
      <trkpt lat="67.94537" lon="13.12938">
        <ele>0.554855</ele>
        <time>2020-07-15T12:41:19.892Z</time>
      </trkpt>
      <trkpt lat="67.9453" lon="13.13228">
        <ele>0.465555</ele>
        <time>2020-07-15T12:41:39.191Z</time>
      </trkpt>
      <trkpt lat="67.94529" lon="13.13261">
        <ele>0.453039</ele>
        <time>2020-07-15T12:41:41.463Z</time>
      </trkpt>
      <trkpt lat="67.94529" lon="13.13265">
        <ele>0.451294</ele>
        <time>2020-07-15T12:41:41.733Z</time>
      </trkpt>
      <trkpt lat="67.94528" lon="13.13279">
        <ele>0.446171</ele>
        <time>2020-07-15T12:41:42.550Z</time>
      </trkpt>
      <trkpt lat="67.94528" lon="13.13312">
        <ele>0.433844</ele>
        <time>2020-07-15T12:41:44.743Z</time>
      </trkpt>
      <trkpt lat="67.94528" lon="13.13349">
        <ele>0.419705</ele>
        <time>2020-07-15T12:41:47.319Z</time>
      </trkpt>
      <trkpt lat="67.94529" lon="13.13369">
        <ele>0.412049</ele>
        <time>2020-07-15T12:41:48.526Z</time>
      </trkpt>
      <trkpt lat="67.94536" lon="13.13465">
        <ele>0.375283</ele>
        <time>2020-07-15T12:41:54.905Z</time>
      </trkpt>
      <trkpt lat="67.94547" lon="13.13541">
        <ele>0.322646</ele>
        <time>2020-07-15T12:42:00.375Z</time>
      </trkpt>
      <trkpt lat="67.94548" lon="13.1355">
        <ele>0.316279</ele>
        <time>2020-07-15T12:42:00.886Z</time>
      </trkpt>
      <trkpt lat="67.94552" lon="13.13566">
        <ele>0.303752</ele>
        <time>2020-07-15T12:42:02.083Z</time>
      </trkpt>
      <trkpt lat="67.94577" lon="13.13648">
        <ele>0.230459</ele>
        <time>2020-07-15T12:42:08.996Z</time>
      </trkpt>
      <trkpt lat="67.94612" lon="13.1371">
        <ele>0.153367</ele>
        <time>2020-07-15T12:42:16.212Z</time>
      </trkpt>
      <trkpt lat="67.94621" lon="13.13722">
        <ele>0.135155</ele>
        <time>2020-07-15T12:42:17.963Z</time>
      </trkpt>
      <trkpt lat="67.94625" lon="13.13727">
        <ele>0.127183</ele>
        <time>2020-07-15T12:42:18.734Z</time>
      </trkpt>
      <trkpt lat="67.94664" lon="13.13758">
        <ele>0.051036</ele>
        <time>2020-07-15T12:42:25.866Z</time>
      </trkpt>
      <trkpt lat="67.94695" lon="13.13762">
        <ele>0.053586</ele>
        <time>2020-07-15T12:42:31.302Z</time>
      </trkpt>
      <trkpt lat="67.94823" lon="13.13704">
        <ele>0.120602</ele>
        <time>2020-07-15T12:42:54.493Z</time>
      </trkpt>
      <trkpt lat="67.94834" lon="13.13703">
        <ele>0.126024</ele>
        <time>2020-07-15T12:42:56.369Z</time>
      </trkpt>
      <trkpt lat="67.94856" lon="13.13701">
        <ele>0.202047</ele>
        <time>2020-07-15T12:43:00.291Z</time>
      </trkpt>
      <trkpt lat="67.94953" lon="13.13746">
        <ele>1.107873</ele>
        <time>2020-07-15T12:43:20.052Z</time>
      </trkpt>
      <trkpt lat="67.94958" lon="13.13747">
        <ele>1.148321</ele>
        <time>2020-07-15T12:43:20.943Z</time>
      </trkpt>
      <trkpt lat="67.9498" lon="13.13754">
        <ele>1.356163</ele>
        <time>2020-07-15T12:43:25.581Z</time>
      </trkpt>
      <trkpt lat="67.94997" lon="13.13754">
        <ele>1.512543</ele>
        <time>2020-07-15T12:43:29.895Z</time>
      </trkpt>
      <trkpt lat="67.95007" lon="13.13752">
        <ele>1.598682</ele>
        <time>2020-07-15T12:43:31.843Z</time>
      </trkpt>
      <trkpt lat="67.95014" lon="13.13751">
        <ele>1.667324</ele>
        <time>2020-07-15T12:43:33.411Z</time>
      </trkpt>
      <trkpt lat="67.95022" lon="13.13748">
        <ele>1.739395</ele>
        <time>2020-07-15T12:43:35.809Z</time>
      </trkpt>
      <trkpt lat="67.95025" lon="13.13773">
        <ele>1.856074</ele>
        <time>2020-07-15T12:43:38.369Z</time>
      </trkpt>
      <trkpt lat="67.95031" lon="13.13785">
        <ele>1.963802</ele>
        <time>2020-07-15T12:43:40.341Z</time>
      </trkpt>
      <trkpt lat="67.95039" lon="13.13771">
        <ele>2.108163</ele>
        <time>2020-07-15T12:43:42.954Z</time>
      </trkpt>
      <trkpt lat="67.95042" lon="13.13766">
        <ele>2.155029</ele>
        <time>2020-07-15T12:43:43.816Z</time>
      </trkpt>
      <trkpt lat="67.95045" lon="13.13762">
        <ele>2.216449</ele>
        <time>2020-07-15T12:43:45.469Z</time>
      </trkpt>
      <trkpt lat="67.95095" lon="13.13702">
        <ele>3.013313</ele>
        <time>2020-07-15T12:43:58.403Z</time>
      </trkpt>
      <trkpt lat="67.95115" lon="13.13704">
        <ele>3.3077</ele>
        <time>2020-07-15T12:44:03.645Z</time>
      </trkpt>
      <trkpt lat="67.95242" lon="13.13837">
        <ele>4.278028</ele>
        <time>2020-07-15T12:44:33.585Z</time>
      </trkpt>
      <trkpt lat="67.95314" lon="13.13954">
        <ele>4.075312</ele>
        <time>2020-07-15T12:44:47.507Z</time>
      </trkpt>
      <trkpt lat="67.95352" lon="13.14002">
        <ele>3.939021</ele>
        <time>2020-07-15T12:44:54.211Z</time>
      </trkpt>
      <trkpt lat="67.95468" lon="13.1406">
        <ele>3.142053</ele>
        <time>2020-07-15T12:45:13.331Z</time>
      </trkpt>
      <trkpt lat="67.95503" lon="13.1409">
        <ele>2.892489</ele>
        <time>2020-07-15T12:45:19.770Z</time>
      </trkpt>
      <trkpt lat="67.95539" lon="13.14131">
        <ele>2.949394</ele>
        <time>2020-07-15T12:45:27.137Z</time>
      </trkpt>
      <trkpt lat="67.95545" lon="13.14136">
        <ele>2.994254</ele>
        <time>2020-07-15T12:45:28.100Z</time>
      </trkpt>
      <trkpt lat="67.95715" lon="13.14315">
        <ele>4.994576</ele>
        <time>2020-07-15T12:46:08.017Z</time>
      </trkpt>
      <trkpt lat="67.95816" lon="13.14368">
        <ele>7.576224</ele>
        <time>2020-07-15T12:46:35.004Z</time>
      </trkpt>
      <trkpt lat="67.95933" lon="13.14524">
        <ele>12.978257</ele>
        <time>2020-07-15T12:47:15.888Z</time>
      </trkpt>
      <trkpt lat="67.95971" lon="13.14606">
        <ele>15.441879</ele>
        <time>2020-07-15T12:47:33.499Z</time>
      </trkpt>
      <trkpt lat="67.96058" lon="13.14876">
        <ele>23.731141</ele>
        <time>2020-07-15T12:48:26.326Z</time>
      </trkpt>
      <trkpt lat="67.96081" lon="13.14931">
        <ele>25.870738</ele>
        <time>2020-07-15T12:48:39.347Z</time>
      </trkpt>
      <trkpt lat="67.96108" lon="13.14971">
        <ele>27.998484</ele>
        <time>2020-07-15T12:48:52.233Z</time>
      </trkpt>
      <trkpt lat="67.96173" lon="13.15029">
        <ele>32.328701</ele>
        <time>2020-07-15T12:49:20.639Z</time>
      </trkpt>
      <trkpt lat="67.96195" lon="13.15065">
        <ele>33.844858</ele>
        <time>2020-07-15T12:49:31.369Z</time>
      </trkpt>
      <trkpt lat="67.96205" lon="13.15106">
        <ele>34.948812</ele>
        <time>2020-07-15T12:49:38.953Z</time>
      </trkpt>
      <trkpt lat="67.96238" lon="13.15316">
        <ele>39.974986</ele>
        <time>2020-07-15T12:50:10.596Z</time>
      </trkpt>
      <trkpt lat="67.96239" lon="13.15337">
        <ele>40.450287</ele>
        <time>2020-07-15T12:50:13.396Z</time>
      </trkpt>
      <trkpt lat="67.9624" lon="13.15359">
        <ele>40.743734</ele>
        <time>2020-07-15T12:50:15.991Z</time>
      </trkpt>
      <trkpt lat="67.96242" lon="13.15425">
        <ele>40.851162</ele>
        <time>2020-07-15T12:50:24.640Z</time>
      </trkpt>
      <trkpt lat="67.96249" lon="13.15446">
        <ele>40.895239</ele>
        <time>2020-07-15T12:50:27.580Z</time>
      </trkpt>
      <trkpt lat="67.96262" lon="13.15436">
        <ele>40.95432</ele>
        <time>2020-07-15T12:50:31.346Z</time>
      </trkpt>
      <trkpt lat="67.96265" lon="13.15433">
        <ele>40.965774</ele>
        <time>2020-07-15T12:50:32.718Z</time>
      </trkpt>
      <trkpt lat="67.96294" lon="13.15603">
        <ele>41.269182</ele>
        <time>2020-07-15T12:50:44.573Z</time>
      </trkpt>
      <trkpt lat="67.96354" lon="13.15911">
        <ele>39.807831</ele>
        <time>2020-07-15T12:51:02.989Z</time>
      </trkpt>
      <trkpt lat="67.96356" lon="13.15921">
        <ele>39.71</ele>
        <time>2020-07-15T12:51:03.440Z</time>
      </trkpt>
      <trkpt lat="67.96373" lon="13.15992">
        <ele>39.002082</ele>
        <time>2020-07-15T12:51:08.895Z</time>
      </trkpt>
      <trkpt lat="67.96412" lon="13.16152">
        <ele>37.255332</ele>
        <time>2020-07-15T12:51:19.453Z</time>
      </trkpt>
      <trkpt lat="67.96437" lon="13.16278">
        <ele>33.733668</ele>
        <time>2020-07-15T12:51:25.970Z</time>
      </trkpt>
      <trkpt lat="67.96452" lon="13.16391">
        <ele>30.797761</ele>
        <time>2020-07-15T12:51:31.215Z</time>
      </trkpt>
      <trkpt lat="67.96466" lon="13.16554">
        <ele>26.689514</ele>
        <time>2020-07-15T12:51:38.346Z</time>
      </trkpt>
      <trkpt lat="67.96467" lon="13.16566">
        <ele>26.39464</ele>
        <time>2020-07-15T12:51:38.833Z</time>
      </trkpt>
      <trkpt lat="67.96469" lon="13.16601">
        <ele>25.440984</ele>
        <time>2020-07-15T12:51:40.227Z</time>
      </trkpt>
      <trkpt lat="67.96488" lon="13.16735">
        <ele>20.27078</ele>
        <time>2020-07-15T12:51:46.157Z</time>
      </trkpt>
      <trkpt lat="67.96522" lon="13.16844">
        <ele>15.09389</ele>
        <time>2020-07-15T12:51:51.827Z</time>
      </trkpt>
      <trkpt lat="67.96569" lon="13.16916">
        <ele>9.91916</ele>
        <time>2020-07-15T12:51:57.680Z</time>
      </trkpt>
      <trkpt lat="67.96637" lon="13.16975">
        <ele>6.701038</ele>
        <time>2020-07-15T12:52:06.411Z</time>
      </trkpt>
      <trkpt lat="67.96641" lon="13.16978">
        <ele>6.571295</ele>
        <time>2020-07-15T12:52:06.971Z</time>
      </trkpt>
      <trkpt lat="67.96688" lon="13.17016">
        <ele>5.146283</ele>
        <time>2020-07-15T12:52:13.610Z</time>
      </trkpt>
      <trkpt lat="67.96731" lon="13.17056">
        <ele>3.848129</ele>
        <time>2020-07-15T12:52:20.556Z</time>
      </trkpt>
      <trkpt lat="67.96762" lon="13.17103">
        <ele>3.149076</ele>
        <time>2020-07-15T12:52:27.044Z</time>
      </trkpt>
      <trkpt lat="67.96765" lon="13.17109">
        <ele>3.178849</ele>
        <time>2020-07-15T12:52:28.185Z</time>
      </trkpt>
      <trkpt lat="67.96776" lon="13.17131">
        <ele>3.270647</ele>
        <time>2020-07-15T12:52:30.751Z</time>
      </trkpt>
      <trkpt lat="67.96788" lon="13.17156">
        <ele>3.369868</ele>
        <time>2020-07-15T12:52:33.608Z</time>
      </trkpt>
      <trkpt lat="67.96803" lon="13.17195">
        <ele>3.513813</ele>
        <time>2020-07-15T12:52:38.303Z</time>
      </trkpt>
      <trkpt lat="67.96849" lon="13.17314">
        <ele>3.946397</ele>
        <time>2020-07-15T12:52:51.734Z</time>
      </trkpt>
      <trkpt lat="67.96921" lon="13.17408">
        <ele>4.418818</ele>
        <time>2020-07-15T12:53:07.761Z</time>
      </trkpt>
      <trkpt lat="67.96929" lon="13.17417">
        <ele>4.455423</ele>
        <time>2020-07-15T12:53:09.869Z</time>
      </trkpt>
      <trkpt lat="67.96955" lon="13.17442">
        <ele>4.566259</ele>
        <time>2020-07-15T12:53:14.820Z</time>
      </trkpt>
      <trkpt lat="67.97078" lon="13.17502">
        <ele>5.007366</ele>
        <time>2020-07-15T12:53:38.874Z</time>
      </trkpt>
      <trkpt lat="67.97112" lon="13.1753">
        <ele>4.865228</ele>
        <time>2020-07-15T12:53:44.999Z</time>
      </trkpt>
      <trkpt lat="67.97152" lon="13.17585">
        <ele>4.687583</ele>
        <time>2020-07-15T12:53:52.644Z</time>
      </trkpt>
      <trkpt lat="67.97202" lon="13.17686">
        <ele>4.438222</ele>
        <time>2020-07-15T12:54:03.065Z</time>
      </trkpt>
      <trkpt lat="67.97205" lon="13.17693">
        <ele>4.420485</ele>
        <time>2020-07-15T12:54:03.821Z</time>
      </trkpt>
      <trkpt lat="67.9723" lon="13.17746">
        <ele>4.238004</ele>
        <time>2020-07-15T12:54:08.613Z</time>
      </trkpt>
      <trkpt lat="67.97313" lon="13.17962">
        <ele>2.970146</ele>
        <time>2020-07-15T12:54:26.404Z</time>
      </trkpt>
      <trkpt lat="67.97317" lon="13.17969">
        <ele>2.92226</ele>
        <time>2020-07-15T12:54:26.932Z</time>
      </trkpt>
      <trkpt lat="67.97335" lon="13.18004">
        <ele>2.677274</ele>
        <time>2020-07-15T12:54:30.482Z</time>
      </trkpt>
      <trkpt lat="67.97403" lon="13.18122">
        <ele>2.137585</ele>
        <time>2020-07-15T12:54:43.008Z</time>
      </trkpt>
      <trkpt lat="67.97449" lon="13.18233">
        <ele>1.859172</ele>
        <time>2020-07-15T12:54:53.432Z</time>
      </trkpt>
      <trkpt lat="67.97456" lon="13.18251">
        <ele>1.819377</ele>
        <time>2020-07-15T12:54:54.779Z</time>
      </trkpt>
      <trkpt lat="67.97473" lon="13.18305">
        <ele>1.700159</ele>
        <time>2020-07-15T12:55:00.068Z</time>
      </trkpt>
      <trkpt lat="67.97531" lon="13.18488">
        <ele>1.59138</ele>
        <time>2020-07-15T12:55:16.074Z</time>
      </trkpt>
      <trkpt lat="67.97561" lon="13.18539">
        <ele>1.602761</ele>
        <time>2020-07-15T12:55:22.610Z</time>
      </trkpt>
      <trkpt lat="67.97587" lon="13.18559">
        <ele>1.611312</ele>
        <time>2020-07-15T12:55:27.760Z</time>
      </trkpt>
      <trkpt lat="67.97622" lon="13.18562">
        <ele>1.622681</ele>
        <time>2020-07-15T12:55:34.041Z</time>
      </trkpt>
      <trkpt lat="67.97648" lon="13.18544">
        <ele>1.614636</ele>
        <time>2020-07-15T12:55:38.824Z</time>
      </trkpt>
      <trkpt lat="67.97733" lon="13.18409">
        <ele>1.376336</ele>
        <time>2020-07-15T12:55:55.593Z</time>
      </trkpt>
      <trkpt lat="67.97742" lon="13.18395">
        <ele>1.351182</ele>
        <time>2020-07-15T12:55:57.474Z</time>
      </trkpt>
      <trkpt lat="67.97747" lon="13.18405">
        <ele>1.335067</ele>
        <time>2020-07-15T12:55:59.262Z</time>
      </trkpt>
      <trkpt lat="67.97755" lon="13.1841">
        <ele>1.315728</ele>
        <time>2020-07-15T12:56:01.557Z</time>
      </trkpt>
      <trkpt lat="67.978" lon="13.18332">
        <ele>1.188846</ele>
        <time>2020-07-15T12:56:16.989Z</time>
      </trkpt>
      <trkpt lat="67.9782" lon="13.18323">
        <ele>1.153019</ele>
        <time>2020-07-15T12:56:22.974Z</time>
      </trkpt>
      <trkpt lat="67.97877" lon="13.18329">
        <ele>1.056806</ele>
        <time>2020-07-15T12:56:39.375Z</time>
      </trkpt>
      <trkpt lat="67.97899" lon="13.18318">
        <ele>1.019445</ele>
        <time>2020-07-15T12:56:45.635Z</time>
      </trkpt>
      <trkpt lat="67.97978" lon="13.18229">
        <ele>0.915582</ele>
        <time>2020-07-15T12:57:10.975Z</time>
      </trkpt>
      <trkpt lat="67.98076" lon="13.18174">
        <ele>1.227446</ele>
        <time>2020-07-15T12:57:41.594Z</time>
      </trkpt>
      <trkpt lat="67.98174" lon="13.18066">
        <ele>1.599434</ele>
        <time>2020-07-15T12:58:14.887Z</time>
      </trkpt>
      <trkpt lat="67.98199" lon="13.18015">
        <ele>1.735751</ele>
        <time>2020-07-15T12:58:24.901Z</time>
      </trkpt>
      <trkpt lat="67.98246" lon="13.17886">
        <ele>2.023531</ele>
        <time>2020-07-15T12:58:46.104Z</time>
      </trkpt>
      <trkpt lat="67.98283" lon="13.17823">
        <ele>2.212059</ele>
        <time>2020-07-15T12:58:59.629Z</time>
      </trkpt>
      <trkpt lat="67.98321" lon="13.17789">
        <ele>2.223505</ele>
        <time>2020-07-15T12:59:11.673Z</time>
      </trkpt>
      <trkpt lat="67.98388" lon="13.17785">
        <ele>2.229183</ele>
        <time>2020-07-15T12:59:31.337Z</time>
      </trkpt>
      <trkpt lat="67.98431" lon="13.17755">
        <ele>2.232971</ele>
        <time>2020-07-15T12:59:44.530Z</time>
      </trkpt>
      <trkpt lat="67.98456" lon="13.17705">
        <ele>2.23931</ele>
        <time>2020-07-15T12:59:53.890Z</time>
      </trkpt>
      <trkpt lat="67.98503" lon="13.17572">
        <ele>2.446975</ele>
        <time>2020-07-15T13:00:14.593Z</time>
      </trkpt>
      <trkpt lat="67.98572" lon="13.17468">
        <ele>2.686433</ele>
        <time>2020-07-15T13:00:38.818Z</time>
      </trkpt>
      <trkpt lat="67.98661" lon="13.17288">
        <ele>2.957002</ele>
        <time>2020-07-15T13:01:14.043Z</time>
      </trkpt>
      <trkpt lat="67.98761" lon="13.17012">
        <ele>2.927609</ele>
        <time>2020-07-15T13:01:57.091Z</time>
      </trkpt>
      <trkpt lat="67.98796" lon="13.16947">
        <ele>2.693353</ele>
        <time>2020-07-15T13:02:09.085Z</time>
      </trkpt>
      <trkpt lat="67.98907" lon="13.16868">
        <ele>2.021166</ele>
        <time>2020-07-15T13:02:40.465Z</time>
      </trkpt>
      <trkpt lat="67.98988" lon="13.16785">
        <ele>1.37502</ele>
        <time>2020-07-15T13:03:04.092Z</time>
      </trkpt>
      <trkpt lat="67.99072" lon="13.1677">
        <ele>0.806996</ele>
        <time>2020-07-15T13:03:27.836Z</time>
      </trkpt>
      <trkpt lat="67.99154" lon="13.16662">
        <ele>0.557225</ele>
        <time>2020-07-15T13:03:54.381Z</time>
      </trkpt>
      <trkpt lat="67.99169" lon="13.16661">
        <ele>0.51693</ele>
        <time>2020-07-15T13:03:58.682Z</time>
      </trkpt>
      <trkpt lat="67.99196" lon="13.16704">
        <ele>0.431496</ele>
        <time>2020-07-15T13:04:07.857Z</time>
      </trkpt>
      <trkpt lat="67.99205" lon="13.16677">
        <ele>0.393837</ele>
        <time>2020-07-15T13:04:11.900Z</time>
      </trkpt>
      <trkpt lat="67.99206" lon="13.16671">
        <ele>0.386579</ele>
        <time>2020-07-15T13:04:12.672Z</time>
      </trkpt>
      <trkpt lat="67.99246" lon="13.16703">
        <ele>0.305797</ele>
        <time>2020-07-15T13:04:19.888Z</time>
      </trkpt>
      <trkpt lat="67.99309" lon="13.16758">
        <ele>0.199923</ele>
        <time>2020-07-15T13:04:31.341Z</time>
      </trkpt>
      <trkpt lat="67.99346" lon="13.16789">
        <ele>0.137268</ele>
        <time>2020-07-15T13:04:38.129Z</time>
      </trkpt>
      <trkpt lat="67.99403" lon="13.16835">
        <ele>0.068013</ele>
        <time>2020-07-15T13:04:48.528Z</time>
      </trkpt>
      <trkpt lat="67.99568" lon="13.16977">
        <ele>0.11417</ele>
        <time>2020-07-15T13:05:19.596Z</time>
      </trkpt>
      <trkpt lat="67.99726" lon="13.17161">
        <ele>0.286858</ele>
        <time>2020-07-15T13:05:50.947Z</time>
      </trkpt>
      <trkpt lat="67.99773" lon="13.1723">
        <ele>0.489051</ele>
        <time>2020-07-15T13:06:00.635Z</time>
      </trkpt>
      <trkpt lat="67.99869" lon="13.17414">
        <ele>0.938339</ele>
        <time>2020-07-15T13:06:23.220Z</time>
      </trkpt>
      <trkpt lat="67.99908" lon="13.17476">
        <ele>1.623291</ele>
        <time>2020-07-15T13:06:32.655Z</time>
      </trkpt>
      <trkpt lat="67.9995" lon="13.17513">
        <ele>2.388926</ele>
        <time>2020-07-15T13:06:42.677Z</time>
      </trkpt>
      <trkpt lat="68.00071" lon="13.17564">
        <ele>4.365786</ele>
        <time>2020-07-15T13:07:13.825Z</time>
      </trkpt>
      <trkpt lat="68.00137" lon="13.17574">
        <ele>5.070827</ele>
        <time>2020-07-15T13:07:29.522Z</time>
      </trkpt>
      <trkpt lat="68.00154" lon="13.17577">
        <ele>5.252021</ele>
        <time>2020-07-15T13:07:33.056Z</time>
      </trkpt>
      <trkpt lat="68.00471" lon="13.17628">
        <ele>6.640665</ele>
        <time>2020-07-15T13:08:28.806Z</time>
      </trkpt>
      <trkpt lat="68.00523" lon="13.17617">
        <ele>7.241378</ele>
        <time>2020-07-15T13:08:40.749Z</time>
      </trkpt>
      <trkpt lat="68.00578" lon="13.17533">
        <ele>7.956934</ele>
        <time>2020-07-15T13:08:56.599Z</time>
      </trkpt>
      <trkpt lat="68.00602" lon="13.17475">
        <ele>7.896341</ele>
        <time>2020-07-15T13:09:05.042Z</time>
      </trkpt>
      <trkpt lat="68.00616" lon="13.17418">
        <ele>7.848548</ele>
        <time>2020-07-15T13:09:10.154Z</time>
      </trkpt>
      <trkpt lat="68.00623" lon="13.17325">
        <ele>7.782276</ele>
        <time>2020-07-15T13:09:16.112Z</time>
      </trkpt>
      <trkpt lat="68.00614" lon="13.17157">
        <ele>7.663538</ele>
        <time>2020-07-15T13:09:25.480Z</time>
      </trkpt>
      <trkpt lat="68.00617" lon="13.17088">
        <ele>7.606084</ele>
        <time>2020-07-15T13:09:29.449Z</time>
      </trkpt>
      <trkpt lat="68.00619" lon="13.17075">
        <ele>7.583263</ele>
        <time>2020-07-15T13:09:30.213Z</time>
      </trkpt>
      <trkpt lat="68.00624" lon="13.17059">
        <ele>7.551535</ele>
        <time>2020-07-15T13:09:31.163Z</time>
      </trkpt>
      <trkpt lat="68.00627" lon="13.17049">
        <ele>7.532475</ele>
        <time>2020-07-15T13:09:32.039Z</time>
      </trkpt>
      <trkpt lat="68.00632" lon="13.17037">
        <ele>7.505305</ele>
        <time>2020-07-15T13:09:32.880Z</time>
      </trkpt>
      <trkpt lat="68.00643" lon="13.17017">
        <ele>7.451942</ele>
        <time>2020-07-15T13:09:35.524Z</time>
      </trkpt>
      <trkpt lat="68.00662" lon="13.1698">
        <ele>7.353908</ele>
        <time>2020-07-15T13:09:38.914Z</time>
      </trkpt>
      <trkpt lat="68.00704" lon="13.16915">
        <ele>7.15846</ele>
        <time>2020-07-15T13:09:47.296Z</time>
      </trkpt>
      <trkpt lat="68.00711" lon="13.16907">
        <ele>7.127835</ele>
        <time>2020-07-15T13:09:48.268Z</time>
      </trkpt>
      <trkpt lat="68.00718" lon="13.16898">
        <ele>7.096875</ele>
        <time>2020-07-15T13:09:50.417Z</time>
      </trkpt>
      <trkpt lat="68.00722" lon="13.16893">
        <ele>7.078832</ele>
        <time>2020-07-15T13:09:51.109Z</time>
      </trkpt>
      <trkpt lat="68.00742" lon="13.16874">
        <ele>6.991072</ele>
        <time>2020-07-15T13:09:54.523Z</time>
      </trkpt>
      <trkpt lat="68.00779" lon="13.16843">
        <ele>6.983259</ele>
        <time>2020-07-15T13:10:02.334Z</time>
      </trkpt>
      <trkpt lat="68.0079" lon="13.16836">
        <ele>7.059069</ele>
        <time>2020-07-15T13:10:06.094Z</time>
      </trkpt>
      <trkpt lat="68.00811" lon="13.16826">
        <ele>7.204122</ele>
        <time>2020-07-15T13:10:10.843Z</time>
      </trkpt>
      <trkpt lat="68.00819" lon="13.16822">
        <ele>7.258908</ele>
        <time>2020-07-15T13:10:13.760Z</time>
      </trkpt>
      <trkpt lat="68.00865" lon="13.16798">
        <ele>7.570931</ele>
        <time>2020-07-15T13:10:24.745Z</time>
      </trkpt>
      <trkpt lat="68.00894" lon="13.16781">
        <ele>7.771577</ele>
        <time>2020-07-15T13:10:30.792Z</time>
      </trkpt>
      <trkpt lat="68.00902" lon="13.16775">
        <ele>7.822662</ele>
        <time>2020-07-15T13:10:32.896Z</time>
      </trkpt>
      <trkpt lat="68.00912" lon="13.16766">
        <ele>7.892627</ele>
        <time>2020-07-15T13:10:34.394Z</time>
      </trkpt>
      <trkpt lat="68.0097" lon="13.167">
        <ele>7.141086</ele>
        <time>2020-07-15T13:10:43.754Z</time>
      </trkpt>
      <trkpt lat="68.00982" lon="13.16692">
        <ele>6.788868</ele>
        <time>2020-07-15T13:10:45.415Z</time>
      </trkpt>
      <trkpt lat="68.00992" lon="13.16687">
        <ele>6.470357</ele>
        <time>2020-07-15T13:10:46.761Z</time>
      </trkpt>
      <trkpt lat="68.01024" lon="13.16686">
        <ele>5.552619</ele>
        <time>2020-07-15T13:10:50.934Z</time>
      </trkpt>
      <trkpt lat="68.01062" lon="13.16703">
        <ele>4.457555</ele>
        <time>2020-07-15T13:10:55.755Z</time>
      </trkpt>
      <trkpt lat="68.01073" lon="13.16711">
        <ele>4.129036</ele>
        <time>2020-07-15T13:10:57.134Z</time>
      </trkpt>
      <trkpt lat="68.01111" lon="13.16744">
        <ele>2.968193</ele>
        <time>2020-07-15T13:11:02.341Z</time>
      </trkpt>
      <trkpt lat="68.01168" lon="13.16801">
        <ele>2.420071</ele>
        <time>2020-07-15T13:11:10.678Z</time>
      </trkpt>
      <trkpt lat="68.01219" lon="13.16877">
        <ele>1.921275</ele>
        <time>2020-07-15T13:11:20.026Z</time>
      </trkpt>
      <trkpt lat="68.01232" lon="13.16894">
        <ele>1.798573</ele>
        <time>2020-07-15T13:11:22.832Z</time>
      </trkpt>
      <trkpt lat="68.01266" lon="13.16945">
        <ele>1.464659</ele>
        <time>2020-07-15T13:11:30.794Z</time>
      </trkpt>
      <trkpt lat="68.01306" lon="13.16987">
        <ele>1.874773</ele>
        <time>2020-07-15T13:11:39.786Z</time>
      </trkpt>
      <trkpt lat="68.01354" lon="13.17018">
        <ele>2.586661</ele>
        <time>2020-07-15T13:11:50.741Z</time>
      </trkpt>
      <trkpt lat="68.01396" lon="13.17064">
        <ele>3.245024</ele>
        <time>2020-07-15T13:12:01.326Z</time>
      </trkpt>
      <trkpt lat="68.01487" lon="13.17245">
        <ele>4.582237</ele>
        <time>2020-07-15T13:12:28.631Z</time>
      </trkpt>
      <trkpt lat="68.01576" lon="13.17377">
        <ele>5.552465</ele>
        <time>2020-07-15T13:12:49.194Z</time>
      </trkpt>
      <trkpt lat="68.01605" lon="13.17419">
        <ele>5.599126</ele>
        <time>2020-07-15T13:12:55.056Z</time>
      </trkpt>
      <trkpt lat="68.01624" lon="13.17445">
        <ele>5.466692</ele>
        <time>2020-07-15T13:12:58.367Z</time>
      </trkpt>
      <trkpt lat="68.01687" lon="13.17541">
        <ele>5.017785</ele>
        <time>2020-07-15T13:13:09.555Z</time>
      </trkpt>
      <trkpt lat="68.01713" lon="13.17593">
        <ele>4.815388</ele>
        <time>2020-07-15T13:13:14.679Z</time>
      </trkpt>
      <trkpt lat="68.01722" lon="13.17613">
        <ele>4.744009</ele>
        <time>2020-07-15T13:13:16.460Z</time>
      </trkpt>
      <trkpt lat="68.0173" lon="13.17632">
        <ele>4.678783</ele>
        <time>2020-07-15T13:13:18.240Z</time>
      </trkpt>
      <trkpt lat="68.01736" lon="13.17652">
        <ele>4.61843</ele>
        <time>2020-07-15T13:13:19.555Z</time>
      </trkpt>
      <trkpt lat="68.01739" lon="13.17661">
        <ele>4.598579</ele>
        <time>2020-07-15T13:13:20.205Z</time>
      </trkpt>
      <trkpt lat="68.01768" lon="13.17754">
        <ele>5.526704</ele>
        <time>2020-07-15T13:13:27.659Z</time>
      </trkpt>
      <trkpt lat="68.0191" lon="13.18233">
        <ele>12.03169</ele>
        <time>2020-07-15T13:14:31.877Z</time>
      </trkpt>
      <trkpt lat="68.01915" lon="13.18249">
        <ele>12.325451</ele>
        <time>2020-07-15T13:14:35.922Z</time>
      </trkpt>
      <trkpt lat="68.0193" lon="13.18299">
        <ele>13.297023</ele>
        <time>2020-07-15T13:14:42.807Z</time>
      </trkpt>
      <trkpt lat="68.01972" lon="13.18394">
        <ele>15.446946</ele>
        <time>2020-07-15T13:15:01.554Z</time>
      </trkpt>
      <trkpt lat="68.01983" lon="13.18412">
        <ele>15.680399</ele>
        <time>2020-07-15T13:15:04.865Z</time>
      </trkpt>
      <trkpt lat="68.02" lon="13.18435">
        <ele>16.02688</ele>
        <time>2020-07-15T13:15:11.674Z</time>
      </trkpt>
      <trkpt lat="68.02018" lon="13.18454">
        <ele>16.383792</ele>
        <time>2020-07-15T13:15:16.617Z</time>
      </trkpt>
      <trkpt lat="68.02035" lon="13.18467">
        <ele>16.707516</ele>
        <time>2020-07-15T13:15:22.959Z</time>
      </trkpt>
      <trkpt lat="68.02041" lon="13.18472">
        <ele>16.835261</ele>
        <time>2020-07-15T13:15:24.801Z</time>
      </trkpt>
      <trkpt lat="68.02109" lon="13.18495">
        <ele>18.093537</ele>
        <time>2020-07-15T13:15:40.196Z</time>
      </trkpt>
      <trkpt lat="68.02224" lon="13.18486">
        <ele>16.267414</ele>
        <time>2020-07-15T13:15:56.230Z</time>
      </trkpt>
      <trkpt lat="68.02232" lon="13.18483">
        <ele>16.023929</ele>
        <time>2020-07-15T13:15:57.394Z</time>
      </trkpt>
      <trkpt lat="68.02238" lon="13.18481">
        <ele>15.840429</ele>
        <time>2020-07-15T13:15:58.066Z</time>
      </trkpt>
      <trkpt lat="68.02253" lon="13.18469">
        <ele>15.356982</ele>
        <time>2020-07-15T13:16:00.044Z</time>
      </trkpt>
      <trkpt lat="68.02265" lon="13.18455">
        <ele>14.945468</ele>
        <time>2020-07-15T13:16:01.953Z</time>
      </trkpt>
      <trkpt lat="68.02278" lon="13.18433">
        <ele>14.453487</ele>
        <time>2020-07-15T13:16:03.788Z</time>
      </trkpt>
      <trkpt lat="68.02342" lon="13.18248">
        <ele>11.331461</ele>
        <time>2020-07-15T13:16:15.663Z</time>
      </trkpt>
      <trkpt lat="68.02371" lon="13.18208">
        <ele>10.188611</ele>
        <time>2020-07-15T13:16:19.722Z</time>
      </trkpt>
      <trkpt lat="68.02402" lon="13.18209">
        <ele>9.104435</ele>
        <time>2020-07-15T13:16:23.515Z</time>
      </trkpt>
      <trkpt lat="68.02469" lon="13.18274">
        <ele>6.783284</ele>
        <time>2020-07-15T13:16:33.397Z</time>
      </trkpt>
      <trkpt lat="68.02491" lon="13.18277">
        <ele>6.457625</ele>
        <time>2020-07-15T13:16:36.806Z</time>
      </trkpt>
      <trkpt lat="68.02516" lon="13.18262">
        <ele>6.09067</ele>
        <time>2020-07-15T13:16:40.240Z</time>
      </trkpt>
      <trkpt lat="68.02526" lon="13.18252">
        <ele>5.936745</ele>
        <time>2020-07-15T13:16:42.066Z</time>
      </trkpt>
      <trkpt lat="68.02537" lon="13.18236">
        <ele>5.752095</ele>
        <time>2020-07-15T13:16:43.734Z</time>
      </trkpt>
      <trkpt lat="68.02559" lon="13.18181">
        <ele>5.313555</ele>
        <time>2020-07-15T13:16:48.387Z</time>
      </trkpt>
      <trkpt lat="68.02565" lon="13.18155">
        <ele>5.142599</ele>
        <time>2020-07-15T13:16:49.961Z</time>
      </trkpt>
      <trkpt lat="68.02607" lon="13.17971">
        <ele>4.301134</ele>
        <time>2020-07-15T13:17:02.996Z</time>
      </trkpt>
      <trkpt lat="68.02624" lon="13.17911">
        <ele>4.336601</ele>
        <time>2020-07-15T13:17:07.455Z</time>
      </trkpt>
      <trkpt lat="68.02655" lon="13.17863">
        <ele>4.380508</ele>
        <time>2020-07-15T13:17:13.401Z</time>
      </trkpt>
      <trkpt lat="68.0266" lon="13.1786">
        <ele>4.38667</ele>
        <time>2020-07-15T13:17:14.143Z</time>
      </trkpt>
      <trkpt lat="68.02671" lon="13.17854">
        <ele>4.40087</ele>
        <time>2020-07-15T13:17:16.867Z</time>
      </trkpt>
      <trkpt lat="68.02757" lon="13.17847">
        <ele>4.590369</ele>
        <time>2020-07-15T13:17:33.924Z</time>
      </trkpt>
      <trkpt lat="68.02782" lon="13.17825">
        <ele>4.90171</ele>
        <time>2020-07-15T13:17:39.743Z</time>
      </trkpt>
      <trkpt lat="68.02842" lon="13.17736">
        <ele>5.726208</ele>
        <time>2020-07-15T13:17:54.785Z</time>
      </trkpt>
      <trkpt lat="68.02866" lon="13.17722">
        <ele>6.016379</ele>
        <time>2020-07-15T13:18:00.077Z</time>
      </trkpt>
      <trkpt lat="68.02904" lon="13.17724">
        <ele>6.478645</ele>
        <time>2020-07-15T13:18:08.632Z</time>
      </trkpt>
      <trkpt lat="68.02951" lon="13.17737">
        <ele>6.990134</ele>
        <time>2020-07-15T13:18:19.243Z</time>
      </trkpt>
      <trkpt lat="68.02978" lon="13.17758">
        <ele>7.283946</ele>
        <time>2020-07-15T13:18:25.788Z</time>
      </trkpt>
      <trkpt lat="68.03128" lon="13.17948">
        <ele>8.174302</ele>
        <time>2020-07-15T13:18:59.739Z</time>
      </trkpt>
      <trkpt lat="68.03162" lon="13.17967">
        <ele>7.912337</ele>
        <time>2020-07-15T13:19:05.461Z</time>
      </trkpt>
      <trkpt lat="68.03196" lon="13.1796">
        <ele>7.663656</ele>
        <time>2020-07-15T13:19:10.544Z</time>
      </trkpt>
      <trkpt lat="68.03232" lon="13.17926">
        <ele>7.380759</ele>
        <time>2020-07-15T13:19:16.066Z</time>
      </trkpt>
      <trkpt lat="68.03358" lon="13.17747">
        <ele>5.861507</ele>
        <time>2020-07-15T13:19:36.486Z</time>
      </trkpt>
      <trkpt lat="68.03529" lon="13.17568">
        <ele>5.62575</ele>
        <time>2020-07-15T13:20:09.382Z</time>
      </trkpt>
      <trkpt lat="68.0355" lon="13.17532">
        <ele>5.727006</ele>
        <time>2020-07-15T13:20:14.687Z</time>
      </trkpt>
      <trkpt lat="68.03605" lon="13.174">
        <ele>6.540432</ele>
        <time>2020-07-15T13:20:30.798Z</time>
      </trkpt>
      <trkpt lat="68.03636" lon="13.17351">
        <ele>7.156088</ele>
        <time>2020-07-15T13:20:38.932Z</time>
      </trkpt>
      <trkpt lat="68.03823" lon="13.17161">
        <ele>11.419696</ele>
        <time>2020-07-15T13:21:27.548Z</time>
      </trkpt>
      <trkpt lat="68.04048" lon="13.17071">
        <ele>18.832808</ele>
        <time>2020-07-15T13:22:31.664Z</time>
      </trkpt>
      <trkpt lat="68.04204" lon="13.17067">
        <ele>25.085069</ele>
        <time>2020-07-15T13:23:24.522Z</time>
      </trkpt>
      <trkpt lat="68.04298" lon="13.17083">
        <ele>27.40681</ele>
        <time>2020-07-15T13:23:50.387Z</time>
      </trkpt>
      <trkpt lat="68.04353" lon="13.17095">
        <ele>27.164832</ele>
        <time>2020-07-15T13:24:00.779Z</time>
      </trkpt>
      <trkpt lat="68.04464" lon="13.17121">
        <ele>26.313297</ele>
        <time>2020-07-15T13:24:16.097Z</time>
      </trkpt>
      <trkpt lat="68.04509" lon="13.17139">
        <ele>25.295365</ele>
        <time>2020-07-15T13:24:22.106Z</time>
      </trkpt>
      <trkpt lat="68.04528" lon="13.17153">
        <ele>24.866282</ele>
        <time>2020-07-15T13:24:24.537Z</time>
      </trkpt>
      <trkpt lat="68.04558" lon="13.1718">
        <ele>24.166597</ele>
        <time>2020-07-15T13:24:28.813Z</time>
      </trkpt>
      <trkpt lat="68.04624" lon="13.17262">
        <ele>22.693096</ele>
        <time>2020-07-15T13:24:39.717Z</time>
      </trkpt>
      <trkpt lat="68.04714" lon="13.17406">
        <ele>21.890852</ele>
        <time>2020-07-15T13:24:57.874Z</time>
      </trkpt>
      <trkpt lat="68.04774" lon="13.17486">
        <ele>21.346111</ele>
        <time>2020-07-15T13:25:08.533Z</time>
      </trkpt>
      <trkpt lat="68.05259" lon="13.18019">
        <ele>10.718022</ele>
        <time>2020-07-15T13:26:21.465Z</time>
      </trkpt>
      <trkpt lat="68.05387" lon="13.18238">
        <ele>10.472619</ele>
        <time>2020-07-15T13:26:49.061Z</time>
      </trkpt>
      <trkpt lat="68.05413" lon="13.18272">
        <ele>10.469507</ele>
        <time>2020-07-15T13:26:54.992Z</time>
      </trkpt>
      <trkpt lat="68.05507" lon="13.18361">
        <ele>10.69359</ele>
        <time>2020-07-15T13:27:14.091Z</time>
      </trkpt>
      <trkpt lat="68.05596" lon="13.18375">
        <ele>10.923482</ele>
        <time>2020-07-15T13:27:30.152Z</time>
      </trkpt>
      <trkpt lat="68.05622" lon="13.18389">
        <ele>11.012183</ele>
        <time>2020-07-15T13:27:34.872Z</time>
      </trkpt>
      <trkpt lat="68.05732" lon="13.18537">
        <ele>11.435486</ele>
        <time>2020-07-15T13:27:57.649Z</time>
      </trkpt>
      <trkpt lat="68.05842" lon="13.18615">
        <ele>12.559024</ele>
        <time>2020-07-15T13:28:21.141Z</time>
      </trkpt>
      <trkpt lat="68.05945" lon="13.18817">
        <ele>14.0665</ele>
        <time>2020-07-15T13:28:50.743Z</time>
      </trkpt>
      <trkpt lat="68.06002" lon="13.18914">
        <ele>14.700824</ele>
        <time>2020-07-15T13:29:05.770Z</time>
      </trkpt>
      <trkpt lat="68.06046" lon="13.19034">
        <ele>15.294793</ele>
        <time>2020-07-15T13:29:18.551Z</time>
      </trkpt>
      <trkpt lat="68.06074" lon="13.19091">
        <ele>15.363621</ele>
        <time>2020-07-15T13:29:24.981Z</time>
      </trkpt>
      <trkpt lat="68.06113" lon="13.19122">
        <ele>15.013416</ele>
        <time>2020-07-15T13:29:31.701Z</time>
      </trkpt>
      <trkpt lat="68.06183" lon="13.19121">
        <ele>14.412809</ele>
        <time>2020-07-15T13:29:42.188Z</time>
      </trkpt>
      <trkpt lat="68.0622" lon="13.19138">
        <ele>14.094843</ele>
        <time>2020-07-15T13:29:47.570Z</time>
      </trkpt>
      <trkpt lat="68.06347" lon="13.19333">
        <ele>12.533041</ele>
        <time>2020-07-15T13:30:10.243Z</time>
      </trkpt>
      <trkpt lat="68.06383" lon="13.19389">
        <ele>12.074461</ele>
        <time>2020-07-15T13:30:16.769Z</time>
      </trkpt>
      <trkpt lat="68.06399" lon="13.19414">
        <ele>11.795563</ele>
        <time>2020-07-15T13:30:19.678Z</time>
      </trkpt>
      <trkpt lat="68.06461" lon="13.19507">
        <ele>10.466647</ele>
        <time>2020-07-15T13:30:30.219Z</time>
      </trkpt>
      <trkpt lat="68.06496" lon="13.19541">
        <ele>9.774113</ele>
        <time>2020-07-15T13:30:35.571Z</time>
      </trkpt>
      <trkpt lat="68.06696" lon="13.19596">
        <ele>5.304478</ele>
        <time>2020-07-15T13:31:02.459Z</time>
      </trkpt>
      <trkpt lat="68.06719" lon="13.19611">
        <ele>4.733347</ele>
        <time>2020-07-15T13:31:05.792Z</time>
      </trkpt>
      <trkpt lat="68.06753" lon="13.19637">
        <ele>4.420572</ele>
        <time>2020-07-15T13:31:11.043Z</time>
      </trkpt>
      <trkpt lat="68.06861" lon="13.1973">
        <ele>5.083815</ele>
        <time>2020-07-15T13:31:31.651Z</time>
      </trkpt>
      <trkpt lat="68.06983" lon="13.19814">
        <ele>8.240586</ele>
        <time>2020-07-15T13:32:05.845Z</time>
      </trkpt>
      <trkpt lat="68.07093" lon="13.19869">
        <ele>12.494782</ele>
        <time>2020-07-15T13:32:41.592Z</time>
      </trkpt>
      <trkpt lat="68.07224" lon="13.19908">
        <ele>18.552147</ele>
        <time>2020-07-15T13:33:25.340Z</time>
      </trkpt>
      <trkpt lat="68.07259" lon="13.19914">
        <ele>20.144983</ele>
        <time>2020-07-15T13:33:36.388Z</time>
      </trkpt>
      <trkpt lat="68.07296" lon="13.19919">
        <ele>21.730497</ele>
        <time>2020-07-15T13:33:48.122Z</time>
      </trkpt>
      <trkpt lat="68.07326" lon="13.19932">
        <ele>22.983622</ele>
        <time>2020-07-15T13:33:57.475Z</time>
      </trkpt>
      <trkpt lat="68.07357" lon="13.19986">
        <ele>24.565447</ele>
        <time>2020-07-15T13:34:10.481Z</time>
      </trkpt>
      <trkpt lat="68.07401" lon="13.20174">
        <ele>27.914264</ele>
        <time>2020-07-15T13:34:35.842Z</time>
      </trkpt>
      <trkpt lat="68.07423" lon="13.20297">
        <ele>28.584482</ele>
        <time>2020-07-15T13:34:49.044Z</time>
      </trkpt>
      <trkpt lat="68.07426" lon="13.20328">
        <ele>28.744196</ele>
        <time>2020-07-15T13:34:53.162Z</time>
      </trkpt>
      <trkpt lat="68.07442" lon="13.20626">
        <ele>30.234026</ele>
        <time>2020-07-15T13:35:15.774Z</time>
      </trkpt>
      <trkpt lat="68.07468" lon="13.21089">
        <ele>26.368867</ele>
        <time>2020-07-15T13:35:39.426Z</time>
      </trkpt>
      <trkpt lat="68.07469" lon="13.21206">
        <ele>25.427271</ele>
        <time>2020-07-15T13:35:45.272Z</time>
      </trkpt>
      <trkpt lat="68.07462" lon="13.21324">
        <ele>24.463162</ele>
        <time>2020-07-15T13:35:51.411Z</time>
      </trkpt>
      <trkpt lat="68.07421" lon="13.21695">
        <ele>21.171289</ele>
        <time>2020-07-15T13:36:12.317Z</time>
      </trkpt>
      <trkpt lat="68.07404" lon="13.21931">
        <ele>18.894162</ele>
        <time>2020-07-15T13:36:24.454Z</time>
      </trkpt>
      <trkpt lat="68.07399" lon="13.22017">
        <ele>18.076261</ele>
        <time>2020-07-15T13:36:28.716Z</time>
      </trkpt>
      <trkpt lat="68.07391" lon="13.2216">
        <ele>16.519785</ele>
        <time>2020-07-15T13:36:35.743Z</time>
      </trkpt>
      <trkpt lat="68.07315" lon="13.23485">
        <ele>2.514507</ele>
        <time>2020-07-15T13:37:42.366Z</time>
      </trkpt>
      <trkpt lat="68.07311" lon="13.23621">
        <ele>2.644951</ele>
        <time>2020-07-15T13:37:51.105Z</time>
      </trkpt>
      <trkpt lat="68.07313" lon="13.23661">
        <ele>2.682528</ele>
        <time>2020-07-15T13:37:53.690Z</time>
      </trkpt>
      <trkpt lat="68.07316" lon="13.23699">
        <ele>2.720056</ele>
        <time>2020-07-15T13:37:56.679Z</time>
      </trkpt>
      <trkpt lat="68.07334" lon="13.2381">
        <ele>2.835774</ele>
        <time>2020-07-15T13:38:05.928Z</time>
      </trkpt>
      <trkpt lat="68.07354" lon="13.23872">
        <ele>2.913402</ele>
        <time>2020-07-15T13:38:12.678Z</time>
      </trkpt>
      <trkpt lat="68.07383" lon="13.23928">
        <ele>3.174066</ele>
        <time>2020-07-15T13:38:20.962Z</time>
      </trkpt>
      <trkpt lat="68.07425" lon="13.23967">
        <ele>3.731623</ele>
        <time>2020-07-15T13:38:31.395Z</time>
      </trkpt>
      <trkpt lat="68.07612" lon="13.23965">
        <ele>5.566974</ele>
        <time>2020-07-15T13:39:11.318Z</time>
      </trkpt>
      <trkpt lat="68.07726" lon="13.23903">
        <ele>6.129782</ele>
        <time>2020-07-15T13:39:32.595Z</time>
      </trkpt>
      <trkpt lat="68.07809" lon="13.23847">
        <ele>6.053672</ele>
        <time>2020-07-15T13:39:47.622Z</time>
      </trkpt>
      <trkpt lat="68.07842" lon="13.23822">
        <ele>6.023357</ele>
        <time>2020-07-15T13:39:53.552Z</time>
      </trkpt>
      <trkpt lat="68.07872" lon="13.23795">
        <ele>5.99532</ele>
        <time>2020-07-15T13:39:59.024Z</time>
      </trkpt>
      <trkpt lat="68.07882" lon="13.23784">
        <ele>5.985542</ele>
        <time>2020-07-15T13:40:00.987Z</time>
      </trkpt>
      <trkpt lat="68.07911" lon="13.23752">
        <ele>5.998364</ele>
        <time>2020-07-15T13:40:06.416Z</time>
      </trkpt>
      <trkpt lat="68.08007" lon="13.23613">
        <ele>6.142872</ele>
        <time>2020-07-15T13:40:26.281Z</time>
      </trkpt>
      <trkpt lat="68.08136" lon="13.23376">
        <ele>6.94955</ele>
        <time>2020-07-15T13:40:56.015Z</time>
      </trkpt>
      <trkpt lat="68.0818" lon="13.23328">
        <ele>7.286969</ele>
        <time>2020-07-15T13:41:06.069Z</time>
      </trkpt>
      <trkpt lat="68.08214" lon="13.2331">
        <ele>7.54563</ele>
        <time>2020-07-15T13:41:13.590Z</time>
      </trkpt>
      <trkpt lat="68.08252" lon="13.23292">
        <ele>7.898511</ele>
        <time>2020-07-15T13:41:22.323Z</time>
      </trkpt>
      <trkpt lat="68.08357" lon="13.23243">
        <ele>8.861793</ele>
        <time>2020-07-15T13:41:44.815Z</time>
      </trkpt>
      <trkpt lat="68.08389" lon="13.23225">
        <ele>9.090754</ele>
        <time>2020-07-15T13:41:51.023Z</time>
      </trkpt>
      <trkpt lat="68.08396" lon="13.2322">
        <ele>9.045176</ele>
        <time>2020-07-15T13:41:52.612Z</time>
      </trkpt>
      <trkpt lat="68.08405" lon="13.23213">
        <ele>8.990416</ele>
        <time>2020-07-15T13:41:54.062Z</time>
      </trkpt>
      <trkpt lat="68.08436" lon="13.23187">
        <ele>8.798185</ele>
        <time>2020-07-15T13:41:59.797Z</time>
      </trkpt>
      <trkpt lat="68.08459" lon="13.23163">
        <ele>8.657346</ele>
        <time>2020-07-15T13:42:03.835Z</time>
      </trkpt>
      <trkpt lat="68.08472" lon="13.23148">
        <ele>8.573579</ele>
        <time>2020-07-15T13:42:06.068Z</time>
      </trkpt>
      <trkpt lat="68.08564" lon="13.23025">
        <ele>7.90245</ele>
        <time>2020-07-15T13:42:22.048Z</time>
      </trkpt>
      <trkpt lat="68.08592" lon="13.22984">
        <ele>7.582768</ele>
        <time>2020-07-15T13:42:26.719Z</time>
      </trkpt>
      <trkpt lat="68.08597" lon="13.22978">
        <ele>7.527475</ele>
        <time>2020-07-15T13:42:27.527Z</time>
      </trkpt>
      <trkpt lat="68.0862" lon="13.22957">
        <ele>7.287803</ele>
        <time>2020-07-15T13:42:31.045Z</time>
      </trkpt>
      <trkpt lat="68.08635" lon="13.22946">
        <ele>7.13684</ele>
        <time>2020-07-15T13:42:33.531Z</time>
      </trkpt>
      <trkpt lat="68.0866" lon="13.2293">
        <ele>6.872714</ele>
        <time>2020-07-15T13:42:37.720Z</time>
      </trkpt>
      <trkpt lat="68.08675" lon="13.22923">
        <ele>6.728412</ele>
        <time>2020-07-15T13:42:40.116Z</time>
      </trkpt>
      <trkpt lat="68.0869" lon="13.22915">
        <ele>6.568775</ele>
        <time>2020-07-15T13:42:42.587Z</time>
      </trkpt>
      <trkpt lat="68.08749" lon="13.22859">
        <ele>5.954518</ele>
        <time>2020-07-15T13:42:52.649Z</time>
      </trkpt>
      <trkpt lat="68.08753" lon="13.22857">
        <ele>5.909286</ele>
        <time>2020-07-15T13:42:53.245Z</time>
      </trkpt>
      <trkpt lat="68.0876" lon="13.22855">
        <ele>5.837921</ele>
        <time>2020-07-15T13:42:54.500Z</time>
      </trkpt>
      <trkpt lat="68.08783" lon="13.22865">
        <ele>5.614739</ele>
        <time>2020-07-15T13:42:58.028Z</time>
      </trkpt>
      <trkpt lat="68.08797" lon="13.22877">
        <ele>5.467838</ele>
        <time>2020-07-15T13:43:00.228Z</time>
      </trkpt>
      <trkpt lat="68.08806" lon="13.22883">
        <ele>5.376267</ele>
        <time>2020-07-15T13:43:01.669Z</time>
      </trkpt>
      <trkpt lat="68.08824" lon="13.22891">
        <ele>5.195993</ele>
        <time>2020-07-15T13:43:04.278Z</time>
      </trkpt>
      <trkpt lat="68.08857" lon="13.22905">
        <ele>4.867197</ele>
        <time>2020-07-15T13:43:09.523Z</time>
      </trkpt>
      <trkpt lat="68.08891" lon="13.22903">
        <ele>4.529405</ele>
        <time>2020-07-15T13:43:14.944Z</time>
      </trkpt>
      <trkpt lat="68.08899" lon="13.22903">
        <ele>4.477006</ele>
        <time>2020-07-15T13:43:16.170Z</time>
      </trkpt>
      <trkpt lat="68.08906" lon="13.22905">
        <ele>4.45738</ele>
        <time>2020-07-15T13:43:17.352Z</time>
      </trkpt>
      <trkpt lat="68.08913" lon="13.2291">
        <ele>4.439755</ele>
        <time>2020-07-15T13:43:18.408Z</time>
      </trkpt>
      <trkpt lat="68.0894" lon="13.22942">
        <ele>4.360358</ele>
        <time>2020-07-15T13:43:23.034Z</time>
      </trkpt>
      <trkpt lat="68.0895" lon="13.22953">
        <ele>4.330117</ele>
        <time>2020-07-15T13:43:24.815Z</time>
      </trkpt>
      <trkpt lat="68.08953" lon="13.22957">
        <ele>4.322053</ele>
        <time>2020-07-15T13:43:25.256Z</time>
      </trkpt>
      <trkpt lat="68.08955" lon="13.2296">
        <ele>4.313701</ele>
        <time>2020-07-15T13:43:25.741Z</time>
      </trkpt>
      <trkpt lat="68.08995" lon="13.23009">
        <ele>4.195224</ele>
        <time>2020-07-15T13:43:33.008Z</time>
      </trkpt>
      <trkpt lat="68.09012" lon="13.23027">
        <ele>4.146586</ele>
        <time>2020-07-15T13:43:35.897Z</time>
      </trkpt>
      <trkpt lat="68.09058" lon="13.23066">
        <ele>4.014934</ele>
        <time>2020-07-15T13:43:44.419Z</time>
      </trkpt>
      <trkpt lat="68.09081" lon="13.23102">
        <ele>4.448146</ele>
        <time>2020-07-15T13:43:50.009Z</time>
      </trkpt>
      <trkpt lat="68.09089" lon="13.2312">
        <ele>4.671128</ele>
        <time>2020-07-15T13:43:52.162Z</time>
      </trkpt>
      <trkpt lat="68.09092" lon="13.23128">
        <ele>4.768212</ele>
        <time>2020-07-15T13:43:53.632Z</time>
      </trkpt>
      <trkpt lat="68.09145" lon="13.23331">
        <ele>6.726846</ele>
        <time>2020-07-15T13:44:16.741Z</time>
      </trkpt>
      <trkpt lat="68.09173" lon="13.23451">
        <ele>7.846867</ele>
        <time>2020-07-15T13:44:31.560Z</time>
      </trkpt>
      <trkpt lat="68.09186" lon="13.2351">
        <ele>8.454057</ele>
        <time>2020-07-15T13:44:38.790Z</time>
      </trkpt>
      <trkpt lat="68.09212" lon="13.23613">
        <ele>9.547095</ele>
        <time>2020-07-15T13:44:51.003Z</time>
      </trkpt>
      <trkpt lat="68.0923" lon="13.23677">
        <ele>10.252864</ele>
        <time>2020-07-15T13:44:58.986Z</time>
      </trkpt>
      <trkpt lat="68.09241" lon="13.23715">
        <ele>10.677269</ele>
        <time>2020-07-15T13:45:03.488Z</time>
      </trkpt>
      <trkpt lat="68.09246" lon="13.23729">
        <ele>10.833626</ele>
        <time>2020-07-15T13:45:05.277Z</time>
      </trkpt>
      <trkpt lat="68.09262" lon="13.23781">
        <ele>11.42186</ele>
        <time>2020-07-15T13:45:11.184Z</time>
      </trkpt>
      <trkpt lat="68.0927" lon="13.23808">
        <ele>11.736064</ele>
        <time>2020-07-15T13:45:14.453Z</time>
      </trkpt>
      <trkpt lat="68.09311" lon="13.23922">
        <ele>12.474711</ele>
        <time>2020-07-15T13:45:27.009Z</time>
      </trkpt>
      <trkpt lat="68.09419" lon="13.24157">
        <ele>13.76692</ele>
        <time>2020-07-15T13:45:54.931Z</time>
      </trkpt>
      <trkpt lat="68.09421" lon="13.2416">
        <ele>13.791798</ele>
        <time>2020-07-15T13:45:55.381Z</time>
      </trkpt>
      <trkpt lat="68.09464" lon="13.2424">
        <ele>14.388402</ele>
        <time>2020-07-15T13:46:06.300Z</time>
      </trkpt>
      <trkpt lat="68.0957" lon="13.24414">
        <ele>15.804873</ele>
        <time>2020-07-15T13:46:33.676Z</time>
      </trkpt>
      <trkpt lat="68.09659" lon="13.2452">
        <ele>16.983164</ele>
        <time>2020-07-15T13:46:55.337Z</time>
      </trkpt>
      <trkpt lat="68.09732" lon="13.24581">
        <ele>17.903214</ele>
        <time>2020-07-15T13:47:11.363Z</time>
      </trkpt>
      <trkpt lat="68.09805" lon="13.24617">
        <ele>18.776328</ele>
        <time>2020-07-15T13:47:27.230Z</time>
      </trkpt>
      <trkpt lat="68.0984" lon="13.24628">
        <ele>19.187684</ele>
        <time>2020-07-15T13:47:34.896Z</time>
      </trkpt>
      <trkpt lat="68.09843" lon="13.24628">
        <ele>19.228931</ele>
        <time>2020-07-15T13:47:35.646Z</time>
      </trkpt>
      <trkpt lat="68.09865" lon="13.24633">
        <ele>19.479714</ele>
        <time>2020-07-15T13:47:40.248Z</time>
      </trkpt>
      <trkpt lat="68.09883" lon="13.24638">
        <ele>19.694586</ele>
        <time>2020-07-15T13:47:44.242Z</time>
      </trkpt>
      <trkpt lat="68.09899" lon="13.24643">
        <ele>19.880234</ele>
        <time>2020-07-15T13:47:47.627Z</time>
      </trkpt>
      <trkpt lat="68.09922" lon="13.2465">
        <ele>20.20702</ele>
        <time>2020-07-15T13:47:52.679Z</time>
      </trkpt>
      <trkpt lat="68.09924" lon="13.24651">
        <ele>20.239021</ele>
        <time>2020-07-15T13:47:53.074Z</time>
      </trkpt>
      <trkpt lat="68.09958" lon="13.24661">
        <ele>20.836086</ele>
        <time>2020-07-15T13:48:00.919Z</time>
      </trkpt>
      <trkpt lat="68.09986" lon="13.24671">
        <ele>21.324739</ele>
        <time>2020-07-15T13:48:07.466Z</time>
      </trkpt>
      <trkpt lat="68.10036" lon="13.24704">
        <ele>22.206713</ele>
        <time>2020-07-15T13:48:20.418Z</time>
      </trkpt>
      <trkpt lat="68.10065" lon="13.24738">
        <ele>22.741158</ele>
        <time>2020-07-15T13:48:28.231Z</time>
      </trkpt>
      <trkpt lat="68.10083" lon="13.24773">
        <ele>23.119708</ele>
        <time>2020-07-15T13:48:33.041Z</time>
      </trkpt>
      <trkpt lat="68.10087" lon="13.24786">
        <ele>23.146778</ele>
        <time>2020-07-15T13:48:34.599Z</time>
      </trkpt>
      <trkpt lat="68.10093" lon="13.24804">
        <ele>23.174847</ele>
        <time>2020-07-15T13:48:36.981Z</time>
      </trkpt>
      <trkpt lat="68.10105" lon="13.24843">
        <ele>23.232831</ele>
        <time>2020-07-15T13:48:40.641Z</time>
      </trkpt>
      <trkpt lat="68.10123" lon="13.24908">
        <ele>23.326042</ele>
        <time>2020-07-15T13:48:46.966Z</time>
      </trkpt>
      <trkpt lat="68.1015" lon="13.25001">
        <ele>23.462512</ele>
        <time>2020-07-15T13:48:55.263Z</time>
      </trkpt>
      <trkpt lat="68.10156" lon="13.25019">
        <ele>23.489086</ele>
        <time>2020-07-15T13:48:56.977Z</time>
      </trkpt>
      <trkpt lat="68.10159" lon="13.25029">
        <ele>23.504536</ele>
        <time>2020-07-15T13:48:58.159Z</time>
      </trkpt>
      <trkpt lat="68.10259" lon="13.2535">
        <ele>22.671636</ele>
        <time>2020-07-15T13:49:22.454Z</time>
      </trkpt>
      <trkpt lat="68.10274" lon="13.254">
        <ele>22.427026</ele>
        <time>2020-07-15T13:49:25.886Z</time>
      </trkpt>
      <trkpt lat="68.10294" lon="13.25473">
        <ele>22.081712</ele>
        <time>2020-07-15T13:49:30.880Z</time>
      </trkpt>
      <trkpt lat="68.1031" lon="13.25571">
        <ele>21.773045</ele>
        <time>2020-07-15T13:49:37.055Z</time>
      </trkpt>
      <trkpt lat="68.10356" lon="13.26015">
        <ele>21.115621</ele>
        <time>2020-07-15T13:50:06.869Z</time>
      </trkpt>
      <trkpt lat="68.10375" lon="13.26237">
        <ele>20.395136</ele>
        <time>2020-07-15T13:50:21.303Z</time>
      </trkpt>
      <trkpt lat="68.10374" lon="13.26393">
        <ele>19.903931</ele>
        <time>2020-07-15T13:50:30.297Z</time>
      </trkpt>
      <trkpt lat="68.10371" lon="13.26452">
        <ele>19.717001</ele>
        <time>2020-07-15T13:50:33.588Z</time>
      </trkpt>
      <trkpt lat="68.10362" lon="13.26569">
        <ele>18.559266</ele>
        <time>2020-07-15T13:50:39.881Z</time>
      </trkpt>
      <trkpt lat="68.10358" lon="13.26666">
        <ele>17.48995</ele>
        <time>2020-07-15T13:50:44.835Z</time>
      </trkpt>
      <trkpt lat="68.10363" lon="13.26827">
        <ele>15.722768</ele>
        <time>2020-07-15T13:50:52.714Z</time>
      </trkpt>
      <trkpt lat="68.10376" lon="13.27012">
        <ele>13.467568</ele>
        <time>2020-07-15T13:51:01.606Z</time>
      </trkpt>
      <trkpt lat="68.10409" lon="13.27265">
        <ele>9.728329</ele>
        <time>2020-07-15T13:51:14.179Z</time>
      </trkpt>
      <trkpt lat="68.10424" lon="13.27603">
        <ele>6.484843</ele>
        <time>2020-07-15T13:51:30.799Z</time>
      </trkpt>
      <trkpt lat="68.10417" lon="13.27772">
        <ele>5.443756</ele>
        <time>2020-07-15T13:51:40.201Z</time>
      </trkpt>
      <trkpt lat="68.10382" lon="13.28018">
        <ele>6.007077</ele>
        <time>2020-07-15T13:51:58.678Z</time>
      </trkpt>
      <trkpt lat="68.10371" lon="13.28105">
        <ele>6.841326</ele>
        <time>2020-07-15T13:52:07.137Z</time>
      </trkpt>
      <trkpt lat="68.10369" lon="13.28123">
        <ele>7.008893</ele>
        <time>2020-07-15T13:52:09.628Z</time>
      </trkpt>
      <trkpt lat="68.10342" lon="13.284">
        <ele>9.918587</ele>
        <time>2020-07-15T13:52:41.466Z</time>
      </trkpt>
      <trkpt lat="68.10328" lon="13.28476">
        <ele>11.146867</ele>
        <time>2020-07-15T13:52:51.484Z</time>
      </trkpt>
      <trkpt lat="68.10314" lon="13.28557">
        <ele>12.445682</ele>
        <time>2020-07-15T13:53:02.437Z</time>
      </trkpt>
      <trkpt lat="68.10269" lon="13.28903">
        <ele>16.646087</ele>
        <time>2020-07-15T13:53:42.947Z</time>
      </trkpt>
      <trkpt lat="68.10261" lon="13.29048">
        <ele>17.391669</ele>
        <time>2020-07-15T13:53:55.570Z</time>
      </trkpt>
      <trkpt lat="68.10259" lon="13.29217">
        <ele>18.248318</ele>
        <time>2020-07-15T13:54:07.679Z</time>
      </trkpt>
      <trkpt lat="68.10263" lon="13.29406">
        <ele>17.53661</ele>
        <time>2020-07-15T13:54:18.747Z</time>
      </trkpt>
      <trkpt lat="68.10271" lon="13.2999">
        <ele>12.770593</ele>
        <time>2020-07-15T13:54:48.524Z</time>
      </trkpt>
      <trkpt lat="68.10276" lon="13.30377">
        <ele>9.649131</ele>
        <time>2020-07-15T13:55:07.924Z</time>
      </trkpt>
      <trkpt lat="68.10276" lon="13.30398">
        <ele>9.537994</ele>
        <time>2020-07-15T13:55:08.943Z</time>
      </trkpt>
      <trkpt lat="68.10275" lon="13.3042">
        <ele>9.42518</ele>
        <time>2020-07-15T13:55:10.080Z</time>
      </trkpt>
      <trkpt lat="68.10264" lon="13.30572">
        <ele>8.613004</ele>
        <time>2020-07-15T13:55:18.731Z</time>
      </trkpt>
      <trkpt lat="68.10169" lon="13.31604">
        <ele>8.291211</ele>
        <time>2020-07-15T13:56:32.836Z</time>
      </trkpt>
      <trkpt lat="68.10126" lon="13.3208">
        <ele>6.102977</ele>
        <time>2020-07-15T13:57:00.484Z</time>
      </trkpt>
      <trkpt lat="68.10119" lon="13.32145">
        <ele>5.72696</ele>
        <time>2020-07-15T13:57:03.827Z</time>
      </trkpt>
      <trkpt lat="68.10108" lon="13.32198">
        <ele>5.338122</ele>
        <time>2020-07-15T13:57:07.004Z</time>
      </trkpt>
      <trkpt lat="68.10083" lon="13.3225">
        <ele>4.805395</ele>
        <time>2020-07-15T13:57:11.385Z</time>
      </trkpt>
      <trkpt lat="68.10049" lon="13.32272">
        <ele>4.21607</ele>
        <time>2020-07-15T13:57:16.285Z</time>
      </trkpt>
      <trkpt lat="68.10017" lon="13.32256">
        <ele>3.665119</ele>
        <time>2020-07-15T13:57:20.949Z</time>
      </trkpt>
      <trkpt lat="68.09982" lon="13.32224">
        <ele>3.032905</ele>
        <time>2020-07-15T13:57:26.446Z</time>
      </trkpt>
      <trkpt lat="68.09956" lon="13.32202">
        <ele>2.934307</ele>
        <time>2020-07-15T13:57:30.965Z</time>
      </trkpt>
      <trkpt lat="68.09843" lon="13.32103">
        <ele>3.119049</ele>
        <time>2020-07-15T13:57:53.054Z</time>
      </trkpt>
      <trkpt lat="68.09738" lon="13.31952">
        <ele>3.359326</ele>
        <time>2020-07-15T13:58:17.652Z</time>
      </trkpt>
      <trkpt lat="68.09652" lon="13.31895">
        <ele>3.560045</ele>
        <time>2020-07-15T13:58:33.504Z</time>
      </trkpt>
      <trkpt lat="68.09451" lon="13.31689">
        <ele>2.500896</ele>
        <time>2020-07-15T13:59:08.022Z</time>
      </trkpt>
      <trkpt lat="68.09199" lon="13.31355">
        <ele>2.080819</ele>
        <time>2020-07-15T13:59:57.891Z</time>
      </trkpt>
      <trkpt lat="68.09025" lon="13.31195">
        <ele>1.575463</ele>
        <time>2020-07-15T14:00:28.939Z</time>
      </trkpt>
      <trkpt lat="68.09024" lon="13.31194">
        <ele>1.572931</ele>
        <time>2020-07-15T14:00:29.014Z</time>
      </trkpt>
      <trkpt lat="68.08989" lon="13.31163">
        <ele>1.445537</ele>
        <time>2020-07-15T14:00:35.374Z</time>
      </trkpt>
      <trkpt lat="68.08952" lon="13.31125">
        <ele>1.483527</ele>
        <time>2020-07-15T14:00:42.138Z</time>
      </trkpt>
      <trkpt lat="68.08892" lon="13.31014">
        <ele>1.744891</ele>
        <time>2020-07-15T14:00:55.199Z</time>
      </trkpt>
      <trkpt lat="68.0888" lon="13.30997">
        <ele>1.794784</ele>
        <time>2020-07-15T14:00:57.889Z</time>
      </trkpt>
      <trkpt lat="68.08874" lon="13.3099">
        <ele>1.81758</ele>
        <time>2020-07-15T14:00:59.108Z</time>
      </trkpt>
      <trkpt lat="68.08701" lon="13.30799">
        <ele>3.69743</ele>
        <time>2020-07-15T14:01:38.637Z</time>
      </trkpt>
      <trkpt lat="68.08664" lon="13.3073">
        <ele>4.300891</ele>
        <time>2020-07-15T14:01:49.687Z</time>
      </trkpt>
      <trkpt lat="68.08656" lon="13.30707">
        <ele>4.447214</ele>
        <time>2020-07-15T14:01:52.583Z</time>
      </trkpt>
      <trkpt lat="68.08653" lon="13.30697">
        <ele>4.493305</ele>
        <time>2020-07-15T14:01:54.333Z</time>
      </trkpt>
      <trkpt lat="68.08627" lon="13.30598">
        <ele>4.897602</ele>
        <time>2020-07-15T14:02:04.640Z</time>
      </trkpt>
      <trkpt lat="68.08596" lon="13.30456">
        <ele>5.446421</ele>
        <time>2020-07-15T14:02:18.646Z</time>
      </trkpt>
      <trkpt lat="68.08586" lon="13.30401">
        <ele>5.653795</ele>
        <time>2020-07-15T14:02:23.174Z</time>
      </trkpt>
      <trkpt lat="68.08513" lon="13.29921">
        <ele>4.552426</ele>
        <time>2020-07-15T14:02:53.734Z</time>
      </trkpt>
      <trkpt lat="68.08504" lon="13.2983">
        <ele>4.185119</ele>
        <time>2020-07-15T14:02:58.715Z</time>
      </trkpt>
      <trkpt lat="68.085" lon="13.29724">
        <ele>3.63806</ele>
        <time>2020-07-15T14:03:04.498Z</time>
      </trkpt>
      <trkpt lat="68.085" lon="13.29718">
        <ele>3.608378</ele>
        <time>2020-07-15T14:03:04.743Z</time>
      </trkpt>
      <trkpt lat="68.085" lon="13.29651">
        <ele>3.265838</ele>
        <time>2020-07-15T14:03:08.517Z</time>
      </trkpt>
      <trkpt lat="68.08493" lon="13.29519">
        <ele>2.584061</ele>
        <time>2020-07-15T14:03:15.801Z</time>
      </trkpt>
      <trkpt lat="68.08479" lon="13.29453">
        <ele>2.195756</ele>
        <time>2020-07-15T14:03:20.235Z</time>
      </trkpt>
      <trkpt lat="68.08462" lon="13.29404">
        <ele>1.85989</ele>
        <time>2020-07-15T14:03:23.898Z</time>
      </trkpt>
      <trkpt lat="68.0838" lon="13.29261">
        <ele>1.417353</ele>
        <time>2020-07-15T14:03:39.878Z</time>
      </trkpt>
      <trkpt lat="68.08343" lon="13.29224">
        <ele>1.256474</ele>
        <time>2020-07-15T14:03:46.811Z</time>
      </trkpt>
      <trkpt lat="68.08322" lon="13.29216">
        <ele>1.173007</ele>
        <time>2020-07-15T14:03:50.453Z</time>
      </trkpt>
      <trkpt lat="68.08269" lon="13.29229">
        <ele>1.137295</ele>
        <time>2020-07-15T14:03:59.855Z</time>
      </trkpt>
      <trkpt lat="68.07986" lon="13.29389">
        <ele>2.62164</ele>
        <time>2020-07-15T14:04:54.501Z</time>
      </trkpt>
      <trkpt lat="68.07939" lon="13.29445">
        <ele>3.232756</ele>
        <time>2020-07-15T14:05:06.600Z</time>
      </trkpt>
      <trkpt lat="68.07898" lon="13.29536">
        <ele>4.944973</ele>
        <time>2020-07-15T14:05:20.139Z</time>
      </trkpt>
      <trkpt lat="68.07856" lon="13.29676">
        <ele>7.123854</ele>
        <time>2020-07-15T14:05:39.768Z</time>
      </trkpt>
      <trkpt lat="68.0783" lon="13.29787">
        <ele>8.709155</ele>
        <time>2020-07-15T14:05:55.232Z</time>
      </trkpt>
      <trkpt lat="68.07809" lon="13.29912">
        <ele>10.749762</ele>
        <time>2020-07-15T14:06:11.726Z</time>
      </trkpt>
      <trkpt lat="68.07791" lon="13.30062">
        <ele>13.110652</ele>
        <time>2020-07-15T14:06:30.894Z</time>
      </trkpt>
      <trkpt lat="68.07756" lon="13.30482">
        <ele>17.698404</ele>
        <time>2020-07-15T14:07:16.768Z</time>
      </trkpt>
      <trkpt lat="68.07759" lon="13.30587">
        <ele>18.440716</ele>
        <time>2020-07-15T14:07:25.264Z</time>
      </trkpt>
      <trkpt lat="68.07774" lon="13.30828">
        <ele>19.218723</ele>
        <time>2020-07-15T14:07:42.237Z</time>
      </trkpt>
      <trkpt lat="68.07772" lon="13.30903">
        <ele>19.063457</ele>
        <time>2020-07-15T14:07:46.833Z</time>
      </trkpt>
      <trkpt lat="68.07763" lon="13.30981">
        <ele>18.89668</ele>
        <time>2020-07-15T14:07:51.587Z</time>
      </trkpt>
      <trkpt lat="68.07302" lon="13.33029">
        <ele>10.784883</ele>
        <time>2020-07-15T14:10:11.341Z</time>
      </trkpt>
      <trkpt lat="68.0725" lon="13.33342">
        <ele>9.380645</ele>
        <time>2020-07-15T14:10:30.386Z</time>
      </trkpt>
      <trkpt lat="68.07245" lon="13.33382">
        <ele>9.227428</ele>
        <time>2020-07-15T14:10:32.663Z</time>
      </trkpt>
      <trkpt lat="68.07239" lon="13.33438">
        <ele>9.014756</ele>
        <time>2020-07-15T14:10:36.167Z</time>
      </trkpt>
      <trkpt lat="68.07238" lon="13.33444">
        <ele>8.991628</ele>
        <time>2020-07-15T14:10:36.543Z</time>
      </trkpt>
      <trkpt lat="68.07237" lon="13.33451">
        <ele>8.966021</ele>
        <time>2020-07-15T14:10:36.923Z</time>
      </trkpt>
      <trkpt lat="68.07236" lon="13.3346">
        <ele>8.932788</ele>
        <time>2020-07-15T14:10:37.415Z</time>
      </trkpt>
      <trkpt lat="68.07235" lon="13.33477">
        <ele>8.868085</ele>
        <time>2020-07-15T14:10:38.401Z</time>
      </trkpt>
      <trkpt lat="68.07231" lon="13.33515">
        <ele>8.726818</ele>
        <time>2020-07-15T14:10:41.013Z</time>
      </trkpt>
      <trkpt lat="68.07216" lon="13.33703">
        <ele>8.027733</ele>
        <time>2020-07-15T14:10:52.271Z</time>
      </trkpt>
      <trkpt lat="68.07208" lon="13.33915">
        <ele>7.191715</ele>
        <time>2020-07-15T14:11:05.499Z</time>
      </trkpt>
      <trkpt lat="68.07207" lon="13.33961">
        <ele>7.008121</ele>
        <time>2020-07-15T14:11:08.188Z</time>
      </trkpt>
      <trkpt lat="68.07207" lon="13.33984">
        <ele>6.9183</ele>
        <time>2020-07-15T14:11:09.401Z</time>
      </trkpt>
      <trkpt lat="68.07219" lon="13.34168">
        <ele>6.183302</ele>
        <time>2020-07-15T14:11:19.792Z</time>
      </trkpt>
      <trkpt lat="68.07236" lon="13.3428">
        <ele>5.629542</ele>
        <time>2020-07-15T14:11:26.392Z</time>
      </trkpt>
      <trkpt lat="68.0726" lon="13.34383">
        <ele>5.064206</ele>
        <time>2020-07-15T14:11:32.920Z</time>
      </trkpt>
      <trkpt lat="68.07297" lon="13.34494">
        <ele>4.366688</ele>
        <time>2020-07-15T14:11:41.412Z</time>
      </trkpt>
      <trkpt lat="68.07337" lon="13.34575">
        <ele>3.863002</ele>
        <time>2020-07-15T14:11:49.298Z</time>
      </trkpt>
      <trkpt lat="68.07374" lon="13.34627">
        <ele>3.846771</ele>
        <time>2020-07-15T14:11:56.123Z</time>
      </trkpt>
      <trkpt lat="68.07381" lon="13.34635">
        <ele>3.843475</ele>
        <time>2020-07-15T14:11:57.426Z</time>
      </trkpt>
      <trkpt lat="68.0739" lon="13.34643">
        <ele>3.839978</ele>
        <time>2020-07-15T14:11:59.117Z</time>
      </trkpt>
      <trkpt lat="68.07452" lon="13.34677">
        <ele>3.815384</ele>
        <time>2020-07-15T14:12:10.072Z</time>
      </trkpt>
      <trkpt lat="68.07614" lon="13.34685">
        <ele>5.168394</ele>
        <time>2020-07-15T14:12:43.874Z</time>
      </trkpt>
      <trkpt lat="68.07617" lon="13.34685">
        <ele>5.20804</ele>
        <time>2020-07-15T14:12:44.652Z</time>
      </trkpt>
      <trkpt lat="68.07623" lon="13.34684">
        <ele>5.276691</ele>
        <time>2020-07-15T14:12:45.814Z</time>
      </trkpt>
      <trkpt lat="68.0763" lon="13.34681">
        <ele>5.361469</ele>
        <time>2020-07-15T14:12:47.310Z</time>
      </trkpt>
      <trkpt lat="68.0764" lon="13.34677">
        <ele>5.488246</ele>
        <time>2020-07-15T14:12:49.862Z</time>
      </trkpt>
      <trkpt lat="68.07771" lon="13.34591">
        <ele>7.646879</ele>
        <time>2020-07-15T14:13:21.763Z</time>
      </trkpt>
      <trkpt lat="68.0782" lon="13.34558">
        <ele>8.536891</ele>
        <time>2020-07-15T14:13:33.964Z</time>
      </trkpt>
      <trkpt lat="68.07846" lon="13.34541">
        <ele>9.004908</ele>
        <time>2020-07-15T14:13:40.064Z</time>
      </trkpt>
      <trkpt lat="68.07874" lon="13.3452">
        <ele>9.266426</ele>
        <time>2020-07-15T14:13:46.587Z</time>
      </trkpt>
      <trkpt lat="68.07883" lon="13.34514">
        <ele>9.325232</ele>
        <time>2020-07-15T14:13:48.949Z</time>
      </trkpt>
      <trkpt lat="68.07924" lon="13.34486">
        <ele>9.577831</ele>
        <time>2020-07-15T14:13:58.047Z</time>
      </trkpt>
      <trkpt lat="68.07926" lon="13.34485">
        <ele>9.592305</ele>
        <time>2020-07-15T14:13:58.552Z</time>
      </trkpt>
      <trkpt lat="68.07963" lon="13.34462">
        <ele>9.817417</ele>
        <time>2020-07-15T14:14:05.965Z</time>
      </trkpt>
      <trkpt lat="68.07989" lon="13.34444">
        <ele>9.980271</ele>
        <time>2020-07-15T14:14:11.026Z</time>
      </trkpt>
      <trkpt lat="68.08021" lon="13.34423">
        <ele>10.178428</ele>
        <time>2020-07-15T14:14:16.615Z</time>
      </trkpt>
      <trkpt lat="68.08055" lon="13.34398">
        <ele>9.821855</ele>
        <time>2020-07-15T14:14:22.416Z</time>
      </trkpt>
      <trkpt lat="68.0807" lon="13.3439">
        <ele>9.611392</ele>
        <time>2020-07-15T14:14:24.758Z</time>
      </trkpt>
      <trkpt lat="68.08329" lon="13.34218">
        <ele>5.933251</ele>
        <time>2020-07-15T14:15:03.441Z</time>
      </trkpt>
      <trkpt lat="68.08416" lon="13.34161">
        <ele>5.297605</ele>
        <time>2020-07-15T14:15:17.483Z</time>
      </trkpt>
      <trkpt lat="68.08432" lon="13.34151">
        <ele>5.315736</ele>
        <time>2020-07-15T14:15:20.138Z</time>
      </trkpt>
      <trkpt lat="68.0856" lon="13.34066">
        <ele>5.5847</ele>
        <time>2020-07-15T14:15:45.720Z</time>
      </trkpt>
      <trkpt lat="68.08728" lon="13.33953">
        <ele>7.872555</ele>
        <time>2020-07-15T14:16:24.951Z</time>
      </trkpt>
      <trkpt lat="68.08752" lon="13.33937">
        <ele>8.019516</ele>
        <time>2020-07-15T14:16:30.480Z</time>
      </trkpt>
      <trkpt lat="68.08786" lon="13.33914">
        <ele>8.230028</ele>
        <time>2020-07-15T14:16:38.002Z</time>
      </trkpt>
      <trkpt lat="68.08991" lon="13.33782">
        <ele>8.925662</ele>
        <time>2020-07-15T14:17:16.880Z</time>
      </trkpt>
      <trkpt lat="68.09241" lon="13.33697">
        <ele>8.989168</ele>
        <time>2020-07-15T14:18:00.472Z</time>
      </trkpt>
      <trkpt lat="68.09326" lon="13.33696">
        <ele>10.051633</ele>
        <time>2020-07-15T14:18:18.604Z</time>
      </trkpt>
      <trkpt lat="68.0954" lon="13.33746">
        <ele>12.944971</ele>
        <time>2020-07-15T14:19:10.296Z</time>
      </trkpt>
      <trkpt lat="68.0979" lon="13.33886">
        <ele>14.192792</ele>
        <time>2020-07-15T14:19:57.575Z</time>
      </trkpt>
      <trkpt lat="68.09901" lon="13.34049">
        <ele>14.522442</ele>
        <time>2020-07-15T14:20:20.524Z</time>
      </trkpt>
      <trkpt lat="68.09972" lon="13.34114">
        <ele>14.805909</ele>
        <time>2020-07-15T14:20:35.093Z</time>
      </trkpt>
      <trkpt lat="68.10188" lon="13.34376">
        <ele>16.267153</ele>
        <time>2020-07-15T14:21:22.778Z</time>
      </trkpt>
      <trkpt lat="68.10246" lon="13.34428">
        <ele>16.605146</ele>
        <time>2020-07-15T14:21:34.472Z</time>
      </trkpt>
      <trkpt lat="68.10279" lon="13.3444">
        <ele>16.789722</ele>
        <time>2020-07-15T14:21:40.886Z</time>
      </trkpt>
      <trkpt lat="68.10388" lon="13.34426">
        <ele>17.004983</ele>
        <time>2020-07-15T14:22:01.748Z</time>
      </trkpt>
      <trkpt lat="68.10493" lon="13.34388">
        <ele>16.859875</ele>
        <time>2020-07-15T14:22:20.887Z</time>
      </trkpt>
      <trkpt lat="68.10857" lon="13.34209">
        <ele>12.56382</ele>
        <time>2020-07-15T14:23:16.776Z</time>
      </trkpt>
      <trkpt lat="68.10917" lon="13.34161">
        <ele>11.505388</ele>
        <time>2020-07-15T14:23:25.798Z</time>
      </trkpt>
      <trkpt lat="68.10964" lon="13.34143">
        <ele>10.715275</ele>
        <time>2020-07-15T14:23:32.509Z</time>
      </trkpt>
      <trkpt lat="68.10998" lon="13.34144">
        <ele>10.128731</ele>
        <time>2020-07-15T14:23:37.478Z</time>
      </trkpt>
      <trkpt lat="68.11035" lon="13.34161">
        <ele>9.45975</ele>
        <time>2020-07-15T14:23:42.760Z</time>
      </trkpt>
      <trkpt lat="68.11139" lon="13.34255">
        <ele>7.480959</ele>
        <time>2020-07-15T14:23:58.361Z</time>
      </trkpt>
      <trkpt lat="68.11187" lon="13.34299">
        <ele>6.851276</ele>
        <time>2020-07-15T14:24:05.789Z</time>
      </trkpt>
      <trkpt lat="68.11188" lon="13.34299">
        <ele>6.84761</ele>
        <time>2020-07-15T14:24:05.850Z</time>
      </trkpt>
      <trkpt lat="68.11317" lon="13.34401">
        <ele>6.061106</ele>
        <time>2020-07-15T14:24:27.806Z</time>
      </trkpt>
      <trkpt lat="68.11374" lon="13.34433">
        <ele>6.382074</ele>
        <time>2020-07-15T14:24:39.058Z</time>
      </trkpt>
      <trkpt lat="68.11388" lon="13.34441">
        <ele>6.56325</ele>
        <time>2020-07-15T14:24:42.492Z</time>
      </trkpt>
      <trkpt lat="68.11541" lon="13.34526">
        <ele>8.167468</ele>
        <time>2020-07-15T14:25:18.478Z</time>
      </trkpt>
      <trkpt lat="68.11547" lon="13.34529">
        <ele>8.172126</ele>
        <time>2020-07-15T14:25:20.065Z</time>
      </trkpt>
      <trkpt lat="68.11561" lon="13.34537">
        <ele>8.184463</ele>
        <time>2020-07-15T14:25:22.741Z</time>
      </trkpt>
      <trkpt lat="68.1158" lon="13.34548">
        <ele>8.201434</ele>
        <time>2020-07-15T14:25:26.758Z</time>
      </trkpt>
      <trkpt lat="68.11648" lon="13.34587">
        <ele>8.260597</ele>
        <time>2020-07-15T14:25:38.722Z</time>
      </trkpt>
      <trkpt lat="68.11829" lon="13.34685">
        <ele>7.300335</ele>
        <time>2020-07-15T14:26:06.661Z</time>
      </trkpt>
      <trkpt lat="68.11839" lon="13.34693">
        <ele>7.23213</ele>
        <time>2020-07-15T14:26:08.272Z</time>
      </trkpt>
      <trkpt lat="68.11841" lon="13.34697">
        <ele>7.212005</ele>
        <time>2020-07-15T14:26:08.618Z</time>
      </trkpt>
      <trkpt lat="68.11843" lon="13.34701">
        <ele>7.19326</ele>
        <time>2020-07-15T14:26:09.298Z</time>
      </trkpt>
      <trkpt lat="68.11951" lon="13.35237">
        <ele>9.362957</ele>
        <time>2020-07-15T14:26:58.120Z</time>
      </trkpt>
      <trkpt lat="68.11977" lon="13.354">
        <ele>10.512589</ele>
        <time>2020-07-15T14:27:14.329Z</time>
      </trkpt>
      <trkpt lat="68.11995" lon="13.35574">
        <ele>11.684828</ele>
        <time>2020-07-15T14:27:30.536Z</time>
      </trkpt>
      <trkpt lat="68.11999" lon="13.35641">
        <ele>12.096932</ele>
        <time>2020-07-15T14:27:36.656Z</time>
      </trkpt>
      <trkpt lat="68.1201" lon="13.35816">
        <ele>12.507247</ele>
        <time>2020-07-15T14:27:51.035Z</time>
      </trkpt>
      <trkpt lat="68.12022" lon="13.36007">
        <ele>12.958509</ele>
        <time>2020-07-15T14:28:04.954Z</time>
      </trkpt>
      <trkpt lat="68.12025" lon="13.36047">
        <ele>13.054124</ele>
        <time>2020-07-15T14:28:07.597Z</time>
      </trkpt>
      <trkpt lat="68.12032" lon="13.36112">
        <ele>13.188427</ele>
        <time>2020-07-15T14:28:11.964Z</time>
      </trkpt>
      <trkpt lat="68.1204" lon="13.36165">
        <ele>13.07295</ele>
        <time>2020-07-15T14:28:15.535Z</time>
      </trkpt>
      <trkpt lat="68.12047" lon="13.36209">
        <ele>12.973926</ele>
        <time>2020-07-15T14:28:18.424Z</time>
      </trkpt>
      <trkpt lat="68.12092" lon="13.36387">
        <ele>12.532124</ele>
        <time>2020-07-15T14:28:31.192Z</time>
      </trkpt>
      <trkpt lat="68.12205" lon="13.36684">
        <ele>12.014387</ele>
        <time>2020-07-15T14:28:57.118Z</time>
      </trkpt>
      <trkpt lat="68.12247" lon="13.36826">
        <ele>11.881574</ele>
        <time>2020-07-15T14:29:09.239Z</time>
      </trkpt>
      <trkpt lat="68.12428" lon="13.37725">
        <ele>13.938582</ele>
        <time>2020-07-15T14:30:23.691Z</time>
      </trkpt>
      <trkpt lat="68.12437" lon="13.37761">
        <ele>14.232281</ele>
        <time>2020-07-15T14:30:27.100Z</time>
      </trkpt>
      <trkpt lat="68.1245" lon="13.37809">
        <ele>14.630529</ele>
        <time>2020-07-15T14:30:31.915Z</time>
      </trkpt>
      <trkpt lat="68.12495" lon="13.37947">
        <ele>15.877331</ele>
        <time>2020-07-15T14:30:47.665Z</time>
      </trkpt>
      <trkpt lat="68.12535" lon="13.3804">
        <ele>16.85302</ele>
        <time>2020-07-15T14:31:00.755Z</time>
      </trkpt>
      <trkpt lat="68.12672" lon="13.38286">
        <ele>22.458961</ele>
        <time>2020-07-15T14:31:48.834Z</time>
      </trkpt>
      <trkpt lat="68.12674" lon="13.38288">
        <ele>22.504265</ele>
        <time>2020-07-15T14:31:49.869Z</time>
      </trkpt>
      <trkpt lat="68.12697" lon="13.38327">
        <ele>23.501628</ele>
        <time>2020-07-15T14:31:57.714Z</time>
      </trkpt>
      <trkpt lat="68.1282" lon="13.38458">
        <ele>29.236239</ele>
        <time>2020-07-15T14:32:40.096Z</time>
      </trkpt>
      <trkpt lat="68.12878" lon="13.38558">
        <ele>32.521436</ele>
        <time>2020-07-15T14:33:01.539Z</time>
      </trkpt>
      <trkpt lat="68.12882" lon="13.3857">
        <ele>32.882918</ele>
        <time>2020-07-15T14:33:04.331Z</time>
      </trkpt>
      <trkpt lat="68.1289" lon="13.38591">
        <ele>33.493664</ele>
        <time>2020-07-15T14:33:07.313Z</time>
      </trkpt>
      <trkpt lat="68.12898" lon="13.38614">
        <ele>34.145407</ele>
        <time>2020-07-15T14:33:10.715Z</time>
      </trkpt>
      <trkpt lat="68.12905" lon="13.3864">
        <ele>34.825563</ele>
        <time>2020-07-15T14:33:15.842Z</time>
      </trkpt>
      <trkpt lat="68.1293" lon="13.38775">
        <ele>37.983025</ele>
        <time>2020-07-15T14:33:35.728Z</time>
      </trkpt>
      <trkpt lat="68.12936" lon="13.38864">
        <ele>39.884909</ele>
        <time>2020-07-15T14:33:48.933Z</time>
      </trkpt>
      <trkpt lat="68.12935" lon="13.38958">
        <ele>41.931961</ele>
        <time>2020-07-15T14:34:02.800Z</time>
      </trkpt>
      <trkpt lat="68.1293" lon="13.3906">
        <ele>44.353101</ele>
        <time>2020-07-15T14:34:17.473Z</time>
      </trkpt>
      <trkpt lat="68.12924" lon="13.39206">
        <ele>47.797177</ele>
        <time>2020-07-15T14:34:40.278Z</time>
      </trkpt>
      <trkpt lat="68.12916" lon="13.39441">
        <ele>52.698185</ele>
        <time>2020-07-15T14:35:13.328Z</time>
      </trkpt>
      <trkpt lat="68.12917" lon="13.39489">
        <ele>52.635071</ele>
        <time>2020-07-15T14:35:19.361Z</time>
      </trkpt>
      <trkpt lat="68.12919" lon="13.3953">
        <ele>52.580516</ele>
        <time>2020-07-15T14:35:23.260Z</time>
      </trkpt>
      <trkpt lat="68.12923" lon="13.39603">
        <ele>52.483482</ele>
        <time>2020-07-15T14:35:30.670Z</time>
      </trkpt>
      <trkpt lat="68.12925" lon="13.39642">
        <ele>52.431751</ele>
        <time>2020-07-15T14:35:32.532Z</time>
      </trkpt>
      <trkpt lat="68.12925" lon="13.39656">
        <ele>52.413323</ele>
        <time>2020-07-15T14:35:33.623Z</time>
      </trkpt>
      <trkpt lat="68.12925" lon="13.39659">
        <ele>52.408841</ele>
        <time>2020-07-15T14:35:33.926Z</time>
      </trkpt>
      <trkpt lat="68.12924" lon="13.39685">
        <ele>52.375002</ele>
        <time>2020-07-15T14:35:36.195Z</time>
      </trkpt>
      <trkpt lat="68.12923" lon="13.39707">
        <ele>52.345081</ele>
        <time>2020-07-15T14:35:37.338Z</time>
      </trkpt>
      <trkpt lat="68.12907" lon="13.39909">
        <ele>51.561524</ele>
        <time>2020-07-15T14:35:47.155Z</time>
      </trkpt>
      <trkpt lat="68.12903" lon="13.39982">
        <ele>49.537941</ele>
        <time>2020-07-15T14:35:50.407Z</time>
      </trkpt>
      <trkpt lat="68.12902" lon="13.39995">
        <ele>49.174659</ele>
        <time>2020-07-15T14:35:50.927Z</time>
      </trkpt>
      <trkpt lat="68.12901" lon="13.40029">
        <ele>48.232574</ele>
        <time>2020-07-15T14:35:52.374Z</time>
      </trkpt>
      <trkpt lat="68.12904" lon="13.40108">
        <ele>46.031437</ele>
        <time>2020-07-15T14:35:55.716Z</time>
      </trkpt>
      <trkpt lat="68.12907" lon="13.40157">
        <ele>44.645401</ele>
        <time>2020-07-15T14:35:57.830Z</time>
      </trkpt>
      <trkpt lat="68.12909" lon="13.40175">
        <ele>44.154471</ele>
        <time>2020-07-15T14:35:58.558Z</time>
      </trkpt>
      <trkpt lat="68.12914" lon="13.40222">
        <ele>42.794075</ele>
        <time>2020-07-15T14:36:00.575Z</time>
      </trkpt>
      <trkpt lat="68.12921" lon="13.40281">
        <ele>41.078431</ele>
        <time>2020-07-15T14:36:03.129Z</time>
      </trkpt>
      <trkpt lat="68.12937" lon="13.40399">
        <ele>37.778632</ele>
        <time>2020-07-15T14:36:08.373Z</time>
      </trkpt>
      <trkpt lat="68.12951" lon="13.40512">
        <ele>35.022609</ele>
        <time>2020-07-15T14:36:13.506Z</time>
      </trkpt>
      <trkpt lat="68.12971" lon="13.40664">
        <ele>31.260935</ele>
        <time>2020-07-15T14:36:20.680Z</time>
      </trkpt>
      <trkpt lat="68.12987" lon="13.40756">
        <ele>28.898265</ele>
        <time>2020-07-15T14:36:25.200Z</time>
      </trkpt>
      <trkpt lat="68.13051" lon="13.4103">
        <ele>21.88689</ele>
        <time>2020-07-15T14:36:39.538Z</time>
      </trkpt>
      <trkpt lat="68.13058" lon="13.41068">
        <ele>20.976986</ele>
        <time>2020-07-15T14:36:41.468Z</time>
      </trkpt>
      <trkpt lat="68.13064" lon="13.41099">
        <ele>20.244759</ele>
        <time>2020-07-15T14:36:42.958Z</time>
      </trkpt>
      <trkpt lat="68.13092" lon="13.41327">
        <ele>15.252915</ele>
        <time>2020-07-15T14:36:53.585Z</time>
      </trkpt>
      <trkpt lat="68.13131" lon="13.41869">
        <ele>5.955462</ele>
        <time>2020-07-15T14:37:18.355Z</time>
      </trkpt>
      <trkpt lat="68.13134" lon="13.41914">
        <ele>5.505867</ele>
        <time>2020-07-15T14:37:20.594Z</time>
      </trkpt>
      <trkpt lat="68.13157" lon="13.42243">
        <ele>3.144143</ele>
        <time>2020-07-15T14:37:39.625Z</time>
      </trkpt>
      <trkpt lat="68.13162" lon="13.42246">
        <ele>3.1983</ele>
        <time>2020-07-15T14:37:40.823Z</time>
      </trkpt>
      <trkpt lat="68.13187" lon="13.42536">
        <ele>4.433372</ele>
        <time>2020-07-15T14:38:05.074Z</time>
      </trkpt>
      <trkpt lat="68.13205" lon="13.42681">
        <ele>5.211271</ele>
        <time>2020-07-15T14:38:20.033Z</time>
      </trkpt>
      <trkpt lat="68.13209" lon="13.42708">
        <ele>5.422249</ele>
        <time>2020-07-15T14:38:22.755Z</time>
      </trkpt>
      <trkpt lat="68.13223" lon="13.42793">
        <ele>6.09688</ele>
        <time>2020-07-15T14:38:31.492Z</time>
      </trkpt>
      <trkpt lat="68.13237" lon="13.42864">
        <ele>6.680016</ele>
        <time>2020-07-15T14:38:39.037Z</time>
      </trkpt>
      <trkpt lat="68.13245" lon="13.42898">
        <ele>6.969976</ele>
        <time>2020-07-15T14:38:42.873Z</time>
      </trkpt>
      <trkpt lat="68.13252" lon="13.42925">
        <ele>7.204267</ele>
        <time>2020-07-15T14:38:46.123Z</time>
      </trkpt>
      <trkpt lat="68.13304" lon="13.43107">
        <ele>8.306906</ele>
        <time>2020-07-15T14:39:04.469Z</time>
      </trkpt>
      <trkpt lat="68.13318" lon="13.43198">
        <ele>8.208461</ele>
        <time>2020-07-15T14:39:12.531Z</time>
      </trkpt>
      <trkpt lat="68.13325" lon="13.43283">
        <ele>8.120201</ele>
        <time>2020-07-15T14:39:18.976Z</time>
      </trkpt>
      <trkpt lat="68.13325" lon="13.43299">
        <ele>8.104589</ele>
        <time>2020-07-15T14:39:19.742Z</time>
      </trkpt>
      <trkpt lat="68.13328" lon="13.43394">
        <ele>8.008887</ele>
        <time>2020-07-15T14:39:25.039Z</time>
      </trkpt>
      <trkpt lat="68.13329" lon="13.43577">
        <ele>7.402863</ele>
        <time>2020-07-15T14:39:35.038Z</time>
      </trkpt>
      <trkpt lat="68.1334" lon="13.43671">
        <ele>6.670689</ele>
        <time>2020-07-15T14:39:40.133Z</time>
      </trkpt>
      <trkpt lat="68.13341" lon="13.43682">
        <ele>6.585408</ele>
        <time>2020-07-15T14:39:40.622Z</time>
      </trkpt>
      <trkpt lat="68.13345" lon="13.43708">
        <ele>6.383374</ele>
        <time>2020-07-15T14:39:42.077Z</time>
      </trkpt>
      <trkpt lat="68.13344" lon="13.43866">
        <ele>5.200969</ele>
        <time>2020-07-15T14:39:51.134Z</time>
      </trkpt>
      <trkpt lat="68.13344" lon="13.43869">
        <ele>5.176272</ele>
        <time>2020-07-15T14:39:51.272Z</time>
      </trkpt>
      <trkpt lat="68.13345" lon="13.43887">
        <ele>5.043018</ele>
        <time>2020-07-15T14:39:52.236Z</time>
      </trkpt>
      <trkpt lat="68.1335" lon="13.43928">
        <ele>4.720737</ele>
        <time>2020-07-15T14:39:54.701Z</time>
      </trkpt>
      <trkpt lat="68.13355" lon="13.43951">
        <ele>4.527316</ele>
        <time>2020-07-15T14:39:56.269Z</time>
      </trkpt>
      <trkpt lat="68.1336" lon="13.4397">
        <ele>4.353433</ele>
        <time>2020-07-15T14:39:57.385Z</time>
      </trkpt>
      <trkpt lat="68.13367" lon="13.43994">
        <ele>4.174243</ele>
        <time>2020-07-15T14:39:58.989Z</time>
      </trkpt>
      <trkpt lat="68.13395" lon="13.44079">
        <ele>3.564427</ele>
        <time>2020-07-15T14:40:05.368Z</time>
      </trkpt>
      <trkpt lat="68.13411" lon="13.44129">
        <ele>3.221085</ele>
        <time>2020-07-15T14:40:08.995Z</time>
      </trkpt>
      <trkpt lat="68.13425" lon="13.44193">
        <ele>2.82452</ele>
        <time>2020-07-15T14:40:13.372Z</time>
      </trkpt>
      <trkpt lat="68.13438" lon="13.44269">
        <ele>2.382618</ele>
        <time>2020-07-15T14:40:18.500Z</time>
      </trkpt>
      <trkpt lat="68.13445" lon="13.44306">
        <ele>2.163218</ele>
        <time>2020-07-15T14:40:20.840Z</time>
      </trkpt>
      <trkpt lat="68.13439" lon="13.44312">
        <ele>2.084467</ele>
        <time>2020-07-15T14:40:21.833Z</time>
      </trkpt>
      <trkpt lat="68.13437" lon="13.44314">
        <ele>2.046134</ele>
        <time>2020-07-15T14:40:22.316Z</time>
      </trkpt>
      <trkpt lat="68.13434" lon="13.44317">
        <ele>2.007802</ele>
        <time>2020-07-15T14:40:22.797Z</time>
      </trkpt>
      <trkpt lat="68.13447" lon="13.44385">
        <ele>1.69698</ele>
        <time>2020-07-15T14:40:27.267Z</time>
      </trkpt>
      <trkpt lat="68.13491" lon="13.44644">
        <ele>1.305556</ele>
        <time>2020-07-15T14:40:44.695Z</time>
      </trkpt>
      <trkpt lat="68.135" lon="13.44689">
        <ele>1.235292</ele>
        <time>2020-07-15T14:40:48.399Z</time>
      </trkpt>
      <trkpt lat="68.1351" lon="13.44734">
        <ele>1.164978</ele>
        <time>2020-07-15T14:40:51.627Z</time>
      </trkpt>
      <trkpt lat="68.13547" lon="13.44887">
        <ele>1.105024</ele>
        <time>2020-07-15T14:41:03.914Z</time>
      </trkpt>
      <trkpt lat="68.13584" lon="13.45012">
        <ele>1.161092</ele>
        <time>2020-07-15T14:41:14.772Z</time>
      </trkpt>
      <trkpt lat="68.13598" lon="13.45052">
        <ele>1.18018</ele>
        <time>2020-07-15T14:41:18.133Z</time>
      </trkpt>
      <trkpt lat="68.13618" lon="13.45107">
        <ele>1.206659</ele>
        <time>2020-07-15T14:41:23.243Z</time>
      </trkpt>
      <trkpt lat="68.13656" lon="13.45197">
        <ele>1.638656</ele>
        <time>2020-07-15T14:41:32.385Z</time>
      </trkpt>
      <trkpt lat="68.13698" lon="13.45274">
        <ele>2.624837</ele>
        <time>2020-07-15T14:41:43.446Z</time>
      </trkpt>
      <trkpt lat="68.13793" lon="13.45396">
        <ele>4.669574</ele>
        <time>2020-07-15T14:42:11.033Z</time>
      </trkpt>
      <trkpt lat="68.13805" lon="13.45409">
        <ele>5.006496</ele>
        <time>2020-07-15T14:42:14.584Z</time>
      </trkpt>
      <trkpt lat="68.13812" lon="13.45401">
        <ele>5.210074</ele>
        <time>2020-07-15T14:42:17.755Z</time>
      </trkpt>
      <trkpt lat="68.13896" lon="13.45485">
        <ele>7.628675</ele>
        <time>2020-07-15T14:42:42.247Z</time>
      </trkpt>
      <trkpt lat="68.13919" lon="13.45506">
        <ele>8.283235</ele>
        <time>2020-07-15T14:42:49.714Z</time>
      </trkpt>
      <trkpt lat="68.1394" lon="13.45524">
        <ele>8.87853</ele>
        <time>2020-07-15T14:42:54.512Z</time>
      </trkpt>
      <trkpt lat="68.13986" lon="13.45548">
        <ele>9.539619</ele>
        <time>2020-07-15T14:43:05.954Z</time>
      </trkpt>
      <trkpt lat="68.14022" lon="13.45551">
        <ele>9.423586</ele>
        <time>2020-07-15T14:43:13.243Z</time>
      </trkpt>
      <trkpt lat="68.14064" lon="13.45537">
        <ele>9.290188</ele>
        <time>2020-07-15T14:43:20.734Z</time>
      </trkpt>
      <trkpt lat="68.1407" lon="13.45548">
        <ele>9.266957</ele>
        <time>2020-07-15T14:43:21.925Z</time>
      </trkpt>
      <trkpt lat="68.14071" lon="13.45555">
        <ele>9.258528</ele>
        <time>2020-07-15T14:43:22.257Z</time>
      </trkpt>
      <trkpt lat="68.14083" lon="13.45549">
        <ele>9.219749</ele>
        <time>2020-07-15T14:43:24.156Z</time>
      </trkpt>
      <trkpt lat="68.1409" lon="13.45548">
        <ele>9.198292</ele>
        <time>2020-07-15T14:43:25.159Z</time>
      </trkpt>
      <trkpt lat="68.14096" lon="13.45546">
        <ele>9.178807</ele>
        <time>2020-07-15T14:43:26.059Z</time>
      </trkpt>
      <trkpt lat="68.1418" lon="13.45503">
        <ele>8.116</ele>
        <time>2020-07-15T14:43:38.157Z</time>
      </trkpt>
      <trkpt lat="68.1427" lon="13.45478">
        <ele>6.06754</ele>
        <time>2020-07-15T14:43:50.538Z</time>
      </trkpt>
      <trkpt lat="68.14358" lon="13.45503">
        <ele>4.205139</ele>
        <time>2020-07-15T14:44:02.673Z</time>
      </trkpt>
      <trkpt lat="68.14438" lon="13.45605">
        <ele>2.50667</ele>
        <time>2020-07-15T14:44:15.159Z</time>
      </trkpt>
      <trkpt lat="68.14508" lon="13.45759">
        <ele>1.297447</ele>
        <time>2020-07-15T14:44:28.643Z</time>
      </trkpt>
      <trkpt lat="68.14673" lon="13.46326">
        <ele>0.381118</ele>
        <time>2020-07-15T14:45:14.277Z</time>
      </trkpt>
      <trkpt lat="68.14713" lon="13.46459">
        <ele>0.425351</ele>
        <time>2020-07-15T14:45:25.948Z</time>
      </trkpt>
      <trkpt lat="68.14978" lon="13.47336">
        <ele>5.29398</ele>
        <time>2020-07-15T14:46:53.757Z</time>
      </trkpt>
      <trkpt lat="68.14996" lon="13.47422">
        <ele>6.193255</ele>
        <time>2020-07-15T14:47:03.969Z</time>
      </trkpt>
      <trkpt lat="68.15012" lon="13.4765">
        <ele>8.290145</ele>
        <time>2020-07-15T14:47:29.592Z</time>
      </trkpt>
      <trkpt lat="68.15004" lon="13.47871">
        <ele>10.191861</ele>
        <time>2020-07-15T14:47:53.761Z</time>
      </trkpt>
      <trkpt lat="68.14989" lon="13.47987">
        <ele>11.243678</ele>
        <time>2020-07-15T14:48:04.378Z</time>
      </trkpt>
      <trkpt lat="68.14966" lon="13.48073">
        <ele>12.072049</ele>
        <time>2020-07-15T14:48:12.012Z</time>
      </trkpt>
      <trkpt lat="68.14927" lon="13.48189">
        <ele>11.581231</ele>
        <time>2020-07-15T14:48:21.695Z</time>
      </trkpt>
      <trkpt lat="68.14891" lon="13.48282">
        <ele>11.155651</ele>
        <time>2020-07-15T14:48:29.155Z</time>
      </trkpt>
      <trkpt lat="68.14847" lon="13.48381">
        <ele>10.671696</ele>
        <time>2020-07-15T14:48:37.719Z</time>
      </trkpt>
      <trkpt lat="68.148" lon="13.48506">
        <ele>10.541732</ele>
        <time>2020-07-15T14:48:47.721Z</time>
      </trkpt>
      <trkpt lat="68.14786" lon="13.48556">
        <ele>10.528226</ele>
        <time>2020-07-15T14:48:51.637Z</time>
      </trkpt>
      <trkpt lat="68.14778" lon="13.48587">
        <ele>10.520281</ele>
        <time>2020-07-15T14:48:54.593Z</time>
      </trkpt>
      <trkpt lat="68.14756" lon="13.48714">
        <ele>10.49016</ele>
        <time>2020-07-15T14:49:05.058Z</time>
      </trkpt>
      <trkpt lat="68.14747" lon="13.48822">
        <ele>10.444776</ele>
        <time>2020-07-15T14:49:13.195Z</time>
      </trkpt>
      <trkpt lat="68.14746" lon="13.48846">
        <ele>10.402688</ele>
        <time>2020-07-15T14:49:15.060Z</time>
      </trkpt>
      <trkpt lat="68.14745" lon="13.48898">
        <ele>10.312526</ele>
        <time>2020-07-15T14:49:18.969Z</time>
      </trkpt>
      <trkpt lat="68.14749" lon="13.49009">
        <ele>10.118285</ele>
        <time>2020-07-15T14:49:26.859Z</time>
      </trkpt>
      <trkpt lat="68.14776" lon="13.49429">
        <ele>8.809998</ele>
        <time>2020-07-15T14:49:51.025Z</time>
      </trkpt>
      <trkpt lat="68.148" lon="13.49966">
        <ele>7.990936</ele>
        <time>2020-07-15T14:50:20.182Z</time>
      </trkpt>
      <trkpt lat="68.14827" lon="13.50156">
        <ele>9.086605</ele>
        <time>2020-07-15T14:50:41.321Z</time>
      </trkpt>
      <trkpt lat="68.14873" lon="13.50333">
        <ele>11.400696</ele>
        <time>2020-07-15T14:51:07.725Z</time>
      </trkpt>
      <trkpt lat="68.14921" lon="13.50495">
        <ele>14.232281</ele>
        <time>2020-07-15T14:51:31.748Z</time>
      </trkpt>
      <trkpt lat="68.14953" lon="13.50602">
        <ele>16.130467</ele>
        <time>2020-07-15T14:51:45.555Z</time>
      </trkpt>
      <trkpt lat="68.14983" lon="13.50693">
        <ele>16.432899</ele>
        <time>2020-07-15T14:51:56.814Z</time>
      </trkpt>
      <trkpt lat="68.14999" lon="13.50739">
        <ele>16.590197</ele>
        <time>2020-07-15T14:52:01.480Z</time>
      </trkpt>
      <trkpt lat="68.15051" lon="13.50861">
        <ele>17.054951</ele>
        <time>2020-07-15T14:52:12.536Z</time>
      </trkpt>
      <trkpt lat="68.15131" lon="13.50988">
        <ele>17.659323</ele>
        <time>2020-07-15T14:52:30.389Z</time>
      </trkpt>
      <trkpt lat="68.15196" lon="13.51054">
        <ele>18.109533</ele>
        <time>2020-07-15T14:52:45.340Z</time>
      </trkpt>
      <trkpt lat="68.15283" lon="13.51116">
        <ele>18.48351</ele>
        <time>2020-07-15T14:53:02.759Z</time>
      </trkpt>
      <trkpt lat="68.15308" lon="13.5114">
        <ele>18.476147</ele>
        <time>2020-07-15T14:53:08.062Z</time>
      </trkpt>
      <trkpt lat="68.1533" lon="13.51165">
        <ele>18.469642</ele>
        <time>2020-07-15T14:53:12.179Z</time>
      </trkpt>
      <trkpt lat="68.15373" lon="13.51233">
        <ele>18.455988</ele>
        <time>2020-07-15T14:53:21.232Z</time>
      </trkpt>
      <trkpt lat="68.15407" lon="13.51312">
        <ele>18.443521</ele>
        <time>2020-07-15T14:53:28.526Z</time>
      </trkpt>
      <trkpt lat="68.1543" lon="13.51375">
        <ele>18.134835</ele>
        <time>2020-07-15T14:53:33.695Z</time>
      </trkpt>
      <trkpt lat="68.15436" lon="13.51391">
        <ele>18.044311</ele>
        <time>2020-07-15T14:53:34.983Z</time>
      </trkpt>
      <trkpt lat="68.15574" lon="13.51827">
        <ele>15.041178</ele>
        <time>2020-07-15T14:54:07.403Z</time>
      </trkpt>
      <trkpt lat="68.15627" lon="13.5201">
        <ele>13.227299</ele>
        <time>2020-07-15T14:54:19.226Z</time>
      </trkpt>
      <trkpt lat="68.15659" lon="13.52186">
        <ele>10.92032</ele>
        <time>2020-07-15T14:54:28.811Z</time>
      </trkpt>
      <trkpt lat="68.15674" lon="13.52351">
        <ele>8.611756</ele>
        <time>2020-07-15T14:54:36.765Z</time>
      </trkpt>
      <trkpt lat="68.15675" lon="13.52533">
        <ele>6.137568</ele>
        <time>2020-07-15T14:54:45.282Z</time>
      </trkpt>
      <trkpt lat="68.15673" lon="13.52588">
        <ele>5.561445</ele>
        <time>2020-07-15T14:54:47.887Z</time>
      </trkpt>
      <trkpt lat="68.15668" lon="13.52644">
        <ele>4.967708</ele>
        <time>2020-07-15T14:54:50.637Z</time>
      </trkpt>
      <trkpt lat="68.15663" lon="13.52694">
        <ele>4.4274</ele>
        <time>2020-07-15T14:54:53.159Z</time>
      </trkpt>
      <trkpt lat="68.15661" lon="13.52713">
        <ele>4.221844</ele>
        <time>2020-07-15T14:54:54.105Z</time>
      </trkpt>
      <trkpt lat="68.15658" lon="13.52736">
        <ele>3.966418</ele>
        <time>2020-07-15T14:54:55.326Z</time>
      </trkpt>
      <trkpt lat="68.15649" lon="13.52796">
        <ele>3.296236</ele>
        <time>2020-07-15T14:54:58.504Z</time>
      </trkpt>
      <trkpt lat="68.15648" lon="13.52805">
        <ele>3.195651</ele>
        <time>2020-07-15T14:54:59.001Z</time>
      </trkpt>
      <trkpt lat="68.15638" lon="13.52857">
        <ele>2.588999</ele>
        <time>2020-07-15T14:55:01.935Z</time>
      </trkpt>
      <trkpt lat="68.15632" lon="13.52883">
        <ele>2.271301</ele>
        <time>2020-07-15T14:55:03.488Z</time>
      </trkpt>
      <trkpt lat="68.1562" lon="13.52935">
        <ele>1.631668</ele>
        <time>2020-07-15T14:55:06.673Z</time>
      </trkpt>
      <trkpt lat="68.15613" lon="13.5296">
        <ele>1.300701</ele>
        <time>2020-07-15T14:55:08.332Z</time>
      </trkpt>
      <trkpt lat="68.15598" lon="13.5301">
        <ele>1.023247</ele>
        <time>2020-07-15T14:55:12.009Z</time>
      </trkpt>
      <trkpt lat="68.15588" lon="13.53039">
        <ele>0.942845</ele>
        <time>2020-07-15T14:55:14.199Z</time>
      </trkpt>
      <trkpt lat="68.15578" lon="13.53065">
        <ele>0.869389</ele>
        <time>2020-07-15T14:55:16.403Z</time>
      </trkpt>
      <trkpt lat="68.15567" lon="13.53095">
        <ele>0.781721</ele>
        <time>2020-07-15T14:55:18.940Z</time>
      </trkpt>
      <trkpt lat="68.15523" lon="13.532">
        <ele>0.462055</ele>
        <time>2020-07-15T14:55:28.879Z</time>
      </trkpt>
      <trkpt lat="68.15519" lon="13.53209">
        <ele>0.437227</ele>
        <time>2020-07-15T14:55:29.693Z</time>
      </trkpt>
      <trkpt lat="68.15462" lon="13.5334">
        <ele>0.308901</ele>
        <time>2020-07-15T14:55:43.275Z</time>
      </trkpt>
      <trkpt lat="68.15457" lon="13.53354">
        <ele>0.369082</ele>
        <time>2020-07-15T14:55:44.648Z</time>
      </trkpt>
      <trkpt lat="68.15365" lon="13.53565">
        <ele>1.359648</ele>
        <time>2020-07-15T14:56:08.813Z</time>
      </trkpt>
      <trkpt lat="68.15151" lon="13.5406">
        <ele>6.410119</ele>
        <time>2020-07-15T14:57:16.657Z</time>
      </trkpt>
      <trkpt lat="68.15104" lon="13.54166">
        <ele>7.661238</ele>
        <time>2020-07-15T14:57:31.906Z</time>
      </trkpt>
      <trkpt lat="68.15086" lon="13.54206">
        <ele>8.139824</ele>
        <time>2020-07-15T14:57:37.793Z</time>
      </trkpt>
      <trkpt lat="68.15064" lon="13.54253">
        <ele>8.692039</ele>
        <time>2020-07-15T14:57:44.698Z</time>
      </trkpt>
      <trkpt lat="68.14988" lon="13.5439">
        <ele>9.835863</ele>
        <time>2020-07-15T14:58:05.953Z</time>
      </trkpt>
      <trkpt lat="68.14901" lon="13.54496">
        <ele>10.840251</ele>
        <time>2020-07-15T14:58:25.404Z</time>
      </trkpt>
      <trkpt lat="68.14836" lon="13.54545">
        <ele>10.570622</ele>
        <time>2020-07-15T14:58:37.206Z</time>
      </trkpt>
      <trkpt lat="68.14748" lon="13.5458">
        <ele>10.212098</ele>
        <time>2020-07-15T14:58:51.589Z</time>
      </trkpt>
      <trkpt lat="68.14633" lon="13.5461">
        <ele>8.748574</ele>
        <time>2020-07-15T14:59:08.589Z</time>
      </trkpt>
      <trkpt lat="68.14603" lon="13.54618">
        <ele>8.334681</ele>
        <time>2020-07-15T14:59:13.037Z</time>
      </trkpt>
      <trkpt lat="68.14582" lon="13.54624">
        <ele>8.052302</ele>
        <time>2020-07-15T14:59:16.065Z</time>
      </trkpt>
      <trkpt lat="68.14559" lon="13.5463">
        <ele>7.732922</ele>
        <time>2020-07-15T14:59:19.545Z</time>
      </trkpt>
      <trkpt lat="68.14506" lon="13.54645">
        <ele>7.848721</ele>
        <time>2020-07-15T14:59:27.789Z</time>
      </trkpt>
      <trkpt lat="68.14403" lon="13.54692">
        <ele>8.13204</ele>
        <time>2020-07-15T14:59:47.902Z</time>
      </trkpt>
      <trkpt lat="68.1439" lon="13.54701">
        <ele>8.167079</ele>
        <time>2020-07-15T14:59:50.764Z</time>
      </trkpt>
      <trkpt lat="68.14365" lon="13.54722">
        <ele>8.605471</ele>
        <time>2020-07-15T14:59:56.962Z</time>
      </trkpt>
      <trkpt lat="68.14347" lon="13.5474">
        <ele>9.139685</ele>
        <time>2020-07-15T15:00:01.859Z</time>
      </trkpt>
      <trkpt lat="68.14342" lon="13.54744">
        <ele>9.262577</ele>
        <time>2020-07-15T15:00:03.381Z</time>
      </trkpt>
      <trkpt lat="68.14264" lon="13.54843">
        <ele>11.597857</ele>
        <time>2020-07-15T15:00:26.964Z</time>
      </trkpt>
      <trkpt lat="68.14223" lon="13.54902">
        <ele>12.838648</ele>
        <time>2020-07-15T15:00:40.440Z</time>
      </trkpt>
      <trkpt lat="68.14206" lon="13.54928">
        <ele>13.303916</ele>
        <time>2020-07-15T15:00:46.438Z</time>
      </trkpt>
      <trkpt lat="68.1406" lon="13.55145">
        <ele>16.949547</ele>
        <time>2020-07-15T15:01:28.372Z</time>
      </trkpt>
      <trkpt lat="68.14058" lon="13.55148">
        <ele>16.949525</ele>
        <time>2020-07-15T15:01:28.866Z</time>
      </trkpt>
      <trkpt lat="68.1404" lon="13.55176">
        <ele>16.713428</ele>
        <time>2020-07-15T15:01:32.721Z</time>
      </trkpt>
      <trkpt lat="68.14031" lon="13.55189">
        <ele>16.601284</ele>
        <time>2020-07-15T15:01:34.476Z</time>
      </trkpt>
      <trkpt lat="68.14012" lon="13.55216">
        <ele>16.366966</ele>
        <time>2020-07-15T15:01:37.955Z</time>
      </trkpt>
      <trkpt lat="68.14005" lon="13.55227">
        <ele>16.273906</ele>
        <time>2020-07-15T15:01:39.279Z</time>
      </trkpt>
      <trkpt lat="68.13984" lon="13.55258">
        <ele>16.008492</ele>
        <time>2020-07-15T15:01:42.949Z</time>
      </trkpt>
      <trkpt lat="68.13936" lon="13.55329">
        <ele>15.396212</ele>
        <time>2020-07-15T15:01:50.811Z</time>
      </trkpt>
      <trkpt lat="68.13809" lon="13.55518">
        <ele>12.328986</ele>
        <time>2020-07-15T15:02:10.297Z</time>
      </trkpt>
      <trkpt lat="68.13746" lon="13.55636">
        <ele>10.462951</ele>
        <time>2020-07-15T15:02:20.961Z</time>
      </trkpt>
      <trkpt lat="68.13736" lon="13.55664">
        <ele>10.24182</ele>
        <time>2020-07-15T15:02:22.947Z</time>
      </trkpt>
      <trkpt lat="68.13721" lon="13.5571">
        <ele>9.893482</ele>
        <time>2020-07-15T15:02:26.113Z</time>
      </trkpt>
      <trkpt lat="68.13675" lon="13.55895">
        <ele>8.6221</ele>
        <time>2020-07-15T15:02:38.047Z</time>
      </trkpt>
      <trkpt lat="68.13672" lon="13.5591">
        <ele>8.515001</ele>
        <time>2020-07-15T15:02:39.035Z</time>
      </trkpt>
      <trkpt lat="68.13666" lon="13.55934">
        <ele>8.350927</ele>
        <time>2020-07-15T15:02:40.760Z</time>
      </trkpt>
      <trkpt lat="68.13661" lon="13.55948">
        <ele>8.246206</ele>
        <time>2020-07-15T15:02:41.823Z</time>
      </trkpt>
      <trkpt lat="68.13645" lon="13.56006">
        <ele>7.83477</ele>
        <time>2020-07-15T15:02:45.999Z</time>
      </trkpt>
      <trkpt lat="68.13642" lon="13.56017">
        <ele>7.752483</ele>
        <time>2020-07-15T15:02:46.846Z</time>
      </trkpt>
      <trkpt lat="68.13632" lon="13.56047">
        <ele>7.753814</ele>
        <time>2020-07-15T15:02:49.353Z</time>
      </trkpt>
      <trkpt lat="68.1363" lon="13.56054">
        <ele>7.754812</ele>
        <time>2020-07-15T15:02:49.854Z</time>
      </trkpt>
      <trkpt lat="68.13634" lon="13.56066">
        <ele>7.756636</ele>
        <time>2020-07-15T15:02:51.194Z</time>
      </trkpt>
      <trkpt lat="68.1364" lon="13.56086">
        <ele>7.759554</ele>
        <time>2020-07-15T15:02:53.488Z</time>
      </trkpt>
      <trkpt lat="68.13652" lon="13.56148">
        <ele>7.767409</ele>
        <time>2020-07-15T15:02:58.172Z</time>
      </trkpt>
      <trkpt lat="68.13662" lon="13.56223">
        <ele>7.776249</ele>
        <time>2020-07-15T15:03:03.649Z</time>
      </trkpt>
      <trkpt lat="68.13665" lon="13.5626">
        <ele>7.780424</ele>
        <time>2020-07-15T15:03:06.274Z</time>
      </trkpt>
      <trkpt lat="68.13669" lon="13.56305">
        <ele>7.78564</ele>
        <time>2020-07-15T15:03:09.643Z</time>
      </trkpt>
      <trkpt lat="68.13705" lon="13.56706">
        <ele>8.140076</ele>
        <time>2020-07-15T15:03:41.423Z</time>
      </trkpt>
      <trkpt lat="68.13708" lon="13.56731">
        <ele>8.174657</ele>
        <time>2020-07-15T15:03:43.452Z</time>
      </trkpt>
      <trkpt lat="68.13711" lon="13.56758">
        <ele>8.212602</ele>
        <time>2020-07-15T15:03:45.502Z</time>
      </trkpt>
      <trkpt lat="68.13728" lon="13.57023">
        <ele>8.249025</ele>
        <time>2020-07-15T15:04:03.945Z</time>
      </trkpt>
      <trkpt lat="68.1373" lon="13.57051">
        <ele>8.188924</ele>
        <time>2020-07-15T15:04:05.842Z</time>
      </trkpt>
      <trkpt lat="68.13731" lon="13.57072">
        <ele>8.144005</ele>
        <time>2020-07-15T15:04:07.089Z</time>
      </trkpt>
      <trkpt lat="68.13741" lon="13.57186">
        <ele>7.89623</ele>
        <time>2020-07-15T15:04:14.454Z</time>
      </trkpt>
      <trkpt lat="68.13749" lon="13.57234">
        <ele>7.783665</ele>
        <time>2020-07-15T15:04:17.872Z</time>
      </trkpt>
      <trkpt lat="68.13775" lon="13.57319">
        <ele>7.555467</ele>
        <time>2020-07-15T15:04:24.456Z</time>
      </trkpt>
      <trkpt lat="68.13781" lon="13.57336">
        <ele>7.502842</ele>
        <time>2020-07-15T15:04:25.878Z</time>
      </trkpt>
      <trkpt lat="68.13832" lon="13.57474">
        <ele>7.337363</ele>
        <time>2020-07-15T15:04:37.945Z</time>
      </trkpt>
      <trkpt lat="68.13881" lon="13.57605">
        <ele>7.232947</ele>
        <time>2020-07-15T15:04:50.612Z</time>
      </trkpt>
      <trkpt lat="68.13926" lon="13.57724">
        <ele>7.260704</ele>
        <time>2020-07-15T15:05:03.268Z</time>
      </trkpt>
      <trkpt lat="68.13992" lon="13.57902">
        <ele>8.129715</ele>
        <time>2020-07-15T15:05:23.449Z</time>
      </trkpt>
      <trkpt lat="68.14025" lon="13.57992">
        <ele>8.566193</ele>
        <time>2020-07-15T15:05:33.931Z</time>
      </trkpt>
      <trkpt lat="68.1407" lon="13.5811">
        <ele>9.02483</ele>
        <time>2020-07-15T15:05:47.803Z</time>
      </trkpt>
      <trkpt lat="68.14071" lon="13.58112">
        <ele>9.02957</ele>
        <time>2020-07-15T15:05:47.998Z</time>
      </trkpt>
      <trkpt lat="68.14077" lon="13.58129">
        <ele>9.079241</ele>
        <time>2020-07-15T15:05:49.858Z</time>
      </trkpt>
      <trkpt lat="68.14081" lon="13.58139">
        <ele>9.109507</ele>
        <time>2020-07-15T15:05:51.014Z</time>
      </trkpt>
      <trkpt lat="68.14109" lon="13.58216">
        <ele>9.334651</ele>
        <time>2020-07-15T15:05:59.269Z</time>
      </trkpt>
      <trkpt lat="68.14134" lon="13.58286">
        <ele>9.539155</ele>
        <time>2020-07-15T15:06:06.545Z</time>
      </trkpt>
      <trkpt lat="68.14145" lon="13.58314">
        <ele>9.621908</ele>
        <time>2020-07-15T15:06:09.429Z</time>
      </trkpt>
      <trkpt lat="68.1417" lon="13.58384">
        <ele>9.824993</ele>
        <time>2020-07-15T15:06:16.475Z</time>
      </trkpt>
      <trkpt lat="68.14182" lon="13.58417">
        <ele>9.825542</ele>
        <time>2020-07-15T15:06:19.733Z</time>
      </trkpt>
      <trkpt lat="68.14203" lon="13.58502">
        <ele>9.79046</ele>
        <time>2020-07-15T15:06:26.878Z</time>
      </trkpt>
      <trkpt lat="68.14209" lon="13.58541">
        <ele>9.776222</ele>
        <time>2020-07-15T15:06:29.697Z</time>
      </trkpt>
      <trkpt lat="68.14229" lon="13.58678">
        <ele>9.725831</ele>
        <time>2020-07-15T15:06:39.553Z</time>
      </trkpt>
      <trkpt lat="68.14262" lon="13.58909">
        <ele>9.628802</ele>
        <time>2020-07-15T15:06:56.008Z</time>
      </trkpt>
      <trkpt lat="68.14292" lon="13.59116">
        <ele>9.523809</ele>
        <time>2020-07-15T15:07:10.945Z</time>
      </trkpt>
      <trkpt lat="68.14307" lon="13.59223">
        <ele>9.46981</ele>
        <time>2020-07-15T15:07:18.767Z</time>
      </trkpt>
      <trkpt lat="68.14303" lon="13.59233">
        <ele>9.463559</ele>
        <time>2020-07-15T15:07:19.728Z</time>
      </trkpt>
      <trkpt lat="68.14359" lon="13.5961">
        <ele>9.583949</ele>
        <time>2020-07-15T15:07:48.459Z</time>
      </trkpt>
      <trkpt lat="68.14433" lon="13.59923">
        <ele>9.703801</ele>
        <time>2020-07-15T15:08:14.433Z</time>
      </trkpt>
      <trkpt lat="68.14438" lon="13.59947">
        <ele>9.712341</ele>
        <time>2020-07-15T15:08:16.425Z</time>
      </trkpt>
      <trkpt lat="68.14442" lon="13.59964">
        <ele>9.71853</ele>
        <time>2020-07-15T15:08:17.893Z</time>
      </trkpt>
      <trkpt lat="68.14473" lon="13.60089">
        <ele>9.763243</ele>
        <time>2020-07-15T15:08:28.378Z</time>
      </trkpt>
      <trkpt lat="68.14496" lon="13.60185">
        <ele>9.801396</ele>
        <time>2020-07-15T15:08:36.342Z</time>
      </trkpt>
      <trkpt lat="68.14499" lon="13.60178">
        <ele>9.805095</ele>
        <time>2020-07-15T15:08:37.110Z</time>
      </trkpt>
      <trkpt lat="68.14508" lon="13.60212">
        <ele>9.819645</ele>
        <time>2020-07-15T15:08:40.002Z</time>
      </trkpt>
      <trkpt lat="68.14522" lon="13.60266">
        <ele>9.842659</ele>
        <time>2020-07-15T15:08:44.623Z</time>
      </trkpt>
      <trkpt lat="68.14526" lon="13.6026">
        <ele>9.846902</ele>
        <time>2020-07-15T15:08:45.477Z</time>
      </trkpt>
      <trkpt lat="68.1455" lon="13.60365">
        <ele>9.890097</ele>
        <time>2020-07-15T15:08:53.766Z</time>
      </trkpt>
      <trkpt lat="68.14554" lon="13.60382">
        <ele>9.897541</ele>
        <time>2020-07-15T15:08:55.194Z</time>
      </trkpt>
      <trkpt lat="68.14566" lon="13.60429">
        <ele>9.917082</ele>
        <time>2020-07-15T15:08:58.959Z</time>
      </trkpt>
      <trkpt lat="68.14595" lon="13.60555">
        <ele>9.951181</ele>
        <time>2020-07-15T15:09:09.041Z</time>
      </trkpt>
      <trkpt lat="68.14642" lon="13.60724">
        <ele>9.976632</ele>
        <time>2020-07-15T15:09:23.206Z</time>
      </trkpt>
      <trkpt lat="68.14644" lon="13.60731">
        <ele>9.977633</ele>
        <time>2020-07-15T15:09:23.753Z</time>
      </trkpt>
      <trkpt lat="68.14646" lon="13.60739">
        <ele>9.978768</ele>
        <time>2020-07-15T15:09:24.376Z</time>
      </trkpt>
      <trkpt lat="68.14656" lon="13.60777">
        <ele>9.984345</ele>
        <time>2020-07-15T15:09:27.455Z</time>
      </trkpt>
      <trkpt lat="68.1466" lon="13.6079">
        <ele>9.986407</ele>
        <time>2020-07-15T15:09:28.582Z</time>
      </trkpt>
      <trkpt lat="68.14664" lon="13.60804">
        <ele>9.98845</ele>
        <time>2020-07-15T15:09:29.707Z</time>
      </trkpt>
      <trkpt lat="68.14658" lon="13.60813">
        <ele>9.990455</ele>
        <time>2020-07-15T15:09:30.858Z</time>
      </trkpt>
      <trkpt lat="68.14665" lon="13.60837">
        <ele>9.994074</ele>
        <time>2020-07-15T15:09:32.937Z</time>
      </trkpt>
      <trkpt lat="68.1468" lon="13.60891">
        <ele>10.013814</ele>
        <time>2020-07-15T15:09:37.566Z</time>
      </trkpt>
      <trkpt lat="68.14676" lon="13.60899">
        <ele>10.024843</ele>
        <time>2020-07-15T15:09:38.803Z</time>
      </trkpt>
      <trkpt lat="68.1469" lon="13.60951">
        <ele>10.074565</ele>
        <time>2020-07-15T15:09:43.213Z</time>
      </trkpt>
      <trkpt lat="68.14692" lon="13.6096">
        <ele>10.083208</ele>
        <time>2020-07-15T15:09:43.986Z</time>
      </trkpt>
      <trkpt lat="68.1472" lon="13.61064">
        <ele>10.183783</ele>
        <time>2020-07-15T15:09:52.966Z</time>
      </trkpt>
      <trkpt lat="68.14723" lon="13.61077">
        <ele>10.196018</ele>
        <time>2020-07-15T15:09:54.110Z</time>
      </trkpt>
      <trkpt lat="68.14734" lon="13.61128">
        <ele>10.241517</ele>
        <time>2020-07-15T15:09:58.318Z</time>
      </trkpt>
      <trkpt lat="68.14734" lon="13.61139">
        <ele>10.249792</ele>
        <time>2020-07-15T15:09:59.113Z</time>
      </trkpt>
      <trkpt lat="68.14727" lon="13.61167">
        <ele>10.276023</ele>
        <time>2020-07-15T15:10:01.547Z</time>
      </trkpt>
      <trkpt lat="68.14699" lon="13.61295">
        <ele>10.394388</ele>
        <time>2020-07-15T15:10:12.767Z</time>
      </trkpt>
      <trkpt lat="68.14693" lon="13.61324">
        <ele>10.423934</ele>
        <time>2020-07-15T15:10:15.214Z</time>
      </trkpt>
      <trkpt lat="68.14692" lon="13.61327">
        <ele>10.427333</ele>
        <time>2020-07-15T15:10:15.544Z</time>
      </trkpt>
      <trkpt lat="68.14668" lon="13.61431">
        <ele>10.536957</ele>
        <time>2020-07-15T15:10:24.526Z</time>
      </trkpt>
      <trkpt lat="68.14666" lon="13.6144">
        <ele>10.546338</ele>
        <time>2020-07-15T15:10:25.336Z</time>
      </trkpt>
      <trkpt lat="68.14669" lon="13.61445">
        <ele>10.556088</ele>
        <time>2020-07-15T15:10:26.079Z</time>
      </trkpt>
      <trkpt lat="68.14666" lon="13.6146">
        <ele>10.571782</ele>
        <time>2020-07-15T15:10:27.512Z</time>
      </trkpt>
      <trkpt lat="68.1464" lon="13.61577">
        <ele>10.692791</ele>
        <time>2020-07-15T15:10:37.120Z</time>
      </trkpt>
      <trkpt lat="68.14628" lon="13.61628">
        <ele>10.746691</ele>
        <time>2020-07-15T15:10:41.477Z</time>
      </trkpt>
      <trkpt lat="68.14621" lon="13.61658">
        <ele>10.778609</ele>
        <time>2020-07-15T15:10:43.849Z</time>
      </trkpt>
      <trkpt lat="68.1461" lon="13.61692">
        <ele>10.794901</ele>
        <time>2020-07-15T15:10:46.971Z</time>
      </trkpt>
      <trkpt lat="68.14604" lon="13.61709">
        <ele>10.763907</ele>
        <time>2020-07-15T15:10:48.629Z</time>
      </trkpt>
      <trkpt lat="68.14599" lon="13.61727">
        <ele>10.733073</ele>
        <time>2020-07-15T15:10:50.085Z</time>
      </trkpt>
      <trkpt lat="68.14595" lon="13.61729">
        <ele>10.717004</ele>
        <time>2020-07-15T15:10:50.817Z</time>
      </trkpt>
      <trkpt lat="68.14592" lon="13.61734">
        <ele>10.706223</ele>
        <time>2020-07-15T15:10:51.313Z</time>
      </trkpt>
      <trkpt lat="68.1459" lon="13.61739">
        <ele>10.695381</ele>
        <time>2020-07-15T15:10:51.853Z</time>
      </trkpt>
      <trkpt lat="68.14588" lon="13.61754">
        <ele>10.674095</ele>
        <time>2020-07-15T15:10:52.893Z</time>
      </trkpt>
      <trkpt lat="68.14588" lon="13.61764">
        <ele>10.660706</ele>
        <time>2020-07-15T15:10:53.585Z</time>
      </trkpt>
      <trkpt lat="68.14589" lon="13.61773">
        <ele>10.647399</ele>
        <time>2020-07-15T15:10:54.323Z</time>
      </trkpt>
      <trkpt lat="68.14588" lon="13.61783">
        <ele>10.633393</ele>
        <time>2020-07-15T15:10:54.960Z</time>
      </trkpt>
      <trkpt lat="68.14581" lon="13.61817">
        <ele>10.582169</ele>
        <time>2020-07-15T15:10:57.235Z</time>
      </trkpt>
      <trkpt lat="68.14578" lon="13.61835">
        <ele>10.554641</ele>
        <time>2020-07-15T15:10:58.538Z</time>
      </trkpt>
      <trkpt lat="68.14573" lon="13.61869">
        <ele>10.505228</ele>
        <time>2020-07-15T15:11:00.847Z</time>
      </trkpt>
      <trkpt lat="68.1457" lon="13.61887">
        <ele>10.477955</ele>
        <time>2020-07-15T15:11:02.043Z</time>
      </trkpt>
      <trkpt lat="68.14542" lon="13.6201">
        <ele>10.283749</ele>
        <time>2020-07-15T15:11:10.751Z</time>
      </trkpt>
      <trkpt lat="68.14529" lon="13.62069">
        <ele>10.190237</ele>
        <time>2020-07-15T15:11:14.944Z</time>
      </trkpt>
      <trkpt lat="68.14533" lon="13.62076">
        <ele>10.172878</ele>
        <time>2020-07-15T15:11:15.804Z</time>
      </trkpt>
      <trkpt lat="68.14516" lon="13.62148">
        <ele>10.043133</ele>
        <time>2020-07-15T15:11:21.391Z</time>
      </trkpt>
      <trkpt lat="68.1449" lon="13.62261">
        <ele>9.837269</ele>
        <time>2020-07-15T15:11:30.372Z</time>
      </trkpt>
      <trkpt lat="68.14467" lon="13.62362">
        <ele>9.654093</ele>
        <time>2020-07-15T15:11:38.264Z</time>
      </trkpt>
      <trkpt lat="68.14465" lon="13.62369">
        <ele>9.641366</ele>
        <time>2020-07-15T15:11:38.832Z</time>
      </trkpt>
      <trkpt lat="68.14406" lon="13.62624">
        <ele>8.795608</ele>
        <time>2020-07-15T15:11:57.766Z</time>
      </trkpt>
      <trkpt lat="68.14402" lon="13.62619">
        <ele>8.748013</ele>
        <time>2020-07-15T15:11:58.411Z</time>
      </trkpt>
      <trkpt lat="68.14397" lon="13.62642">
        <ele>8.637469</ele>
        <time>2020-07-15T15:12:00.027Z</time>
      </trkpt>
      <trkpt lat="68.14384" lon="13.62738">
        <ele>8.220083</ele>
        <time>2020-07-15T15:12:05.630Z</time>
      </trkpt>
      <trkpt lat="68.1438" lon="13.62847">
        <ele>7.776831</ele>
        <time>2020-07-15T15:12:11.659Z</time>
      </trkpt>
      <trkpt lat="68.14382" lon="13.62901">
        <ele>7.55621</ele>
        <time>2020-07-15T15:12:14.689Z</time>
      </trkpt>
      <trkpt lat="68.14387" lon="13.62898">
        <ele>7.498644</ele>
        <time>2020-07-15T15:12:18.331Z</time>
      </trkpt>
      <trkpt lat="68.14388" lon="13.62915">
        <ele>7.435982</ele>
        <time>2020-07-15T15:12:19.233Z</time>
      </trkpt>
      <trkpt lat="68.14388" lon="13.62923">
        <ele>7.418014</ele>
        <time>2020-07-15T15:12:19.662Z</time>
      </trkpt>
      <trkpt lat="68.14391" lon="13.62958">
        <ele>7.339755</ele>
        <time>2020-07-15T15:12:21.839Z</time>
      </trkpt>
      <trkpt lat="68.14392" lon="13.62977">
        <ele>7.296733</ele>
        <time>2020-07-15T15:12:22.939Z</time>
      </trkpt>
      <trkpt lat="68.14415" lon="13.63077">
        <ele>7.03831</ele>
        <time>2020-07-15T15:12:30.127Z</time>
      </trkpt>
      <trkpt lat="68.14417" lon="13.63091">
        <ele>7.004916</ele>
        <time>2020-07-15T15:12:30.966Z</time>
      </trkpt>
      <trkpt lat="68.14432" lon="13.63117">
        <ele>6.899524</ele>
        <time>2020-07-15T15:12:33.916Z</time>
      </trkpt>
      <trkpt lat="68.14478" lon="13.63226">
        <ele>6.535728</ele>
        <time>2020-07-15T15:12:44.583Z</time>
      </trkpt>
      <trkpt lat="68.1455" lon="13.63355">
        <ele>6.615682</ele>
        <time>2020-07-15T15:13:02.277Z</time>
      </trkpt>
      <trkpt lat="68.14567" lon="13.63402">
        <ele>6.713598</ele>
        <time>2020-07-15T15:13:07.330Z</time>
      </trkpt>
      <trkpt lat="68.14634" lon="13.63692">
        <ele>7.226489</ele>
        <time>2020-07-15T15:13:32.070Z</time>
      </trkpt>
      <trkpt lat="68.14639" lon="13.63728">
        <ele>7.288529</ele>
        <time>2020-07-15T15:13:34.869Z</time>
      </trkpt>
      <trkpt lat="68.14644" lon="13.63784">
        <ele>7.380497</ele>
        <time>2020-07-15T15:13:39.148Z</time>
      </trkpt>
      <trkpt lat="68.14644" lon="13.63806">
        <ele>7.415719</ele>
        <time>2020-07-15T15:13:40.720Z</time>
      </trkpt>
      <trkpt lat="68.14643" lon="13.63856">
        <ele>7.495869</ele>
        <time>2020-07-15T15:13:44.479Z</time>
      </trkpt>
      <trkpt lat="68.14639" lon="13.63911">
        <ele>7.584617</ele>
        <time>2020-07-15T15:13:48.660Z</time>
      </trkpt>
      <trkpt lat="68.14633" lon="13.63956">
        <ele>7.660957</ele>
        <time>2020-07-15T15:13:52.308Z</time>
      </trkpt>
      <trkpt lat="68.14625" lon="13.64017">
        <ele>7.76237</ele>
        <time>2020-07-15T15:13:57.196Z</time>
      </trkpt>
      <trkpt lat="68.14615" lon="13.64086">
        <ele>7.90094</ele>
        <time>2020-07-15T15:14:02.876Z</time>
      </trkpt>
      <trkpt lat="68.14597" lon="13.64187">
        <ele>8.263187</ele>
        <time>2020-07-15T15:14:11.262Z</time>
      </trkpt>
      <trkpt lat="68.14595" lon="13.64196">
        <ele>8.296479</ele>
        <time>2020-07-15T15:14:12.028Z</time>
      </trkpt>
      <trkpt lat="68.14565" lon="13.6437">
        <ele>8.922574</ele>
        <time>2020-07-15T15:14:27.254Z</time>
      </trkpt>
      <trkpt lat="68.14532" lon="13.64557">
        <ele>9.526075</ele>
        <time>2020-07-15T15:14:44.754Z</time>
      </trkpt>
      <trkpt lat="68.14522" lon="13.64626">
        <ele>9.666134</ele>
        <time>2020-07-15T15:14:51.099Z</time>
      </trkpt>
      <trkpt lat="68.1452" lon="13.64705">
        <ele>9.815342</ele>
        <time>2020-07-15T15:14:57.106Z</time>
      </trkpt>
      <trkpt lat="68.14527" lon="13.64746">
        <ele>9.899632</ele>
        <time>2020-07-15T15:15:00.206Z</time>
      </trkpt>
      <trkpt lat="68.14565" lon="13.64885">
        <ele>10.22774</ele>
        <time>2020-07-15T15:15:12.649Z</time>
      </trkpt>
      <trkpt lat="68.14563" lon="13.6489">
        <ele>10.242885</ele>
        <time>2020-07-15T15:15:14.740Z</time>
      </trkpt>
      <trkpt lat="68.14563" lon="13.64891">
        <ele>10.246063</ele>
        <time>2020-07-15T15:15:14.806Z</time>
      </trkpt>
      <trkpt lat="68.14603" lon="13.6504">
        <ele>10.446482</ele>
        <time>2020-07-15T15:15:28.247Z</time>
      </trkpt>
      <trkpt lat="68.14601" lon="13.65062">
        <ele>10.46391</ele>
        <time>2020-07-15T15:15:29.545Z</time>
      </trkpt>
      <trkpt lat="68.14587" lon="13.65148">
        <ele>10.538174</ele>
        <time>2020-07-15T15:15:36.147Z</time>
      </trkpt>
      <trkpt lat="68.14578" lon="13.65199">
        <ele>10.581512</ele>
        <time>2020-07-15T15:15:40.097Z</time>
      </trkpt>
      <trkpt lat="68.14575" lon="13.65218">
        <ele>10.598078</ele>
        <time>2020-07-15T15:15:41.597Z</time>
      </trkpt>
      <trkpt lat="68.14593" lon="13.6524">
        <ele>10.640498</ele>
        <time>2020-07-15T15:15:44.776Z</time>
      </trkpt>
      <trkpt lat="68.14763" lon="13.65434">
        <ele>12.198567</ele>
        <time>2020-07-15T15:16:23.049Z</time>
      </trkpt>
      <trkpt lat="68.14841" lon="13.65557">
        <ele>13.503252</ele>
        <time>2020-07-15T15:16:43.916Z</time>
      </trkpt>
      <trkpt lat="68.14851" lon="13.65579">
        <ele>13.711624</ele>
        <time>2020-07-15T15:16:47.155Z</time>
      </trkpt>
      <trkpt lat="68.1486" lon="13.65611">
        <ele>13.974606</ele>
        <time>2020-07-15T15:16:50.544Z</time>
      </trkpt>
      <trkpt lat="68.14882" lon="13.65713">
        <ele>14.710209</ele>
        <time>2020-07-15T15:17:00.496Z</time>
      </trkpt>
      <trkpt lat="68.14888" lon="13.65802">
        <ele>15.283681</ele>
        <time>2020-07-15T15:17:08.630Z</time>
      </trkpt>
      <trkpt lat="68.14888" lon="13.65844">
        <ele>15.551839</ele>
        <time>2020-07-15T15:17:12.708Z</time>
      </trkpt>
      <trkpt lat="68.14885" lon="13.65957">
        <ele>16.658099</ele>
        <time>2020-07-15T15:17:22.679Z</time>
      </trkpt>
      <trkpt lat="68.14878" lon="13.66107">
        <ele>18.174571</ele>
        <time>2020-07-15T15:17:35.368Z</time>
      </trkpt>
      <trkpt lat="68.14876" lon="13.6615">
        <ele>18.614285</ele>
        <time>2020-07-15T15:17:39.316Z</time>
      </trkpt>
      <trkpt lat="68.14876" lon="13.66175">
        <ele>18.863446</ele>
        <time>2020-07-15T15:17:41.681Z</time>
      </trkpt>
      <trkpt lat="68.14873" lon="13.66251">
        <ele>19.631662</ele>
        <time>2020-07-15T15:17:50.635Z</time>
      </trkpt>
      <trkpt lat="68.14873" lon="13.6626">
        <ele>19.723379</ele>
        <time>2020-07-15T15:17:51.548Z</time>
      </trkpt>
      <trkpt lat="68.14872" lon="13.66289">
        <ele>20.011039</ele>
        <time>2020-07-15T15:17:54.397Z</time>
      </trkpt>
      <trkpt lat="68.1487" lon="13.66324">
        <ele>20.367392</ele>
        <time>2020-07-15T15:17:59.524Z</time>
      </trkpt>
      <trkpt lat="68.14868" lon="13.66358">
        <ele>20.979755</ele>
        <time>2020-07-15T15:18:03.174Z</time>
      </trkpt>
      <trkpt lat="68.14868" lon="13.66372">
        <ele>21.263202</ele>
        <time>2020-07-15T15:18:04.633Z</time>
      </trkpt>
      <trkpt lat="68.14867" lon="13.66386">
        <ele>21.543452</ele>
        <time>2020-07-15T15:18:06.226Z</time>
      </trkpt>
      <trkpt lat="68.14865" lon="13.66421">
        <ele>22.244422</ele>
        <time>2020-07-15T15:18:11.412Z</time>
      </trkpt>
      <trkpt lat="68.14861" lon="13.66516">
        <ele>24.170739</ele>
        <time>2020-07-15T15:18:23.608Z</time>
      </trkpt>
      <trkpt lat="68.14859" lon="13.66573">
        <ele>25.331074</ele>
        <time>2020-07-15T15:18:30.211Z</time>
      </trkpt>
      <trkpt lat="68.14858" lon="13.66609">
        <ele>26.056343</ele>
        <time>2020-07-15T15:18:35.980Z</time>
      </trkpt>
      <trkpt lat="68.14858" lon="13.6673">
        <ele>28.480541</ele>
        <time>2020-07-15T15:18:52.068Z</time>
      </trkpt>
      <trkpt lat="68.14871" lon="13.66835">
        <ele>30.738981</ele>
        <time>2020-07-15T15:19:07.295Z</time>
      </trkpt>
      <trkpt lat="68.14886" lon="13.66893">
        <ele>32.227751</ele>
        <time>2020-07-15T15:19:17.615Z</time>
      </trkpt>
      <trkpt lat="68.14917" lon="13.66967">
        <ele>34.600081</ele>
        <time>2020-07-15T15:19:33.244Z</time>
      </trkpt>
      <trkpt lat="68.14927" lon="13.66983">
        <ele>35.237422</ele>
        <time>2020-07-15T15:19:37.537Z</time>
      </trkpt>
      <trkpt lat="68.14961" lon="13.67037">
        <ele>37.51331</ele>
        <time>2020-07-15T15:19:50.935Z</time>
      </trkpt>
      <trkpt lat="68.14992" lon="13.67083">
        <ele>39.545394</ele>
        <time>2020-07-15T15:20:03.281Z</time>
      </trkpt>
      <trkpt lat="68.1503" lon="13.67131">
        <ele>42.046021</ele>
        <time>2020-07-15T15:20:17.651Z</time>
      </trkpt>
      <trkpt lat="68.15136" lon="13.67224">
        <ele>48.965439</ele>
        <time>2020-07-15T15:20:59.559Z</time>
      </trkpt>
      <trkpt lat="68.1516" lon="13.67266">
        <ele>50.743891</ele>
        <time>2020-07-15T15:21:11.991Z</time>
      </trkpt>
      <trkpt lat="68.15195" lon="13.67358">
        <ele>53.844121</ele>
        <time>2020-07-15T15:21:30.571Z</time>
      </trkpt>
      <trkpt lat="68.15201" lon="13.67375">
        <ele>54.382676</ele>
        <time>2020-07-15T15:21:35.084Z</time>
      </trkpt>
      <trkpt lat="68.15208" lon="13.67395">
        <ele>55.044557</ele>
        <time>2020-07-15T15:21:38.827Z</time>
      </trkpt>
      <trkpt lat="68.15222" lon="13.67438">
        <ele>56.398348</ele>
        <time>2020-07-15T15:21:46.645Z</time>
      </trkpt>
      <trkpt lat="68.15231" lon="13.67465">
        <ele>57.231861</ele>
        <time>2020-07-15T15:21:51.795Z</time>
      </trkpt>
      <trkpt lat="68.15251" lon="13.67526">
        <ele>59.179529</ele>
        <time>2020-07-15T15:22:04.199Z</time>
      </trkpt>
      <trkpt lat="68.15253" lon="13.6753">
        <ele>59.333209</ele>
        <time>2020-07-15T15:22:05.120Z</time>
      </trkpt>
      <trkpt lat="68.15255" lon="13.67537">
        <ele>59.536287</ele>
        <time>2020-07-15T15:22:06.031Z</time>
      </trkpt>
      <trkpt lat="68.15258" lon="13.67544">
        <ele>59.781955</ele>
        <time>2020-07-15T15:22:07.943Z</time>
      </trkpt>
      <trkpt lat="68.15325" lon="13.67796">
        <ele>66.472165</ele>
        <time>2020-07-15T15:22:48.551Z</time>
      </trkpt>
      <trkpt lat="68.15328" lon="13.67807">
        <ele>66.728712</ele>
        <time>2020-07-15T15:22:50.897Z</time>
      </trkpt>
      <trkpt lat="68.15335" lon="13.67826">
        <ele>67.267436</ele>
        <time>2020-07-15T15:22:54.026Z</time>
      </trkpt>
      <trkpt lat="68.15374" lon="13.6792">
        <ele>70.061123</ele>
        <time>2020-07-15T15:23:11.281Z</time>
      </trkpt>
      <trkpt lat="68.15378" lon="13.67931">
        <ele>70.384673</ele>
        <time>2020-07-15T15:23:13.526Z</time>
      </trkpt>
      <trkpt lat="68.15388" lon="13.67959">
        <ele>71.131169</ele>
        <time>2020-07-15T15:23:18.886Z</time>
      </trkpt>
      <trkpt lat="68.15414" lon="13.68051">
        <ele>73.564644</ele>
        <time>2020-07-15T15:23:33.107Z</time>
      </trkpt>
      <trkpt lat="68.1543" lon="13.6812">
        <ele>75.4327</ele>
        <time>2020-07-15T15:23:44.318Z</time>
      </trkpt>
      <trkpt lat="68.15465" lon="13.68279">
        <ele>79.750511</ele>
        <time>2020-07-15T15:24:10.361Z</time>
      </trkpt>
      <trkpt lat="68.15478" lon="13.68335">
        <ele>81.267629</ele>
        <time>2020-07-15T15:24:19.486Z</time>
      </trkpt>
      <trkpt lat="68.15479" lon="13.68339">
        <ele>81.370953</ele>
        <time>2020-07-15T15:24:20.609Z</time>
      </trkpt>
      <trkpt lat="68.15502" lon="13.6844">
        <ele>84.170664</ele>
        <time>2020-07-15T15:24:38.424Z</time>
      </trkpt>
      <trkpt lat="68.15504" lon="13.68447">
        <ele>84.382035</ele>
        <time>2020-07-15T15:24:40.074Z</time>
      </trkpt>
      <trkpt lat="68.15513" lon="13.68488">
        <ele>85.632074</ele>
        <time>2020-07-15T15:24:46.877Z</time>
      </trkpt>
      <trkpt lat="68.1554" lon="13.68608">
        <ele>89.233866</ele>
        <time>2020-07-15T15:25:08.035Z</time>
      </trkpt>
      <trkpt lat="68.15567" lon="13.68721">
        <ele>92.698695</ele>
        <time>2020-07-15T15:25:27.516Z</time>
      </trkpt>
      <trkpt lat="68.15593" lon="13.68801">
        <ele>95.407007</ele>
        <time>2020-07-15T15:25:43.897Z</time>
      </trkpt>
      <trkpt lat="68.15681" lon="13.69007">
        <ele>103.026131</ele>
        <time>2020-07-15T15:26:29.958Z</time>
      </trkpt>
      <trkpt lat="68.1569" lon="13.69027">
        <ele>103.779653</ele>
        <time>2020-07-15T15:26:34.746Z</time>
      </trkpt>
      <trkpt lat="68.15719" lon="13.69099">
        <ele>106.346809</ele>
        <time>2020-07-15T15:26:49.343Z</time>
      </trkpt>
      <trkpt lat="68.15752" lon="13.69221">
        <ele>109.569882</ele>
        <time>2020-07-15T15:27:09.199Z</time>
      </trkpt>
      <trkpt lat="68.15771" lon="13.69358">
        <ele>112.433951</ele>
        <time>2020-07-15T15:27:29.761Z</time>
      </trkpt>
      <trkpt lat="68.15776" lon="13.69469">
        <ele>114.603857</ele>
        <time>2020-07-15T15:27:43.192Z</time>
      </trkpt>
      <trkpt lat="68.15774" lon="13.69568">
        <ele>116.527932</ele>
        <time>2020-07-15T15:27:54.565Z</time>
      </trkpt>
      <trkpt lat="68.1577" lon="13.69612">
        <ele>117.399589</ele>
        <time>2020-07-15T15:28:00.167Z</time>
      </trkpt>
      <trkpt lat="68.15766" lon="13.69651">
        <ele>118.015473</ele>
        <time>2020-07-15T15:28:05.291Z</time>
      </trkpt>
      <trkpt lat="68.15736" lon="13.69815">
        <ele>120.821501</ele>
        <time>2020-07-15T15:28:29.155Z</time>
      </trkpt>
      <trkpt lat="68.15718" lon="13.69886">
        <ele>122.131334</ele>
        <time>2020-07-15T15:28:40.524Z</time>
      </trkpt>
      <trkpt lat="68.15715" lon="13.69898">
        <ele>122.362374</ele>
        <time>2020-07-15T15:28:41.797Z</time>
      </trkpt>
      <trkpt lat="68.15702" lon="13.69953">
        <ele>123.366073</ele>
        <time>2020-07-15T15:28:49.338Z</time>
      </trkpt>
      <trkpt lat="68.157" lon="13.69961">
        <ele>123.527857</ele>
        <time>2020-07-15T15:28:51.057Z</time>
      </trkpt>
      <trkpt lat="68.15692" lon="13.69994">
        <ele>124.114894</ele>
        <time>2020-07-15T15:28:54.303Z</time>
      </trkpt>
      <trkpt lat="68.1569" lon="13.70005">
        <ele>124.313139</ele>
        <time>2020-07-15T15:28:55.452Z</time>
      </trkpt>
      <trkpt lat="68.15683" lon="13.70034">
        <ele>124.701267</ele>
        <time>2020-07-15T15:28:58.486Z</time>
      </trkpt>
      <trkpt lat="68.15657" lon="13.70145">
        <ele>123.422219</ele>
        <time>2020-07-15T15:29:08.220Z</time>
      </trkpt>
      <trkpt lat="68.15647" lon="13.70202">
        <ele>122.807145</ele>
        <time>2020-07-15T15:29:12.152Z</time>
      </trkpt>
      <trkpt lat="68.15646" lon="13.70211">
        <ele>122.713374</ele>
        <time>2020-07-15T15:29:13.311Z</time>
      </trkpt>
      <trkpt lat="68.15643" lon="13.70226">
        <ele>122.558751</ele>
        <time>2020-07-15T15:29:14.017Z</time>
      </trkpt>
      <trkpt lat="68.15628" lon="13.70424">
        <ele>120.597499</ele>
        <time>2020-07-15T15:29:23.633Z</time>
      </trkpt>
      <trkpt lat="68.15625" lon="13.70669">
        <ele>114.49626</ele>
        <time>2020-07-15T15:29:33.771Z</time>
      </trkpt>
      <trkpt lat="68.15584" lon="13.70873">
        <ele>107.750978</ele>
        <time>2020-07-15T15:29:43.440Z</time>
      </trkpt>
      <trkpt lat="68.15578" lon="13.70913">
        <ele>106.492988</ele>
        <time>2020-07-15T15:29:45.194Z</time>
      </trkpt>
      <trkpt lat="68.15574" lon="13.7096">
        <ele>105.301244</ele>
        <time>2020-07-15T15:29:47.386Z</time>
      </trkpt>
      <trkpt lat="68.15571" lon="13.71039">
        <ele>103.59211</ele>
        <time>2020-07-15T15:29:50.728Z</time>
      </trkpt>
      <trkpt lat="68.15582" lon="13.71139">
        <ele>101.353076</ele>
        <time>2020-07-15T15:29:55.285Z</time>
      </trkpt>
      <trkpt lat="68.15587" lon="13.71166">
        <ele>100.680227</ele>
        <time>2020-07-15T15:29:56.721Z</time>
      </trkpt>
      <trkpt lat="68.15608" lon="13.71247">
        <ele>98.576252</ele>
        <time>2020-07-15T15:30:01.006Z</time>
      </trkpt>
      <trkpt lat="68.15616" lon="13.71365">
        <ele>95.986415</ele>
        <time>2020-07-15T15:30:06.542Z</time>
      </trkpt>
      <trkpt lat="68.15615" lon="13.71379">
        <ele>95.675125</ele>
        <time>2020-07-15T15:30:07.165Z</time>
      </trkpt>
      <trkpt lat="68.15615" lon="13.71397">
        <ele>95.296167</ele>
        <time>2020-07-15T15:30:07.960Z</time>
      </trkpt>
      <trkpt lat="68.15622" lon="13.71535">
        <ele>92.332605</ele>
        <time>2020-07-15T15:30:14.545Z</time>
      </trkpt>
      <trkpt lat="68.15625" lon="13.71568">
        <ele>91.619868</ele>
        <time>2020-07-15T15:30:16.009Z</time>
      </trkpt>
      <trkpt lat="68.15632" lon="13.71642">
        <ele>89.994954</ele>
        <time>2020-07-15T15:30:19.448Z</time>
      </trkpt>
      <trkpt lat="68.15638" lon="13.71857">
        <ele>85.429682</ele>
        <time>2020-07-15T15:30:28.830Z</time>
      </trkpt>
      <trkpt lat="68.15625" lon="13.72134">
        <ele>76.774419</ele>
        <time>2020-07-15T15:30:40.569Z</time>
      </trkpt>
      <trkpt lat="68.1563" lon="13.72449">
        <ele>66.571874</ele>
        <time>2020-07-15T15:30:53.508Z</time>
      </trkpt>
      <trkpt lat="68.15628" lon="13.72576">
        <ele>62.23334</ele>
        <time>2020-07-15T15:30:58.650Z</time>
      </trkpt>
      <trkpt lat="68.15608" lon="13.72725">
        <ele>56.805052</ele>
        <time>2020-07-15T15:31:05.148Z</time>
      </trkpt>
      <trkpt lat="68.15579" lon="13.72837">
        <ele>52.460347</ele>
        <time>2020-07-15T15:31:10.884Z</time>
      </trkpt>
      <trkpt lat="68.15553" lon="13.72968">
        <ele>48.582805</ele>
        <time>2020-07-15T15:31:17.193Z</time>
      </trkpt>
      <trkpt lat="68.15516" lon="13.73194">
        <ele>42.132546</ele>
        <time>2020-07-15T15:31:27.780Z</time>
      </trkpt>
      <trkpt lat="68.15508" lon="13.73307">
        <ele>39.523768</ele>
        <time>2020-07-15T15:31:32.774Z</time>
      </trkpt>
      <trkpt lat="68.15511" lon="13.73339">
        <ele>38.860776</ele>
        <time>2020-07-15T15:31:34.160Z</time>
      </trkpt>
      <trkpt lat="68.15514" lon="13.73367">
        <ele>38.261733</ele>
        <time>2020-07-15T15:31:35.489Z</time>
      </trkpt>
      <trkpt lat="68.15541" lon="13.73457">
        <ele>35.911229</ele>
        <time>2020-07-15T15:31:40.722Z</time>
      </trkpt>
      <trkpt lat="68.15548" lon="13.73471">
        <ele>35.463313</ele>
        <time>2020-07-15T15:31:41.680Z</time>
      </trkpt>
      <trkpt lat="68.15583" lon="13.73549">
        <ele>32.977676</ele>
        <time>2020-07-15T15:31:47.184Z</time>
      </trkpt>
      <trkpt lat="68.15607" lon="13.73633">
        <ele>30.919875</ele>
        <time>2020-07-15T15:31:51.964Z</time>
      </trkpt>
      <trkpt lat="68.15621" lon="13.73726">
        <ele>29.556678</ele>
        <time>2020-07-15T15:31:56.642Z</time>
      </trkpt>
      <trkpt lat="68.15634" lon="13.73828">
        <ele>28.106359</ele>
        <time>2020-07-15T15:32:01.586Z</time>
      </trkpt>
      <trkpt lat="68.15638" lon="13.73861">
        <ele>27.638443</ele>
        <time>2020-07-15T15:32:03.263Z</time>
      </trkpt>
      <trkpt lat="68.15645" lon="13.73916">
        <ele>26.845977</ele>
        <time>2020-07-15T15:32:06.084Z</time>
      </trkpt>
      <trkpt lat="68.15648" lon="13.73936">
        <ele>26.56316</ele>
        <time>2020-07-15T15:32:07.123Z</time>
      </trkpt>
      <trkpt lat="68.15653" lon="13.73974">
        <ele>26.014064</ele>
        <time>2020-07-15T15:32:09.198Z</time>
      </trkpt>
      <trkpt lat="68.15659" lon="13.74025">
        <ele>25.287341</ele>
        <time>2020-07-15T15:32:11.850Z</time>
      </trkpt>
      <trkpt lat="68.15663" lon="13.74056">
        <ele>24.850668</ele>
        <time>2020-07-15T15:32:13.524Z</time>
      </trkpt>
      <trkpt lat="68.15669" lon="13.74113">
        <ele>24.342275</ele>
        <time>2020-07-15T15:32:16.473Z</time>
      </trkpt>
      <trkpt lat="68.15674" lon="13.7415">
        <ele>24.124456</ele>
        <time>2020-07-15T15:32:18.467Z</time>
      </trkpt>
      <trkpt lat="68.15701" lon="13.74415">
        <ele>22.581209</ele>
        <time>2020-07-15T15:32:32.824Z</time>
      </trkpt>
      <trkpt lat="68.1571" lon="13.74509">
        <ele>22.036935</ele>
        <time>2020-07-15T15:32:38.980Z</time>
      </trkpt>
      <trkpt lat="68.15716" lon="13.74568">
        <ele>21.845286</ele>
        <time>2020-07-15T15:32:43.754Z</time>
      </trkpt>
      <trkpt lat="68.15721" lon="13.74618">
        <ele>21.847907</ele>
        <time>2020-07-15T15:32:47.738Z</time>
      </trkpt>
      <trkpt lat="68.15727" lon="13.74691">
        <ele>21.851693</ele>
        <time>2020-07-15T15:32:53.105Z</time>
      </trkpt>
      <trkpt lat="68.15732" lon="13.74745">
        <ele>21.854472</ele>
        <time>2020-07-15T15:32:57.612Z</time>
      </trkpt>
      <trkpt lat="68.15734" lon="13.74791">
        <ele>21.856864</ele>
        <time>2020-07-15T15:33:00.511Z</time>
      </trkpt>
      <trkpt lat="68.15737" lon="13.74881">
        <ele>21.861418</ele>
        <time>2020-07-15T15:33:06.513Z</time>
      </trkpt>
      <trkpt lat="68.15738" lon="13.74924">
        <ele>21.863603</ele>
        <time>2020-07-15T15:33:09.791Z</time>
      </trkpt>
      <trkpt lat="68.15737" lon="13.74973">
        <ele>21.86607</ele>
        <time>2020-07-15T15:33:12.702Z</time>
      </trkpt>
      <trkpt lat="68.15736" lon="13.75018">
        <ele>21.868386</ele>
        <time>2020-07-15T15:33:15.923Z</time>
      </trkpt>
      <trkpt lat="68.15734" lon="13.75066">
        <ele>21.403824</ele>
        <time>2020-07-15T15:33:18.686Z</time>
      </trkpt>
      <trkpt lat="68.15727" lon="13.75146">
        <ele>20.618249</ele>
        <time>2020-07-15T15:33:23.330Z</time>
      </trkpt>
      <trkpt lat="68.15723" lon="13.75189">
        <ele>20.17992</ele>
        <time>2020-07-15T15:33:25.605Z</time>
      </trkpt>
      <trkpt lat="68.15709" lon="13.75292">
        <ele>19.121514</ele>
        <time>2020-07-15T15:33:31.000Z</time>
      </trkpt>
      <trkpt lat="68.15703" lon="13.75326">
        <ele>18.762353</ele>
        <time>2020-07-15T15:33:32.768Z</time>
      </trkpt>
      <trkpt lat="68.15686" lon="13.75434">
        <ele>17.627495</ele>
        <time>2020-07-15T15:33:38.211Z</time>
      </trkpt>
      <trkpt lat="68.15659" lon="13.75604">
        <ele>16.431309</ele>
        <time>2020-07-15T15:33:46.964Z</time>
      </trkpt>
      <trkpt lat="68.15649" lon="13.75708">
        <ele>15.846061</ele>
        <time>2020-07-15T15:33:52.848Z</time>
      </trkpt>
      <trkpt lat="68.15647" lon="13.75828">
        <ele>15.19608</ele>
        <time>2020-07-15T15:34:00.004Z</time>
      </trkpt>
      <trkpt lat="68.15647" lon="13.75836">
        <ele>15.149116</ele>
        <time>2020-07-15T15:34:00.379Z</time>
      </trkpt>
      <trkpt lat="68.15649" lon="13.75886">
        <ele>14.878295</ele>
        <time>2020-07-15T15:34:03.524Z</time>
      </trkpt>
      <trkpt lat="68.1565" lon="13.75914">
        <ele>14.725051</ele>
        <time>2020-07-15T15:34:06.133Z</time>
      </trkpt>
      <trkpt lat="68.15654" lon="13.75991">
        <ele>15.037049</ele>
        <time>2020-07-15T15:34:11.655Z</time>
      </trkpt>
      <trkpt lat="68.15654" lon="13.76001">
        <ele>15.131553</ele>
        <time>2020-07-15T15:34:12.974Z</time>
      </trkpt>
      <trkpt lat="68.15658" lon="13.76091">
        <ele>16.028266</ele>
        <time>2020-07-15T15:34:21.173Z</time>
      </trkpt>
      <trkpt lat="68.15662" lon="13.76198">
        <ele>17.091677</ele>
        <time>2020-07-15T15:34:32.298Z</time>
      </trkpt>
      <trkpt lat="68.15666" lon="13.76323">
        <ele>18.330175</ele>
        <time>2020-07-15T15:34:45.795Z</time>
      </trkpt>
      <trkpt lat="68.15668" lon="13.76383">
        <ele>18.932854</ele>
        <time>2020-07-15T15:34:52.765Z</time>
      </trkpt>
      <trkpt lat="68.15673" lon="13.765">
        <ele>20.008246</ele>
        <time>2020-07-15T15:35:05.443Z</time>
      </trkpt>
      <trkpt lat="68.15677" lon="13.76679">
        <ele>21.591145</ele>
        <time>2020-07-15T15:35:23.674Z</time>
      </trkpt>
      <trkpt lat="68.15678" lon="13.7673">
        <ele>22.045652</ele>
        <time>2020-07-15T15:35:28.964Z</time>
      </trkpt>
      <trkpt lat="68.15677" lon="13.76824">
        <ele>22.872972</ele>
        <time>2020-07-15T15:35:37.511Z</time>
      </trkpt>
      <trkpt lat="68.15673" lon="13.76944">
        <ele>23.410085</ele>
        <time>2020-07-15T15:35:46.438Z</time>
      </trkpt>
      <trkpt lat="68.15673" lon="13.76955">
        <ele>23.3559</ele>
        <time>2020-07-15T15:35:47.283Z</time>
      </trkpt>
      <trkpt lat="68.15672" lon="13.76974">
        <ele>23.258707</ele>
        <time>2020-07-15T15:35:48.448Z</time>
      </trkpt>
      <trkpt lat="68.15672" lon="13.76988">
        <ele>23.189943</ele>
        <time>2020-07-15T15:35:49.376Z</time>
      </trkpt>
      <trkpt lat="68.1567" lon="13.77034">
        <ele>22.955357</ele>
        <time>2020-07-15T15:35:52.345Z</time>
      </trkpt>
      <trkpt lat="68.15669" lon="13.77055">
        <ele>22.849728</ele>
        <time>2020-07-15T15:35:53.678Z</time>
      </trkpt>
      <trkpt lat="68.15667" lon="13.77116">
        <ele>22.53671</ele>
        <time>2020-07-15T15:35:57.409Z</time>
      </trkpt>
      <trkpt lat="68.15666" lon="13.77144">
        <ele>22.397087</ele>
        <time>2020-07-15T15:35:58.955Z</time>
      </trkpt>
      <trkpt lat="68.15664" lon="13.77199">
        <ele>22.114648</ele>
        <time>2020-07-15T15:36:01.862Z</time>
      </trkpt>
      <trkpt lat="68.15662" lon="13.77261">
        <ele>21.803647</ele>
        <time>2020-07-15T15:36:05.096Z</time>
      </trkpt>
      <trkpt lat="68.15657" lon="13.77391">
        <ele>21.108091</ele>
        <time>2020-07-15T15:36:11.614Z</time>
      </trkpt>
      <trkpt lat="68.15655" lon="13.77464">
        <ele>20.041236</ele>
        <time>2020-07-15T15:36:15.184Z</time>
      </trkpt>
      <trkpt lat="68.1565" lon="13.77564">
        <ele>18.573463</ele>
        <time>2020-07-15T15:36:19.925Z</time>
      </trkpt>
      <trkpt lat="68.15648" lon="13.776">
        <ele>18.048849</ele>
        <time>2020-07-15T15:36:21.564Z</time>
      </trkpt>
      <trkpt lat="68.15639" lon="13.77702">
        <ele>16.518919</ele>
        <time>2020-07-15T15:36:26.428Z</time>
      </trkpt>
      <trkpt lat="68.15634" lon="13.77745">
        <ele>15.863952</ele>
        <time>2020-07-15T15:36:28.542Z</time>
      </trkpt>
      <trkpt lat="68.15633" lon="13.77753">
        <ele>15.745312</ele>
        <time>2020-07-15T15:36:28.917Z</time>
      </trkpt>
      <trkpt lat="68.1563" lon="13.77782">
        <ele>15.297654</ele>
        <time>2020-07-15T15:36:30.327Z</time>
      </trkpt>
      <trkpt lat="68.15622" lon="13.77837">
        <ele>14.453711</ele>
        <time>2020-07-15T15:36:33.069Z</time>
      </trkpt>
      <trkpt lat="68.15617" lon="13.77871">
        <ele>13.937018</ele>
        <time>2020-07-15T15:36:34.734Z</time>
      </trkpt>
      <trkpt lat="68.15617" lon="13.77877">
        <ele>13.849398</ele>
        <time>2020-07-15T15:36:35.038Z</time>
      </trkpt>
      <trkpt lat="68.15612" lon="13.77903">
        <ele>13.462454</ele>
        <time>2020-07-15T15:36:36.335Z</time>
      </trkpt>
      <trkpt lat="68.15607" lon="13.77935">
        <ele>12.983878</ele>
        <time>2020-07-15T15:36:38.041Z</time>
      </trkpt>
      <trkpt lat="68.15604" lon="13.77957">
        <ele>12.65257</ele>
        <time>2020-07-15T15:36:39.166Z</time>
      </trkpt>
      <trkpt lat="68.15601" lon="13.77977">
        <ele>12.348452</ele>
        <time>2020-07-15T15:36:40.268Z</time>
      </trkpt>
      <trkpt lat="68.15607" lon="13.77983">
        <ele>12.12571</ele>
        <time>2020-07-15T15:36:40.957Z</time>
      </trkpt>
      <trkpt lat="68.15613" lon="13.7799">
        <ele>11.876866</ele>
        <time>2020-07-15T15:36:41.793Z</time>
      </trkpt>
      <trkpt lat="68.15634" lon="13.78015">
        <ele>11.00858</ele>
        <time>2020-07-15T15:36:44.874Z</time>
      </trkpt>
      <trkpt lat="68.15667" lon="13.78046">
        <ele>9.739716</ele>
        <time>2020-07-15T15:36:49.201Z</time>
      </trkpt>
      <trkpt lat="68.15673" lon="13.78053">
        <ele>9.47602</ele>
        <time>2020-07-15T15:36:50.056Z</time>
      </trkpt>
      <trkpt lat="68.15685" lon="13.78066">
        <ele>9.020067</ele>
        <time>2020-07-15T15:36:51.645Z</time>
      </trkpt>
      <trkpt lat="68.15693" lon="13.78075">
        <ele>8.708568</ele>
        <time>2020-07-15T15:36:52.770Z</time>
      </trkpt>
      <trkpt lat="68.15718" lon="13.781">
        <ele>7.719126</ele>
        <time>2020-07-15T15:36:56.196Z</time>
      </trkpt>
      <trkpt lat="68.15736" lon="13.78121">
        <ele>7.340351</ele>
        <time>2020-07-15T15:36:58.982Z</time>
      </trkpt>
      <trkpt lat="68.15747" lon="13.78136">
        <ele>7.216545</ele>
        <time>2020-07-15T15:37:00.453Z</time>
      </trkpt>
      <trkpt lat="68.15778" lon="13.78211">
        <ele>6.787877</ele>
        <time>2020-07-15T15:37:06.290Z</time>
      </trkpt>
      <trkpt lat="68.15802" lon="13.78318">
        <ele>6.307969</ele>
        <time>2020-07-15T15:37:13.978Z</time>
      </trkpt>
      <trkpt lat="68.15821" lon="13.78351">
        <ele>6.079512</ele>
        <time>2020-07-15T15:37:17.822Z</time>
      </trkpt>
      <trkpt lat="68.15859" lon="13.78346">
        <ele>5.69238</ele>
        <time>2020-07-15T15:37:25.218Z</time>
      </trkpt>
      <trkpt lat="68.15875" lon="13.78331">
        <ele>5.703213</ele>
        <time>2020-07-15T15:37:29.011Z</time>
      </trkpt>
      <trkpt lat="68.15905" lon="13.78241">
        <ele>5.964932</ele>
        <time>2020-07-15T15:37:38.342Z</time>
      </trkpt>
      <trkpt lat="68.15913" lon="13.78221">
        <ele>6.029064</ele>
        <time>2020-07-15T15:37:40.826Z</time>
      </trkpt>
      <trkpt lat="68.15918" lon="13.78206">
        <ele>6.070516</ele>
        <time>2020-07-15T15:37:42.467Z</time>
      </trkpt>
      <trkpt lat="68.15934" lon="13.78179">
        <ele>6.183802</ele>
        <time>2020-07-15T15:37:46.152Z</time>
      </trkpt>
      <trkpt lat="68.15968" lon="13.78152">
        <ele>6.388727</ele>
        <time>2020-07-15T15:37:53.134Z</time>
      </trkpt>
      <trkpt lat="68.16014" lon="13.78146">
        <ele>6.657803</ele>
        <time>2020-07-15T15:38:01.917Z</time>
      </trkpt>
      <trkpt lat="68.1612" lon="13.78196">
        <ele>6.185794</ele>
        <time>2020-07-15T15:38:20.743Z</time>
      </trkpt>
      <trkpt lat="68.16126" lon="13.78201">
        <ele>6.153865</ele>
        <time>2020-07-15T15:38:21.499Z</time>
      </trkpt>
      <trkpt lat="68.16133" lon="13.78206">
        <ele>6.117174</ele>
        <time>2020-07-15T15:38:23.212Z</time>
      </trkpt>
      <trkpt lat="68.16179" lon="13.78258">
        <ele>5.880365</ele>
        <time>2020-07-15T15:38:30.887Z</time>
      </trkpt>
      <trkpt lat="68.16182" lon="13.78261">
        <ele>5.861492</ele>
        <time>2020-07-15T15:38:32.089Z</time>
      </trkpt>
      <trkpt lat="68.16203" lon="13.783">
        <ele>5.724853</ele>
        <time>2020-07-15T15:38:35.731Z</time>
      </trkpt>
      <trkpt lat="68.16232" lon="13.78377">
        <ele>5.493832</ele>
        <time>2020-07-15T15:38:42.241Z</time>
      </trkpt>
      <trkpt lat="68.1626" lon="13.78482">
        <ele>5.219985</ele>
        <time>2020-07-15T15:38:50.652Z</time>
      </trkpt>
      <trkpt lat="68.16273" lon="13.78536">
        <ele>5.084376</ele>
        <time>2020-07-15T15:38:54.585Z</time>
      </trkpt>
      <trkpt lat="68.16287" lon="13.78605">
        <ele>4.91694</ele>
        <time>2020-07-15T15:38:59.732Z</time>
      </trkpt>
      <trkpt lat="68.16301" lon="13.78663">
        <ele>4.754531</ele>
        <time>2020-07-15T15:39:03.784Z</time>
      </trkpt>
      <trkpt lat="68.16323" lon="13.7872">
        <ele>4.436922</ele>
        <time>2020-07-15T15:39:08.675Z</time>
      </trkpt>
      <trkpt lat="68.1634" lon="13.78731">
        <ele>4.258964</ele>
        <time>2020-07-15T15:39:11.383Z</time>
      </trkpt>
      <trkpt lat="68.16367" lon="13.78724">
        <ele>3.981214</ele>
        <time>2020-07-15T15:39:15.463Z</time>
      </trkpt>
      <trkpt lat="68.16374" lon="13.78725">
        <ele>3.909414</ele>
        <time>2020-07-15T15:39:16.574Z</time>
      </trkpt>
      <trkpt lat="68.16394" lon="13.78737">
        <ele>3.704579</ele>
        <time>2020-07-15T15:39:19.587Z</time>
      </trkpt>
      <trkpt lat="68.1641" lon="13.7876">
        <ele>3.519701</ele>
        <time>2020-07-15T15:39:22.284Z</time>
      </trkpt>
      <trkpt lat="68.16419" lon="13.78782">
        <ele>3.398964</ele>
        <time>2020-07-15T15:39:24.093Z</time>
      </trkpt>
      <trkpt lat="68.16427" lon="13.78821">
        <ele>3.222815</ele>
        <time>2020-07-15T15:39:26.694Z</time>
      </trkpt>
      <trkpt lat="68.16438" lon="13.78909">
        <ele>2.892526</ele>
        <time>2020-07-15T15:39:32.028Z</time>
      </trkpt>
      <trkpt lat="68.16458" lon="13.79153">
        <ele>2.217242</ele>
        <time>2020-07-15T15:39:46.587Z</time>
      </trkpt>
      <trkpt lat="68.16462" lon="13.792">
        <ele>2.087479</ele>
        <time>2020-07-15T15:39:49.403Z</time>
      </trkpt>
      <trkpt lat="68.16479" lon="13.79567">
        <ele>1.41226</ele>
        <time>2020-07-15T15:40:12.623Z</time>
      </trkpt>
      <trkpt lat="68.1648" lon="13.79577">
        <ele>1.401041</ele>
        <time>2020-07-15T15:40:13.317Z</time>
      </trkpt>
      <trkpt lat="68.16484" lon="13.79676">
        <ele>1.289961</ele>
        <time>2020-07-15T15:40:19.757Z</time>
      </trkpt>
      <trkpt lat="68.16493" lon="13.79772">
        <ele>1.179843</ele>
        <time>2020-07-15T15:40:26.062Z</time>
      </trkpt>
      <trkpt lat="68.16504" lon="13.79819">
        <ele>1.118164</ele>
        <time>2020-07-15T15:40:29.615Z</time>
      </trkpt>
      <trkpt lat="68.16509" lon="13.79837">
        <ele>1.09066</ele>
        <time>2020-07-15T15:40:30.996Z</time>
      </trkpt>
      <trkpt lat="68.16516" lon="13.79854">
        <ele>1.054798</ele>
        <time>2020-07-15T15:40:32.538Z</time>
      </trkpt>
      <trkpt lat="68.16549" lon="13.79927">
        <ele>0.889426</ele>
        <time>2020-07-15T15:40:39.734Z</time>
      </trkpt>
      <trkpt lat="68.16591" lon="13.80063">
        <ele>0.635597</ele>
        <time>2020-07-15T15:40:50.546Z</time>
      </trkpt>
      <trkpt lat="68.16659" lon="13.80309">
        <ele>0.461332</ele>
        <time>2020-07-15T15:41:09.861Z</time>
      </trkpt>
      <trkpt lat="68.16675" lon="13.80421">
        <ele>0.506274</ele>
        <time>2020-07-15T15:41:17.843Z</time>
      </trkpt>
      <trkpt lat="68.16677" lon="13.80702">
        <ele>0.801491</ele>
        <time>2020-07-15T15:41:37.751Z</time>
      </trkpt>
      <trkpt lat="68.16747" lon="13.81574">
        <ele>3.878529</ele>
        <time>2020-07-15T15:42:47.903Z</time>
      </trkpt>
      <trkpt lat="68.1675" lon="13.81683">
        <ele>4.000097</ele>
        <time>2020-07-15T15:42:56.045Z</time>
      </trkpt>
      <trkpt lat="68.16752" lon="13.82125">
        <ele>4.255173</ele>
        <time>2020-07-15T15:43:25.698Z</time>
      </trkpt>
      <trkpt lat="68.1672" lon="13.82487">
        <ele>3.819714</ele>
        <time>2020-07-15T15:43:48.759Z</time>
      </trkpt>
      <trkpt lat="68.16731" lon="13.83105">
        <ele>3.06131</ele>
        <time>2020-07-15T15:44:27.792Z</time>
      </trkpt>
      <trkpt lat="68.16727" lon="13.83377">
        <ele>2.652621</ele>
        <time>2020-07-15T15:44:44.767Z</time>
      </trkpt>
      <trkpt lat="68.16731" lon="13.83438">
        <ele>2.559674</ele>
        <time>2020-07-15T15:44:48.584Z</time>
      </trkpt>
      <trkpt lat="68.16755" lon="13.83622">
        <ele>2.68915</ele>
        <time>2020-07-15T15:45:00.256Z</time>
      </trkpt>
      <trkpt lat="68.1677" lon="13.83812">
        <ele>3.05021</ele>
        <time>2020-07-15T15:45:14.581Z</time>
      </trkpt>
      <trkpt lat="68.16774" lon="13.8386">
        <ele>3.142208</ele>
        <time>2020-07-15T15:45:18.880Z</time>
      </trkpt>
      <trkpt lat="68.16781" lon="13.83924">
        <ele>3.265786</ele>
        <time>2020-07-15T15:45:23.485Z</time>
      </trkpt>
      <trkpt lat="68.16787" lon="13.83994">
        <ele>3.490575</ele>
        <time>2020-07-15T15:45:29.674Z</time>
      </trkpt>
      <trkpt lat="68.16789" lon="13.84012">
        <ele>3.607524</ele>
        <time>2020-07-15T15:45:30.892Z</time>
      </trkpt>
      <trkpt lat="68.16795" lon="13.84051">
        <ele>3.845767</ele>
        <time>2020-07-15T15:45:35.245Z</time>
      </trkpt>
      <trkpt lat="68.16836" lon="13.84297">
        <ele>5.42571</ele>
        <time>2020-07-15T15:45:58.625Z</time>
      </trkpt>
      <trkpt lat="68.16853" lon="13.84341">
        <ele>5.795288</ele>
        <time>2020-07-15T15:46:04.274Z</time>
      </trkpt>
      <trkpt lat="68.16915" lon="13.84419">
        <ele>6.245006</ele>
        <time>2020-07-15T15:46:19.557Z</time>
      </trkpt>
      <trkpt lat="68.16988" lon="13.84479">
        <ele>6.367268</ele>
        <time>2020-07-15T15:46:33.428Z</time>
      </trkpt>
      <trkpt lat="68.17061" lon="13.84556">
        <ele>6.193138</ele>
        <time>2020-07-15T15:46:46.072Z</time>
      </trkpt>
      <trkpt lat="68.17171" lon="13.846">
        <ele>4.612704</ele>
        <time>2020-07-15T15:47:02.257Z</time>
      </trkpt>
      <trkpt lat="68.17189" lon="13.84627">
        <ele>4.321821</ele>
        <time>2020-07-15T15:47:05.137Z</time>
      </trkpt>
      <trkpt lat="68.17239" lon="13.84747">
        <ele>3.684325</ele>
        <time>2020-07-15T15:47:14.987Z</time>
      </trkpt>
      <trkpt lat="68.17323" lon="13.84842">
        <ele>3.168107</ele>
        <time>2020-07-15T15:47:29.385Z</time>
      </trkpt>
      <trkpt lat="68.17368" lon="13.84869">
        <ele>2.902743</ele>
        <time>2020-07-15T15:47:37.911Z</time>
      </trkpt>
      <trkpt lat="68.17468" lon="13.84862">
        <ele>4.102534</ele>
        <time>2020-07-15T15:47:59.184Z</time>
      </trkpt>
      <trkpt lat="68.17548" lon="13.84918">
        <ele>5.178099</ele>
        <time>2020-07-15T15:48:19.018Z</time>
      </trkpt>
      <trkpt lat="68.17613" lon="13.84894">
        <ele>5.811191</ele>
        <time>2020-07-15T15:48:33.794Z</time>
      </trkpt>
      <trkpt lat="68.17685" lon="13.84949">
        <ele>6.535376</ele>
        <time>2020-07-15T15:48:49.779Z</time>
      </trkpt>
      <trkpt lat="68.17807" lon="13.84928">
        <ele>6.766491</ele>
        <time>2020-07-15T15:49:11.674Z</time>
      </trkpt>
      <trkpt lat="68.17821" lon="13.84927">
        <ele>6.738254</ele>
        <time>2020-07-15T15:49:14.098Z</time>
      </trkpt>
      <trkpt lat="68.17836" lon="13.84929">
        <ele>6.707967</ele>
        <time>2020-07-15T15:49:16.496Z</time>
      </trkpt>
      <trkpt lat="68.17852" lon="13.84932">
        <ele>6.675986</ele>
        <time>2020-07-15T15:49:19.139Z</time>
      </trkpt>
      <trkpt lat="68.17865" lon="13.84937">
        <ele>6.649559</ele>
        <time>2020-07-15T15:49:21.211Z</time>
      </trkpt>
      <trkpt lat="68.17899" lon="13.84962">
        <ele>6.576783</ele>
        <time>2020-07-15T15:49:27.054Z</time>
      </trkpt>
      <trkpt lat="68.17924" lon="13.85">
        <ele>6.484245</ele>
        <time>2020-07-15T15:49:31.811Z</time>
      </trkpt>
      <trkpt lat="68.18024" lon="13.85219">
        <ele>6.033446</ele>
        <time>2020-07-15T15:49:53.441Z</time>
      </trkpt>
      <trkpt lat="68.18054" lon="13.85248">
        <ele>5.927216</ele>
        <time>2020-07-15T15:49:59.223Z</time>
      </trkpt>
      <trkpt lat="68.18099" lon="13.85257">
        <ele>5.846614</ele>
        <time>2020-07-15T15:50:07.189Z</time>
      </trkpt>
      <trkpt lat="68.18171" lon="13.85276">
        <ele>5.715642</ele>
        <time>2020-07-15T15:50:19.824Z</time>
      </trkpt>
      <trkpt lat="68.1821" lon="13.85289">
        <ele>5.645515</ele>
        <time>2020-07-15T15:50:26.338Z</time>
      </trkpt>
      <trkpt lat="68.18233" lon="13.85303">
        <ele>5.586427</ele>
        <time>2020-07-15T15:50:30.485Z</time>
      </trkpt>
      <trkpt lat="68.18257" lon="13.85349">
        <ele>5.424178</ele>
        <time>2020-07-15T15:50:35.309Z</time>
      </trkpt>
      <trkpt lat="68.18267" lon="13.85396">
        <ele>5.310018</ele>
        <time>2020-07-15T15:50:38.604Z</time>
      </trkpt>
      <trkpt lat="68.18274" lon="13.85465">
        <ele>5.160886</ele>
        <time>2020-07-15T15:50:43.128Z</time>
      </trkpt>
      <trkpt lat="68.18276" lon="13.8548">
        <ele>5.128837</ele>
        <time>2020-07-15T15:50:43.948Z</time>
      </trkpt>
      <trkpt lat="68.18277" lon="13.85492">
        <ele>5.104028</ele>
        <time>2020-07-15T15:50:44.650Z</time>
      </trkpt>
      <trkpt lat="68.18282" lon="13.85572">
        <ele>4.935804</ele>
        <time>2020-07-15T15:50:49.480Z</time>
      </trkpt>
      <trkpt lat="68.18299" lon="13.8569">
        <ele>4.672686</ele>
        <time>2020-07-15T15:50:57.169Z</time>
      </trkpt>
      <trkpt lat="68.18348" lon="13.85855">
        <ele>4.594656</ele>
        <time>2020-07-15T15:51:10.124Z</time>
      </trkpt>
      <trkpt lat="68.18387" lon="13.8596">
        <ele>4.58386</ele>
        <time>2020-07-15T15:51:20.450Z</time>
      </trkpt>
      <trkpt lat="68.18411" lon="13.86004">
        <ele>4.578227</ele>
        <time>2020-07-15T15:51:25.809Z</time>
      </trkpt>
      <trkpt lat="68.18436" lon="13.86032">
        <ele>4.573053</ele>
        <time>2020-07-15T15:51:30.761Z</time>
      </trkpt>
      <trkpt lat="68.18469" lon="13.86047">
        <ele>4.628261</ele>
        <time>2020-07-15T15:51:37.185Z</time>
      </trkpt>
      <trkpt lat="68.18476" lon="13.86047">
        <ele>4.641779</ele>
        <time>2020-07-15T15:51:38.555Z</time>
      </trkpt>
      <trkpt lat="68.18483" lon="13.86044">
        <ele>4.654054</ele>
        <time>2020-07-15T15:51:40.145Z</time>
      </trkpt>
      <trkpt lat="68.18587" lon="13.85887">
        <ele>4.865909</ele>
        <time>2020-07-15T15:52:02.273Z</time>
      </trkpt>
      <trkpt lat="68.18607" lon="13.85872">
        <ele>4.842411</ele>
        <time>2020-07-15T15:52:05.969Z</time>
      </trkpt>
      <trkpt lat="68.18653" lon="13.85866">
        <ele>4.471823</ele>
        <time>2020-07-15T15:52:13.669Z</time>
      </trkpt>
      <trkpt lat="68.18951" lon="13.86021">
        <ele>1.498892</ele>
        <time>2020-07-15T15:53:00.073Z</time>
      </trkpt>
      <trkpt lat="68.18999" lon="13.86071">
        <ele>1.311105</ele>
        <time>2020-07-15T15:53:08.107Z</time>
      </trkpt>
      <trkpt lat="68.19059" lon="13.86166">
        <ele>1.099226</ele>
        <time>2020-07-15T15:53:19.574Z</time>
      </trkpt>
      <trkpt lat="68.19068" lon="13.86182">
        <ele>1.066387</ele>
        <time>2020-07-15T15:53:21.273Z</time>
      </trkpt>
      <trkpt lat="68.19088" lon="13.86223">
        <ele>0.990595</ele>
        <time>2020-07-15T15:53:25.676Z</time>
      </trkpt>
      <trkpt lat="68.19117" lon="13.86285">
        <ele>1.027907</ele>
        <time>2020-07-15T15:53:33.237Z</time>
      </trkpt>
      <trkpt lat="68.19132" lon="13.86319">
        <ele>1.269511</ele>
        <time>2020-07-15T15:53:37.501Z</time>
      </trkpt>
      <trkpt lat="68.19136" lon="13.86329">
        <ele>1.343608</ele>
        <time>2020-07-15T15:53:38.719Z</time>
      </trkpt>
      <trkpt lat="68.19141" lon="13.86339">
        <ele>1.417558</ele>
        <time>2020-07-15T15:53:39.875Z</time>
      </trkpt>
      <trkpt lat="68.19153" lon="13.86367">
        <ele>1.609835</ele>
        <time>2020-07-15T15:53:43.617Z</time>
      </trkpt>
      <trkpt lat="68.19167" lon="13.86396">
        <ele>1.823599</ele>
        <time>2020-07-15T15:53:47.246Z</time>
      </trkpt>
      <trkpt lat="68.19174" lon="13.86414">
        <ele>1.943426</ele>
        <time>2020-07-15T15:53:49.571Z</time>
      </trkpt>
      <trkpt lat="68.1918" lon="13.86429">
        <ele>2.050418</ele>
        <time>2020-07-15T15:53:51.672Z</time>
      </trkpt>
      <trkpt lat="68.1919" lon="13.86458">
        <ele>2.231222</ele>
        <time>2020-07-15T15:53:54.888Z</time>
      </trkpt>
      <trkpt lat="68.19195" lon="13.86473">
        <ele>2.318758</ele>
        <time>2020-07-15T15:53:56.357Z</time>
      </trkpt>
      <trkpt lat="68.192" lon="13.86492">
        <ele>2.430087</ele>
        <time>2020-07-15T15:53:59.089Z</time>
      </trkpt>
      <trkpt lat="68.19215" lon="13.86564">
        <ele>2.807714</ele>
        <time>2020-07-15T15:54:06.297Z</time>
      </trkpt>
      <trkpt lat="68.19269" lon="13.86921">
        <ele>3.450876</ele>
        <time>2020-07-15T15:54:35.199Z</time>
      </trkpt>
      <trkpt lat="68.19272" lon="13.86947">
        <ele>3.478068</ele>
        <time>2020-07-15T15:54:37.365Z</time>
      </trkpt>
      <trkpt lat="68.19273" lon="13.86977">
        <ele>3.509333</ele>
        <time>2020-07-15T15:54:38.851Z</time>
      </trkpt>
      <trkpt lat="68.19259" lon="13.87109">
        <ele>3.556122</ele>
        <time>2020-07-15T15:54:47.314Z</time>
      </trkpt>
      <trkpt lat="68.19261" lon="13.87142">
        <ele>3.472416</ele>
        <time>2020-07-15T15:54:49.456Z</time>
      </trkpt>
      <trkpt lat="68.19304" lon="13.87302">
        <ele>2.968835</ele>
        <time>2020-07-15T15:55:00.721Z</time>
      </trkpt>
      <trkpt lat="68.19329" lon="13.87366">
        <ele>2.73563</ele>
        <time>2020-07-15T15:55:05.900Z</time>
      </trkpt>
      <trkpt lat="68.19384" lon="13.87467">
        <ele>2.374085</ele>
        <time>2020-07-15T15:55:17.559Z</time>
      </trkpt>
      <trkpt lat="68.19407" lon="13.87486">
        <ele>2.348809</ele>
        <time>2020-07-15T15:55:21.766Z</time>
      </trkpt>
      <trkpt lat="68.19471" lon="13.87502">
        <ele>2.280428</ele>
        <time>2020-07-15T15:55:33.348Z</time>
      </trkpt>
      <trkpt lat="68.19499" lon="13.87531">
        <ele>2.248583</ele>
        <time>2020-07-15T15:55:38.687Z</time>
      </trkpt>
      <trkpt lat="68.19518" lon="13.87569">
        <ele>2.223108</ele>
        <time>2020-07-15T15:55:42.903Z</time>
      </trkpt>
      <trkpt lat="68.19569" lon="13.87706">
        <ele>2.138046</ele>
        <time>2020-07-15T15:55:55.141Z</time>
      </trkpt>
      <trkpt lat="68.19582" lon="13.87757">
        <ele>2.109784</ele>
        <time>2020-07-15T15:55:58.968Z</time>
      </trkpt>
      <trkpt lat="68.19628" lon="13.88094">
        <ele>2.126394</ele>
        <time>2020-07-15T15:56:22.456Z</time>
      </trkpt>
      <trkpt lat="68.19652" lon="13.88194">
        <ele>2.359495</ele>
        <time>2020-07-15T15:56:30.910Z</time>
      </trkpt>
      <trkpt lat="68.19682" lon="13.88243">
        <ele>2.549582</ele>
        <time>2020-07-15T15:56:38.004Z</time>
      </trkpt>
      <trkpt lat="68.19774" lon="13.88345">
        <ele>3.079528</ele>
        <time>2020-07-15T15:56:58.573Z</time>
      </trkpt>
      <trkpt lat="68.19888" lon="13.88443">
        <ele>3.729906</ele>
        <time>2020-07-15T15:57:22.511Z</time>
      </trkpt>
      <trkpt lat="68.19911" lon="13.88459">
        <ele>3.860383</ele>
        <time>2020-07-15T15:57:27.010Z</time>
      </trkpt>
      <trkpt lat="68.19927" lon="13.88472">
        <ele>3.888599</ele>
        <time>2020-07-15T15:57:29.798Z</time>
      </trkpt>
      <trkpt lat="68.19986" lon="13.88506">
        <ele>3.655656</ele>
        <time>2020-07-15T15:57:40.086Z</time>
      </trkpt>
      <trkpt lat="68.20017" lon="13.88496">
        <ele>3.534938</ele>
        <time>2020-07-15T15:57:45.228Z</time>
      </trkpt>
      <trkpt lat="68.2005" lon="13.88437">
        <ele>3.379671</ele>
        <time>2020-07-15T15:57:51.740Z</time>
      </trkpt>
      <trkpt lat="68.20083" lon="13.88321">
        <ele>3.198958</ele>
        <time>2020-07-15T15:58:00.420Z</time>
      </trkpt>
      <trkpt lat="68.2011" lon="13.8826">
        <ele>3.142812</ele>
        <time>2020-07-15T15:58:06.280Z</time>
      </trkpt>
      <trkpt lat="68.20127" lon="13.88239">
        <ele>3.114292</ele>
        <time>2020-07-15T15:58:09.307Z</time>
      </trkpt>
      <trkpt lat="68.20214" lon="13.8822">
        <ele>2.977494</ele>
        <time>2020-07-15T15:58:25.296Z</time>
      </trkpt>
      <trkpt lat="68.20245" lon="13.88195">
        <ele>2.920377</ele>
        <time>2020-07-15T15:58:31.567Z</time>
      </trkpt>
      <trkpt lat="68.20266" lon="13.88163">
        <ele>2.861472</ele>
        <time>2020-07-15T15:58:35.327Z</time>
      </trkpt>
      <trkpt lat="68.2029" lon="13.88092">
        <ele>2.772792</ele>
        <time>2020-07-15T15:58:41.617Z</time>
      </trkpt>
      <trkpt lat="68.20297" lon="13.88081">
        <ele>2.753758</ele>
        <time>2020-07-15T15:58:43.672Z</time>
      </trkpt>
      <trkpt lat="68.20305" lon="13.88072">
        <ele>2.732987</ele>
        <time>2020-07-15T15:58:44.831Z</time>
      </trkpt>
      <trkpt lat="68.20344" lon="13.8807">
        <ele>2.63505</ele>
        <time>2020-07-15T15:58:51.530Z</time>
      </trkpt>
      <trkpt lat="68.2037" lon="13.88083">
        <ele>2.570265</ele>
        <time>2020-07-15T15:58:56.543Z</time>
      </trkpt>
      <trkpt lat="68.20377" lon="13.88089">
        <ele>2.553855</ele>
        <time>2020-07-15T15:58:57.430Z</time>
      </trkpt>
      <trkpt lat="68.20383" lon="13.88097">
        <ele>2.535695</ele>
        <time>2020-07-15T15:58:58.600Z</time>
      </trkpt>
      <trkpt lat="68.20403" lon="13.88143">
        <ele>2.448742</ele>
        <time>2020-07-15T15:59:03.275Z</time>
      </trkpt>
      <trkpt lat="68.20442" lon="13.88275">
        <ele>2.119811</ele>
        <time>2020-07-15T15:59:13.380Z</time>
      </trkpt>
      <trkpt lat="68.20475" lon="13.88383">
        <ele>1.846883</ele>
        <time>2020-07-15T15:59:21.474Z</time>
      </trkpt>
      <trkpt lat="68.20476" lon="13.88387">
        <ele>1.837661</ele>
        <time>2020-07-15T15:59:21.792Z</time>
      </trkpt>
      <trkpt lat="68.20508" lon="13.88488">
        <ele>1.581056</ele>
        <time>2020-07-15T15:59:30.384Z</time>
      </trkpt>
      <trkpt lat="68.2051" lon="13.88494">
        <ele>1.562336</ele>
        <time>2020-07-15T15:59:30.971Z</time>
      </trkpt>
      <trkpt lat="68.20514" lon="13.88504">
        <ele>1.553177</ele>
        <time>2020-07-15T15:59:31.823Z</time>
      </trkpt>
      <trkpt lat="68.20523" lon="13.88533">
        <ele>1.565269</ele>
        <time>2020-07-15T15:59:34.254Z</time>
      </trkpt>
      <trkpt lat="68.20524" lon="13.88537">
        <ele>1.567147</ele>
        <time>2020-07-15T15:59:34.580Z</time>
      </trkpt>
      <trkpt lat="68.20553" lon="13.88628">
        <ele>1.605</ele>
        <time>2020-07-15T15:59:42.324Z</time>
      </trkpt>
      <trkpt lat="68.20558" lon="13.88648">
        <ele>1.61299</ele>
        <time>2020-07-15T15:59:43.868Z</time>
      </trkpt>
      <trkpt lat="68.20562" lon="13.88663">
        <ele>1.618541</ele>
        <time>2020-07-15T15:59:44.972Z</time>
      </trkpt>
      <trkpt lat="68.20567" lon="13.88704">
        <ele>1.632614</ele>
        <time>2020-07-15T15:59:47.632Z</time>
      </trkpt>
      <trkpt lat="68.20568" lon="13.88718">
        <ele>1.637254</ele>
        <time>2020-07-15T15:59:48.741Z</time>
      </trkpt>
      <trkpt lat="68.20567" lon="13.88768">
        <ele>1.653269</ele>
        <time>2020-07-15T15:59:52.269Z</time>
      </trkpt>
      <trkpt lat="68.20555" lon="13.88915">
        <ele>1.701232</ele>
        <time>2020-07-15T16:00:02.658Z</time>
      </trkpt>
      <trkpt lat="68.20527" lon="13.89059">
        <ele>2.190985</ele>
        <time>2020-07-15T16:00:15.134Z</time>
      </trkpt>
      <trkpt lat="68.20525" lon="13.89072">
        <ele>2.23707</ele>
        <time>2020-07-15T16:00:15.961Z</time>
      </trkpt>
      <trkpt lat="68.20522" lon="13.89102">
        <ele>2.335534</ele>
        <time>2020-07-15T16:00:18.721Z</time>
      </trkpt>
      <trkpt lat="68.20507" lon="13.89295">
        <ele>2.977858</ele>
        <time>2020-07-15T16:00:34.400Z</time>
      </trkpt>
      <trkpt lat="68.20495" lon="13.8938">
        <ele>3.276579</ele>
        <time>2020-07-15T16:00:41.514Z</time>
      </trkpt>
      <trkpt lat="68.20473" lon="13.8946">
        <ele>3.512234</ele>
        <time>2020-07-15T16:00:48.665Z</time>
      </trkpt>
      <trkpt lat="68.2043" lon="13.89551">
        <ele>3.863391</ele>
        <time>2020-07-15T16:00:58.917Z</time>
      </trkpt>
      <trkpt lat="68.20417" lon="13.89567">
        <ele>3.95321</ele>
        <time>2020-07-15T16:01:02.126Z</time>
      </trkpt>
      <trkpt lat="68.20406" lon="13.89581">
        <ele>4.035124</ele>
        <time>2020-07-15T16:01:04.311Z</time>
      </trkpt>
      <trkpt lat="68.20367" lon="13.89604">
        <ele>4.291381</ele>
        <time>2020-07-15T16:01:12.257Z</time>
      </trkpt>
      <trkpt lat="68.20359" lon="13.89608">
        <ele>4.338958</ele>
        <time>2020-07-15T16:01:13.422Z</time>
      </trkpt>
      <trkpt lat="68.2035" lon="13.89612">
        <ele>4.39823</ele>
        <time>2020-07-15T16:01:15.677Z</time>
      </trkpt>
      <trkpt lat="68.2032" lon="13.8963">
        <ele>4.995519</ele>
        <time>2020-07-15T16:01:21.456Z</time>
      </trkpt>
      <trkpt lat="68.20274" lon="13.89678">
        <ele>6.109814</ele>
        <time>2020-07-15T16:01:33.166Z</time>
      </trkpt>
      <trkpt lat="68.20228" lon="13.89688">
        <ele>7.158793</ele>
        <time>2020-07-15T16:01:45.641Z</time>
      </trkpt>
      <trkpt lat="68.2021" lon="13.89726">
        <ele>7.656372</ele>
        <time>2020-07-15T16:01:52.069Z</time>
      </trkpt>
      <trkpt lat="68.20193" lon="13.89799">
        <ele>8.379342</ele>
        <time>2020-07-15T16:02:01.382Z</time>
      </trkpt>
      <trkpt lat="68.2018" lon="13.89835">
        <ele>8.618663</ele>
        <time>2020-07-15T16:02:06.170Z</time>
      </trkpt>
      <trkpt lat="68.20177" lon="13.89839">
        <ele>8.655496</ele>
        <time>2020-07-15T16:02:07.934Z</time>
      </trkpt>
      <trkpt lat="68.20168" lon="13.8985">
        <ele>8.746415</ele>
        <time>2020-07-15T16:02:10.313Z</time>
      </trkpt>
      <trkpt lat="68.20156" lon="13.89858">
        <ele>8.862923</ele>
        <time>2020-07-15T16:02:13.299Z</time>
      </trkpt>
      <trkpt lat="68.20127" lon="13.89866">
        <ele>9.149395</ele>
        <time>2020-07-15T16:02:20.900Z</time>
      </trkpt>
      <trkpt lat="68.20114" lon="13.89871">
        <ele>9.282613</ele>
        <time>2020-07-15T16:02:23.982Z</time>
      </trkpt>
      <trkpt lat="68.20076" lon="13.89863">
        <ele>9.645321</ele>
        <time>2020-07-15T16:02:32.401Z</time>
      </trkpt>
      <trkpt lat="68.19992" lon="13.89778">
        <ele>9.442997</ele>
        <time>2020-07-15T16:02:46.148Z</time>
      </trkpt>
      <trkpt lat="68.19927" lon="13.89658">
        <ele>7.378717</ele>
        <time>2020-07-15T16:02:56.240Z</time>
      </trkpt>
      <trkpt lat="68.19922" lon="13.89651">
        <ele>7.22814</ele>
        <time>2020-07-15T16:02:56.878Z</time>
      </trkpt>
      <trkpt lat="68.19919" lon="13.89647">
        <ele>7.129749</ele>
        <time>2020-07-15T16:02:57.325Z</time>
      </trkpt>
      <trkpt lat="68.19882" lon="13.89573">
        <ele>5.929975</ele>
        <time>2020-07-15T16:03:03.539Z</time>
      </trkpt>
      <trkpt lat="68.19876" lon="13.89562">
        <ele>5.735932</ele>
        <time>2020-07-15T16:03:04.551Z</time>
      </trkpt>
      <trkpt lat="68.19866" lon="13.89541">
        <ele>5.551287</ele>
        <time>2020-07-15T16:03:06.319Z</time>
      </trkpt>
      <trkpt lat="68.19836" lon="13.89504">
        <ele>5.832039</ele>
        <time>2020-07-15T16:03:11.531Z</time>
      </trkpt>
      <trkpt lat="68.19814" lon="13.895">
        <ele>6.017982</ele>
        <time>2020-07-15T16:03:14.865Z</time>
      </trkpt>
      <trkpt lat="68.19811" lon="13.89501">
        <ele>6.041849</ele>
        <time>2020-07-15T16:03:15.305Z</time>
      </trkpt>
      <trkpt lat="68.19804" lon="13.89504">
        <ele>6.100705</ele>
        <time>2020-07-15T16:03:17.204Z</time>
      </trkpt>
      <trkpt lat="68.19765" lon="13.89543">
        <ele>6.449459</ele>
        <time>2020-07-15T16:03:25.875Z</time>
      </trkpt>
      <trkpt lat="68.19735" lon="13.89577">
        <ele>6.729407</ele>
        <time>2020-07-15T16:03:34.704Z</time>
      </trkpt>
      <trkpt lat="68.19633" lon="13.89682">
        <ele>8.438744</ele>
        <time>2020-07-15T16:04:04.829Z</time>
      </trkpt>
      <trkpt lat="68.19603" lon="13.89695">
        <ele>9.024549</ele>
        <time>2020-07-15T16:04:12.601Z</time>
      </trkpt>
      <trkpt lat="68.19572" lon="13.89686">
        <ele>9.610328</ele>
        <time>2020-07-15T16:04:19.778Z</time>
      </trkpt>
      <trkpt lat="68.19404" lon="13.89513">
        <ele>10.959443</ele>
        <time>2020-07-15T16:04:52.921Z</time>
      </trkpt>
      <trkpt lat="68.19364" lon="13.89457">
        <ele>11.117232</ele>
        <time>2020-07-15T16:05:01.581Z</time>
      </trkpt>
      <trkpt lat="68.19357" lon="13.89448">
        <ele>11.144777</ele>
        <time>2020-07-15T16:05:03.582Z</time>
      </trkpt>
      <trkpt lat="68.19331" lon="13.89416">
        <ele>11.248787</ele>
        <time>2020-07-15T16:05:08.880Z</time>
      </trkpt>
      <trkpt lat="68.19276" lon="13.89348">
        <ele>11.471407</ele>
        <time>2020-07-15T16:05:21.435Z</time>
      </trkpt>
      <trkpt lat="68.19216" lon="13.89298">
        <ele>11.701387</ele>
        <time>2020-07-15T16:05:34.361Z</time>
      </trkpt>
      <trkpt lat="68.18873" lon="13.89251">
        <ele>7.380543</ele>
        <time>2020-07-15T16:06:25.281Z</time>
      </trkpt>
      <trkpt lat="68.18775" lon="13.89205">
        <ele>6.191093</ele>
        <time>2020-07-15T16:06:39.845Z</time>
      </trkpt>
      <trkpt lat="68.18749" lon="13.89216">
        <ele>5.922304</ele>
        <time>2020-07-15T16:06:43.772Z</time>
      </trkpt>
      <trkpt lat="68.18677" lon="13.89276">
        <ele>5.141478</ele>
        <time>2020-07-15T16:06:55.496Z</time>
      </trkpt>
      <trkpt lat="68.18506" lon="13.8932">
        <ele>5.530055</ele>
        <time>2020-07-15T16:07:26.889Z</time>
      </trkpt>
      <trkpt lat="68.18473" lon="13.89338">
        <ele>5.846893</ele>
        <time>2020-07-15T16:07:34.378Z</time>
      </trkpt>
      <trkpt lat="68.18455" lon="13.89372">
        <ele>6.326277</ele>
        <time>2020-07-15T16:07:39.429Z</time>
      </trkpt>
      <trkpt lat="68.18447" lon="13.89412">
        <ele>6.711777</ele>
        <time>2020-07-15T16:07:43.580Z</time>
      </trkpt>
      <trkpt lat="68.18443" lon="13.89686">
        <ele>8.998557</ele>
        <time>2020-07-15T16:08:10.373Z</time>
      </trkpt>
      <trkpt lat="68.18432" lon="13.89798">
        <ele>9.767098</ele>
        <time>2020-07-15T16:08:22.228Z</time>
      </trkpt>
      <trkpt lat="68.18417" lon="13.89862">
        <ele>10.012387</ele>
        <time>2020-07-15T16:08:29.978Z</time>
      </trkpt>
      <trkpt lat="68.18359" lon="13.90052">
        <ele>10.798384</ele>
        <time>2020-07-15T16:08:47.912Z</time>
      </trkpt>
      <trkpt lat="68.18333" lon="13.90173">
        <ele>11.127013</ele>
        <time>2020-07-15T16:08:56.966Z</time>
      </trkpt>
      <trkpt lat="68.1833" lon="13.90197">
        <ele>10.99972</ele>
        <time>2020-07-15T16:08:58.242Z</time>
      </trkpt>
      <trkpt lat="68.18323" lon="13.90253">
        <ele>10.703782</ele>
        <time>2020-07-15T16:09:01.819Z</time>
      </trkpt>
      <trkpt lat="68.18322" lon="13.9027">
        <ele>10.612554</ele>
        <time>2020-07-15T16:09:02.805Z</time>
      </trkpt>
      <trkpt lat="68.18318" lon="13.90318">
        <ele>10.363546</ele>
        <time>2020-07-15T16:09:05.363Z</time>
      </trkpt>
      <trkpt lat="68.18286" lon="13.90651">
        <ele>8.650591</ele>
        <time>2020-07-15T16:09:23.728Z</time>
      </trkpt>
      <trkpt lat="68.18272" lon="13.90852">
        <ele>7.905402</ele>
        <time>2020-07-15T16:09:36.309Z</time>
      </trkpt>
      <trkpt lat="68.18244" lon="13.91037">
        <ele>7.175255</ele>
        <time>2020-07-15T16:09:48.310Z</time>
      </trkpt>
      <trkpt lat="68.18235" lon="13.91317">
        <ele>5.529007</ele>
        <time>2020-07-15T16:10:03.335Z</time>
      </trkpt>
      <trkpt lat="68.18234" lon="13.91328">
        <ele>5.459195</ele>
        <time>2020-07-15T16:10:03.862Z</time>
      </trkpt>
      <trkpt lat="68.18234" lon="13.91354">
        <ele>5.293195</ele>
        <time>2020-07-15T16:10:05.055Z</time>
      </trkpt>
      <trkpt lat="68.18219" lon="13.91512">
        <ele>4.257801</ele>
        <time>2020-07-15T16:10:14.106Z</time>
      </trkpt>
      <trkpt lat="68.18212" lon="13.91541">
        <ele>4.03408</ele>
        <time>2020-07-15T16:10:15.751Z</time>
      </trkpt>
      <trkpt lat="68.18203" lon="13.91575">
        <ele>3.854111</ele>
        <time>2020-07-15T16:10:18.505Z</time>
      </trkpt>
      <trkpt lat="68.18195" lon="13.91643">
        <ele>3.739195</ele>
        <time>2020-07-15T16:10:22.255Z</time>
      </trkpt>
      <trkpt lat="68.18202" lon="13.91724">
        <ele>3.603764</ele>
        <time>2020-07-15T16:10:26.852Z</time>
      </trkpt>
      <trkpt lat="68.18211" lon="13.9177">
        <ele>3.519226</ele>
        <time>2020-07-15T16:10:30.546Z</time>
      </trkpt>
      <trkpt lat="68.1828" lon="13.91941">
        <ele>3.106514</ele>
        <time>2020-07-15T16:10:47.575Z</time>
      </trkpt>
      <trkpt lat="68.18316" lon="13.92053">
        <ele>3.125744</ele>
        <time>2020-07-15T16:10:58.364Z</time>
      </trkpt>
      <trkpt lat="68.18351" lon="13.92201">
        <ele>3.1613</ele>
        <time>2020-07-15T16:11:10.570Z</time>
      </trkpt>
      <trkpt lat="68.18365" lon="13.92273">
        <ele>3.177824</ele>
        <time>2020-07-15T16:11:15.790Z</time>
      </trkpt>
      <trkpt lat="68.18367" lon="13.92283">
        <ele>3.180079</ele>
        <time>2020-07-15T16:11:16.543Z</time>
      </trkpt>
      <trkpt lat="68.18376" lon="13.92354">
        <ele>3.194498</ele>
        <time>2020-07-15T16:11:21.127Z</time>
      </trkpt>
      <trkpt lat="68.18385" lon="13.92477">
        <ele>2.908647</ele>
        <time>2020-07-15T16:11:28.804Z</time>
      </trkpt>
      <trkpt lat="68.18386" lon="13.92491">
        <ele>2.875914</ele>
        <time>2020-07-15T16:11:29.579Z</time>
      </trkpt>
      <trkpt lat="68.18406" lon="13.92655">
        <ele>2.481292</ele>
        <time>2020-07-15T16:11:39.805Z</time>
      </trkpt>
      <trkpt lat="68.1842" lon="13.92703">
        <ele>2.34098</ele>
        <time>2020-07-15T16:11:43.629Z</time>
      </trkpt>
      <trkpt lat="68.18593" lon="13.9294">
        <ele>1.290572</ele>
        <time>2020-07-15T16:12:15.424Z</time>
      </trkpt>
      <trkpt lat="68.1868" lon="13.93008">
        <ele>0.884649</ele>
        <time>2020-07-15T16:12:30.136Z</time>
      </trkpt>
      <trkpt lat="68.18729" lon="13.93029">
        <ele>0.676854</ele>
        <time>2020-07-15T16:12:38.442Z</time>
      </trkpt>
      <trkpt lat="68.18742" lon="13.93035">
        <ele>0.620889</ele>
        <time>2020-07-15T16:12:40.612Z</time>
      </trkpt>
      <trkpt lat="68.1877" lon="13.93055">
        <ele>0.499911</ele>
        <time>2020-07-15T16:12:45.558Z</time>
      </trkpt>
      <trkpt lat="68.18776" lon="13.93062">
        <ele>0.472515</ele>
        <time>2020-07-15T16:12:46.598Z</time>
      </trkpt>
      <trkpt lat="68.18796" lon="13.93083">
        <ele>0.426176</ele>
        <time>2020-07-15T16:12:50.475Z</time>
      </trkpt>
      <trkpt lat="68.18876" lon="13.93125">
        <ele>0.940189</ele>
        <time>2020-07-15T16:13:04.756Z</time>
      </trkpt>
      <trkpt lat="68.18989" lon="13.93218">
        <ele>1.757997</ele>
        <time>2020-07-15T16:13:30.744Z</time>
      </trkpt>
      <trkpt lat="68.18993" lon="13.93221">
        <ele>1.796619</ele>
        <time>2020-07-15T16:13:31.801Z</time>
      </trkpt>
      <trkpt lat="68.19028" lon="13.93255">
        <ele>2.134223</ele>
        <time>2020-07-15T16:13:40.355Z</time>
      </trkpt>
      <trkpt lat="68.19079" lon="13.93315">
        <ele>2.646158</ele>
        <time>2020-07-15T16:13:51.880Z</time>
      </trkpt>
      <trkpt lat="68.19091" lon="13.9333">
        <ele>2.769461</ele>
        <time>2020-07-15T16:13:55.036Z</time>
      </trkpt>
      <trkpt lat="68.19127" lon="13.9338">
        <ele>3.141578</ele>
        <time>2020-07-15T16:14:02.879Z</time>
      </trkpt>
      <trkpt lat="68.19173" lon="13.93443">
        <ele>2.809922</ele>
        <time>2020-07-15T16:14:11.746Z</time>
      </trkpt>
      <trkpt lat="68.19238" lon="13.93535">
        <ele>2.205234</ele>
        <time>2020-07-15T16:14:23.495Z</time>
      </trkpt>
      <trkpt lat="68.19328" lon="13.93638">
        <ele>1.383746</ele>
        <time>2020-07-15T16:14:37.461Z</time>
      </trkpt>
      <trkpt lat="68.1935" lon="13.93665">
        <ele>1.167864</ele>
        <time>2020-07-15T16:14:41.124Z</time>
      </trkpt>
      <trkpt lat="68.19366" lon="13.9369">
        <ele>0.999159</ele>
        <time>2020-07-15T16:14:44.073Z</time>
      </trkpt>
      <trkpt lat="68.19382" lon="13.93719">
        <ele>0.831595</ele>
        <time>2020-07-15T16:14:47.103Z</time>
      </trkpt>
      <trkpt lat="68.19408" lon="13.9377">
        <ele>0.547965</ele>
        <time>2020-07-15T16:14:52.355Z</time>
      </trkpt>
      <trkpt lat="68.19444" lon="13.93853">
        <ele>0.124089</ele>
        <time>2020-07-15T16:15:00.442Z</time>
      </trkpt>
      <trkpt lat="68.19455" lon="13.93882">
        <ele>0.110673</ele>
        <time>2020-07-15T16:15:03.024Z</time>
      </trkpt>
      <trkpt lat="68.19463" lon="13.93909">
        <ele>0.101968</ele>
        <time>2020-07-15T16:15:05.279Z</time>
      </trkpt>
      <trkpt lat="68.19475" lon="13.9395">
        <ele>0.089055</ele>
        <time>2020-07-15T16:15:08.720Z</time>
      </trkpt>
      <trkpt lat="68.19481" lon="13.93975">
        <ele>0.081412</ele>
        <time>2020-07-15T16:15:10.757Z</time>
      </trkpt>
      <trkpt lat="68.19498" lon="13.9404">
        <ele>0.061879</ele>
        <time>2020-07-15T16:15:15.969Z</time>
      </trkpt>
      <trkpt lat="68.19503" lon="13.94064">
        <ele>0.05486</ele>
        <time>2020-07-15T16:15:17.849Z</time>
      </trkpt>
      <trkpt lat="68.19507" lon="13.9408">
        <ele>0.050003</ele>
        <time>2020-07-15T16:15:19.136Z</time>
      </trkpt>
      <trkpt lat="68.19537" lon="13.94231">
        <ele>0.007643</ele>
        <time>2020-07-15T16:15:30.439Z</time>
      </trkpt>
      <trkpt lat="68.19541" lon="13.94251">
        <ele>0.002185</ele>
        <time>2020-07-15T16:15:31.900Z</time>
      </trkpt>
      <trkpt lat="68.19574" lon="13.94438">
        <ele>0.009088</ele>
        <time>2020-07-15T16:15:45.696Z</time>
      </trkpt>
      <trkpt lat="68.19597" lon="13.94569">
        <ele>0.015715</ele>
        <time>2020-07-15T16:15:55.368Z</time>
      </trkpt>
      <trkpt lat="68.19606" lon="13.94613">
        <ele>0.018027</ele>
        <time>2020-07-15T16:15:58.739Z</time>
      </trkpt>
      <trkpt lat="68.19608" lon="13.94623">
        <ele>0.018497</ele>
        <time>2020-07-15T16:15:59.422Z</time>
      </trkpt>
      <trkpt lat="68.19611" lon="13.94642">
        <ele>0.019467</ele>
        <time>2020-07-15T16:16:00.844Z</time>
      </trkpt>
      <trkpt lat="68.1962" lon="13.94699">
        <ele>0.022875</ele>
        <time>2020-07-15T16:16:05.019Z</time>
      </trkpt>
      <trkpt lat="68.19661" lon="13.94939">
        <ele>0.06505</ele>
        <time>2020-07-15T16:16:22.551Z</time>
      </trkpt>
      <trkpt lat="68.19694" lon="13.95266">
        <ele>0.125172</ele>
        <time>2020-07-15T16:16:45.065Z</time>
      </trkpt>
      <trkpt lat="68.19708" lon="13.95359">
        <ele>0.146219</ele>
        <time>2020-07-15T16:16:51.825Z</time>
      </trkpt>
      <trkpt lat="68.19711" lon="13.95381">
        <ele>0.150985</ele>
        <time>2020-07-15T16:16:53.347Z</time>
      </trkpt>
      <trkpt lat="68.19715" lon="13.95413">
        <ele>0.15801</ele>
        <time>2020-07-15T16:16:55.618Z</time>
      </trkpt>
      <trkpt lat="68.19719" lon="13.95492">
        <ele>0.174541</ele>
        <time>2020-07-15T16:17:00.960Z</time>
      </trkpt>
      <trkpt lat="68.19721" lon="13.95542">
        <ele>0.184769</ele>
        <time>2020-07-15T16:17:04.295Z</time>
      </trkpt>
      <trkpt lat="68.19725" lon="13.95631">
        <ele>0.212938</ele>
        <time>2020-07-15T16:17:10.391Z</time>
      </trkpt>
      <trkpt lat="68.19743" lon="13.96228">
        <ele>0.726709</ele>
        <time>2020-07-15T16:17:51.827Z</time>
      </trkpt>
      <trkpt lat="68.19747" lon="13.9629">
        <ele>0.793469</ele>
        <time>2020-07-15T16:17:56.130Z</time>
      </trkpt>
      <trkpt lat="68.19749" lon="13.96303">
        <ele>0.809336</ele>
        <time>2020-07-15T16:17:57.250Z</time>
      </trkpt>
      <trkpt lat="68.19754" lon="13.96326">
        <ele>0.83628</ele>
        <time>2020-07-15T16:17:59.049Z</time>
      </trkpt>
      <trkpt lat="68.19778" lon="13.96383">
        <ele>0.928316</ele>
        <time>2020-07-15T16:18:05.102Z</time>
      </trkpt>
      <trkpt lat="68.19836" lon="13.96454">
        <ele>1.113027</ele>
        <time>2020-07-15T16:18:17.067Z</time>
      </trkpt>
      <trkpt lat="68.19863" lon="13.96506">
        <ele>1.233548</ele>
        <time>2020-07-15T16:18:23.252Z</time>
      </trkpt>
      <trkpt lat="68.19866" lon="13.96516">
        <ele>1.251882</ele>
        <time>2020-07-15T16:18:24.270Z</time>
      </trkpt>
      <trkpt lat="68.19873" lon="13.96541">
        <ele>1.294683</ele>
        <time>2020-07-15T16:18:26.507Z</time>
      </trkpt>
      <trkpt lat="68.19903" lon="13.96677">
        <ele>1.510927</ele>
        <time>2020-07-15T16:18:37.587Z</time>
      </trkpt>
      <trkpt lat="68.19923" lon="13.96713">
        <ele>1.600318</ele>
        <time>2020-07-15T16:18:42.243Z</time>
      </trkpt>
      <trkpt lat="68.19938" lon="13.96728">
        <ele>1.659116</ele>
        <time>2020-07-15T16:18:45.307Z</time>
      </trkpt>
      <trkpt lat="68.19973" lon="13.96754">
        <ele>1.785516</ele>
        <time>2020-07-15T16:18:52.249Z</time>
      </trkpt>
      <trkpt lat="68.20026" lon="13.9679">
        <ele>1.942848</ele>
        <time>2020-07-15T16:19:02.901Z</time>
      </trkpt>
      <trkpt lat="68.20052" lon="13.96829">
        <ele>2.026859</ele>
        <time>2020-07-15T16:19:08.525Z</time>
      </trkpt>
      <trkpt lat="68.20081" lon="13.96916">
        <ele>2.151912</ele>
        <time>2020-07-15T16:19:16.724Z</time>
      </trkpt>
      <trkpt lat="68.20103" lon="13.97029">
        <ele>2.273284</ele>
        <time>2020-07-15T16:19:25.349Z</time>
      </trkpt>
      <trkpt lat="68.20107" lon="13.97056">
        <ele>2.255948</ele>
        <time>2020-07-15T16:19:27.377Z</time>
      </trkpt>
      <trkpt lat="68.20113" lon="13.97112">
        <ele>2.221359</ele>
        <time>2020-07-15T16:19:31.168Z</time>
      </trkpt>
      <trkpt lat="68.20177" lon="13.97976">
        <ele>1.587576</ele>
        <time>2020-07-15T16:20:27.273Z</time>
      </trkpt>
      <trkpt lat="68.20187" lon="13.98277">
        <ele>1.298248</ele>
        <time>2020-07-15T16:20:46.567Z</time>
      </trkpt>
      <trkpt lat="68.20185" lon="13.98559">
        <ele>1.089794</ele>
        <time>2020-07-15T16:21:04.509Z</time>
      </trkpt>
      <trkpt lat="68.2017" lon="13.99239">
        <ele>1.680178</ele>
        <time>2020-07-15T16:21:49.255Z</time>
      </trkpt>
      <trkpt lat="68.20164" lon="13.99325">
        <ele>1.891666</ele>
        <time>2020-07-15T16:21:56.179Z</time>
      </trkpt>
      <trkpt lat="68.20154" lon="13.99374">
        <ele>2.025084</ele>
        <time>2020-07-15T16:22:00.874Z</time>
      </trkpt>
      <trkpt lat="68.20148" lon="13.99401">
        <ele>2.102921</ele>
        <time>2020-07-15T16:22:03.663Z</time>
      </trkpt>
      <trkpt lat="68.20141" lon="13.99421">
        <ele>2.306098</ele>
        <time>2020-07-15T16:22:06.442Z</time>
      </trkpt>
      <trkpt lat="68.201" lon="13.99493">
        <ele>3.421353</ele>
        <time>2020-07-15T16:22:19.185Z</time>
      </trkpt>
      <trkpt lat="68.20079" lon="13.99513">
        <ele>3.915268</ele>
        <time>2020-07-15T16:22:25.146Z</time>
      </trkpt>
      <trkpt lat="68.20054" lon="13.99531">
        <ele>4.508558</ele>
        <time>2020-07-15T16:22:32.113Z</time>
      </trkpt>
      <trkpt lat="68.20038" lon="13.99539">
        <ele>4.869937</ele>
        <time>2020-07-15T16:22:36.357Z</time>
      </trkpt>
      <trkpt lat="68.20027" lon="13.99544">
        <ele>5.129011</ele>
        <time>2020-07-15T16:22:39.209Z</time>
      </trkpt>
      <trkpt lat="68.20001" lon="13.99557">
        <ele>5.737502</ele>
        <time>2020-07-15T16:22:45.723Z</time>
      </trkpt>
      <trkpt lat="68.19996" lon="13.99559">
        <ele>5.843162</ele>
        <time>2020-07-15T16:22:46.995Z</time>
      </trkpt>
      <trkpt lat="68.19973" lon="13.99567">
        <ele>6.272181</ele>
        <time>2020-07-15T16:22:52.460Z</time>
      </trkpt>
      <trkpt lat="68.19929" lon="13.99577">
        <ele>6.681377</ele>
        <time>2020-07-15T16:23:02.460Z</time>
      </trkpt>
      <trkpt lat="68.19904" lon="13.99578">
        <ele>6.904439</ele>
        <time>2020-07-15T16:23:07.966Z</time>
      </trkpt>
      <trkpt lat="68.19864" lon="13.99572">
        <ele>7.27333</ele>
        <time>2020-07-15T16:23:16.105Z</time>
      </trkpt>
      <trkpt lat="68.19777" lon="13.99576">
        <ele>8.05462</ele>
        <time>2020-07-15T16:23:32.067Z</time>
      </trkpt>
      <trkpt lat="68.19726" lon="13.99629">
        <ele>8.520132</ele>
        <time>2020-07-15T16:23:41.876Z</time>
      </trkpt>
      <trkpt lat="68.19673" lon="13.99765">
        <ele>9.148097</ele>
        <time>2020-07-15T16:23:57.955Z</time>
      </trkpt>
      <trkpt lat="68.19623" lon="13.99972">
        <ele>10.359123</ele>
        <time>2020-07-15T16:24:19.355Z</time>
      </trkpt>
      <trkpt lat="68.19608" lon="14.00002">
        <ele>10.643437</ele>
        <time>2020-07-15T16:24:23.590Z</time>
      </trkpt>
      <trkpt lat="68.19525" lon="14.00082">
        <ele>11.980938</ele>
        <time>2020-07-15T16:24:43.211Z</time>
      </trkpt>
      <trkpt lat="68.1946" lon="14.00252">
        <ele>13.024155</ele>
        <time>2020-07-15T16:25:03.562Z</time>
      </trkpt>
      <trkpt lat="68.19362" lon="14.00417">
        <ele>14.199274</ele>
        <time>2020-07-15T16:25:27.630Z</time>
      </trkpt>
      <trkpt lat="68.1927" lon="14.00645">
        <ele>14.766121</ele>
        <time>2020-07-15T16:25:52.293Z</time>
      </trkpt>
      <trkpt lat="68.19233" lon="14.00747">
        <ele>14.90052</ele>
        <time>2020-07-15T16:26:01.663Z</time>
      </trkpt>
      <trkpt lat="68.19125" lon="14.012">
        <ele>14.421823</ele>
        <time>2020-07-15T16:26:35.385Z</time>
      </trkpt>
      <trkpt lat="68.19113" lon="14.01298">
        <ele>14.389046</ele>
        <time>2020-07-15T16:26:42.065Z</time>
      </trkpt>
      <trkpt lat="68.19116" lon="14.01449">
        <ele>14.34093</ele>
        <time>2020-07-15T16:26:52.276Z</time>
      </trkpt>
      <trkpt lat="68.19098" lon="14.0158">
        <ele>14.291761</ele>
        <time>2020-07-15T16:27:01.645Z</time>
      </trkpt>
      <trkpt lat="68.19097" lon="14.01601">
        <ele>14.253943</ele>
        <time>2020-07-15T16:27:02.798Z</time>
      </trkpt>
      <trkpt lat="68.19098" lon="14.01631">
        <ele>14.200228</ele>
        <time>2020-07-15T16:27:04.998Z</time>
      </trkpt>
      <trkpt lat="68.19109" lon="14.01736">
        <ele>14.002819</ele>
        <time>2020-07-15T16:27:12.015Z</time>
      </trkpt>
      <trkpt lat="68.19112" lon="14.01754">
        <ele>13.967113</ele>
        <time>2020-07-15T16:27:13.552Z</time>
      </trkpt>
      <trkpt lat="68.19118" lon="14.01783">
        <ele>13.906727</ele>
        <time>2020-07-15T16:27:15.368Z</time>
      </trkpt>
      <trkpt lat="68.19156" lon="14.01972">
        <ele>13.518818</ele>
        <time>2020-07-15T16:27:28.444Z</time>
      </trkpt>
      <trkpt lat="68.19175" lon="14.02099">
        <ele>13.139438</ele>
        <time>2020-07-15T16:27:36.487Z</time>
      </trkpt>
      <trkpt lat="68.19267" lon="14.02427">
        <ele>11.847599</ele>
        <time>2020-07-15T16:27:59.682Z</time>
      </trkpt>
      <trkpt lat="68.19293" lon="14.02487">
        <ele>12.225141</ele>
        <time>2020-07-15T16:28:05.874Z</time>
      </trkpt>
      <trkpt lat="68.19345" lon="14.02569">
        <ele>12.904107</ele>
        <time>2020-07-15T16:28:18.632Z</time>
      </trkpt>
      <trkpt lat="68.19376" lon="14.02633">
        <ele>13.333999</ele>
        <time>2020-07-15T16:28:27.527Z</time>
      </trkpt>
      <trkpt lat="68.19422" lon="14.02775">
        <ele>14.395463</ele>
        <time>2020-07-15T16:28:45.438Z</time>
      </trkpt>
      <trkpt lat="68.19473" lon="14.02883">
        <ele>15.766071</ele>
        <time>2020-07-15T16:29:02.533Z</time>
      </trkpt>
      <trkpt lat="68.19497" lon="14.02954">
        <ele>16.529533</ele>
        <time>2020-07-15T16:29:11.778Z</time>
      </trkpt>
      <trkpt lat="68.1951" lon="14.03013">
        <ele>17.072754</ele>
        <time>2020-07-15T16:29:17.962Z</time>
      </trkpt>
      <trkpt lat="68.19519" lon="14.03086">
        <ele>17.642063</ele>
        <time>2020-07-15T16:29:24.410Z</time>
      </trkpt>
      <trkpt lat="68.19523" lon="14.03362">
        <ele>18.226892</ele>
        <time>2020-07-15T16:29:45.064Z</time>
      </trkpt>
      <trkpt lat="68.19543" lon="14.03544">
        <ele>18.626483</ele>
        <time>2020-07-15T16:29:58.123Z</time>
      </trkpt>
      <trkpt lat="68.1956" lon="14.03582">
        <ele>18.483455</ele>
        <time>2020-07-15T16:30:02.016Z</time>
      </trkpt>
      <trkpt lat="68.19614" lon="14.03601">
        <ele>17.973164</ele>
        <time>2020-07-15T16:30:10.790Z</time>
      </trkpt>
      <trkpt lat="68.19637" lon="14.03606">
        <ele>17.748775</ele>
        <time>2020-07-15T16:30:14.470Z</time>
      </trkpt>
      <trkpt lat="68.19694" lon="14.0361">
        <ele>17.209917</ele>
        <time>2020-07-15T16:30:23.096Z</time>
      </trkpt>
      <trkpt lat="68.1986" lon="14.0363">
        <ele>14.451613</ele>
        <time>2020-07-15T16:30:46.570Z</time>
      </trkpt>
      <trkpt lat="68.20208" lon="14.03585">
        <ele>9.676571</ele>
        <time>2020-07-15T16:31:37.844Z</time>
      </trkpt>
      <trkpt lat="68.20229" lon="14.03599">
        <ele>9.462152</ele>
        <time>2020-07-15T16:31:41.605Z</time>
      </trkpt>
      <trkpt lat="68.20271" lon="14.0365">
        <ele>9.222941</ele>
        <time>2020-07-15T16:31:49.817Z</time>
      </trkpt>
      <trkpt lat="68.20447" lon="14.03882">
        <ele>10.083975</ele>
        <time>2020-07-15T16:32:28.592Z</time>
      </trkpt>
      <trkpt lat="68.20463" lon="14.03904">
        <ele>10.137654</ele>
        <time>2020-07-15T16:32:32.143Z</time>
      </trkpt>
      <trkpt lat="68.20467" lon="14.0391">
        <ele>10.150981</ele>
        <time>2020-07-15T16:32:33.012Z</time>
      </trkpt>
      <trkpt lat="68.20471" lon="14.03915">
        <ele>10.164577</ele>
        <time>2020-07-15T16:32:33.884Z</time>
      </trkpt>
      <trkpt lat="68.20508" lon="14.03965">
        <ele>10.287316</ele>
        <time>2020-07-15T16:32:41.793Z</time>
      </trkpt>
      <trkpt lat="68.20559" lon="14.04034">
        <ele>10.455098</ele>
        <time>2020-07-15T16:32:52.276Z</time>
      </trkpt>
      <trkpt lat="68.20614" lon="14.04157">
        <ele>10.443607</ele>
        <time>2020-07-15T16:33:04.831Z</time>
      </trkpt>
      <trkpt lat="68.20792" lon="14.04912">
        <ele>9.883871</ele>
        <time>2020-07-15T16:34:01.863Z</time>
      </trkpt>
      <trkpt lat="68.20813" lon="14.05004">
        <ele>9.952545</ele>
        <time>2020-07-15T16:34:08.944Z</time>
      </trkpt>
      <trkpt lat="68.20837" lon="14.05103">
        <ele>10.02747</ele>
        <time>2020-07-15T16:34:16.964Z</time>
      </trkpt>
      <trkpt lat="68.20846" lon="14.05146">
        <ele>10.059319</ele>
        <time>2020-07-15T16:34:20.427Z</time>
      </trkpt>
      <trkpt lat="68.2086" lon="14.05203">
        <ele>10.102759</ele>
        <time>2020-07-15T16:34:25.276Z</time>
      </trkpt>
      <trkpt lat="68.20893" lon="14.05338">
        <ele>10.335017</ele>
        <time>2020-07-15T16:34:37.046Z</time>
      </trkpt>
      <trkpt lat="68.2091" lon="14.05379">
        <ele>10.481012</ele>
        <time>2020-07-15T16:34:41.693Z</time>
      </trkpt>
      <trkpt lat="68.20929" lon="14.05404">
        <ele>10.615796</ele>
        <time>2020-07-15T16:34:46.057Z</time>
      </trkpt>
      <trkpt lat="68.21017" lon="14.05462">
        <ele>11.190866</ele>
        <time>2020-07-15T16:35:04.747Z</time>
      </trkpt>
      <trkpt lat="68.21125" lon="14.05479">
        <ele>10.700682</ele>
        <time>2020-07-15T16:35:24.183Z</time>
      </trkpt>
      <trkpt lat="68.21196" lon="14.05484">
        <ele>10.223841</ele>
        <time>2020-07-15T16:35:35.089Z</time>
      </trkpt>
      <trkpt lat="68.21262" lon="14.05491">
        <ele>8.995109</ele>
        <time>2020-07-15T16:35:44.306Z</time>
      </trkpt>
      <trkpt lat="68.21294" lon="14.05493">
        <ele>8.257209</ele>
        <time>2020-07-15T16:35:48.622Z</time>
      </trkpt>
      <trkpt lat="68.21414" lon="14.05507">
        <ele>5.797265</ele>
        <time>2020-07-15T16:36:04.941Z</time>
      </trkpt>
      <trkpt lat="68.2143" lon="14.0551">
        <ele>5.675816</ele>
        <time>2020-07-15T16:36:07.092Z</time>
      </trkpt>
      <trkpt lat="68.21451" lon="14.05516">
        <ele>5.510364</ele>
        <time>2020-07-15T16:36:10.283Z</time>
      </trkpt>
      <trkpt lat="68.21464" lon="14.05521">
        <ele>5.40379</ele>
        <time>2020-07-15T16:36:12.258Z</time>
      </trkpt>
      <trkpt lat="68.2147" lon="14.05524">
        <ele>5.357677</ele>
        <time>2020-07-15T16:36:13.123Z</time>
      </trkpt>
      <trkpt lat="68.21511" lon="14.0555">
        <ele>5.02304</ele>
        <time>2020-07-15T16:36:19.936Z</time>
      </trkpt>
      <trkpt lat="68.21517" lon="14.05555">
        <ele>4.973892</ele>
        <time>2020-07-15T16:36:21.104Z</time>
      </trkpt>
      <trkpt lat="68.21543" lon="14.0558">
        <ele>4.757934</ele>
        <time>2020-07-15T16:36:26.095Z</time>
      </trkpt>
      <trkpt lat="68.21561" lon="14.05599">
        <ele>4.609928</ele>
        <time>2020-07-15T16:36:29.959Z</time>
      </trkpt>
      <trkpt lat="68.21609" lon="14.05685">
        <ele>5.196674</ele>
        <time>2020-07-15T16:36:42.373Z</time>
      </trkpt>
      <trkpt lat="68.21647" lon="14.05779">
        <ele>5.870362</ele>
        <time>2020-07-15T16:36:54.195Z</time>
      </trkpt>
      <trkpt lat="68.21655" lon="14.05805">
        <ele>6.033164</ele>
        <time>2020-07-15T16:36:57.120Z</time>
      </trkpt>
      <trkpt lat="68.21669" lon="14.0585">
        <ele>6.320216</ele>
        <time>2020-07-15T16:37:02.333Z</time>
      </trkpt>
      <trkpt lat="68.21776" lon="14.06222">
        <ele>8.004032</ele>
        <time>2020-07-15T16:37:40.209Z</time>
      </trkpt>
      <trkpt lat="68.2184" lon="14.06424">
        <ele>8.216474</ele>
        <time>2020-07-15T16:37:57.848Z</time>
      </trkpt>
      <trkpt lat="68.21853" lon="14.06455">
        <ele>8.142891</ele>
        <time>2020-07-15T16:38:00.795Z</time>
      </trkpt>
      <trkpt lat="68.21879" lon="14.06515">
        <ele>7.996327</ele>
        <time>2020-07-15T16:38:06.599Z</time>
      </trkpt>
      <trkpt lat="68.21897" lon="14.06546">
        <ele>7.907759</ele>
        <time>2020-07-15T16:38:10.020Z</time>
      </trkpt>
      <trkpt lat="68.21926" lon="14.06605">
        <ele>7.753674</ele>
        <time>2020-07-15T16:38:15.863Z</time>
      </trkpt>
      <trkpt lat="68.21971" lon="14.06696">
        <ele>7.321205</ele>
        <time>2020-07-15T16:38:24.572Z</time>
      </trkpt>
      <trkpt lat="68.21998" lon="14.06749">
        <ele>6.988394</ele>
        <time>2020-07-15T16:38:29.677Z</time>
      </trkpt>
      <trkpt lat="68.22024" lon="14.06805">
        <ele>6.65736</ele>
        <time>2020-07-15T16:38:34.800Z</time>
      </trkpt>
      <trkpt lat="68.22099" lon="14.06955">
        <ele>5.757227</ele>
        <time>2020-07-15T16:38:49.395Z</time>
      </trkpt>
      <trkpt lat="68.22119" lon="14.06995">
        <ele>5.554</ele>
        <time>2020-07-15T16:38:53.289Z</time>
      </trkpt>
      <trkpt lat="68.22192" lon="14.07144">
        <ele>4.801433</ele>
        <time>2020-07-15T16:39:08.013Z</time>
      </trkpt>
      <trkpt lat="68.22248" lon="14.07224">
        <ele>4.309927</ele>
        <time>2020-07-15T16:39:17.695Z</time>
      </trkpt>
      <trkpt lat="68.22329" lon="14.07293">
        <ele>3.756276</ele>
        <time>2020-07-15T16:39:31.240Z</time>
      </trkpt>
      <trkpt lat="68.2234" lon="14.07304">
        <ele>3.680126</ele>
        <time>2020-07-15T16:39:32.942Z</time>
      </trkpt>
      <trkpt lat="68.22342" lon="14.07306">
        <ele>3.667191</ele>
        <time>2020-07-15T16:39:33.307Z</time>
      </trkpt>
      <trkpt lat="68.22344" lon="14.07307">
        <ele>3.654256</ele>
        <time>2020-07-15T16:39:33.665Z</time>
      </trkpt>
      <trkpt lat="68.22352" lon="14.07316">
        <ele>3.594816</ele>
        <time>2020-07-15T16:39:35.235Z</time>
      </trkpt>
      <trkpt lat="68.22363" lon="14.07329">
        <ele>3.517067</ele>
        <time>2020-07-15T16:39:37.449Z</time>
      </trkpt>
      <trkpt lat="68.22366" lon="14.07334">
        <ele>3.493271</ele>
        <time>2020-07-15T16:39:37.961Z</time>
      </trkpt>
      <trkpt lat="68.22372" lon="14.07343">
        <ele>3.447849</ele>
        <time>2020-07-15T16:39:39.011Z</time>
      </trkpt>
      <trkpt lat="68.22383" lon="14.07359">
        <ele>3.370155</ele>
        <time>2020-07-15T16:39:41.155Z</time>
      </trkpt>
      <trkpt lat="68.22462" lon="14.07495">
        <ele>3.500256</ele>
        <time>2020-07-15T16:39:57.576Z</time>
      </trkpt>
      <trkpt lat="68.22469" lon="14.07503">
        <ele>3.526941</ele>
        <time>2020-07-15T16:39:58.971Z</time>
      </trkpt>
      <trkpt lat="68.22492" lon="14.07524">
        <ele>3.614582</ele>
        <time>2020-07-15T16:40:03.648Z</time>
      </trkpt>
      <trkpt lat="68.22603" lon="14.0762">
        <ele>4.094508</ele>
        <time>2020-07-15T16:40:27.917Z</time>
      </trkpt>
      <trkpt lat="68.22693" lon="14.07661">
        <ele>4.555664</ele>
        <time>2020-07-15T16:40:45.742Z</time>
      </trkpt>
      <trkpt lat="68.22723" lon="14.07686">
        <ele>4.714463</ele>
        <time>2020-07-15T16:40:51.522Z</time>
      </trkpt>
      <trkpt lat="68.22733" lon="14.07702">
        <ele>4.774267</ele>
        <time>2020-07-15T16:40:53.718Z</time>
      </trkpt>
      <trkpt lat="68.22743" lon="14.07719">
        <ele>4.789745</ele>
        <time>2020-07-15T16:40:55.752Z</time>
      </trkpt>
      <trkpt lat="68.22755" lon="14.07743">
        <ele>4.785549</ele>
        <time>2020-07-15T16:40:58.413Z</time>
      </trkpt>
      <trkpt lat="68.22777" lon="14.078">
        <ele>4.776866</ele>
        <time>2020-07-15T16:41:03.804Z</time>
      </trkpt>
      <trkpt lat="68.22853" lon="14.08022">
        <ele>4.745609</ele>
        <time>2020-07-15T16:41:23.104Z</time>
      </trkpt>
      <trkpt lat="68.22876" lon="14.08088">
        <ele>4.932408</ele>
        <time>2020-07-15T16:41:29.255Z</time>
      </trkpt>
      <trkpt lat="68.22908" lon="14.08176">
        <ele>5.384932</ele>
        <time>2020-07-15T16:41:38.331Z</time>
      </trkpt>
      <trkpt lat="68.22918" lon="14.08205">
        <ele>5.53286</ele>
        <time>2020-07-15T16:41:41.736Z</time>
      </trkpt>
      <trkpt lat="68.22966" lon="14.08278">
        <ele>6.081451</ele>
        <time>2020-07-15T16:41:53.807Z</time>
      </trkpt>
      <trkpt lat="68.23001" lon="14.08352">
        <ele>6.51774</ele>
        <time>2020-07-15T16:42:03.685Z</time>
      </trkpt>
      <trkpt lat="68.23019" lon="14.08399">
        <ele>6.661776</ele>
        <time>2020-07-15T16:42:09.470Z</time>
      </trkpt>
      <trkpt lat="68.23038" lon="14.08466">
        <ele>6.834298</ele>
        <time>2020-07-15T16:42:16.549Z</time>
      </trkpt>
      <trkpt lat="68.23057" lon="14.08543">
        <ele>7.024793</ele>
        <time>2020-07-15T16:42:23.778Z</time>
      </trkpt>
      <trkpt lat="68.23078" lon="14.08664">
        <ele>7.297432</ele>
        <time>2020-07-15T16:42:33.549Z</time>
      </trkpt>
      <trkpt lat="68.23211" lon="14.09819">
        <ele>4.725542</ele>
        <time>2020-07-15T16:43:43.686Z</time>
      </trkpt>
      <trkpt lat="68.23237" lon="14.10043">
        <ele>5.399273</ele>
        <time>2020-07-15T16:44:01.898Z</time>
      </trkpt>
      <trkpt lat="68.23266" lon="14.10296">
        <ele>7.071039</ele>
        <time>2020-07-15T16:44:26.338Z</time>
      </trkpt>
      <trkpt lat="68.23278" lon="14.10409">
        <ele>8.152386</ele>
        <time>2020-07-15T16:44:38.238Z</time>
      </trkpt>
      <trkpt lat="68.23344" lon="14.10977">
        <ele>13.193594</ele>
        <time>2020-07-15T16:45:35.675Z</time>
      </trkpt>
      <trkpt lat="68.23348" lon="14.11015">
        <ele>13.506445</ele>
        <time>2020-07-15T16:45:39.156Z</time>
      </trkpt>
      <trkpt lat="68.23354" lon="14.1106">
        <ele>13.895359</ele>
        <time>2020-07-15T16:45:42.841Z</time>
      </trkpt>
      <trkpt lat="68.2336" lon="14.11109">
        <ele>14.135497</ele>
        <time>2020-07-15T16:45:47.134Z</time>
      </trkpt>
      <trkpt lat="68.23365" lon="14.11137">
        <ele>14.187821</ele>
        <time>2020-07-15T16:45:49.458Z</time>
      </trkpt>
      <trkpt lat="68.23369" lon="14.11157">
        <ele>14.227829</ele>
        <time>2020-07-15T16:45:51.106Z</time>
      </trkpt>
      <trkpt lat="68.23379" lon="14.11193">
        <ele>14.301633</ele>
        <time>2020-07-15T16:45:54.662Z</time>
      </trkpt>
      <trkpt lat="68.23387" lon="14.11222">
        <ele>14.363455</ele>
        <time>2020-07-15T16:45:57.279Z</time>
      </trkpt>
      <trkpt lat="68.23389" lon="14.11228">
        <ele>14.376507</ele>
        <time>2020-07-15T16:45:57.737Z</time>
      </trkpt>
      <trkpt lat="68.23428" lon="14.11324">
        <ele>14.618799</ele>
        <time>2020-07-15T16:46:08.097Z</time>
      </trkpt>
      <trkpt lat="68.23476" lon="14.11412">
        <ele>14.882757</ele>
        <time>2020-07-15T16:46:18.048Z</time>
      </trkpt>
      <trkpt lat="68.23516" lon="14.11463">
        <ele>14.815644</ele>
        <time>2020-07-15T16:46:25.728Z</time>
      </trkpt>
      <trkpt lat="68.23541" lon="14.11479">
        <ele>14.753039</ele>
        <time>2020-07-15T16:46:30.247Z</time>
      </trkpt>
      <trkpt lat="68.23556" lon="14.11484">
        <ele>14.717897</ele>
        <time>2020-07-15T16:46:32.758Z</time>
      </trkpt>
      <trkpt lat="68.23571" lon="14.11489">
        <ele>14.679425</ele>
        <time>2020-07-15T16:46:35.587Z</time>
      </trkpt>
      <trkpt lat="68.23649" lon="14.1151">
        <ele>14.490199</ele>
        <time>2020-07-15T16:46:48.838Z</time>
      </trkpt>
      <trkpt lat="68.237" lon="14.11531">
        <ele>14.090952</ele>
        <time>2020-07-15T16:46:57.207Z</time>
      </trkpt>
      <trkpt lat="68.23729" lon="14.11555">
        <ele>13.830129</ele>
        <time>2020-07-15T16:47:02.016Z</time>
      </trkpt>
      <trkpt lat="68.2379" lon="14.11607">
        <ele>13.274305</ele>
        <time>2020-07-15T16:47:12.030Z</time>
      </trkpt>
      <trkpt lat="68.23868" lon="14.11671">
        <ele>12.527752</ele>
        <time>2020-07-15T16:47:24.474Z</time>
      </trkpt>
      <trkpt lat="68.23904" lon="14.11698">
        <ele>12.172889</ele>
        <time>2020-07-15T16:47:29.958Z</time>
      </trkpt>
      <trkpt lat="68.24007" lon="14.11783">
        <ele>11.148723</ele>
        <time>2020-07-15T16:47:47.003Z</time>
      </trkpt>
      <trkpt lat="68.24038" lon="14.11811">
        <ele>10.955799</ele>
        <time>2020-07-15T16:47:52.240Z</time>
      </trkpt>
      <trkpt lat="68.24104" lon="14.11864">
        <ele>10.544875</ele>
        <time>2020-07-15T16:48:03.383Z</time>
      </trkpt>
      <trkpt lat="68.24118" lon="14.11878">
        <ele>10.453668</ele>
        <time>2020-07-15T16:48:05.859Z</time>
      </trkpt>
      <trkpt lat="68.24131" lon="14.11893">
        <ele>10.370036</ele>
        <time>2020-07-15T16:48:08.140Z</time>
      </trkpt>
      <trkpt lat="68.24141" lon="14.11905">
        <ele>10.308549</ele>
        <time>2020-07-15T16:48:09.831Z</time>
      </trkpt>
      <trkpt lat="68.24154" lon="14.11927">
        <ele>10.217158</ele>
        <time>2020-07-15T16:48:12.368Z</time>
      </trkpt>
      <trkpt lat="68.24167" lon="14.11952">
        <ele>10.123143</ele>
        <time>2020-07-15T16:48:15.086Z</time>
      </trkpt>
      <trkpt lat="68.24202" lon="14.1203">
        <ele>10.111704</ele>
        <time>2020-07-15T16:48:23.238Z</time>
      </trkpt>
      <trkpt lat="68.24209" lon="14.12044">
        <ele>10.111332</ele>
        <time>2020-07-15T16:48:24.691Z</time>
      </trkpt>
      <trkpt lat="68.24252" lon="14.12141">
        <ele>10.108942</ele>
        <time>2020-07-15T16:48:35.048Z</time>
      </trkpt>
      <trkpt lat="68.24259" lon="14.12156">
        <ele>10.108546</ele>
        <time>2020-07-15T16:48:36.769Z</time>
      </trkpt>
      <trkpt lat="68.24284" lon="14.12213">
        <ele>10.107158</ele>
        <time>2020-07-15T16:48:42.618Z</time>
      </trkpt>
      <trkpt lat="68.24313" lon="14.12297">
        <ele>10.081443</ele>
        <time>2020-07-15T16:48:50.064Z</time>
      </trkpt>
      <trkpt lat="68.24343" lon="14.12415">
        <ele>9.979385</ele>
        <time>2020-07-15T16:48:59.763Z</time>
      </trkpt>
      <trkpt lat="68.24349" lon="14.12439">
        <ele>9.959705</ele>
        <time>2020-07-15T16:49:01.863Z</time>
      </trkpt>
      <trkpt lat="68.24359" lon="14.1248">
        <ele>9.924368</ele>
        <time>2020-07-15T16:49:04.964Z</time>
      </trkpt>
      <trkpt lat="68.24394" lon="14.12606">
        <ele>9.81323</ele>
        <time>2020-07-15T16:49:14.817Z</time>
      </trkpt>
      <trkpt lat="68.24467" lon="14.12813">
        <ele>9.928328</ele>
        <time>2020-07-15T16:49:32.310Z</time>
      </trkpt>
      <trkpt lat="68.24482" lon="14.12857">
        <ele>9.972797</ele>
        <time>2020-07-15T16:49:36.124Z</time>
      </trkpt>
      <trkpt lat="68.24495" lon="14.12893">
        <ele>10.012131</ele>
        <time>2020-07-15T16:49:39.742Z</time>
      </trkpt>
      <trkpt lat="68.24507" lon="14.12928">
        <ele>10.048933</ele>
        <time>2020-07-15T16:49:43.124Z</time>
      </trkpt>
      <trkpt lat="68.24518" lon="14.12959">
        <ele>10.081428</ele>
        <time>2020-07-15T16:49:46.300Z</time>
      </trkpt>
      <trkpt lat="68.24537" lon="14.13016">
        <ele>10.174201</ele>
        <time>2020-07-15T16:49:52.146Z</time>
      </trkpt>
      <trkpt lat="68.24659" lon="14.13366">
        <ele>13.198235</ele>
        <time>2020-07-15T16:50:34.479Z</time>
      </trkpt>
      <trkpt lat="68.24691" lon="14.13502">
        <ele>13.782894</ele>
        <time>2020-07-15T16:50:49.002Z</time>
      </trkpt>
      <trkpt lat="68.24713" lon="14.13831">
        <ele>14.875401</ele>
        <time>2020-07-15T16:51:14.143Z</time>
      </trkpt>
      <trkpt lat="68.24714" lon="14.13933">
        <ele>14.232268</ele>
        <time>2020-07-15T16:51:20.206Z</time>
      </trkpt>
      <trkpt lat="68.24712" lon="14.1401">
        <ele>13.747946</ele>
        <time>2020-07-15T16:51:24.474Z</time>
      </trkpt>
      <trkpt lat="68.24691" lon="14.14273">
        <ele>12.054234</ele>
        <time>2020-07-15T16:51:38.248Z</time>
      </trkpt>
      <trkpt lat="68.24702" lon="14.14381">
        <ele>11.022935</ele>
        <time>2020-07-15T16:51:43.682Z</time>
      </trkpt>
      <trkpt lat="68.2474" lon="14.14607">
        <ele>8.543142</ele>
        <time>2020-07-15T16:51:55.908Z</time>
      </trkpt>
      <trkpt lat="68.24747" lon="14.14633">
        <ele>8.225454</ele>
        <time>2020-07-15T16:51:57.443Z</time>
      </trkpt>
      <trkpt lat="68.24753" lon="14.1465">
        <ele>7.997599</ele>
        <time>2020-07-15T16:51:58.570Z</time>
      </trkpt>
      <trkpt lat="68.24767" lon="14.14691">
        <ele>7.439012</ele>
        <time>2020-07-15T16:52:01.465Z</time>
      </trkpt>
      <trkpt lat="68.24822" lon="14.14799">
        <ele>6.149408</ele>
        <time>2020-07-15T16:52:11.097Z</time>
      </trkpt>
      <trkpt lat="68.24848" lon="14.14886">
        <ele>5.457047</ele>
        <time>2020-07-15T16:52:17.047Z</time>
      </trkpt>
      <trkpt lat="68.24892" lon="14.1507">
        <ele>4.113064</ele>
        <time>2020-07-15T16:52:29.187Z</time>
      </trkpt>
      <trkpt lat="68.2491" lon="14.15122">
        <ele>3.801886</ele>
        <time>2020-07-15T16:52:33.262Z</time>
      </trkpt>
      <trkpt lat="68.25092" lon="14.15351">
        <ele>2.293054</ele>
        <time>2020-07-15T16:53:04.026Z</time>
      </trkpt>
      <trkpt lat="68.25181" lon="14.15501">
        <ele>2.654292</ele>
        <time>2020-07-15T16:53:24.575Z</time>
      </trkpt>
      <trkpt lat="68.252" lon="14.15522">
        <ele>2.724473</ele>
        <time>2020-07-15T16:53:29.181Z</time>
      </trkpt>
      <trkpt lat="68.25234" lon="14.15536">
        <ele>3.202075</ele>
        <time>2020-07-15T16:53:37.002Z</time>
      </trkpt>
      <trkpt lat="68.25281" lon="14.15532">
        <ele>4.107988</ele>
        <time>2020-07-15T16:53:48.534Z</time>
      </trkpt>
      <trkpt lat="68.25321" lon="14.15569">
        <ele>4.930613</ele>
        <time>2020-07-15T16:53:59.228Z</time>
      </trkpt>
      <trkpt lat="68.2535" lon="14.15631">
        <ele>5.63188</ele>
        <time>2020-07-15T16:54:08.400Z</time>
      </trkpt>
      <trkpt lat="68.25378" lon="14.15781">
        <ele>6.73967</ele>
        <time>2020-07-15T16:54:23.240Z</time>
      </trkpt>
      <trkpt lat="68.25384" lon="14.15814">
        <ele>6.959181</ele>
        <time>2020-07-15T16:54:26.392Z</time>
      </trkpt>
      <trkpt lat="68.25388" lon="14.15834">
        <ele>7.104385</ele>
        <time>2020-07-15T16:54:28.338Z</time>
      </trkpt>
      <trkpt lat="68.25409" lon="14.15896">
        <ele>7.60593</ele>
        <time>2020-07-15T16:54:35.363Z</time>
      </trkpt>
      <trkpt lat="68.2545" lon="14.15977">
        <ele>8.453649</ele>
        <time>2020-07-15T16:54:47.075Z</time>
      </trkpt>
      <trkpt lat="68.25515" lon="14.16042">
        <ele>9.641243</ele>
        <time>2020-07-15T16:55:02.679Z</time>
      </trkpt>
      <trkpt lat="68.25659" lon="14.16234">
        <ele>12.599601</ele>
        <time>2020-07-15T16:55:40.857Z</time>
      </trkpt>
      <trkpt lat="68.25845" lon="14.16387">
        <ele>16.627585</ele>
        <time>2020-07-15T16:56:29.500Z</time>
      </trkpt>
      <trkpt lat="68.259" lon="14.16405">
        <ele>17.280434</ele>
        <time>2020-07-15T16:56:43.018Z</time>
      </trkpt>
      <trkpt lat="68.25964" lon="14.16406">
        <ele>18.018276</ele>
        <time>2020-07-15T16:56:57.086Z</time>
      </trkpt>
      <trkpt lat="68.25994" lon="14.16402">
        <ele>18.362099</ele>
        <time>2020-07-15T16:57:02.628Z</time>
      </trkpt>
      <trkpt lat="68.26027" lon="14.16394">
        <ele>18.054823</ele>
        <time>2020-07-15T16:57:08.061Z</time>
      </trkpt>
      <trkpt lat="68.26124" lon="14.16365">
        <ele>16.252809</ele>
        <time>2020-07-15T16:57:22.289Z</time>
      </trkpt>
      <trkpt lat="68.26133" lon="14.16359">
        <ele>16.071694</ele>
        <time>2020-07-15T16:57:23.598Z</time>
      </trkpt>
      <trkpt lat="68.26141" lon="14.16351">
        <ele>15.914801</ele>
        <time>2020-07-15T16:57:24.664Z</time>
      </trkpt>
      <trkpt lat="68.26302" lon="14.16142">
        <ele>11.202147</ele>
        <time>2020-07-15T16:57:47.970Z</time>
      </trkpt>
      <trkpt lat="68.26381" lon="14.16021">
        <ele>9.312207</ele>
        <time>2020-07-15T16:58:00.751Z</time>
      </trkpt>
      <trkpt lat="68.26466" lon="14.15864">
        <ele>7.916659</ele>
        <time>2020-07-15T16:58:16.133Z</time>
      </trkpt>
      <trkpt lat="68.26501" lon="14.15804">
        <ele>7.619442</ele>
        <time>2020-07-15T16:58:22.912Z</time>
      </trkpt>
      <trkpt lat="68.26531" lon="14.15762">
        <ele>7.843287</ele>
        <time>2020-07-15T16:58:29.161Z</time>
      </trkpt>
      <trkpt lat="68.26596" lon="14.15703">
        <ele>8.29166</ele>
        <time>2020-07-15T16:58:42.693Z</time>
      </trkpt>
      <trkpt lat="68.26606" lon="14.15682">
        <ele>8.372424</ele>
        <time>2020-07-15T16:58:45.227Z</time>
      </trkpt>
      <trkpt lat="68.26657" lon="14.15466">
        <ele>8.985704</ele>
        <time>2020-07-15T16:59:07.307Z</time>
      </trkpt>
      <trkpt lat="68.26674" lon="14.15421">
        <ele>9.134995</ele>
        <time>2020-07-15T16:59:13.115Z</time>
      </trkpt>
      <trkpt lat="68.26786" lon="14.15213">
        <ele>9.289444</ele>
        <time>2020-07-15T16:59:38.782Z</time>
      </trkpt>
      <trkpt lat="68.26832" lon="14.15139">
        <ele>7.967763</ele>
        <time>2020-07-15T16:59:45.961Z</time>
      </trkpt>
      <trkpt lat="68.26845" lon="14.15138">
        <ele>7.631517</ele>
        <time>2020-07-15T16:59:47.939Z</time>
      </trkpt>
      <trkpt lat="68.26855" lon="14.15159">
        <ele>7.332715</ele>
        <time>2020-07-15T16:59:49.639Z</time>
      </trkpt>
      <trkpt lat="68.26857" lon="14.15165">
        <ele>7.251321</ele>
        <time>2020-07-15T16:59:49.988Z</time>
      </trkpt>
      <trkpt lat="68.26848" lon="14.15199">
        <ele>6.860302</ele>
        <time>2020-07-15T16:59:52.111Z</time>
      </trkpt>
      <trkpt lat="68.26841" lon="14.15228">
        <ele>6.552131</ele>
        <time>2020-07-15T16:59:53.843Z</time>
      </trkpt>
      <trkpt lat="68.26833" lon="14.15269">
        <ele>6.130919</ele>
        <time>2020-07-15T16:59:55.904Z</time>
      </trkpt>
      <trkpt lat="68.26824" lon="14.15361">
        <ele>5.280759</ele>
        <time>2020-07-15T17:00:00.417Z</time>
      </trkpt>
      <trkpt lat="68.26821" lon="14.15444">
        <ele>4.659193</ele>
        <time>2020-07-15T17:00:04.287Z</time>
      </trkpt>
      <trkpt lat="68.26822" lon="14.15671">
        <ele>2.941821</ele>
        <time>2020-07-15T17:00:15.664Z</time>
      </trkpt>
      <trkpt lat="68.26822" lon="14.15851">
        <ele>1.795446</ele>
        <time>2020-07-15T17:00:27.402Z</time>
      </trkpt>
      <trkpt lat="68.26822" lon="14.15876">
        <ele>1.856943</ele>
        <time>2020-07-15T17:00:29.111Z</time>
      </trkpt>
      <trkpt lat="68.26822" lon="14.15927">
        <ele>1.979994</ele>
        <time>2020-07-15T17:00:32.786Z</time>
      </trkpt>
      <trkpt lat="68.26821" lon="14.15962">
        <ele>2.064887</ele>
        <time>2020-07-15T17:00:35.047Z</time>
      </trkpt>
      <trkpt lat="68.2682" lon="14.15986">
        <ele>2.123519</ele>
        <time>2020-07-15T17:00:37.002Z</time>
      </trkpt>
      <trkpt lat="68.26816" lon="14.16046">
        <ele>2.270674</ele>
        <time>2020-07-15T17:00:41.345Z</time>
      </trkpt>
      <trkpt lat="68.26812" lon="14.16113">
        <ele>2.436421</ele>
        <time>2020-07-15T17:00:46.829Z</time>
      </trkpt>
      <trkpt lat="68.26808" lon="14.16172">
        <ele>2.582808</ele>
        <time>2020-07-15T17:00:51.440Z</time>
      </trkpt>
      <trkpt lat="68.26777" lon="14.16539">
        <ele>3.639984</ele>
        <time>2020-07-15T17:01:20.750Z</time>
      </trkpt>
      <trkpt lat="68.26749" lon="14.16715">
        <ele>4.217628</ele>
        <time>2020-07-15T17:01:34.949Z</time>
      </trkpt>
      <trkpt lat="68.26722" lon="14.16835">
        <ele>4.500056</ele>
        <time>2020-07-15T17:01:45.327Z</time>
      </trkpt>
      <trkpt lat="68.26714" lon="14.1686">
        <ele>4.540446</ele>
        <time>2020-07-15T17:01:47.762Z</time>
      </trkpt>
      <trkpt lat="68.26704" lon="14.16894">
        <ele>4.59637</ele>
        <time>2020-07-15T17:01:50.803Z</time>
      </trkpt>
      <trkpt lat="68.26667" lon="14.17009">
        <ele>4.788935</ele>
        <time>2020-07-15T17:02:01.666Z</time>
      </trkpt>
      <trkpt lat="68.26639" lon="14.17119">
        <ele>4.958888</ele>
        <time>2020-07-15T17:02:10.737Z</time>
      </trkpt>
      <trkpt lat="68.26584" lon="14.17488">
        <ele>5.043904</ele>
        <time>2020-07-15T17:02:37.257Z</time>
      </trkpt>
      <trkpt lat="68.2656" lon="14.17611">
        <ele>5.049716</ele>
        <time>2020-07-15T17:02:46.341Z</time>
      </trkpt>
      <trkpt lat="68.26282" lon="14.18593">
        <ele>4.156811</ele>
        <time>2020-07-15T17:04:05.400Z</time>
      </trkpt>
      <trkpt lat="68.26254" lon="14.18715">
        <ele>4.029706</ele>
        <time>2020-07-15T17:04:14.328Z</time>
      </trkpt>
      <trkpt lat="68.2621" lon="14.18956">
        <ele>3.923654</ele>
        <time>2020-07-15T17:04:31.490Z</time>
      </trkpt>
      <trkpt lat="68.26179" lon="14.19075">
        <ele>3.891115</ele>
        <time>2020-07-15T17:04:40.929Z</time>
      </trkpt>
      <trkpt lat="68.26141" lon="14.19184">
        <ele>3.869293</ele>
        <time>2020-07-15T17:04:51.165Z</time>
      </trkpt>
      <trkpt lat="68.26109" lon="14.19253">
        <ele>3.984326</ele>
        <time>2020-07-15T17:04:58.909Z</time>
      </trkpt>
      <trkpt lat="68.25827" lon="14.19748">
        <ele>4.786157</ele>
        <time>2020-07-15T17:06:02.058Z</time>
      </trkpt>
      <trkpt lat="68.25795" lon="14.19823">
        <ele>4.749185</ele>
        <time>2020-07-15T17:06:09.443Z</time>
      </trkpt>
      <trkpt lat="68.25765" lon="14.19923">
        <ele>4.707234</ele>
        <time>2020-07-15T17:06:17.709Z</time>
      </trkpt>
      <trkpt lat="68.25731" lon="14.20109">
        <ele>4.665661</ele>
        <time>2020-07-15T17:06:30.806Z</time>
      </trkpt>
      <trkpt lat="68.25719" lon="14.2027">
        <ele>4.800237</ele>
        <time>2020-07-15T17:06:41.533Z</time>
      </trkpt>
      <trkpt lat="68.25722" lon="14.20462">
        <ele>4.95773</ele>
        <time>2020-07-15T17:06:55.537Z</time>
      </trkpt>
      <trkpt lat="68.25736" lon="14.20607">
        <ele>5.069411</ele>
        <time>2020-07-15T17:07:06.320Z</time>
      </trkpt>
      <trkpt lat="68.25766" lon="14.20866">
        <ele>5.223177</ele>
        <time>2020-07-15T17:07:24.716Z</time>
      </trkpt>
      <trkpt lat="68.25791" lon="14.21069">
        <ele>5.30638</ele>
        <time>2020-07-15T17:07:38.874Z</time>
      </trkpt>
      <trkpt lat="68.25797" lon="14.21123">
        <ele>5.287647</ele>
        <time>2020-07-15T17:07:42.701Z</time>
      </trkpt>
      <trkpt lat="68.25859" lon="14.21746">
        <ele>5.203908</ele>
        <time>2020-07-15T17:08:24.192Z</time>
      </trkpt>
      <trkpt lat="68.25949" lon="14.22846">
        <ele>6.273713</ele>
        <time>2020-07-15T17:09:42.709Z</time>
      </trkpt>
      <trkpt lat="68.25964" lon="14.22993">
        <ele>6.554229</ele>
        <time>2020-07-15T17:09:53.561Z</time>
      </trkpt>
      <trkpt lat="68.26" lon="14.23197">
        <ele>7.089159</ele>
        <time>2020-07-15T17:10:09.955Z</time>
      </trkpt>
      <trkpt lat="68.2608" lon="14.23491">
        <ele>8.907474</ele>
        <time>2020-07-15T17:10:38.010Z</time>
      </trkpt>
      <trkpt lat="68.26137" lon="14.23763">
        <ele>11.224416</ele>
        <time>2020-07-15T17:11:07.987Z</time>
      </trkpt>
      <trkpt lat="68.26161" lon="14.23837">
        <ele>11.878006</ele>
        <time>2020-07-15T17:11:18.924Z</time>
      </trkpt>
      <trkpt lat="68.26191" lon="14.23901">
        <ele>12.558143</ele>
        <time>2020-07-15T17:11:30.350Z</time>
      </trkpt>
      <trkpt lat="68.26199" lon="14.23915">
        <ele>12.729223</ele>
        <time>2020-07-15T17:11:33.821Z</time>
      </trkpt>
      <trkpt lat="68.26242" lon="14.2399">
        <ele>13.640967</ele>
        <time>2020-07-15T17:11:44.573Z</time>
      </trkpt>
      <trkpt lat="68.26279" lon="14.24077">
        <ele>14.081884</ele>
        <time>2020-07-15T17:11:52.126Z</time>
      </trkpt>
      <trkpt lat="68.26307" lon="14.2419">
        <ele>12.751931</ele>
        <time>2020-07-15T17:12:00.327Z</time>
      </trkpt>
      <trkpt lat="68.2631" lon="14.24206">
        <ele>12.582381</ele>
        <time>2020-07-15T17:12:01.264Z</time>
      </trkpt>
      <trkpt lat="68.26314" lon="14.24234">
        <ele>12.286768</ele>
        <time>2020-07-15T17:12:02.542Z</time>
      </trkpt>
      <trkpt lat="68.26322" lon="14.24309">
        <ele>11.519057</ele>
        <time>2020-07-15T17:12:06.531Z</time>
      </trkpt>
      <trkpt lat="68.26325" lon="14.24402">
        <ele>10.60765</ele>
        <time>2020-07-15T17:12:10.826Z</time>
      </trkpt>
      <trkpt lat="68.26318" lon="14.24558">
        <ele>9.281258</ele>
        <time>2020-07-15T17:12:17.906Z</time>
      </trkpt>
      <trkpt lat="68.26164" lon="14.26137">
        <ele>1.310823</ele>
        <time>2020-07-15T17:13:49.510Z</time>
      </trkpt>
      <trkpt lat="68.26159" lon="14.2619">
        <ele>1.18534</ele>
        <time>2020-07-15T17:13:52.960Z</time>
      </trkpt>
      <trkpt lat="68.26155" lon="14.26224">
        <ele>1.103987</ele>
        <time>2020-07-15T17:13:55.219Z</time>
      </trkpt>
      <trkpt lat="68.2612" lon="14.26591">
        <ele>1.832528</ele>
        <time>2020-07-15T17:14:20.162Z</time>
      </trkpt>
      <trkpt lat="68.26089" lon="14.26904">
        <ele>4.295903</ele>
        <time>2020-07-15T17:14:50.025Z</time>
      </trkpt>
      <trkpt lat="68.26071" lon="14.27087">
        <ele>8.114271</ele>
        <time>2020-07-15T17:15:13.279Z</time>
      </trkpt>
      <trkpt lat="68.26061" lon="14.27181">
        <ele>10.067397</ele>
        <time>2020-07-15T17:15:26.509Z</time>
      </trkpt>
      <trkpt lat="68.26045" lon="14.2729">
        <ele>12.434991</ele>
        <time>2020-07-15T17:15:45.083Z</time>
      </trkpt>
      <trkpt lat="68.26022" lon="14.27379">
        <ele>14.381587</ele>
        <time>2020-07-15T17:16:02.307Z</time>
      </trkpt>
      <trkpt lat="68.25994" lon="14.27449">
        <ele>16.158608</ele>
        <time>2020-07-15T17:16:18.369Z</time>
      </trkpt>
      <trkpt lat="68.2596" lon="14.27502">
        <ele>17.933935</ele>
        <time>2020-07-15T17:16:31.847Z</time>
      </trkpt>
      <trkpt lat="68.2596" lon="14.27502">
        <ele>17.959057</ele>
        <time>2020-07-15T17:16:32.464Z</time>
      </trkpt>
      <trkpt lat="68.2595" lon="14.27514">
        <ele>18.465914</ele>
        <time>2020-07-15T17:16:35.258Z</time>
      </trkpt>
      <trkpt lat="68.25906" lon="14.27541">
        <ele>20.530189</ele>
        <time>2020-07-15T17:16:46.076Z</time>
      </trkpt>
      <trkpt lat="68.2586" lon="14.27538">
        <ele>20.392371</ele>
        <time>2020-07-15T17:16:54.115Z</time>
      </trkpt>
      <trkpt lat="68.2584" lon="14.27532">
        <ele>19.757955</ele>
        <time>2020-07-15T17:16:57.463Z</time>
      </trkpt>
      <trkpt lat="68.2581" lon="14.27521">
        <ele>18.771867</ele>
        <time>2020-07-15T17:17:01.601Z</time>
      </trkpt>
      <trkpt lat="68.2575" lon="14.27495">
        <ele>16.764692</ele>
        <time>2020-07-15T17:17:08.975Z</time>
      </trkpt>
      <trkpt lat="68.25721" lon="14.27484">
        <ele>15.808041</ele>
        <time>2020-07-15T17:17:12.456Z</time>
      </trkpt>
      <trkpt lat="68.25698" lon="14.27477">
        <ele>14.984114</ele>
        <time>2020-07-15T17:17:15.099Z</time>
      </trkpt>
      <trkpt lat="68.25671" lon="14.27475">
        <ele>13.86475</ele>
        <time>2020-07-15T17:17:18.359Z</time>
      </trkpt>
      <trkpt lat="68.25655" lon="14.27475">
        <ele>13.204021</ele>
        <time>2020-07-15T17:17:20.359Z</time>
      </trkpt>
      <trkpt lat="68.25625" lon="14.27479">
        <ele>11.990644</ele>
        <time>2020-07-15T17:17:24.038Z</time>
      </trkpt>
      <trkpt lat="68.25614" lon="14.27481">
        <ele>11.547806</ele>
        <time>2020-07-15T17:17:25.435Z</time>
      </trkpt>
      <trkpt lat="68.25534" lon="14.27493">
        <ele>8.292</ele>
        <time>2020-07-15T17:17:35.869Z</time>
      </trkpt>
      <trkpt lat="68.25458" lon="14.27507">
        <ele>6.94747</ele>
        <time>2020-07-15T17:17:46.728Z</time>
      </trkpt>
      <trkpt lat="68.25435" lon="14.27511">
        <ele>6.576002</ele>
        <time>2020-07-15T17:17:50.040Z</time>
      </trkpt>
      <trkpt lat="68.25382" lon="14.27519">
        <ele>5.676031</ele>
        <time>2020-07-15T17:17:58.180Z</time>
      </trkpt>
      <trkpt lat="68.25323" lon="14.27529">
        <ele>4.998781</ele>
        <time>2020-07-15T17:18:07.145Z</time>
      </trkpt>
      <trkpt lat="68.25257" lon="14.27562">
        <ele>4.613072</ele>
        <time>2020-07-15T17:18:17.543Z</time>
      </trkpt>
      <trkpt lat="68.25194" lon="14.27655">
        <ele>4.20181</ele>
        <time>2020-07-15T17:18:29.248Z</time>
      </trkpt>
      <trkpt lat="68.25158" lon="14.27728">
        <ele>4.656486</ele>
        <time>2020-07-15T17:18:38.572Z</time>
      </trkpt>
      <trkpt lat="68.2512" lon="14.27803">
        <ele>5.424789</ele>
        <time>2020-07-15T17:18:49.515Z</time>
      </trkpt>
      <trkpt lat="68.25078" lon="14.2788">
        <ele>6.252245</ele>
        <time>2020-07-15T17:19:02.149Z</time>
      </trkpt>
      <trkpt lat="68.25052" lon="14.27921">
        <ele>6.740962</ele>
        <time>2020-07-15T17:19:09.575Z</time>
      </trkpt>
      <trkpt lat="68.25036" lon="14.27943">
        <ele>7.022798</ele>
        <time>2020-07-15T17:19:14.625Z</time>
      </trkpt>
      <trkpt lat="68.24982" lon="14.28004">
        <ele>7.253577</ele>
        <time>2020-07-15T17:19:28.274Z</time>
      </trkpt>
      <trkpt lat="68.24916" lon="14.2805">
        <ele>7.486636</ele>
        <time>2020-07-15T17:19:42.884Z</time>
      </trkpt>
      <trkpt lat="68.24784" lon="14.28081">
        <ele>5.877003</ele>
        <time>2020-07-15T17:20:01.413Z</time>
      </trkpt>
      <trkpt lat="68.24713" lon="14.28089">
        <ele>4.236528</ele>
        <time>2020-07-15T17:20:10.760Z</time>
      </trkpt>
      <trkpt lat="68.24697" lon="14.28089">
        <ele>3.858113</ele>
        <time>2020-07-15T17:20:12.990Z</time>
      </trkpt>
      <trkpt lat="68.24685" lon="14.2809">
        <ele>3.577109</ele>
        <time>2020-07-15T17:20:14.656Z</time>
      </trkpt>
      <trkpt lat="68.24592" lon="14.281">
        <ele>3.391156</ele>
        <time>2020-07-15T17:20:28.460Z</time>
      </trkpt>
      <trkpt lat="68.24371" lon="14.28122">
        <ele>5.416817</ele>
        <time>2020-07-15T17:21:18.640Z</time>
      </trkpt>
      <trkpt lat="68.24251" lon="14.28136">
        <ele>7.207675</ele>
        <time>2020-07-15T17:21:47.077Z</time>
      </trkpt>
      <trkpt lat="68.24239" lon="14.28138">
        <ele>7.376653</ele>
        <time>2020-07-15T17:21:50.127Z</time>
      </trkpt>
      <trkpt lat="68.24184" lon="14.28144">
        <ele>8.151711</ele>
        <time>2020-07-15T17:22:02.281Z</time>
      </trkpt>
      <trkpt lat="68.24163" lon="14.28147">
        <ele>8.447906</ele>
        <time>2020-07-15T17:22:07.048Z</time>
      </trkpt>
      <trkpt lat="68.24121" lon="14.28148">
        <ele>8.64899</ele>
        <time>2020-07-15T17:22:15.297Z</time>
      </trkpt>
      <trkpt lat="68.2411" lon="14.28145">
        <ele>8.612163</ele>
        <time>2020-07-15T17:22:16.965Z</time>
      </trkpt>
      <trkpt lat="68.24099" lon="14.28138">
        <ele>8.57083</ele>
        <time>2020-07-15T17:22:19.609Z</time>
      </trkpt>
      <trkpt lat="68.24072" lon="14.28109">
        <ele>8.468678</ele>
        <time>2020-07-15T17:22:24.362Z</time>
      </trkpt>
      <trkpt lat="68.24067" lon="14.28101">
        <ele>8.448083</ele>
        <time>2020-07-15T17:22:25.452Z</time>
      </trkpt>
      <trkpt lat="68.24062" lon="14.28092">
        <ele>8.427786</ele>
        <time>2020-07-15T17:22:26.363Z</time>
      </trkpt>
      <trkpt lat="68.24036" lon="14.28022">
        <ele>8.295503</ele>
        <time>2020-07-15T17:22:32.232Z</time>
      </trkpt>
      <trkpt lat="68.24031" lon="14.28001">
        <ele>8.263316</ele>
        <time>2020-07-15T17:22:33.675Z</time>
      </trkpt>
      <trkpt lat="68.24026" lon="14.2798">
        <ele>8.231076</ele>
        <time>2020-07-15T17:22:34.962Z</time>
      </trkpt>
      <trkpt lat="68.24017" lon="14.27911">
        <ele>8.134894</ele>
        <time>2020-07-15T17:22:39.395Z</time>
      </trkpt>
      <trkpt lat="68.24015" lon="14.27814">
        <ele>7.866269</ele>
        <time>2020-07-15T17:22:45.079Z</time>
      </trkpt>
      <trkpt lat="68.24018" lon="14.27753">
        <ele>7.647927</ele>
        <time>2020-07-15T17:22:48.581Z</time>
      </trkpt>
      <trkpt lat="68.24022" lon="14.27681">
        <ele>7.38935</ele>
        <time>2020-07-15T17:22:52.692Z</time>
      </trkpt>
      <trkpt lat="68.24031" lon="14.27506">
        <ele>6.760345</ele>
        <time>2020-07-15T17:23:02.857Z</time>
      </trkpt>
      <trkpt lat="68.24042" lon="14.27316">
        <ele>6.223409</ele>
        <time>2020-07-15T17:23:13.947Z</time>
      </trkpt>
      <trkpt lat="68.24051" lon="14.27152">
        <ele>5.930283</ele>
        <time>2020-07-15T17:23:24.177Z</time>
      </trkpt>
      <trkpt lat="68.24055" lon="14.27066">
        <ele>5.777089</ele>
        <time>2020-07-15T17:23:29.577Z</time>
      </trkpt>
      <trkpt lat="68.24056" lon="14.27021">
        <ele>5.69628</ele>
        <time>2020-07-15T17:23:32.453Z</time>
      </trkpt>
      <trkpt lat="68.24057" lon="14.26869">
        <ele>5.588386</ele>
        <time>2020-07-15T17:23:41.932Z</time>
      </trkpt>
      <trkpt lat="68.24055" lon="14.26744">
        <ele>5.8169</ele>
        <time>2020-07-15T17:23:50.038Z</time>
      </trkpt>
      <trkpt lat="68.24051" lon="14.2653">
        <ele>6.203922</ele>
        <time>2020-07-15T17:24:05.977Z</time>
      </trkpt>
      <trkpt lat="68.24049" lon="14.26449">
        <ele>6.352159</ele>
        <time>2020-07-15T17:24:12.432Z</time>
      </trkpt>
      <trkpt lat="68.24049" lon="14.26433">
        <ele>6.381158</ele>
        <time>2020-07-15T17:24:13.669Z</time>
      </trkpt>
      <trkpt lat="68.24046" lon="14.26391">
        <ele>6.583455</ele>
        <time>2020-07-15T17:24:17.201Z</time>
      </trkpt>
      <trkpt lat="68.24044" lon="14.26364">
        <ele>6.72841</ele>
        <time>2020-07-15T17:24:19.406Z</time>
      </trkpt>
      <trkpt lat="68.24041" lon="14.26327">
        <ele>6.920814</ele>
        <time>2020-07-15T17:24:22.360Z</time>
      </trkpt>
      <trkpt lat="68.24037" lon="14.26295">
        <ele>7.089637</ele>
        <time>2020-07-15T17:24:25.301Z</time>
      </trkpt>
      <trkpt lat="68.23967" lon="14.25903">
        <ele>9.35964</ele>
        <time>2020-07-15T17:25:01.368Z</time>
      </trkpt>
      <trkpt lat="68.23938" lon="14.25445">
        <ele>11.64792</ele>
        <time>2020-07-15T17:25:41.280Z</time>
      </trkpt>
      <trkpt lat="68.23913" lon="14.25284">
        <ele>11.64811</ele>
        <time>2020-07-15T17:25:55.273Z</time>
      </trkpt>
      <trkpt lat="68.23902" lon="14.25234">
        <ele>11.648173</ele>
        <time>2020-07-15T17:25:59.792Z</time>
      </trkpt>
      <trkpt lat="68.23891" lon="14.2519">
        <ele>11.648233</ele>
        <time>2020-07-15T17:26:02.541Z</time>
      </trkpt>
      <trkpt lat="68.2389" lon="14.25188">
        <ele>11.648235</ele>
        <time>2020-07-15T17:26:03.061Z</time>
      </trkpt>
      <trkpt lat="68.23884" lon="14.25167">
        <ele>11.648265</ele>
        <time>2020-07-15T17:26:04.739Z</time>
      </trkpt>
      <trkpt lat="68.23873" lon="14.25135">
        <ele>11.648313</ele>
        <time>2020-07-15T17:26:07.207Z</time>
      </trkpt>
      <trkpt lat="68.23871" lon="14.2513">
        <ele>11.64832</ele>
        <time>2020-07-15T17:26:07.464Z</time>
      </trkpt>
      <trkpt lat="68.23821" lon="14.24991">
        <ele>10.315436</ele>
        <time>2020-07-15T17:26:17.522Z</time>
      </trkpt>
      <trkpt lat="68.23798" lon="14.24926">
        <ele>9.484367</ele>
        <time>2020-07-15T17:26:22.634Z</time>
      </trkpt>
      <trkpt lat="68.2377" lon="14.24844">
        <ele>8.445603</ele>
        <time>2020-07-15T17:26:27.811Z</time>
      </trkpt>
      <trkpt lat="68.23732" lon="14.24737">
        <ele>7.113091</ele>
        <time>2020-07-15T17:26:34.868Z</time>
      </trkpt>
      <trkpt lat="68.2373" lon="14.24731">
        <ele>7.084169</ele>
        <time>2020-07-15T17:26:35.257Z</time>
      </trkpt>
      <trkpt lat="68.23615" lon="14.24399">
        <ele>5.405067</ele>
        <time>2020-07-15T17:27:02.008Z</time>
      </trkpt>
      <trkpt lat="68.23473" lon="14.23998">
        <ele>6.745153</ele>
        <time>2020-07-15T17:27:43.419Z</time>
      </trkpt>
      <trkpt lat="68.23399" lon="14.23787">
        <ele>8.371161</ele>
        <time>2020-07-15T17:28:07.543Z</time>
      </trkpt>
      <trkpt lat="68.23294" lon="14.23488">
        <ele>11.594417</ele>
        <time>2020-07-15T17:28:45.369Z</time>
      </trkpt>
      <trkpt lat="68.23084" lon="14.22893">
        <ele>19.968911</ele>
        <time>2020-07-15T17:30:06.729Z</time>
      </trkpt>
      <trkpt lat="68.22967" lon="14.22558">
        <ele>25.376419</ele>
        <time>2020-07-15T17:30:54.944Z</time>
      </trkpt>
      <trkpt lat="68.2291" lon="14.22435">
        <ele>27.82377</ele>
        <time>2020-07-15T17:31:16.272Z</time>
      </trkpt>
      <trkpt lat="68.22707" lon="14.22157">
        <ele>34.764313</ele>
        <time>2020-07-15T17:32:20.462Z</time>
      </trkpt>
      <trkpt lat="68.22533" lon="14.21986">
        <ele>37.848702</ele>
        <time>2020-07-15T17:33:02.523Z</time>
      </trkpt>
      <trkpt lat="68.2243" lon="14.21891">
        <ele>37.763709</ele>
        <time>2020-07-15T17:33:24.511Z</time>
      </trkpt>
      <trkpt lat="68.22324" lon="14.21792">
        <ele>36.584658</ele>
        <time>2020-07-15T17:33:41.058Z</time>
      </trkpt>
      <trkpt lat="68.22279" lon="14.21748">
        <ele>34.837715</ele>
        <time>2020-07-15T17:33:47.469Z</time>
      </trkpt>
      <trkpt lat="68.22275" lon="14.21744">
        <ele>34.696907</ele>
        <time>2020-07-15T17:33:47.969Z</time>
      </trkpt>
      <trkpt lat="68.22255" lon="14.21726">
        <ele>33.920116</ele>
        <time>2020-07-15T17:33:50.627Z</time>
      </trkpt>
      <trkpt lat="68.22239" lon="14.21713">
        <ele>33.322476</ele>
        <time>2020-07-15T17:33:52.767Z</time>
      </trkpt>
      <trkpt lat="68.22227" lon="14.21703">
        <ele>32.868673</ele>
        <time>2020-07-15T17:33:54.239Z</time>
      </trkpt>
      <trkpt lat="68.21988" lon="14.21524">
        <ele>22.974269</ele>
        <time>2020-07-15T17:34:24.691Z</time>
      </trkpt>
      <trkpt lat="68.21612" lon="14.21444">
        <ele>19.148459</ele>
        <time>2020-07-15T17:35:24.779Z</time>
      </trkpt>
      <trkpt lat="68.21571" lon="14.21451">
        <ele>18.962608</ele>
        <time>2020-07-15T17:35:31.761Z</time>
      </trkpt>
      <trkpt lat="68.21534" lon="14.21479">
        <ele>18.787215</ele>
        <time>2020-07-15T17:35:38.352Z</time>
      </trkpt>
      <trkpt lat="68.21414" lon="14.21619">
        <ele>17.982558</ele>
        <time>2020-07-15T17:36:00.020Z</time>
      </trkpt>
      <trkpt lat="68.21369" lon="14.21702">
        <ele>17.554025</ele>
        <time>2020-07-15T17:36:08.609Z</time>
      </trkpt>
      <trkpt lat="68.21343" lon="14.21761">
        <ele>17.289405</ele>
        <time>2020-07-15T17:36:13.892Z</time>
      </trkpt>
      <trkpt lat="68.21326" lon="14.21799">
        <ele>17.117923</ele>
        <time>2020-07-15T17:36:17.345Z</time>
      </trkpt>
      <trkpt lat="68.21316" lon="14.21823">
        <ele>16.986609</ele>
        <time>2020-07-15T17:36:19.394Z</time>
      </trkpt>
      <trkpt lat="68.21259" lon="14.21951">
        <ele>16.104394</ele>
        <time>2020-07-15T17:36:30.791Z</time>
      </trkpt>
      <trkpt lat="68.21163" lon="14.22166">
        <ele>14.653011</ele>
        <time>2020-07-15T17:36:49.481Z</time>
      </trkpt>
      <trkpt lat="68.21136" lon="14.22205">
        <ele>14.335852</ele>
        <time>2020-07-15T17:36:54.023Z</time>
      </trkpt>
      <trkpt lat="68.21101" lon="14.2223">
        <ele>13.95135</ele>
        <time>2020-07-15T17:36:59.513Z</time>
      </trkpt>
      <trkpt lat="68.21045" lon="14.22227">
        <ele>13.364448</ele>
        <time>2020-07-15T17:37:07.868Z</time>
      </trkpt>
      <trkpt lat="68.20919" lon="14.22136">
        <ele>14.221987</ele>
        <time>2020-07-15T17:37:31.179Z</time>
      </trkpt>
      <trkpt lat="68.20873" lon="14.2212">
        <ele>14.774571</ele>
        <time>2020-07-15T17:37:42.345Z</time>
      </trkpt>
      <trkpt lat="68.20827" lon="14.22132">
        <ele>15.708747</ele>
        <time>2020-07-15T17:37:54.734Z</time>
      </trkpt>
      <trkpt lat="68.20683" lon="14.22202">
        <ele>22.259124</ele>
        <time>2020-07-15T17:38:43.092Z</time>
      </trkpt>
      <trkpt lat="68.20657" lon="14.22226">
        <ele>23.442394</ele>
        <time>2020-07-15T17:38:52.941Z</time>
      </trkpt>
      <trkpt lat="68.2063" lon="14.22272">
        <ele>24.511158</ele>
        <time>2020-07-15T17:39:03.767Z</time>
      </trkpt>
      <trkpt lat="68.20608" lon="14.22363">
        <ele>25.843733</ele>
        <time>2020-07-15T17:39:16.548Z</time>
      </trkpt>
      <trkpt lat="68.20599" lon="14.22523">
        <ele>27.860501</ele>
        <time>2020-07-15T17:39:34.609Z</time>
      </trkpt>
      <trkpt lat="68.20598" lon="14.2367">
        <ele>31.679091</ele>
        <time>2020-07-15T17:40:58.723Z</time>
      </trkpt>
      <trkpt lat="68.20611" lon="14.23906">
        <ele>32.046138</ele>
        <time>2020-07-15T17:41:14.500Z</time>
      </trkpt>
      <trkpt lat="68.20617" lon="14.23979">
        <ele>32.16089</ele>
        <time>2020-07-15T17:41:19.723Z</time>
      </trkpt>
      <trkpt lat="68.20652" lon="14.24423">
        <ele>34.02844</ele>
        <time>2020-07-15T17:41:55.899Z</time>
      </trkpt>
      <trkpt lat="68.20658" lon="14.24491">
        <ele>34.370086</ele>
        <time>2020-07-15T17:42:02.052Z</time>
      </trkpt>
      <trkpt lat="68.20663" lon="14.24545">
        <ele>34.642629</ele>
        <time>2020-07-15T17:42:06.947Z</time>
      </trkpt>
      <trkpt lat="68.20667" lon="14.2458">
        <ele>34.851772</ele>
        <time>2020-07-15T17:42:10.313Z</time>
      </trkpt>
      <trkpt lat="68.20697" lon="14.24797">
        <ele>36.233265</ele>
        <time>2020-07-15T17:42:30.650Z</time>
      </trkpt>
      <trkpt lat="68.20725" lon="14.24985">
        <ele>37.438493</ele>
        <time>2020-07-15T17:42:47.873Z</time>
      </trkpt>
      <trkpt lat="68.20728" lon="14.25007">
        <ele>37.58116</ele>
        <time>2020-07-15T17:42:49.787Z</time>
      </trkpt>
      <trkpt lat="68.20742" lon="14.25095">
        <ele>37.761888</ele>
        <time>2020-07-15T17:42:57.227Z</time>
      </trkpt>
      <trkpt lat="68.20763" lon="14.25227">
        <ele>38.025206</ele>
        <time>2020-07-15T17:43:08.048Z</time>
      </trkpt>
      <trkpt lat="68.20784" lon="14.25379">
        <ele>38.324577</ele>
        <time>2020-07-15T17:43:19.188Z</time>
      </trkpt>
      <trkpt lat="68.20787" lon="14.25406">
        <ele>38.377284</ele>
        <time>2020-07-15T17:43:21.179Z</time>
      </trkpt>
      <trkpt lat="68.2079" lon="14.25433">
        <ele>38.429502</ele>
        <time>2020-07-15T17:43:22.887Z</time>
      </trkpt>
      <trkpt lat="68.20809" lon="14.25719">
        <ele>38.139916</ele>
        <time>2020-07-15T17:43:41.198Z</time>
      </trkpt>
      <trkpt lat="68.20843" lon="14.2635">
        <ele>37.217942</ele>
        <time>2020-07-15T17:44:20.620Z</time>
      </trkpt>
      <trkpt lat="68.20845" lon="14.26497">
        <ele>37.089072</ele>
        <time>2020-07-15T17:44:29.714Z</time>
      </trkpt>
      <trkpt lat="68.20842" lon="14.26645">
        <ele>37.04264</ele>
        <time>2020-07-15T17:44:39.037Z</time>
      </trkpt>
      <trkpt lat="68.20818" lon="14.26894">
        <ele>36.962211</ele>
        <time>2020-07-15T17:44:55.572Z</time>
      </trkpt>
      <trkpt lat="68.20674" lon="14.27985">
        <ele>47.358408</ele>
        <time>2020-07-15T17:46:31.385Z</time>
      </trkpt>
      <trkpt lat="68.20671" lon="14.28011">
        <ele>48.175666</ele>
        <time>2020-07-15T17:46:35.111Z</time>
      </trkpt>
      <trkpt lat="68.20668" lon="14.28042">
        <ele>49.12877</ele>
        <time>2020-07-15T17:46:41.286Z</time>
      </trkpt>
      <trkpt lat="68.20667" lon="14.28208">
        <ele>54.126032</ele>
        <time>2020-07-15T17:47:15.716Z</time>
      </trkpt>
      <trkpt lat="68.20682" lon="14.28335">
        <ele>59.480828</ele>
        <time>2020-07-15T17:47:47.457Z</time>
      </trkpt>
      <trkpt lat="68.20684" lon="14.28346">
        <ele>60.10306</ele>
        <time>2020-07-15T17:47:51.560Z</time>
      </trkpt>
      <trkpt lat="68.20708" lon="14.28434">
        <ele>65.858134</ele>
        <time>2020-07-15T17:48:21.204Z</time>
      </trkpt>
      <trkpt lat="68.20876" lon="14.29061">
        <ele>97.603197</ele>
        <time>2020-07-15T17:51:11.087Z</time>
      </trkpt>
      <trkpt lat="68.21063" lon="14.29759">
        <ele>57.551827</ele>
        <time>2020-07-15T17:51:44.785Z</time>
      </trkpt>
      <trkpt lat="68.21078" lon="14.29815">
        <ele>53.536825</ele>
        <time>2020-07-15T17:51:47.369Z</time>
      </trkpt>
      <trkpt lat="68.21148" lon="14.30071">
        <ele>37.631181</ele>
        <time>2020-07-15T17:51:59.386Z</time>
      </trkpt>
      <trkpt lat="68.214" lon="14.31002">
        <ele>11.222173</ele>
        <time>2020-07-15T17:52:51.670Z</time>
      </trkpt>
      <trkpt lat="68.2145" lon="14.3122">
        <ele>9.171144</ele>
        <time>2020-07-15T17:53:05.387Z</time>
      </trkpt>
      <trkpt lat="68.21495" lon="14.31517">
        <ele>7.154455</ele>
        <time>2020-07-15T17:53:23.061Z</time>
      </trkpt>
      <trkpt lat="68.21512" lon="14.31768">
        <ele>6.073558</ele>
        <time>2020-07-15T17:53:37.417Z</time>
      </trkpt>
      <trkpt lat="68.21511" lon="14.3203">
        <ele>5.196902</ele>
        <time>2020-07-15T17:53:52.668Z</time>
      </trkpt>
      <trkpt lat="68.2151" lon="14.32064">
        <ele>5.13884</ele>
        <time>2020-07-15T17:53:54.630Z</time>
      </trkpt>
      <trkpt lat="68.21506" lon="14.32128">
        <ele>5.027536</ele>
        <time>2020-07-15T17:53:58.666Z</time>
      </trkpt>
      <trkpt lat="68.21476" lon="14.32434">
        <ele>4.538194</ele>
        <time>2020-07-15T17:54:18.455Z</time>
      </trkpt>
      <trkpt lat="68.2132" lon="14.33783">
        <ele>5.231079</ele>
        <time>2020-07-15T17:55:55.278Z</time>
      </trkpt>
      <trkpt lat="68.2131" lon="14.33866">
        <ele>5.409539</ele>
        <time>2020-07-15T17:56:00.699Z</time>
      </trkpt>
      <trkpt lat="68.21296" lon="14.33994">
        <ele>5.749652</ele>
        <time>2020-07-15T17:56:08.841Z</time>
      </trkpt>
      <trkpt lat="68.21244" lon="14.34447">
        <ele>9.318405</ele>
        <time>2020-07-15T17:56:48.166Z</time>
      </trkpt>
      <trkpt lat="68.21242" lon="14.34466">
        <ele>9.617415</ele>
        <time>2020-07-15T17:56:50.489Z</time>
      </trkpt>
      <trkpt lat="68.2124" lon="14.34475">
        <ele>9.750478</ele>
        <time>2020-07-15T17:56:51.524Z</time>
      </trkpt>
      <trkpt lat="68.21162" lon="14.35154">
        <ele>22.467206</ele>
        <time>2020-07-15T17:58:28.722Z</time>
      </trkpt>
      <trkpt lat="68.21154" lon="14.35221">
        <ele>23.209798</ele>
        <time>2020-07-15T17:58:35.920Z</time>
      </trkpt>
      <trkpt lat="68.21144" lon="14.35304">
        <ele>23.206102</ele>
        <time>2020-07-15T17:58:43.756Z</time>
      </trkpt>
      <trkpt lat="68.21136" lon="14.35387">
        <ele>23.202496</ele>
        <time>2020-07-15T17:58:50.171Z</time>
      </trkpt>
      <trkpt lat="68.21131" lon="14.35482">
        <ele>23.198394</ele>
        <time>2020-07-15T17:58:56.135Z</time>
      </trkpt>
      <trkpt lat="68.21132" lon="14.35593">
        <ele>23.19371</ele>
        <time>2020-07-15T17:59:01.998Z</time>
      </trkpt>
      <trkpt lat="68.21177" lon="14.365">
        <ele>13.143662</ele>
        <time>2020-07-15T17:59:46.516Z</time>
      </trkpt>
      <trkpt lat="68.21195" lon="14.36847">
        <ele>8.681752</ele>
        <time>2020-07-15T18:00:03.036Z</time>
      </trkpt>
      <trkpt lat="68.21205" lon="14.3704">
        <ele>6.181093</ele>
        <time>2020-07-15T18:00:12.301Z</time>
      </trkpt>
      <trkpt lat="68.21206" lon="14.3706">
        <ele>5.91894</ele>
        <time>2020-07-15T18:00:13.243Z</time>
      </trkpt>
      <trkpt lat="68.21229" lon="14.37512">
        <ele>2.247845</ele>
        <time>2020-07-15T18:00:36.796Z</time>
      </trkpt>
      <trkpt lat="68.21231" lon="14.37567">
        <ele>1.826405</ele>
        <time>2020-07-15T18:00:40.025Z</time>
      </trkpt>
      <trkpt lat="68.21234" lon="14.37623">
        <ele>1.725802</ele>
        <time>2020-07-15T18:00:43.305Z</time>
      </trkpt>
      <trkpt lat="68.21238" lon="14.37702">
        <ele>1.797521</ele>
        <time>2020-07-15T18:00:48.060Z</time>
      </trkpt>
      <trkpt lat="68.21256" lon="14.38062">
        <ele>2.125404</ele>
        <time>2020-07-15T18:01:14.142Z</time>
      </trkpt>
      <trkpt lat="68.21263" lon="14.38205">
        <ele>3.435437</ele>
        <time>2020-07-15T18:01:26.737Z</time>
      </trkpt>
      <trkpt lat="68.21295" lon="14.3884">
        <ele>9.54967</ele>
        <time>2020-07-15T18:02:32.514Z</time>
      </trkpt>
      <trkpt lat="68.21313" lon="14.39201">
        <ele>11.679071</ele>
        <time>2020-07-15T18:03:05.587Z</time>
      </trkpt>
      <trkpt lat="68.21317" lon="14.39271">
        <ele>11.789967</ele>
        <time>2020-07-15T18:03:10.674Z</time>
      </trkpt>
      <trkpt lat="68.21324" lon="14.39343">
        <ele>11.906971</ele>
        <time>2020-07-15T18:03:15.599Z</time>
      </trkpt>
      <trkpt lat="68.21333" lon="14.39425">
        <ele>12.040621</ele>
        <time>2020-07-15T18:03:20.774Z</time>
      </trkpt>
      <trkpt lat="68.21341" lon="14.39489">
        <ele>12.147453</ele>
        <time>2020-07-15T18:03:24.619Z</time>
      </trkpt>
      <trkpt lat="68.21359" lon="14.39594">
        <ele>11.322418</ele>
        <time>2020-07-15T18:03:30.984Z</time>
      </trkpt>
      <trkpt lat="68.21366" lon="14.39628">
        <ele>11.020997</ele>
        <time>2020-07-15T18:03:32.987Z</time>
      </trkpt>
      <trkpt lat="68.21362" lon="14.39644">
        <ele>10.875804</ele>
        <time>2020-07-15T18:03:33.915Z</time>
      </trkpt>
      <trkpt lat="68.21451" lon="14.40017">
        <ele>7.374819</ele>
        <time>2020-07-15T18:03:57.489Z</time>
      </trkpt>
      <trkpt lat="68.2147" lon="14.4013">
        <ele>6.405921</ele>
        <time>2020-07-15T18:04:04.111Z</time>
      </trkpt>
      <trkpt lat="68.21479" lon="14.4024">
        <ele>5.515887</ele>
        <time>2020-07-15T18:04:10.268Z</time>
      </trkpt>
      <trkpt lat="68.21478" lon="14.40404">
        <ele>4.498473</ele>
        <time>2020-07-15T18:04:19.375Z</time>
      </trkpt>
      <trkpt lat="68.21461" lon="14.40551">
        <ele>4.388051</ele>
        <time>2020-07-15T18:04:28.844Z</time>
      </trkpt>
      <trkpt lat="68.21436" lon="14.40672">
        <ele>4.288323</ele>
        <time>2020-07-15T18:04:38.143Z</time>
      </trkpt>
      <trkpt lat="68.21401" lon="14.40778">
        <ele>4.187658</ele>
        <time>2020-07-15T18:04:48.584Z</time>
      </trkpt>
      <trkpt lat="68.21401" lon="14.4078">
        <ele>4.185689</ele>
        <time>2020-07-15T18:04:49.026Z</time>
      </trkpt>
      <trkpt lat="68.21397" lon="14.4079">
        <ele>4.220206</ele>
        <time>2020-07-15T18:04:50.420Z</time>
      </trkpt>
      <trkpt lat="68.21367" lon="14.40897">
        <ele>5.649725</ele>
        <time>2020-07-15T18:05:02.051Z</time>
      </trkpt>
      <trkpt lat="68.21344" lon="14.41046">
        <ele>7.393699</ele>
        <time>2020-07-15T18:05:18.492Z</time>
      </trkpt>
      <trkpt lat="68.21327" lon="14.41188">
        <ele>8.997715</ele>
        <time>2020-07-15T18:05:35.033Z</time>
      </trkpt>
      <trkpt lat="68.213" lon="14.41408">
        <ele>13.89496</ele>
        <time>2020-07-15T18:06:05.912Z</time>
      </trkpt>
      <trkpt lat="68.21289" lon="14.41525">
        <ele>16.687415</ele>
        <time>2020-07-15T18:06:24.275Z</time>
      </trkpt>
      <trkpt lat="68.21286" lon="14.41567">
        <ele>17.669145</ele>
        <time>2020-07-15T18:06:31.379Z</time>
      </trkpt>
      <trkpt lat="68.21285" lon="14.41617">
        <ele>18.823922</ele>
        <time>2020-07-15T18:06:39.456Z</time>
      </trkpt>
      <trkpt lat="68.21285" lon="14.41698">
        <ele>20.634464</ele>
        <time>2020-07-15T18:06:52.400Z</time>
      </trkpt>
      <trkpt lat="68.21288" lon="14.41742">
        <ele>21.185628</ele>
        <time>2020-07-15T18:06:58.980Z</time>
      </trkpt>
      <trkpt lat="68.21292" lon="14.4178">
        <ele>21.654013</ele>
        <time>2020-07-15T18:07:05.063Z</time>
      </trkpt>
      <trkpt lat="68.21298" lon="14.41837">
        <ele>22.370563</ele>
        <time>2020-07-15T18:07:12.494Z</time>
      </trkpt>
      <trkpt lat="68.21321" lon="14.42026">
        <ele>24.794789</ele>
        <time>2020-07-15T18:07:35.353Z</time>
      </trkpt>
      <trkpt lat="68.21336" lon="14.42135">
        <ele>26.2042</ele>
        <time>2020-07-15T18:07:44.776Z</time>
      </trkpt>
      <trkpt lat="68.21388" lon="14.42542">
        <ele>22.962972</ele>
        <time>2020-07-15T18:08:06.925Z</time>
      </trkpt>
      <trkpt lat="68.21461" lon="14.43097">
        <ele>18.977654</ele>
        <time>2020-07-15T18:08:39.704Z</time>
      </trkpt>
      <trkpt lat="68.21468" lon="14.43173">
        <ele>18.648429</ele>
        <time>2020-07-15T18:08:44.643Z</time>
      </trkpt>
      <trkpt lat="68.21469" lon="14.43183">
        <ele>18.602996</ele>
        <time>2020-07-15T18:08:45.271Z</time>
      </trkpt>
      <trkpt lat="68.21471" lon="14.43195">
        <ele>18.549535</ele>
        <time>2020-07-15T18:08:46.128Z</time>
      </trkpt>
      <trkpt lat="68.21511" lon="14.43478">
        <ele>17.260893</ele>
        <time>2020-07-15T18:09:04.593Z</time>
      </trkpt>
      <trkpt lat="68.21518" lon="14.43561">
        <ele>16.665037</ele>
        <time>2020-07-15T18:09:09.555Z</time>
      </trkpt>
      <trkpt lat="68.21519" lon="14.43641">
        <ele>15.780041</ele>
        <time>2020-07-15T18:09:14.108Z</time>
      </trkpt>
      <trkpt lat="68.21509" lon="14.43774">
        <ele>14.270252</ele>
        <time>2020-07-15T18:09:21.094Z</time>
      </trkpt>
      <trkpt lat="68.21479" lon="14.43974">
        <ele>11.884075</ele>
        <time>2020-07-15T18:09:31.479Z</time>
      </trkpt>
      <trkpt lat="68.2146" lon="14.44064">
        <ele>11.601298</ele>
        <time>2020-07-15T18:09:36.909Z</time>
      </trkpt>
      <trkpt lat="68.21456" lon="14.44077">
        <ele>11.588862</ele>
        <time>2020-07-15T18:09:37.701Z</time>
      </trkpt>
      <trkpt lat="68.21444" lon="14.44108">
        <ele>11.555762</ele>
        <time>2020-07-15T18:09:40.203Z</time>
      </trkpt>
      <trkpt lat="68.21422" lon="14.44159">
        <ele>11.497533</ele>
        <time>2020-07-15T18:09:45.085Z</time>
      </trkpt>
      <trkpt lat="68.21416" lon="14.44178">
        <ele>11.478726</ele>
        <time>2020-07-15T18:09:46.403Z</time>
      </trkpt>
      <trkpt lat="68.21401" lon="14.44257">
        <ele>11.412133</ele>
        <time>2020-07-15T18:09:52.578Z</time>
      </trkpt>
      <trkpt lat="68.21399" lon="14.44269">
        <ele>11.402256</ele>
        <time>2020-07-15T18:09:54.245Z</time>
      </trkpt>
      <trkpt lat="68.21393" lon="14.44298">
        <ele>11.377738</ele>
        <time>2020-07-15T18:09:57.521Z</time>
      </trkpt>
      <trkpt lat="68.2137" lon="14.44421">
        <ele>12.134123</ele>
        <time>2020-07-15T18:10:10.579Z</time>
      </trkpt>
      <trkpt lat="68.21364" lon="14.44506">
        <ele>14.098121</ele>
        <time>2020-07-15T18:10:21.942Z</time>
      </trkpt>
      <trkpt lat="68.21373" lon="14.44625">
        <ele>16.825992</ele>
        <time>2020-07-15T18:10:38.648Z</time>
      </trkpt>
      <trkpt lat="68.21376" lon="14.44639">
        <ele>17.170967</ele>
        <time>2020-07-15T18:10:42.269Z</time>
      </trkpt>
      <trkpt lat="68.21379" lon="14.44651">
        <ele>17.498557</ele>
        <time>2020-07-15T18:10:44.307Z</time>
      </trkpt>
      <trkpt lat="68.21399" lon="14.44699">
        <ele>19.11857</ele>
        <time>2020-07-15T18:10:56.204Z</time>
      </trkpt>
      <trkpt lat="68.214" lon="14.44705">
        <ele>19.287221</ele>
        <time>2020-07-15T18:10:58.086Z</time>
      </trkpt>
      <trkpt lat="68.2141" lon="14.44739">
        <ele>20.262712</ele>
        <time>2020-07-15T18:11:04.434Z</time>
      </trkpt>
      <trkpt lat="68.21412" lon="14.44744">
        <ele>20.409334</ele>
        <time>2020-07-15T18:11:05.347Z</time>
      </trkpt>
      <trkpt lat="68.21414" lon="14.44752">
        <ele>20.628542</ele>
        <time>2020-07-15T18:11:07.469Z</time>
      </trkpt>
      <trkpt lat="68.21416" lon="14.44779">
        <ele>21.260205</ele>
        <time>2020-07-15T18:11:11.434Z</time>
      </trkpt>
      <trkpt lat="68.21412" lon="14.44826">
        <ele>22.333191</ele>
        <time>2020-07-15T18:11:18.612Z</time>
      </trkpt>
      <trkpt lat="68.21393" lon="14.44953">
        <ele>25.205967</ele>
        <time>2020-07-15T18:11:38.897Z</time>
      </trkpt>
      <trkpt lat="68.21381" lon="14.45033">
        <ele>27.006493</ele>
        <time>2020-07-15T18:11:52.401Z</time>
      </trkpt>
      <trkpt lat="68.21354" lon="14.45275">
        <ele>32.259917</ele>
        <time>2020-07-15T18:12:24.184Z</time>
      </trkpt>
      <trkpt lat="68.21346" lon="14.45369">
        <ele>32.388839</ele>
        <time>2020-07-15T18:12:35.004Z</time>
      </trkpt>
      <trkpt lat="68.21343" lon="14.45408">
        <ele>32.416585</ele>
        <time>2020-07-15T18:12:39.442Z</time>
      </trkpt>
      <trkpt lat="68.21337" lon="14.4556">
        <ele>32.521818</ele>
        <time>2020-07-15T18:12:50.404Z</time>
      </trkpt>
      <trkpt lat="68.21336" lon="14.45796">
        <ele>32.078769</ele>
        <time>2020-07-15T18:13:03.183Z</time>
      </trkpt>
      <trkpt lat="68.21335" lon="14.46009">
        <ele>28.748567</ele>
        <time>2020-07-15T18:13:13.365Z</time>
      </trkpt>
      <trkpt lat="68.21332" lon="14.46177">
        <ele>26.127403</ele>
        <time>2020-07-15T18:13:21.361Z</time>
      </trkpt>
      <trkpt lat="68.21351" lon="14.46316">
        <ele>24.411833</ele>
        <time>2020-07-15T18:13:28.484Z</time>
      </trkpt>
      <trkpt lat="68.21349" lon="14.46355">
        <ele>24.082985</ele>
        <time>2020-07-15T18:13:30.485Z</time>
      </trkpt>
      <trkpt lat="68.2134" lon="14.46407">
        <ele>23.598393</ele>
        <time>2020-07-15T18:13:33.501Z</time>
      </trkpt>
      <trkpt lat="68.21337" lon="14.46427">
        <ele>23.412812</ele>
        <time>2020-07-15T18:13:34.715Z</time>
      </trkpt>
      <trkpt lat="68.21334" lon="14.46453">
        <ele>23.189775</ele>
        <time>2020-07-15T18:13:36.175Z</time>
      </trkpt>
      <trkpt lat="68.21333" lon="14.46455">
        <ele>23.156552</ele>
        <time>2020-07-15T18:13:36.392Z</time>
      </trkpt>
      <trkpt lat="68.2133" lon="14.46457">
        <ele>23.08263</ele>
        <time>2020-07-15T18:13:36.877Z</time>
      </trkpt>
      <trkpt lat="68.21319" lon="14.4646">
        <ele>22.844192</ele>
        <time>2020-07-15T18:13:38.469Z</time>
      </trkpt>
      <trkpt lat="68.21286" lon="14.46468">
        <ele>22.081578</ele>
        <time>2020-07-15T18:13:43.694Z</time>
      </trkpt>
      <trkpt lat="68.2128" lon="14.46469">
        <ele>21.963405</ele>
        <time>2020-07-15T18:13:44.522Z</time>
      </trkpt>
      <trkpt lat="68.21266" lon="14.46471">
        <ele>21.637154</ele>
        <time>2020-07-15T18:13:46.886Z</time>
      </trkpt>
      <trkpt lat="68.21236" lon="14.46479">
        <ele>21.009216</ele>
        <time>2020-07-15T18:13:51.820Z</time>
      </trkpt>
      <trkpt lat="68.21232" lon="14.46483">
        <ele>20.975737</ele>
        <time>2020-07-15T18:13:52.595Z</time>
      </trkpt>
      <trkpt lat="68.21232" lon="14.46488">
        <ele>20.962095</ele>
        <time>2020-07-15T18:13:52.916Z</time>
      </trkpt>
      <trkpt lat="68.2123" lon="14.46498">
        <ele>20.931917</ele>
        <time>2020-07-15T18:13:53.573Z</time>
      </trkpt>
      <trkpt lat="68.21236" lon="14.4659">
        <ele>20.670298</ele>
        <time>2020-07-15T18:13:59.643Z</time>
      </trkpt>
      <trkpt lat="68.21221" lon="14.4672">
        <ele>20.288595</ele>
        <time>2020-07-15T18:14:08.437Z</time>
      </trkpt>
      <trkpt lat="68.21211" lon="14.46932">
        <ele>19.689969</ele>
        <time>2020-07-15T18:14:21.617Z</time>
      </trkpt>
      <trkpt lat="68.2121" lon="14.4696">
        <ele>19.55351</ele>
        <time>2020-07-15T18:14:23.295Z</time>
      </trkpt>
      <trkpt lat="68.21196" lon="14.47258">
        <ele>17.943144</ele>
        <time>2020-07-15T18:14:40.582Z</time>
      </trkpt>
      <trkpt lat="68.21195" lon="14.47283">
        <ele>17.807881</ele>
        <time>2020-07-15T18:14:41.923Z</time>
      </trkpt>
      <trkpt lat="68.21188" lon="14.47428">
        <ele>17.058216</ele>
        <time>2020-07-15T18:14:50.064Z</time>
      </trkpt>
      <trkpt lat="68.21187" lon="14.47456">
        <ele>17.007777</ele>
        <time>2020-07-15T18:14:51.573Z</time>
      </trkpt>
      <trkpt lat="68.21184" lon="14.47539">
        <ele>16.857865</ele>
        <time>2020-07-15T18:14:56.632Z</time>
      </trkpt>
      <trkpt lat="68.21181" lon="14.47605">
        <ele>16.740162</ele>
        <time>2020-07-15T18:15:00.759Z</time>
      </trkpt>
      <trkpt lat="68.21182" lon="14.47645">
        <ele>16.66842</ele>
        <time>2020-07-15T18:15:03.089Z</time>
      </trkpt>
      <trkpt lat="68.21189" lon="14.47724">
        <ele>16.522318</ele>
        <time>2020-07-15T18:15:08.535Z</time>
      </trkpt>
      <trkpt lat="68.21205" lon="14.47803">
        <ele>16.360418</ele>
        <time>2020-07-15T18:15:15.047Z</time>
      </trkpt>
      <trkpt lat="68.21211" lon="14.47822">
        <ele>16.316119</ele>
        <time>2020-07-15T18:15:16.998Z</time>
      </trkpt>
      <trkpt lat="68.21214" lon="14.47833">
        <ele>16.291453</ele>
        <time>2020-07-15T18:15:18.482Z</time>
      </trkpt>
      <trkpt lat="68.21253" lon="14.4793">
        <ele>15.78188</ele>
        <time>2020-07-15T18:15:28.892Z</time>
      </trkpt>
      <trkpt lat="68.21296" lon="14.48093">
        <ele>14.879893</ele>
        <time>2020-07-15T18:15:42.904Z</time>
      </trkpt>
      <trkpt lat="68.21304" lon="14.48121">
        <ele>14.727368</ele>
        <time>2020-07-15T18:15:44.601Z</time>
      </trkpt>
      <trkpt lat="68.21307" lon="14.48133">
        <ele>14.661172</ele>
        <time>2020-07-15T18:15:45.762Z</time>
      </trkpt>
      <trkpt lat="68.21332" lon="14.48193">
        <ele>14.257647</ele>
        <time>2020-07-15T18:15:50.175Z</time>
      </trkpt>
      <trkpt lat="68.21342" lon="14.48212">
        <ele>14.110984</ele>
        <time>2020-07-15T18:15:52.115Z</time>
      </trkpt>
      <trkpt lat="68.2135" lon="14.48224">
        <ele>13.927059</ele>
        <time>2020-07-15T18:15:53.272Z</time>
      </trkpt>
      <trkpt lat="68.2137" lon="14.48247">
        <ele>13.234825</ele>
        <time>2020-07-15T18:15:56.332Z</time>
      </trkpt>
      <trkpt lat="68.21382" lon="14.48257">
        <ele>12.838463</ele>
        <time>2020-07-15T18:15:57.939Z</time>
      </trkpt>
      <trkpt lat="68.21394" lon="14.48263">
        <ele>12.456973</ele>
        <time>2020-07-15T18:15:59.522Z</time>
      </trkpt>
      <trkpt lat="68.21424" lon="14.48263">
        <ele>11.525277</ele>
        <time>2020-07-15T18:16:03.525Z</time>
      </trkpt>
      <trkpt lat="68.21446" lon="14.4825">
        <ele>10.800498</ele>
        <time>2020-07-15T18:16:06.891Z</time>
      </trkpt>
      <trkpt lat="68.2145" lon="14.48247">
        <ele>10.693065</ele>
        <time>2020-07-15T18:16:07.257Z</time>
      </trkpt>
      <trkpt lat="68.21476" lon="14.48218">
        <ele>9.798196</ele>
        <time>2020-07-15T18:16:11.345Z</time>
      </trkpt>
      <trkpt lat="68.21488" lon="14.48205">
        <ele>9.389049</ele>
        <time>2020-07-15T18:16:13.105Z</time>
      </trkpt>
      <trkpt lat="68.21536" lon="14.48185">
        <ele>8.451238</ele>
        <time>2020-07-15T18:16:19.867Z</time>
      </trkpt>
      <trkpt lat="68.21584" lon="14.4822">
        <ele>8.669297</ele>
        <time>2020-07-15T18:16:28.822Z</time>
      </trkpt>
      <trkpt lat="68.21588" lon="14.48228">
        <ele>8.69309</ele>
        <time>2020-07-15T18:16:29.479Z</time>
      </trkpt>
      <trkpt lat="68.21597" lon="14.48246">
        <ele>8.738705</ele>
        <time>2020-07-15T18:16:32.288Z</time>
      </trkpt>
      <trkpt lat="68.21627" lon="14.48346">
        <ele>8.949435</ele>
        <time>2020-07-15T18:16:44.212Z</time>
      </trkpt>
      <trkpt lat="68.21638" lon="14.48405">
        <ele>9.057282</ele>
        <time>2020-07-15T18:16:50.785Z</time>
      </trkpt>
      <trkpt lat="68.21679" lon="14.4869">
        <ele>10.827749</ele>
        <time>2020-07-15T18:17:17.564Z</time>
      </trkpt>
      <trkpt lat="68.21718" lon="14.48956">
        <ele>12.940882</ele>
        <time>2020-07-15T18:17:43.916Z</time>
      </trkpt>
      <trkpt lat="68.2175" lon="14.49074">
        <ele>14.340815</ele>
        <time>2020-07-15T18:17:58.989Z</time>
      </trkpt>
      <trkpt lat="68.21761" lon="14.49105">
        <ele>14.75908</ele>
        <time>2020-07-15T18:18:03.117Z</time>
      </trkpt>
      <trkpt lat="68.21769" lon="14.4913">
        <ele>15.076821</ele>
        <time>2020-07-15T18:18:07.122Z</time>
      </trkpt>
      <trkpt lat="68.21782" lon="14.49178">
        <ele>15.664695</ele>
        <time>2020-07-15T18:18:12.687Z</time>
      </trkpt>
      <trkpt lat="68.2179" lon="14.49196">
        <ele>15.925483</ele>
        <time>2020-07-15T18:18:15.892Z</time>
      </trkpt>
      <trkpt lat="68.21794" lon="14.49203">
        <ele>16.053197</ele>
        <time>2020-07-15T18:18:17.409Z</time>
      </trkpt>
      <trkpt lat="68.21801" lon="14.49213">
        <ele>16.25495</ele>
        <time>2020-07-15T18:18:19.191Z</time>
      </trkpt>
      <trkpt lat="68.21819" lon="14.49234">
        <ele>16.773975</ele>
        <time>2020-07-15T18:18:24.577Z</time>
      </trkpt>
      <trkpt lat="68.21825" lon="14.4924">
        <ele>16.938264</ele>
        <time>2020-07-15T18:18:26.651Z</time>
      </trkpt>
      <trkpt lat="68.21855" lon="14.49305">
        <ele>17.603337</ele>
        <time>2020-07-15T18:18:36.883Z</time>
      </trkpt>
      <trkpt lat="68.21858" lon="14.49317">
        <ele>17.672954</ele>
        <time>2020-07-15T18:18:38.101Z</time>
      </trkpt>
      <trkpt lat="68.21871" lon="14.49358">
        <ele>17.934052</ele>
        <time>2020-07-15T18:18:43.110Z</time>
      </trkpt>
      <trkpt lat="68.2193" lon="14.49566">
        <ele>19.215091</ele>
        <time>2020-07-15T18:19:04.505Z</time>
      </trkpt>
      <trkpt lat="68.21935" lon="14.49583">
        <ele>19.32287</ele>
        <time>2020-07-15T18:19:05.933Z</time>
      </trkpt>
      <trkpt lat="68.21989" lon="14.49756">
        <ele>20.472169</ele>
        <time>2020-07-15T18:19:22.471Z</time>
      </trkpt>
      <trkpt lat="68.21997" lon="14.49786">
        <ele>20.663049</ele>
        <time>2020-07-15T18:19:25.169Z</time>
      </trkpt>
      <trkpt lat="68.22012" lon="14.49842">
        <ele>21.020054</ele>
        <time>2020-07-15T18:19:30.917Z</time>
      </trkpt>
      <trkpt lat="68.2203" lon="14.4992">
        <ele>21.492353</ele>
        <time>2020-07-15T18:19:38.828Z</time>
      </trkpt>
      <trkpt lat="68.22039" lon="14.49952">
        <ele>21.696866</ele>
        <time>2020-07-15T18:19:42.214Z</time>
      </trkpt>
      <trkpt lat="68.22045" lon="14.49973">
        <ele>21.836144</ele>
        <time>2020-07-15T18:19:45.113Z</time>
      </trkpt>
      <trkpt lat="68.22119" lon="14.5014">
        <ele>24.763587</ele>
        <time>2020-07-15T18:20:13.378Z</time>
      </trkpt>
      <trkpt lat="68.22144" lon="14.50231">
        <ele>26.214486</ele>
        <time>2020-07-15T18:20:26.834Z</time>
      </trkpt>
      <trkpt lat="68.2216" lon="14.50322">
        <ele>27.533423</ele>
        <time>2020-07-15T18:20:38.872Z</time>
      </trkpt>
      <trkpt lat="68.22174" lon="14.50471">
        <ele>28.812679</ele>
        <time>2020-07-15T18:20:56.139Z</time>
      </trkpt>
      <trkpt lat="68.22179" lon="14.50907">
        <ele>30.391408</ele>
        <time>2020-07-15T18:21:31.197Z</time>
      </trkpt>
      <trkpt lat="68.22191" lon="14.5102">
        <ele>29.359483</ele>
        <time>2020-07-15T18:21:37.385Z</time>
      </trkpt>
      <trkpt lat="68.22211" lon="14.51124">
        <ele>28.317391</ele>
        <time>2020-07-15T18:21:43.438Z</time>
      </trkpt>
      <trkpt lat="68.22251" lon="14.51245">
        <ele>26.881401</ele>
        <time>2020-07-15T18:21:51.487Z</time>
      </trkpt>
      <trkpt lat="68.22388" lon="14.51468">
        <ele>24.646365</ele>
        <time>2020-07-15T18:22:13.962Z</time>
      </trkpt>
      <trkpt lat="68.2242" lon="14.51549">
        <ele>24.41991</ele>
        <time>2020-07-15T18:22:26.385Z</time>
      </trkpt>
      <trkpt lat="68.22447" lon="14.51663">
        <ele>26.933408</ele>
        <time>2020-07-15T18:22:41.781Z</time>
      </trkpt>
      <trkpt lat="68.22453" lon="14.517">
        <ele>27.671472</ele>
        <time>2020-07-15T18:22:45.852Z</time>
      </trkpt>
      <trkpt lat="68.22457" lon="14.51726">
        <ele>28.181882</ele>
        <time>2020-07-15T18:22:51.433Z</time>
      </trkpt>
      <trkpt lat="68.22464" lon="14.51856">
        <ele>30.605131</ele>
        <time>2020-07-15T18:23:09.200Z</time>
      </trkpt>
      <trkpt lat="68.22465" lon="14.52238">
        <ele>37.194856</ele>
        <time>2020-07-15T18:24:04.878Z</time>
      </trkpt>
      <trkpt lat="68.22472" lon="14.52341">
        <ele>38.940942</ele>
        <time>2020-07-15T18:24:15.912Z</time>
      </trkpt>
      <trkpt lat="68.22476" lon="14.52378">
        <ele>39.574544</ele>
        <time>2020-07-15T18:24:20.289Z</time>
      </trkpt>
      <trkpt lat="68.22485" lon="14.52434">
        <ele>40.589223</ele>
        <time>2020-07-15T18:24:25.841Z</time>
      </trkpt>
      <trkpt lat="68.22505" lon="14.52522">
        <ele>41.26283</ele>
        <time>2020-07-15T18:24:35.267Z</time>
      </trkpt>
      <trkpt lat="68.22537" lon="14.52629">
        <ele>41.48944</ele>
        <time>2020-07-15T18:24:46.573Z</time>
      </trkpt>
      <trkpt lat="68.22545" lon="14.52649">
        <ele>41.536941</ele>
        <time>2020-07-15T18:24:48.245Z</time>
      </trkpt>
      <trkpt lat="68.22553" lon="14.52669">
        <ele>41.583006</ele>
        <time>2020-07-15T18:24:50.945Z</time>
      </trkpt>
      <trkpt lat="68.22589" lon="14.52752">
        <ele>41.791376</ele>
        <time>2020-07-15T18:24:59.801Z</time>
      </trkpt>
      <trkpt lat="68.22677" lon="14.52985">
        <ele>39.412573</ele>
        <time>2020-07-15T18:25:19.253Z</time>
      </trkpt>
      <trkpt lat="68.22688" lon="14.53013">
        <ele>38.986535</ele>
        <time>2020-07-15T18:25:21.380Z</time>
      </trkpt>
      <trkpt lat="68.22747" lon="14.53132">
        <ele>36.912424</ele>
        <time>2020-07-15T18:25:31.082Z</time>
      </trkpt>
      <trkpt lat="68.228" lon="14.53201">
        <ele>33.475795</ele>
        <time>2020-07-15T18:25:38.334Z</time>
      </trkpt>
      <trkpt lat="68.22859" lon="14.53245">
        <ele>29.92327</ele>
        <time>2020-07-15T18:25:45.642Z</time>
      </trkpt>
      <trkpt lat="68.22925" lon="14.53258">
        <ele>26.103753</ele>
        <time>2020-07-15T18:25:54.039Z</time>
      </trkpt>
      <trkpt lat="68.22933" lon="14.53254">
        <ele>25.81998</ele>
        <time>2020-07-15T18:25:54.906Z</time>
      </trkpt>
      <trkpt lat="68.2294" lon="14.53246">
        <ele>25.550822</ele>
        <time>2020-07-15T18:25:55.906Z</time>
      </trkpt>
      <trkpt lat="68.22942" lon="14.53235">
        <ele>25.363909</ele>
        <time>2020-07-15T18:25:56.557Z</time>
      </trkpt>
      <trkpt lat="68.22946" lon="14.5321">
        <ele>24.992109</ele>
        <time>2020-07-15T18:25:57.842Z</time>
      </trkpt>
      <trkpt lat="68.22947" lon="14.53192">
        <ele>24.751075</ele>
        <time>2020-07-15T18:25:58.653Z</time>
      </trkpt>
      <trkpt lat="68.22947" lon="14.53185">
        <ele>24.65717</ele>
        <time>2020-07-15T18:25:58.926Z</time>
      </trkpt>
      <trkpt lat="68.22948" lon="14.53164">
        <ele>24.365846</ele>
        <time>2020-07-15T18:25:59.835Z</time>
      </trkpt>
      <trkpt lat="68.22948" lon="14.53154">
        <ele>24.228301</ele>
        <time>2020-07-15T18:26:00.455Z</time>
      </trkpt>
      <trkpt lat="68.2295" lon="14.53139">
        <ele>24.0024</ele>
        <time>2020-07-15T18:26:01.263Z</time>
      </trkpt>
      <trkpt lat="68.22961" lon="14.5313">
        <ele>23.590322</ele>
        <time>2020-07-15T18:26:02.736Z</time>
      </trkpt>
      <trkpt lat="68.23079" lon="14.53122">
        <ele>19.325327</ele>
        <time>2020-07-15T18:26:18.326Z</time>
      </trkpt>
      <trkpt lat="68.23129" lon="14.53139">
        <ele>17.981403</ele>
        <time>2020-07-15T18:26:25.212Z</time>
      </trkpt>
      <trkpt lat="68.23189" lon="14.53202">
        <ele>16.265535</ele>
        <time>2020-07-15T18:26:33.895Z</time>
      </trkpt>
      <trkpt lat="68.23216" lon="14.53242">
        <ele>15.460983</ele>
        <time>2020-07-15T18:26:37.979Z</time>
      </trkpt>
      <trkpt lat="68.23222" lon="14.53252">
        <ele>15.26153</ele>
        <time>2020-07-15T18:26:38.969Z</time>
      </trkpt>
      <trkpt lat="68.23247" lon="14.53291">
        <ele>14.605845</ele>
        <time>2020-07-15T18:26:42.820Z</time>
      </trkpt>
      <trkpt lat="68.23254" lon="14.53302">
        <ele>14.454534</ele>
        <time>2020-07-15T18:26:43.892Z</time>
      </trkpt>
      <trkpt lat="68.23255" lon="14.53304">
        <ele>14.422037</ele>
        <time>2020-07-15T18:26:44.083Z</time>
      </trkpt>
      <trkpt lat="68.23406" lon="14.53546">
        <ele>11.23146</ele>
        <time>2020-07-15T18:27:09.354Z</time>
      </trkpt>
      <trkpt lat="68.23463" lon="14.53677">
        <ele>10.290845</ele>
        <time>2020-07-15T18:27:21.303Z</time>
      </trkpt>
      <trkpt lat="68.23495" lon="14.53788">
        <ele>9.640986</ele>
        <time>2020-07-15T18:27:29.289Z</time>
      </trkpt>
      <trkpt lat="68.23588" lon="14.54198">
        <ele>6.29758</ele>
        <time>2020-07-15T18:27:54.985Z</time>
      </trkpt>
      <trkpt lat="68.23613" lon="14.54332">
        <ele>5.138753</ele>
        <time>2020-07-15T18:28:02.337Z</time>
      </trkpt>
      <trkpt lat="68.23621" lon="14.54394">
        <ele>4.600399</ele>
        <time>2020-07-15T18:28:05.754Z</time>
      </trkpt>
      <trkpt lat="68.23623" lon="14.54407">
        <ele>4.491009</ele>
        <time>2020-07-15T18:28:06.315Z</time>
      </trkpt>
      <trkpt lat="68.2363" lon="14.54547">
        <ele>3.334971</ele>
        <time>2020-07-15T18:28:13.722Z</time>
      </trkpt>
      <trkpt lat="68.23629" lon="14.5457">
        <ele>3.147385</ele>
        <time>2020-07-15T18:28:14.808Z</time>
      </trkpt>
      <trkpt lat="68.23629" lon="14.54587">
        <ele>3.006956</ele>
        <time>2020-07-15T18:28:15.798Z</time>
      </trkpt>
      <trkpt lat="68.23632" lon="14.54972">
        <ele>1.47584</ele>
        <time>2020-07-15T18:28:37.598Z</time>
      </trkpt>
      <trkpt lat="68.23634" lon="14.5502">
        <ele>1.448208</ele>
        <time>2020-07-15T18:28:41.251Z</time>
      </trkpt>
      <trkpt lat="68.23636" lon="14.55147">
        <ele>1.374596</ele>
        <time>2020-07-15T18:28:51.321Z</time>
      </trkpt>
      <trkpt lat="68.23637" lon="14.55365">
        <ele>1.822443</ele>
        <time>2020-07-15T18:29:09.630Z</time>
      </trkpt>
      <trkpt lat="68.23637" lon="14.55391">
        <ele>1.932575</ele>
        <time>2020-07-15T18:29:11.754Z</time>
      </trkpt>
      <trkpt lat="68.23639" lon="14.55537">
        <ele>2.542643</ele>
        <time>2020-07-15T18:29:23.930Z</time>
      </trkpt>
      <trkpt lat="68.23639" lon="14.55679">
        <ele>3.134269</ele>
        <time>2020-07-15T18:29:34.833Z</time>
      </trkpt>
      <trkpt lat="68.23637" lon="14.55722">
        <ele>3.318788</ele>
        <time>2020-07-15T18:29:38.631Z</time>
      </trkpt>
      <trkpt lat="68.23632" lon="14.55764">
        <ele>3.640993</ele>
        <time>2020-07-15T18:29:42.007Z</time>
      </trkpt>
      <trkpt lat="68.2363" lon="14.5578">
        <ele>3.774051</ele>
        <time>2020-07-15T18:29:43.277Z</time>
      </trkpt>
      <trkpt lat="68.2362" lon="14.55871">
        <ele>4.517212</ele>
        <time>2020-07-15T18:29:52.125Z</time>
      </trkpt>
      <trkpt lat="68.23608" lon="14.55978">
        <ele>5.404606</ele>
        <time>2020-07-15T18:30:02.386Z</time>
      </trkpt>
      <trkpt lat="68.23606" lon="14.55999">
        <ele>5.572899</ele>
        <time>2020-07-15T18:30:04.227Z</time>
      </trkpt>
      <trkpt lat="68.23604" lon="14.56018">
        <ele>5.735184</ele>
        <time>2020-07-15T18:30:06.443Z</time>
      </trkpt>
      <trkpt lat="68.23589" lon="14.56105">
        <ele>6.49167</ele>
        <time>2020-07-15T18:30:16.326Z</time>
      </trkpt>
      <trkpt lat="68.23586" lon="14.56129">
        <ele>6.688518</ele>
        <time>2020-07-15T18:30:19.547Z</time>
      </trkpt>
      <trkpt lat="68.23595" lon="14.5618">
        <ele>7.131654</ele>
        <time>2020-07-15T18:30:24.004Z</time>
      </trkpt>
      <trkpt lat="68.23596" lon="14.56182">
        <ele>7.151212</ele>
        <time>2020-07-15T18:30:24.374Z</time>
      </trkpt>
      <trkpt lat="68.23604" lon="14.56201">
        <ele>7.408963</ele>
        <time>2020-07-15T18:30:28.044Z</time>
      </trkpt>
      <trkpt lat="68.23647" lon="14.56266">
        <ele>8.549674</ele>
        <time>2020-07-15T18:30:40.985Z</time>
      </trkpt>
      <trkpt lat="68.23661" lon="14.56302">
        <ele>9.005093</ele>
        <time>2020-07-15T18:30:45.909Z</time>
      </trkpt>
      <trkpt lat="68.23667" lon="14.56326">
        <ele>9.263892</ele>
        <time>2020-07-15T18:30:49.770Z</time>
      </trkpt>
      <trkpt lat="68.23671" lon="14.56343">
        <ele>9.440137</ele>
        <time>2020-07-15T18:30:51.352Z</time>
      </trkpt>
      <trkpt lat="68.23692" lon="14.56444">
        <ele>10.439958</ele>
        <time>2020-07-15T18:31:02.268Z</time>
      </trkpt>
      <trkpt lat="68.23695" lon="14.56459">
        <ele>10.593525</ele>
        <time>2020-07-15T18:31:04.026Z</time>
      </trkpt>
      <trkpt lat="68.23697" lon="14.56466">
        <ele>10.667109</ele>
        <time>2020-07-15T18:31:04.912Z</time>
      </trkpt>
      <trkpt lat="68.23705" lon="14.56492">
        <ele>10.962369</ele>
        <time>2020-07-15T18:31:08.872Z</time>
      </trkpt>
      <trkpt lat="68.23745" lon="14.56575">
        <ele>10.904115</ele>
        <time>2020-07-15T18:31:18.517Z</time>
      </trkpt>
      <trkpt lat="68.23775" lon="14.56606">
        <ele>10.380644</ele>
        <time>2020-07-15T18:31:23.987Z</time>
      </trkpt>
      <trkpt lat="68.23801" lon="14.56627">
        <ele>9.950171</ele>
        <time>2020-07-15T18:31:27.783Z</time>
      </trkpt>
      <trkpt lat="68.23841" lon="14.56655">
        <ele>9.30348</ele>
        <time>2020-07-15T18:31:33.285Z</time>
      </trkpt>
      <trkpt lat="68.23849" lon="14.56661">
        <ele>9.167441</ele>
        <time>2020-07-15T18:31:34.452Z</time>
      </trkpt>
      <trkpt lat="68.23864" lon="14.56669">
        <ele>8.927186</ele>
        <time>2020-07-15T18:31:36.242Z</time>
      </trkpt>
      <trkpt lat="68.23888" lon="14.5668">
        <ele>8.525246</ele>
        <time>2020-07-15T18:31:39.679Z</time>
      </trkpt>
      <trkpt lat="68.23889" lon="14.5668">
        <ele>8.497544</ele>
        <time>2020-07-15T18:31:39.767Z</time>
      </trkpt>
      <trkpt lat="68.23957" lon="14.56716">
        <ele>6.378229</ele>
        <time>2020-07-15T18:31:49.015Z</time>
      </trkpt>
      <trkpt lat="68.23964" lon="14.56723">
        <ele>6.172558</ele>
        <time>2020-07-15T18:31:49.794Z</time>
      </trkpt>
      <trkpt lat="68.23961" lon="14.56742">
        <ele>5.937039</ele>
        <time>2020-07-15T18:31:50.898Z</time>
      </trkpt>
      <trkpt lat="68.23971" lon="14.56751">
        <ele>5.614688</ele>
        <time>2020-07-15T18:31:52.722Z</time>
      </trkpt>
      <trkpt lat="68.23985" lon="14.56766">
        <ele>5.148701</ele>
        <time>2020-07-15T18:31:54.636Z</time>
      </trkpt>
      <trkpt lat="68.23999" lon="14.56784">
        <ele>4.693806</ele>
        <time>2020-07-15T18:31:56.624Z</time>
      </trkpt>
      <trkpt lat="68.24" lon="14.56808">
        <ele>4.414825</ele>
        <time>2020-07-15T18:31:58.367Z</time>
      </trkpt>
      <trkpt lat="68.2401" lon="14.56825">
        <ele>4.052063</ele>
        <time>2020-07-15T18:31:59.901Z</time>
      </trkpt>
      <trkpt lat="68.24043" lon="14.569">
        <ele>2.931905</ele>
        <time>2020-07-15T18:32:05.997Z</time>
      </trkpt>
      <trkpt lat="68.24063" lon="14.56975">
        <ele>2.469427</ele>
        <time>2020-07-15T18:32:11.024Z</time>
      </trkpt>
      <trkpt lat="68.24071" lon="14.57012">
        <ele>2.261028</ele>
        <time>2020-07-15T18:32:13.480Z</time>
      </trkpt>
      <trkpt lat="68.24074" lon="14.57029">
        <ele>2.161176</ele>
        <time>2020-07-15T18:32:14.573Z</time>
      </trkpt>
      <trkpt lat="68.2408" lon="14.57059">
        <ele>1.994329</ele>
        <time>2020-07-15T18:32:16.638Z</time>
      </trkpt>
      <trkpt lat="68.24092" lon="14.57118">
        <ele>1.66307</ele>
        <time>2020-07-15T18:32:20.662Z</time>
      </trkpt>
      <trkpt lat="68.24097" lon="14.57141">
        <ele>1.528673</ele>
        <time>2020-07-15T18:32:22.564Z</time>
      </trkpt>
      <trkpt lat="68.24102" lon="14.5716">
        <ele>1.41094</ele>
        <time>2020-07-15T18:32:24.170Z</time>
      </trkpt>
      <trkpt lat="68.24119" lon="14.57211">
        <ele>1.074558</ele>
        <time>2020-07-15T18:32:28.390Z</time>
      </trkpt>
      <trkpt lat="68.24209" lon="14.57376">
        <ele>0.67197</ele>
        <time>2020-07-15T18:32:46.388Z</time>
      </trkpt>
      <trkpt lat="68.2426" lon="14.57591">
        <ele>0.675288</ele>
        <time>2020-07-15T18:33:05.433Z</time>
      </trkpt>
      <trkpt lat="68.24266" lon="14.57606">
        <ele>0.692713</ele>
        <time>2020-07-15T18:33:07.199Z</time>
      </trkpt>
      <trkpt lat="68.24274" lon="14.57628">
        <ele>0.82654</ele>
        <time>2020-07-15T18:33:09.725Z</time>
      </trkpt>
      <trkpt lat="68.24281" lon="14.5765">
        <ele>0.956644</ele>
        <time>2020-07-15T18:33:11.971Z</time>
      </trkpt>
      <trkpt lat="68.24286" lon="14.57662">
        <ele>1.033876</ele>
        <time>2020-07-15T18:33:13.394Z</time>
      </trkpt>
      <trkpt lat="68.24307" lon="14.57739">
        <ele>1.454114</ele>
        <time>2020-07-15T18:33:21.136Z</time>
      </trkpt>
      <trkpt lat="68.24309" lon="14.5775">
        <ele>1.509681</ele>
        <time>2020-07-15T18:33:22.194Z</time>
      </trkpt>
      <trkpt lat="68.24312" lon="14.57766">
        <ele>1.586665</ele>
        <time>2020-07-15T18:33:23.850Z</time>
      </trkpt>
      <trkpt lat="68.24315" lon="14.57791">
        <ele>1.700882</ele>
        <time>2020-07-15T18:33:25.811Z</time>
      </trkpt>
      <trkpt lat="68.24317" lon="14.57821">
        <ele>1.837703</ele>
        <time>2020-07-15T18:33:28.278Z</time>
      </trkpt>
      <trkpt lat="68.24318" lon="14.57841">
        <ele>1.924593</ele>
        <time>2020-07-15T18:33:29.936Z</time>
      </trkpt>
      <trkpt lat="68.24317" lon="14.57867">
        <ele>2.04074</ele>
        <time>2020-07-15T18:33:32.611Z</time>
      </trkpt>
      <trkpt lat="68.24316" lon="14.57879">
        <ele>2.092665</ele>
        <time>2020-07-15T18:33:33.534Z</time>
      </trkpt>
      <trkpt lat="68.24314" lon="14.57907">
        <ele>2.218306</ele>
        <time>2020-07-15T18:33:35.767Z</time>
      </trkpt>
      <trkpt lat="68.24313" lon="14.57943">
        <ele>2.379056</ele>
        <time>2020-07-15T18:33:38.966Z</time>
      </trkpt>
      <trkpt lat="68.24312" lon="14.57949">
        <ele>2.404804</ele>
        <time>2020-07-15T18:33:39.621Z</time>
      </trkpt>
      <trkpt lat="68.24312" lon="14.57955">
        <ele>2.433824</ele>
        <time>2020-07-15T18:33:40.443Z</time>
      </trkpt>
      <trkpt lat="68.24262" lon="14.5819">
        <ele>3.318523</ele>
        <time>2020-07-15T18:34:03.343Z</time>
      </trkpt>
      <trkpt lat="68.2426" lon="14.58202">
        <ele>3.356442</ele>
        <time>2020-07-15T18:34:04.670Z</time>
      </trkpt>
      <trkpt lat="68.24258" lon="14.58211">
        <ele>3.382573</ele>
        <time>2020-07-15T18:34:05.660Z</time>
      </trkpt>
      <trkpt lat="68.24254" lon="14.58252">
        <ele>3.498529</ele>
        <time>2020-07-15T18:34:08.757Z</time>
      </trkpt>
      <trkpt lat="68.24249" lon="14.58328">
        <ele>3.714289</ele>
        <time>2020-07-15T18:34:14.884Z</time>
      </trkpt>
      <trkpt lat="68.24239" lon="14.58461">
        <ele>4.086439</ele>
        <time>2020-07-15T18:34:24.108Z</time>
      </trkpt>
      <trkpt lat="68.24238" lon="14.58474">
        <ele>4.123873</ele>
        <time>2020-07-15T18:34:25.042Z</time>
      </trkpt>
      <trkpt lat="68.24233" lon="14.58545">
        <ele>3.942801</ele>
        <time>2020-07-15T18:34:29.765Z</time>
      </trkpt>
      <trkpt lat="68.24233" lon="14.58553">
        <ele>3.917061</ele>
        <time>2020-07-15T18:34:30.260Z</time>
      </trkpt>
      <trkpt lat="68.24231" lon="14.58583">
        <ele>3.818243</ele>
        <time>2020-07-15T18:34:32.404Z</time>
      </trkpt>
      <trkpt lat="68.24226" lon="14.58678">
        <ele>3.510956</ele>
        <time>2020-07-15T18:34:38.186Z</time>
      </trkpt>
      <trkpt lat="68.24206" lon="14.59055">
        <ele>2.43052</ele>
        <time>2020-07-15T18:35:00.649Z</time>
      </trkpt>
      <trkpt lat="68.24201" lon="14.59199">
        <ele>2.186804</ele>
        <time>2020-07-15T18:35:09.861Z</time>
      </trkpt>
      <trkpt lat="68.24201" lon="14.59217">
        <ele>2.155358</ele>
        <time>2020-07-15T18:35:10.926Z</time>
      </trkpt>
      <trkpt lat="68.24206" lon="14.59221">
        <ele>2.131901</ele>
        <time>2020-07-15T18:35:12.047Z</time>
      </trkpt>
      <trkpt lat="68.24206" lon="14.59282">
        <ele>2.028656</ele>
        <time>2020-07-15T18:35:16.182Z</time>
      </trkpt>
      <trkpt lat="68.24216" lon="14.59457">
        <ele>1.800246</ele>
        <time>2020-07-15T18:35:27.840Z</time>
      </trkpt>
      <trkpt lat="68.24236" lon="14.59696">
        <ele>2.111941</ele>
        <time>2020-07-15T18:35:44.482Z</time>
      </trkpt>
      <trkpt lat="68.24271" lon="14.59925">
        <ele>2.509178</ele>
        <time>2020-07-15T18:36:02.803Z</time>
      </trkpt>
      <trkpt lat="68.24272" lon="14.59933">
        <ele>2.543056</ele>
        <time>2020-07-15T18:36:03.184Z</time>
      </trkpt>
      <trkpt lat="68.24313" lon="14.60176">
        <ele>3.591295</ele>
        <time>2020-07-15T18:36:24.022Z</time>
      </trkpt>
      <trkpt lat="68.24393" lon="14.60656">
        <ele>5.768169</ele>
        <time>2020-07-15T18:37:08.364Z</time>
      </trkpt>
      <trkpt lat="68.244" lon="14.60703">
        <ele>5.980608</ele>
        <time>2020-07-15T18:37:12.166Z</time>
      </trkpt>
      <trkpt lat="68.2441" lon="14.60775">
        <ele>6.307373</ele>
        <time>2020-07-15T18:37:17.837Z</time>
      </trkpt>
      <trkpt lat="68.24422" lon="14.60881">
        <ele>6.106758</ele>
        <time>2020-07-15T18:37:25.194Z</time>
      </trkpt>
      <trkpt lat="68.24432" lon="14.61039">
        <ele>5.719754</ele>
        <time>2020-07-15T18:37:34.875Z</time>
      </trkpt>
      <trkpt lat="68.24434" lon="14.61086">
        <ele>5.604381</ele>
        <time>2020-07-15T18:37:37.597Z</time>
      </trkpt>
      <trkpt lat="68.24443" lon="14.61406">
        <ele>4.949899</ele>
        <time>2020-07-15T18:37:55.379Z</time>
      </trkpt>
      <trkpt lat="68.24457" lon="14.61673">
        <ele>4.528084</ele>
        <time>2020-07-15T18:38:11.443Z</time>
      </trkpt>
      <trkpt lat="68.24567" lon="14.628">
        <ele>11.891728</ele>
        <time>2020-07-15T18:39:51.906Z</time>
      </trkpt>
      <trkpt lat="68.24587" lon="14.63133">
        <ele>16.096808</ele>
        <time>2020-07-15T18:40:30.356Z</time>
      </trkpt>
      <trkpt lat="68.24588" lon="14.63213">
        <ele>18.113392</ele>
        <time>2020-07-15T18:40:38.327Z</time>
      </trkpt>
      <trkpt lat="68.24576" lon="14.63279">
        <ele>20.402559</ele>
        <time>2020-07-15T18:40:45.449Z</time>
      </trkpt>
      <trkpt lat="68.24556" lon="14.6331">
        <ele>22.287083</ele>
        <time>2020-07-15T18:40:56.440Z</time>
      </trkpt>
      <trkpt lat="68.24527" lon="14.63308">
        <ele>24.75452</ele>
        <time>2020-07-15T18:41:10.225Z</time>
      </trkpt>
      <trkpt lat="68.24505" lon="14.63294">
        <ele>26.575558</ele>
        <time>2020-07-15T18:41:18.144Z</time>
      </trkpt>
      <trkpt lat="68.2448" lon="14.63277">
        <ele>28.790216</ele>
        <time>2020-07-15T18:41:31.806Z</time>
      </trkpt>
      <trkpt lat="68.24462" lon="14.63267">
        <ele>30.286554</ele>
        <time>2020-07-15T18:41:43.372Z</time>
      </trkpt>
      <trkpt lat="68.24438" lon="14.6327">
        <ele>32.335327</ele>
        <time>2020-07-15T18:41:53.345Z</time>
      </trkpt>
      <trkpt lat="68.24435" lon="14.63272">
        <ele>32.583868</ele>
        <time>2020-07-15T18:41:54.432Z</time>
      </trkpt>
      <trkpt lat="68.24431" lon="14.63275">
        <ele>33.03684</ele>
        <time>2020-07-15T18:41:59.735Z</time>
      </trkpt>
      <trkpt lat="68.24395" lon="14.63322">
        <ele>36.594757</ele>
        <time>2020-07-15T18:42:24.781Z</time>
      </trkpt>
      <trkpt lat="68.24373" lon="14.63383">
        <ele>39.378168</ele>
        <time>2020-07-15T18:42:40.448Z</time>
      </trkpt>
      <trkpt lat="68.24359" lon="14.63481">
        <ele>42.854104</ele>
        <time>2020-07-15T18:43:00.902Z</time>
      </trkpt>
      <trkpt lat="68.24358" lon="14.63557">
        <ele>45.392405</ele>
        <time>2020-07-15T18:43:05.189Z</time>
      </trkpt>
      <trkpt lat="68.24359" lon="14.63575">
        <ele>45.974549</ele>
        <time>2020-07-15T18:43:11.586Z</time>
      </trkpt>
      <trkpt lat="68.24375" lon="14.63894">
        <ele>40.005787</ele>
        <time>2020-07-15T18:43:26.979Z</time>
      </trkpt>
      <trkpt lat="68.24404" lon="14.64416">
        <ele>19.277012</ele>
        <time>2020-07-15T18:43:47.415Z</time>
      </trkpt>
      <trkpt lat="68.24418" lon="14.64704">
        <ele>9.683809</ele>
        <time>2020-07-15T18:43:59.336Z</time>
      </trkpt>
      <trkpt lat="68.24424" lon="14.64795">
        <ele>8.389668</ele>
        <time>2020-07-15T18:44:03.555Z</time>
      </trkpt>
      <trkpt lat="68.24425" lon="14.64826">
        <ele>7.956982</ele>
        <time>2020-07-15T18:44:05.139Z</time>
      </trkpt>
      <trkpt lat="68.24432" lon="14.64943">
        <ele>6.284815</ele>
        <time>2020-07-15T18:44:11.497Z</time>
      </trkpt>
      <trkpt lat="68.24447" lon="14.65232">
        <ele>5.309065</ele>
        <time>2020-07-15T18:44:32.177Z</time>
      </trkpt>
      <trkpt lat="68.2446" lon="14.65361">
        <ele>5.848607</ele>
        <time>2020-07-15T18:44:44.657Z</time>
      </trkpt>
      <trkpt lat="68.24488" lon="14.65475">
        <ele>6.395418</ele>
        <time>2020-07-15T18:44:56.546Z</time>
      </trkpt>
      <trkpt lat="68.24505" lon="14.65525">
        <ele>6.518169</ele>
        <time>2020-07-15T18:45:02.640Z</time>
      </trkpt>
      <trkpt lat="68.24638" lon="14.65833">
        <ele>5.601915</ele>
        <time>2020-07-15T18:45:30.985Z</time>
      </trkpt>
      <trkpt lat="68.24669" lon="14.65897">
        <ele>4.847951</ele>
        <time>2020-07-15T18:45:36.147Z</time>
      </trkpt>
      <trkpt lat="68.24716" lon="14.65971">
        <ele>3.781919</ele>
        <time>2020-07-15T18:45:43.579Z</time>
      </trkpt>
      <trkpt lat="68.24814" lon="14.66091">
        <ele>1.948095</ele>
        <time>2020-07-15T18:45:58.963Z</time>
      </trkpt>
      <trkpt lat="68.24906" lon="14.66205">
        <ele>1.025645</ele>
        <time>2020-07-15T18:46:14.573Z</time>
      </trkpt>
      <trkpt lat="68.24922" lon="14.66222">
        <ele>0.872529</ele>
        <time>2020-07-15T18:46:17.292Z</time>
      </trkpt>
      <trkpt lat="68.24946" lon="14.66248">
        <ele>0.629648</ele>
        <time>2020-07-15T18:46:21.839Z</time>
      </trkpt>
      <trkpt lat="68.24976" lon="14.66274">
        <ele>0.762612</ele>
        <time>2020-07-15T18:46:27.458Z</time>
      </trkpt>
      <trkpt lat="68.24985" lon="14.66281">
        <ele>0.850861</ele>
        <time>2020-07-15T18:46:29.134Z</time>
      </trkpt>
      <trkpt lat="68.25006" lon="14.66294">
        <ele>1.053125</ele>
        <time>2020-07-15T18:46:33.346Z</time>
      </trkpt>
      <trkpt lat="68.25018" lon="14.66301">
        <ele>1.174509</ele>
        <time>2020-07-15T18:46:35.853Z</time>
      </trkpt>
      <trkpt lat="68.25037" lon="14.66307">
        <ele>1.350099</ele>
        <time>2020-07-15T18:46:39.727Z</time>
      </trkpt>
      <trkpt lat="68.25055" lon="14.66311">
        <ele>1.521056</ele>
        <time>2020-07-15T18:46:43.480Z</time>
      </trkpt>
      <trkpt lat="68.25073" lon="14.66313">
        <ele>1.695263</ele>
        <time>2020-07-15T18:46:47.546Z</time>
      </trkpt>
      <trkpt lat="68.25084" lon="14.66313">
        <ele>1.792747</ele>
        <time>2020-07-15T18:46:49.828Z</time>
      </trkpt>
      <trkpt lat="68.25126" lon="14.66304">
        <ele>2.195945</ele>
        <time>2020-07-15T18:46:59.594Z</time>
      </trkpt>
      <trkpt lat="68.25174" lon="14.66286">
        <ele>3.246314</ele>
        <time>2020-07-15T18:47:11.330Z</time>
      </trkpt>
      <trkpt lat="68.25273" lon="14.6624">
        <ele>5.596117</ele>
        <time>2020-07-15T18:47:37.278Z</time>
      </trkpt>
      <trkpt lat="68.25375" lon="14.66192">
        <ele>7.905096</ele>
        <time>2020-07-15T18:48:04.534Z</time>
      </trkpt>
      <trkpt lat="68.25398" lon="14.66181">
        <ele>8.410655</ele>
        <time>2020-07-15T18:48:10.323Z</time>
      </trkpt>
      <trkpt lat="68.25412" lon="14.66175">
        <ele>8.713441</ele>
        <time>2020-07-15T18:48:14.093Z</time>
      </trkpt>
      <trkpt lat="68.25522" lon="14.66125">
        <ele>10.433763</ele>
        <time>2020-07-15T18:48:40.377Z</time>
      </trkpt>
      <trkpt lat="68.25598" lon="14.6606">
        <ele>10.6293</ele>
        <time>2020-07-15T18:48:55.841Z</time>
      </trkpt>
      <trkpt lat="68.25828" lon="14.65769">
        <ele>8.808343</ele>
        <time>2020-07-15T18:49:35.062Z</time>
      </trkpt>
      <trkpt lat="68.25887" lon="14.65726">
        <ele>8.276617</ele>
        <time>2020-07-15T18:49:44.400Z</time>
      </trkpt>
      <trkpt lat="68.25922" lon="14.65723">
        <ele>7.973231</ele>
        <time>2020-07-15T18:49:49.816Z</time>
      </trkpt>
      <trkpt lat="68.26059" lon="14.65758">
        <ele>7.294349</ele>
        <time>2020-07-15T18:50:12.018Z</time>
      </trkpt>
      <trkpt lat="68.26227" lon="14.65733">
        <ele>7.964223</ele>
        <time>2020-07-15T18:50:43.383Z</time>
      </trkpt>
      <trkpt lat="68.2626" lon="14.65738">
        <ele>8.445097</ele>
        <time>2020-07-15T18:50:50.636Z</time>
      </trkpt>
      <trkpt lat="68.26527" lon="14.65948">
        <ele>13.698224</ele>
        <time>2020-07-15T18:52:00.049Z</time>
      </trkpt>
      <trkpt lat="68.26593" lon="14.65972">
        <ele>14.356597</ele>
        <time>2020-07-15T18:52:15.089Z</time>
      </trkpt>
      <trkpt lat="68.2662" lon="14.65967">
        <ele>14.624492</ele>
        <time>2020-07-15T18:52:20.772Z</time>
      </trkpt>
      <trkpt lat="68.26662" lon="14.6594">
        <ele>15.04782</ele>
        <time>2020-07-15T18:52:29.252Z</time>
      </trkpt>
      <trkpt lat="68.26815" lon="14.65772">
        <ele>16.173654</ele>
        <time>2020-07-15T18:52:59.869Z</time>
      </trkpt>
      <trkpt lat="68.26873" lon="14.65726">
        <ele>16.607626</ele>
        <time>2020-07-15T18:53:12.719Z</time>
      </trkpt>
      <trkpt lat="68.27198" lon="14.65702">
        <ele>21.451745</ele>
        <time>2020-07-15T18:54:29.951Z</time>
      </trkpt>
      <trkpt lat="68.27256" lon="14.65697">
        <ele>21.153505</ele>
        <time>2020-07-15T18:54:39.304Z</time>
      </trkpt>
      <trkpt lat="68.27301" lon="14.65696">
        <ele>20.16806</ele>
        <time>2020-07-15T18:54:45.739Z</time>
      </trkpt>
      <trkpt lat="68.2743" lon="14.65688">
        <ele>17.431404</ele>
        <time>2020-07-15T18:55:02.602Z</time>
      </trkpt>
      <trkpt lat="68.27446" lon="14.65691">
        <ele>17.104864</ele>
        <time>2020-07-15T18:55:04.785Z</time>
      </trkpt>
      <trkpt lat="68.27477" lon="14.65721">
        <ele>16.467808</ele>
        <time>2020-07-15T18:55:09.273Z</time>
      </trkpt>
      <trkpt lat="68.27512" lon="14.658">
        <ele>15.577865</ele>
        <time>2020-07-15T18:55:15.779Z</time>
      </trkpt>
      <trkpt lat="68.27548" lon="14.65976">
        <ele>14.232858</ele>
        <time>2020-07-15T18:55:27.197Z</time>
      </trkpt>
      <trkpt lat="68.2757" lon="14.66051">
        <ele>13.813185</ele>
        <time>2020-07-15T18:55:33.208Z</time>
      </trkpt>
      <trkpt lat="68.27695" lon="14.66248">
        <ele>12.057894</ele>
        <time>2020-07-15T18:55:55.415Z</time>
      </trkpt>
      <trkpt lat="68.27732" lon="14.66285">
        <ele>11.420659</ele>
        <time>2020-07-15T18:56:00.506Z</time>
      </trkpt>
      <trkpt lat="68.27744" lon="14.66291">
        <ele>11.209118</ele>
        <time>2020-07-15T18:56:02.744Z</time>
      </trkpt>
      <trkpt lat="68.27752" lon="14.66292">
        <ele>11.077306</ele>
        <time>2020-07-15T18:56:03.677Z</time>
      </trkpt>
      <trkpt lat="68.27782" lon="14.66284">
        <ele>10.581383</ele>
        <time>2020-07-15T18:56:08.179Z</time>
      </trkpt>
      <trkpt lat="68.27788" lon="14.66279">
        <ele>10.480555</ele>
        <time>2020-07-15T18:56:08.901Z</time>
      </trkpt>
      <trkpt lat="68.27794" lon="14.66275">
        <ele>10.379559</ele>
        <time>2020-07-15T18:56:09.639Z</time>
      </trkpt>
      <trkpt lat="68.27806" lon="14.66262">
        <ele>10.176586</ele>
        <time>2020-07-15T18:56:12.065Z</time>
      </trkpt>
      <trkpt lat="68.27872" lon="14.66177">
        <ele>9.31678</ele>
        <time>2020-07-15T18:56:23.677Z</time>
      </trkpt>
      <trkpt lat="68.27886" lon="14.66161">
        <ele>9.314446</ele>
        <time>2020-07-15T18:56:25.957Z</time>
      </trkpt>
      <trkpt lat="68.27952" lon="14.66076">
        <ele>9.302492</ele>
        <time>2020-07-15T18:56:39.049Z</time>
      </trkpt>
      <trkpt lat="68.28016" lon="14.66006">
        <ele>9.291177</ele>
        <time>2020-07-15T18:56:54.149Z</time>
      </trkpt>
      <trkpt lat="68.28089" lon="14.65977">
        <ele>7.76546</ele>
        <time>2020-07-15T18:57:05.784Z</time>
      </trkpt>
      <trkpt lat="68.28175" lon="14.65966">
        <ele>5.962113</ele>
        <time>2020-07-15T18:57:16.916Z</time>
      </trkpt>
      <trkpt lat="68.28194" lon="14.65964">
        <ele>5.562387</ele>
        <time>2020-07-15T18:57:19.365Z</time>
      </trkpt>
      <trkpt lat="68.28211" lon="14.65963">
        <ele>5.359992</ele>
        <time>2020-07-15T18:57:21.428Z</time>
      </trkpt>
      <trkpt lat="68.28232" lon="14.65964">
        <ele>5.112707</ele>
        <time>2020-07-15T18:57:24.220Z</time>
      </trkpt>
      <trkpt lat="68.28248" lon="14.65964">
        <ele>4.937223</ele>
        <time>2020-07-15T18:57:26.878Z</time>
      </trkpt>
      <trkpt lat="68.28269" lon="14.65964">
        <ele>4.692229</ele>
        <time>2020-07-15T18:57:29.666Z</time>
      </trkpt>
      <trkpt lat="68.28302" lon="14.65966">
        <ele>4.317159</ele>
        <time>2020-07-15T18:57:34.746Z</time>
      </trkpt>
      <trkpt lat="68.28336" lon="14.65986">
        <ele>3.92538</ele>
        <time>2020-07-15T18:57:40.484Z</time>
      </trkpt>
      <trkpt lat="68.28345" lon="14.65996">
        <ele>3.81587</ele>
        <time>2020-07-15T18:57:42.153Z</time>
      </trkpt>
      <trkpt lat="68.28351" lon="14.66004">
        <ele>3.732232</ele>
        <time>2020-07-15T18:57:44.530Z</time>
      </trkpt>
      <trkpt lat="68.28364" lon="14.66026">
        <ele>3.564623</ele>
        <time>2020-07-15T18:57:47.187Z</time>
      </trkpt>
      <trkpt lat="68.28373" lon="14.66045">
        <ele>3.512152</ele>
        <time>2020-07-15T18:57:49.099Z</time>
      </trkpt>
      <trkpt lat="68.2838" lon="14.66064">
        <ele>3.599048</ele>
        <time>2020-07-15T18:57:52.559Z</time>
      </trkpt>
      <trkpt lat="68.28402" lon="14.66162">
        <ele>3.973644</ele>
        <time>2020-07-15T18:58:02.091Z</time>
      </trkpt>
      <trkpt lat="68.28408" lon="14.66265">
        <ele>4.310717</ele>
        <time>2020-07-15T18:58:10.778Z</time>
      </trkpt>
      <trkpt lat="68.28401" lon="14.66389">
        <ele>4.719358</ele>
        <time>2020-07-15T18:58:20.550Z</time>
      </trkpt>
      <trkpt lat="68.28373" lon="14.66702">
        <ele>4.901095</ele>
        <time>2020-07-15T18:58:41.221Z</time>
      </trkpt>
      <trkpt lat="68.28373" lon="14.66839">
        <ele>4.801799</ele>
        <time>2020-07-15T18:58:49.396Z</time>
      </trkpt>
      <trkpt lat="68.28388" lon="14.67107">
        <ele>4.960055</ele>
        <time>2020-07-15T18:59:06.954Z</time>
      </trkpt>
      <trkpt lat="68.28403" lon="14.6738">
        <ele>5.461683</ele>
        <time>2020-07-15T18:59:27.370Z</time>
      </trkpt>
      <trkpt lat="68.28423" lon="14.67621">
        <ele>6.32929</ele>
        <time>2020-07-15T18:59:46.658Z</time>
      </trkpt>
      <trkpt lat="68.28431" lon="14.67676">
        <ele>6.578378</ele>
        <time>2020-07-15T18:59:51.375Z</time>
      </trkpt>
      <trkpt lat="68.28474" lon="14.67916">
        <ele>7.703232</ele>
        <time>2020-07-15T19:00:13.016Z</time>
      </trkpt>
      <trkpt lat="68.28624" lon="14.68775">
        <ele>11.597477</ele>
        <time>2020-07-15T19:01:30.701Z</time>
      </trkpt>
      <trkpt lat="68.28631" lon="14.68815">
        <ele>11.324115</ele>
        <time>2020-07-15T19:01:33.228Z</time>
      </trkpt>
      <trkpt lat="68.28699" lon="14.69201">
        <ele>8.053504</ele>
        <time>2020-07-15T19:01:54.780Z</time>
      </trkpt>
      <trkpt lat="68.28711" lon="14.69258">
        <ele>7.541085</ele>
        <time>2020-07-15T19:01:57.961Z</time>
      </trkpt>
      <trkpt lat="68.28719" lon="14.69287">
        <ele>7.262017</ele>
        <time>2020-07-15T19:01:59.688Z</time>
      </trkpt>
      <trkpt lat="68.28752" lon="14.69382">
        <ele>6.219233</ele>
        <time>2020-07-15T19:02:06.238Z</time>
      </trkpt>
      <trkpt lat="68.2879" lon="14.69453">
        <ele>5.227188</ele>
        <time>2020-07-15T19:02:12.598Z</time>
      </trkpt>
      <trkpt lat="68.28998" lon="14.69659">
        <ele>2.418661</ele>
        <time>2020-07-15T19:02:46.561Z</time>
      </trkpt>
      <trkpt lat="68.29049" lon="14.69687">
        <ele>2.23066</ele>
        <time>2020-07-15T19:02:55.212Z</time>
      </trkpt>
      <trkpt lat="68.295" lon="14.69841">
        <ele>2.252873</ele>
        <time>2020-07-15T19:04:15.408Z</time>
      </trkpt>
      <trkpt lat="68.29535" lon="14.6988">
        <ele>2.385225</ele>
        <time>2020-07-15T19:04:23.460Z</time>
      </trkpt>
      <trkpt lat="68.29555" lon="14.69928">
        <ele>2.677263</ele>
        <time>2020-07-15T19:04:29.485Z</time>
      </trkpt>
      <trkpt lat="68.29561" lon="14.69948">
        <ele>2.807954</ele>
        <time>2020-07-15T19:04:31.903Z</time>
      </trkpt>
      <trkpt lat="68.29593" lon="14.70082">
        <ele>3.661033</ele>
        <time>2020-07-15T19:04:45.519Z</time>
      </trkpt>
      <trkpt lat="68.29615" lon="14.70158">
        <ele>4.183647</ele>
        <time>2020-07-15T19:04:53.900Z</time>
      </trkpt>
      <trkpt lat="68.29622" lon="14.70175">
        <ele>4.318909</ele>
        <time>2020-07-15T19:04:56.036Z</time>
      </trkpt>
      <trkpt lat="68.29629" lon="14.70188">
        <ele>4.434912</ele>
        <time>2020-07-15T19:04:58.439Z</time>
      </trkpt>
      <trkpt lat="68.29651" lon="14.7022">
        <ele>4.801787</ele>
        <time>2020-07-15T19:05:03.646Z</time>
      </trkpt>
      <trkpt lat="68.29674" lon="14.70237">
        <ele>5.042556</ele>
        <time>2020-07-15T19:05:09.120Z</time>
      </trkpt>
      <trkpt lat="68.29799" lon="14.70226">
        <ele>5.414893</ele>
        <time>2020-07-15T19:05:32.847Z</time>
      </trkpt>
      <trkpt lat="68.29846" lon="14.70252">
        <ele>5.573566</ele>
        <time>2020-07-15T19:05:40.485Z</time>
      </trkpt>
      <trkpt lat="68.29878" lon="14.70311">
        <ele>6.020572</ele>
        <time>2020-07-15T19:05:47.095Z</time>
      </trkpt>
      <trkpt lat="68.2994" lon="14.70506">
        <ele>7.108828</ele>
        <time>2020-07-15T19:06:06.764Z</time>
      </trkpt>
      <trkpt lat="68.29988" lon="14.70603">
        <ele>8.300036</ele>
        <time>2020-07-15T19:06:22.582Z</time>
      </trkpt>
      <trkpt lat="68.30028" lon="14.70646">
        <ele>10.133903</ele>
        <time>2020-07-15T19:06:35.606Z</time>
      </trkpt>
      <trkpt lat="68.30129" lon="14.70712">
        <ele>14.607216</ele>
        <time>2020-07-15T19:07:10.882Z</time>
      </trkpt>
      <trkpt lat="68.3021" lon="14.70762">
        <ele>17.486064</ele>
        <time>2020-07-15T19:07:37.614Z</time>
      </trkpt>
      <trkpt lat="68.30275" lon="14.70801">
        <ele>19.63768</ele>
        <time>2020-07-15T19:07:56.196Z</time>
      </trkpt>
      <trkpt lat="68.30318" lon="14.70824">
        <ele>21.055581</ele>
        <time>2020-07-15T19:08:07.048Z</time>
      </trkpt>
      <trkpt lat="68.30366" lon="14.70834">
        <ele>21.509028</ele>
        <time>2020-07-15T19:08:17.501Z</time>
      </trkpt>
      <trkpt lat="68.30624" lon="14.70792">
        <ele>22.771063</ele>
        <time>2020-07-15T19:09:06.747Z</time>
      </trkpt>
      <trkpt lat="68.30691" lon="14.708">
        <ele>22.831909</ele>
        <time>2020-07-15T19:09:18.835Z</time>
      </trkpt>
      <trkpt lat="68.30986" lon="14.71002">
        <ele>21.364411</ele>
        <time>2020-07-15T19:10:08.547Z</time>
      </trkpt>
      <trkpt lat="68.31037" lon="14.71012">
        <ele>21.202022</ele>
        <time>2020-07-15T19:10:16.824Z</time>
      </trkpt>
      <trkpt lat="68.31129" lon="14.70992">
        <ele>21.9457</ele>
        <time>2020-07-15T19:10:33.957Z</time>
      </trkpt>
      <trkpt lat="68.31165" lon="14.71005">
        <ele>22.240755</ele>
        <time>2020-07-15T19:10:41.618Z</time>
      </trkpt>
      <trkpt lat="68.3129" lon="14.71155">
        <ele>24.762969</ele>
        <time>2020-07-15T19:11:15.789Z</time>
      </trkpt>
      <trkpt lat="68.31365" lon="14.71254">
        <ele>26.738389</ele>
        <time>2020-07-15T19:11:37.258Z</time>
      </trkpt>
      <trkpt lat="68.31463" lon="14.71381">
        <ele>29.373318</ele>
        <time>2020-07-15T19:12:06.908Z</time>
      </trkpt>
      <trkpt lat="68.31484" lon="14.71406">
        <ele>29.926631</ele>
        <time>2020-07-15T19:12:12.888Z</time>
      </trkpt>
      <trkpt lat="68.31497" lon="14.71419">
        <ele>30.263304</ele>
        <time>2020-07-15T19:12:16.410Z</time>
      </trkpt>
      <trkpt lat="68.31512" lon="14.71431">
        <ele>30.639742</ele>
        <time>2020-07-15T19:12:20.328Z</time>
      </trkpt>
      <trkpt lat="68.31538" lon="14.71444">
        <ele>31.182901</ele>
        <time>2020-07-15T19:12:26.192Z</time>
      </trkpt>
      <trkpt lat="68.31555" lon="14.71447">
        <ele>31.062558</ele>
        <time>2020-07-15T19:12:30.067Z</time>
      </trkpt>
      <trkpt lat="68.3157" lon="14.71446">
        <ele>30.959003</ele>
        <time>2020-07-15T19:12:33.247Z</time>
      </trkpt>
      <trkpt lat="68.31619" lon="14.71415">
        <ele>30.607368</ele>
        <time>2020-07-15T19:12:43.143Z</time>
      </trkpt>
      <trkpt lat="68.31656" lon="14.71363">
        <ele>30.318384</ele>
        <time>2020-07-15T19:12:49.868Z</time>
      </trkpt>
      <trkpt lat="68.3171" lon="14.71223">
        <ele>28.892057</ele>
        <time>2020-07-15T19:12:59.859Z</time>
      </trkpt>
      <trkpt lat="68.31781" lon="14.71009">
        <ele>23.846166</ele>
        <time>2020-07-15T19:13:12.609Z</time>
      </trkpt>
      <trkpt lat="68.31827" lon="14.708">
        <ele>19.792676</ele>
        <time>2020-07-15T19:13:23.383Z</time>
      </trkpt>
      <trkpt lat="68.31909" lon="14.70261">
        <ele>11.464722</ele>
        <time>2020-07-15T19:13:50.669Z</time>
      </trkpt>
      <trkpt lat="68.31915" lon="14.70228">
        <ele>11.035649</ele>
        <time>2020-07-15T19:13:52.482Z</time>
      </trkpt>
      <trkpt lat="68.31922" lon="14.70193">
        <ele>10.571561</ele>
        <time>2020-07-15T19:13:54.350Z</time>
      </trkpt>
      <trkpt lat="68.31963" lon="14.70057">
        <ele>8.548157</ele>
        <time>2020-07-15T19:14:03.043Z</time>
      </trkpt>
      <trkpt lat="68.31994" lon="14.69998">
        <ele>8.091292</ele>
        <time>2020-07-15T19:14:08.371Z</time>
      </trkpt>
      <trkpt lat="68.32023" lon="14.69961">
        <ele>8.03598</ele>
        <time>2020-07-15T19:14:13.079Z</time>
      </trkpt>
      <trkpt lat="68.32084" lon="14.69925">
        <ele>7.928725</ele>
        <time>2020-07-15T19:14:24.569Z</time>
      </trkpt>
      <trkpt lat="68.32203" lon="14.69922">
        <ele>8.468112</ele>
        <time>2020-07-15T19:14:50.818Z</time>
      </trkpt>
      <trkpt lat="68.32209" lon="14.69923">
        <ele>8.53143</ele>
        <time>2020-07-15T19:14:52.768Z</time>
      </trkpt>
      <trkpt lat="68.32256" lon="14.69923">
        <ele>9.037971</ele>
        <time>2020-07-15T19:15:03.173Z</time>
      </trkpt>
      <trkpt lat="68.32321" lon="14.69915">
        <ele>9.753889</ele>
        <time>2020-07-15T19:15:16.713Z</time>
      </trkpt>
      <trkpt lat="68.32331" lon="14.69908">
        <ele>9.754906</ele>
        <time>2020-07-15T19:15:18.155Z</time>
      </trkpt>
      <trkpt lat="68.32339" lon="14.69902">
        <ele>9.707424</ele>
        <time>2020-07-15T19:15:20.007Z</time>
      </trkpt>
      <trkpt lat="68.32375" lon="14.69854">
        <ele>9.503718</ele>
        <time>2020-07-15T19:15:27.063Z</time>
      </trkpt>
      <trkpt lat="68.32394" lon="14.69811">
        <ele>9.374655</ele>
        <time>2020-07-15T19:15:30.836Z</time>
      </trkpt>
      <trkpt lat="68.32404" lon="14.6978">
        <ele>9.296545</ele>
        <time>2020-07-15T19:15:33.715Z</time>
      </trkpt>
      <trkpt lat="68.3241" lon="14.6976">
        <ele>9.247947</ele>
        <time>2020-07-15T19:15:35.054Z</time>
      </trkpt>
      <trkpt lat="68.32427" lon="14.69677">
        <ele>9.065391</ele>
        <time>2020-07-15T19:15:40.697Z</time>
      </trkpt>
      <trkpt lat="68.3243" lon="14.69657">
        <ele>9.024711</ele>
        <time>2020-07-15T19:15:41.785Z</time>
      </trkpt>
      <trkpt lat="68.32434" lon="14.69622">
        <ele>8.952818</ele>
        <time>2020-07-15T19:15:44.437Z</time>
      </trkpt>
      <trkpt lat="68.32438" lon="14.69504">
        <ele>8.425256</ele>
        <time>2020-07-15T19:15:51.268Z</time>
      </trkpt>
      <trkpt lat="68.32423" lon="14.69094">
        <ele>5.837215</ele>
        <time>2020-07-15T19:16:13.025Z</time>
      </trkpt>
      <trkpt lat="68.32427" lon="14.69002">
        <ele>5.209492</ele>
        <time>2020-07-15T19:16:17.828Z</time>
      </trkpt>
      <trkpt lat="68.32431" lon="14.68967">
        <ele>4.966441</ele>
        <time>2020-07-15T19:16:19.600Z</time>
      </trkpt>
      <trkpt lat="68.32436" lon="14.6893">
        <ele>4.690161</ele>
        <time>2020-07-15T19:16:21.744Z</time>
      </trkpt>
      <trkpt lat="68.3246" lon="14.68837">
        <ele>3.923694</ele>
        <time>2020-07-15T19:16:27.781Z</time>
      </trkpt>
      <trkpt lat="68.32467" lon="14.6882">
        <ele>3.754164</ele>
        <time>2020-07-15T19:16:28.972Z</time>
      </trkpt>
      <trkpt lat="68.32477" lon="14.68797">
        <ele>3.507102</ele>
        <time>2020-07-15T19:16:30.939Z</time>
      </trkpt>
      <trkpt lat="68.32487" lon="14.68777">
        <ele>3.287089</ele>
        <time>2020-07-15T19:16:32.782Z</time>
      </trkpt>
      <trkpt lat="68.32507" lon="14.68733">
        <ele>2.803662</ele>
        <time>2020-07-15T19:16:36.472Z</time>
      </trkpt>
      <trkpt lat="68.32517" lon="14.68715">
        <ele>2.593372</ele>
        <time>2020-07-15T19:16:38.270Z</time>
      </trkpt>
      <trkpt lat="68.32523" lon="14.68707">
        <ele>2.488685</ele>
        <time>2020-07-15T19:16:39.144Z</time>
      </trkpt>
      <trkpt lat="68.32527" lon="14.68703">
        <ele>2.471331</ele>
        <time>2020-07-15T19:16:39.727Z</time>
      </trkpt>
      <trkpt lat="68.32527" lon="14.68697">
        <ele>2.463006</ele>
        <time>2020-07-15T19:16:40.054Z</time>
      </trkpt>
      <trkpt lat="68.32518" lon="14.68661">
        <ele>2.397136</ele>
        <time>2020-07-15T19:16:42.347Z</time>
      </trkpt>
      <trkpt lat="68.32473" lon="14.68567">
        <ele>2.160319</ele>
        <time>2020-07-15T19:16:51.593Z</time>
      </trkpt>
      <trkpt lat="68.32451" lon="14.68464">
        <ele>1.975323</ele>
        <time>2020-07-15T19:16:59.865Z</time>
      </trkpt>
      <trkpt lat="68.32446" lon="14.68408">
        <ele>1.886253</ele>
        <time>2020-07-15T19:17:03.829Z</time>
      </trkpt>
      <trkpt lat="68.32445" lon="14.6823">
        <ele>1.771211</ele>
        <time>2020-07-15T19:17:15.748Z</time>
      </trkpt>
      <trkpt lat="68.32425" lon="14.68086">
        <ele>1.821157</ele>
        <time>2020-07-15T19:17:25.757Z</time>
      </trkpt>
      <trkpt lat="68.32407" lon="14.67828">
        <ele>1.947917</ele>
        <time>2020-07-15T19:17:43.198Z</time>
      </trkpt>
      <trkpt lat="68.32383" lon="14.67681">
        <ele>2.445878</ele>
        <time>2020-07-15T19:17:54.596Z</time>
      </trkpt>
      <trkpt lat="68.32373" lon="14.67594">
        <ele>2.727232</ele>
        <time>2020-07-15T19:18:01.407Z</time>
      </trkpt>
      <trkpt lat="68.32373" lon="14.67472">
        <ele>3.10724</ele>
        <time>2020-07-15T19:18:11.005Z</time>
      </trkpt>
      <trkpt lat="68.32377" lon="14.67424">
        <ele>3.261042</ele>
        <time>2020-07-15T19:18:15.020Z</time>
      </trkpt>
      <trkpt lat="68.32419" lon="14.6717">
        <ele>5.313129</ele>
        <time>2020-07-15T19:18:39.002Z</time>
      </trkpt>
      <trkpt lat="68.32492" lon="14.6677">
        <ele>8.984498</ele>
        <time>2020-07-15T19:19:23.057Z</time>
      </trkpt>
      <trkpt lat="68.3251" lon="14.66664">
        <ele>9.936972</ele>
        <time>2020-07-15T19:19:33.859Z</time>
      </trkpt>
      <trkpt lat="68.32515" lon="14.66629">
        <ele>10.242037</ele>
        <time>2020-07-15T19:19:37.014Z</time>
      </trkpt>
      <trkpt lat="68.32519" lon="14.66604">
        <ele>10.462206</ele>
        <time>2020-07-15T19:19:40.210Z</time>
      </trkpt>
      <trkpt lat="68.3252" lon="14.66559">
        <ele>10.825044</ele>
        <time>2020-07-15T19:19:43.645Z</time>
      </trkpt>
      <trkpt lat="68.32515" lon="14.66458">
        <ele>11.396855</ele>
        <time>2020-07-15T19:19:52.417Z</time>
      </trkpt>
      <trkpt lat="68.32496" lon="14.66279">
        <ele>11.230784</ele>
        <time>2020-07-15T19:20:06.690Z</time>
      </trkpt>
      <trkpt lat="68.32498" lon="14.66165">
        <ele>11.129489</ele>
        <time>2020-07-15T19:20:13.596Z</time>
      </trkpt>
      <trkpt lat="68.32641" lon="14.65228">
        <ele>4.848712</ele>
        <time>2020-07-15T19:21:06.555Z</time>
      </trkpt>
      <trkpt lat="68.32643" lon="14.65202">
        <ele>4.665164</ele>
        <time>2020-07-15T19:21:07.819Z</time>
      </trkpt>
      <trkpt lat="68.32644" lon="14.65162">
        <ele>4.390197</ele>
        <time>2020-07-15T19:21:10.011Z</time>
      </trkpt>
      <trkpt lat="68.32639" lon="14.65072">
        <ele>3.999956</ele>
        <time>2020-07-15T19:21:14.940Z</time>
      </trkpt>
      <trkpt lat="68.32631" lon="14.65028">
        <ele>3.967255</ele>
        <time>2020-07-15T19:21:17.725Z</time>
      </trkpt>
      <trkpt lat="68.32612" lon="14.64963">
        <ele>3.912836</ele>
        <time>2020-07-15T19:21:22.537Z</time>
      </trkpt>
      <trkpt lat="68.32589" lon="14.64926">
        <ele>3.865092</ele>
        <time>2020-07-15T19:21:26.696Z</time>
      </trkpt>
      <trkpt lat="68.32123" lon="14.64626">
        <ele>7.830079</ele>
        <time>2020-07-15T19:23:05.911Z</time>
      </trkpt>
      <trkpt lat="68.32076" lon="14.64575">
        <ele>9.05962</ele>
        <time>2020-07-15T19:23:18.898Z</time>
      </trkpt>
      <trkpt lat="68.32065" lon="14.64558">
        <ele>9.379014</ele>
        <time>2020-07-15T19:23:22.512Z</time>
      </trkpt>
      <trkpt lat="68.32057" lon="14.64538">
        <ele>9.648653</ele>
        <time>2020-07-15T19:23:25.866Z</time>
      </trkpt>
      <trkpt lat="68.32038" lon="14.64462">
        <ele>10.476396</ele>
        <time>2020-07-15T19:23:35.015Z</time>
      </trkpt>
      <trkpt lat="68.32007" lon="14.64283">
        <ele>12.170171</ele>
        <time>2020-07-15T19:23:55.385Z</time>
      </trkpt>
      <trkpt lat="68.31914" lon="14.63438">
        <ele>18.621001</ele>
        <time>2020-07-15T19:25:12.831Z</time>
      </trkpt>
      <trkpt lat="68.31854" lon="14.63129">
        <ele>21.503655</ele>
        <time>2020-07-15T19:25:43.905Z</time>
      </trkpt>
      <trkpt lat="68.31777" lon="14.62612">
        <ele>27.357355</ele>
        <time>2020-07-15T19:26:39.892Z</time>
      </trkpt>
      <trkpt lat="68.31761" lon="14.62462">
        <ele>29.231676</ele>
        <time>2020-07-15T19:26:57.081Z</time>
      </trkpt>
      <trkpt lat="68.31755" lon="14.62315">
        <ele>31.09232</ele>
        <time>2020-07-15T19:27:13.529Z</time>
      </trkpt>
      <trkpt lat="68.31759" lon="14.61918">
        <ele>35.412069</ele>
        <time>2020-07-15T19:27:55.123Z</time>
      </trkpt>
      <trkpt lat="68.31801" lon="14.61404">
        <ele>38.483349</ele>
        <time>2020-07-15T19:28:39.422Z</time>
      </trkpt>
      <trkpt lat="68.31804" lon="14.61301">
        <ele>38.722037</ele>
        <time>2020-07-15T19:28:46.779Z</time>
      </trkpt>
      <trkpt lat="68.31773" lon="14.60011">
        <ele>39.136792</ele>
        <time>2020-07-15T19:30:10.264Z</time>
      </trkpt>
      <trkpt lat="68.31764" lon="14.59867">
        <ele>39.565372</ele>
        <time>2020-07-15T19:30:21.335Z</time>
      </trkpt>
      <trkpt lat="68.31737" lon="14.59712">
        <ele>40.062289</ele>
        <time>2020-07-15T19:30:35.031Z</time>
      </trkpt>
      <trkpt lat="68.31576" lon="14.592">
        <ele>42.927719</ele>
        <time>2020-07-15T19:31:31.180Z</time>
      </trkpt>
      <trkpt lat="68.31395" lon="14.58464">
        <ele>43.454234</ele>
        <time>2020-07-15T19:32:29.057Z</time>
      </trkpt>
      <trkpt lat="68.31298" lon="14.57921">
        <ele>42.809347</ele>
        <time>2020-07-15T19:33:10.041Z</time>
      </trkpt>
      <trkpt lat="68.31292" lon="14.57844">
        <ele>42.396456</ele>
        <time>2020-07-15T19:33:14.294Z</time>
      </trkpt>
      <trkpt lat="68.31297" lon="14.57655">
        <ele>41.386521</ele>
        <time>2020-07-15T19:33:24.224Z</time>
      </trkpt>
      <trkpt lat="68.31299" lon="14.57563">
        <ele>40.688727</ele>
        <time>2020-07-15T19:33:28.762Z</time>
      </trkpt>
      <trkpt lat="68.31302" lon="14.57484">
        <ele>39.696847</ele>
        <time>2020-07-15T19:33:32.593Z</time>
      </trkpt>
      <trkpt lat="68.31308" lon="14.57421">
        <ele>38.889574</ele>
        <time>2020-07-15T19:33:35.680Z</time>
      </trkpt>
      <trkpt lat="68.31316" lon="14.57392">
        <ele>38.442935</ele>
        <time>2020-07-15T19:33:37.380Z</time>
      </trkpt>
      <trkpt lat="68.3143" lon="14.57083">
        <ele>33.244816</ele>
        <time>2020-07-15T19:33:58.120Z</time>
      </trkpt>
      <trkpt lat="68.31483" lon="14.56748">
        <ele>29.322202</ele>
        <time>2020-07-15T19:34:16.187Z</time>
      </trkpt>
      <trkpt lat="68.31509" lon="14.56571">
        <ele>27.737212</ele>
        <time>2020-07-15T19:34:25.854Z</time>
      </trkpt>
      <trkpt lat="68.31534" lon="14.564">
        <ele>26.204914</ele>
        <time>2020-07-15T19:34:35.358Z</time>
      </trkpt>
      <trkpt lat="68.31584" lon="14.56078">
        <ele>24.556706</ele>
        <time>2020-07-15T19:34:54.064Z</time>
      </trkpt>
      <trkpt lat="68.3161" lon="14.55975">
        <ele>24.091873</ele>
        <time>2020-07-15T19:35:01.324Z</time>
      </trkpt>
      <trkpt lat="68.3183" lon="14.55458">
        <ele>25.27369</ele>
        <time>2020-07-15T19:35:57.975Z</time>
      </trkpt>
      <trkpt lat="68.31872" lon="14.55319">
        <ele>25.906369</ele>
        <time>2020-07-15T19:36:12.845Z</time>
      </trkpt>
      <trkpt lat="68.31917" lon="14.55136">
        <ele>26.640062</ele>
        <time>2020-07-15T19:36:30.820Z</time>
      </trkpt>
      <trkpt lat="68.32032" lon="14.54452">
        <ele>28.720391</ele>
        <time>2020-07-15T19:37:26.457Z</time>
      </trkpt>
      <trkpt lat="68.3212" lon="14.54112">
        <ele>29.297584</ele>
        <time>2020-07-15T19:37:56.092Z</time>
      </trkpt>
      <trkpt lat="68.32184" lon="14.53933">
        <ele>29.112764</ele>
        <time>2020-07-15T19:38:12.716Z</time>
      </trkpt>
      <trkpt lat="68.32203" lon="14.53864">
        <ele>28.713432</ele>
        <time>2020-07-15T19:38:18.019Z</time>
      </trkpt>
      <trkpt lat="68.32219" lon="14.53773">
        <ele>28.258058</ele>
        <time>2020-07-15T19:38:23.792Z</time>
      </trkpt>
      <trkpt lat="68.32287" lon="14.53244">
        <ele>24.480471</ele>
        <time>2020-07-15T19:38:52.441Z</time>
      </trkpt>
      <trkpt lat="68.32344" lon="14.52746">
        <ele>21.107927</ele>
        <time>2020-07-15T19:39:19.555Z</time>
      </trkpt>
      <trkpt lat="68.32365" lon="14.52497">
        <ele>20.662681</ele>
        <time>2020-07-15T19:39:35.771Z</time>
      </trkpt>
      <trkpt lat="68.32382" lon="14.52305">
        <ele>20.918851</ele>
        <time>2020-07-15T19:39:50.407Z</time>
      </trkpt>
      <trkpt lat="68.32405" lon="14.52055">
        <ele>20.918775</ele>
        <time>2020-07-15T19:40:10.130Z</time>
      </trkpt>
      <trkpt lat="68.3241" lon="14.52001">
        <ele>20.824486</ele>
        <time>2020-07-15T19:40:14.248Z</time>
      </trkpt>
      <trkpt lat="68.32448" lon="14.51754">
        <ele>20.377564</ele>
        <time>2020-07-15T19:40:30.016Z</time>
      </trkpt>
      <trkpt lat="68.32478" lon="14.51589">
        <ele>19.017262</ele>
        <time>2020-07-15T19:40:39.567Z</time>
      </trkpt>
      <trkpt lat="68.32498" lon="14.51474">
        <ele>17.796653</ele>
        <time>2020-07-15T19:40:45.888Z</time>
      </trkpt>
      <trkpt lat="68.32553" lon="14.51158">
        <ele>14.487615</ele>
        <time>2020-07-15T19:41:02.842Z</time>
      </trkpt>
      <trkpt lat="68.32571" lon="14.51056">
        <ele>13.42328</ele>
        <time>2020-07-15T19:41:08.573Z</time>
      </trkpt>
      <trkpt lat="68.32586" lon="14.51006">
        <ele>12.835403</ele>
        <time>2020-07-15T19:41:11.818Z</time>
      </trkpt>
      <trkpt lat="68.32613" lon="14.50949">
        <ele>11.973503</ele>
        <time>2020-07-15T19:41:16.542Z</time>
      </trkpt>
      <trkpt lat="68.32628" lon="14.50935">
        <ele>11.55472</ele>
        <time>2020-07-15T19:41:18.807Z</time>
      </trkpt>
      <trkpt lat="68.32645" lon="14.50925">
        <ele>11.110031</ele>
        <time>2020-07-15T19:41:21.292Z</time>
      </trkpt>
      <trkpt lat="68.32657" lon="14.50927">
        <ele>10.815069</ele>
        <time>2020-07-15T19:41:22.913Z</time>
      </trkpt>
      <trkpt lat="68.32701" lon="14.5096">
        <ele>9.692198</ele>
        <time>2020-07-15T19:41:29.294Z</time>
      </trkpt>
      <trkpt lat="68.32814" lon="14.51077">
        <ele>6.719917</ele>
        <time>2020-07-15T19:41:45.605Z</time>
      </trkpt>
      <trkpt lat="68.32875" lon="14.51108">
        <ele>5.336749</ele>
        <time>2020-07-15T19:41:54.073Z</time>
      </trkpt>
      <trkpt lat="68.32882" lon="14.51109">
        <ele>5.176695</ele>
        <time>2020-07-15T19:41:54.937Z</time>
      </trkpt>
      <trkpt lat="68.32917" lon="14.51114">
        <ele>4.392081</ele>
        <time>2020-07-15T19:41:59.797Z</time>
      </trkpt>
      <trkpt lat="68.32937" lon="14.51117">
        <ele>3.956863</ele>
        <time>2020-07-15T19:42:02.653Z</time>
      </trkpt>
      <trkpt lat="68.3296" lon="14.51119">
        <ele>3.4373</ele>
        <time>2020-07-15T19:42:05.887Z</time>
      </trkpt>
      <trkpt lat="68.32993" lon="14.51123">
        <ele>2.697533</ele>
        <time>2020-07-15T19:42:10.672Z</time>
      </trkpt>
      <trkpt lat="68.33006" lon="14.51125">
        <ele>2.614462</ele>
        <time>2020-07-15T19:42:12.684Z</time>
      </trkpt>
      <trkpt lat="68.33009" lon="14.51126">
        <ele>2.605278</ele>
        <time>2020-07-15T19:42:13.076Z</time>
      </trkpt>
      <trkpt lat="68.33011" lon="14.51127">
        <ele>2.59535</ele>
        <time>2020-07-15T19:42:13.480Z</time>
      </trkpt>
      <trkpt lat="68.33035" lon="14.51129">
        <ele>2.506657</ele>
        <time>2020-07-15T19:42:16.850Z</time>
      </trkpt>
      <trkpt lat="68.33083" lon="14.51123">
        <ele>2.321578</ele>
        <time>2020-07-15T19:42:24.929Z</time>
      </trkpt>
      <trkpt lat="68.331" lon="14.51113">
        <ele>2.255078</ele>
        <time>2020-07-15T19:42:27.997Z</time>
      </trkpt>
      <trkpt lat="68.33113" lon="14.51102">
        <ele>2.205616</ele>
        <time>2020-07-15T19:42:30.254Z</time>
      </trkpt>
      <trkpt lat="68.33145" lon="14.51054">
        <ele>2.066581</ele>
        <time>2020-07-15T19:42:36.905Z</time>
      </trkpt>
      <trkpt lat="68.33162" lon="14.51013">
        <ele>1.979032</ele>
        <time>2020-07-15T19:42:41.371Z</time>
      </trkpt>
      <trkpt lat="68.33226" lon="14.50814">
        <ele>3.010807</ele>
        <time>2020-07-15T19:43:01.671Z</time>
      </trkpt>
      <trkpt lat="68.33248" lon="14.50736">
        <ele>3.400693</ele>
        <time>2020-07-15T19:43:09.573Z</time>
      </trkpt>
      <trkpt lat="68.33271" lon="14.50665">
        <ele>3.780517</ele>
        <time>2020-07-15T19:43:17.478Z</time>
      </trkpt>
      <trkpt lat="68.33386" lon="14.50285">
        <ele>6.337365</ele>
        <time>2020-07-15T19:43:58.829Z</time>
      </trkpt>
      <trkpt lat="68.33399" lon="14.50242">
        <ele>6.601476</ele>
        <time>2020-07-15T19:44:03.160Z</time>
      </trkpt>
      <trkpt lat="68.33423" lon="14.50173">
        <ele>6.992747</ele>
        <time>2020-07-15T19:44:10.465Z</time>
      </trkpt>
      <trkpt lat="68.3343" lon="14.50158">
        <ele>7.092328</ele>
        <time>2020-07-15T19:44:12.292Z</time>
      </trkpt>
      <trkpt lat="68.33449" lon="14.50121">
        <ele>7.355882</ele>
        <time>2020-07-15T19:44:17.107Z</time>
      </trkpt>
      <trkpt lat="68.33609" lon="14.49853">
        <ele>9.6627</ele>
        <time>2020-07-15T19:44:57.623Z</time>
      </trkpt>
      <trkpt lat="68.33653" lon="14.49777">
        <ele>10.384728</ele>
        <time>2020-07-15T19:45:09.867Z</time>
      </trkpt>
      <trkpt lat="68.33666" lon="14.49757">
        <ele>10.587812</ele>
        <time>2020-07-15T19:45:13.032Z</time>
      </trkpt>
      <trkpt lat="68.33677" lon="14.49738">
        <ele>10.762822</ele>
        <time>2020-07-15T19:45:16.169Z</time>
      </trkpt>
      <trkpt lat="68.33701" lon="14.49677">
        <ele>11.151377</ele>
        <time>2020-07-15T19:45:23.657Z</time>
      </trkpt>
      <trkpt lat="68.33717" lon="14.49612">
        <ele>11.441253</ele>
        <time>2020-07-15T19:45:30.014Z</time>
      </trkpt>
      <trkpt lat="68.33778" lon="14.49122">
        <ele>13.186929</ele>
        <time>2020-07-15T19:46:09.200Z</time>
      </trkpt>
      <trkpt lat="68.3379" lon="14.4904">
        <ele>13.401383</ele>
        <time>2020-07-15T19:46:15.507Z</time>
      </trkpt>
      <trkpt lat="68.33796" lon="14.49001">
        <ele>13.509125</ele>
        <time>2020-07-15T19:46:18.569Z</time>
      </trkpt>
      <trkpt lat="68.33798" lon="14.48988">
        <ele>13.543401</ele>
        <time>2020-07-15T19:46:19.814Z</time>
      </trkpt>
      <trkpt lat="68.33819" lon="14.48891">
        <ele>13.819011</ele>
        <time>2020-07-15T19:46:27.912Z</time>
      </trkpt>
      <trkpt lat="68.3385" lon="14.48788">
        <ele>14.336186</ele>
        <time>2020-07-15T19:46:37.518Z</time>
      </trkpt>
      <trkpt lat="68.33878" lon="14.48726">
        <ele>14.895222</ele>
        <time>2020-07-15T19:46:44.732Z</time>
      </trkpt>
      <trkpt lat="68.33964" lon="14.48574">
        <ele>16.47654</ele>
        <time>2020-07-15T19:47:09.154Z</time>
      </trkpt>
      <trkpt lat="68.3399" lon="14.4854">
        <ele>16.992219</ele>
        <time>2020-07-15T19:47:16.557Z</time>
      </trkpt>
      <trkpt lat="68.34004" lon="14.48531">
        <ele>17.320794</ele>
        <time>2020-07-15T19:47:20.013Z</time>
      </trkpt>
      <trkpt lat="68.34012" lon="14.48527">
        <ele>17.519494</ele>
        <time>2020-07-15T19:47:22.581Z</time>
      </trkpt>
      <trkpt lat="68.34023" lon="14.48526">
        <ele>17.755414</ele>
        <time>2020-07-15T19:47:25.231Z</time>
      </trkpt>
      <trkpt lat="68.34041" lon="14.4853">
        <ele>18.182273</ele>
        <time>2020-07-15T19:47:29.830Z</time>
      </trkpt>
      <trkpt lat="68.34057" lon="14.48538">
        <ele>18.551848</ele>
        <time>2020-07-15T19:47:34.302Z</time>
      </trkpt>
      <trkpt lat="68.34168" lon="14.48665">
        <ele>20.98245</ele>
        <time>2020-07-15T19:48:05.059Z</time>
      </trkpt>
      <trkpt lat="68.34305" lon="14.48847">
        <ele>21.815063</ele>
        <time>2020-07-15T19:48:34.546Z</time>
      </trkpt>
      <trkpt lat="68.34363" lon="14.4896">
        <ele>21.001555</ele>
        <time>2020-07-15T19:48:45.436Z</time>
      </trkpt>
      <trkpt lat="68.34573" lon="14.49411">
        <ele>17.311303</ele>
        <time>2020-07-15T19:49:24.034Z</time>
      </trkpt>
      <trkpt lat="68.34622" lon="14.49498">
        <ele>16.904777</ele>
        <time>2020-07-15T19:49:33.959Z</time>
      </trkpt>
      <trkpt lat="68.34655" lon="14.49537">
        <ele>16.908081</ele>
        <time>2020-07-15T19:49:40.718Z</time>
      </trkpt>
      <trkpt lat="68.34689" lon="14.49559">
        <ele>16.911335</ele>
        <time>2020-07-15T19:49:47.328Z</time>
      </trkpt>
      <trkpt lat="68.34762" lon="14.49547">
        <ele>16.918122</ele>
        <time>2020-07-15T19:50:01.229Z</time>
      </trkpt>
      <trkpt lat="68.34808" lon="14.49538">
        <ele>16.661877</ele>
        <time>2020-07-15T19:50:09.542Z</time>
      </trkpt>
      <trkpt lat="68.34818" lon="14.49535">
        <ele>16.594094</ele>
        <time>2020-07-15T19:50:11.165Z</time>
      </trkpt>
      <trkpt lat="68.35055" lon="14.49479">
        <ele>14.909366</ele>
        <time>2020-07-15T19:50:48.083Z</time>
      </trkpt>
      <trkpt lat="68.35108" lon="14.4944">
        <ele>14.483099</ele>
        <time>2020-07-15T19:50:56.879Z</time>
      </trkpt>
      <trkpt lat="68.3543" lon="14.49011">
        <ele>14.686528</ele>
        <time>2020-07-15T19:52:01.487Z</time>
      </trkpt>
      <trkpt lat="68.35842" lon="14.48429">
        <ele>19.381343</ele>
        <time>2020-07-15T19:53:39.794Z</time>
      </trkpt>
      <trkpt lat="68.35997" lon="14.48176">
        <ele>21.138826</ele>
        <time>2020-07-15T19:54:20.337Z</time>
      </trkpt>
      <trkpt lat="68.36133" lon="14.47956">
        <ele>20.870078</ele>
        <time>2020-07-15T19:54:48.486Z</time>
      </trkpt>
      <trkpt lat="68.36186" lon="14.4785">
        <ele>19.969559</ele>
        <time>2020-07-15T19:54:57.883Z</time>
      </trkpt>
      <trkpt lat="68.36206" lon="14.478">
        <ele>19.598555</ele>
        <time>2020-07-15T19:55:01.631Z</time>
      </trkpt>
      <trkpt lat="68.36246" lon="14.47694">
        <ele>18.490695</ele>
        <time>2020-07-15T19:55:09.316Z</time>
      </trkpt>
      <trkpt lat="68.36274" lon="14.47613">
        <ele>17.539015</ele>
        <time>2020-07-15T19:55:14.809Z</time>
      </trkpt>
      <trkpt lat="68.36345" lon="14.47406">
        <ele>15.106193</ele>
        <time>2020-07-15T19:55:29.111Z</time>
      </trkpt>
      <trkpt lat="68.36378" lon="14.47297">
        <ele>14.520744</ele>
        <time>2020-07-15T19:55:36.735Z</time>
      </trkpt>
      <trkpt lat="68.36406" lon="14.47174">
        <ele>13.928573</ele>
        <time>2020-07-15T19:55:44.761Z</time>
      </trkpt>
      <trkpt lat="68.36426" lon="14.47058">
        <ele>13.395256</ele>
        <time>2020-07-15T19:55:52.259Z</time>
      </trkpt>
      <trkpt lat="68.36464" lon="14.46773">
        <ele>13.744202</ele>
        <time>2020-07-15T19:56:12.008Z</time>
      </trkpt>
      <trkpt lat="68.36467" lon="14.46753">
        <ele>13.805183</ele>
        <time>2020-07-15T19:56:13.388Z</time>
      </trkpt>
      <trkpt lat="68.36475" lon="14.46697">
        <ele>13.972828</ele>
        <time>2020-07-15T19:56:18.170Z</time>
      </trkpt>
      <trkpt lat="68.36495" lon="14.46599">
        <ele>14.287822</ele>
        <time>2020-07-15T19:56:27.703Z</time>
      </trkpt>
      <trkpt lat="68.36514" lon="14.46538">
        <ele>14.589875</ele>
        <time>2020-07-15T19:56:35.063Z</time>
      </trkpt>
      <trkpt lat="68.36563" lon="14.46432">
        <ele>15.803783</ele>
        <time>2020-07-15T19:56:50.559Z</time>
      </trkpt>
      <trkpt lat="68.36595" lon="14.4637">
        <ele>16.554896</ele>
        <time>2020-07-15T19:57:00.222Z</time>
      </trkpt>
      <trkpt lat="68.36615" lon="14.4633">
        <ele>17.040381</ele>
        <time>2020-07-15T19:57:06.372Z</time>
      </trkpt>
      <trkpt lat="68.36634" lon="14.46294">
        <ele>17.479952</ele>
        <time>2020-07-15T19:57:11.710Z</time>
      </trkpt>
      <trkpt lat="68.36665" lon="14.46253">
        <ele>17.993289</ele>
        <time>2020-07-15T19:57:19.697Z</time>
      </trkpt>
      <trkpt lat="68.36712" lon="14.46229">
        <ele>18.197105</ele>
        <time>2020-07-15T19:57:30.653Z</time>
      </trkpt>
      <trkpt lat="68.37195" lon="14.46221">
        <ele>19.637756</ele>
        <time>2020-07-15T19:58:59.524Z</time>
      </trkpt>
      <trkpt lat="68.37246" lon="14.46173">
        <ele>19.15346</ele>
        <time>2020-07-15T19:59:08.582Z</time>
      </trkpt>
      <trkpt lat="68.37322" lon="14.46038">
        <ele>18.327868</ele>
        <time>2020-07-15T19:59:22.771Z</time>
      </trkpt>
      <trkpt lat="68.37341" lon="14.46018">
        <ele>18.142609</ele>
        <time>2020-07-15T19:59:25.800Z</time>
      </trkpt>
      <trkpt lat="68.37379" lon="14.46002">
        <ele>17.45343</ele>
        <time>2020-07-15T19:59:31.251Z</time>
      </trkpt>
      <trkpt lat="68.3765" lon="14.46004">
        <ele>11.292324</ele>
        <time>2020-07-15T20:00:08.206Z</time>
      </trkpt>
      <trkpt lat="68.37686" lon="14.46016">
        <ele>10.456672</ele>
        <time>2020-07-15T20:00:13.393Z</time>
      </trkpt>
      <trkpt lat="68.37735" lon="14.4606">
        <ele>9.550318</ele>
        <time>2020-07-15T20:00:20.782Z</time>
      </trkpt>
      <trkpt lat="68.37865" lon="14.46222">
        <ele>7.814327</ele>
        <time>2020-07-15T20:00:42.605Z</time>
      </trkpt>
      <trkpt lat="68.3791" lon="14.4625">
        <ele>7.603548</ele>
        <time>2020-07-15T20:00:50.025Z</time>
      </trkpt>
      <trkpt lat="68.3795" lon="14.4625">
        <ele>7.522584</ele>
        <time>2020-07-15T20:00:56.672Z</time>
      </trkpt>
      <trkpt lat="68.37998" lon="14.46241">
        <ele>7.422873</ele>
        <time>2020-07-15T20:01:05.113Z</time>
      </trkpt>
      <trkpt lat="68.38104" lon="14.4622">
        <ele>7.688968</ele>
        <time>2020-07-15T20:01:24.857Z</time>
      </trkpt>
      <trkpt lat="68.38214" lon="14.46194">
        <ele>8.560549</ele>
        <time>2020-07-15T20:01:47.866Z</time>
      </trkpt>
      <trkpt lat="68.38419" lon="14.46106">
        <ele>10.777992</ele>
        <time>2020-07-15T20:02:33.363Z</time>
      </trkpt>
      <trkpt lat="68.38436" lon="14.46107">
        <ele>10.719621</ele>
        <time>2020-07-15T20:02:37.097Z</time>
      </trkpt>
      <trkpt lat="68.38456" lon="14.46113">
        <ele>10.654608</ele>
        <time>2020-07-15T20:02:40.679Z</time>
      </trkpt>
      <trkpt lat="68.38792" lon="14.46349">
        <ele>8.537866</ele>
        <time>2020-07-15T20:03:35.891Z</time>
      </trkpt>
      <trkpt lat="68.38811" lon="14.46363">
        <ele>8.407011</ele>
        <time>2020-07-15T20:03:38.902Z</time>
      </trkpt>
      <trkpt lat="68.38856" lon="14.46395">
        <ele>8.101479</ele>
        <time>2020-07-15T20:03:46.163Z</time>
      </trkpt>
      <trkpt lat="68.38979" lon="14.46483">
        <ele>7.297192</ele>
        <time>2020-07-15T20:04:07.182Z</time>
      </trkpt>
      <trkpt lat="68.38995" lon="14.46494">
        <ele>7.204048</ele>
        <time>2020-07-15T20:04:09.974Z</time>
      </trkpt>
      <trkpt lat="68.39085" lon="14.46559">
        <ele>6.689674</ele>
        <time>2020-07-15T20:04:25.410Z</time>
      </trkpt>
      <trkpt lat="68.39104" lon="14.46572">
        <ele>6.579949</ele>
        <time>2020-07-15T20:04:28.543Z</time>
      </trkpt>
      <trkpt lat="68.39122" lon="14.46584">
        <ele>6.397224</ele>
        <time>2020-07-15T20:04:31.591Z</time>
      </trkpt>
      <trkpt lat="68.3914" lon="14.46593">
        <ele>6.195759</ele>
        <time>2020-07-15T20:04:34.277Z</time>
      </trkpt>
      <trkpt lat="68.39196" lon="14.46611">
        <ele>5.540442</ele>
        <time>2020-07-15T20:04:42.952Z</time>
      </trkpt>
      <trkpt lat="68.39235" lon="14.46617">
        <ele>5.095154</ele>
        <time>2020-07-15T20:04:48.740Z</time>
      </trkpt>
      <trkpt lat="68.39306" lon="14.46629">
        <ele>4.289409</ele>
        <time>2020-07-15T20:04:59.357Z</time>
      </trkpt>
      <trkpt lat="68.39325" lon="14.46627">
        <ele>4.081634</ele>
        <time>2020-07-15T20:05:02.199Z</time>
      </trkpt>
      <trkpt lat="68.39331" lon="14.46689">
        <ele>3.823925</ele>
        <time>2020-07-15T20:05:05.808Z</time>
      </trkpt>
      <trkpt lat="68.39332" lon="14.46712">
        <ele>3.72853</ele>
        <time>2020-07-15T20:05:07.112Z</time>
      </trkpt>
      <trkpt lat="68.39345" lon="14.4688">
        <ele>3.036261</ele>
        <time>2020-07-15T20:05:16.831Z</time>
      </trkpt>
      <trkpt lat="68.39348" lon="14.46917">
        <ele>2.88254</ele>
        <time>2020-07-15T20:05:18.976Z</time>
      </trkpt>
      <trkpt lat="68.39354" lon="14.46986">
        <ele>2.594383</ele>
        <time>2020-07-15T20:05:23.035Z</time>
      </trkpt>
      <trkpt lat="68.39371" lon="14.47224">
        <ele>2.012302</ele>
        <time>2020-07-15T20:05:37.173Z</time>
      </trkpt>
      <trkpt lat="68.39377" lon="14.47334">
        <ele>1.76184</ele>
        <time>2020-07-15T20:05:43.862Z</time>
      </trkpt>
      <trkpt lat="68.39381" lon="14.47401">
        <ele>1.611079</ele>
        <time>2020-07-15T20:05:47.939Z</time>
      </trkpt>
      <trkpt lat="68.39382" lon="14.47436">
        <ele>1.532218</ele>
        <time>2020-07-15T20:05:50.119Z</time>
      </trkpt>
      <trkpt lat="68.39377" lon="14.47559">
        <ele>1.476673</ele>
        <time>2020-07-15T20:05:57.911Z</time>
      </trkpt>
      <trkpt lat="68.39375" lon="14.47575">
        <ele>1.492199</ele>
        <time>2020-07-15T20:05:58.907Z</time>
      </trkpt>
      <trkpt lat="68.39371" lon="14.47604">
        <ele>1.522338</ele>
        <time>2020-07-15T20:06:01.009Z</time>
      </trkpt>
      <trkpt lat="68.39362" lon="14.47645">
        <ele>1.567042</ele>
        <time>2020-07-15T20:06:04.127Z</time>
      </trkpt>
      <trkpt lat="68.39338" lon="14.47745">
        <ele>1.68239</ele>
        <time>2020-07-15T20:06:12.204Z</time>
      </trkpt>
      <trkpt lat="68.39334" lon="14.47763">
        <ele>1.702835</ele>
        <time>2020-07-15T20:06:13.762Z</time>
      </trkpt>
      <trkpt lat="68.39329" lon="14.47825">
        <ele>1.762722</ele>
        <time>2020-07-15T20:06:18.365Z</time>
      </trkpt>
      <trkpt lat="68.39333" lon="14.47916">
        <ele>1.850499</ele>
        <time>2020-07-15T20:06:25.175Z</time>
      </trkpt>
      <trkpt lat="68.39337" lon="14.48005">
        <ele>2.035195</ele>
        <time>2020-07-15T20:06:31.909Z</time>
      </trkpt>
      <trkpt lat="68.39354" lon="14.48142">
        <ele>2.403437</ele>
        <time>2020-07-15T20:06:42.919Z</time>
      </trkpt>
      <trkpt lat="68.3936" lon="14.48169">
        <ele>2.484233</ele>
        <time>2020-07-15T20:06:45.427Z</time>
      </trkpt>
      <trkpt lat="68.39379" lon="14.4824">
        <ele>2.711976</ele>
        <time>2020-07-15T20:06:52.148Z</time>
      </trkpt>
      <trkpt lat="68.39396" lon="14.48289">
        <ele>2.880791</ele>
        <time>2020-07-15T20:06:56.956Z</time>
      </trkpt>
      <trkpt lat="68.39422" lon="14.48359">
        <ele>3.128905</ele>
        <time>2020-07-15T20:07:03.937Z</time>
      </trkpt>
      <trkpt lat="68.39449" lon="14.48433">
        <ele>3.175951</ele>
        <time>2020-07-15T20:07:11.111Z</time>
      </trkpt>
      <trkpt lat="68.3948" lon="14.48509">
        <ele>3.227152</ele>
        <time>2020-07-15T20:07:18.850Z</time>
      </trkpt>
      <trkpt lat="68.39491" lon="14.48531">
        <ele>3.244094</ele>
        <time>2020-07-15T20:07:21.359Z</time>
      </trkpt>
      <trkpt lat="68.39508" lon="14.48561">
        <ele>3.26859</ele>
        <time>2020-07-15T20:07:24.949Z</time>
      </trkpt>
      <trkpt lat="68.39527" lon="14.48588">
        <ele>3.294271</ele>
        <time>2020-07-15T20:07:28.710Z</time>
      </trkpt>
      <trkpt lat="68.39553" lon="14.48627">
        <ele>3.330578</ele>
        <time>2020-07-15T20:07:34.063Z</time>
      </trkpt>
      <trkpt lat="68.39563" lon="14.48645">
        <ele>3.344997</ele>
        <time>2020-07-15T20:07:36.138Z</time>
      </trkpt>
      <trkpt lat="68.39581" lon="14.48723">
        <ele>3.386766</ele>
        <time>2020-07-15T20:07:41.999Z</time>
      </trkpt>
      <trkpt lat="68.39615" lon="14.48914">
        <ele>3.484252</ele>
        <time>2020-07-15T20:07:55.622Z</time>
      </trkpt>
      <trkpt lat="68.39682" lon="14.49236">
        <ele>4.335384</ele>
        <time>2020-07-15T20:08:22.269Z</time>
      </trkpt>
      <trkpt lat="68.39705" lon="14.4933">
        <ele>4.810946</ele>
        <time>2020-07-15T20:08:30.839Z</time>
      </trkpt>
      <trkpt lat="68.39711" lon="14.49351">
        <ele>4.91881</ele>
        <time>2020-07-15T20:08:33.044Z</time>
      </trkpt>
      <trkpt lat="68.39745" lon="14.49475">
        <ele>5.574645</ele>
        <time>2020-07-15T20:08:46.468Z</time>
      </trkpt>
      <trkpt lat="68.39811" lon="14.49635">
        <ele>7.521692</ele>
        <time>2020-07-15T20:09:08.346Z</time>
      </trkpt>
      <trkpt lat="68.39822" lon="14.49659">
        <ele>7.85053</ele>
        <time>2020-07-15T20:09:12.062Z</time>
      </trkpt>
      <trkpt lat="68.39829" lon="14.49673">
        <ele>8.046341</ele>
        <time>2020-07-15T20:09:14.386Z</time>
      </trkpt>
      <trkpt lat="68.39856" lon="14.49714">
        <ele>8.753561</ele>
        <time>2020-07-15T20:09:22.195Z</time>
      </trkpt>
      <trkpt lat="68.39948" lon="14.49808">
        <ele>10.78152</ele>
        <time>2020-07-15T20:09:47.471Z</time>
      </trkpt>
      <trkpt lat="68.40081" lon="14.50132">
        <ele>13.656188</ele>
        <time>2020-07-15T20:10:28.921Z</time>
      </trkpt>
      <trkpt lat="68.40129" lon="14.5025">
        <ele>14.258276</ele>
        <time>2020-07-15T20:10:41.712Z</time>
      </trkpt>
      <trkpt lat="68.40129" lon="14.5025">
        <ele>14.258276</ele>
        <time>2020-07-15T20:10:41.714Z</time>
      </trkpt>
      <trkpt lat="68.40168" lon="14.50344">
        <ele>14.751515</ele>
        <time>2020-07-15T20:10:52.068Z</time>
      </trkpt>
      <trkpt lat="68.40176" lon="14.50369">
        <ele>14.831777</ele>
        <time>2020-07-15T20:10:54.493Z</time>
      </trkpt>
      <trkpt lat="68.4018" lon="14.50385">
        <ele>14.839615</ele>
        <time>2020-07-15T20:10:55.879Z</time>
      </trkpt>
      <trkpt lat="68.40192" lon="14.5044">
        <ele>14.864649</ele>
        <time>2020-07-15T20:11:00.627Z</time>
      </trkpt>
      <trkpt lat="68.4021" lon="14.50596">
        <ele>14.929753</ele>
        <time>2020-07-15T20:11:12.022Z</time>
      </trkpt>
      <trkpt lat="68.40236" lon="14.50814">
        <ele>15.02071</ele>
        <time>2020-07-15T20:11:26.756Z</time>
      </trkpt>
      <trkpt lat="68.40241" lon="14.50863">
        <ele>14.889057</ele>
        <time>2020-07-15T20:11:29.791Z</time>
      </trkpt>
      <trkpt lat="68.40258" lon="14.50999">
        <ele>14.497772</ele>
        <time>2020-07-15T20:11:38.589Z</time>
      </trkpt>
      <trkpt lat="68.40278" lon="14.51159">
        <ele>14.035415</ele>
        <time>2020-07-15T20:11:48.551Z</time>
      </trkpt>
      <trkpt lat="68.40279" lon="14.51165">
        <ele>14.019013</ele>
        <time>2020-07-15T20:11:48.876Z</time>
      </trkpt>
      <trkpt lat="68.40288" lon="14.51243">
        <ele>13.795519</ele>
        <time>2020-07-15T20:11:53.338Z</time>
      </trkpt>
      <trkpt lat="68.40295" lon="14.513">
        <ele>13.691123</ele>
        <time>2020-07-15T20:11:56.525Z</time>
      </trkpt>
      <trkpt lat="68.40303" lon="14.51385">
        <ele>13.707328</ele>
        <time>2020-07-15T20:12:01.400Z</time>
      </trkpt>
      <trkpt lat="68.40305" lon="14.51437">
        <ele>13.717148</ele>
        <time>2020-07-15T20:12:04.734Z</time>
      </trkpt>
      <trkpt lat="68.40306" lon="14.51475">
        <ele>13.724092</ele>
        <time>2020-07-15T20:12:06.906Z</time>
      </trkpt>
      <trkpt lat="68.40307" lon="14.51547">
        <ele>13.737471</ele>
        <time>2020-07-15T20:12:11.846Z</time>
      </trkpt>
      <trkpt lat="68.40306" lon="14.51582">
        <ele>13.743816</ele>
        <time>2020-07-15T20:12:13.931Z</time>
      </trkpt>
      <trkpt lat="68.40305" lon="14.51611">
        <ele>13.749285</ele>
        <time>2020-07-15T20:12:16.087Z</time>
      </trkpt>
      <trkpt lat="68.40288" lon="14.51793">
        <ele>13.900613</ele>
        <time>2020-07-15T20:12:31.051Z</time>
      </trkpt>
      <trkpt lat="68.40275" lon="14.51858">
        <ele>14.16335</ele>
        <time>2020-07-15T20:12:37.556Z</time>
      </trkpt>
      <trkpt lat="68.40265" lon="14.51892">
        <ele>14.319408</ele>
        <time>2020-07-15T20:12:41.217Z</time>
      </trkpt>
      <trkpt lat="68.40252" lon="14.51927">
        <ele>14.491321</ele>
        <time>2020-07-15T20:12:45.557Z</time>
      </trkpt>
      <trkpt lat="68.40234" lon="14.51972">
        <ele>14.729914</ele>
        <time>2020-07-15T20:12:51.004Z</time>
      </trkpt>
      <trkpt lat="68.40216" lon="14.52013">
        <ele>14.959361</ele>
        <time>2020-07-15T20:12:55.935Z</time>
      </trkpt>
      <trkpt lat="68.40198" lon="14.52056">
        <ele>15.189838</ele>
        <time>2020-07-15T20:13:01.399Z</time>
      </trkpt>
      <trkpt lat="68.40154" lon="14.52195">
        <ele>14.897791</ele>
        <time>2020-07-15T20:13:13.683Z</time>
      </trkpt>
      <trkpt lat="68.40073" lon="14.52556">
        <ele>11.902769</ele>
        <time>2020-07-15T20:13:35.057Z</time>
      </trkpt>
      <trkpt lat="68.40051" lon="14.52632">
        <ele>10.742271</ele>
        <time>2020-07-15T20:13:39.630Z</time>
      </trkpt>
      <trkpt lat="68.39936" lon="14.52884">
        <ele>6.092486</ele>
        <time>2020-07-15T20:13:58.667Z</time>
      </trkpt>
      <trkpt lat="68.39903" lon="14.5296">
        <ele>5.13854</ele>
        <time>2020-07-15T20:14:04.596Z</time>
      </trkpt>
      <trkpt lat="68.39879" lon="14.5301">
        <ele>4.480909</ele>
        <time>2020-07-15T20:14:08.747Z</time>
      </trkpt>
      <trkpt lat="68.39813" lon="14.53155">
        <ele>2.623006</ele>
        <time>2020-07-15T20:14:20.957Z</time>
      </trkpt>
      <trkpt lat="68.39782" lon="14.53221">
        <ele>2.203284</ele>
        <time>2020-07-15T20:14:26.906Z</time>
      </trkpt>
      <trkpt lat="68.39713" lon="14.53369">
        <ele>1.529268</ele>
        <time>2020-07-15T20:14:40.985Z</time>
      </trkpt>
      <trkpt lat="68.39638" lon="14.53533">
        <ele>0.952446</ele>
        <time>2020-07-15T20:14:57.007Z</time>
      </trkpt>
      <trkpt lat="68.39619" lon="14.53584">
        <ele>0.873302</ele>
        <time>2020-07-15T20:15:01.523Z</time>
      </trkpt>
      <trkpt lat="68.39584" lon="14.53723">
        <ele>0.689802</ele>
        <time>2020-07-15T20:15:12.146Z</time>
      </trkpt>
      <trkpt lat="68.39571" lon="14.53841">
        <ele>0.556111</ele>
        <time>2020-07-15T20:15:19.912Z</time>
      </trkpt>
      <trkpt lat="68.39485" lon="14.55161">
        <ele>0.295971</ele>
        <time>2020-07-15T20:16:47.136Z</time>
      </trkpt>
      <trkpt lat="68.39475" lon="14.55316">
        <ele>0.306831</ele>
        <time>2020-07-15T20:16:57.790Z</time>
      </trkpt>
      <trkpt lat="68.39469" lon="14.55421">
        <ele>0.342955</ele>
        <time>2020-07-15T20:17:05.015Z</time>
      </trkpt>
      <trkpt lat="68.39462" lon="14.55525">
        <ele>0.378828</ele>
        <time>2020-07-15T20:17:12.056Z</time>
      </trkpt>
      <trkpt lat="68.39459" lon="14.55572">
        <ele>0.395013</ele>
        <time>2020-07-15T20:17:15.207Z</time>
      </trkpt>
      <trkpt lat="68.39456" lon="14.55619">
        <ele>0.411147</ele>
        <time>2020-07-15T20:17:18.407Z</time>
      </trkpt>
      <trkpt lat="68.39447" lon="14.55762">
        <ele>0.460501</ele>
        <time>2020-07-15T20:17:28.097Z</time>
      </trkpt>
      <trkpt lat="68.39446" lon="14.55776">
        <ele>0.465395</ele>
        <time>2020-07-15T20:17:29.076Z</time>
      </trkpt>
      <trkpt lat="68.39445" lon="14.55797">
        <ele>0.471319</ele>
        <time>2020-07-15T20:17:30.496Z</time>
      </trkpt>
      <trkpt lat="68.39445" lon="14.55806">
        <ele>0.470715</ele>
        <time>2020-07-15T20:17:31.121Z</time>
      </trkpt>
      <trkpt lat="68.39448" lon="14.55855">
        <ele>0.467411</ele>
        <time>2020-07-15T20:17:34.404Z</time>
      </trkpt>
      <trkpt lat="68.39455" lon="14.55948">
        <ele>0.461134</ele>
        <time>2020-07-15T20:17:40.753Z</time>
      </trkpt>
      <trkpt lat="68.3948" lon="14.56071">
        <ele>0.45181</ele>
        <time>2020-07-15T20:17:49.950Z</time>
      </trkpt>
      <trkpt lat="68.39491" lon="14.56108">
        <ele>0.448617</ele>
        <time>2020-07-15T20:17:53.003Z</time>
      </trkpt>
      <trkpt lat="68.39503" lon="14.56139">
        <ele>0.44571</ele>
        <time>2020-07-15T20:17:55.830Z</time>
      </trkpt>
      <trkpt lat="68.3953" lon="14.56197">
        <ele>0.439536</ele>
        <time>2020-07-15T20:18:01.806Z</time>
      </trkpt>
      <trkpt lat="68.39609" lon="14.56333">
        <ele>0.441231</ele>
        <time>2020-07-15T20:18:18.651Z</time>
      </trkpt>
      <trkpt lat="68.39784" lon="14.56617">
        <ele>0.490265</ele>
        <time>2020-07-15T20:18:55.331Z</time>
      </trkpt>
      <trkpt lat="68.39804" lon="14.56655">
        <ele>0.500317</ele>
        <time>2020-07-15T20:18:59.748Z</time>
      </trkpt>
      <trkpt lat="68.39822" lon="14.56696">
        <ele>0.509762</ele>
        <time>2020-07-15T20:19:03.867Z</time>
      </trkpt>
      <trkpt lat="68.39849" lon="14.56784">
        <ele>0.601015</ele>
        <time>2020-07-15T20:19:11.405Z</time>
      </trkpt>
      <trkpt lat="68.39869" lon="14.56876">
        <ele>0.730436</ele>
        <time>2020-07-15T20:19:18.398Z</time>
      </trkpt>
      <trkpt lat="68.39896" lon="14.57095">
        <ele>1.011782</ele>
        <time>2020-07-15T20:19:34.168Z</time>
      </trkpt>
      <trkpt lat="68.39908" lon="14.5724">
        <ele>1.679388</ele>
        <time>2020-07-15T20:19:45.502Z</time>
      </trkpt>
      <trkpt lat="68.3991" lon="14.57353">
        <ele>2.633358</ele>
        <time>2020-07-15T20:19:54.842Z</time>
      </trkpt>
      <trkpt lat="68.39907" lon="14.57451">
        <ele>3.46092</ele>
        <time>2020-07-15T20:20:03.457Z</time>
      </trkpt>
      <trkpt lat="68.39866" lon="14.57846">
        <ele>8.631991</ele>
        <time>2020-07-15T20:20:47.550Z</time>
      </trkpt>
      <trkpt lat="68.39865" lon="14.57968">
        <ele>10.701608</ele>
        <time>2020-07-15T20:21:02.851Z</time>
      </trkpt>
      <trkpt lat="68.3987" lon="14.58034">
        <ele>11.847706</ele>
        <time>2020-07-15T20:21:11.393Z</time>
      </trkpt>
      <trkpt lat="68.39885" lon="14.58132">
        <ele>13.623715</ele>
        <time>2020-07-15T20:21:26.238Z</time>
      </trkpt>
      <trkpt lat="68.39914" lon="14.58234">
        <ele>15.333988</ele>
        <time>2020-07-15T20:21:42.847Z</time>
      </trkpt>
      <trkpt lat="68.39946" lon="14.58303">
        <ele>16.849402</ele>
        <time>2020-07-15T20:21:56.198Z</time>
      </trkpt>
      <trkpt lat="68.39985" lon="14.58348">
        <ele>18.371439</ele>
        <time>2020-07-15T20:22:07.996Z</time>
      </trkpt>
      <trkpt lat="68.39999" lon="14.58359">
        <ele>18.912717</ele>
        <time>2020-07-15T20:22:12.771Z</time>
      </trkpt>
      <trkpt lat="68.4002" lon="14.58365">
        <ele>19.685651</ele>
        <time>2020-07-15T20:22:16.901Z</time>
      </trkpt>
      <trkpt lat="68.40063" lon="14.58359">
        <ele>19.57672</ele>
        <time>2020-07-15T20:22:25.766Z</time>
      </trkpt>
      <trkpt lat="68.40098" lon="14.58331">
        <ele>19.008822</ele>
        <time>2020-07-15T20:22:31.721Z</time>
      </trkpt>
      <trkpt lat="68.40159" lon="14.58267">
        <ele>17.996137</ele>
        <time>2020-07-15T20:22:40.754Z</time>
      </trkpt>
      <trkpt lat="68.40213" lon="14.5819">
        <ele>16.887143</ele>
        <time>2020-07-15T20:22:48.566Z</time>
      </trkpt>
      <trkpt lat="68.40285" lon="14.5804">
        <ele>14.558215</ele>
        <time>2020-07-15T20:23:00.382Z</time>
      </trkpt>
      <trkpt lat="68.40441" lon="14.57581">
        <ele>10.595977</ele>
        <time>2020-07-15T20:23:34.134Z</time>
      </trkpt>
      <trkpt lat="68.40489" lon="14.5747">
        <ele>10.257162</ele>
        <time>2020-07-15T20:23:44.666Z</time>
      </trkpt>
      <trkpt lat="68.40526" lon="14.5741">
        <ele>10.228347</ele>
        <time>2020-07-15T20:23:52.154Z</time>
      </trkpt>
      <trkpt lat="68.40607" lon="14.57305">
        <ele>10.16805</ele>
        <time>2020-07-15T20:24:08.809Z</time>
      </trkpt>
      <trkpt lat="68.40729" lon="14.57197">
        <ele>10.424367</ele>
        <time>2020-07-15T20:24:33.287Z</time>
      </trkpt>
      <trkpt lat="68.40772" lon="14.57129">
        <ele>10.531481</ele>
        <time>2020-07-15T20:24:42.307Z</time>
      </trkpt>
      <trkpt lat="68.4079" lon="14.57086">
        <ele>10.524952</ele>
        <time>2020-07-15T20:24:46.577Z</time>
      </trkpt>
      <trkpt lat="68.41007" lon="14.56378">
        <ele>9.950526</ele>
        <time>2020-07-15T20:25:44.671Z</time>
      </trkpt>
      <trkpt lat="68.41092" lon="14.55917">
        <ele>10.504177</ele>
        <time>2020-07-15T20:26:20.695Z</time>
      </trkpt>
      <trkpt lat="68.41131" lon="14.55743">
        <ele>10.742388</ele>
        <time>2020-07-15T20:26:35.108Z</time>
      </trkpt>
      <trkpt lat="68.41342" lon="14.55137">
        <ele>11.534161</ele>
        <time>2020-07-15T20:27:32.327Z</time>
      </trkpt>
      <trkpt lat="68.4136" lon="14.5511">
        <ele>11.546294</ele>
        <time>2020-07-15T20:27:36.211Z</time>
      </trkpt>
      <trkpt lat="68.41389" lon="14.55095">
        <ele>11.563333</ele>
        <time>2020-07-15T20:27:41.659Z</time>
      </trkpt>
      <trkpt lat="68.414" lon="14.55096">
        <ele>11.569828</ele>
        <time>2020-07-15T20:27:43.703Z</time>
      </trkpt>
      <trkpt lat="68.41418" lon="14.55105">
        <ele>11.580229</ele>
        <time>2020-07-15T20:27:46.935Z</time>
      </trkpt>
      <trkpt lat="68.41468" lon="14.55132">
        <ele>11.609678</ele>
        <time>2020-07-15T20:27:56.023Z</time>
      </trkpt>
      <trkpt lat="68.41512" lon="14.55142">
        <ele>11.587153</ele>
        <time>2020-07-15T20:28:03.637Z</time>
      </trkpt>
      <trkpt lat="68.41531" lon="14.55139">
        <ele>11.550932</ele>
        <time>2020-07-15T20:28:07.090Z</time>
      </trkpt>
      <trkpt lat="68.41554" lon="14.55133">
        <ele>11.508716</ele>
        <time>2020-07-15T20:28:11.071Z</time>
      </trkpt>
      <trkpt lat="68.41607" lon="14.55106">
        <ele>11.411631</ele>
        <time>2020-07-15T20:28:20.232Z</time>
      </trkpt>
      <trkpt lat="68.41632" lon="14.5509">
        <ele>11.364564</ele>
        <time>2020-07-15T20:28:24.623Z</time>
      </trkpt>
      <trkpt lat="68.41654" lon="14.55086">
        <ele>11.322849</ele>
        <time>2020-07-15T20:28:28.556Z</time>
      </trkpt>
      <trkpt lat="68.41671" lon="14.55088">
        <ele>11.296811</ele>
        <time>2020-07-15T20:28:31.469Z</time>
      </trkpt>
      <trkpt lat="68.41691" lon="14.55095">
        <ele>11.323259</ele>
        <time>2020-07-15T20:28:34.872Z</time>
      </trkpt>
      <trkpt lat="68.41702" lon="14.55103">
        <ele>11.338841</ele>
        <time>2020-07-15T20:28:36.892Z</time>
      </trkpt>
      <trkpt lat="68.41716" lon="14.55116">
        <ele>11.358979</ele>
        <time>2020-07-15T20:28:39.575Z</time>
      </trkpt>
      <trkpt lat="68.41732" lon="14.55145">
        <ele>11.38399</ele>
        <time>2020-07-15T20:28:42.909Z</time>
      </trkpt>
      <trkpt lat="68.41759" lon="14.55221">
        <ele>11.43673</ele>
        <time>2020-07-15T20:28:50.023Z</time>
      </trkpt>
      <trkpt lat="68.41858" lon="14.5555">
        <ele>12.079284</ele>
        <time>2020-07-15T20:29:20.055Z</time>
      </trkpt>
      <trkpt lat="68.41953" lon="14.55889">
        <ele>13.296338</ele>
        <time>2020-07-15T20:29:52.269Z</time>
      </trkpt>
      <trkpt lat="68.41962" lon="14.55977">
        <ele>13.621102</ele>
        <time>2020-07-15T20:29:59.621Z</time>
      </trkpt>
      <trkpt lat="68.41963" lon="14.5612">
        <ele>14.124604</ele>
        <time>2020-07-15T20:30:10.639Z</time>
      </trkpt>
      <trkpt lat="68.41973" lon="14.56209">
        <ele>14.453282</ele>
        <time>2020-07-15T20:30:17.675Z</time>
      </trkpt>
      <trkpt lat="68.41988" lon="14.56292">
        <ele>14.611274</ele>
        <time>2020-07-15T20:30:24.528Z</time>
      </trkpt>
      <trkpt lat="68.41996" lon="14.56327">
        <ele>14.68124</ele>
        <time>2020-07-15T20:30:27.735Z</time>
      </trkpt>
      <trkpt lat="68.42022" lon="14.56406">
        <ele>14.861362</ele>
        <time>2020-07-15T20:30:35.377Z</time>
      </trkpt>
      <trkpt lat="68.42111" lon="14.56669">
        <ele>15.291985</ele>
        <time>2020-07-15T20:30:59.815Z</time>
      </trkpt>
      <trkpt lat="68.42123" lon="14.5672">
        <ele>15.29742</ele>
        <time>2020-07-15T20:31:03.728Z</time>
      </trkpt>
      <trkpt lat="68.42132" lon="14.5676">
        <ele>15.301532</ele>
        <time>2020-07-15T20:31:06.823Z</time>
      </trkpt>
      <trkpt lat="68.42177" lon="14.57089">
        <ele>15.282224</ele>
        <time>2020-07-15T20:31:29.790Z</time>
      </trkpt>
      <trkpt lat="68.42192" lon="14.57174">
        <ele>15.227193</ele>
        <time>2020-07-15T20:31:36.061Z</time>
      </trkpt>
      <trkpt lat="68.42263" lon="14.57531">
        <ele>14.921541</ele>
        <time>2020-07-15T20:32:01.671Z</time>
      </trkpt>
      <trkpt lat="68.42382" lon="14.58073">
        <ele>14.158918</ele>
        <time>2020-07-15T20:32:40.447Z</time>
      </trkpt>
      <trkpt lat="68.42404" lon="14.58209">
        <ele>14.026444</ele>
        <time>2020-07-15T20:32:49.974Z</time>
      </trkpt>
      <trkpt lat="68.42413" lon="14.5835">
        <ele>13.901697</ele>
        <time>2020-07-15T20:32:59.354Z</time>
      </trkpt>
      <trkpt lat="68.42425" lon="14.5866">
        <ele>13.658782</ele>
        <time>2020-07-15T20:33:19.259Z</time>
      </trkpt>
      <trkpt lat="68.42435" lon="14.58867">
        <ele>13.415185</ele>
        <time>2020-07-15T20:33:32.185Z</time>
      </trkpt>
      <trkpt lat="68.42442" lon="14.59026">
        <ele>13.087891</ele>
        <time>2020-07-15T20:33:41.813Z</time>
      </trkpt>
      <trkpt lat="68.42444" lon="14.59253">
        <ele>12.626119</ele>
        <time>2020-07-15T20:33:55.240Z</time>
      </trkpt>
      <trkpt lat="68.4245" lon="14.59342">
        <ele>12.479652</ele>
        <time>2020-07-15T20:34:00.706Z</time>
      </trkpt>
      <trkpt lat="68.42467" lon="14.59482">
        <ele>12.285454</ele>
        <time>2020-07-15T20:34:09.775Z</time>
      </trkpt>
      <trkpt lat="68.42561" lon="14.599">
        <ele>11.669135</ele>
        <time>2020-07-15T20:34:40.627Z</time>
      </trkpt>
      <trkpt lat="68.42608" lon="14.60052">
        <ele>11.435918</ele>
        <time>2020-07-15T20:34:53.039Z</time>
      </trkpt>
      <trkpt lat="68.42646" lon="14.60209">
        <ele>11.128878</ele>
        <time>2020-07-15T20:35:04.587Z</time>
      </trkpt>
      <trkpt lat="68.42738" lon="14.60492">
        <ele>10.351474</ele>
        <time>2020-07-15T20:35:27.115Z</time>
      </trkpt>
      <trkpt lat="68.42772" lon="14.60597">
        <ele>10.010569</ele>
        <time>2020-07-15T20:35:35.347Z</time>
      </trkpt>
      <trkpt lat="68.42817" lon="14.60738">
        <ele>9.546412</ele>
        <time>2020-07-15T20:35:46.357Z</time>
      </trkpt>
      <trkpt lat="68.42887" lon="14.6091">
        <ele>9.010703</ele>
        <time>2020-07-15T20:36:01.676Z</time>
      </trkpt>
      <trkpt lat="68.42921" lon="14.60985">
        <ele>8.864073</ele>
        <time>2020-07-15T20:36:08.953Z</time>
      </trkpt>
      <trkpt lat="68.42966" lon="14.61084">
        <ele>8.670597</ele>
        <time>2020-07-15T20:36:18.798Z</time>
      </trkpt>
      <trkpt lat="68.43041" lon="14.61241">
        <ele>8.479621</ele>
        <time>2020-07-15T20:36:35.221Z</time>
      </trkpt>
      <trkpt lat="68.43054" lon="14.6127">
        <ele>8.469912</ele>
        <time>2020-07-15T20:36:38.167Z</time>
      </trkpt>
      <trkpt lat="68.43074" lon="14.6132">
        <ele>8.453977</ele>
        <time>2020-07-15T20:36:43.025Z</time>
      </trkpt>
      <trkpt lat="68.43092" lon="14.61373">
        <ele>8.438164</ele>
        <time>2020-07-15T20:36:47.899Z</time>
      </trkpt>
      <trkpt lat="68.43103" lon="14.61401">
        <ele>8.429611</ele>
        <time>2020-07-15T20:36:50.493Z</time>
      </trkpt>
      <trkpt lat="68.43119" lon="14.61458">
        <ele>8.414138</ele>
        <time>2020-07-15T20:36:55.227Z</time>
      </trkpt>
      <trkpt lat="68.43153" lon="14.61599">
        <ele>8.439203</ele>
        <time>2020-07-15T20:37:06.344Z</time>
      </trkpt>
      <trkpt lat="68.43173" lon="14.61685">
        <ele>8.47475</ele>
        <time>2020-07-15T20:37:13.038Z</time>
      </trkpt>
      <trkpt lat="68.43191" lon="14.61781">
        <ele>8.512487</ele>
        <time>2020-07-15T20:37:20.192Z</time>
      </trkpt>
      <trkpt lat="68.4324" lon="14.6201">
        <ele>8.680531</ele>
        <time>2020-07-15T20:37:38.232Z</time>
      </trkpt>
      <trkpt lat="68.43263" lon="14.62117">
        <ele>8.823366</ele>
        <time>2020-07-15T20:37:46.645Z</time>
      </trkpt>
      <trkpt lat="68.43271" lon="14.62154">
        <ele>8.872321</ele>
        <time>2020-07-15T20:37:49.608Z</time>
      </trkpt>
      <trkpt lat="68.43286" lon="14.62229">
        <ele>8.970633</ele>
        <time>2020-07-15T20:37:55.614Z</time>
      </trkpt>
      <trkpt lat="68.43294" lon="14.62276">
        <ele>9.029133</ele>
        <time>2020-07-15T20:37:59.198Z</time>
      </trkpt>
      <trkpt lat="68.43297" lon="14.62305">
        <ele>9.064971</ele>
        <time>2020-07-15T20:38:01.434Z</time>
      </trkpt>
      <trkpt lat="68.43302" lon="14.62409">
        <ele>9.162756</ele>
        <time>2020-07-15T20:38:08.847Z</time>
      </trkpt>
      <trkpt lat="68.43294" lon="14.62518">
        <ele>9.233552</ele>
        <time>2020-07-15T20:38:16.697Z</time>
      </trkpt>
      <trkpt lat="68.43288" lon="14.62595">
        <ele>9.283226</ele>
        <time>2020-07-15T20:38:22.150Z</time>
      </trkpt>
      <trkpt lat="68.4327" lon="14.62771">
        <ele>9.399757</ele>
        <time>2020-07-15T20:38:34.454Z</time>
      </trkpt>
      <trkpt lat="68.43259" lon="14.6289">
        <ele>9.357826</ele>
        <time>2020-07-15T20:38:42.169Z</time>
      </trkpt>
      <trkpt lat="68.43238" lon="14.63116">
        <ele>8.927445</ele>
        <time>2020-07-15T20:38:56.145Z</time>
      </trkpt>
      <trkpt lat="68.43222" lon="14.63278">
        <ele>8.618779</ele>
        <time>2020-07-15T20:39:05.973Z</time>
      </trkpt>
      <trkpt lat="68.43206" lon="14.63444">
        <ele>8.723705</ele>
        <time>2020-07-15T20:39:16.729Z</time>
      </trkpt>
      <trkpt lat="68.43205" lon="14.63449">
        <ele>8.730929</ele>
        <time>2020-07-15T20:39:17.004Z</time>
      </trkpt>
      <trkpt lat="68.43203" lon="14.63471">
        <ele>8.761835</ele>
        <time>2020-07-15T20:39:18.537Z</time>
      </trkpt>
      <trkpt lat="68.43202" lon="14.6348">
        <ele>8.77402</ele>
        <time>2020-07-15T20:39:19.171Z</time>
      </trkpt>
      <trkpt lat="68.43195" lon="14.63556">
        <ele>8.879774</ele>
        <time>2020-07-15T20:39:24.382Z</time>
      </trkpt>
      <trkpt lat="68.43185" lon="14.63659">
        <ele>9.022947</ele>
        <time>2020-07-15T20:39:32.006Z</time>
      </trkpt>
      <trkpt lat="68.43169" lon="14.63827">
        <ele>9.474702</ele>
        <time>2020-07-15T20:39:45.636Z</time>
      </trkpt>
      <trkpt lat="68.4315" lon="14.64044">
        <ele>11.005178</ele>
        <time>2020-07-15T20:40:05.442Z</time>
      </trkpt>
      <trkpt lat="68.43134" lon="14.64374">
        <ele>13.085317</ele>
        <time>2020-07-15T20:40:35.769Z</time>
      </trkpt>
      <trkpt lat="68.43131" lon="14.64445">
        <ele>13.439547</ele>
        <time>2020-07-15T20:40:42.177Z</time>
      </trkpt>
      <trkpt lat="68.43118" lon="14.64738">
        <ele>14.892088</ele>
        <time>2020-07-15T20:41:05.540Z</time>
      </trkpt>
      <trkpt lat="68.4311" lon="14.6493">
        <ele>14.756381</ele>
        <time>2020-07-15T20:41:18.283Z</time>
      </trkpt>
      <trkpt lat="68.43097" lon="14.65108">
        <ele>14.533998</ele>
        <time>2020-07-15T20:41:29.044Z</time>
      </trkpt>
      <trkpt lat="68.42922" lon="14.66248">
        <ele>11.084446</ele>
        <time>2020-07-15T20:42:40.665Z</time>
      </trkpt>
      <trkpt lat="68.42894" lon="14.66391">
        <ele>10.786664</ele>
        <time>2020-07-15T20:42:50.502Z</time>
      </trkpt>
      <trkpt lat="68.42861" lon="14.6652">
        <ele>10.498096</ele>
        <time>2020-07-15T20:43:00.257Z</time>
      </trkpt>
      <trkpt lat="68.42835" lon="14.66592">
        <ele>10.386261</ele>
        <time>2020-07-15T20:43:06.636Z</time>
      </trkpt>
      <trkpt lat="68.42776" lon="14.66705">
        <ele>10.283821</ele>
        <time>2020-07-15T20:43:19.120Z</time>
      </trkpt>
      <trkpt lat="68.42755" lon="14.66733">
        <ele>10.250074</ele>
        <time>2020-07-15T20:43:23.273Z</time>
      </trkpt>
      <trkpt lat="68.4274" lon="14.66756">
        <ele>10.225019</ele>
        <time>2020-07-15T20:43:26.333Z</time>
      </trkpt>
      <trkpt lat="68.42702" lon="14.66805">
        <ele>10.165607</ele>
        <time>2020-07-15T20:43:33.641Z</time>
      </trkpt>
      <trkpt lat="68.42666" lon="14.66855">
        <ele>10.052118</ele>
        <time>2020-07-15T20:43:40.830Z</time>
      </trkpt>
      <trkpt lat="68.42613" lon="14.6693">
        <ele>9.874332</ele>
        <time>2020-07-15T20:43:51.373Z</time>
      </trkpt>
      <trkpt lat="68.42553" lon="14.67005">
        <ele>9.681017</ele>
        <time>2020-07-15T20:44:02.314Z</time>
      </trkpt>
      <trkpt lat="68.42499" lon="14.67077">
        <ele>9.149229</ele>
        <time>2020-07-15T20:44:11.969Z</time>
      </trkpt>
      <trkpt lat="68.42473" lon="14.67111">
        <ele>8.819358</ele>
        <time>2020-07-15T20:44:16.576Z</time>
      </trkpt>
      <trkpt lat="68.42462" lon="14.67127">
        <ele>8.682553</ele>
        <time>2020-07-15T20:44:18.421Z</time>
      </trkpt>
      <trkpt lat="68.42447" lon="14.67146">
        <ele>8.486357</ele>
        <time>2020-07-15T20:44:21.094Z</time>
      </trkpt>
      <trkpt lat="68.42437" lon="14.67158">
        <ele>8.367639</ele>
        <time>2020-07-15T20:44:22.580Z</time>
      </trkpt>
      <trkpt lat="68.4234" lon="14.67259">
        <ele>7.092128</ele>
        <time>2020-07-15T20:44:37.905Z</time>
      </trkpt>
      <trkpt lat="68.42303" lon="14.67299">
        <ele>6.524488</ele>
        <time>2020-07-15T20:44:43.680Z</time>
      </trkpt>
      <trkpt lat="68.42266" lon="14.67339">
        <ele>5.96773</ele>
        <time>2020-07-15T20:44:49.557Z</time>
      </trkpt>
      <trkpt lat="68.42248" lon="14.67358">
        <ele>5.691589</ele>
        <time>2020-07-15T20:44:52.477Z</time>
      </trkpt>
      <trkpt lat="68.42172" lon="14.67439">
        <ele>4.820316</ele>
        <time>2020-07-15T20:45:04.890Z</time>
      </trkpt>
      <trkpt lat="68.4215" lon="14.67462">
        <ele>4.674777</ele>
        <time>2020-07-15T20:45:08.528Z</time>
      </trkpt>
      <trkpt lat="68.42091" lon="14.67516">
        <ele>4.278313</ele>
        <time>2020-07-15T20:45:18.719Z</time>
      </trkpt>
      <trkpt lat="68.42026" lon="14.67558">
        <ele>3.890545</ele>
        <time>2020-07-15T20:45:30.058Z</time>
      </trkpt>
      <trkpt lat="68.4202" lon="14.67562">
        <ele>3.881027</ele>
        <time>2020-07-15T20:45:31.006Z</time>
      </trkpt>
      <trkpt lat="68.42018" lon="14.67563">
        <ele>3.876262</ele>
        <time>2020-07-15T20:45:31.479Z</time>
      </trkpt>
      <trkpt lat="68.42015" lon="14.67565">
        <ele>3.87151</ele>
        <time>2020-07-15T20:45:31.958Z</time>
      </trkpt>
      <trkpt lat="68.41931" lon="14.67618">
        <ele>3.723311</ele>
        <time>2020-07-15T20:45:46.924Z</time>
      </trkpt>
      <trkpt lat="68.41653" lon="14.67793">
        <ele>3.39659</ele>
        <time>2020-07-15T20:46:36.649Z</time>
      </trkpt>
      <trkpt lat="68.41599" lon="14.67822">
        <ele>3.46673</ele>
        <time>2020-07-15T20:46:46.797Z</time>
      </trkpt>
      <trkpt lat="68.4158" lon="14.67831">
        <ele>3.490371</ele>
        <time>2020-07-15T20:46:50.340Z</time>
      </trkpt>
      <trkpt lat="68.41382" lon="14.67908">
        <ele>3.614125</ele>
        <time>2020-07-15T20:47:27.480Z</time>
      </trkpt>
      <trkpt lat="68.41376" lon="14.67909">
        <ele>3.615772</ele>
        <time>2020-07-15T20:47:28.774Z</time>
      </trkpt>
      <trkpt lat="68.41286" lon="14.67913">
        <ele>3.305947</ele>
        <time>2020-07-15T20:47:43.744Z</time>
      </trkpt>
      <trkpt lat="68.41054" lon="14.67912">
        <ele>1.538089</ele>
        <time>2020-07-15T20:48:19.976Z</time>
      </trkpt>
      <trkpt lat="68.40992" lon="14.67852">
        <ele>1.038211</ele>
        <time>2020-07-15T20:48:30.487Z</time>
      </trkpt>
      <trkpt lat="68.40835" lon="14.67659">
        <ele>0.538658</ele>
        <time>2020-07-15T20:48:59.740Z</time>
      </trkpt>
      <trkpt lat="68.40803" lon="14.6762">
        <ele>0.513409</ele>
        <time>2020-07-15T20:49:05.991Z</time>
      </trkpt>
      <trkpt lat="68.40795" lon="14.67611">
        <ele>0.555823</ele>
        <time>2020-07-15T20:49:07.628Z</time>
      </trkpt>
      <trkpt lat="68.40613" lon="14.67392">
        <ele>1.667287</ele>
        <time>2020-07-15T20:49:46.742Z</time>
      </trkpt>
      <trkpt lat="68.40524" lon="14.67309">
        <ele>2.523315</ele>
        <time>2020-07-15T20:50:06.653Z</time>
      </trkpt>
      <trkpt lat="68.40481" lon="14.67288">
        <ele>2.924891</ele>
        <time>2020-07-15T20:50:15.947Z</time>
      </trkpt>
      <trkpt lat="68.40435" lon="14.67285">
        <ele>3.241782</ele>
        <time>2020-07-15T20:50:25.593Z</time>
      </trkpt>
      <trkpt lat="68.40402" lon="14.67297">
        <ele>3.457983</ele>
        <time>2020-07-15T20:50:32.382Z</time>
      </trkpt>
      <trkpt lat="68.40361" lon="14.67331">
        <ele>3.73917</ele>
        <time>2020-07-15T20:50:41.037Z</time>
      </trkpt>
      <trkpt lat="68.39784" lon="14.67986">
        <ele>5.593229</ele>
        <time>2020-07-15T20:52:37.970Z</time>
      </trkpt>
      <trkpt lat="68.39762" lon="14.68028">
        <ele>5.637271</ele>
        <time>2020-07-15T20:52:43.023Z</time>
      </trkpt>
      <trkpt lat="68.39744" lon="14.68083">
        <ele>5.680719</ele>
        <time>2020-07-15T20:52:48.022Z</time>
      </trkpt>
      <trkpt lat="68.39684" lon="14.68429">
        <ele>5.752086</ele>
        <time>2020-07-15T20:53:13.719Z</time>
      </trkpt>
      <trkpt lat="68.3965" lon="14.68525">
        <ele>5.62052</ele>
        <time>2020-07-15T20:53:22.013Z</time>
      </trkpt>
      <trkpt lat="68.39539" lon="14.6872">
        <ele>5.146788</ele>
        <time>2020-07-15T20:53:44.125Z</time>
      </trkpt>
      <trkpt lat="68.39445" lon="14.68839">
        <ele>4.565599</ele>
        <time>2020-07-15T20:54:00.879Z</time>
      </trkpt>
      <trkpt lat="68.39361" lon="14.68929">
        <ele>4.043402</ele>
        <time>2020-07-15T20:54:15.668Z</time>
      </trkpt>
      <trkpt lat="68.39326" lon="14.68999">
        <ele>3.793268</ele>
        <time>2020-07-15T20:54:22.773Z</time>
      </trkpt>
      <trkpt lat="68.39323" lon="14.69006">
        <ele>3.771905</ele>
        <time>2020-07-15T20:54:23.341Z</time>
      </trkpt>
      <trkpt lat="68.39322" lon="14.6901">
        <ele>3.758996</ele>
        <time>2020-07-15T20:54:23.682Z</time>
      </trkpt>
      <trkpt lat="68.3932" lon="14.69014">
        <ele>3.747207</ele>
        <time>2020-07-15T20:54:23.997Z</time>
      </trkpt>
      <trkpt lat="68.39314" lon="14.6903">
        <ele>3.698423</ele>
        <time>2020-07-15T20:54:25.344Z</time>
      </trkpt>
      <trkpt lat="68.39227" lon="14.6926">
        <ele>3.042349</ele>
        <time>2020-07-15T20:54:45.224Z</time>
      </trkpt>
      <trkpt lat="68.39205" lon="14.69305">
        <ele>2.90947</ele>
        <time>2020-07-15T20:54:49.582Z</time>
      </trkpt>
      <trkpt lat="68.39072" lon="14.69518">
        <ele>2.526863</ele>
        <time>2020-07-15T20:55:15.475Z</time>
      </trkpt>
      <trkpt lat="68.38999" lon="14.69658">
        <ele>2.68211</ele>
        <time>2020-07-15T20:55:31.521Z</time>
      </trkpt>
      <trkpt lat="68.38908" lon="14.69726">
        <ele>4.147857</ele>
        <time>2020-07-15T20:55:51.956Z</time>
      </trkpt>
      <trkpt lat="68.38853" lon="14.69802">
        <ele>5.628281</ele>
        <time>2020-07-15T20:56:08.141Z</time>
      </trkpt>
      <trkpt lat="68.38812" lon="14.69874">
        <ele>6.773595</ele>
        <time>2020-07-15T20:56:21.907Z</time>
      </trkpt>
      <trkpt lat="68.38778" lon="14.6997">
        <ele>8.471842</ele>
        <time>2020-07-15T20:56:36.841Z</time>
      </trkpt>
      <trkpt lat="68.38738" lon="14.70163">
        <ele>11.476724</ele>
        <time>2020-07-15T20:57:01.980Z</time>
      </trkpt>
      <trkpt lat="68.38717" lon="14.70299">
        <ele>13.4824</ele>
        <time>2020-07-15T20:57:18.350Z</time>
      </trkpt>
      <trkpt lat="68.38701" lon="14.70635">
        <ele>16.385204</ele>
        <time>2020-07-15T20:57:50.750Z</time>
      </trkpt>
      <trkpt lat="68.38692" lon="14.70748">
        <ele>17.362096</ele>
        <time>2020-07-15T20:58:00.532Z</time>
      </trkpt>
      <trkpt lat="68.38635" lon="14.70997">
        <ele>18.29253</ele>
        <time>2020-07-15T20:58:23.769Z</time>
      </trkpt>
      <trkpt lat="68.38626" lon="14.71067">
        <ele>18.457359</ele>
        <time>2020-07-15T20:58:29.341Z</time>
      </trkpt>
      <trkpt lat="68.38623" lon="14.71134">
        <ele>18.608201</ele>
        <time>2020-07-15T20:58:34.109Z</time>
      </trkpt>
      <trkpt lat="68.3863" lon="14.71214">
        <ele>18.788922</ele>
        <time>2020-07-15T20:58:38.963Z</time>
      </trkpt>
      <trkpt lat="68.38642" lon="14.71272">
        <ele>18.532379</ele>
        <time>2020-07-15T20:58:42.952Z</time>
      </trkpt>
      <trkpt lat="68.38672" lon="14.71366">
        <ele>17.750808</ele>
        <time>2020-07-15T20:58:50.041Z</time>
      </trkpt>
      <trkpt lat="68.38676" lon="14.71377">
        <ele>17.658383</ele>
        <time>2020-07-15T20:58:51.182Z</time>
      </trkpt>
      <trkpt lat="68.38722" lon="14.71512">
        <ele>16.506864</ele>
        <time>2020-07-15T20:59:00.791Z</time>
      </trkpt>
      <trkpt lat="68.38849" lon="14.71898">
        <ele>12.250855</ele>
        <time>2020-07-15T20:59:26.134Z</time>
      </trkpt>
      <trkpt lat="68.38854" lon="14.71911">
        <ele>12.085363</ele>
        <time>2020-07-15T20:59:27.008Z</time>
      </trkpt>
      <trkpt lat="68.38856" lon="14.71917">
        <ele>12.009089</ele>
        <time>2020-07-15T20:59:27.504Z</time>
      </trkpt>
      <trkpt lat="68.38858" lon="14.71923">
        <ele>11.941545</ele>
        <time>2020-07-15T20:59:27.925Z</time>
      </trkpt>
      <trkpt lat="68.38869" lon="14.71957">
        <ele>11.54948</ele>
        <time>2020-07-15T20:59:30.830Z</time>
      </trkpt>
      <trkpt lat="68.38881" lon="14.71989">
        <ele>11.674466</ele>
        <time>2020-07-15T20:59:33.177Z</time>
      </trkpt>
      <trkpt lat="68.38895" lon="14.72029">
        <ele>11.940685</ele>
        <time>2020-07-15T20:59:37.667Z</time>
      </trkpt>
      <trkpt lat="68.38906" lon="14.72054">
        <ele>12.121693</ele>
        <time>2020-07-15T20:59:40.030Z</time>
      </trkpt>
      <trkpt lat="68.38921" lon="14.72084">
        <ele>12.357419</ele>
        <time>2020-07-15T20:59:44.093Z</time>
      </trkpt>
      <trkpt lat="68.38943" lon="14.72122">
        <ele>12.68696</ele>
        <time>2020-07-15T20:59:49.352Z</time>
      </trkpt>
      <trkpt lat="68.38953" lon="14.72138">
        <ele>12.837129</ele>
        <time>2020-07-15T20:59:52.681Z</time>
      </trkpt>
      <trkpt lat="68.38989" lon="14.72165">
        <ele>13.30959</ele>
        <time>2020-07-15T21:00:01.765Z</time>
      </trkpt>
      <trkpt lat="68.39019" lon="14.72159">
        <ele>13.689897</ele>
        <time>2020-07-15T21:00:09.426Z</time>
      </trkpt>
      <trkpt lat="68.39024" lon="14.72157">
        <ele>13.764175</ele>
        <time>2020-07-15T21:00:11.525Z</time>
      </trkpt>
      <trkpt lat="68.3904" lon="14.72153">
        <ele>14.172649</ele>
        <time>2020-07-15T21:00:15.796Z</time>
      </trkpt>
      <trkpt lat="68.39096" lon="14.7213">
        <ele>15.756711</ele>
        <time>2020-07-15T21:00:31.948Z</time>
      </trkpt>
      <trkpt lat="68.39189" lon="14.72055">
        <ele>18.453279</ele>
        <time>2020-07-15T21:00:57.964Z</time>
      </trkpt>
      <trkpt lat="68.39408" lon="14.71767">
        <ele>22.577005</ele>
        <time>2020-07-15T21:01:56.639Z</time>
      </trkpt>
      <trkpt lat="68.39442" lon="14.71696">
        <ele>22.760437</ele>
        <time>2020-07-15T21:02:05.151Z</time>
      </trkpt>
      <trkpt lat="68.39485" lon="14.71528">
        <ele>23.08505</ele>
        <time>2020-07-15T21:02:17.824Z</time>
      </trkpt>
      <trkpt lat="68.39512" lon="14.71478">
        <ele>22.833111</ele>
        <time>2020-07-15T21:02:22.779Z</time>
      </trkpt>
      <trkpt lat="68.39604" lon="14.71417">
        <ele>21.581933</ele>
        <time>2020-07-15T21:02:36.585Z</time>
      </trkpt>
      <trkpt lat="68.39818" lon="14.71111">
        <ele>18.617072</ele>
        <time>2020-07-15T21:03:12.862Z</time>
      </trkpt>
      <trkpt lat="68.40064" lon="14.70874">
        <ele>18.421448</ele>
        <time>2020-07-15T21:03:59.533Z</time>
      </trkpt>
      <trkpt lat="68.40109" lon="14.70848">
        <ele>18.451431</ele>
        <time>2020-07-15T21:04:08.231Z</time>
      </trkpt>
      <trkpt lat="68.40197" lon="14.70816">
        <ele>18.278261</ele>
        <time>2020-07-15T21:04:24.117Z</time>
      </trkpt>
      <trkpt lat="68.40224" lon="14.70806">
        <ele>18.114877</ele>
        <time>2020-07-15T21:04:28.704Z</time>
      </trkpt>
      <trkpt lat="68.40304" lon="14.70762">
        <ele>17.633887</ele>
        <time>2020-07-15T21:04:41.597Z</time>
      </trkpt>
      <trkpt lat="68.40505" lon="14.70595">
        <ele>16.217535</ele>
        <time>2020-07-15T21:05:14.233Z</time>
      </trkpt>
      <trkpt lat="68.40548" lon="14.70575">
        <ele>16.814287</ele>
        <time>2020-07-15T21:05:23.225Z</time>
      </trkpt>
      <trkpt lat="68.40575" lon="14.70575">
        <ele>17.266415</ele>
        <time>2020-07-15T21:05:29.437Z</time>
      </trkpt>
      <trkpt lat="68.40612" lon="14.70596">
        <ele>17.890296</ele>
        <time>2020-07-15T21:05:38.679Z</time>
      </trkpt>
      <trkpt lat="68.40722" lon="14.70755">
        <ele>19.479766</ele>
        <time>2020-07-15T21:06:10.884Z</time>
      </trkpt>
      <trkpt lat="68.40763" lon="14.70783">
        <ele>19.764864</ele>
        <time>2020-07-15T21:06:20.311Z</time>
      </trkpt>
      <trkpt lat="68.40793" lon="14.70774">
        <ele>19.963416</ele>
        <time>2020-07-15T21:06:26.254Z</time>
      </trkpt>
      <trkpt lat="68.40927" lon="14.7069">
        <ele>18.900021</ele>
        <time>2020-07-15T21:06:47.034Z</time>
      </trkpt>
      <trkpt lat="68.41189" lon="14.70561">
        <ele>14.142016</ele>
        <time>2020-07-15T21:07:23.685Z</time>
      </trkpt>
      <trkpt lat="68.41224" lon="14.70566">
        <ele>14.221259</ele>
        <time>2020-07-15T21:07:30.346Z</time>
      </trkpt>
      <trkpt lat="68.41357" lon="14.70644">
        <ele>16.611818</ele>
        <time>2020-07-15T21:08:04.680Z</time>
      </trkpt>
      <trkpt lat="68.41432" lon="14.70675">
        <ele>17.51037</ele>
        <time>2020-07-15T21:08:24.680Z</time>
      </trkpt>
      <trkpt lat="68.41501" lon="14.7069">
        <ele>18.155048</ele>
        <time>2020-07-15T21:08:40.098Z</time>
      </trkpt>
      <trkpt lat="68.41634" lon="14.70652">
        <ele>17.463124</ele>
        <time>2020-07-15T21:09:00.721Z</time>
      </trkpt>
      <trkpt lat="68.41763" lon="14.70594">
        <ele>15.496201</ele>
        <time>2020-07-15T21:09:18.789Z</time>
      </trkpt>
      <trkpt lat="68.41842" lon="14.70545">
        <ele>14.834311</ele>
        <time>2020-07-15T21:09:31.043Z</time>
      </trkpt>
      <trkpt lat="68.41846" lon="14.70542">
        <ele>14.794789</ele>
        <time>2020-07-15T21:09:31.785Z</time>
      </trkpt>
      <trkpt lat="68.41881" lon="14.70521">
        <ele>14.500601</ele>
        <time>2020-07-15T21:09:37.875Z</time>
      </trkpt>
      <trkpt lat="68.41945" lon="14.70499">
        <ele>14.660679</ele>
        <time>2020-07-15T21:09:50.255Z</time>
      </trkpt>
      <trkpt lat="68.42063" lon="14.70511">
        <ele>16.308328</ele>
        <time>2020-07-15T21:10:17.122Z</time>
      </trkpt>
      <trkpt lat="68.42108" lon="14.70511">
        <ele>17.185968</ele>
        <time>2020-07-15T21:10:28.126Z</time>
      </trkpt>
      <trkpt lat="68.42166" lon="14.70511">
        <ele>18.977949</ele>
        <time>2020-07-15T21:10:42.895Z</time>
      </trkpt>
      <trkpt lat="68.42306" lon="14.70539">
        <ele>23.628449</ele>
        <time>2020-07-15T21:11:24.309Z</time>
      </trkpt>
      <trkpt lat="68.4235" lon="14.70559">
        <ele>25.454499</ele>
        <time>2020-07-15T21:11:38.935Z</time>
      </trkpt>
      <trkpt lat="68.42397" lon="14.70597">
        <ele>27.437339</ele>
        <time>2020-07-15T21:11:54.262Z</time>
      </trkpt>
      <trkpt lat="68.42405" lon="14.70605">
        <ele>27.795371</ele>
        <time>2020-07-15T21:11:57.672Z</time>
      </trkpt>
      <trkpt lat="68.42439" lon="14.70639">
        <ele>29.25404</ele>
        <time>2020-07-15T21:12:08.591Z</time>
      </trkpt>
      <trkpt lat="68.42508" lon="14.70719">
        <ele>30.765998</ele>
        <time>2020-07-15T21:12:30.178Z</time>
      </trkpt>
      <trkpt lat="68.42649" lon="14.70851">
        <ele>32.243539</ele>
        <time>2020-07-15T21:13:00.423Z</time>
      </trkpt>
      <trkpt lat="68.42786" lon="14.71114">
        <ele>29.692853</ele>
        <time>2020-07-15T21:13:24.233Z</time>
      </trkpt>
      <trkpt lat="68.42823" lon="14.71186">
        <ele>28.430703</ele>
        <time>2020-07-15T21:13:30.366Z</time>
      </trkpt>
      <trkpt lat="68.42862" lon="14.71256">
        <ele>27.151073</ele>
        <time>2020-07-15T21:13:36.497Z</time>
      </trkpt>
      <trkpt lat="68.43012" lon="14.71495">
        <ele>22.779338</ele>
        <time>2020-07-15T21:13:59.730Z</time>
      </trkpt>
      <trkpt lat="68.4308" lon="14.7164">
        <ele>20.732917</ele>
        <time>2020-07-15T21:14:12.162Z</time>
      </trkpt>
      <trkpt lat="68.43124" lon="14.71752">
        <ele>19.37552</ele>
        <time>2020-07-15T21:14:20.846Z</time>
      </trkpt>
      <trkpt lat="68.43159" lon="14.71905">
        <ele>17.871779</ele>
        <time>2020-07-15T21:14:29.982Z</time>
      </trkpt>
      <trkpt lat="68.4321" lon="14.72024">
        <ele>16.09546</ele>
        <time>2020-07-15T21:14:38.933Z</time>
      </trkpt>
      <trkpt lat="68.43229" lon="14.72069">
        <ele>15.309356</ele>
        <time>2020-07-15T21:14:42.236Z</time>
      </trkpt>
      <trkpt lat="68.43268" lon="14.7216">
        <ele>13.72922</ele>
        <time>2020-07-15T21:14:48.866Z</time>
      </trkpt>
      <trkpt lat="68.43323" lon="14.72307">
        <ele>11.348161</ele>
        <time>2020-07-15T21:14:58.847Z</time>
      </trkpt>
      <trkpt lat="68.43431" lon="14.72773">
        <ele>6.753211</ele>
        <time>2020-07-15T21:15:26.632Z</time>
      </trkpt>
      <trkpt lat="68.43439" lon="14.72799">
        <ele>6.668574</ele>
        <time>2020-07-15T21:15:28.453Z</time>
      </trkpt>
      <trkpt lat="68.43469" lon="14.72886">
        <ele>6.371979</ele>
        <time>2020-07-15T21:15:35.495Z</time>
      </trkpt>
      <trkpt lat="68.43477" lon="14.72908">
        <ele>6.296175</ele>
        <time>2020-07-15T21:15:37.389Z</time>
      </trkpt>
      <trkpt lat="68.43479" lon="14.72914">
        <ele>6.273813</ele>
        <time>2020-07-15T21:15:37.961Z</time>
      </trkpt>
      <trkpt lat="68.43482" lon="14.72919">
        <ele>6.251772</ele>
        <time>2020-07-15T21:15:38.474Z</time>
      </trkpt>
      <trkpt lat="68.43494" lon="14.72958">
        <ele>6.123522</ele>
        <time>2020-07-15T21:15:41.771Z</time>
      </trkpt>
      <trkpt lat="68.43507" lon="14.73028">
        <ele>5.926953</ele>
        <time>2020-07-15T21:15:46.859Z</time>
      </trkpt>
      <trkpt lat="68.4351" lon="14.73098">
        <ele>5.7504</ele>
        <time>2020-07-15T21:15:51.725Z</time>
      </trkpt>
      <trkpt lat="68.43509" lon="14.73206">
        <ele>5.712131</ele>
        <time>2020-07-15T21:15:59.200Z</time>
      </trkpt>
      <trkpt lat="68.43507" lon="14.73387">
        <ele>5.71389</ele>
        <time>2020-07-15T21:16:11.867Z</time>
      </trkpt>
      <trkpt lat="68.43503" lon="14.73708">
        <ele>5.628266</ele>
        <time>2020-07-15T21:16:31.936Z</time>
      </trkpt>
      <trkpt lat="68.43503" lon="14.73813">
        <ele>5.539843</ele>
        <time>2020-07-15T21:16:38.281Z</time>
      </trkpt>
      <trkpt lat="68.43502" lon="14.73935">
        <ele>5.43767</ele>
        <time>2020-07-15T21:16:45.720Z</time>
      </trkpt>
      <trkpt lat="68.435" lon="14.7397">
        <ele>5.408735</ele>
        <time>2020-07-15T21:16:47.835Z</time>
      </trkpt>
      <trkpt lat="68.43499" lon="14.74065">
        <ele>5.328579</ele>
        <time>2020-07-15T21:16:54.074Z</time>
      </trkpt>
      <trkpt lat="68.43495" lon="14.74138">
        <ele>5.415648</ele>
        <time>2020-07-15T21:16:59.093Z</time>
      </trkpt>
      <trkpt lat="68.43492" lon="14.7417">
        <ele>5.49187</ele>
        <time>2020-07-15T21:17:01.436Z</time>
      </trkpt>
      <trkpt lat="68.43488" lon="14.74209">
        <ele>5.588115</ele>
        <time>2020-07-15T21:17:04.356Z</time>
      </trkpt>
      <trkpt lat="68.43483" lon="14.74257">
        <ele>5.704645</ele>
        <time>2020-07-15T21:17:07.966Z</time>
      </trkpt>
      <trkpt lat="68.4347" lon="14.74362">
        <ele>5.965285</ele>
        <time>2020-07-15T21:17:16.274Z</time>
      </trkpt>
      <trkpt lat="68.43462" lon="14.74419">
        <ele>6.107435</ele>
        <time>2020-07-15T21:17:20.853Z</time>
      </trkpt>
      <trkpt lat="68.43461" lon="14.74427">
        <ele>6.125744</ele>
        <time>2020-07-15T21:17:21.499Z</time>
      </trkpt>
      <trkpt lat="68.43458" lon="14.74456">
        <ele>6.196147</ele>
        <time>2020-07-15T21:17:23.831Z</time>
      </trkpt>
      <trkpt lat="68.43455" lon="14.74491">
        <ele>6.281774</ele>
        <time>2020-07-15T21:17:26.565Z</time>
      </trkpt>
      <trkpt lat="68.43454" lon="14.74525">
        <ele>6.360391</ele>
        <time>2020-07-15T21:17:29.172Z</time>
      </trkpt>
      <trkpt lat="68.43455" lon="14.7461">
        <ele>6.564826</ele>
        <time>2020-07-15T21:17:35.654Z</time>
      </trkpt>
      <trkpt lat="68.43454" lon="14.74691">
        <ele>6.761433</ele>
        <time>2020-07-15T21:17:41.746Z</time>
      </trkpt>
      <trkpt lat="68.43453" lon="14.74776">
        <ele>6.96971</ele>
        <time>2020-07-15T21:17:48.142Z</time>
      </trkpt>
      <trkpt lat="68.43421" lon="14.75018">
        <ele>7.596054</ele>
        <time>2020-07-15T21:18:07.079Z</time>
      </trkpt>
      <trkpt lat="68.43423" lon="14.75229">
        <ele>7.754698</ele>
        <time>2020-07-15T21:18:21.530Z</time>
      </trkpt>
      <trkpt lat="68.43422" lon="14.75272">
        <ele>7.779402</ele>
        <time>2020-07-15T21:18:24.293Z</time>
      </trkpt>
      <trkpt lat="68.4342" lon="14.7532">
        <ele>7.807436</ele>
        <time>2020-07-15T21:18:27.579Z</time>
      </trkpt>
      <trkpt lat="68.43411" lon="14.75441">
        <ele>7.878685</ele>
        <time>2020-07-15T21:18:35.660Z</time>
      </trkpt>
      <trkpt lat="68.43404" lon="14.75499">
        <ele>7.913712</ele>
        <time>2020-07-15T21:18:39.671Z</time>
      </trkpt>
      <trkpt lat="68.43392" lon="14.75658">
        <ele>7.83354</ele>
        <time>2020-07-15T21:18:50.436Z</time>
      </trkpt>
      <trkpt lat="68.43373" lon="14.75852">
        <ele>7.699732</ele>
        <time>2020-07-15T21:19:03.092Z</time>
      </trkpt>
      <trkpt lat="68.43369" lon="14.76012">
        <ele>7.594067</ele>
        <time>2020-07-15T21:19:12.742Z</time>
      </trkpt>
      <trkpt lat="68.43369" lon="14.76036">
        <ele>7.579761</ele>
        <time>2020-07-15T21:19:14.441Z</time>
      </trkpt>
      <trkpt lat="68.43367" lon="14.76304">
        <ele>7.423908</ele>
        <time>2020-07-15T21:19:31.610Z</time>
      </trkpt>
      <trkpt lat="68.43366" lon="14.7658">
        <ele>7.378006</ele>
        <time>2020-07-15T21:19:49.256Z</time>
      </trkpt>
      <trkpt lat="68.43366" lon="14.76603">
        <ele>7.394001</ele>
        <time>2020-07-15T21:19:51.111Z</time>
      </trkpt>
      <trkpt lat="68.43364" lon="14.76666">
        <ele>7.437667</ele>
        <time>2020-07-15T21:19:55.057Z</time>
      </trkpt>
      <trkpt lat="68.43359" lon="14.7686">
        <ele>7.572222</ele>
        <time>2020-07-15T21:20:08.583Z</time>
      </trkpt>
      <trkpt lat="68.43318" lon="14.77239">
        <ele>8.143683</ele>
        <time>2020-07-15T21:20:36.245Z</time>
      </trkpt>
      <trkpt lat="68.43308" lon="14.77383">
        <ele>8.404619</ele>
        <time>2020-07-15T21:20:46.781Z</time>
      </trkpt>
      <trkpt lat="68.43307" lon="14.77546">
        <ele>8.913281</ele>
        <time>2020-07-15T21:20:58.665Z</time>
      </trkpt>
      <trkpt lat="68.43323" lon="14.7812">
        <ele>11.881164</ele>
        <time>2020-07-15T21:21:44.898Z</time>
      </trkpt>
      <trkpt lat="68.43321" lon="14.78189">
        <ele>12.411321</ele>
        <time>2020-07-15T21:21:51.323Z</time>
      </trkpt>
      <trkpt lat="68.43309" lon="14.78333">
        <ele>13.540544</ele>
        <time>2020-07-15T21:22:05.416Z</time>
      </trkpt>
      <trkpt lat="68.43271" lon="14.7861">
        <ele>15.851499</ele>
        <time>2020-07-15T21:22:34.563Z</time>
      </trkpt>
      <trkpt lat="68.43252" lon="14.78936">
        <ele>18.185596</ele>
        <time>2020-07-15T21:23:03.853Z</time>
      </trkpt>
      <trkpt lat="68.4321" lon="14.79754">
        <ele>19.320894</ele>
        <time>2020-07-15T21:24:00.105Z</time>
      </trkpt>
      <trkpt lat="68.43223" lon="14.8007">
        <ele>19.306483</ele>
        <time>2020-07-15T21:24:21.946Z</time>
      </trkpt>
      <trkpt lat="68.43223" lon="14.80216">
        <ele>19.23977</ele>
        <time>2020-07-15T21:24:31.707Z</time>
      </trkpt>
      <trkpt lat="68.43158" lon="14.81103">
        <ele>16.205263</ele>
        <time>2020-07-15T21:25:23.423Z</time>
      </trkpt>
      <trkpt lat="68.43145" lon="14.81288">
        <ele>15.343783</ele>
        <time>2020-07-15T21:25:33.666Z</time>
      </trkpt>
      <trkpt lat="68.43125" lon="14.81553">
        <ele>13.461598</ele>
        <time>2020-07-15T21:25:47.976Z</time>
      </trkpt>
      <trkpt lat="68.43102" lon="14.81792">
        <ele>11.641031</ele>
        <time>2020-07-15T21:26:00.849Z</time>
      </trkpt>
      <trkpt lat="68.43084" lon="14.81895">
        <ele>10.155067</ele>
        <time>2020-07-15T21:26:06.499Z</time>
      </trkpt>
      <trkpt lat="68.43066" lon="14.81949">
        <ele>9.208092</ele>
        <time>2020-07-15T21:26:09.965Z</time>
      </trkpt>
      <trkpt lat="68.43041" lon="14.81987">
        <ele>8.193826</ele>
        <time>2020-07-15T21:26:13.485Z</time>
      </trkpt>
      <trkpt lat="68.43015" lon="14.81999">
        <ele>7.267698</ele>
        <time>2020-07-15T21:26:16.699Z</time>
      </trkpt>
      <trkpt lat="68.42957" lon="14.81983">
        <ele>5.246091</ele>
        <time>2020-07-15T21:26:24.223Z</time>
      </trkpt>
      <trkpt lat="68.42921" lon="14.81958">
        <ele>4.290962</ele>
        <time>2020-07-15T21:26:29.014Z</time>
      </trkpt>
      <trkpt lat="68.42917" lon="14.81963">
        <ele>4.187401</ele>
        <time>2020-07-15T21:26:29.459Z</time>
      </trkpt>
      <trkpt lat="68.42912" lon="14.81975">
        <ele>4.010739</ele>
        <time>2020-07-15T21:26:30.425Z</time>
      </trkpt>
      <trkpt lat="68.4291" lon="14.81987">
        <ele>3.888446</ele>
        <time>2020-07-15T21:26:31.095Z</time>
      </trkpt>
      <trkpt lat="68.42929" lon="14.81998">
        <ele>3.380768</ele>
        <time>2020-07-15T21:26:33.861Z</time>
      </trkpt>
      <trkpt lat="68.42945" lon="14.82016">
        <ele>2.94794</ele>
        <time>2020-07-15T21:26:36.008Z</time>
      </trkpt>
      <trkpt lat="68.42954" lon="14.82032">
        <ele>2.674013</ele>
        <time>2020-07-15T21:26:37.561Z</time>
      </trkpt>
      <trkpt lat="68.43001" lon="14.82133">
        <ele>1.113998</ele>
        <time>2020-07-15T21:26:45.963Z</time>
      </trkpt>
      <trkpt lat="68.43067" lon="14.82289">
        <ele>0.485744</ele>
        <time>2020-07-15T21:27:00.228Z</time>
      </trkpt>
      <trkpt lat="68.43082" lon="14.82334">
        <ele>0.392103</ele>
        <time>2020-07-15T21:27:04.240Z</time>
      </trkpt>
      <trkpt lat="68.43085" lon="14.82352">
        <ele>0.362406</ele>
        <time>2020-07-15T21:27:05.537Z</time>
      </trkpt>
      <trkpt lat="68.43086" lon="14.82403">
        <ele>0.28436</ele>
        <time>2020-07-15T21:27:08.883Z</time>
      </trkpt>
      <trkpt lat="68.43087" lon="14.82418">
        <ele>0.261691</ele>
        <time>2020-07-15T21:27:09.847Z</time>
      </trkpt>
      <trkpt lat="68.43091" lon="14.82439">
        <ele>0.226816</ele>
        <time>2020-07-15T21:27:11.336Z</time>
      </trkpt>
      <trkpt lat="68.43127" lon="14.82642">
        <ele>0.038252</ele>
        <time>2020-07-15T21:27:22.891Z</time>
      </trkpt>
      <trkpt lat="68.43166" lon="14.82832">
        <ele>0.016259</ele>
        <time>2020-07-15T21:27:34.117Z</time>
      </trkpt>
      <trkpt lat="68.43454" lon="14.83493">
        <time>2020-07-15T21:28:26.610Z</time>
      </trkpt>
      <trkpt lat="68.43662" lon="14.83874">
        <time>2020-07-15T21:29:01.649Z</time>
      </trkpt>
      <trkpt lat="68.43861" lon="14.84054">
        <time>2020-07-15T21:29:30.874Z</time>
      </trkpt>
      <trkpt lat="68.44072" lon="14.84065">
        <time>2020-07-15T21:30:00.249Z</time>
      </trkpt>
      <trkpt lat="68.45274" lon="14.8341">
        <time>2020-07-15T21:32:51.107Z</time>
      </trkpt>
      <trkpt lat="68.46569" lon="14.82627">
        <time>2020-07-15T21:35:56.140Z</time>
      </trkpt>
      <trkpt lat="68.48647" lon="14.8145">
        <ele>0.023121</ele>
        <time>2020-07-15T21:40:52.038Z</time>
      </trkpt>
      <trkpt lat="68.49267" lon="14.81119">
        <ele>0.201548</ele>
        <time>2020-07-15T21:42:20.120Z</time>
      </trkpt>
      <trkpt lat="68.49523" lon="14.80996">
        <ele>0.267641</ele>
        <time>2020-07-15T21:42:56.359Z</time>
      </trkpt>
      <trkpt lat="68.49613" lon="14.80926">
        <ele>0.265666</ele>
        <time>2020-07-15T21:43:09.404Z</time>
      </trkpt>
      <trkpt lat="68.49739" lon="14.80699">
        <ele>0.109493</ele>
        <time>2020-07-15T21:43:30.479Z</time>
      </trkpt>
      <trkpt lat="68.49813" lon="14.80486">
        <ele>0.055885</ele>
        <time>2020-07-15T21:43:45.473Z</time>
      </trkpt>
      <trkpt lat="68.49846" lon="14.8033">
        <ele>0.042085</ele>
        <time>2020-07-15T21:43:54.691Z</time>
      </trkpt>
      <trkpt lat="68.49863" lon="14.80132">
        <ele>0.102467</ele>
        <time>2020-07-15T21:44:05.096Z</time>
      </trkpt>
      <trkpt lat="68.49866" lon="14.80096">
        <ele>0.13171</ele>
        <time>2020-07-15T21:44:07.643Z</time>
      </trkpt>
      <trkpt lat="68.4987" lon="14.80046">
        <ele>0.171057</ele>
        <time>2020-07-15T21:44:11.093Z</time>
      </trkpt>
      <trkpt lat="68.49872" lon="14.79867">
        <ele>0.310134</ele>
        <time>2020-07-15T21:44:23.467Z</time>
      </trkpt>
      <trkpt lat="68.49873" lon="14.79853">
        <ele>0.321891</ele>
        <time>2020-07-15T21:44:24.510Z</time>
      </trkpt>
      <trkpt lat="68.4988" lon="14.79843">
        <ele>0.338658</ele>
        <time>2020-07-15T21:44:25.989Z</time>
      </trkpt>
      <trkpt lat="68.49847" lon="14.79594">
        <ele>0.452045</ele>
        <time>2020-07-15T21:44:44.144Z</time>
      </trkpt>
      <trkpt lat="68.49884" lon="14.79508">
        <ele>0.481466</ele>
        <time>2020-07-15T21:44:53.279Z</time>
      </trkpt>
      <trkpt lat="68.49891" lon="14.7949">
        <ele>0.48739</ele>
        <time>2020-07-15T21:44:55.130Z</time>
      </trkpt>
      <trkpt lat="68.49895" lon="14.79483">
        <ele>0.490266</ele>
        <time>2020-07-15T21:44:55.999Z</time>
      </trkpt>
      <trkpt lat="68.49981" lon="14.79438">
        <ele>0.456127</ele>
        <time>2020-07-15T21:45:11.839Z</time>
      </trkpt>
      <trkpt lat="68.50004" lon="14.79429">
        <ele>0.405119</ele>
        <time>2020-07-15T21:45:16.018Z</time>
      </trkpt>
      <trkpt lat="68.50015" lon="14.79422">
        <ele>0.381213</ele>
        <time>2020-07-15T21:45:17.980Z</time>
      </trkpt>
      <trkpt lat="68.50067" lon="14.79396">
        <ele>0.266366</ele>
        <time>2020-07-15T21:45:27.460Z</time>
      </trkpt>
      <trkpt lat="68.50076" lon="14.79391">
        <ele>0.247142</ele>
        <time>2020-07-15T21:45:29.012Z</time>
      </trkpt>
      <trkpt lat="68.50076" lon="14.7937">
        <ele>0.230652</ele>
        <time>2020-07-15T21:45:30.373Z</time>
      </trkpt>
      <trkpt lat="68.50072" lon="14.79079">
        <ele>0.197342</ele>
        <time>2020-07-15T21:45:49.664Z</time>
      </trkpt>
      <trkpt lat="68.50071" lon="14.79068">
        <ele>0.201118</ele>
        <time>2020-07-15T21:45:50.376Z</time>
      </trkpt>
      <trkpt lat="68.5007" lon="14.79055">
        <ele>0.205933</ele>
        <time>2020-07-15T21:45:51.291Z</time>
      </trkpt>
      <trkpt lat="68.50064" lon="14.78924">
        <ele>0.253233</ele>
        <time>2020-07-15T21:46:00.588Z</time>
      </trkpt>
      <trkpt lat="68.5006" lon="14.78855">
        <ele>0.278514</ele>
        <time>2020-07-15T21:46:05.548Z</time>
      </trkpt>
      <trkpt lat="68.50059" lon="14.78819">
        <ele>0.291424</ele>
        <time>2020-07-15T21:46:08.220Z</time>
      </trkpt>
      <trkpt lat="68.5005" lon="14.78708">
        <ele>0.429145</ele>
        <time>2020-07-15T21:46:16.362Z</time>
      </trkpt>
      <trkpt lat="68.50045" lon="14.78658">
        <ele>0.536835</ele>
        <time>2020-07-15T21:46:20.037Z</time>
      </trkpt>
      <trkpt lat="68.50048" lon="14.78658">
        <ele>0.55838</ele>
        <time>2020-07-15T21:46:20.912Z</time>
      </trkpt>
      <trkpt lat="68.50056" lon="14.78655">
        <ele>0.599023</ele>
        <time>2020-07-15T21:46:22.297Z</time>
      </trkpt>
      <trkpt lat="68.50116" lon="14.78624">
        <ele>0.948025</ele>
        <time>2020-07-15T21:46:34.436Z</time>
      </trkpt>
      <trkpt lat="68.50114" lon="14.78612">
        <ele>0.975536</ele>
        <time>2020-07-15T21:46:35.501Z</time>
      </trkpt>
      <trkpt lat="68.50083" lon="14.78485">
        <ele>1.292386</ele>
        <time>2020-07-15T21:46:46.537Z</time>
      </trkpt>
      <trkpt lat="68.50076" lon="14.78343">
        <ele>2.102449</ele>
        <time>2020-07-15T21:46:58.217Z</time>
      </trkpt>
      <trkpt lat="68.50068" lon="14.78281">
        <ele>2.506154</ele>
        <time>2020-07-15T21:47:03.285Z</time>
      </trkpt>
      <trkpt lat="68.50063" lon="14.78254">
        <ele>2.690229</ele>
        <time>2020-07-15T21:47:06.183Z</time>
      </trkpt>
      <trkpt lat="68.50061" lon="14.78237">
        <ele>2.806924</ele>
        <time>2020-07-15T21:47:07.804Z</time>
      </trkpt>
      <trkpt lat="68.50051" lon="14.78165">
        <ele>3.281841</ele>
        <time>2020-07-15T21:47:14.457Z</time>
      </trkpt>
      <trkpt lat="68.50046" lon="14.78127">
        <ele>3.530062</ele>
        <time>2020-07-15T21:47:17.744Z</time>
      </trkpt>
      <trkpt lat="68.50042" lon="14.78099">
        <ele>3.717964</ele>
        <time>2020-07-15T21:47:20.358Z</time>
      </trkpt>
      <trkpt lat="68.50038" lon="14.78066">
        <ele>3.931407</ele>
        <time>2020-07-15T21:47:23.931Z</time>
      </trkpt>
      <trkpt lat="68.50034" lon="14.78014">
        <ele>4.25916</ele>
        <time>2020-07-15T21:47:28.318Z</time>
      </trkpt>
      <trkpt lat="68.50034" lon="14.7798">
        <ele>4.47968</ele>
        <time>2020-07-15T21:47:31.766Z</time>
      </trkpt>
      <trkpt lat="68.50035" lon="14.77963">
        <ele>4.60227</ele>
        <time>2020-07-15T21:47:33.504Z</time>
      </trkpt>
      <trkpt lat="68.50037" lon="14.77893">
        <ele>5.098638</ele>
        <time>2020-07-15T21:47:39.793Z</time>
      </trkpt>
      <trkpt lat="68.50036" lon="14.77861">
        <ele>5.321625</ele>
        <time>2020-07-15T21:47:43.053Z</time>
      </trkpt>
      <trkpt lat="68.50029" lon="14.77779">
        <ele>5.91106</ele>
        <time>2020-07-15T21:47:50.798Z</time>
      </trkpt>
      <trkpt lat="68.50023" lon="14.77736">
        <ele>6.23854</ele>
        <time>2020-07-15T21:47:54.687Z</time>
      </trkpt>
      <trkpt lat="68.50018" lon="14.77696">
        <ele>6.537718</ele>
        <time>2020-07-15T21:47:58.818Z</time>
      </trkpt>
      <trkpt lat="68.50013" lon="14.77647">
        <ele>6.886726</ele>
        <time>2020-07-15T21:48:03.122Z</time>
      </trkpt>
      <trkpt lat="68.50011" lon="14.77618">
        <ele>7.097994</ele>
        <time>2020-07-15T21:48:05.685Z</time>
      </trkpt>
      <trkpt lat="68.5001" lon="14.77591">
        <ele>7.286923</ele>
        <time>2020-07-15T21:48:08.201Z</time>
      </trkpt>
      <trkpt lat="68.50009" lon="14.77568">
        <ele>7.450912</ele>
        <time>2020-07-15T21:48:10.224Z</time>
      </trkpt>
      <trkpt lat="68.50011" lon="14.77516">
        <ele>7.811921</ele>
        <time>2020-07-15T21:48:14.367Z</time>
      </trkpt>
      <trkpt lat="68.50014" lon="14.77472">
        <ele>7.774162</ele>
        <time>2020-07-15T21:48:18.060Z</time>
      </trkpt>
      <trkpt lat="68.50023" lon="14.77296">
        <ele>7.623079</ele>
        <time>2020-07-15T21:48:30.439Z</time>
      </trkpt>
      <trkpt lat="68.50023" lon="14.77216">
        <ele>7.555708</ele>
        <time>2020-07-15T21:48:35.380Z</time>
      </trkpt>
      <trkpt lat="68.50014" lon="14.77116">
        <ele>7.468343</ele>
        <time>2020-07-15T21:48:41.277Z</time>
      </trkpt>
      <trkpt lat="68.50014" lon="14.77109">
        <ele>7.46237</ele>
        <time>2020-07-15T21:48:41.658Z</time>
      </trkpt>
      <trkpt lat="68.50013" lon="14.77094">
        <ele>7.448866</ele>
        <time>2020-07-15T21:48:42.454Z</time>
      </trkpt>
      <trkpt lat="68.5001" lon="14.77046">
        <ele>7.407388</ele>
        <time>2020-07-15T21:48:45.182Z</time>
      </trkpt>
      <trkpt lat="68.50011" lon="14.77014">
        <ele>7.245772</ele>
        <time>2020-07-15T21:48:46.867Z</time>
      </trkpt>
      <trkpt lat="68.50012" lon="14.76998">
        <ele>7.110436</ele>
        <time>2020-07-15T21:48:47.647Z</time>
      </trkpt>
      <trkpt lat="68.50014" lon="14.7698">
        <ele>6.95539</ele>
        <time>2020-07-15T21:48:48.658Z</time>
      </trkpt>
      <trkpt lat="68.50033" lon="14.76824">
        <ele>5.58513</ele>
        <time>2020-07-15T21:48:57.076Z</time>
      </trkpt>
      <trkpt lat="68.50047" lon="14.76723">
        <ele>4.684729</ele>
        <time>2020-07-15T21:49:02.433Z</time>
      </trkpt>
      <trkpt lat="68.50061" lon="14.76621">
        <ele>3.778868</ele>
        <time>2020-07-15T21:49:07.806Z</time>
      </trkpt>
      <trkpt lat="68.50072" lon="14.76544">
        <ele>3.165991</ele>
        <time>2020-07-15T21:49:11.923Z</time>
      </trkpt>
      <trkpt lat="68.5008" lon="14.76482">
        <ele>2.794228</ele>
        <time>2020-07-15T21:49:15.238Z</time>
      </trkpt>
      <trkpt lat="68.50087" lon="14.7643">
        <ele>2.474377</ele>
        <time>2020-07-15T21:49:18.125Z</time>
      </trkpt>
      <trkpt lat="68.50095" lon="14.76376">
        <ele>2.141064</ele>
        <time>2020-07-15T21:49:21.177Z</time>
      </trkpt>
      <trkpt lat="68.50101" lon="14.76344">
        <ele>1.939944</ele>
        <time>2020-07-15T21:49:23.044Z</time>
      </trkpt>
      <trkpt lat="68.50107" lon="14.7631">
        <ele>1.721091</ele>
        <time>2020-07-15T21:49:25.152Z</time>
      </trkpt>
      <trkpt lat="68.50108" lon="14.76306">
        <ele>1.694557</ele>
        <time>2020-07-15T21:49:25.371Z</time>
      </trkpt>
      <trkpt lat="68.5011" lon="14.76295">
        <ele>1.622471</ele>
        <time>2020-07-15T21:49:26.038Z</time>
      </trkpt>
      <trkpt lat="68.50122" lon="14.76246">
        <ele>1.289721</ele>
        <time>2020-07-15T21:49:29.285Z</time>
      </trkpt>
      <trkpt lat="68.5014" lon="14.76173">
        <ele>0.788459</ele>
        <time>2020-07-15T21:49:34.251Z</time>
      </trkpt>
      <trkpt lat="68.50165" lon="14.76067">
        <ele>0.435077</ele>
        <time>2020-07-15T21:49:41.915Z</time>
      </trkpt>
      <trkpt lat="68.50174" lon="14.76027">
        <ele>0.38787</ele>
        <time>2020-07-15T21:49:44.731Z</time>
      </trkpt>
      <trkpt lat="68.50181" lon="14.75995">
        <ele>0.351385</ele>
        <time>2020-07-15T21:49:47.079Z</time>
      </trkpt>
      <trkpt lat="68.50191" lon="14.75951">
        <ele>0.300428</ele>
        <time>2020-07-15T21:49:50.208Z</time>
      </trkpt>
      <trkpt lat="68.50213" lon="14.75867">
        <ele>0.19626</ele>
        <time>2020-07-15T21:49:56.955Z</time>
      </trkpt>
      <trkpt lat="68.50245" lon="14.75774">
        <ele>0.068472</ele>
        <time>2020-07-15T21:50:05.336Z</time>
      </trkpt>
      <trkpt lat="68.50258" lon="14.75732">
        <ele>0.026707</ele>
        <time>2020-07-15T21:50:08.813Z</time>
      </trkpt>
      <trkpt lat="68.50265" lon="14.75704">
        <ele>0.038415</ele>
        <time>2020-07-15T21:50:11.086Z</time>
      </trkpt>
      <trkpt lat="68.50288" lon="14.7555">
        <ele>0.0946</ele>
        <time>2020-07-15T21:50:21.943Z</time>
      </trkpt>
      <trkpt lat="68.50293" lon="14.7551">
        <ele>0.108786</ele>
        <time>2020-07-15T21:50:24.694Z</time>
      </trkpt>
      <trkpt lat="68.50296" lon="14.75472">
        <ele>0.122044</ele>
        <time>2020-07-15T21:50:27.277Z</time>
      </trkpt>
      <trkpt lat="68.50299" lon="14.75432">
        <ele>0.135697</ele>
        <time>2020-07-15T21:50:29.957Z</time>
      </trkpt>
      <trkpt lat="68.50303" lon="14.75329">
        <ele>0.170769</ele>
        <time>2020-07-15T21:50:36.886Z</time>
      </trkpt>
      <trkpt lat="68.50311" lon="14.75206">
        <ele>0.403111</ele>
        <time>2020-07-15T21:50:45.357Z</time>
      </trkpt>
      <trkpt lat="68.50313" lon="14.75163">
        <ele>0.539323</ele>
        <time>2020-07-15T21:50:48.419Z</time>
      </trkpt>
      <trkpt lat="68.50321" lon="14.75008">
        <ele>1.026391</ele>
        <time>2020-07-15T21:50:59.372Z</time>
      </trkpt>
      <trkpt lat="68.50331" lon="14.74916">
        <ele>1.32281</ele>
        <time>2020-07-15T21:51:06.714Z</time>
      </trkpt>
      <trkpt lat="68.50336" lon="14.74879">
        <ele>1.443386</ele>
        <time>2020-07-15T21:51:09.912Z</time>
      </trkpt>
      <trkpt lat="68.50351" lon="14.74803">
        <ele>1.71755</ele>
        <time>2020-07-15T21:51:17.270Z</time>
      </trkpt>
      <trkpt lat="68.50371" lon="14.74739">
        <ele>2.78262</ele>
        <time>2020-07-15T21:51:24.771Z</time>
      </trkpt>
      <trkpt lat="68.50387" lon="14.74703">
        <ele>3.482845</ele>
        <time>2020-07-15T21:51:29.939Z</time>
      </trkpt>
      <trkpt lat="68.50401" lon="14.74675">
        <ele>4.087835</ele>
        <time>2020-07-15T21:51:34.549Z</time>
      </trkpt>
      <trkpt lat="68.50573" lon="14.74384">
        <ele>11.882147</ele>
        <time>2020-07-15T21:52:39.116Z</time>
      </trkpt>
      <trkpt lat="68.50605" lon="14.74341">
        <ele>13.422228</ele>
        <time>2020-07-15T21:52:51.153Z</time>
      </trkpt>
      <trkpt lat="68.50679" lon="14.74269">
        <ele>15.781123</ele>
        <time>2020-07-15T21:53:15.984Z</time>
      </trkpt>
      <trkpt lat="68.50698" lon="14.74234">
        <ele>15.863836</ele>
        <time>2020-07-15T21:53:22.328Z</time>
      </trkpt>
      <trkpt lat="68.5073" lon="14.74091">
        <ele>16.088245</ele>
        <time>2020-07-15T21:53:34.441Z</time>
      </trkpt>
      <trkpt lat="68.50737" lon="14.74028">
        <ele>16.17674</ele>
        <time>2020-07-15T21:53:38.018Z</time>
      </trkpt>
      <trkpt lat="68.50743" lon="14.73904">
        <ele>16.338888</ele>
        <time>2020-07-15T21:53:44.503Z</time>
      </trkpt>
      <trkpt lat="68.50759" lon="14.73821">
        <ele>15.017319</ele>
        <time>2020-07-15T21:53:48.938Z</time>
      </trkpt>
      <trkpt lat="68.50764" lon="14.73804">
        <ele>14.71961</ele>
        <time>2020-07-15T21:53:49.806Z</time>
      </trkpt>
      <trkpt lat="68.5077" lon="14.73773">
        <ele>14.228449</ele>
        <time>2020-07-15T21:53:51.400Z</time>
      </trkpt>
      <trkpt lat="68.50783" lon="14.73619">
        <ele>12.03002</ele>
        <time>2020-07-15T21:53:58.641Z</time>
      </trkpt>
      <trkpt lat="68.50801" lon="14.73539">
        <ele>10.711269</ele>
        <time>2020-07-15T21:54:02.967Z</time>
      </trkpt>
      <trkpt lat="68.50806" lon="14.73528">
        <ele>10.471453</ele>
        <time>2020-07-15T21:54:03.663Z</time>
      </trkpt>
      <trkpt lat="68.50816" lon="14.73505">
        <ele>9.974483</ele>
        <time>2020-07-15T21:54:05.376Z</time>
      </trkpt>
      <trkpt lat="68.50857" lon="14.73423">
        <ele>8.679075</ele>
        <time>2020-07-15T21:54:12.144Z</time>
      </trkpt>
      <trkpt lat="68.50874" lon="14.73394">
        <ele>8.268536</ele>
        <time>2020-07-15T21:54:14.796Z</time>
      </trkpt>
      <trkpt lat="68.50883" lon="14.7338">
        <ele>8.058793</ele>
        <time>2020-07-15T21:54:16.336Z</time>
      </trkpt>
      <trkpt lat="68.50938" lon="14.73302">
        <ele>6.763152</ele>
        <time>2020-07-15T21:54:25.215Z</time>
      </trkpt>
      <trkpt lat="68.50982" lon="14.73218">
        <ele>5.671449</ele>
        <time>2020-07-15T21:54:33.754Z</time>
      </trkpt>
      <trkpt lat="68.50989" lon="14.73199">
        <ele>5.538345</ele>
        <time>2020-07-15T21:54:35.313Z</time>
      </trkpt>
      <trkpt lat="68.50997" lon="14.73172">
        <ele>5.371899</ele>
        <time>2020-07-15T21:54:37.155Z</time>
      </trkpt>
      <trkpt lat="68.51094" lon="14.72847">
        <ele>3.320077</ele>
        <time>2020-07-15T21:54:59.897Z</time>
      </trkpt>
      <trkpt lat="68.51097" lon="14.72834">
        <ele>3.27337</ele>
        <time>2020-07-15T21:55:00.741Z</time>
      </trkpt>
      <trkpt lat="68.51104" lon="14.72792">
        <ele>3.143152</ele>
        <time>2020-07-15T21:55:03.240Z</time>
      </trkpt>
      <trkpt lat="68.51127" lon="14.7262">
        <ele>2.620759</ele>
        <time>2020-07-15T21:55:13.525Z</time>
      </trkpt>
      <trkpt lat="68.51138" lon="14.7257">
        <ele>2.454131</ele>
        <time>2020-07-15T21:55:16.963Z</time>
      </trkpt>
      <trkpt lat="68.51168" lon="14.72491">
        <ele>2.129829</ele>
        <time>2020-07-15T21:55:23.651Z</time>
      </trkpt>
      <trkpt lat="68.51202" lon="14.72456">
        <ele>2.036696</ele>
        <time>2020-07-15T21:55:29.987Z</time>
      </trkpt>
      <trkpt lat="68.51215" lon="14.72452">
        <ele>2.185436</ele>
        <time>2020-07-15T21:55:32.408Z</time>
      </trkpt>
      <trkpt lat="68.51322" lon="14.72431">
        <ele>3.424969</ele>
        <time>2020-07-15T21:55:55.149Z</time>
      </trkpt>
      <trkpt lat="68.51358" lon="14.72428">
        <ele>3.84706</ele>
        <time>2020-07-15T21:56:03.758Z</time>
      </trkpt>
      <trkpt lat="68.51386" lon="14.72426">
        <ele>4.430011</ele>
        <time>2020-07-15T21:56:10.812Z</time>
      </trkpt>
      <trkpt lat="68.51486" lon="14.72513">
        <ele>7.458469</ele>
        <time>2020-07-15T21:56:38.837Z</time>
      </trkpt>
      <trkpt lat="68.51502" lon="14.72519">
        <ele>7.912885</ele>
        <time>2020-07-15T21:56:43.316Z</time>
      </trkpt>
      <trkpt lat="68.51516" lon="14.72519">
        <ele>8.322742</ele>
        <time>2020-07-15T21:56:47.455Z</time>
      </trkpt>
      <trkpt lat="68.51525" lon="14.72515">
        <ele>8.582743</ele>
        <time>2020-07-15T21:56:50.073Z</time>
      </trkpt>
      <trkpt lat="68.51531" lon="14.72512">
        <ele>8.770536</ele>
        <time>2020-07-15T21:56:51.938Z</time>
      </trkpt>
      <trkpt lat="68.51536" lon="14.72508">
        <ele>8.915387</ele>
        <time>2020-07-15T21:56:53.393Z</time>
      </trkpt>
      <trkpt lat="68.51542" lon="14.72502">
        <ele>9.089801</ele>
        <time>2020-07-15T21:56:55.333Z</time>
      </trkpt>
      <trkpt lat="68.51573" lon="14.72464">
        <ele>10.178349</ele>
        <time>2020-07-15T21:57:05.280Z</time>
      </trkpt>
      <trkpt lat="68.51596" lon="14.72436">
        <ele>10.965429</ele>
        <time>2020-07-15T21:57:12.387Z</time>
      </trkpt>
      <trkpt lat="68.5164" lon="14.72379">
        <ele>12.517396</ele>
        <time>2020-07-15T21:57:27.202Z</time>
      </trkpt>
      <trkpt lat="68.51655" lon="14.72358">
        <ele>13.050178</ele>
        <time>2020-07-15T21:57:31.824Z</time>
      </trkpt>
      <trkpt lat="68.51672" lon="14.72327">
        <ele>13.721596</ele>
        <time>2020-07-15T21:57:37.683Z</time>
      </trkpt>
      <trkpt lat="68.51689" lon="14.72293">
        <ele>14.388724</ele>
        <time>2020-07-15T21:57:43.149Z</time>
      </trkpt>
      <trkpt lat="68.51721" lon="14.72237">
        <ele>15.15022</ele>
        <time>2020-07-15T21:57:52.897Z</time>
      </trkpt>
      <trkpt lat="68.51745" lon="14.72188">
        <ele>15.461332</ele>
        <time>2020-07-15T21:58:00.075Z</time>
      </trkpt>
      <trkpt lat="68.51863" lon="14.72008">
        <ele>16.796824</ele>
        <time>2020-07-15T21:58:27.171Z</time>
      </trkpt>
      <trkpt lat="68.51894" lon="14.71946">
        <ele>16.632672</ele>
        <time>2020-07-15T21:58:33.435Z</time>
      </trkpt>
      <trkpt lat="68.51946" lon="14.71809">
        <ele>16.3219</ele>
        <time>2020-07-15T21:58:45.118Z</time>
      </trkpt>
      <trkpt lat="68.5196" lon="14.71756">
        <ele>16.21731</ele>
        <time>2020-07-15T21:58:48.950Z</time>
      </trkpt>
      <trkpt lat="68.51968" lon="14.71731">
        <ele>16.164142</ele>
        <time>2020-07-15T21:58:50.931Z</time>
      </trkpt>
      <trkpt lat="68.51987" lon="14.71663">
        <ele>16.043302</ele>
        <time>2020-07-15T21:58:55.892Z</time>
      </trkpt>
      <trkpt lat="68.51994" lon="14.7164">
        <ele>16.030894</ele>
        <time>2020-07-15T21:58:57.480Z</time>
      </trkpt>
      <trkpt lat="68.52005" lon="14.7159">
        <ele>16.005914</ele>
        <time>2020-07-15T21:59:01.374Z</time>
      </trkpt>
      <trkpt lat="68.52016" lon="14.71544">
        <ele>15.982472</ele>
        <time>2020-07-15T21:59:04.562Z</time>
      </trkpt>
      <trkpt lat="68.52046" lon="14.71359">
        <ele>15.896253</ele>
        <time>2020-07-15T21:59:17.875Z</time>
      </trkpt>
      <trkpt lat="68.52061" lon="14.71304">
        <ele>15.866958</ele>
        <time>2020-07-15T21:59:22.465Z</time>
      </trkpt>
      <trkpt lat="68.52064" lon="14.71293">
        <ele>15.860717</ele>
        <time>2020-07-15T21:59:23.221Z</time>
      </trkpt>
      <trkpt lat="68.52069" lon="14.71281">
        <ele>15.852719</ele>
        <time>2020-07-15T21:59:25.078Z</time>
      </trkpt>
      <trkpt lat="68.52154" lon="14.71119">
        <ele>16.462395</ele>
        <time>2020-07-15T21:59:44.525Z</time>
      </trkpt>
      <trkpt lat="68.52263" lon="14.70837">
        <ele>18.341799</ele>
        <time>2020-07-15T22:00:16.305Z</time>
      </trkpt>
      <trkpt lat="68.52349" lon="14.70668">
        <ele>20.535151</ele>
        <time>2020-07-15T22:00:42.503Z</time>
      </trkpt>
      <trkpt lat="68.52433" lon="14.70528">
        <ele>23.272671</ele>
        <time>2020-07-15T22:01:13.337Z</time>
      </trkpt>
      <trkpt lat="68.5248" lon="14.70464">
        <ele>24.782771</ele>
        <time>2020-07-15T22:01:27.257Z</time>
      </trkpt>
      <trkpt lat="68.52493" lon="14.70451">
        <ele>25.178914</ele>
        <time>2020-07-15T22:01:31.635Z</time>
      </trkpt>
      <trkpt lat="68.52501" lon="14.70442">
        <ele>25.435419</ele>
        <time>2020-07-15T22:01:33.950Z</time>
      </trkpt>
      <trkpt lat="68.52616" lon="14.70337">
        <ele>24.482671</ele>
        <time>2020-07-15T22:01:56.597Z</time>
      </trkpt>
      <trkpt lat="68.52648" lon="14.70297">
        <ele>23.971388</ele>
        <time>2020-07-15T22:02:01.272Z</time>
      </trkpt>
      <trkpt lat="68.52695" lon="14.70215">
        <ele>22.72327</ele>
        <time>2020-07-15T22:02:08.084Z</time>
      </trkpt>
      <trkpt lat="68.52749" lon="14.7007">
        <ele>19.314837</ele>
        <time>2020-07-15T22:02:17.225Z</time>
      </trkpt>
      <trkpt lat="68.52753" lon="14.70052">
        <ele>18.950205</ele>
        <time>2020-07-15T22:02:18.128Z</time>
      </trkpt>
      <trkpt lat="68.5276" lon="14.70023">
        <ele>18.397696</ele>
        <time>2020-07-15T22:02:19.615Z</time>
      </trkpt>
      <trkpt lat="68.52773" lon="14.69968">
        <ele>17.317497</ele>
        <time>2020-07-15T22:02:22.543Z</time>
      </trkpt>
      <trkpt lat="68.52797" lon="14.69899">
        <ele>15.729487</ele>
        <time>2020-07-15T22:02:26.990Z</time>
      </trkpt>
      <trkpt lat="68.52851" lon="14.69804">
        <ele>14.732332</ele>
        <time>2020-07-15T22:02:35.827Z</time>
      </trkpt>
      <trkpt lat="68.5286" lon="14.6979">
        <ele>14.636092</ele>
        <time>2020-07-15T22:02:37.102Z</time>
      </trkpt>
      <trkpt lat="68.52865" lon="14.69781">
        <ele>14.582279</ele>
        <time>2020-07-15T22:02:37.957Z</time>
      </trkpt>
      <trkpt lat="68.52869" lon="14.6977">
        <ele>14.530821</ele>
        <time>2020-07-15T22:02:38.830Z</time>
      </trkpt>
      <trkpt lat="68.52876" lon="14.69743">
        <ele>14.418979</ele>
        <time>2020-07-15T22:02:40.976Z</time>
      </trkpt>
      <trkpt lat="68.52909" lon="14.69577">
        <ele>13.779936</ele>
        <time>2020-07-15T22:02:53.882Z</time>
      </trkpt>
      <trkpt lat="68.52977" lon="14.6945">
        <ele>14.290241</ele>
        <time>2020-07-15T22:03:11.398Z</time>
      </trkpt>
      <trkpt lat="68.52997" lon="14.69372">
        <ele>14.715969</ele>
        <time>2020-07-15T22:03:19.256Z</time>
      </trkpt>
      <trkpt lat="68.53014" lon="14.69245">
        <ele>15.321675</ele>
        <time>2020-07-15T22:03:29.847Z</time>
      </trkpt>
      <trkpt lat="68.53007" lon="14.69048">
        <ele>16.472047</ele>
        <time>2020-07-15T22:03:46.438Z</time>
      </trkpt>
      <trkpt lat="68.53022" lon="14.68904">
        <ele>17.544524</ele>
        <time>2020-07-15T22:03:59.556Z</time>
      </trkpt>
      <trkpt lat="68.53025" lon="14.6887">
        <ele>17.793219</ele>
        <time>2020-07-15T22:04:02.432Z</time>
      </trkpt>
      <trkpt lat="68.53027" lon="14.68854">
        <ele>17.911548</ele>
        <time>2020-07-15T22:04:03.852Z</time>
      </trkpt>
      <trkpt lat="68.53032" lon="14.68796">
        <ele>18.33649</ele>
        <time>2020-07-15T22:04:10.118Z</time>
      </trkpt>
      <trkpt lat="68.53054" lon="14.68612">
        <ele>19.548588</ele>
        <time>2020-07-15T22:04:27.660Z</time>
      </trkpt>
      <trkpt lat="68.53085" lon="14.68464">
        <ele>20.2946</ele>
        <time>2020-07-15T22:04:42.024Z</time>
      </trkpt>
      <trkpt lat="68.5309" lon="14.68442">
        <ele>20.409454</ele>
        <time>2020-07-15T22:04:45.143Z</time>
      </trkpt>
      <trkpt lat="68.53103" lon="14.68384">
        <ele>20.707383</ele>
        <time>2020-07-15T22:04:50.061Z</time>
      </trkpt>
      <trkpt lat="68.53203" lon="14.67998">
        <ele>20.609537</ele>
        <time>2020-07-15T22:05:21.280Z</time>
      </trkpt>
      <trkpt lat="68.53214" lon="14.67954">
        <ele>20.46895</ele>
        <time>2020-07-15T22:05:24.122Z</time>
      </trkpt>
      <trkpt lat="68.53219" lon="14.67934">
        <ele>20.404487</ele>
        <time>2020-07-15T22:05:25.418Z</time>
      </trkpt>
      <trkpt lat="68.53245" lon="14.67803">
        <ele>19.755303</ele>
        <time>2020-07-15T22:05:33.097Z</time>
      </trkpt>
      <trkpt lat="68.53286" lon="14.6766">
        <ele>18.212675</ele>
        <time>2020-07-15T22:05:42.026Z</time>
      </trkpt>
      <trkpt lat="68.53308" lon="14.6749">
        <ele>16.68285</ele>
        <time>2020-07-15T22:05:50.959Z</time>
      </trkpt>
      <trkpt lat="68.53323" lon="14.67419">
        <ele>15.991134</ele>
        <time>2020-07-15T22:05:55.355Z</time>
      </trkpt>
      <trkpt lat="68.53325" lon="14.67411">
        <ele>15.914463</ele>
        <time>2020-07-15T22:05:55.747Z</time>
      </trkpt>
      <trkpt lat="68.53327" lon="14.67404">
        <ele>15.85181</ele>
        <time>2020-07-15T22:05:56.687Z</time>
      </trkpt>
      <trkpt lat="68.53365" lon="14.67327">
        <ele>14.960641</ele>
        <time>2020-07-15T22:06:03.639Z</time>
      </trkpt>
      <trkpt lat="68.53486" lon="14.6716">
        <ele>12.353257</ele>
        <time>2020-07-15T22:06:23.138Z</time>
      </trkpt>
      <trkpt lat="68.53601" lon="14.67106">
        <ele>9.011844</ele>
        <time>2020-07-15T22:06:38.918Z</time>
      </trkpt>
      <trkpt lat="68.53657" lon="14.67052">
        <ele>7.314114</ele>
        <time>2020-07-15T22:06:46.524Z</time>
      </trkpt>
      <trkpt lat="68.53713" lon="14.66977">
        <ele>5.509985</ele>
        <time>2020-07-15T22:06:54.430Z</time>
      </trkpt>
      <trkpt lat="68.53831" lon="14.669">
        <ele>2.136783</ele>
        <time>2020-07-15T22:07:10.812Z</time>
      </trkpt>
      <trkpt lat="68.53841" lon="14.66889">
        <ele>2.042032</ele>
        <time>2020-07-15T22:07:12.234Z</time>
      </trkpt>
      <trkpt lat="68.53849" lon="14.6688">
        <ele>1.961053</ele>
        <time>2020-07-15T22:07:13.519Z</time>
      </trkpt>
      <trkpt lat="68.53961" lon="14.66694">
        <ele>0.73646</ele>
        <time>2020-07-15T22:07:34.341Z</time>
      </trkpt>
      <trkpt lat="68.54008" lon="14.66585">
        <ele>0.836814</ele>
        <time>2020-07-15T22:07:45.932Z</time>
      </trkpt>
      <trkpt lat="68.5406" lon="14.66368">
        <ele>1.546624</ele>
        <time>2020-07-15T22:08:04.513Z</time>
      </trkpt>
      <trkpt lat="68.54109" lon="14.66061">
        <ele>4.383027</ele>
        <time>2020-07-15T22:08:33.422Z</time>
      </trkpt>
      <trkpt lat="68.54113" lon="14.66037">
        <ele>4.698625</ele>
        <time>2020-07-15T22:08:36.130Z</time>
      </trkpt>
      <trkpt lat="68.54116" lon="14.6602">
        <ele>4.936211</ele>
        <time>2020-07-15T22:08:38.392Z</time>
      </trkpt>
      <trkpt lat="68.54125" lon="14.65985">
        <ele>5.421746</ele>
        <time>2020-07-15T22:08:42.486Z</time>
      </trkpt>
      <trkpt lat="68.5414" lon="14.65926">
        <ele>6.279473</ele>
        <time>2020-07-15T22:08:50.505Z</time>
      </trkpt>
      <trkpt lat="68.54238" lon="14.65564">
        <ele>14.096037</ele>
        <time>2020-07-15T22:09:47.767Z</time>
      </trkpt>
      <trkpt lat="68.54323" lon="14.65256">
        <ele>19.812485</ele>
        <time>2020-07-15T22:10:37.587Z</time>
      </trkpt>
      <trkpt lat="68.54444" lon="14.64974">
        <ele>21.750742</ele>
        <time>2020-07-15T22:11:12.921Z</time>
      </trkpt>
      <trkpt lat="68.54452" lon="14.64956">
        <ele>21.564363</ele>
        <time>2020-07-15T22:11:14.450Z</time>
      </trkpt>
      <trkpt lat="68.5446" lon="14.64936">
        <ele>21.353549</ele>
        <time>2020-07-15T22:11:15.864Z</time>
      </trkpt>
      <trkpt lat="68.54509" lon="14.64814">
        <ele>20.13199</ele>
        <time>2020-07-15T22:11:24.627Z</time>
      </trkpt>
      <trkpt lat="68.54538" lon="14.64742">
        <ele>19.114088</ele>
        <time>2020-07-15T22:11:29.444Z</time>
      </trkpt>
      <trkpt lat="68.54553" lon="14.64706">
        <ele>18.093461</ele>
        <time>2020-07-15T22:11:31.882Z</time>
      </trkpt>
      <trkpt lat="68.54631" lon="14.64505">
        <ele>12.542814</ele>
        <time>2020-07-15T22:11:44.572Z</time>
      </trkpt>
      <trkpt lat="68.54638" lon="14.6449">
        <ele>12.102823</ele>
        <time>2020-07-15T22:11:45.545Z</time>
      </trkpt>
      <trkpt lat="68.54655" lon="14.64447">
        <ele>10.886255</ele>
        <time>2020-07-15T22:11:48.494Z</time>
      </trkpt>
      <trkpt lat="68.54673" lon="14.64409">
        <ele>10.045262</ele>
        <time>2020-07-15T22:11:51.267Z</time>
      </trkpt>
      <trkpt lat="68.54675" lon="14.64404">
        <ele>9.97532</ele>
        <time>2020-07-15T22:11:51.689Z</time>
      </trkpt>
      <trkpt lat="68.54703" lon="14.64343">
        <ele>9.203056</ele>
        <time>2020-07-15T22:11:56.236Z</time>
      </trkpt>
      <trkpt lat="68.54738" lon="14.64278">
        <ele>8.275878</ele>
        <time>2020-07-15T22:12:01.814Z</time>
      </trkpt>
      <trkpt lat="68.54895" lon="14.64045">
        <ele>7.936181</ele>
        <time>2020-07-15T22:12:31.204Z</time>
      </trkpt>
      <trkpt lat="68.54988" lon="14.63868">
        <ele>10.51178</ele>
        <time>2020-07-15T22:13:05.396Z</time>
      </trkpt>
      <trkpt lat="68.55016" lon="14.63815">
        <ele>11.988325</ele>
        <time>2020-07-15T22:13:16.849Z</time>
      </trkpt>
      <trkpt lat="68.55053" lon="14.63745">
        <ele>13.941401</ele>
        <time>2020-07-15T22:13:33.023Z</time>
      </trkpt>
      <trkpt lat="68.55108" lon="14.63644">
        <ele>16.766936</ele>
        <time>2020-07-15T22:13:53.604Z</time>
      </trkpt>
      <trkpt lat="68.55129" lon="14.63565">
        <ele>17.432223</ele>
        <time>2020-07-15T22:14:03.816Z</time>
      </trkpt>
      <trkpt lat="68.5514" lon="14.63451">
        <ele>17.773498</ele>
        <time>2020-07-15T22:14:14.525Z</time>
      </trkpt>
      <trkpt lat="68.55146" lon="14.63399">
        <ele>17.931481</ele>
        <time>2020-07-15T22:14:18.127Z</time>
      </trkpt>
      <trkpt lat="68.55184" lon="14.63161">
        <ele>18.629915</ele>
        <time>2020-07-15T22:14:33.724Z</time>
      </trkpt>
      <trkpt lat="68.55243" lon="14.6285">
        <ele>17.024853</ele>
        <time>2020-07-15T22:14:52.408Z</time>
      </trkpt>
      <trkpt lat="68.55296" lon="14.62671">
        <ele>16.419043</ele>
        <time>2020-07-15T22:15:05.693Z</time>
      </trkpt>
      <trkpt lat="68.5533" lon="14.62453">
        <ele>16.433594</ele>
        <time>2020-07-15T22:15:21.223Z</time>
      </trkpt>
      <trkpt lat="68.55343" lon="14.62401">
        <ele>16.437432</ele>
        <time>2020-07-15T22:15:25.671Z</time>
      </trkpt>
      <trkpt lat="68.55359" lon="14.62373">
        <ele>16.440629</ele>
        <time>2020-07-15T22:15:29.436Z</time>
      </trkpt>
      <trkpt lat="68.55512" lon="14.62194">
        <ele>17.254371</ele>
        <time>2020-07-15T22:16:02.682Z</time>
      </trkpt>
      <trkpt lat="68.55573" lon="14.6206">
        <ele>17.13397</ele>
        <time>2020-07-15T22:16:17.343Z</time>
      </trkpt>
      <trkpt lat="68.55614" lon="14.61993">
        <ele>16.865683</ele>
        <time>2020-07-15T22:16:25.674Z</time>
      </trkpt>
      <trkpt lat="68.55673" lon="14.61945">
        <ele>16.519505</ele>
        <time>2020-07-15T22:16:35.009Z</time>
      </trkpt>
      <trkpt lat="68.55751" lon="14.61885">
        <ele>15.63216</ele>
        <time>2020-07-15T22:16:46.891Z</time>
      </trkpt>
      <trkpt lat="68.55786" lon="14.61861">
        <ele>15.167773</ele>
        <time>2020-07-15T22:16:52.172Z</time>
      </trkpt>
      <trkpt lat="68.55853" lon="14.61844">
        <ele>14.303064</ele>
        <time>2020-07-15T22:17:02.043Z</time>
      </trkpt>
      <trkpt lat="68.5618" lon="14.61812">
        <ele>13.626799</ele>
        <time>2020-07-15T22:17:58.426Z</time>
      </trkpt>
      <trkpt lat="68.56188" lon="14.6181">
        <ele>13.632419</ele>
        <time>2020-07-15T22:18:00.553Z</time>
      </trkpt>
      <trkpt lat="68.56222" lon="14.618">
        <ele>13.655032</ele>
        <time>2020-07-15T22:18:07.004Z</time>
      </trkpt>
      <trkpt lat="68.56249" lon="14.61808">
        <ele>13.817366</ele>
        <time>2020-07-15T22:18:11.943Z</time>
      </trkpt>
      <trkpt lat="68.56268" lon="14.61837">
        <ele>13.993903</ele>
        <time>2020-07-15T22:18:16.557Z</time>
      </trkpt>
      <trkpt lat="68.56277" lon="14.61865">
        <ele>14.107162</ele>
        <time>2020-07-15T22:18:19.064Z</time>
      </trkpt>
      <trkpt lat="68.56282" lon="14.61882">
        <ele>14.172325</ele>
        <time>2020-07-15T22:18:21.052Z</time>
      </trkpt>
      <trkpt lat="68.56329" lon="14.6208">
        <ele>14.873183</ele>
        <time>2020-07-15T22:18:39.118Z</time>
      </trkpt>
      <trkpt lat="68.56361" lon="14.62217">
        <ele>15.280734</ele>
        <time>2020-07-15T22:18:51.422Z</time>
      </trkpt>
      <trkpt lat="68.56368" lon="14.62252">
        <ele>15.360154</ele>
        <time>2020-07-15T22:18:54.448Z</time>
      </trkpt>
      <trkpt lat="68.56387" lon="14.6236">
        <ele>15.597095</ele>
        <time>2020-07-15T22:19:02.991Z</time>
      </trkpt>
      <trkpt lat="68.56387" lon="14.62364">
        <ele>15.606852</ele>
        <time>2020-07-15T22:19:03.580Z</time>
      </trkpt>
      <trkpt lat="68.56396" lon="14.62415">
        <ele>15.719036</ele>
        <time>2020-07-15T22:19:07.542Z</time>
      </trkpt>
      <trkpt lat="68.56406" lon="14.62476">
        <ele>15.852134</ele>
        <time>2020-07-15T22:19:12.239Z</time>
      </trkpt>
      <trkpt lat="68.56423" lon="14.62542">
        <ele>16.013838</ele>
        <time>2020-07-15T22:19:18.017Z</time>
      </trkpt>
      <trkpt lat="68.56448" lon="14.62577">
        <ele>16.046774</ele>
        <time>2020-07-15T22:19:23.135Z</time>
      </trkpt>
      <trkpt lat="68.56576" lon="14.62643">
        <ele>15.401628</ele>
        <time>2020-07-15T22:19:44.553Z</time>
      </trkpt>
      <trkpt lat="68.56626" lon="14.62692">
        <ele>15.086632</ele>
        <time>2020-07-15T22:19:52.809Z</time>
      </trkpt>
      <trkpt lat="68.56775" lon="14.63039">
        <ele>13.647488</ele>
        <time>2020-07-15T22:20:23.515Z</time>
      </trkpt>
      <trkpt lat="68.56857" lon="14.63171">
        <ele>13.608103</ele>
        <time>2020-07-15T22:20:40.196Z</time>
      </trkpt>
      <trkpt lat="68.56958" lon="14.63291">
        <ele>14.099742</ele>
        <time>2020-07-15T22:21:02.047Z</time>
      </trkpt>
      <trkpt lat="68.57" lon="14.63337">
        <ele>14.516597</ele>
        <time>2020-07-15T22:21:11.622Z</time>
      </trkpt>
      <trkpt lat="68.57029" lon="14.63368">
        <ele>14.799601</ele>
        <time>2020-07-15T22:21:18.071Z</time>
      </trkpt>
      <trkpt lat="68.57039" lon="14.63381">
        <ele>14.901307</ele>
        <time>2020-07-15T22:21:20.595Z</time>
      </trkpt>
      <trkpt lat="68.57075" lon="14.63443">
        <ele>15.307012</ele>
        <time>2020-07-15T22:21:29.693Z</time>
      </trkpt>
      <trkpt lat="68.57269" lon="14.63864">
        <ele>17.903812</ele>
        <time>2020-07-15T22:22:22.984Z</time>
      </trkpt>
      <trkpt lat="68.57278" lon="14.6388">
        <ele>17.991706</ele>
        <time>2020-07-15T22:22:25.234Z</time>
      </trkpt>
      <trkpt lat="68.57278" lon="14.6388">
        <ele>17.991706</ele>
        <time>2020-07-15T22:22:25.258Z</time>
      </trkpt>
      <trkpt lat="68.57278" lon="14.6388">
        <ele>17.991706</ele>
        <time>2020-07-15T22:22:25.402Z</time>
      </trkpt>
      <trkpt lat="68.57289" lon="14.63904">
        <ele>18.111711</ele>
        <time>2020-07-15T22:22:28.216Z</time>
      </trkpt>
      <trkpt lat="68.57331" lon="14.63974">
        <ele>18.533282</ele>
        <time>2020-07-15T22:22:38.090Z</time>
      </trkpt>
      <trkpt lat="68.57355" lon="14.64047">
        <ele>18.825093</ele>
        <time>2020-07-15T22:22:45.316Z</time>
      </trkpt>
      <trkpt lat="68.57464" lon="14.64346">
        <ele>19.291519</ele>
        <time>2020-07-15T22:23:13.866Z</time>
      </trkpt>
      <trkpt lat="68.57536" lon="14.64589">
        <ele>19.820503</ele>
        <time>2020-07-15T22:23:35.385Z</time>
      </trkpt>
      <trkpt lat="68.57558" lon="14.6468">
        <ele>20.018627</ele>
        <time>2020-07-15T22:23:42.979Z</time>
      </trkpt>
      <trkpt lat="68.5757" lon="14.6475">
        <ele>20.160484</ele>
        <time>2020-07-15T22:23:48.983Z</time>
      </trkpt>
      <trkpt lat="68.57581" lon="14.64862">
        <ele>20.564074</ele>
        <time>2020-07-15T22:23:57.580Z</time>
      </trkpt>
      <trkpt lat="68.57579" lon="14.65101">
        <ele>21.745853</ele>
        <time>2020-07-15T22:24:16.222Z</time>
      </trkpt>
      <trkpt lat="68.5758" lon="14.65134">
        <ele>21.909812</ele>
        <time>2020-07-15T22:24:19.424Z</time>
      </trkpt>
      <trkpt lat="68.57582" lon="14.65163">
        <ele>22.053809</ele>
        <time>2020-07-15T22:24:21.756Z</time>
      </trkpt>
      <trkpt lat="68.57596" lon="14.65264">
        <ele>22.589576</ele>
        <time>2020-07-15T22:24:31.518Z</time>
      </trkpt>
      <trkpt lat="68.57606" lon="14.65304">
        <ele>22.743701</ele>
        <time>2020-07-15T22:24:35.838Z</time>
      </trkpt>
      <trkpt lat="68.57616" lon="14.65344">
        <ele>22.844663</ele>
        <time>2020-07-15T22:24:39.908Z</time>
      </trkpt>
      <trkpt lat="68.5765" lon="14.65476">
        <ele>23.173187</ele>
        <time>2020-07-15T22:24:53.217Z</time>
      </trkpt>
      <trkpt lat="68.57683" lon="14.65603">
        <ele>23.488001</ele>
        <time>2020-07-15T22:25:02.961Z</time>
      </trkpt>
      <trkpt lat="68.57705" lon="14.6569">
        <ele>23.653155</ele>
        <time>2020-07-15T22:25:09.298Z</time>
      </trkpt>
      <trkpt lat="68.57735" lon="14.65785">
        <ele>23.098231</ele>
        <time>2020-07-15T22:25:16.539Z</time>
      </trkpt>
      <trkpt lat="68.57758" lon="14.65865">
        <ele>22.647225</ele>
        <time>2020-07-15T22:25:22.072Z</time>
      </trkpt>
      <trkpt lat="68.57768" lon="14.65896">
        <ele>22.463825</ele>
        <time>2020-07-15T22:25:24.145Z</time>
      </trkpt>
      <trkpt lat="68.57815" lon="14.66035">
        <ele>21.62626</ele>
        <time>2020-07-15T22:25:33.972Z</time>
      </trkpt>
      <trkpt lat="68.57944" lon="14.66343">
        <ele>21.325806</ele>
        <time>2020-07-15T22:26:03.757Z</time>
      </trkpt>
      <trkpt lat="68.58" lon="14.66457">
        <ele>21.747265</ele>
        <time>2020-07-15T22:26:18.253Z</time>
      </trkpt>
      <trkpt lat="68.58112" lon="14.66639">
        <ele>22.881083</ele>
        <time>2020-07-15T22:26:45.673Z</time>
      </trkpt>
      <trkpt lat="68.58199" lon="14.6686">
        <ele>23.806643</ele>
        <time>2020-07-15T22:27:10.513Z</time>
      </trkpt>
      <trkpt lat="68.58246" lon="14.66984">
        <ele>24.268999</ele>
        <time>2020-07-15T22:27:23.298Z</time>
      </trkpt>
      <trkpt lat="68.58259" lon="14.67023">
        <ele>24.274967</ele>
        <time>2020-07-15T22:27:26.909Z</time>
      </trkpt>
      <trkpt lat="68.58288" lon="14.67105">
        <ele>24.287669</ele>
        <time>2020-07-15T22:27:34.677Z</time>
      </trkpt>
      <trkpt lat="68.583" lon="14.67142">
        <ele>24.293313</ele>
        <time>2020-07-15T22:27:38.157Z</time>
      </trkpt>
      <trkpt lat="68.58388" lon="14.6735">
        <ele>24.155961</ele>
        <time>2020-07-15T22:27:58.092Z</time>
      </trkpt>
      <trkpt lat="68.58455" lon="14.67467">
        <ele>23.536012</ele>
        <time>2020-07-15T22:28:11.011Z</time>
      </trkpt>
      <trkpt lat="68.58475" lon="14.67548">
        <ele>23.253145</ele>
        <time>2020-07-15T22:28:16.620Z</time>
      </trkpt>
      <trkpt lat="68.58484" lon="14.67618">
        <ele>23.041777</ele>
        <time>2020-07-15T22:28:20.731Z</time>
      </trkpt>
      <trkpt lat="68.58493" lon="14.67756">
        <ele>22.310671</ele>
        <time>2020-07-15T22:28:28.395Z</time>
      </trkpt>
      <trkpt lat="68.58498" lon="14.67816">
        <ele>21.918743</ele>
        <time>2020-07-15T22:28:31.567Z</time>
      </trkpt>
      <trkpt lat="68.58507" lon="14.68064">
        <ele>20.330601</ele>
        <time>2020-07-15T22:28:44.468Z</time>
      </trkpt>
      <trkpt lat="68.58513" lon="14.68198">
        <ele>19.663634</ele>
        <time>2020-07-15T22:28:51.461Z</time>
      </trkpt>
      <trkpt lat="68.58516" lon="14.68262">
        <ele>19.513929</ele>
        <time>2020-07-15T22:28:54.978Z</time>
      </trkpt>
      <trkpt lat="68.58519" lon="14.68306">
        <ele>19.410582</ele>
        <time>2020-07-15T22:28:57.411Z</time>
      </trkpt>
      <trkpt lat="68.58523" lon="14.68372">
        <ele>19.255159</ele>
        <time>2020-07-15T22:29:01.231Z</time>
      </trkpt>
      <trkpt lat="68.58524" lon="14.68405">
        <ele>19.177692</ele>
        <time>2020-07-15T22:29:03.208Z</time>
      </trkpt>
      <trkpt lat="68.58528" lon="14.68561">
        <ele>18.812246</ele>
        <time>2020-07-15T22:29:12.946Z</time>
      </trkpt>
      <trkpt lat="68.58528" lon="14.68654">
        <ele>18.657443</ele>
        <time>2020-07-15T22:29:19.460Z</time>
      </trkpt>
      <trkpt lat="68.58529" lon="14.68757">
        <ele>18.869374</ele>
        <time>2020-07-15T22:29:27.155Z</time>
      </trkpt>
      <trkpt lat="68.58529" lon="14.68827">
        <ele>19.012963</ele>
        <time>2020-07-15T22:29:32.649Z</time>
      </trkpt>
      <trkpt lat="68.58531" lon="14.69067">
        <ele>19.505613</ele>
        <time>2020-07-15T22:29:50.836Z</time>
      </trkpt>
      <trkpt lat="68.58532" lon="14.69157">
        <ele>19.493676</ele>
        <time>2020-07-15T22:29:57.049Z</time>
      </trkpt>
      <trkpt lat="68.5853" lon="14.69242">
        <ele>18.995357</ele>
        <time>2020-07-15T22:30:02.006Z</time>
      </trkpt>
      <trkpt lat="68.58518" lon="14.69306">
        <ele>18.576853</ele>
        <time>2020-07-15T22:30:05.930Z</time>
      </trkpt>
      <trkpt lat="68.58506" lon="14.69342">
        <ele>18.293899</ele>
        <time>2020-07-15T22:30:08.471Z</time>
      </trkpt>
      <trkpt lat="68.58489" lon="14.69383">
        <ele>17.9327</ele>
        <time>2020-07-15T22:30:11.727Z</time>
      </trkpt>
      <trkpt lat="68.58461" lon="14.69449">
        <ele>17.338064</ele>
        <time>2020-07-15T22:30:16.886Z</time>
      </trkpt>
      <trkpt lat="68.58426" lon="14.69519">
        <ele>16.609029</ele>
        <time>2020-07-15T22:30:22.633Z</time>
      </trkpt>
      <trkpt lat="68.58323" lon="14.69705">
        <ele>13.803369</ele>
        <time>2020-07-15T22:30:39.338Z</time>
      </trkpt>
      <trkpt lat="68.58299" lon="14.69735">
        <ele>13.211021</ele>
        <time>2020-07-15T22:30:43.015Z</time>
      </trkpt>
      <trkpt lat="68.5826" lon="14.69774">
        <ele>12.589495</ele>
        <time>2020-07-15T22:30:49.407Z</time>
      </trkpt>
      <trkpt lat="68.58184" lon="14.69849">
        <ele>12.130824</ele>
        <time>2020-07-15T22:31:02.432Z</time>
      </trkpt>
      <trkpt lat="68.58163" lon="14.6987">
        <ele>12.007593</ele>
        <time>2020-07-15T22:31:06.045Z</time>
      </trkpt>
      <trkpt lat="68.58143" lon="14.69894">
        <ele>11.883376</ele>
        <time>2020-07-15T22:31:09.989Z</time>
      </trkpt>
      <trkpt lat="68.58092" lon="14.69962">
        <ele>11.712639</ele>
        <time>2020-07-15T22:31:19.940Z</time>
      </trkpt>
      <trkpt lat="68.57937" lon="14.70212">
        <ele>11.985251</ele>
        <time>2020-07-15T22:31:53.480Z</time>
      </trkpt>
      <trkpt lat="68.57917" lon="14.70254">
        <ele>11.982672</ele>
        <time>2020-07-15T22:31:58.282Z</time>
      </trkpt>
      <trkpt lat="68.57893" lon="14.7031">
        <ele>11.979353</ele>
        <time>2020-07-15T22:32:03.981Z</time>
      </trkpt>
      <trkpt lat="68.5787" lon="14.70411">
        <ele>11.974729</ele>
        <time>2020-07-15T22:32:11.863Z</time>
      </trkpt>
      <trkpt lat="68.5784" lon="14.70613">
        <ele>11.805779</ele>
        <time>2020-07-15T22:32:25.403Z</time>
      </trkpt>
      <trkpt lat="68.57839" lon="14.70626">
        <ele>11.767302</ele>
        <time>2020-07-15T22:32:26.164Z</time>
      </trkpt>
      <trkpt lat="68.57838" lon="14.70645">
        <ele>11.709152</ele>
        <time>2020-07-15T22:32:27.257Z</time>
      </trkpt>
      <trkpt lat="68.57834" lon="14.7078">
        <ele>11.311765</ele>
        <time>2020-07-15T22:32:35.475Z</time>
      </trkpt>
      <trkpt lat="68.57831" lon="14.70815">
        <ele>11.205134</ele>
        <time>2020-07-15T22:32:37.559Z</time>
      </trkpt>
      <trkpt lat="68.57829" lon="14.70839">
        <ele>11.131802</ele>
        <time>2020-07-15T22:32:38.940Z</time>
      </trkpt>
      <trkpt lat="68.57798" lon="14.71021">
        <ele>10.544153</ele>
        <time>2020-07-15T22:32:50.143Z</time>
      </trkpt>
      <trkpt lat="68.57789" lon="14.71103">
        <ele>10.20577</ele>
        <time>2020-07-15T22:32:54.898Z</time>
      </trkpt>
      <trkpt lat="68.57782" lon="14.7121">
        <ele>9.76768</ele>
        <time>2020-07-15T22:33:00.854Z</time>
      </trkpt>
      <trkpt lat="68.57781" lon="14.71215">
        <ele>9.746206</ele>
        <time>2020-07-15T22:33:01.089Z</time>
      </trkpt>
      <trkpt lat="68.57772" lon="14.71325">
        <ele>9.286953</ele>
        <time>2020-07-15T22:33:07.461Z</time>
      </trkpt>
      <trkpt lat="68.57764" lon="14.71423">
        <ele>8.881157</ele>
        <time>2020-07-15T22:33:13.121Z</time>
      </trkpt>
      <trkpt lat="68.57756" lon="14.71502">
        <ele>8.551814</ele>
        <time>2020-07-15T22:33:17.689Z</time>
      </trkpt>
      <trkpt lat="68.57731" lon="14.71691">
        <ele>8.195112</ele>
        <time>2020-07-15T22:33:29.331Z</time>
      </trkpt>
      <trkpt lat="68.57729" lon="14.71707">
        <ele>8.164325</ele>
        <time>2020-07-15T22:33:30.378Z</time>
      </trkpt>
      <trkpt lat="68.57721" lon="14.71737">
        <ele>8.103585</ele>
        <time>2020-07-15T22:33:32.521Z</time>
      </trkpt>
      <trkpt lat="68.5768" lon="14.7187">
        <ele>7.801977</ele>
        <time>2020-07-15T22:33:43.075Z</time>
      </trkpt>
      <trkpt lat="68.57673" lon="14.71892">
        <ele>7.752955</ele>
        <time>2020-07-15T22:33:44.965Z</time>
      </trkpt>
      <trkpt lat="68.57667" lon="14.71917">
        <ele>7.70219</ele>
        <time>2020-07-15T22:33:46.782Z</time>
      </trkpt>
      <trkpt lat="68.57627" lon="14.72144">
        <ele>8.623649</ele>
        <time>2020-07-15T22:34:05.823Z</time>
      </trkpt>
      <trkpt lat="68.5762" lon="14.72185">
        <ele>8.799215</ele>
        <time>2020-07-15T22:34:09.782Z</time>
      </trkpt>
      <trkpt lat="68.57615" lon="14.72213">
        <ele>8.921334</ele>
        <time>2020-07-15T22:34:12.001Z</time>
      </trkpt>
      <trkpt lat="68.57598" lon="14.72303">
        <ele>9.31417</ele>
        <time>2020-07-15T22:34:20.498Z</time>
      </trkpt>
      <trkpt lat="68.57592" lon="14.7233">
        <ele>9.43635</ele>
        <time>2020-07-15T22:34:23.259Z</time>
      </trkpt>
      <trkpt lat="68.57585" lon="14.72358">
        <ele>9.569128</ele>
        <time>2020-07-15T22:34:26.125Z</time>
      </trkpt>
      <trkpt lat="68.57578" lon="14.72377">
        <ele>9.700105</ele>
        <time>2020-07-15T22:34:28.106Z</time>
      </trkpt>
      <trkpt lat="68.57576" lon="14.72382">
        <ele>9.732583</ele>
        <time>2020-07-15T22:34:28.777Z</time>
      </trkpt>
      <trkpt lat="68.5757" lon="14.72398">
        <ele>9.843868</ele>
        <time>2020-07-15T22:34:30.682Z</time>
      </trkpt>
      <trkpt lat="68.57568" lon="14.72406">
        <ele>9.89886</ele>
        <time>2020-07-15T22:34:31.716Z</time>
      </trkpt>
      <trkpt lat="68.57562" lon="14.72424">
        <ele>10.019442</ele>
        <time>2020-07-15T22:34:33.815Z</time>
      </trkpt>
      <trkpt lat="68.57546" lon="14.72496">
        <ele>10.436187</ele>
        <time>2020-07-15T22:34:40.665Z</time>
      </trkpt>
      <trkpt lat="68.57533" lon="14.72608">
        <ele>11.019996</ele>
        <time>2020-07-15T22:34:50.475Z</time>
      </trkpt>
      <trkpt lat="68.57528" lon="14.72821">
        <ele>12.04561</ele>
        <time>2020-07-15T22:35:08.104Z</time>
      </trkpt>
      <trkpt lat="68.57527" lon="14.72869">
        <ele>12.073004</ele>
        <time>2020-07-15T22:35:11.283Z</time>
      </trkpt>
      <trkpt lat="68.57527" lon="14.72951">
        <ele>12.120016</ele>
        <time>2020-07-15T22:35:16.768Z</time>
      </trkpt>
      <trkpt lat="68.57527" lon="14.72978">
        <ele>12.135594</ele>
        <time>2020-07-15T22:35:18.543Z</time>
      </trkpt>
      <trkpt lat="68.57528" lon="14.73041">
        <ele>12.171947</ele>
        <time>2020-07-15T22:35:22.742Z</time>
      </trkpt>
      <trkpt lat="68.5753" lon="14.73088">
        <ele>12.198678</ele>
        <time>2020-07-15T22:35:25.759Z</time>
      </trkpt>
      <trkpt lat="68.57536" lon="14.73269">
        <ele>12.302634</ele>
        <time>2020-07-15T22:35:37.418Z</time>
      </trkpt>
      <trkpt lat="68.57537" lon="14.73327">
        <ele>12.305633</ele>
        <time>2020-07-15T22:35:41.151Z</time>
      </trkpt>
      <trkpt lat="68.57538" lon="14.73367">
        <ele>12.272676</ele>
        <time>2020-07-15T22:35:43.717Z</time>
      </trkpt>
      <trkpt lat="68.57538" lon="14.7374">
        <ele>11.968661</ele>
        <time>2020-07-15T22:36:06.882Z</time>
      </trkpt>
      <trkpt lat="68.5754" lon="14.73858">
        <ele>12.0914</ele>
        <time>2020-07-15T22:36:14.298Z</time>
      </trkpt>
      <trkpt lat="68.5754" lon="14.73895">
        <ele>12.193291</ele>
        <time>2020-07-15T22:36:16.699Z</time>
      </trkpt>
      <trkpt lat="68.5754" lon="14.73955">
        <ele>12.358033</ele>
        <time>2020-07-15T22:36:20.687Z</time>
      </trkpt>
      <trkpt lat="68.57541" lon="14.74048">
        <ele>12.615746</ele>
        <time>2020-07-15T22:36:27.223Z</time>
      </trkpt>
      <trkpt lat="68.57542" lon="14.74223">
        <ele>13.100073</ele>
        <time>2020-07-15T22:36:40.545Z</time>
      </trkpt>
      <trkpt lat="68.57542" lon="14.74257">
        <ele>13.19616</ele>
        <time>2020-07-15T22:36:43.447Z</time>
      </trkpt>
      <trkpt lat="68.57543" lon="14.74472">
        <ele>15.115779</ele>
        <time>2020-07-15T22:37:03.173Z</time>
      </trkpt>
      <trkpt lat="68.57543" lon="14.74628">
        <ele>16.670583</ele>
        <time>2020-07-15T22:37:19.737Z</time>
      </trkpt>
      <trkpt lat="68.57543" lon="14.74637">
        <ele>16.764691</ele>
        <time>2020-07-15T22:37:20.824Z</time>
      </trkpt>
      <trkpt lat="68.57544" lon="14.7482">
        <ele>18.270054</ele>
        <time>2020-07-15T22:37:40.084Z</time>
      </trkpt>
      <trkpt lat="68.57545" lon="14.74914">
        <ele>18.406915</ele>
        <time>2020-07-15T22:37:48.045Z</time>
      </trkpt>
      <trkpt lat="68.57547" lon="14.74983">
        <ele>18.508105</ele>
        <time>2020-07-15T22:37:53.571Z</time>
      </trkpt>
      <trkpt lat="68.57551" lon="14.75054">
        <ele>18.612583</ele>
        <time>2020-07-15T22:37:58.167Z</time>
      </trkpt>
      <trkpt lat="68.57552" lon="14.75076">
        <ele>18.646119</ele>
        <time>2020-07-15T22:38:00.060Z</time>
      </trkpt>
      <trkpt lat="68.57563" lon="14.75212">
        <ele>18.847252</ele>
        <time>2020-07-15T22:38:08.052Z</time>
      </trkpt>
      <trkpt lat="68.57564" lon="14.75221">
        <ele>18.861235</ele>
        <time>2020-07-15T22:38:08.466Z</time>
      </trkpt>
      <trkpt lat="68.57567" lon="14.75246">
        <ele>18.900506</ele>
        <time>2020-07-15T22:38:10.011Z</time>
      </trkpt>
      <trkpt lat="68.57574" lon="14.75292">
        <ele>18.745291</ele>
        <time>2020-07-15T22:38:12.730Z</time>
      </trkpt>
      <trkpt lat="68.57579" lon="14.75319">
        <ele>18.543572</ele>
        <time>2020-07-15T22:38:14.150Z</time>
      </trkpt>
      <trkpt lat="68.57594" lon="14.75404">
        <ele>17.911611</ele>
        <time>2020-07-15T22:38:18.869Z</time>
      </trkpt>
      <trkpt lat="68.57604" lon="14.75462">
        <ele>17.482334</ele>
        <time>2020-07-15T22:38:22.123Z</time>
      </trkpt>
      <trkpt lat="68.57613" lon="14.75545">
        <ele>16.903144</ele>
        <time>2020-07-15T22:38:26.296Z</time>
      </trkpt>
      <trkpt lat="68.57613" lon="14.75578">
        <ele>16.681057</ele>
        <time>2020-07-15T22:38:27.908Z</time>
      </trkpt>
      <trkpt lat="68.57613" lon="14.75611">
        <ele>16.462013</ele>
        <time>2020-07-15T22:38:29.476Z</time>
      </trkpt>
      <trkpt lat="68.57612" lon="14.7567">
        <ele>16.063619</ele>
        <time>2020-07-15T22:38:32.717Z</time>
      </trkpt>
      <trkpt lat="68.57612" lon="14.75688">
        <ele>15.942157</ele>
        <time>2020-07-15T22:38:33.668Z</time>
      </trkpt>
      <trkpt lat="68.5761" lon="14.75807">
        <ele>15.951706</ele>
        <time>2020-07-15T22:38:40.988Z</time>
      </trkpt>
      <trkpt lat="68.57607" lon="14.76114">
        <ele>17.300401</ele>
        <time>2020-07-15T22:39:06.436Z</time>
      </trkpt>
      <trkpt lat="68.57604" lon="14.76281">
        <ele>17.999931</ele>
        <time>2020-07-15T22:39:22.609Z</time>
      </trkpt>
      <trkpt lat="68.576" lon="14.76557">
        <ele>19.028208</ele>
        <time>2020-07-15T22:39:45.551Z</time>
      </trkpt>
      <trkpt lat="68.57597" lon="14.76688">
        <ele>19.515096</ele>
        <time>2020-07-15T22:39:54.460Z</time>
      </trkpt>
      <trkpt lat="68.57597" lon="14.76731">
        <ele>19.54048</ele>
        <time>2020-07-15T22:39:56.927Z</time>
      </trkpt>
      <trkpt lat="68.57596" lon="14.76756">
        <ele>19.366279</ele>
        <time>2020-07-15T22:39:58.283Z</time>
      </trkpt>
      <trkpt lat="68.57594" lon="14.76792">
        <ele>19.111039</ele>
        <time>2020-07-15T22:40:00.428Z</time>
      </trkpt>
      <trkpt lat="68.57584" lon="14.76919">
        <ele>18.216322</ele>
        <time>2020-07-15T22:40:07.404Z</time>
      </trkpt>
      <trkpt lat="68.57577" lon="14.77002">
        <ele>17.627499</ele>
        <time>2020-07-15T22:40:11.776Z</time>
      </trkpt>
      <trkpt lat="68.57559" lon="14.77189">
        <ele>16.286183</ele>
        <time>2020-07-15T22:40:21.267Z</time>
      </trkpt>
      <trkpt lat="68.57549" lon="14.77352">
        <ele>14.516449</ele>
        <time>2020-07-15T22:40:29.290Z</time>
      </trkpt>
      <trkpt lat="68.57548" lon="14.77417">
        <ele>13.806312</ele>
        <time>2020-07-15T22:40:32.399Z</time>
      </trkpt>
      <trkpt lat="68.57543" lon="14.77873">
        <ele>9.583439</ele>
        <time>2020-07-15T22:40:54.438Z</time>
      </trkpt>
      <trkpt lat="68.57542" lon="14.78013">
        <ele>8.633634</ele>
        <time>2020-07-15T22:41:01.596Z</time>
      </trkpt>
      <trkpt lat="68.5754" lon="14.78309">
        <ele>8.154472</ele>
        <time>2020-07-15T22:41:19.296Z</time>
      </trkpt>
      <trkpt lat="68.57537" lon="14.78488">
        <ele>9.077532</ele>
        <time>2020-07-15T22:41:34.036Z</time>
      </trkpt>
      <trkpt lat="68.57526" lon="14.78701">
        <ele>10.374975</ele>
        <time>2020-07-15T22:41:54.509Z</time>
      </trkpt>
      <trkpt lat="68.57509" lon="14.7899">
        <ele>13.793174</ele>
        <time>2020-07-15T22:42:26.843Z</time>
      </trkpt>
      <trkpt lat="68.57498" lon="14.79078">
        <ele>14.887058</ele>
        <time>2020-07-15T22:42:36.730Z</time>
      </trkpt>
      <trkpt lat="68.5748" lon="14.79163">
        <ele>15.778598</ele>
        <time>2020-07-15T22:42:45.977Z</time>
      </trkpt>
      <trkpt lat="68.57474" lon="14.79193">
        <ele>15.785012</ele>
        <time>2020-07-15T22:42:49.404Z</time>
      </trkpt>
      <trkpt lat="68.57455" lon="14.79311">
        <ele>15.808964</ele>
        <time>2020-07-15T22:42:59.391Z</time>
      </trkpt>
      <trkpt lat="68.57441" lon="14.79446">
        <ele>15.834838</ele>
        <time>2020-07-15T22:43:08.959Z</time>
      </trkpt>
      <trkpt lat="68.57439" lon="14.79477">
        <ele>15.840696</ele>
        <time>2020-07-15T22:43:11.093Z</time>
      </trkpt>
      <trkpt lat="68.57438" lon="14.79494">
        <ele>15.843906</ele>
        <time>2020-07-15T22:43:11.910Z</time>
      </trkpt>
      <trkpt lat="68.57441" lon="14.79662">
        <ele>15.309587</ele>
        <time>2020-07-15T22:43:20.533Z</time>
      </trkpt>
      <trkpt lat="68.57449" lon="14.79828">
        <ele>13.452936</ele>
        <time>2020-07-15T22:43:28.369Z</time>
      </trkpt>
      <trkpt lat="68.57471" lon="14.80149">
        <ele>10.106345</ele>
        <time>2020-07-15T22:43:43.936Z</time>
      </trkpt>
      <trkpt lat="68.57477" lon="14.80228">
        <ele>9.638295</ele>
        <time>2020-07-15T22:43:47.978Z</time>
      </trkpt>
      <trkpt lat="68.57489" lon="14.80409">
        <ele>8.553127</ele>
        <time>2020-07-15T22:43:57.851Z</time>
      </trkpt>
      <trkpt lat="68.57495" lon="14.80495">
        <ele>8.046713</ele>
        <time>2020-07-15T22:44:02.882Z</time>
      </trkpt>
      <trkpt lat="68.57495" lon="14.80504">
        <ele>7.993008</ele>
        <time>2020-07-15T22:44:03.448Z</time>
      </trkpt>
      <trkpt lat="68.575" lon="14.8061">
        <ele>7.426838</ele>
        <time>2020-07-15T22:44:10.086Z</time>
      </trkpt>
      <trkpt lat="68.57511" lon="14.80851">
        <ele>6.5763</ele>
        <time>2020-07-15T22:44:24.428Z</time>
      </trkpt>
      <trkpt lat="68.57516" lon="14.80928">
        <ele>6.302233</ele>
        <time>2020-07-15T22:44:28.858Z</time>
      </trkpt>
      <trkpt lat="68.5754" lon="14.81225">
        <ele>4.973489</ele>
        <time>2020-07-15T22:44:45.152Z</time>
      </trkpt>
      <trkpt lat="68.57545" lon="14.81296">
        <ele>4.605561</ele>
        <time>2020-07-15T22:44:49.303Z</time>
      </trkpt>
      <trkpt lat="68.57545" lon="14.81383">
        <ele>4.159181</ele>
        <time>2020-07-15T22:44:53.956Z</time>
      </trkpt>
      <trkpt lat="68.57542" lon="14.81421">
        <ele>3.959432</ele>
        <time>2020-07-15T22:44:55.856Z</time>
      </trkpt>
      <trkpt lat="68.5754" lon="14.81438">
        <ele>3.865362</ele>
        <time>2020-07-15T22:44:57.108Z</time>
      </trkpt>
      <trkpt lat="68.57519" lon="14.81574">
        <ele>3.150856</ele>
        <time>2020-07-15T22:45:05.114Z</time>
      </trkpt>
      <trkpt lat="68.57507" lon="14.81661">
        <ele>2.792912</ele>
        <time>2020-07-15T22:45:10.369Z</time>
      </trkpt>
      <trkpt lat="68.57496" lon="14.81749">
        <ele>2.43638</ele>
        <time>2020-07-15T22:45:15.496Z</time>
      </trkpt>
      <trkpt lat="68.57469" lon="14.81949">
        <ele>1.615119</ele>
        <time>2020-07-15T22:45:27.810Z</time>
      </trkpt>
      <trkpt lat="68.57442" lon="14.82082">
        <ele>1.179423</ele>
        <time>2020-07-15T22:45:36.477Z</time>
      </trkpt>
      <trkpt lat="68.5744" lon="14.82092">
        <ele>1.153185</ele>
        <time>2020-07-15T22:45:37.044Z</time>
      </trkpt>
      <trkpt lat="68.57437" lon="14.82103">
        <ele>1.123895</ele>
        <time>2020-07-15T22:45:37.798Z</time>
      </trkpt>
      <trkpt lat="68.57411" lon="14.82151">
        <ele>0.934032</ele>
        <time>2020-07-15T22:45:42.772Z</time>
      </trkpt>
      <trkpt lat="68.57369" lon="14.82189">
        <ele>0.665179</ele>
        <time>2020-07-15T22:45:50.016Z</time>
      </trkpt>
      <trkpt lat="68.57321" lon="14.82227">
        <ele>0.36757</ele>
        <time>2020-07-15T22:45:58.298Z</time>
      </trkpt>
      <trkpt lat="68.57158" lon="14.82344">
        <ele>0.386653</ele>
        <time>2020-07-15T22:46:28.873Z</time>
      </trkpt>
      <trkpt lat="68.57135" lon="14.82375">
        <ele>0.405808</ele>
        <time>2020-07-15T22:46:33.503Z</time>
      </trkpt>
      <trkpt lat="68.57033" lon="14.82569">
        <ele>0.755774</ele>
        <time>2020-07-15T22:46:56.519Z</time>
      </trkpt>
      <trkpt lat="68.57004" lon="14.82661">
        <ele>0.881328</ele>
        <time>2020-07-15T22:47:04.887Z</time>
      </trkpt>
      <trkpt lat="68.56952" lon="14.82983">
        <ele>1.469302</ele>
        <time>2020-07-15T22:47:30.199Z</time>
      </trkpt>
      <trkpt lat="68.5695" lon="14.83002">
        <ele>1.502611</ele>
        <time>2020-07-15T22:47:31.443Z</time>
      </trkpt>
      <trkpt lat="68.56946" lon="14.83043">
        <ele>1.575687</ele>
        <time>2020-07-15T22:47:34.635Z</time>
      </trkpt>
      <trkpt lat="68.56918" lon="14.83228">
        <ele>1.819322</ele>
        <time>2020-07-15T22:47:48.609Z</time>
      </trkpt>
      <trkpt lat="68.56895" lon="14.83317">
        <ele>1.893716</ele>
        <time>2020-07-15T22:47:56.210Z</time>
      </trkpt>
      <trkpt lat="68.56883" lon="14.83364">
        <ele>1.933305</ele>
        <time>2020-07-15T22:47:59.884Z</time>
      </trkpt>
      <trkpt lat="68.56867" lon="14.8343">
        <ele>1.988015</ele>
        <time>2020-07-15T22:48:05.306Z</time>
      </trkpt>
      <trkpt lat="68.56846" lon="14.83517">
        <ele>2.060357</ele>
        <time>2020-07-15T22:48:11.987Z</time>
      </trkpt>
      <trkpt lat="68.5683" lon="14.83601">
        <ele>2.140185</ele>
        <time>2020-07-15T22:48:18.058Z</time>
      </trkpt>
      <trkpt lat="68.56824" lon="14.83653">
        <ele>2.193611</ele>
        <time>2020-07-15T22:48:21.942Z</time>
      </trkpt>
      <trkpt lat="68.56816" lon="14.83714">
        <ele>2.257975</ele>
        <time>2020-07-15T22:48:25.949Z</time>
      </trkpt>
      <trkpt lat="68.56803" lon="14.83799">
        <ele>2.34894</ele>
        <time>2020-07-15T22:48:32.333Z</time>
      </trkpt>
      <trkpt lat="68.56785" lon="14.83907">
        <ele>2.465811</ele>
        <time>2020-07-15T22:48:40.842Z</time>
      </trkpt>
      <trkpt lat="68.56773" lon="14.83979">
        <ele>2.543352</ele>
        <time>2020-07-15T22:48:46.371Z</time>
      </trkpt>
      <trkpt lat="68.56769" lon="14.84006">
        <ele>2.572412</ele>
        <time>2020-07-15T22:48:48.754Z</time>
      </trkpt>
      <trkpt lat="68.56722" lon="14.84353">
        <ele>2.956929</ele>
        <time>2020-07-15T22:49:13.723Z</time>
      </trkpt>
      <trkpt lat="68.56716" lon="14.84413">
        <ele>3.022393</ele>
        <time>2020-07-15T22:49:18.691Z</time>
      </trkpt>
      <trkpt lat="68.56713" lon="14.84452">
        <ele>3.062631</ele>
        <time>2020-07-15T22:49:20.948Z</time>
      </trkpt>
      <trkpt lat="68.56711" lon="14.84582">
        <ele>3.298609</ele>
        <time>2020-07-15T22:49:29.975Z</time>
      </trkpt>
      <trkpt lat="68.56711" lon="14.84634">
        <ele>3.403532</ele>
        <time>2020-07-15T22:49:33.069Z</time>
      </trkpt>
      <trkpt lat="68.56715" lon="14.84786">
        <ele>3.707737</ele>
        <time>2020-07-15T22:49:43.390Z</time>
      </trkpt>
      <trkpt lat="68.5672" lon="14.84945">
        <ele>4.028026</ele>
        <time>2020-07-15T22:49:54.602Z</time>
      </trkpt>
      <trkpt lat="68.5672" lon="14.84985">
        <ele>4.230101</ele>
        <time>2020-07-15T22:49:58.082Z</time>
      </trkpt>
      <trkpt lat="68.56725" lon="14.85227">
        <ele>6.495227</ele>
        <time>2020-07-15T22:50:20.834Z</time>
      </trkpt>
      <trkpt lat="68.56726" lon="14.85281">
        <ele>7.003583</ele>
        <time>2020-07-15T22:50:25.954Z</time>
      </trkpt>
      <trkpt lat="68.56726" lon="14.85302">
        <ele>7.202069</ele>
        <time>2020-07-15T22:50:28.111Z</time>
      </trkpt>
      <trkpt lat="68.56725" lon="14.85378">
        <ele>7.9063</ele>
        <time>2020-07-15T22:50:35.605Z</time>
      </trkpt>
      <trkpt lat="68.56715" lon="14.85789">
        <ele>12.654916</ele>
        <time>2020-07-15T22:51:20.103Z</time>
      </trkpt>
      <trkpt lat="68.56721" lon="14.85908">
        <ele>14.112526</ele>
        <time>2020-07-15T22:51:32.150Z</time>
      </trkpt>
      <trkpt lat="68.56745" lon="14.8605">
        <ele>15.450579</ele>
        <time>2020-07-15T22:51:47.179Z</time>
      </trkpt>
      <trkpt lat="68.56747" lon="14.86058">
        <ele>15.515817</ele>
        <time>2020-07-15T22:51:48.269Z</time>
      </trkpt>
      <trkpt lat="68.56751" lon="14.86079">
        <ele>15.69511</ele>
        <time>2020-07-15T22:51:50.372Z</time>
      </trkpt>
      <trkpt lat="68.56755" lon="14.86099">
        <ele>15.86515</ele>
        <time>2020-07-15T22:51:52.298Z</time>
      </trkpt>
      <trkpt lat="68.56763" lon="14.86138">
        <ele>16.193517</ele>
        <time>2020-07-15T22:51:56.558Z</time>
      </trkpt>
      <trkpt lat="68.56772" lon="14.86195">
        <ele>16.644917</ele>
        <time>2020-07-15T22:52:01.739Z</time>
      </trkpt>
      <trkpt lat="68.56774" lon="14.86215">
        <ele>16.798808</ele>
        <time>2020-07-15T22:52:03.714Z</time>
      </trkpt>
      <trkpt lat="68.56777" lon="14.86255">
        <ele>17.098138</ele>
        <time>2020-07-15T22:52:07.337Z</time>
      </trkpt>
      <trkpt lat="68.56779" lon="14.86282">
        <ele>17.299291</ele>
        <time>2020-07-15T22:52:09.416Z</time>
      </trkpt>
      <trkpt lat="68.5678" lon="14.8632">
        <ele>17.578629</ele>
        <time>2020-07-15T22:52:12.759Z</time>
      </trkpt>
      <trkpt lat="68.56784" lon="14.86403">
        <ele>18.188664</ele>
        <time>2020-07-15T22:52:19.582Z</time>
      </trkpt>
      <trkpt lat="68.56786" lon="14.86421">
        <ele>18.269047</ele>
        <time>2020-07-15T22:52:21.194Z</time>
      </trkpt>
      <trkpt lat="68.56787" lon="14.86443">
        <ele>18.340632</ele>
        <time>2020-07-15T22:52:23.143Z</time>
      </trkpt>
      <trkpt lat="68.56789" lon="14.86457">
        <ele>18.387127</ele>
        <time>2020-07-15T22:52:24.198Z</time>
      </trkpt>
      <trkpt lat="68.56795" lon="14.86504">
        <ele>18.547295</ele>
        <time>2020-07-15T22:52:28.176Z</time>
      </trkpt>
      <trkpt lat="68.56822" lon="14.86661">
        <ele>19.103765</ele>
        <time>2020-07-15T22:52:40.793Z</time>
      </trkpt>
      <trkpt lat="68.56816" lon="14.86668">
        <ele>19.152811</ele>
        <time>2020-07-15T22:52:41.996Z</time>
      </trkpt>
      <trkpt lat="68.56793" lon="14.86702">
        <ele>19.385792</ele>
        <time>2020-07-15T22:52:47.296Z</time>
      </trkpt>
      <trkpt lat="68.56786" lon="14.86749">
        <ele>19.549502</ele>
        <time>2020-07-15T22:52:51.093Z</time>
      </trkpt>
      <trkpt lat="68.56813" lon="14.86959">
        <ele>20.607587</ele>
        <time>2020-07-15T22:53:08.454Z</time>
      </trkpt>
      <trkpt lat="68.56819" lon="14.87016">
        <ele>20.940853</ele>
        <time>2020-07-15T22:53:13.385Z</time>
      </trkpt>
      <trkpt lat="68.56823" lon="14.87057">
        <ele>21.179942</ele>
        <time>2020-07-15T22:53:16.899Z</time>
      </trkpt>
      <trkpt lat="68.56818" lon="14.87133">
        <ele>21.610399</ele>
        <time>2020-07-15T22:53:23.426Z</time>
      </trkpt>
      <trkpt lat="68.56785" lon="14.87347">
        <ele>22.663736</ele>
        <time>2020-07-15T22:53:46.135Z</time>
      </trkpt>
      <trkpt lat="68.56772" lon="14.87546">
        <ele>22.992145</ele>
        <time>2020-07-15T22:54:02.949Z</time>
      </trkpt>
      <trkpt lat="68.5677" lon="14.87577">
        <ele>23.043218</ele>
        <time>2020-07-15T22:54:06.085Z</time>
      </trkpt>
      <trkpt lat="68.56795" lon="14.87619">
        <ele>23.173986</ele>
        <time>2020-07-15T22:54:10.793Z</time>
      </trkpt>
      <trkpt lat="68.56806" lon="14.87639">
        <ele>23.232314</ele>
        <time>2020-07-15T22:54:13.301Z</time>
      </trkpt>
      <trkpt lat="68.56805" lon="14.87671">
        <ele>23.283829</ele>
        <time>2020-07-15T22:54:14.871Z</time>
      </trkpt>
      <trkpt lat="68.56806" lon="14.87697">
        <ele>23.326565</ele>
        <time>2020-07-15T22:54:16.365Z</time>
      </trkpt>
      <trkpt lat="68.56806" lon="14.87726">
        <ele>23.265404</ele>
        <time>2020-07-15T22:54:18.384Z</time>
      </trkpt>
      <trkpt lat="68.56808" lon="14.87779">
        <ele>22.482982</ele>
        <time>2020-07-15T22:54:20.935Z</time>
      </trkpt>
      <trkpt lat="68.56812" lon="14.87877">
        <ele>21.037295</ele>
        <time>2020-07-15T22:54:25.673Z</time>
      </trkpt>
      <trkpt lat="68.56814" lon="14.87921">
        <ele>20.394263</ele>
        <time>2020-07-15T22:54:28.155Z</time>
      </trkpt>
      <trkpt lat="68.56816" lon="14.8797">
        <ele>19.66437</ele>
        <time>2020-07-15T22:54:30.317Z</time>
      </trkpt>
      <trkpt lat="68.56816" lon="14.8804">
        <ele>18.653978</ele>
        <time>2020-07-15T22:54:33.429Z</time>
      </trkpt>
      <trkpt lat="68.56814" lon="14.88094">
        <ele>17.849089</ele>
        <time>2020-07-15T22:54:35.801Z</time>
      </trkpt>
      <trkpt lat="68.56812" lon="14.88114">
        <ele>17.562</ele>
        <time>2020-07-15T22:54:36.685Z</time>
      </trkpt>
      <trkpt lat="68.56807" lon="14.88172">
        <ele>16.682598</ele>
        <time>2020-07-15T22:54:39.213Z</time>
      </trkpt>
      <trkpt lat="68.56803" lon="14.88215">
        <ele>16.037917</ele>
        <time>2020-07-15T22:54:41.178Z</time>
      </trkpt>
      <trkpt lat="68.56802" lon="14.88238">
        <ele>15.688719</ele>
        <time>2020-07-15T22:54:42.240Z</time>
      </trkpt>
      <trkpt lat="68.56797" lon="14.88238">
        <ele>15.519557</ele>
        <time>2020-07-15T22:54:42.802Z</time>
      </trkpt>
      <trkpt lat="68.56796" lon="14.88253">
        <ele>15.290125</ele>
        <time>2020-07-15T22:54:43.457Z</time>
      </trkpt>
      <trkpt lat="68.56775" lon="14.88565">
        <ele>10.632568</ele>
        <time>2020-07-15T22:54:58.483Z</time>
      </trkpt>
      <trkpt lat="68.56776" lon="14.88682">
        <ele>8.938707</ele>
        <time>2020-07-15T22:55:04.386Z</time>
      </trkpt>
      <trkpt lat="68.56778" lon="14.88707">
        <ele>9.049202</ele>
        <time>2020-07-15T22:55:05.598Z</time>
      </trkpt>
      <trkpt lat="68.56781" lon="14.88756">
        <ele>9.265815</ele>
        <time>2020-07-15T22:55:08.694Z</time>
      </trkpt>
      <trkpt lat="68.56819" lon="14.89068">
        <ele>10.715902</ele>
        <time>2020-07-15T22:55:36.401Z</time>
      </trkpt>
      <trkpt lat="68.5682" lon="14.8908">
        <ele>10.772531</ele>
        <time>2020-07-15T22:55:37.465Z</time>
      </trkpt>
      <trkpt lat="68.56811" lon="14.89086">
        <ele>10.883957</ele>
        <time>2020-07-15T22:55:41.363Z</time>
      </trkpt>
      <trkpt lat="68.56794" lon="14.89099">
        <ele>11.114619</ele>
        <time>2020-07-15T22:55:46.586Z</time>
      </trkpt>
      <trkpt lat="68.56786" lon="14.89108">
        <ele>11.576097</ele>
        <time>2020-07-15T22:55:49.317Z</time>
      </trkpt>
      <trkpt lat="68.56778" lon="14.89121">
        <ele>12.11395</ele>
        <time>2020-07-15T22:55:53.495Z</time>
      </trkpt>
      <trkpt lat="68.56765" lon="14.89159">
        <ele>13.147604</ele>
        <time>2020-07-15T22:55:59.174Z</time>
      </trkpt>
      <trkpt lat="68.56761" lon="14.89195">
        <ele>13.893197</ele>
        <time>2020-07-15T22:56:04.229Z</time>
      </trkpt>
      <trkpt lat="68.56762" lon="14.89258">
        <ele>15.156799</ele>
        <time>2020-07-15T22:56:11.654Z</time>
      </trkpt>
      <trkpt lat="68.56769" lon="14.89311">
        <ele>16.280904</ele>
        <time>2020-07-15T22:56:19.700Z</time>
      </trkpt>
      <trkpt lat="68.56775" lon="14.89347">
        <ele>17.085609</ele>
        <time>2020-07-15T22:56:25.177Z</time>
      </trkpt>
      <trkpt lat="68.56781" lon="14.89381">
        <ele>17.85824</ele>
        <time>2020-07-15T22:56:31.198Z</time>
      </trkpt>
      <trkpt lat="68.56805" lon="14.89563">
        <ele>21.767141</ele>
        <time>2020-07-15T22:56:58.896Z</time>
      </trkpt>
      <trkpt lat="68.56804" lon="14.89656">
        <ele>23.70167</ele>
        <time>2020-07-15T22:57:11.012Z</time>
      </trkpt>
      <trkpt lat="68.56803" lon="14.8966">
        <ele>23.797333</ele>
        <time>2020-07-15T22:57:11.878Z</time>
      </trkpt>
      <trkpt lat="68.56798" lon="14.89684">
        <ele>24.369562</ele>
        <time>2020-07-15T22:57:15.662Z</time>
      </trkpt>
      <trkpt lat="68.5679" lon="14.89719">
        <ele>25.218023</ele>
        <time>2020-07-15T22:57:22.006Z</time>
      </trkpt>
      <trkpt lat="68.56783" lon="14.8974">
        <ele>25.805169</ele>
        <time>2020-07-15T22:57:25.073Z</time>
      </trkpt>
      <trkpt lat="68.56777" lon="14.89757">
        <ele>26.316761</ele>
        <time>2020-07-15T22:57:28.711Z</time>
      </trkpt>
      <trkpt lat="68.56772" lon="14.89741">
        <ele>26.756557</ele>
        <time>2020-07-15T22:57:32.308Z</time>
      </trkpt>
      <trkpt lat="68.56745" lon="14.89694">
        <ele>28.552839</ele>
        <time>2020-07-15T22:57:43.169Z</time>
      </trkpt>
      <trkpt lat="68.56724" lon="14.89668">
        <ele>29.849054</ele>
        <time>2020-07-15T22:57:50.907Z</time>
      </trkpt>
      <trkpt lat="68.56684" lon="14.89617">
        <ele>31.332265</ele>
        <time>2020-07-15T22:58:07.553Z</time>
      </trkpt>
      <trkpt lat="68.56678" lon="14.89611">
        <ele>31.373867</ele>
        <time>2020-07-15T22:58:10.399Z</time>
      </trkpt>
      <trkpt lat="68.56668" lon="14.89623">
        <ele>31.453025</ele>
        <time>2020-07-15T22:58:14.093Z</time>
      </trkpt>
      <trkpt lat="68.56657" lon="14.8964">
        <ele>31.539119</ele>
        <time>2020-07-15T22:58:16.414Z</time>
      </trkpt>
      <trkpt lat="68.56651" lon="14.89653">
        <ele>31.596655</ele>
        <time>2020-07-15T22:58:18.762Z</time>
      </trkpt>
      <trkpt lat="68.56651" lon="14.8967">
        <ele>31.640958</ele>
        <time>2020-07-15T22:58:21.131Z</time>
      </trkpt>
      <trkpt lat="68.56645" lon="14.89757">
        <ele>31.869562</ele>
        <time>2020-07-15T22:58:27.698Z</time>
      </trkpt>
      <trkpt lat="68.56629" lon="14.89857">
        <ele>32.149892</ele>
        <time>2020-07-15T22:58:34.199Z</time>
      </trkpt>
      <trkpt lat="68.56623" lon="14.89896">
        <ele>32.258796</ele>
        <time>2020-07-15T22:58:36.508Z</time>
      </trkpt>
      <trkpt lat="68.56618" lon="14.89955">
        <ele>32.418073</ele>
        <time>2020-07-15T22:58:39.615Z</time>
      </trkpt>
      <trkpt lat="68.56615" lon="14.89987">
        <ele>32.054712</ele>
        <time>2020-07-15T22:58:41.353Z</time>
      </trkpt>
      <trkpt lat="68.56613" lon="14.90048">
        <ele>30.591278</ele>
        <time>2020-07-15T22:58:44.297Z</time>
      </trkpt>
      <trkpt lat="68.56593" lon="14.90198">
        <ele>26.758438</ele>
        <time>2020-07-15T22:58:51.586Z</time>
      </trkpt>
      <trkpt lat="68.56591" lon="14.90214">
        <ele>26.353606</ele>
        <time>2020-07-15T22:58:52.274Z</time>
      </trkpt>
      <trkpt lat="68.56585" lon="14.90249">
        <ele>25.442676</ele>
        <time>2020-07-15T22:58:53.948Z</time>
      </trkpt>
      <trkpt lat="68.5656" lon="14.90412">
        <ele>21.197777</ele>
        <time>2020-07-15T22:59:01.498Z</time>
      </trkpt>
      <trkpt lat="68.56553" lon="14.90461">
        <ele>19.863521</ele>
        <time>2020-07-15T22:59:03.862Z</time>
      </trkpt>
      <trkpt lat="68.5655" lon="14.90477">
        <ele>19.407259</ele>
        <time>2020-07-15T22:59:04.625Z</time>
      </trkpt>
      <trkpt lat="68.56546" lon="14.90508">
        <ele>18.557909</ele>
        <time>2020-07-15T22:59:05.990Z</time>
      </trkpt>
      <trkpt lat="68.5653" lon="14.90615">
        <ele>15.518632</ele>
        <time>2020-07-15T22:59:10.983Z</time>
      </trkpt>
      <trkpt lat="68.56526" lon="14.90637">
        <ele>14.894149</ele>
        <time>2020-07-15T22:59:12.054Z</time>
      </trkpt>
      <trkpt lat="68.56513" lon="14.90726">
        <ele>12.403159</ele>
        <time>2020-07-15T22:59:16.279Z</time>
      </trkpt>
      <trkpt lat="68.56493" lon="14.9086">
        <ele>8.631544</ele>
        <time>2020-07-15T22:59:22.740Z</time>
      </trkpt>
      <trkpt lat="68.56491" lon="14.90877">
        <ele>8.142053</ele>
        <time>2020-07-15T22:59:23.542Z</time>
      </trkpt>
      <trkpt lat="68.56486" lon="14.90913">
        <ele>7.500416</ele>
        <time>2020-07-15T22:59:25.279Z</time>
      </trkpt>
      <trkpt lat="68.56484" lon="14.90925">
        <ele>7.32213</ele>
        <time>2020-07-15T22:59:25.926Z</time>
      </trkpt>
      <trkpt lat="68.56479" lon="14.90951">
        <ele>6.92892</ele>
        <time>2020-07-15T22:59:27.323Z</time>
      </trkpt>
      <trkpt lat="68.56465" lon="14.91043">
        <ele>5.58803</ele>
        <time>2020-07-15T22:59:31.984Z</time>
      </trkpt>
      <trkpt lat="68.5646" lon="14.91082">
        <ele>5.042186</ele>
        <time>2020-07-15T22:59:33.870Z</time>
      </trkpt>
      <trkpt lat="68.56456" lon="14.9112">
        <ele>4.498391</ele>
        <time>2020-07-15T22:59:35.976Z</time>
      </trkpt>
      <trkpt lat="68.56448" lon="14.91184">
        <ele>3.586675</ele>
        <time>2020-07-15T22:59:39.323Z</time>
      </trkpt>
      <trkpt lat="68.56445" lon="14.91204">
        <ele>3.301343</ele>
        <time>2020-07-15T22:59:40.454Z</time>
      </trkpt>
      <trkpt lat="68.56444" lon="14.91217">
        <ele>3.127327</ele>
        <time>2020-07-15T22:59:41.121Z</time>
      </trkpt>
      <trkpt lat="68.56442" lon="14.91229">
        <ele>2.947814</ele>
        <time>2020-07-15T22:59:41.788Z</time>
      </trkpt>
      <trkpt lat="68.56471" lon="14.91279">
        <ele>1.67404</ele>
        <time>2020-07-15T22:59:46.384Z</time>
      </trkpt>
      <trkpt lat="68.56496" lon="14.91326">
        <ele>1.232854</ele>
        <time>2020-07-15T22:59:51.030Z</time>
      </trkpt>
      <trkpt lat="68.56529" lon="14.91392">
        <ele>1.203765</ele>
        <time>2020-07-15T22:59:57.583Z</time>
      </trkpt>
      <trkpt lat="68.56539" lon="14.91412">
        <ele>1.195334</ele>
        <time>2020-07-15T22:59:59.809Z</time>
      </trkpt>
      <trkpt lat="68.56544" lon="14.91424">
        <ele>1.190675</ele>
        <time>2020-07-15T23:00:00.957Z</time>
      </trkpt>
      <trkpt lat="68.56575" lon="14.91513">
        <ele>1.158443</ele>
        <time>2020-07-15T23:00:09.753Z</time>
      </trkpt>
      <trkpt lat="68.56582" lon="14.91531">
        <ele>1.151581</ele>
        <time>2020-07-15T23:00:11.598Z</time>
      </trkpt>
      <trkpt lat="68.56587" lon="14.91543">
        <ele>1.14717</ele>
        <time>2020-07-15T23:00:12.813Z</time>
      </trkpt>
      <trkpt lat="68.5659" lon="14.91551">
        <ele>1.14409</ele>
        <time>2020-07-15T23:00:13.774Z</time>
      </trkpt>
      <trkpt lat="68.56641" lon="14.91676">
        <ele>1.729834</ele>
        <time>2020-07-15T23:00:27.587Z</time>
      </trkpt>
      <trkpt lat="68.56811" lon="14.92095">
        <ele>6.420999</ele>
        <time>2020-07-15T23:01:24.908Z</time>
      </trkpt>
      <trkpt lat="68.56816" lon="14.92106">
        <ele>6.564036</ele>
        <time>2020-07-15T23:01:26.701Z</time>
      </trkpt>
      <trkpt lat="68.56819" lon="14.92112">
        <ele>6.657958</ele>
        <time>2020-07-15T23:01:27.748Z</time>
      </trkpt>
      <trkpt lat="68.56834" lon="14.92146">
        <ele>7.10995</ele>
        <time>2020-07-15T23:01:33.000Z</time>
      </trkpt>
      <trkpt lat="68.56831" lon="14.92157">
        <ele>7.231658</ele>
        <time>2020-07-15T23:01:34.261Z</time>
      </trkpt>
      <trkpt lat="68.56823" lon="14.92174">
        <ele>7.463257</ele>
        <time>2020-07-15T23:01:36.930Z</time>
      </trkpt>
      <trkpt lat="68.56816" lon="14.92187">
        <ele>7.658911</ele>
        <time>2020-07-15T23:01:39.242Z</time>
      </trkpt>
      <trkpt lat="68.56812" lon="14.92198">
        <ele>7.792726</ele>
        <time>2020-07-15T23:01:40.944Z</time>
      </trkpt>
      <trkpt lat="68.56793" lon="14.92263">
        <ele>8.511612</ele>
        <time>2020-07-15T23:01:48.604Z</time>
      </trkpt>
      <trkpt lat="68.56781" lon="14.92329">
        <ele>9.023988</ele>
        <time>2020-07-15T23:01:55.268Z</time>
      </trkpt>
      <trkpt lat="68.56775" lon="14.9237">
        <ele>9.280332</ele>
        <time>2020-07-15T23:01:59.435Z</time>
      </trkpt>
      <trkpt lat="68.56758" lon="14.92496">
        <ele>10.067066</ele>
        <time>2020-07-15T23:02:11.080Z</time>
      </trkpt>
      <trkpt lat="68.56731" lon="14.92735">
        <ele>11.528912</ele>
        <time>2020-07-15T23:02:32.668Z</time>
      </trkpt>
      <trkpt lat="68.5673" lon="14.92761">
        <ele>11.685067</ele>
        <time>2020-07-15T23:02:34.322Z</time>
      </trkpt>
      <trkpt lat="68.56727" lon="14.92853">
        <ele>12.25162</ele>
        <time>2020-07-15T23:02:41.269Z</time>
      </trkpt>
      <trkpt lat="68.56726" lon="14.92979">
        <ele>13.029938</ele>
        <time>2020-07-15T23:02:52.070Z</time>
      </trkpt>
      <trkpt lat="68.56726" lon="14.93013">
        <ele>13.238713</ele>
        <time>2020-07-15T23:02:55.228Z</time>
      </trkpt>
      <trkpt lat="68.56721" lon="14.93229">
        <ele>14.578304</ele>
        <time>2020-07-15T23:03:16.077Z</time>
      </trkpt>
      <trkpt lat="68.56712" lon="14.93527">
        <ele>15.276896</ele>
        <time>2020-07-15T23:03:41.120Z</time>
      </trkpt>
      <trkpt lat="68.56715" lon="14.93613">
        <ele>15.462374</ele>
        <time>2020-07-15T23:03:46.904Z</time>
      </trkpt>
      <trkpt lat="68.56712" lon="14.93637">
        <ele>15.516021</ele>
        <time>2020-07-15T23:03:48.767Z</time>
      </trkpt>
      <trkpt lat="68.56709" lon="14.93671">
        <ele>15.591317</ele>
        <time>2020-07-15T23:03:50.783Z</time>
      </trkpt>
      <trkpt lat="68.56691" lon="14.94023">
        <ele>14.335367</ele>
        <time>2020-07-15T23:04:11.395Z</time>
      </trkpt>
      <trkpt lat="68.56686" lon="14.94512">
        <ele>12.177448</ele>
        <time>2020-07-15T23:04:38.943Z</time>
      </trkpt>
      <trkpt lat="68.56685" lon="14.94673">
        <ele>11.499038</ele>
        <time>2020-07-15T23:04:48.797Z</time>
      </trkpt>
      <trkpt lat="68.56687" lon="14.94823">
        <ele>11.031769</ele>
        <time>2020-07-15T23:04:58.287Z</time>
      </trkpt>
      <trkpt lat="68.56693" lon="14.95292">
        <ele>9.478523</ele>
        <time>2020-07-15T23:05:26.904Z</time>
      </trkpt>
      <trkpt lat="68.56687" lon="14.95294">
        <ele>9.385821</ele>
        <time>2020-07-15T23:05:27.805Z</time>
      </trkpt>
      <trkpt lat="68.5669" lon="14.95378">
        <ele>8.89894</ele>
        <time>2020-07-15T23:05:32.689Z</time>
      </trkpt>
      <trkpt lat="68.56704" lon="14.95537">
        <ele>7.959869</ele>
        <time>2020-07-15T23:05:41.920Z</time>
      </trkpt>
      <trkpt lat="68.56723" lon="14.95631">
        <ele>7.350822</ele>
        <time>2020-07-15T23:05:47.614Z</time>
      </trkpt>
      <trkpt lat="68.5675" lon="14.95722">
        <ele>6.433098</ele>
        <time>2020-07-15T23:05:53.736Z</time>
      </trkpt>
      <trkpt lat="68.5681" lon="14.95865">
        <ele>4.576942</ele>
        <time>2020-07-15T23:06:05.282Z</time>
      </trkpt>
      <trkpt lat="68.56816" lon="14.95883">
        <ele>4.384649</ele>
        <time>2020-07-15T23:06:06.386Z</time>
      </trkpt>
      <trkpt lat="68.56821" lon="14.959">
        <ele>4.198433</ele>
        <time>2020-07-15T23:06:07.548Z</time>
      </trkpt>
      <trkpt lat="68.56829" lon="14.95934">
        <ele>3.846216</ele>
        <time>2020-07-15T23:06:09.824Z</time>
      </trkpt>
      <trkpt lat="68.56834" lon="14.95976">
        <ele>3.46791</ele>
        <time>2020-07-15T23:06:12.114Z</time>
      </trkpt>
      <trkpt lat="68.5685" lon="14.96142">
        <ele>2.427399</ele>
        <time>2020-07-15T23:06:21.449Z</time>
      </trkpt>
      <trkpt lat="68.56862" lon="14.96189">
        <ele>2.148863</ele>
        <time>2020-07-15T23:06:24.549Z</time>
      </trkpt>
      <trkpt lat="68.56887" lon="14.96248">
        <ele>1.715826</ele>
        <time>2020-07-15T23:06:29.464Z</time>
      </trkpt>
      <trkpt lat="68.56892" lon="14.96253">
        <ele>1.639621</ele>
        <time>2020-07-15T23:06:30.319Z</time>
      </trkpt>
      <trkpt lat="68.56904" lon="14.96265">
        <ele>1.471898</ele>
        <time>2020-07-15T23:06:32.348Z</time>
      </trkpt>
      <trkpt lat="68.56914" lon="14.96273">
        <ele>1.335226</ele>
        <time>2020-07-15T23:06:33.966Z</time>
      </trkpt>
      <trkpt lat="68.56906" lon="14.96353">
        <ele>0.936455</ele>
        <time>2020-07-15T23:06:38.869Z</time>
      </trkpt>
      <trkpt lat="68.56903" lon="14.96426">
        <ele>0.583242</ele>
        <time>2020-07-15T23:06:43.350Z</time>
      </trkpt>
      <trkpt lat="68.56901" lon="14.96472">
        <ele>0.556445</ele>
        <time>2020-07-15T23:06:46.284Z</time>
      </trkpt>
      <trkpt lat="68.569" lon="14.96606">
        <ele>0.479105</ele>
        <time>2020-07-15T23:06:54.570Z</time>
      </trkpt>
      <trkpt lat="68.56903" lon="14.96736">
        <ele>0.403661</ele>
        <time>2020-07-15T23:07:03.104Z</time>
      </trkpt>
      <trkpt lat="68.56974" lon="14.98577">
        <ele>0.333719</ele>
        <time>2020-07-15T23:09:03.848Z</time>
      </trkpt>
      <trkpt lat="68.56975" lon="14.98597">
        <ele>0.337214</ele>
        <time>2020-07-15T23:09:05.232Z</time>
      </trkpt>
      <trkpt lat="68.56991" lon="14.98801">
        <ele>0.372912</ele>
        <time>2020-07-15T23:09:19.003Z</time>
      </trkpt>
      <trkpt lat="68.57007" lon="14.98921">
        <ele>0.378748</ele>
        <time>2020-07-15T23:09:27.385Z</time>
      </trkpt>
      <trkpt lat="68.5702" lon="14.98985">
        <ele>0.371252</ele>
        <time>2020-07-15T23:09:32.211Z</time>
      </trkpt>
      <trkpt lat="68.57068" lon="14.99155">
        <ele>0.349167</ele>
        <time>2020-07-15T23:09:46.179Z</time>
      </trkpt>
      <trkpt lat="68.5714" lon="14.99316">
        <ele>0.2796</ele>
        <time>2020-07-15T23:10:02.411Z</time>
      </trkpt>
      <trkpt lat="68.57239" lon="14.9948">
        <ele>0.121811</ele>
        <time>2020-07-15T23:10:22.583Z</time>
      </trkpt>
      <trkpt lat="68.5734" lon="14.99614">
        <ele>0.045223</ele>
        <time>2020-07-15T23:10:42.313Z</time>
      </trkpt>
      <trkpt lat="68.57438" lon="14.99711">
        <time>2020-07-15T23:11:00.886Z</time>
      </trkpt>
      <trkpt lat="68.57677" lon="14.99889">
        <ele>0.038104</ele>
        <time>2020-07-15T23:11:45.102Z</time>
      </trkpt>
      <trkpt lat="68.57684" lon="14.99894">
        <ele>0.041633</ele>
        <time>2020-07-15T23:11:46.429Z</time>
      </trkpt>
      <trkpt lat="68.57703" lon="14.99908">
        <ele>0.050918</ele>
        <time>2020-07-15T23:11:49.930Z</time>
      </trkpt>
      <trkpt lat="68.58202" lon="15.00279">
        <ele>1.261933</ele>
        <time>2020-07-15T23:13:23.914Z</time>
      </trkpt>
      <trkpt lat="68.58269" lon="15.00361">
        <ele>1.92514</ele>
        <time>2020-07-15T23:13:40.197Z</time>
      </trkpt>
      <trkpt lat="68.58327" lon="15.00499">
        <ele>3.3912</ele>
        <time>2020-07-15T23:13:58.851Z</time>
      </trkpt>
      <trkpt lat="68.58333" lon="15.00521">
        <ele>3.623055</ele>
        <time>2020-07-15T23:14:01.693Z</time>
      </trkpt>
      <trkpt lat="68.58346" lon="15.00567">
        <ele>4.11621</ele>
        <time>2020-07-15T23:14:06.618Z</time>
      </trkpt>
      <trkpt lat="68.58352" lon="15.00592">
        <ele>4.36488</ele>
        <time>2020-07-15T23:14:09.695Z</time>
      </trkpt>
      <trkpt lat="68.58382" lon="15.0078">
        <ele>6.107296</ele>
        <time>2020-07-15T23:14:29.732Z</time>
      </trkpt>
      <trkpt lat="68.58391" lon="15.00878">
        <ele>6.707991</ele>
        <time>2020-07-15T23:14:39.252Z</time>
      </trkpt>
      <trkpt lat="68.58394" lon="15.00997">
        <ele>7.348578</ele>
        <time>2020-07-15T23:14:49.725Z</time>
      </trkpt>
      <trkpt lat="68.58393" lon="15.01047">
        <ele>7.616819</ele>
        <time>2020-07-15T23:14:53.921Z</time>
      </trkpt>
      <trkpt lat="68.58392" lon="15.01059">
        <ele>7.683759</ele>
        <time>2020-07-15T23:14:54.990Z</time>
      </trkpt>
      <trkpt lat="68.5838" lon="15.01219">
        <ele>8.561416</ele>
        <time>2020-07-15T23:15:07.650Z</time>
      </trkpt>
      <trkpt lat="68.58311" lon="15.0179">
        <ele>9.334142</ele>
        <time>2020-07-15T23:15:48.131Z</time>
      </trkpt>
      <trkpt lat="68.58284" lon="15.02076">
        <ele>9.363873</ele>
        <time>2020-07-15T23:16:07.125Z</time>
      </trkpt>
      <trkpt lat="68.58262" lon="15.02501">
        <ele>9.711304</ele>
        <time>2020-07-15T23:16:35.790Z</time>
      </trkpt>
      <trkpt lat="68.58258" lon="15.0278">
        <ele>10.108086</ele>
        <time>2020-07-15T23:16:55.862Z</time>
      </trkpt>
      <trkpt lat="68.58258" lon="15.02824">
        <ele>10.205696</ele>
        <time>2020-07-15T23:16:59.171Z</time>
      </trkpt>
      <trkpt lat="68.58259" lon="15.02915">
        <ele>10.405052</ele>
        <time>2020-07-15T23:17:05.859Z</time>
      </trkpt>
      <trkpt lat="68.5827" lon="15.03235">
        <ele>11.046775</ele>
        <time>2020-07-15T23:17:29.703Z</time>
      </trkpt>
      <trkpt lat="68.58298" lon="15.03703">
        <ele>10.703602</ele>
        <time>2020-07-15T23:17:59.714Z</time>
      </trkpt>
      <trkpt lat="68.58301" lon="15.03749">
        <ele>10.425402</ele>
        <time>2020-07-15T23:18:02.331Z</time>
      </trkpt>
      <trkpt lat="68.58319" lon="15.04053">
        <ele>8.623613</ele>
        <time>2020-07-15T23:18:18.695Z</time>
      </trkpt>
      <trkpt lat="68.58327" lon="15.04172">
        <ele>7.91544</ele>
        <time>2020-07-15T23:18:24.770Z</time>
      </trkpt>
      <trkpt lat="68.5834" lon="15.04313">
        <ele>6.878829</ele>
        <time>2020-07-15T23:18:32.180Z</time>
      </trkpt>
      <trkpt lat="68.58352" lon="15.04421">
        <ele>6.056692</ele>
        <time>2020-07-15T23:18:37.991Z</time>
      </trkpt>
      <trkpt lat="68.58354" lon="15.0444">
        <ele>5.912572</ele>
        <time>2020-07-15T23:18:38.950Z</time>
      </trkpt>
      <trkpt lat="68.584" lon="15.04722">
        <ele>3.851559</ele>
        <time>2020-07-15T23:18:55.125Z</time>
      </trkpt>
      <trkpt lat="68.5845" lon="15.04947">
        <ele>2.525629</ele>
        <time>2020-07-15T23:19:09.471Z</time>
      </trkpt>
      <trkpt lat="68.58513" lon="15.05156">
        <ele>1.437538</ele>
        <time>2020-07-15T23:19:24.622Z</time>
      </trkpt>
      <trkpt lat="68.58578" lon="15.05324">
        <ele>0.748111</ele>
        <time>2020-07-15T23:19:38.891Z</time>
      </trkpt>
      <trkpt lat="68.586" lon="15.05374">
        <ele>0.531484</ele>
        <time>2020-07-15T23:19:43.481Z</time>
      </trkpt>
      <trkpt lat="68.58609" lon="15.05394">
        <ele>0.43722</ele>
        <time>2020-07-15T23:19:45.517Z</time>
      </trkpt>
      <trkpt lat="68.58638" lon="15.05453">
        <ele>0.342491</ele>
        <time>2020-07-15T23:19:51.488Z</time>
      </trkpt>
      <trkpt lat="68.58664" lon="15.05503">
        <ele>0.283309</ele>
        <time>2020-07-15T23:19:56.963Z</time>
      </trkpt>
      <trkpt lat="68.58667" lon="15.05508">
        <ele>0.278004</ele>
        <time>2020-07-15T23:19:57.456Z</time>
      </trkpt>
      <trkpt lat="68.58687" lon="15.05545">
        <ele>0.232795</ele>
        <time>2020-07-15T23:20:01.661Z</time>
      </trkpt>
      <trkpt lat="68.58919" lon="15.05987">
        <ele>0.011035</ele>
        <time>2020-07-15T23:20:51.934Z</time>
      </trkpt>
      <trkpt lat="68.58942" lon="15.0603">
        <ele>0.012189</ele>
        <time>2020-07-15T23:20:56.855Z</time>
      </trkpt>
      <trkpt lat="68.58979" lon="15.06099">
        <ele>0.014089</ele>
        <time>2020-07-15T23:21:04.930Z</time>
      </trkpt>
      <trkpt lat="68.59015" lon="15.06168">
        <ele>0.015947</ele>
        <time>2020-07-15T23:21:12.826Z</time>
      </trkpt>
      <trkpt lat="68.59042" lon="15.06219">
        <ele>0.017323</ele>
        <time>2020-07-15T23:21:18.650Z</time>
      </trkpt>
      <trkpt lat="68.59056" lon="15.06246">
        <ele>0.018069</ele>
        <time>2020-07-15T23:21:21.862Z</time>
      </trkpt>
      <trkpt lat="68.59095" lon="15.0632">
        <ele>0.013326</ele>
        <time>2020-07-15T23:21:30.269Z</time>
      </trkpt>
      <trkpt lat="68.59137" lon="15.06399">
        <ele>0.008226</ele>
        <time>2020-07-15T23:21:39.343Z</time>
      </trkpt>
      <trkpt lat="68.59167" lon="15.06457">
        <ele>0.004489</ele>
        <time>2020-07-15T23:21:45.972Z</time>
      </trkpt>
      <trkpt lat="68.59198" lon="15.06515">
        <ele>0.00076</ele>
        <time>2020-07-15T23:21:52.569Z</time>
      </trkpt>
      <trkpt lat="68.59214" lon="15.06543">
        <ele>3.8</ele>
        <time>2020-07-15T23:21:55.896Z</time>
      </trkpt>
      <trkpt lat="68.59221" lon="15.06555">
        <ele>4</ele>
        <time>2020-07-15T23:21:57.412Z</time>
      </trkpt>
      <trkpt lat="68.59281" lon="15.0667">
        <ele>4</ele>
        <time>2020-07-15T23:22:10.492Z</time>
      </trkpt>
      <trkpt lat="68.59292" lon="15.06691">
        <ele>4</ele>
        <time>2020-07-15T23:22:12.824Z</time>
      </trkpt>
      <trkpt lat="68.5932" lon="15.06744">
        <ele>4</ele>
        <time>2020-07-15T23:22:18.810Z</time>
      </trkpt>
      <trkpt lat="68.5935" lon="15.06801">
        <ele>3.7</ele>
        <time>2020-07-15T23:22:25.417Z</time>
      </trkpt>
      <trkpt lat="68.59368" lon="15.06834">
        <ele>0.003872</ele>
        <time>2020-07-15T23:22:29.304Z</time>
      </trkpt>
      <trkpt lat="68.59433" lon="15.06957">
        <ele>0.019886</ele>
        <time>2020-07-15T23:22:43.416Z</time>
      </trkpt>
      <trkpt lat="68.59454" lon="15.06997">
        <ele>0.025081</ele>
        <time>2020-07-15T23:22:48.003Z</time>
      </trkpt>
      <trkpt lat="68.59481" lon="15.0705">
        <ele>0.031795</ele>
        <time>2020-07-15T23:22:53.924Z</time>
      </trkpt>
      <trkpt lat="68.59519" lon="15.07121">
        <ele>0.064029</ele>
        <time>2020-07-15T23:23:02.140Z</time>
      </trkpt>
      <trkpt lat="68.59525" lon="15.07134">
        <ele>0.07372</ele>
        <time>2020-07-15T23:23:03.618Z</time>
      </trkpt>
      <trkpt lat="68.59566" lon="15.07207">
        <ele>0.133671</ele>
        <time>2020-07-15T23:23:12.579Z</time>
      </trkpt>
      <trkpt lat="68.59589" lon="15.07253">
        <ele>0.168629</ele>
        <time>2020-07-15T23:23:17.840Z</time>
      </trkpt>
      <trkpt lat="68.59625" lon="15.07324">
        <ele>0.223641</ele>
        <time>2020-07-15T23:23:25.994Z</time>
      </trkpt>
      <trkpt lat="68.5964" lon="15.0735">
        <ele>0.244782</ele>
        <time>2020-07-15T23:23:29.138Z</time>
      </trkpt>
      <trkpt lat="68.59648" lon="15.07369">
        <ele>0.257626</ele>
        <time>2020-07-15T23:23:31.191Z</time>
      </trkpt>
      <trkpt lat="68.59661" lon="15.07395">
        <ele>0.260046</ele>
        <time>2020-07-15T23:23:33.939Z</time>
      </trkpt>
      <trkpt lat="68.59707" lon="15.07497">
        <ele>0.269152</ele>
        <time>2020-07-15T23:23:44.611Z</time>
      </trkpt>
      <trkpt lat="68.59713" lon="15.07516">
        <ele>0.270599</ele>
        <time>2020-07-15T23:23:46.229Z</time>
      </trkpt>
      <trkpt lat="68.59723" lon="15.07544">
        <ele>0.272786</ele>
        <time>2020-07-15T23:23:48.812Z</time>
      </trkpt>
      <trkpt lat="68.59736" lon="15.07584">
        <ele>0.275784</ele>
        <time>2020-07-15T23:23:52.347Z</time>
      </trkpt>
      <trkpt lat="68.59739" lon="15.07597">
        <ele>0.276665</ele>
        <time>2020-07-15T23:23:53.364Z</time>
      </trkpt>
      <trkpt lat="68.59744" lon="15.0761">
        <ele>0.277705</ele>
        <time>2020-07-15T23:23:54.603Z</time>
      </trkpt>
      <trkpt lat="68.59753" lon="15.07646">
        <ele>0.280202</ele>
        <time>2020-07-15T23:23:57.600Z</time>
      </trkpt>
      <trkpt lat="68.59764" lon="15.07685">
        <ele>0.282903</ele>
        <time>2020-07-15T23:24:00.625Z</time>
      </trkpt>
      <trkpt lat="68.59771" lon="15.07711">
        <ele>0.284738</ele>
        <time>2020-07-15T23:24:02.757Z</time>
      </trkpt>
      <trkpt lat="68.59784" lon="15.07759">
        <ele>0.268902</ele>
        <time>2020-07-15T23:24:06.520Z</time>
      </trkpt>
      <trkpt lat="68.59816" lon="15.07884">
        <ele>0.219786</ele>
        <time>2020-07-15T23:24:16.288Z</time>
      </trkpt>
      <trkpt lat="68.59821" lon="15.07906">
        <ele>0.211684</ele>
        <time>2020-07-15T23:24:17.867Z</time>
      </trkpt>
      <trkpt lat="68.59825" lon="15.07918">
        <ele>0.206413</ele>
        <time>2020-07-15T23:24:18.916Z</time>
      </trkpt>
      <trkpt lat="68.59841" lon="15.07983">
        <ele>0.181109</ele>
        <time>2020-07-15T23:24:23.922Z</time>
      </trkpt>
      <trkpt lat="68.59865" lon="15.08081">
        <ele>0.143066</ele>
        <time>2020-07-15T23:24:31.543Z</time>
      </trkpt>
      <trkpt lat="68.59884" lon="15.08152">
        <ele>0.117757</ele>
        <time>2020-07-15T23:24:37.187Z</time>
      </trkpt>
      <trkpt lat="68.59897" lon="15.08201">
        <ele>0.102439</ele>
        <time>2020-07-15T23:24:41.122Z</time>
      </trkpt>
      <trkpt lat="68.59916" lon="15.08279">
        <ele>0.078881</ele>
        <time>2020-07-15T23:24:47.138Z</time>
      </trkpt>
      <trkpt lat="68.59922" lon="15.08305">
        <ele>0.070957</ele>
        <time>2020-07-15T23:24:49.142Z</time>
      </trkpt>
      <trkpt lat="68.59938" lon="15.0836">
        <ele>0.053547</ele>
        <time>2020-07-15T23:24:53.592Z</time>
      </trkpt>
      <trkpt lat="68.59966" lon="15.08466">
        <ele>0.020269</ele>
        <time>2020-07-15T23:25:02.115Z</time>
      </trkpt>
      <trkpt lat="68.59984" lon="15.08524">
        <ele>0.003776</ele>
        <time>2020-07-15T23:25:07.030Z</time>
      </trkpt>
      <trkpt lat="68.60005" lon="15.0859">
        <ele>0.012201</ele>
        <time>2020-07-15T23:25:12.716Z</time>
      </trkpt>
      <trkpt lat="68.60018" lon="15.08624">
        <ele>0.016893</ele>
        <time>2020-07-15T23:25:15.866Z</time>
      </trkpt>
      <trkpt lat="68.60039" lon="15.0868">
        <ele>0.024629</ele>
        <time>2020-07-15T23:25:21.084Z</time>
      </trkpt>
      <trkpt lat="68.60045" lon="15.087">
        <ele>0.027136</ele>
        <time>2020-07-15T23:25:22.775Z</time>
      </trkpt>
      <trkpt lat="68.60069" lon="15.08761">
        <ele>0.035758</ele>
        <time>2020-07-15T23:25:28.594Z</time>
      </trkpt>
      <trkpt lat="68.60152" lon="15.08957">
        <ele>0.106731</ele>
        <time>2020-07-15T23:25:48.480Z</time>
      </trkpt>
      <trkpt lat="68.60158" lon="15.0897">
        <ele>0.114705</ele>
        <time>2020-07-15T23:25:49.876Z</time>
      </trkpt>
      <trkpt lat="68.6018" lon="15.09023">
        <ele>0.144972</ele>
        <time>2020-07-15T23:25:55.160Z</time>
      </trkpt>
      <trkpt lat="68.60201" lon="15.09077">
        <ele>0.174548</ele>
        <time>2020-07-15T23:26:00.348Z</time>
      </trkpt>
      <trkpt lat="68.60216" lon="15.09119">
        <ele>0.197178</ele>
        <time>2020-07-15T23:26:04.350Z</time>
      </trkpt>
      <trkpt lat="68.60268" lon="15.09289">
        <ele>0.322823</ele>
        <time>2020-07-15T23:26:19.219Z</time>
      </trkpt>
      <trkpt lat="68.60302" lon="15.09423">
        <ele>0.442657</ele>
        <time>2020-07-15T23:26:30.122Z</time>
      </trkpt>
      <trkpt lat="68.60317" lon="15.09483">
        <ele>0.496471</ele>
        <time>2020-07-15T23:26:34.998Z</time>
      </trkpt>
      <trkpt lat="68.60342" lon="15.09591">
        <ele>0.591919</ele>
        <time>2020-07-15T23:26:43.771Z</time>
      </trkpt>
      <trkpt lat="68.60401" lon="15.09811">
        <ele>0.844803</ele>
        <time>2020-07-15T23:27:02.385Z</time>
      </trkpt>
      <trkpt lat="68.6041" lon="15.0984">
        <ele>0.880768</ele>
        <time>2020-07-15T23:27:05.042Z</time>
      </trkpt>
      <trkpt lat="68.60412" lon="15.09848">
        <ele>0.890377</ele>
        <time>2020-07-15T23:27:05.773Z</time>
      </trkpt>
      <trkpt lat="68.60419" lon="15.09871">
        <ele>0.918139</ele>
        <time>2020-07-15T23:27:07.771Z</time>
      </trkpt>
      <trkpt lat="68.60431" lon="15.09909">
        <ele>0.965287</ele>
        <time>2020-07-15T23:27:11.240Z</time>
      </trkpt>
      <trkpt lat="68.60474" lon="15.10038">
        <ele>1.141142</ele>
        <time>2020-07-15T23:27:23.074Z</time>
      </trkpt>
      <trkpt lat="68.60489" lon="15.10086">
        <ele>1.211916</ele>
        <time>2020-07-15T23:27:27.317Z</time>
      </trkpt>
      <trkpt lat="68.60518" lon="15.10172">
        <ele>1.343431</ele>
        <time>2020-07-15T23:27:35.463Z</time>
      </trkpt>
      <trkpt lat="68.60524" lon="15.10189">
        <ele>1.368282</ele>
        <time>2020-07-15T23:27:37.055Z</time>
      </trkpt>
      <trkpt lat="68.60534" lon="15.10217">
        <ele>1.411311</ele>
        <time>2020-07-15T23:27:39.586Z</time>
      </trkpt>
      <trkpt lat="68.60569" lon="15.10323">
        <ele>1.570751</ele>
        <time>2020-07-15T23:27:49.412Z</time>
      </trkpt>
      <trkpt lat="68.60585" lon="15.10368">
        <ele>1.664864</ele>
        <time>2020-07-15T23:27:53.757Z</time>
      </trkpt>
      <trkpt lat="68.60594" lon="15.10397">
        <ele>1.743738</ele>
        <time>2020-07-15T23:27:56.497Z</time>
      </trkpt>
      <trkpt lat="68.60611" lon="15.10449">
        <ele>1.892883</ele>
        <time>2020-07-15T23:28:01.417Z</time>
      </trkpt>
      <trkpt lat="68.60627" lon="15.10495">
        <ele>2.025969</ele>
        <time>2020-07-15T23:28:05.949Z</time>
      </trkpt>
      <trkpt lat="68.60663" lon="15.10604">
        <ele>2.333072</ele>
        <time>2020-07-15T23:28:16.498Z</time>
      </trkpt>
      <trkpt lat="68.60681" lon="15.10657">
        <ele>2.483992</ele>
        <time>2020-07-15T23:28:21.765Z</time>
      </trkpt>
      <trkpt lat="68.60699" lon="15.10707">
        <ele>2.62993</ele>
        <time>2020-07-15T23:28:26.994Z</time>
      </trkpt>
      <trkpt lat="68.60746" lon="15.10852">
        <ele>3.246606</ele>
        <time>2020-07-15T23:28:41.538Z</time>
      </trkpt>
      <trkpt lat="68.60762" lon="15.10898">
        <ele>3.452083</ele>
        <time>2020-07-15T23:28:46.353Z</time>
      </trkpt>
      <trkpt lat="68.60807" lon="15.11035">
        <ele>4.043323</ele>
        <time>2020-07-15T23:29:00.201Z</time>
      </trkpt>
      <trkpt lat="68.60827" lon="15.11092">
        <ele>4.299635</ele>
        <time>2020-07-15T23:29:06.304Z</time>
      </trkpt>
      <trkpt lat="68.60829" lon="15.11097">
        <ele>4.322104</ele>
        <time>2020-07-15T23:29:06.901Z</time>
      </trkpt>
      <trkpt lat="68.60836" lon="15.11117">
        <ele>4.417921</ele>
        <time>2020-07-15T23:29:08.994Z</time>
      </trkpt>
      <trkpt lat="68.6084" lon="15.1113">
        <ele>4.473671</ele>
        <time>2020-07-15T23:29:10.188Z</time>
      </trkpt>
      <trkpt lat="68.60846" lon="15.1115">
        <ele>4.563656</ele>
        <time>2020-07-15T23:29:12.345Z</time>
      </trkpt>
      <trkpt lat="68.60895" lon="15.11294">
        <ele>5.226756</ele>
        <time>2020-07-15T23:29:27.649Z</time>
      </trkpt>
      <trkpt lat="68.60917" lon="15.1136">
        <ele>5.525536</ele>
        <time>2020-07-15T23:29:34.432Z</time>
      </trkpt>
      <trkpt lat="68.60919" lon="15.11355">
        <ele>5.551074</ele>
        <time>2020-07-15T23:29:35.096Z</time>
      </trkpt>
      <trkpt lat="68.60924" lon="15.11346">
        <ele>5.610689</ele>
        <time>2020-07-15T23:29:36.465Z</time>
      </trkpt>
      <trkpt lat="68.60926" lon="15.11346">
        <ele>5.623655</ele>
        <time>2020-07-15T23:29:36.809Z</time>
      </trkpt>
      <trkpt lat="68.60928" lon="15.11347">
        <ele>5.642254</ele>
        <time>2020-07-15T23:29:37.371Z</time>
      </trkpt>
      <trkpt lat="68.6094" lon="15.11402">
        <ele>5.85989</ele>
        <time>2020-07-15T23:29:42.224Z</time>
      </trkpt>
      <trkpt lat="68.60964" lon="15.11481">
        <ele>5.82165</ele>
        <time>2020-07-15T23:29:49.902Z</time>
      </trkpt>
      <trkpt lat="68.61024" lon="15.11662">
        <ele>5.620525</ele>
        <time>2020-07-15T23:30:06.651Z</time>
      </trkpt>
      <trkpt lat="68.61038" lon="15.117">
        <ele>5.576463</ele>
        <time>2020-07-15T23:30:09.809Z</time>
      </trkpt>
      <trkpt lat="68.61046" lon="15.11724">
        <ele>5.550741</ele>
        <time>2020-07-15T23:30:11.780Z</time>
      </trkpt>
      <trkpt lat="68.61052" lon="15.11743">
        <ele>5.528857</ele>
        <time>2020-07-15T23:30:13.269Z</time>
      </trkpt>
      <trkpt lat="68.61076" lon="15.11789">
        <ele>5.287583</ele>
        <time>2020-07-15T23:30:17.961Z</time>
      </trkpt>
      <trkpt lat="68.6108" lon="15.11797">
        <ele>5.218855</ele>
        <time>2020-07-15T23:30:18.594Z</time>
      </trkpt>
      <trkpt lat="68.61085" lon="15.11814">
        <ele>5.094766</ele>
        <time>2020-07-15T23:30:19.739Z</time>
      </trkpt>
      <trkpt lat="68.61097" lon="15.11873">
        <ele>4.708111</ele>
        <time>2020-07-15T23:30:23.617Z</time>
      </trkpt>
      <trkpt lat="68.61111" lon="15.11919">
        <ele>4.360145</ele>
        <time>2020-07-15T23:30:26.874Z</time>
      </trkpt>
      <trkpt lat="68.61128" lon="15.11972">
        <ele>3.959116</ele>
        <time>2020-07-15T23:30:30.667Z</time>
      </trkpt>
      <trkpt lat="68.61131" lon="15.11981">
        <ele>3.89309</ele>
        <time>2020-07-15T23:30:31.295Z</time>
      </trkpt>
      <trkpt lat="68.61162" lon="15.12072">
        <ele>3.186253</ele>
        <time>2020-07-15T23:30:38.185Z</time>
      </trkpt>
      <trkpt lat="68.61176" lon="15.12114">
        <ele>2.854604</ele>
        <time>2020-07-15T23:30:41.459Z</time>
      </trkpt>
      <trkpt lat="68.61184" lon="15.12137">
        <ele>2.682184</ele>
        <time>2020-07-15T23:30:43.252Z</time>
      </trkpt>
      <trkpt lat="68.61197" lon="15.1217">
        <ele>2.574598</ele>
        <time>2020-07-15T23:30:46.147Z</time>
      </trkpt>
      <trkpt lat="68.6122" lon="15.12238">
        <ele>2.368216</ele>
        <time>2020-07-15T23:30:51.581Z</time>
      </trkpt>
      <trkpt lat="68.61225" lon="15.12254">
        <ele>2.319691</ele>
        <time>2020-07-15T23:30:52.899Z</time>
      </trkpt>
      <trkpt lat="68.61228" lon="15.12262">
        <ele>2.294766</ele>
        <time>2020-07-15T23:30:53.532Z</time>
      </trkpt>
      <trkpt lat="68.61232" lon="15.12275">
        <ele>2.257457</ele>
        <time>2020-07-15T23:30:54.461Z</time>
      </trkpt>
      <trkpt lat="68.61278" lon="15.12413">
        <ele>1.841809</ele>
        <time>2020-07-15T23:31:05.630Z</time>
      </trkpt>
      <trkpt lat="68.6131" lon="15.12508">
        <ele>1.586496</ele>
        <time>2020-07-15T23:31:14.005Z</time>
      </trkpt>
      <trkpt lat="68.61367" lon="15.12676">
        <ele>1.606232</ele>
        <time>2020-07-15T23:31:29.497Z</time>
      </trkpt>
      <trkpt lat="68.61411" lon="15.12823">
        <ele>1.622626</ele>
        <time>2020-07-15T23:31:41.942Z</time>
      </trkpt>
      <trkpt lat="68.61434" lon="15.12909">
        <ele>1.593227</ele>
        <time>2020-07-15T23:31:48.710Z</time>
      </trkpt>
      <trkpt lat="68.61445" lon="15.12953">
        <ele>1.554874</ele>
        <time>2020-07-15T23:31:52.115Z</time>
      </trkpt>
      <trkpt lat="68.61482" lon="15.1313">
        <ele>1.405717</ele>
        <time>2020-07-15T23:32:04.954Z</time>
      </trkpt>
      <trkpt lat="68.61495" lon="15.13196">
        <ele>1.352238</ele>
        <time>2020-07-15T23:32:09.557Z</time>
      </trkpt>
      <trkpt lat="68.61504" lon="15.13251">
        <ele>1.307776</ele>
        <time>2020-07-15T23:32:13.237Z</time>
      </trkpt>
      <trkpt lat="68.61546" lon="15.13569">
        <ele>1.469864</ele>
        <time>2020-07-15T23:32:35.192Z</time>
      </trkpt>
      <trkpt lat="68.61551" lon="15.13623">
        <ele>1.508577</ele>
        <time>2020-07-15T23:32:38.664Z</time>
      </trkpt>
      <trkpt lat="68.61556" lon="15.13674">
        <ele>1.545277</ele>
        <time>2020-07-15T23:32:42.349Z</time>
      </trkpt>
      <trkpt lat="68.61559" lon="15.13716">
        <ele>1.575146</ele>
        <time>2020-07-15T23:32:45.302Z</time>
      </trkpt>
      <trkpt lat="68.61561" lon="15.13742">
        <ele>1.593949</ele>
        <time>2020-07-15T23:32:47.324Z</time>
      </trkpt>
      <trkpt lat="68.61575" lon="15.14043">
        <ele>2.963684</ele>
        <time>2020-07-15T23:33:10.652Z</time>
      </trkpt>
      <trkpt lat="68.61577" lon="15.14146">
        <ele>3.471966</ele>
        <time>2020-07-15T23:33:19.475Z</time>
      </trkpt>
      <trkpt lat="68.61577" lon="15.14159">
        <ele>3.535531</ele>
        <time>2020-07-15T23:33:20.561Z</time>
      </trkpt>
      <trkpt lat="68.61577" lon="15.14239">
        <ele>3.927026</ele>
        <time>2020-07-15T23:33:27.421Z</time>
      </trkpt>
      <trkpt lat="68.61576" lon="15.1428">
        <ele>4.230455</ele>
        <time>2020-07-15T23:33:31.196Z</time>
      </trkpt>
      <trkpt lat="68.61576" lon="15.14307">
        <ele>4.525943</ele>
        <time>2020-07-15T23:33:33.538Z</time>
      </trkpt>
      <trkpt lat="68.61575" lon="15.14325">
        <ele>4.715979</ele>
        <time>2020-07-15T23:33:35.173Z</time>
      </trkpt>
      <trkpt lat="68.61573" lon="15.14466">
        <ele>6.242185</ele>
        <time>2020-07-15T23:33:48.247Z</time>
      </trkpt>
      <trkpt lat="68.61574" lon="15.14476">
        <ele>6.348921</ele>
        <time>2020-07-15T23:33:49.481Z</time>
      </trkpt>
      <trkpt lat="68.61571" lon="15.14656">
        <ele>8.282738</ele>
        <time>2020-07-15T23:34:07.679Z</time>
      </trkpt>
      <trkpt lat="68.61569" lon="15.14852">
        <ele>10.667455</ele>
        <time>2020-07-15T23:34:29.498Z</time>
      </trkpt>
      <trkpt lat="68.61569" lon="15.14895">
        <ele>11.23657</ele>
        <time>2020-07-15T23:34:34.571Z</time>
      </trkpt>
      <trkpt lat="68.61572" lon="15.14997">
        <ele>12.625159</ele>
        <time>2020-07-15T23:34:45.867Z</time>
      </trkpt>
      <trkpt lat="68.61573" lon="15.15039">
        <ele>13.18851</ele>
        <time>2020-07-15T23:34:50.245Z</time>
      </trkpt>
      <trkpt lat="68.61573" lon="15.15063">
        <ele>13.525267</ele>
        <time>2020-07-15T23:34:52.994Z</time>
      </trkpt>
      <trkpt lat="68.61572" lon="15.15088">
        <ele>13.86349</ele>
        <time>2020-07-15T23:34:55.912Z</time>
      </trkpt>
      <trkpt lat="68.61565" lon="15.15173">
        <ele>15.041716</ele>
        <time>2020-07-15T23:35:05.181Z</time>
      </trkpt>
      <trkpt lat="68.61563" lon="15.15256">
        <ele>16.103199</ele>
        <time>2020-07-15T23:35:13.858Z</time>
      </trkpt>
      <trkpt lat="68.61562" lon="15.15347">
        <ele>16.849742</ele>
        <time>2020-07-15T23:35:23.359Z</time>
      </trkpt>
      <trkpt lat="68.61562" lon="15.15373">
        <ele>17.064687</ele>
        <time>2020-07-15T23:35:26.071Z</time>
      </trkpt>
      <trkpt lat="68.61561" lon="15.15467">
        <ele>17.833145</ele>
        <time>2020-07-15T23:35:34.950Z</time>
      </trkpt>
      <trkpt lat="68.61561" lon="15.15586">
        <ele>18.805199</ele>
        <time>2020-07-15T23:35:45.052Z</time>
      </trkpt>
      <trkpt lat="68.61562" lon="15.15621">
        <ele>19.090369</ele>
        <time>2020-07-15T23:35:48.052Z</time>
      </trkpt>
      <trkpt lat="68.61574" lon="15.15698">
        <ele>19.778194</ele>
        <time>2020-07-15T23:35:54.779Z</time>
      </trkpt>
      <trkpt lat="68.61574" lon="15.15725">
        <ele>19.999291</ele>
        <time>2020-07-15T23:35:57.031Z</time>
      </trkpt>
      <trkpt lat="68.61574" lon="15.1575">
        <ele>20.155966</ele>
        <time>2020-07-15T23:35:58.859Z</time>
      </trkpt>
      <trkpt lat="68.61573" lon="15.15807">
        <ele>20.477334</ele>
        <time>2020-07-15T23:36:03.702Z</time>
      </trkpt>
      <trkpt lat="68.61577" lon="15.15877">
        <ele>20.871729</ele>
        <time>2020-07-15T23:36:09.478Z</time>
      </trkpt>
      <trkpt lat="68.61582" lon="15.15931">
        <ele>21.188946</ele>
        <time>2020-07-15T23:36:14.041Z</time>
      </trkpt>
      <trkpt lat="68.61584" lon="15.15947">
        <ele>21.282632</ele>
        <time>2020-07-15T23:36:15.275Z</time>
      </trkpt>
      <trkpt lat="68.61586" lon="15.15966">
        <ele>21.391576</ele>
        <time>2020-07-15T23:36:17.034Z</time>
      </trkpt>
      <trkpt lat="68.61594" lon="15.16001">
        <ele>21.62077</ele>
        <time>2020-07-15T23:36:20.810Z</time>
      </trkpt>
      <trkpt lat="68.61603" lon="15.16094">
        <ele>22.161275</ele>
        <time>2020-07-15T23:36:28.958Z</time>
      </trkpt>
      <trkpt lat="68.61615" lon="15.16167">
        <ele>22.604153</ele>
        <time>2020-07-15T23:36:35.734Z</time>
      </trkpt>
      <trkpt lat="68.6163" lon="15.16246">
        <ele>22.880592</ele>
        <time>2020-07-15T23:36:43.019Z</time>
      </trkpt>
      <trkpt lat="68.61647" lon="15.16324">
        <ele>22.994913</ele>
        <time>2020-07-15T23:36:50.168Z</time>
      </trkpt>
      <trkpt lat="68.6165" lon="15.16331">
        <ele>23.006751</ele>
        <time>2020-07-15T23:36:51.154Z</time>
      </trkpt>
      <trkpt lat="68.61655" lon="15.16347">
        <ele>23.033997</ele>
        <time>2020-07-15T23:36:52.678Z</time>
      </trkpt>
      <trkpt lat="68.61659" lon="15.1636">
        <ele>23.054274</ele>
        <time>2020-07-15T23:36:53.854Z</time>
      </trkpt>
      <trkpt lat="68.61664" lon="15.16381">
        <ele>23.085668</ele>
        <time>2020-07-15T23:36:55.741Z</time>
      </trkpt>
      <trkpt lat="68.61676" lon="15.16439">
        <ele>23.168384</ele>
        <time>2020-07-15T23:37:00.362Z</time>
      </trkpt>
      <trkpt lat="68.61686" lon="15.16473">
        <ele>23.222785</ele>
        <time>2020-07-15T23:37:03.372Z</time>
      </trkpt>
      <trkpt lat="68.61713" lon="15.16559">
        <ele>23.36278</ele>
        <time>2020-07-15T23:37:10.595Z</time>
      </trkpt>
      <trkpt lat="68.61722" lon="15.16587">
        <ele>23.41058</ele>
        <time>2020-07-15T23:37:12.756Z</time>
      </trkpt>
      <trkpt lat="68.61733" lon="15.16614">
        <ele>23.216906</ele>
        <time>2020-07-15T23:37:15.091Z</time>
      </trkpt>
      <trkpt lat="68.6176" lon="15.16679">
        <ele>22.370978</ele>
        <time>2020-07-15T23:37:20.383Z</time>
      </trkpt>
      <trkpt lat="68.61772" lon="15.16705">
        <ele>22.019044</ele>
        <time>2020-07-15T23:37:22.404Z</time>
      </trkpt>
      <trkpt lat="68.61782" lon="15.16727">
        <ele>21.708061</ele>
        <time>2020-07-15T23:37:24.219Z</time>
      </trkpt>
      <trkpt lat="68.61788" lon="15.16738">
        <ele>21.541997</ele>
        <time>2020-07-15T23:37:25.344Z</time>
      </trkpt>
      <trkpt lat="68.61816" lon="15.16765">
        <ele>20.856056</ele>
        <time>2020-07-15T23:37:29.181Z</time>
      </trkpt>
      <trkpt lat="68.61821" lon="15.16774">
        <ele>20.699543</ele>
        <time>2020-07-15T23:37:30.163Z</time>
      </trkpt>
      <trkpt lat="68.6182" lon="15.16782">
        <ele>20.614036</ele>
        <time>2020-07-15T23:37:30.766Z</time>
      </trkpt>
      <trkpt lat="68.61817" lon="15.16798">
        <ele>20.465489</ele>
        <time>2020-07-15T23:37:31.976Z</time>
      </trkpt>
      <trkpt lat="68.61815" lon="15.16809">
        <ele>20.363774</ele>
        <time>2020-07-15T23:37:32.712Z</time>
      </trkpt>
      <trkpt lat="68.61862" lon="15.16902">
        <ele>18.88739</ele>
        <time>2020-07-15T23:37:40.369Z</time>
      </trkpt>
      <trkpt lat="68.6189" lon="15.16965">
        <ele>17.610079</ele>
        <time>2020-07-15T23:37:45.011Z</time>
      </trkpt>
      <trkpt lat="68.61917" lon="15.17038">
        <ele>16.248135</ele>
        <time>2020-07-15T23:37:49.911Z</time>
      </trkpt>
      <trkpt lat="68.6197" lon="15.17175">
        <ele>13.647704</ele>
        <time>2020-07-15T23:37:59.175Z</time>
      </trkpt>
      <trkpt lat="68.62008" lon="15.17284">
        <ele>11.78896</ele>
        <time>2020-07-15T23:38:06.154Z</time>
      </trkpt>
      <trkpt lat="68.62056" lon="15.1742">
        <ele>9.556287</ele>
        <time>2020-07-15T23:38:15.040Z</time>
      </trkpt>
      <trkpt lat="68.62062" lon="15.17454">
        <ele>9.122497</ele>
        <time>2020-07-15T23:38:16.753Z</time>
      </trkpt>
      <trkpt lat="68.62079" lon="15.17507">
        <ele>8.280636</ele>
        <time>2020-07-15T23:38:20.248Z</time>
      </trkpt>
      <trkpt lat="68.62106" lon="15.17585">
        <ele>7.020354</ele>
        <time>2020-07-15T23:38:25.519Z</time>
      </trkpt>
      <trkpt lat="68.62125" lon="15.17637">
        <ele>6.684226</ele>
        <time>2020-07-15T23:38:29.303Z</time>
      </trkpt>
      <trkpt lat="68.62144" lon="15.17693">
        <ele>6.376056</ele>
        <time>2020-07-15T23:38:33.198Z</time>
      </trkpt>
      <trkpt lat="68.62159" lon="15.17738">
        <ele>6.128314</ele>
        <time>2020-07-15T23:38:36.429Z</time>
      </trkpt>
      <trkpt lat="68.62189" lon="15.17822">
        <ele>5.654412</ele>
        <time>2020-07-15T23:38:43.149Z</time>
      </trkpt>
      <trkpt lat="68.62196" lon="15.17845">
        <ele>5.529798</ele>
        <time>2020-07-15T23:38:45.018Z</time>
      </trkpt>
      <trkpt lat="68.62217" lon="15.17901">
        <ele>5.205432</ele>
        <time>2020-07-15T23:38:49.977Z</time>
      </trkpt>
      <trkpt lat="68.62227" lon="15.17928">
        <ele>5.055469</ele>
        <time>2020-07-15T23:38:52.477Z</time>
      </trkpt>
      <trkpt lat="68.62289" lon="15.18111">
        <ele>5.488483</ele>
        <time>2020-07-15T23:39:09.985Z</time>
      </trkpt>
      <trkpt lat="68.62321" lon="15.18197">
        <ele>5.76576</ele>
        <time>2020-07-15T23:39:19.008Z</time>
      </trkpt>
      <trkpt lat="68.62358" lon="15.18307">
        <ele>6.126696</ele>
        <time>2020-07-15T23:39:30.514Z</time>
      </trkpt>
      <trkpt lat="68.62403" lon="15.18435">
        <ele>6.938742</ele>
        <time>2020-07-15T23:39:44.442Z</time>
      </trkpt>
      <trkpt lat="68.62449" lon="15.18537">
        <ele>7.685887</ele>
        <time>2020-07-15T23:39:57.682Z</time>
      </trkpt>
      <trkpt lat="68.62503" lon="15.18638">
        <ele>8.428931</ele>
        <time>2020-07-15T23:40:12.315Z</time>
      </trkpt>
      <trkpt lat="68.62563" lon="15.18748">
        <ele>8.838539</ele>
        <time>2020-07-15T23:40:27.501Z</time>
      </trkpt>
      <trkpt lat="68.6257" lon="15.18766">
        <ele>8.896271</ele>
        <time>2020-07-15T23:40:29.515Z</time>
      </trkpt>
      <trkpt lat="68.62575" lon="15.18779">
        <ele>8.934848</ele>
        <time>2020-07-15T23:40:30.765Z</time>
      </trkpt>
      <trkpt lat="68.62621" lon="15.18895">
        <ele>9.290009</ele>
        <time>2020-07-15T23:40:42.266Z</time>
      </trkpt>
      <trkpt lat="68.62641" lon="15.18948">
        <ele>9.307618</ele>
        <time>2020-07-15T23:40:47.058Z</time>
      </trkpt>
      <trkpt lat="68.62656" lon="15.18984">
        <ele>9.175547</ele>
        <time>2020-07-15T23:40:50.461Z</time>
      </trkpt>
      <trkpt lat="68.62664" lon="15.19011">
        <ele>9.09128</ele>
        <time>2020-07-15T23:40:52.688Z</time>
      </trkpt>
      <trkpt lat="68.62684" lon="15.19063">
        <ele>8.91183</ele>
        <time>2020-07-15T23:40:57.191Z</time>
      </trkpt>
      <trkpt lat="68.62713" lon="15.19133">
        <ele>8.655867</ele>
        <time>2020-07-15T23:41:03.331Z</time>
      </trkpt>
      <trkpt lat="68.62753" lon="15.19218">
        <ele>8.324978</ele>
        <time>2020-07-15T23:41:11.078Z</time>
      </trkpt>
      <trkpt lat="68.62767" lon="15.19252">
        <ele>8.202529</ele>
        <time>2020-07-15T23:41:13.897Z</time>
      </trkpt>
      <trkpt lat="68.6278" lon="15.19282">
        <ele>8.115606</ele>
        <time>2020-07-15T23:41:16.588Z</time>
      </trkpt>
      <trkpt lat="68.62797" lon="15.19325">
        <ele>7.99952</ele>
        <time>2020-07-15T23:41:20.233Z</time>
      </trkpt>
      <trkpt lat="68.62799" lon="15.19329">
        <ele>7.987974</ele>
        <time>2020-07-15T23:41:20.599Z</time>
      </trkpt>
      <trkpt lat="68.62811" lon="15.19362">
        <ele>7.902574</ele>
        <time>2020-07-15T23:41:23.361Z</time>
      </trkpt>
      <trkpt lat="68.62822" lon="15.19393">
        <ele>7.824316</ele>
        <time>2020-07-15T23:41:26.001Z</time>
      </trkpt>
      <trkpt lat="68.62843" lon="15.19463">
        <ele>7.657494</ele>
        <time>2020-07-15T23:41:31.574Z</time>
      </trkpt>
      <trkpt lat="68.62851" lon="15.1949">
        <ele>7.59177</ele>
        <time>2020-07-15T23:41:33.759Z</time>
      </trkpt>
      <trkpt lat="68.62864" lon="15.19533">
        <ele>7.48947</ele>
        <time>2020-07-15T23:41:37.274Z</time>
      </trkpt>
      <trkpt lat="68.62892" lon="15.19623">
        <ele>7.279456</ele>
        <time>2020-07-15T23:41:44.663Z</time>
      </trkpt>
      <trkpt lat="68.62916" lon="15.19698">
        <ele>7.166981</ele>
        <time>2020-07-15T23:41:50.775Z</time>
      </trkpt>
      <trkpt lat="68.62949" lon="15.19807">
        <ele>7.006464</ele>
        <time>2020-07-15T23:41:59.641Z</time>
      </trkpt>
      <trkpt lat="68.62956" lon="15.19831">
        <ele>6.973074</ele>
        <time>2020-07-15T23:42:01.506Z</time>
      </trkpt>
      <trkpt lat="68.62979" lon="15.19913">
        <ele>6.855913</ele>
        <time>2020-07-15T23:42:07.959Z</time>
      </trkpt>
      <trkpt lat="68.62993" lon="15.19969">
        <ele>6.779273</ele>
        <time>2020-07-15T23:42:12.172Z</time>
      </trkpt>
      <trkpt lat="68.62997" lon="15.19986">
        <ele>6.755716</ele>
        <time>2020-07-15T23:42:13.458Z</time>
      </trkpt>
      <trkpt lat="68.63004" lon="15.20017">
        <ele>6.717947</ele>
        <time>2020-07-15T23:42:15.580Z</time>
      </trkpt>
      <trkpt lat="68.63016" lon="15.20068">
        <ele>6.65863</ele>
        <time>2020-07-15T23:42:19.295Z</time>
      </trkpt>
      <trkpt lat="68.63029" lon="15.20125">
        <ele>6.59272</ele>
        <time>2020-07-15T23:42:23.297Z</time>
      </trkpt>
      <trkpt lat="68.63058" lon="15.20262">
        <ele>6.437121</ele>
        <time>2020-07-15T23:42:32.979Z</time>
      </trkpt>
      <trkpt lat="68.63073" lon="15.20339">
        <ele>6.351172</ele>
        <time>2020-07-15T23:42:38.435Z</time>
      </trkpt>
      <trkpt lat="68.6308" lon="15.20373">
        <ele>6.311966</ele>
        <time>2020-07-15T23:42:40.856Z</time>
      </trkpt>
      <trkpt lat="68.63084" lon="15.20389">
        <ele>6.294433</ele>
        <time>2020-07-15T23:42:42.018Z</time>
      </trkpt>
      <trkpt lat="68.63088" lon="15.2041">
        <ele>6.270913</ele>
        <time>2020-07-15T23:42:43.620Z</time>
      </trkpt>
      <trkpt lat="68.63134" lon="15.20598">
        <ele>6.714743</ele>
        <time>2020-07-15T23:42:59.039Z</time>
      </trkpt>
      <trkpt lat="68.63181" lon="15.20736">
        <ele>7.133644</ele>
        <time>2020-07-15T23:43:13.359Z</time>
      </trkpt>
      <trkpt lat="68.6322" lon="15.20824">
        <ele>7.49074</ele>
        <time>2020-07-15T23:43:24.079Z</time>
      </trkpt>
      <trkpt lat="68.6323" lon="15.20842">
        <ele>7.602039</ele>
        <time>2020-07-15T23:43:26.367Z</time>
      </trkpt>
      <trkpt lat="68.63243" lon="15.20866">
        <ele>7.756343</ele>
        <time>2020-07-15T23:43:29.983Z</time>
      </trkpt>
      <trkpt lat="68.63293" lon="15.20936">
        <ele>8.285913</ele>
        <time>2020-07-15T23:43:41.543Z</time>
      </trkpt>
      <trkpt lat="68.63313" lon="15.20962">
        <ele>8.498266</ele>
        <time>2020-07-15T23:43:46.383Z</time>
      </trkpt>
      <trkpt lat="68.63309" lon="15.20987">
        <ele>8.593292</ele>
        <time>2020-07-15T23:43:48.403Z</time>
      </trkpt>
      <trkpt lat="68.63302" lon="15.21049">
        <ele>8.817388</ele>
        <time>2020-07-15T23:43:53.761Z</time>
      </trkpt>
      <trkpt lat="68.63302" lon="15.21064">
        <ele>8.869475</ele>
        <time>2020-07-15T23:43:54.772Z</time>
      </trkpt>
      <trkpt lat="68.63302" lon="15.21077">
        <ele>8.916237</ele>
        <time>2020-07-15T23:43:55.806Z</time>
      </trkpt>
      <trkpt lat="68.63302" lon="15.21086">
        <ele>8.947583</ele>
        <time>2020-07-15T23:43:56.550Z</time>
      </trkpt>
      <trkpt lat="68.63303" lon="15.21096">
        <ele>8.981164</ele>
        <time>2020-07-15T23:43:57.343Z</time>
      </trkpt>
      <trkpt lat="68.63305" lon="15.21111">
        <ele>9.035033</ele>
        <time>2020-07-15T23:43:58.653Z</time>
      </trkpt>
      <trkpt lat="68.63311" lon="15.21155">
        <ele>9.115423</ele>
        <time>2020-07-15T23:44:02.306Z</time>
      </trkpt>
      <trkpt lat="68.63312" lon="15.21159">
        <ele>9.12189</ele>
        <time>2020-07-15T23:44:02.605Z</time>
      </trkpt>
      <trkpt lat="68.63315" lon="15.21189">
        <ele>9.165382</ele>
        <time>2020-07-15T23:44:04.902Z</time>
      </trkpt>
      <trkpt lat="68.63342" lon="15.21413">
        <ele>9.490129</ele>
        <time>2020-07-15T23:44:22.019Z</time>
      </trkpt>
      <trkpt lat="68.63356" lon="15.21591">
        <ele>9.740588</ele>
        <time>2020-07-15T23:44:34.467Z</time>
      </trkpt>
      <trkpt lat="68.63356" lon="15.21597">
        <ele>9.741788</ele>
        <time>2020-07-15T23:44:35.031Z</time>
      </trkpt>
      <trkpt lat="68.63357" lon="15.21641">
        <ele>9.750228</ele>
        <time>2020-07-15T23:44:37.835Z</time>
      </trkpt>
      <trkpt lat="68.63357" lon="15.21916">
        <ele>9.803122</ele>
        <time>2020-07-15T23:44:57.299Z</time>
      </trkpt>
      <trkpt lat="68.63357" lon="15.21952">
        <ele>9.809942</ele>
        <time>2020-07-15T23:44:59.458Z</time>
      </trkpt>
      <trkpt lat="68.63357" lon="15.21971">
        <ele>9.813668</ele>
        <time>2020-07-15T23:45:00.920Z</time>
      </trkpt>
      <trkpt lat="68.63358" lon="15.2202">
        <ele>9.823168</ele>
        <time>2020-07-15T23:45:04.573Z</time>
      </trkpt>
      <trkpt lat="68.63358" lon="15.22043">
        <ele>9.827582</ele>
        <time>2020-07-15T23:45:05.857Z</time>
      </trkpt>
      <trkpt lat="68.63359" lon="15.22069">
        <ele>9.832527</ele>
        <time>2020-07-15T23:45:07.596Z</time>
      </trkpt>
      <trkpt lat="68.63367" lon="15.22162">
        <ele>9.725044</ele>
        <time>2020-07-15T23:45:13.743Z</time>
      </trkpt>
      <trkpt lat="68.63369" lon="15.2218">
        <ele>9.699423</ele>
        <time>2020-07-15T23:45:15.020Z</time>
      </trkpt>
      <trkpt lat="68.63373" lon="15.22218">
        <ele>9.644629</ele>
        <time>2020-07-15T23:45:17.715Z</time>
      </trkpt>
      <trkpt lat="68.63375" lon="15.22236">
        <ele>9.61881</ele>
        <time>2020-07-15T23:45:18.753Z</time>
      </trkpt>
      <trkpt lat="68.63381" lon="15.22285">
        <ele>9.548482</ele>
        <time>2020-07-15T23:45:22.225Z</time>
      </trkpt>
      <trkpt lat="68.63382" lon="15.22302">
        <ele>9.524654</ele>
        <time>2020-07-15T23:45:23.420Z</time>
      </trkpt>
      <trkpt lat="68.63385" lon="15.22337">
        <ele>9.475356</ele>
        <time>2020-07-15T23:45:25.485Z</time>
      </trkpt>
      <trkpt lat="68.63392" lon="15.22407">
        <ele>9.375727</ele>
        <time>2020-07-15T23:45:30.371Z</time>
      </trkpt>
      <trkpt lat="68.63393" lon="15.2242">
        <ele>9.357201</ele>
        <time>2020-07-15T23:45:31.141Z</time>
      </trkpt>
      <trkpt lat="68.63394" lon="15.22428">
        <ele>9.345669</ele>
        <time>2020-07-15T23:45:31.650Z</time>
      </trkpt>
      <trkpt lat="68.63394" lon="15.22438">
        <ele>9.331606</ele>
        <time>2020-07-15T23:45:32.326Z</time>
      </trkpt>
      <trkpt lat="68.63397" lon="15.22467">
        <ele>9.29176</ele>
        <time>2020-07-15T23:45:34.296Z</time>
      </trkpt>
      <trkpt lat="68.63401" lon="15.22513">
        <ele>9.225834</ele>
        <time>2020-07-15T23:45:37.385Z</time>
      </trkpt>
      <trkpt lat="68.63404" lon="15.22543">
        <ele>9.18307</ele>
        <time>2020-07-15T23:45:39.278Z</time>
      </trkpt>
      <trkpt lat="68.6341" lon="15.22592">
        <ele>9.066733</ele>
        <time>2020-07-15T23:45:42.784Z</time>
      </trkpt>
      <trkpt lat="68.63429" lon="15.22747">
        <ele>8.617843</ele>
        <time>2020-07-15T23:45:52.524Z</time>
      </trkpt>
      <trkpt lat="68.63432" lon="15.22787">
        <ele>8.505036</ele>
        <time>2020-07-15T23:45:54.982Z</time>
      </trkpt>
      <trkpt lat="68.63436" lon="15.22837">
        <ele>8.364748</ele>
        <time>2020-07-15T23:45:57.901Z</time>
      </trkpt>
      <trkpt lat="68.63437" lon="15.22868">
        <ele>8.278216</ele>
        <time>2020-07-15T23:45:59.730Z</time>
      </trkpt>
      <trkpt lat="68.63438" lon="15.22893">
        <ele>8.209097</ele>
        <time>2020-07-15T23:46:01.282Z</time>
      </trkpt>
      <trkpt lat="68.63438" lon="15.22899">
        <ele>8.192804</ele>
        <time>2020-07-15T23:46:01.631Z</time>
      </trkpt>
      <trkpt lat="68.63434" lon="15.23011">
        <ele>7.884265</ele>
        <time>2020-07-15T23:46:08.417Z</time>
      </trkpt>
      <trkpt lat="68.63434" lon="15.23015">
        <ele>7.871591</ele>
        <time>2020-07-15T23:46:08.689Z</time>
      </trkpt>
      <trkpt lat="68.63428" lon="15.23072">
        <ele>7.762352</ele>
        <time>2020-07-15T23:46:12.348Z</time>
      </trkpt>
      <trkpt lat="68.63427" lon="15.23095">
        <ele>7.735107</ele>
        <time>2020-07-15T23:46:13.886Z</time>
      </trkpt>
      <trkpt lat="68.63424" lon="15.23113">
        <ele>7.712813</ele>
        <time>2020-07-15T23:46:15.089Z</time>
      </trkpt>
      <trkpt lat="68.63415" lon="15.23195">
        <ele>7.614267</ele>
        <time>2020-07-15T23:46:20.626Z</time>
      </trkpt>
      <trkpt lat="68.6341" lon="15.23249">
        <ele>7.551054</ele>
        <time>2020-07-15T23:46:24.170Z</time>
      </trkpt>
      <trkpt lat="68.63409" lon="15.23272">
        <ele>7.523265</ele>
        <time>2020-07-15T23:46:25.857Z</time>
      </trkpt>
      <trkpt lat="68.63405" lon="15.23326">
        <ele>7.460542</ele>
        <time>2020-07-15T23:46:29.394Z</time>
      </trkpt>
      <trkpt lat="68.63405" lon="15.23332">
        <ele>7.453524</ele>
        <time>2020-07-15T23:46:29.775Z</time>
      </trkpt>
      <trkpt lat="68.63404" lon="15.2335">
        <ele>7.432525</ele>
        <time>2020-07-15T23:46:31.075Z</time>
      </trkpt>
      <trkpt lat="68.63402" lon="15.23422">
        <ele>7.3497</ele>
        <time>2020-07-15T23:46:35.672Z</time>
      </trkpt>
      <trkpt lat="68.63402" lon="15.23452">
        <ele>7.314357</ele>
        <time>2020-07-15T23:46:37.765Z</time>
      </trkpt>
      <trkpt lat="68.63402" lon="15.23458">
        <ele>7.307561</ele>
        <time>2020-07-15T23:46:38.175Z</time>
      </trkpt>
      <trkpt lat="68.63401" lon="15.23472">
        <ele>7.292001</ele>
        <time>2020-07-15T23:46:39.090Z</time>
      </trkpt>
      <trkpt lat="68.634" lon="15.23508">
        <ele>7.250294</ele>
        <time>2020-07-15T23:46:41.352Z</time>
      </trkpt>
      <trkpt lat="68.63401" lon="15.23558">
        <ele>7.192827</ele>
        <time>2020-07-15T23:46:44.740Z</time>
      </trkpt>
      <trkpt lat="68.63406" lon="15.23653">
        <ele>7.084705</ele>
        <time>2020-07-15T23:46:50.961Z</time>
      </trkpt>
      <trkpt lat="68.63416" lon="15.23725">
        <ele>6.997876</ele>
        <time>2020-07-15T23:46:56.037Z</time>
      </trkpt>
      <trkpt lat="68.63422" lon="15.23762">
        <ele>6.951811</ele>
        <time>2020-07-15T23:46:58.856Z</time>
      </trkpt>
      <trkpt lat="68.63428" lon="15.23804">
        <ele>6.90173</ele>
        <time>2020-07-15T23:47:01.638Z</time>
      </trkpt>
      <trkpt lat="68.63449" lon="15.23934">
        <ele>6.739628</ele>
        <time>2020-07-15T23:47:10.997Z</time>
      </trkpt>
      <trkpt lat="68.63456" lon="15.2398">
        <ele>6.683497</ele>
        <time>2020-07-15T23:47:13.984Z</time>
      </trkpt>
      <trkpt lat="68.63459" lon="15.23995">
        <ele>6.663166</ele>
        <time>2020-07-15T23:47:15.155Z</time>
      </trkpt>
      <trkpt lat="68.63463" lon="15.24012">
        <ele>6.640948</ele>
        <time>2020-07-15T23:47:16.388Z</time>
      </trkpt>
      <trkpt lat="68.63468" lon="15.24036">
        <ele>6.609241</ele>
        <time>2020-07-15T23:47:17.958Z</time>
      </trkpt>
      <trkpt lat="68.63482" lon="15.24104">
        <ele>6.517093</ele>
        <time>2020-07-15T23:47:22.916Z</time>
      </trkpt>
      <trkpt lat="68.63485" lon="15.24119">
        <ele>6.497181</ele>
        <time>2020-07-15T23:47:23.870Z</time>
      </trkpt>
      <trkpt lat="68.63513" lon="15.24266">
        <ele>6.304644</ele>
        <time>2020-07-15T23:47:34.277Z</time>
      </trkpt>
      <trkpt lat="68.63515" lon="15.24282">
        <ele>6.285713</ele>
        <time>2020-07-15T23:47:35.267Z</time>
      </trkpt>
      <trkpt lat="68.63516" lon="15.2429">
        <ele>6.275981</ele>
        <time>2020-07-15T23:47:35.758Z</time>
      </trkpt>
      <trkpt lat="68.63535" lon="15.24484">
        <ele>6.255586</ele>
        <time>2020-07-15T23:47:49.485Z</time>
      </trkpt>
      <trkpt lat="68.63537" lon="15.24494">
        <ele>6.289211</ele>
        <time>2020-07-15T23:47:50.278Z</time>
      </trkpt>
      <trkpt lat="68.6354" lon="15.24518">
        <ele>6.370763</ele>
        <time>2020-07-15T23:47:52.239Z</time>
      </trkpt>
      <trkpt lat="68.63545" lon="15.24551">
        <ele>6.481826</ele>
        <time>2020-07-15T23:47:54.846Z</time>
      </trkpt>
      <trkpt lat="68.63547" lon="15.24561">
        <ele>6.519761</ele>
        <time>2020-07-15T23:47:55.655Z</time>
      </trkpt>
      <trkpt lat="68.6355" lon="15.24575">
        <ele>6.570618</ele>
        <time>2020-07-15T23:47:56.901Z</time>
      </trkpt>
      <trkpt lat="68.63558" lon="15.24613">
        <ele>6.710951</ele>
        <time>2020-07-15T23:48:00.431Z</time>
      </trkpt>
      <trkpt lat="68.63564" lon="15.24638">
        <ele>6.804202</ele>
        <time>2020-07-15T23:48:02.590Z</time>
      </trkpt>
      <trkpt lat="68.63564" lon="15.24641">
        <ele>6.814188</ele>
        <time>2020-07-15T23:48:02.813Z</time>
      </trkpt>
      <trkpt lat="68.63572" lon="15.24671">
        <ele>6.931944</ele>
        <time>2020-07-15T23:48:05.795Z</time>
      </trkpt>
      <trkpt lat="68.63582" lon="15.24712">
        <ele>7.085898</ele>
        <time>2020-07-15T23:48:09.661Z</time>
      </trkpt>
      <trkpt lat="68.636" lon="15.24791">
        <ele>7.381396</ele>
        <time>2020-07-15T23:48:17.433Z</time>
      </trkpt>
      <trkpt lat="68.63608" lon="15.24827">
        <ele>7.515855</ele>
        <time>2020-07-15T23:48:21.001Z</time>
      </trkpt>
      <trkpt lat="68.6363" lon="15.24916">
        <ele>7.872399</ele>
        <time>2020-07-15T23:48:30.023Z</time>
      </trkpt>
      <trkpt lat="68.63634" lon="15.24932">
        <ele>7.940597</ele>
        <time>2020-07-15T23:48:31.800Z</time>
      </trkpt>
      <trkpt lat="68.63648" lon="15.24987">
        <ele>8.175358</ele>
        <time>2020-07-15T23:48:37.269Z</time>
      </trkpt>
      <trkpt lat="68.63651" lon="15.24996">
        <ele>8.217029</ele>
        <time>2020-07-15T23:48:38.372Z</time>
      </trkpt>
      <trkpt lat="68.63657" lon="15.25011">
        <ele>8.293711</ele>
        <time>2020-07-15T23:48:40.281Z</time>
      </trkpt>
      <trkpt lat="68.63665" lon="15.2503">
        <ele>8.394271</ele>
        <time>2020-07-15T23:48:42.524Z</time>
      </trkpt>
      <trkpt lat="68.63672" lon="15.25046">
        <ele>8.484888</ele>
        <time>2020-07-15T23:48:44.548Z</time>
      </trkpt>
      <trkpt lat="68.63674" lon="15.25049">
        <ele>8.504571</ele>
        <time>2020-07-15T23:48:45.084Z</time>
      </trkpt>
      <trkpt lat="68.63742" lon="15.25115">
        <ele>9.194974</ele>
        <time>2020-07-15T23:49:00.353Z</time>
      </trkpt>
      <trkpt lat="68.63753" lon="15.25127">
        <ele>9.311685</ele>
        <time>2020-07-15T23:49:02.986Z</time>
      </trkpt>
      <trkpt lat="68.63761" lon="15.25136">
        <ele>9.381074</ele>
        <time>2020-07-15T23:49:04.539Z</time>
      </trkpt>
      <trkpt lat="68.63798" lon="15.25199">
        <ele>9.421682</ele>
        <time>2020-07-15T23:49:12.742Z</time>
      </trkpt>
      <trkpt lat="68.63799" lon="15.25202">
        <ele>9.423524</ele>
        <time>2020-07-15T23:49:13.119Z</time>
      </trkpt>
      <trkpt lat="68.63805" lon="15.25219">
        <ele>9.431515</ele>
        <time>2020-07-15T23:49:14.709Z</time>
      </trkpt>
      <trkpt lat="68.63812" lon="15.25244">
        <ele>9.442731</ele>
        <time>2020-07-15T23:49:16.939Z</time>
      </trkpt>
      <trkpt lat="68.6382" lon="15.25275">
        <ele>9.455442</ele>
        <time>2020-07-15T23:49:19.466Z</time>
      </trkpt>
      <trkpt lat="68.63834" lon="15.25338">
        <ele>9.481159</ele>
        <time>2020-07-15T23:49:24.466Z</time>
      </trkpt>
      <trkpt lat="68.63861" lon="15.25454">
        <ele>9.528396</ele>
        <time>2020-07-15T23:49:33.781Z</time>
      </trkpt>
      <trkpt lat="68.63868" lon="15.25484">
        <ele>9.540792</ele>
        <time>2020-07-15T23:49:36.029Z</time>
      </trkpt>
      <trkpt lat="68.63873" lon="15.25509">
        <ele>9.551251</ele>
        <time>2020-07-15T23:49:38.082Z</time>
      </trkpt>
      <trkpt lat="68.63901" lon="15.25593">
        <ele>9.608487</ele>
        <time>2020-07-15T23:49:45.784Z</time>
      </trkpt>
      <trkpt lat="68.63955" lon="15.25702">
        <ele>9.70051</ele>
        <time>2020-07-15T23:49:58.367Z</time>
      </trkpt>
      <trkpt lat="68.6396" lon="15.25718">
        <ele>9.711087</ele>
        <time>2020-07-15T23:49:59.981Z</time>
      </trkpt>
      <trkpt lat="68.63962" lon="15.25723">
        <ele>9.714143</ele>
        <time>2020-07-15T23:50:00.359Z</time>
      </trkpt>
      <trkpt lat="68.64005" lon="15.25901">
        <ele>9.783227</ele>
        <time>2020-07-15T23:50:15.597Z</time>
      </trkpt>
      <trkpt lat="68.64081" lon="15.26135">
        <ele>9.686678</ele>
        <time>2020-07-15T23:50:37.415Z</time>
      </trkpt>
      <trkpt lat="68.64087" lon="15.2615">
        <ele>9.679847</ele>
        <time>2020-07-15T23:50:38.933Z</time>
      </trkpt>
      <trkpt lat="68.64109" lon="15.26213">
        <ele>9.65359</ele>
        <time>2020-07-15T23:50:44.273Z</time>
      </trkpt>
      <trkpt lat="68.64115" lon="15.26234">
        <ele>9.627325</ele>
        <time>2020-07-15T23:50:46.035Z</time>
      </trkpt>
      <trkpt lat="68.6413" lon="15.26333">
        <ele>9.140976</ele>
        <time>2020-07-15T23:50:52.356Z</time>
      </trkpt>
      <trkpt lat="68.64132" lon="15.26356">
        <ele>9.034848</ele>
        <time>2020-07-15T23:50:53.734Z</time>
      </trkpt>
      <trkpt lat="68.64132" lon="15.26366">
        <ele>8.989618</ele>
        <time>2020-07-15T23:50:54.285Z</time>
      </trkpt>
      <trkpt lat="68.64135" lon="15.26394">
        <ele>8.857963</ele>
        <time>2020-07-15T23:50:55.992Z</time>
      </trkpt>
      <trkpt lat="68.64139" lon="15.26424">
        <ele>8.710844</ele>
        <time>2020-07-15T23:50:57.943Z</time>
      </trkpt>
      <trkpt lat="68.64149" lon="15.26504">
        <ele>8.325924</ele>
        <time>2020-07-15T23:51:02.882Z</time>
      </trkpt>
      <trkpt lat="68.64155" lon="15.26541">
        <ele>8.141902</ele>
        <time>2020-07-15T23:51:05.139Z</time>
      </trkpt>
      <trkpt lat="68.64157" lon="15.26555">
        <ele>8.071726</ele>
        <time>2020-07-15T23:51:05.980Z</time>
      </trkpt>
      <trkpt lat="68.64166" lon="15.26599">
        <ele>7.844243</ele>
        <time>2020-07-15T23:51:08.811Z</time>
      </trkpt>
      <trkpt lat="68.6417" lon="15.26611">
        <ele>7.769674</ele>
        <time>2020-07-15T23:51:09.687Z</time>
      </trkpt>
      <trkpt lat="68.64179" lon="15.2664">
        <ele>7.599464</ele>
        <time>2020-07-15T23:51:11.794Z</time>
      </trkpt>
      <trkpt lat="68.6418" lon="15.26645">
        <ele>7.567426</ele>
        <time>2020-07-15T23:51:12.146Z</time>
      </trkpt>
      <trkpt lat="68.6423" lon="15.2681">
        <ele>6.155094</ele>
        <time>2020-07-15T23:51:23.702Z</time>
      </trkpt>
      <trkpt lat="68.64236" lon="15.26836">
        <ele>5.942073</ele>
        <time>2020-07-15T23:51:25.349Z</time>
      </trkpt>
      <trkpt lat="68.64247" lon="15.26876">
        <ele>5.586568</ele>
        <time>2020-07-15T23:51:27.971Z</time>
      </trkpt>
      <trkpt lat="68.6425" lon="15.26892">
        <ele>5.454078</ele>
        <time>2020-07-15T23:51:28.980Z</time>
      </trkpt>
      <trkpt lat="68.64254" lon="15.26906">
        <ele>5.329682</ele>
        <time>2020-07-15T23:51:29.974Z</time>
      </trkpt>
      <trkpt lat="68.64262" lon="15.26933">
        <ele>5.087713</ele>
        <time>2020-07-15T23:51:31.793Z</time>
      </trkpt>
      <trkpt lat="68.64269" lon="15.2696">
        <ele>4.846871</ele>
        <time>2020-07-15T23:51:33.603Z</time>
      </trkpt>
      <trkpt lat="68.64274" lon="15.26978">
        <ele>4.688096</ele>
        <time>2020-07-15T23:51:34.855Z</time>
      </trkpt>
      <trkpt lat="68.64278" lon="15.26994">
        <ele>4.551095</ele>
        <time>2020-07-15T23:51:35.919Z</time>
      </trkpt>
      <trkpt lat="68.64282" lon="15.27007">
        <ele>4.435732</ele>
        <time>2020-07-15T23:51:36.822Z</time>
      </trkpt>
      <trkpt lat="68.64291" lon="15.27039">
        <ele>4.149754</ele>
        <time>2020-07-15T23:51:39.082Z</time>
      </trkpt>
      <trkpt lat="68.64318" lon="15.27146">
        <ele>3.367333</ele>
        <time>2020-07-15T23:51:46.157Z</time>
      </trkpt>
      <trkpt lat="68.64323" lon="15.27167">
        <ele>3.224979</ele>
        <time>2020-07-15T23:51:47.495Z</time>
      </trkpt>
      <trkpt lat="68.64331" lon="15.27196">
        <ele>3.019609</ele>
        <time>2020-07-15T23:51:49.490Z</time>
      </trkpt>
      <trkpt lat="68.64336" lon="15.27215">
        <ele>2.886478</ele>
        <time>2020-07-15T23:51:50.752Z</time>
      </trkpt>
      <trkpt lat="68.64369" lon="15.27366">
        <ele>1.891796</ele>
        <time>2020-07-15T23:52:00.532Z</time>
      </trkpt>
      <trkpt lat="68.64377" lon="15.27402">
        <ele>1.646652</ele>
        <time>2020-07-15T23:52:03.000Z</time>
      </trkpt>
      <trkpt lat="68.64379" lon="15.27408">
        <ele>1.605004</ele>
        <time>2020-07-15T23:52:03.434Z</time>
      </trkpt>
      <trkpt lat="68.64392" lon="15.27465">
        <ele>1.225613</ele>
        <time>2020-07-15T23:52:07.334Z</time>
      </trkpt>
      <trkpt lat="68.64397" lon="15.27495">
        <ele>1.092019</ele>
        <time>2020-07-15T23:52:09.322Z</time>
      </trkpt>
      <trkpt lat="68.64403" lon="15.2752">
        <ele>1.040832</ele>
        <time>2020-07-15T23:52:11.021Z</time>
      </trkpt>
      <trkpt lat="68.64418" lon="15.27578">
        <ele>0.912865</ele>
        <time>2020-07-15T23:52:15.350Z</time>
      </trkpt>
      <trkpt lat="68.64431" lon="15.27624">
        <ele>0.81058</ele>
        <time>2020-07-15T23:52:18.941Z</time>
      </trkpt>
      <trkpt lat="68.64437" lon="15.27645">
        <ele>0.764966</ele>
        <time>2020-07-15T23:52:20.547Z</time>
      </trkpt>
      <trkpt lat="68.64453" lon="15.27695">
        <ele>0.645162</ele>
        <time>2020-07-15T23:52:24.815Z</time>
      </trkpt>
      <trkpt lat="68.64461" lon="15.27721">
        <ele>0.585097</ele>
        <time>2020-07-15T23:52:26.943Z</time>
      </trkpt>
      <trkpt lat="68.64474" lon="15.27762">
        <ele>0.491611</ele>
        <time>2020-07-15T23:52:30.366Z</time>
      </trkpt>
      <trkpt lat="68.64487" lon="15.27808">
        <ele>0.386542</ele>
        <time>2020-07-15T23:52:34.358Z</time>
      </trkpt>
      <trkpt lat="68.64496" lon="15.27838">
        <ele>0.319639</ele>
        <time>2020-07-15T23:52:36.856Z</time>
      </trkpt>
      <trkpt lat="68.64501" lon="15.27859">
        <ele>0.274219</ele>
        <time>2020-07-15T23:52:38.602Z</time>
      </trkpt>
      <trkpt lat="68.64509" lon="15.27886">
        <ele>0.25598</ele>
        <time>2020-07-15T23:52:40.938Z</time>
      </trkpt>
      <trkpt lat="68.64514" lon="15.27904">
        <ele>0.272501</ele>
        <time>2020-07-15T23:52:42.667Z</time>
      </trkpt>
      <trkpt lat="68.64548" lon="15.28032">
        <ele>0.377488</ele>
        <time>2020-07-15T23:52:53.629Z</time>
      </trkpt>
      <trkpt lat="68.64549" lon="15.28035">
        <ele>0.379803</ele>
        <time>2020-07-15T23:52:53.898Z</time>
      </trkpt>
      <trkpt lat="68.64576" lon="15.2814">
        <ele>0.465324</ele>
        <time>2020-07-15T23:53:02.910Z</time>
      </trkpt>
      <trkpt lat="68.64594" lon="15.28254">
        <ele>0.548381</ele>
        <time>2020-07-15T23:53:11.750Z</time>
      </trkpt>
      <trkpt lat="68.64602" lon="15.28386">
        <ele>0.637294</ele>
        <time>2020-07-15T23:53:21.255Z</time>
      </trkpt>
      <trkpt lat="68.64604" lon="15.28485">
        <ele>0.703373</ele>
        <time>2020-07-15T23:53:28.250Z</time>
      </trkpt>
      <trkpt lat="68.64604" lon="15.2851">
        <ele>0.71997</ele>
        <time>2020-07-15T23:53:30.053Z</time>
      </trkpt>
      <trkpt lat="68.64608" lon="15.28538">
        <ele>0.739724</ele>
        <time>2020-07-15T23:53:32.050Z</time>
      </trkpt>
      <trkpt lat="68.64609" lon="15.28544">
        <ele>0.745178</ele>
        <time>2020-07-15T23:53:32.593Z</time>
      </trkpt>
      <trkpt lat="68.64626" lon="15.28532">
        <ele>0.776531</ele>
        <time>2020-07-15T23:53:35.783Z</time>
      </trkpt>
      <trkpt lat="68.64633" lon="15.28532">
        <ele>0.790264</ele>
        <time>2020-07-15T23:53:37.218Z</time>
      </trkpt>
      <trkpt lat="68.64635" lon="15.2856">
        <ele>0.809188</ele>
        <time>2020-07-15T23:53:39.007Z</time>
      </trkpt>
      <trkpt lat="68.64645" lon="15.28684">
        <ele>0.893672</ele>
        <time>2020-07-15T23:53:47.439Z</time>
      </trkpt>
      <trkpt lat="68.64654" lon="15.28759">
        <ele>0.908622</ele>
        <time>2020-07-15T23:53:52.598Z</time>
      </trkpt>
      <trkpt lat="68.64659" lon="15.28803">
        <ele>0.912792</ele>
        <time>2020-07-15T23:53:55.727Z</time>
      </trkpt>
      <trkpt lat="68.64687" lon="15.28987">
        <ele>0.930763</ele>
        <time>2020-07-15T23:54:08.743Z</time>
      </trkpt>
      <trkpt lat="68.64696" lon="15.29036">
        <ele>0.935795</ele>
        <time>2020-07-15T23:54:12.312Z</time>
      </trkpt>
      <trkpt lat="68.64701" lon="15.29063">
        <ele>0.93852</ele>
        <time>2020-07-15T23:54:14.289Z</time>
      </trkpt>
      <trkpt lat="68.6474" lon="15.29234">
        <ele>0.886091</ele>
        <time>2020-07-15T23:54:27.208Z</time>
      </trkpt>
      <trkpt lat="68.64756" lon="15.29296">
        <ele>0.84063</ele>
        <time>2020-07-15T23:54:32.094Z</time>
      </trkpt>
      <trkpt lat="68.64787" lon="15.2941">
        <ele>0.757492</ele>
        <time>2020-07-15T23:54:40.926Z</time>
      </trkpt>
      <trkpt lat="68.64802" lon="15.29469">
        <ele>0.714227</ele>
        <time>2020-07-15T23:54:45.524Z</time>
      </trkpt>
      <trkpt lat="68.64838" lon="15.296">
        <ele>0.623682</ele>
        <time>2020-07-15T23:54:55.885Z</time>
      </trkpt>
      <trkpt lat="68.6485" lon="15.29645">
        <ele>0.596028</ele>
        <time>2020-07-15T23:54:59.393Z</time>
      </trkpt>
      <trkpt lat="68.64869" lon="15.29718">
        <ele>0.55168</ele>
        <time>2020-07-15T23:55:05.073Z</time>
      </trkpt>
      <trkpt lat="68.64904" lon="15.29866">
        <ele>0.464215</ele>
        <time>2020-07-15T23:55:16.307Z</time>
      </trkpt>
      <trkpt lat="68.64907" lon="15.29881">
        <ele>0.455887</ele>
        <time>2020-07-15T23:55:17.365Z</time>
      </trkpt>
      <trkpt lat="68.6491" lon="15.29899">
        <ele>0.445926</ele>
        <time>2020-07-15T23:55:18.650Z</time>
      </trkpt>
      <trkpt lat="68.64922" lon="15.29987">
        <ele>0.405531</ele>
        <time>2020-07-15T23:55:24.578Z</time>
      </trkpt>
      <trkpt lat="68.64924" lon="15.30012">
        <ele>0.399082</ele>
        <time>2020-07-15T23:55:26.307Z</time>
      </trkpt>
      <trkpt lat="68.64927" lon="15.30043">
        <ele>0.391352</ele>
        <time>2020-07-15T23:55:28.358Z</time>
      </trkpt>
      <trkpt lat="68.64935" lon="15.30134">
        <ele>0.368478</ele>
        <time>2020-07-15T23:55:34.441Z</time>
      </trkpt>
      <trkpt lat="68.6494" lon="15.30192">
        <ele>0.354014</ele>
        <time>2020-07-15T23:55:38.259Z</time>
      </trkpt>
      <trkpt lat="68.64952" lon="15.30314">
        <ele>0.323313</ele>
        <time>2020-07-15T23:55:46.429Z</time>
      </trkpt>
      <trkpt lat="68.64967" lon="15.30409">
        <ele>0.297973</ele>
        <time>2020-07-15T23:55:53.088Z</time>
      </trkpt>
      <trkpt lat="68.65048" lon="15.30738">
        <ele>0.314002</ele>
        <time>2020-07-15T23:56:18.601Z</time>
      </trkpt>
      <trkpt lat="68.65056" lon="15.30787">
        <ele>0.317432</ele>
        <time>2020-07-15T23:56:22.191Z</time>
      </trkpt>
      <trkpt lat="68.65063" lon="15.30835">
        <ele>0.320728</ele>
        <time>2020-07-15T23:56:25.633Z</time>
      </trkpt>
      <trkpt lat="68.6508" lon="15.30979">
        <ele>0.388591</ele>
        <time>2020-07-15T23:56:35.814Z</time>
      </trkpt>
      <trkpt lat="68.65096" lon="15.3113">
        <ele>0.469991</ele>
        <time>2020-07-15T23:56:46.441Z</time>
      </trkpt>
      <trkpt lat="68.65099" lon="15.31142">
        <ele>0.477316</ele>
        <time>2020-07-15T23:56:47.422Z</time>
      </trkpt>
      <trkpt lat="68.65104" lon="15.31173">
        <ele>0.494384</ele>
        <time>2020-07-15T23:56:49.692Z</time>
      </trkpt>
      <trkpt lat="68.65109" lon="15.31218">
        <ele>0.519055</ele>
        <time>2020-07-15T23:56:52.861Z</time>
      </trkpt>
      <trkpt lat="68.65112" lon="15.31242">
        <ele>0.5317</ele>
        <time>2020-07-15T23:56:54.422Z</time>
      </trkpt>
      <trkpt lat="68.65127" lon="15.31381">
        <ele>0.557859</ele>
        <time>2020-07-15T23:57:04.056Z</time>
      </trkpt>
      <trkpt lat="68.65137" lon="15.31529">
        <ele>0.510357</ele>
        <time>2020-07-15T23:57:13.783Z</time>
      </trkpt>
      <trkpt lat="68.65139" lon="15.31578">
        <ele>0.494947</ele>
        <time>2020-07-15T23:57:17.101Z</time>
      </trkpt>
      <trkpt lat="68.65142" lon="15.31622">
        <ele>0.480859</ele>
        <time>2020-07-15T23:57:19.857Z</time>
      </trkpt>
      <trkpt lat="68.65156" lon="15.31842">
        <ele>0.401305</ele>
        <time>2020-07-15T23:57:33.899Z</time>
      </trkpt>
      <trkpt lat="68.65181" lon="15.32026">
        <ele>0.282822</ele>
        <time>2020-07-15T23:57:46.161Z</time>
      </trkpt>
      <trkpt lat="68.6523" lon="15.3226">
        <ele>0.123755</ele>
        <time>2020-07-15T23:58:03.227Z</time>
      </trkpt>
      <trkpt lat="68.65312" lon="15.32591">
        <ele>0.122489</ele>
        <time>2020-07-15T23:58:29.434Z</time>
      </trkpt>
      <trkpt lat="68.65321" lon="15.3262">
        <ele>0.122373</ele>
        <time>2020-07-15T23:58:31.857Z</time>
      </trkpt>
      <trkpt lat="68.65328" lon="15.32603">
        <ele>0.122295</ele>
        <time>2020-07-15T23:58:33.554Z</time>
      </trkpt>
      <trkpt lat="68.65334" lon="15.3262">
        <ele>0.122223</ele>
        <time>2020-07-15T23:58:35.100Z</time>
      </trkpt>
      <trkpt lat="68.65397" lon="15.32847">
        <ele>0.146887</ele>
        <time>2020-07-15T23:58:54.594Z</time>
      </trkpt>
      <trkpt lat="68.6541" lon="15.32889">
        <ele>0.151838</ele>
        <time>2020-07-15T23:58:58.465Z</time>
      </trkpt>
      <trkpt lat="68.6542" lon="15.32916">
        <ele>0.15508</ele>
        <time>2020-07-15T23:59:00.982Z</time>
      </trkpt>
      <trkpt lat="68.65429" lon="15.32943">
        <ele>0.158351</ele>
        <time>2020-07-15T23:59:03.495Z</time>
      </trkpt>
      <trkpt lat="68.65431" lon="15.3295">
        <ele>0.159185</ele>
        <time>2020-07-15T23:59:04.156Z</time>
      </trkpt>
      <trkpt lat="68.6547" lon="15.33092">
        <ele>0.14495</ele>
        <time>2020-07-15T23:59:16.106Z</time>
      </trkpt>
      <trkpt lat="68.65479" lon="15.33126">
        <ele>0.136949</ele>
        <time>2020-07-15T23:59:18.958Z</time>
      </trkpt>
      <trkpt lat="68.65495" lon="15.33192">
        <ele>0.12183</ele>
        <time>2020-07-15T23:59:24.225Z</time>
      </trkpt>
      <trkpt lat="68.65549" lon="15.3338">
        <ele>0.07613</ele>
        <time>2020-07-15T23:59:40.204Z</time>
      </trkpt>
      <trkpt lat="68.65569" lon="15.33444">
        <ele>0.062658</ele>
        <time>2020-07-15T23:59:45.892Z</time>
      </trkpt>
      <trkpt lat="68.6559" lon="15.33514">
        <ele>0.04949</ele>
        <time>2020-07-15T23:59:52.038Z</time>
      </trkpt>
      <trkpt lat="68.65663" lon="15.33752">
        <ele>0.004962</ele>
        <time>2020-07-16T00:00:12.976Z</time>
      </trkpt>
      <trkpt lat="68.65666" lon="15.33764">
        <ele>0.002819</ele>
        <time>2020-07-16T00:00:13.995Z</time>
      </trkpt>
      <trkpt lat="68.65714" lon="15.33916">
        <ele>3.7</ele>
        <time>2020-07-16T00:00:27.558Z</time>
      </trkpt>
      <trkpt lat="68.65717" lon="15.33922">
        <ele>3.7</ele>
        <time>2020-07-16T00:00:28.211Z</time>
      </trkpt>
      <trkpt lat="68.6572" lon="15.3393">
        <ele>3.8</ele>
        <time>2020-07-16T00:00:28.953Z</time>
      </trkpt>
      <trkpt lat="68.65741" lon="15.33988">
        <ele>4.1</ele>
        <time>2020-07-16T00:00:34.509Z</time>
      </trkpt>
      <trkpt lat="68.65746" lon="15.33999">
        <ele>3.9</ele>
        <time>2020-07-16T00:00:35.705Z</time>
      </trkpt>
      <trkpt lat="68.65755" lon="15.34022">
        <ele>3.5</ele>
        <time>2020-07-16T00:00:38.083Z</time>
      </trkpt>
      <trkpt lat="68.65775" lon="15.3407">
        <ele>3.4</ele>
        <time>2020-07-16T00:00:42.984Z</time>
      </trkpt>
      <trkpt lat="68.658" lon="15.34132">
        <ele>3.8</ele>
        <time>2020-07-16T00:00:49.269Z</time>
      </trkpt>
      <trkpt lat="68.65844" lon="15.34234">
        <ele>3.2</ele>
        <time>2020-07-16T00:00:59.944Z</time>
      </trkpt>
      <trkpt lat="68.65893" lon="15.34348">
        <ele>3.1</ele>
        <time>2020-07-16T00:01:11.853Z</time>
      </trkpt>
      <trkpt lat="68.65912" lon="15.34395">
        <ele>2.9</ele>
        <time>2020-07-16T00:01:16.648Z</time>
      </trkpt>
      <trkpt lat="68.65925" lon="15.34425">
        <ele>3.3</ele>
        <time>2020-07-16T00:01:19.836Z</time>
      </trkpt>
      <trkpt lat="68.65942" lon="15.34464">
        <ele>3.2</ele>
        <time>2020-07-16T00:01:23.960Z</time>
      </trkpt>
      <trkpt lat="68.65947" lon="15.34473">
        <ele>3.1</ele>
        <time>2020-07-16T00:01:25.094Z</time>
      </trkpt>
      <trkpt lat="68.65963" lon="15.3451">
        <ele>3.7</ele>
        <time>2020-07-16T00:01:28.919Z</time>
      </trkpt>
      <trkpt lat="68.65975" lon="15.34539">
        <ele>3.6</ele>
        <time>2020-07-16T00:01:31.894Z</time>
      </trkpt>
      <trkpt lat="68.66004" lon="15.34606">
        <ele>3</ele>
        <time>2020-07-16T00:01:38.962Z</time>
      </trkpt>
      <trkpt lat="68.66014" lon="15.34629">
        <ele>3</ele>
        <time>2020-07-16T00:01:41.322Z</time>
      </trkpt>
      <trkpt lat="68.66024" lon="15.3465">
        <ele>3</ele>
        <time>2020-07-16T00:01:43.735Z</time>
      </trkpt>
      <trkpt lat="68.66033" lon="15.3467">
        <ele>3.2</ele>
        <time>2020-07-16T00:01:45.878Z</time>
      </trkpt>
      <trkpt lat="68.66049" lon="15.34709">
        <ele>3.1</ele>
        <time>2020-07-16T00:01:49.802Z</time>
      </trkpt>
      <trkpt lat="68.66066" lon="15.34748">
        <ele>3</ele>
        <time>2020-07-16T00:01:54.020Z</time>
      </trkpt>
      <trkpt lat="68.66069" lon="15.34753">
        <ele>3</ele>
        <time>2020-07-16T00:01:54.520Z</time>
      </trkpt>
      <trkpt lat="68.6612" lon="15.34833">
        <ele>4.3</ele>
        <time>2020-07-16T00:02:05.441Z</time>
      </trkpt>
      <trkpt lat="68.66123" lon="15.3485">
        <ele>4.2</ele>
        <time>2020-07-16T00:02:06.743Z</time>
      </trkpt>
      <trkpt lat="68.66123" lon="15.34861">
        <ele>4</ele>
        <time>2020-07-16T00:02:07.474Z</time>
      </trkpt>
      <trkpt lat="68.66123" lon="15.34923">
        <ele>3.9</ele>
        <time>2020-07-16T00:02:11.493Z</time>
      </trkpt>
      <trkpt lat="68.66221" lon="15.35226">
        <ele>3.1</ele>
        <time>2020-07-16T00:02:37.830Z</time>
      </trkpt>
      <trkpt lat="68.6624" lon="15.35252">
        <ele>3.4</ele>
        <time>2020-07-16T00:02:41.655Z</time>
      </trkpt>
      <trkpt lat="68.66244" lon="15.35264">
        <ele>3.2</ele>
        <time>2020-07-16T00:02:42.687Z</time>
      </trkpt>
      <trkpt lat="68.66254" lon="15.35299">
        <ele>3.1</ele>
        <time>2020-07-16T00:02:45.588Z</time>
      </trkpt>
      <trkpt lat="68.66259" lon="15.35329">
        <ele>3.9</ele>
        <time>2020-07-16T00:02:47.718Z</time>
      </trkpt>
      <trkpt lat="68.66259" lon="15.35335">
        <ele>4</ele>
        <time>2020-07-16T00:02:48.181Z</time>
      </trkpt>
      <trkpt lat="68.6626" lon="15.35345">
        <ele>3.8</ele>
        <time>2020-07-16T00:02:48.851Z</time>
      </trkpt>
      <trkpt lat="68.66325" lon="15.3556">
        <ele>0.011589</ele>
        <time>2020-07-16T00:03:07.049Z</time>
      </trkpt>
      <trkpt lat="68.66329" lon="15.3557">
        <ele>0.013393</ele>
        <time>2020-07-16T00:03:08.092Z</time>
      </trkpt>
      <trkpt lat="68.66342" lon="15.356">
        <ele>0.018577</ele>
        <time>2020-07-16T00:03:11.075Z</time>
      </trkpt>
      <trkpt lat="68.66348" lon="15.35616">
        <ele>0.021287</ele>
        <time>2020-07-16T00:03:12.641Z</time>
      </trkpt>
      <trkpt lat="68.66364" lon="15.35655">
        <ele>0.027806</ele>
        <time>2020-07-16T00:03:16.406Z</time>
      </trkpt>
      <trkpt lat="68.66494" lon="15.35945">
        <ele>0.339667</ele>
        <time>2020-07-16T00:03:46.603Z</time>
      </trkpt>
      <trkpt lat="68.66542" lon="15.36074">
        <ele>0.588001</ele>
        <time>2020-07-16T00:03:59.569Z</time>
      </trkpt>
      <trkpt lat="68.66556" lon="15.36119">
        <ele>0.669093</ele>
        <time>2020-07-16T00:04:04.021Z</time>
      </trkpt>
      <trkpt lat="68.66566" lon="15.36151">
        <ele>0.732871</ele>
        <time>2020-07-16T00:04:06.827Z</time>
      </trkpt>
      <trkpt lat="68.66591" lon="15.36234">
        <ele>1.148976</ele>
        <time>2020-07-16T00:04:14.832Z</time>
      </trkpt>
      <trkpt lat="68.66594" lon="15.36241">
        <ele>1.197338</ele>
        <time>2020-07-16T00:04:15.731Z</time>
      </trkpt>
      <trkpt lat="68.66598" lon="15.36249">
        <ele>1.248993</ele>
        <time>2020-07-16T00:04:17.016Z</time>
      </trkpt>
      <trkpt lat="68.66662" lon="15.36482">
        <ele>2.381689</ele>
        <time>2020-07-16T00:04:39.741Z</time>
      </trkpt>
      <trkpt lat="68.66685" lon="15.36564">
        <ele>2.781271</ele>
        <time>2020-07-16T00:04:48.185Z</time>
      </trkpt>
      <trkpt lat="68.66728" lon="15.36713">
        <ele>3.50196</ele>
        <time>2020-07-16T00:05:03.260Z</time>
      </trkpt>
      <trkpt lat="68.66734" lon="15.36731">
        <ele>3.589701</ele>
        <time>2020-07-16T00:05:05.049Z</time>
      </trkpt>
      <trkpt lat="68.66737" lon="15.36737">
        <ele>3.631174</ele>
        <time>2020-07-16T00:05:05.985Z</time>
      </trkpt>
      <trkpt lat="68.6674" lon="15.36743">
        <ele>3.675655</ele>
        <time>2020-07-16T00:05:07.054Z</time>
      </trkpt>
      <trkpt lat="68.66794" lon="15.36925">
        <ele>4.516995</ele>
        <time>2020-07-16T00:05:24.556Z</time>
      </trkpt>
      <trkpt lat="68.6681" lon="15.36971">
        <ele>4.528147</ele>
        <time>2020-07-16T00:05:29.204Z</time>
      </trkpt>
      <trkpt lat="68.66845" lon="15.37068">
        <ele>4.552253</ele>
        <time>2020-07-16T00:05:38.567Z</time>
      </trkpt>
      <trkpt lat="68.66958" lon="15.37384">
        <ele>4.1775</ele>
        <time>2020-07-16T00:06:05.685Z</time>
      </trkpt>
      <trkpt lat="68.66994" lon="15.37485">
        <ele>3.80776</ele>
        <time>2020-07-16T00:06:13.747Z</time>
      </trkpt>
      <trkpt lat="68.67037" lon="15.37602">
        <ele>3.371315</ele>
        <time>2020-07-16T00:06:23.201Z</time>
      </trkpt>
      <trkpt lat="68.67055" lon="15.37653">
        <ele>3.195607</ele>
        <time>2020-07-16T00:06:27.333Z</time>
      </trkpt>
      <trkpt lat="68.67087" lon="15.37728">
        <ele>2.93258</ele>
        <time>2020-07-16T00:06:33.878Z</time>
      </trkpt>
      <trkpt lat="68.67114" lon="15.37776">
        <ele>2.724308</ele>
        <time>2020-07-16T00:06:39.148Z</time>
      </trkpt>
      <trkpt lat="68.67128" lon="15.37793">
        <ele>2.629314</ele>
        <time>2020-07-16T00:06:41.516Z</time>
      </trkpt>
      <trkpt lat="68.67139" lon="15.37806">
        <ele>2.552514</ele>
        <time>2020-07-16T00:06:43.540Z</time>
      </trkpt>
      <trkpt lat="68.6719" lon="15.37849">
        <ele>2.218388</ele>
        <time>2020-07-16T00:06:52.295Z</time>
      </trkpt>
      <trkpt lat="68.67198" lon="15.37855">
        <ele>2.163233</ele>
        <time>2020-07-16T00:06:53.793Z</time>
      </trkpt>
      <trkpt lat="68.67239" lon="15.37888">
        <ele>2.124862</ele>
        <time>2020-07-16T00:07:01.115Z</time>
      </trkpt>
      <trkpt lat="68.67247" lon="15.37897">
        <ele>2.116286</ele>
        <time>2020-07-16T00:07:02.801Z</time>
      </trkpt>
      <trkpt lat="68.67254" lon="15.37906">
        <ele>2.110062</ele>
        <time>2020-07-16T00:07:03.974Z</time>
      </trkpt>
      <trkpt lat="68.67257" lon="15.37911">
        <ele>2.106753</ele>
        <time>2020-07-16T00:07:04.560Z</time>
      </trkpt>
      <trkpt lat="68.67395" lon="15.38123">
        <ele>2</ele>
        <time>2020-07-16T00:07:32.705Z</time>
      </trkpt>
      <trkpt lat="68.67414" lon="15.38141">
        <ele>2</ele>
        <time>2020-07-16T00:07:36.304Z</time>
      </trkpt>
      <trkpt lat="68.67417" lon="15.38147">
        <ele>2</ele>
        <time>2020-07-16T00:07:37.051Z</time>
      </trkpt>
      <trkpt lat="68.67422" lon="15.38156">
        <ele>2</ele>
        <time>2020-07-16T00:07:38.002Z</time>
      </trkpt>
      <trkpt lat="68.67429" lon="15.38167">
        <ele>2</ele>
        <time>2020-07-16T00:07:39.558Z</time>
      </trkpt>
      <trkpt lat="68.67487" lon="15.38231">
        <ele>2</ele>
        <time>2020-07-16T00:07:50.803Z</time>
      </trkpt>
      <trkpt lat="68.67512" lon="15.38258">
        <ele>2</ele>
        <time>2020-07-16T00:07:55.459Z</time>
      </trkpt>
      <trkpt lat="68.67537" lon="15.3829">
        <ele>1.991772</ele>
        <time>2020-07-16T00:08:00.483Z</time>
      </trkpt>
      <trkpt lat="68.67542" lon="15.38297">
        <ele>1.988968</ele>
        <time>2020-07-16T00:08:01.450Z</time>
      </trkpt>
      <trkpt lat="68.67561" lon="15.38329">
        <ele>1.977186</ele>
        <time>2020-07-16T00:08:05.550Z</time>
      </trkpt>
      <trkpt lat="68.67605" lon="15.38404">
        <ele>1.950613</ele>
        <time>2020-07-16T00:08:14.757Z</time>
      </trkpt>
      <trkpt lat="68.67646" lon="15.38505">
        <ele>1.922205</ele>
        <time>2020-07-16T00:08:24.404Z</time>
      </trkpt>
      <trkpt lat="68.67664" lon="15.38572">
        <ele>1.9051</ele>
        <time>2020-07-16T00:08:29.656Z</time>
      </trkpt>
      <trkpt lat="68.67675" lon="15.38611">
        <ele>1.858594</ele>
        <time>2020-07-16T00:08:32.783Z</time>
      </trkpt>
      <trkpt lat="68.67698" lon="15.38678">
        <ele>1.772494</ele>
        <time>2020-07-16T00:08:38.473Z</time>
      </trkpt>
      <trkpt lat="68.67705" lon="15.38685">
        <ele>1.754052</ele>
        <time>2020-07-16T00:08:39.748Z</time>
      </trkpt>
      <trkpt lat="68.67709" lon="15.38688">
        <ele>1.743329</ele>
        <time>2020-07-16T00:08:40.417Z</time>
      </trkpt>
      <trkpt lat="68.67732" lon="15.38778">
        <ele>1.639677</ele>
        <time>2020-07-16T00:08:47.334Z</time>
      </trkpt>
      <trkpt lat="68.67739" lon="15.38802">
        <ele>1.609959</ele>
        <time>2020-07-16T00:08:49.278Z</time>
      </trkpt>
      <trkpt lat="68.67757" lon="15.38856">
        <ele>1.542773</ele>
        <time>2020-07-16T00:08:53.778Z</time>
      </trkpt>
      <trkpt lat="68.67786" lon="15.38942">
        <ele>1.43676</ele>
        <time>2020-07-16T00:09:01.062Z</time>
      </trkpt>
      <trkpt lat="68.67808" lon="15.39004">
        <ele>1.387064</ele>
        <time>2020-07-16T00:09:06.396Z</time>
      </trkpt>
      <trkpt lat="68.67865" lon="15.39139">
        <ele>1.267741</ele>
        <time>2020-07-16T00:09:19.301Z</time>
      </trkpt>
      <trkpt lat="68.67869" lon="15.39146">
        <ele>1.260606</ele>
        <time>2020-07-16T00:09:20.106Z</time>
      </trkpt>
      <trkpt lat="68.67878" lon="15.39168">
        <ele>1.241562</ele>
        <time>2020-07-16T00:09:22.188Z</time>
      </trkpt>
      <trkpt lat="68.67884" lon="15.39182">
        <ele>1.229338</ele>
        <time>2020-07-16T00:09:23.577Z</time>
      </trkpt>
      <trkpt lat="68.67905" lon="15.39227">
        <ele>1.186468</ele>
        <time>2020-07-16T00:09:28.380Z</time>
      </trkpt>
      <trkpt lat="68.6791" lon="15.39236">
        <ele>1.177634</ele>
        <time>2020-07-16T00:09:29.387Z</time>
      </trkpt>
      <trkpt lat="68.6795" lon="15.39326">
        <ele>1.219334</ele>
        <time>2020-07-16T00:09:38.785Z</time>
      </trkpt>
      <trkpt lat="68.67953" lon="15.39332">
        <ele>1.224646</ele>
        <time>2020-07-16T00:09:39.424Z</time>
      </trkpt>
      <trkpt lat="68.67955" lon="15.3934">
        <ele>1.229673</ele>
        <time>2020-07-16T00:09:40.046Z</time>
      </trkpt>
      <trkpt lat="68.68006" lon="15.3944">
        <ele>1.320894</ele>
        <time>2020-07-16T00:09:51.225Z</time>
      </trkpt>
      <trkpt lat="68.68166" lon="15.39723">
        <ele>1.823834</ele>
        <time>2020-07-16T00:10:27.316Z</time>
      </trkpt>
      <trkpt lat="68.68252" lon="15.39876">
        <ele>2.119667</ele>
        <time>2020-07-16T00:10:46.629Z</time>
      </trkpt>
      <trkpt lat="68.6826" lon="15.3989">
        <ele>2.1418</ele>
        <time>2020-07-16T00:10:48.385Z</time>
      </trkpt>
      <trkpt lat="68.68324" lon="15.40001">
        <ele>2.316249</ele>
        <time>2020-07-16T00:11:02.414Z</time>
      </trkpt>
      <trkpt lat="68.68365" lon="15.40074">
        <ele>2.429349</ele>
        <time>2020-07-16T00:11:11.317Z</time>
      </trkpt>
      <trkpt lat="68.68371" lon="15.40086">
        <ele>2.451059</ele>
        <time>2020-07-16T00:11:12.807Z</time>
      </trkpt>
      <trkpt lat="68.68393" lon="15.40125">
        <ele>2.526413</ele>
        <time>2020-07-16T00:11:17.458Z</time>
      </trkpt>
      <trkpt lat="68.684" lon="15.40138">
        <ele>2.551584</ele>
        <time>2020-07-16T00:11:19.020Z</time>
      </trkpt>
      <trkpt lat="68.6841" lon="15.40157">
        <ele>2.586771</ele>
        <time>2020-07-16T00:11:21.250Z</time>
      </trkpt>
      <trkpt lat="68.68418" lon="15.40172">
        <ele>2.616666</ele>
        <time>2020-07-16T00:11:23.117Z</time>
      </trkpt>
      <trkpt lat="68.68469" lon="15.40283">
        <ele>2.809118</ele>
        <time>2020-07-16T00:11:35.296Z</time>
      </trkpt>
      <trkpt lat="68.68481" lon="15.4031">
        <ele>2.85342</ele>
        <time>2020-07-16T00:11:38.164Z</time>
      </trkpt>
      <trkpt lat="68.68499" lon="15.40353">
        <ele>2.925517</ele>
        <time>2020-07-16T00:11:42.965Z</time>
      </trkpt>
      <trkpt lat="68.68578" lon="15.40529">
        <ele>3.354412</ele>
        <time>2020-07-16T00:12:02.488Z</time>
      </trkpt>
      <trkpt lat="68.68601" lon="15.40571">
        <ele>3.478286</ele>
        <time>2020-07-16T00:12:07.904Z</time>
      </trkpt>
      <trkpt lat="68.68608" lon="15.40584">
        <ele>3.51699</ele>
        <time>2020-07-16T00:12:09.589Z</time>
      </trkpt>
      <trkpt lat="68.68621" lon="15.40606">
        <ele>3.58423</ele>
        <time>2020-07-16T00:12:12.582Z</time>
      </trkpt>
      <trkpt lat="68.68661" lon="15.40676">
        <ele>3.800502</ele>
        <time>2020-07-16T00:12:21.726Z</time>
      </trkpt>
      <trkpt lat="68.68682" lon="15.40713">
        <ele>3.91695</ele>
        <time>2020-07-16T00:12:26.473Z</time>
      </trkpt>
      <trkpt lat="68.68782" lon="15.40913">
        <ele>4.506419</ele>
        <time>2020-07-16T00:12:50.114Z</time>
      </trkpt>
      <trkpt lat="68.68797" lon="15.4094">
        <ele>4.594801</ele>
        <time>2020-07-16T00:12:53.856Z</time>
      </trkpt>
      <trkpt lat="68.68803" lon="15.4095">
        <ele>4.626704</ele>
        <time>2020-07-16T00:12:55.211Z</time>
      </trkpt>
      <trkpt lat="68.68817" lon="15.40969">
        <ele>4.73155</ele>
        <time>2020-07-16T00:12:58.170Z</time>
      </trkpt>
      <trkpt lat="68.68831" lon="15.4099">
        <ele>4.847549</ele>
        <time>2020-07-16T00:13:01.609Z</time>
      </trkpt>
      <trkpt lat="68.68855" lon="15.41021">
        <ele>5.030328</ele>
        <time>2020-07-16T00:13:06.906Z</time>
      </trkpt>
      <trkpt lat="68.6886" lon="15.41027">
        <ele>5.068974</ele>
        <time>2020-07-16T00:13:08.024Z</time>
      </trkpt>
      <trkpt lat="68.68867" lon="15.41035">
        <ele>5.122584</ele>
        <time>2020-07-16T00:13:09.619Z</time>
      </trkpt>
      <trkpt lat="68.68919" lon="15.41084">
        <ele>5.500372</ele>
        <time>2020-07-16T00:13:20.514Z</time>
      </trkpt>
      <trkpt lat="68.6892" lon="15.41085">
        <ele>5.510945</ele>
        <time>2020-07-16T00:13:20.923Z</time>
      </trkpt>
      <trkpt lat="68.68927" lon="15.4109">
        <ele>5.557393</ele>
        <time>2020-07-16T00:13:22.258Z</time>
      </trkpt>
      <trkpt lat="68.68941" lon="15.41099">
        <ele>5.656987</ele>
        <time>2020-07-16T00:13:25.094Z</time>
      </trkpt>
      <trkpt lat="68.68946" lon="15.41103">
        <ele>5.698199</ele>
        <time>2020-07-16T00:13:26.287Z</time>
      </trkpt>
      <trkpt lat="68.68952" lon="15.41107">
        <ele>5.736261</ele>
        <time>2020-07-16T00:13:27.341Z</time>
      </trkpt>
      <trkpt lat="68.68975" lon="15.41119">
        <ele>5.895835</ele>
        <time>2020-07-16T00:13:32.034Z</time>
      </trkpt>
      <trkpt lat="68.68982" lon="15.41123">
        <ele>5.940638</ele>
        <time>2020-07-16T00:13:33.494Z</time>
      </trkpt>
      <trkpt lat="68.69001" lon="15.41129">
        <ele>6.05463</ele>
        <time>2020-07-16T00:13:37.267Z</time>
      </trkpt>
      <trkpt lat="68.69002" lon="15.41129">
        <ele>6.064306</ele>
        <time>2020-07-16T00:13:37.628Z</time>
      </trkpt>
      <trkpt lat="68.69016" lon="15.41134">
        <ele>6.147155</ele>
        <time>2020-07-16T00:13:40.319Z</time>
      </trkpt>
      <trkpt lat="68.69023" lon="15.41136">
        <ele>6.190888</ele>
        <time>2020-07-16T00:13:41.723Z</time>
      </trkpt>
      <trkpt lat="68.69025" lon="15.41136">
        <ele>6.201774</ele>
        <time>2020-07-16T00:13:42.106Z</time>
      </trkpt>
      <trkpt lat="68.69026" lon="15.41137">
        <ele>6.209355</ele>
        <time>2020-07-16T00:13:42.418Z</time>
      </trkpt>
      <trkpt lat="68.69029" lon="15.41138">
        <ele>6.228853</ele>
        <time>2020-07-16T00:13:43.057Z</time>
      </trkpt>
      <trkpt lat="68.69056" lon="15.41145">
        <ele>6.394158</ele>
        <time>2020-07-16T00:13:48.405Z</time>
      </trkpt>
      <trkpt lat="68.69074" lon="15.4115">
        <ele>6.50174</ele>
        <time>2020-07-16T00:13:52.013Z</time>
      </trkpt>
      <trkpt lat="68.69101" lon="15.41157">
        <ele>6.663285</ele>
        <time>2020-07-16T00:13:57.264Z</time>
      </trkpt>
      <trkpt lat="68.69125" lon="15.41164">
        <ele>6.81166</ele>
        <time>2020-07-16T00:14:02.046Z</time>
      </trkpt>
      <trkpt lat="68.69137" lon="15.41167">
        <ele>6.882688</ele>
        <time>2020-07-16T00:14:04.289Z</time>
      </trkpt>
      <trkpt lat="68.69163" lon="15.41174">
        <ele>7.059691</ele>
        <time>2020-07-16T00:14:09.338Z</time>
      </trkpt>
      <trkpt lat="68.69225" lon="15.41192">
        <ele>7.537262</ele>
        <time>2020-07-16T00:14:21.794Z</time>
      </trkpt>
      <trkpt lat="68.69233" lon="15.41194">
        <ele>7.592339</ele>
        <time>2020-07-16T00:14:23.212Z</time>
      </trkpt>
      <trkpt lat="68.69296" lon="15.41212">
        <ele>8.078356</ele>
        <time>2020-07-16T00:14:36.279Z</time>
      </trkpt>
      <trkpt lat="68.69314" lon="15.41219">
        <ele>8.216889</ele>
        <time>2020-07-16T00:14:39.987Z</time>
      </trkpt>
      <trkpt lat="68.69318" lon="15.41222">
        <ele>8.24463</ele>
        <time>2020-07-16T00:14:40.769Z</time>
      </trkpt>
      <trkpt lat="68.69319" lon="15.41224">
        <ele>8.257798</ele>
        <time>2020-07-16T00:14:41.229Z</time>
      </trkpt>
      <trkpt lat="68.69389" lon="15.41246">
        <ele>9.035475</ele>
        <time>2020-07-16T00:14:56.281Z</time>
      </trkpt>
      <trkpt lat="68.69437" lon="15.41261">
        <ele>9.602002</ele>
        <time>2020-07-16T00:15:06.863Z</time>
      </trkpt>
      <trkpt lat="68.69458" lon="15.41268">
        <ele>9.850259</ele>
        <time>2020-07-16T00:15:11.462Z</time>
      </trkpt>
      <trkpt lat="68.69469" lon="15.41268">
        <ele>9.978951</ele>
        <time>2020-07-16T00:15:13.861Z</time>
      </trkpt>
      <trkpt lat="68.69474" lon="15.41267">
        <ele>10.039907</ele>
        <time>2020-07-16T00:15:15.052Z</time>
      </trkpt>
      <trkpt lat="68.69485" lon="15.41265">
        <ele>10.169969</ele>
        <time>2020-07-16T00:15:17.543Z</time>
      </trkpt>
      <trkpt lat="68.69543" lon="15.41277">
        <ele>10.701812</ele>
        <time>2020-07-16T00:15:29.756Z</time>
      </trkpt>
      <trkpt lat="68.69549" lon="15.41278">
        <ele>10.754286</ele>
        <time>2020-07-16T00:15:31.403Z</time>
      </trkpt>
      <trkpt lat="68.69595" lon="15.41292">
        <ele>11.10694</ele>
        <time>2020-07-16T00:15:41.050Z</time>
      </trkpt>
      <trkpt lat="68.69607" lon="15.41296">
        <ele>11.203633</ele>
        <time>2020-07-16T00:15:43.549Z</time>
      </trkpt>
      <trkpt lat="68.69652" lon="15.41309">
        <ele>11.549317</ele>
        <time>2020-07-16T00:15:52.484Z</time>
      </trkpt>
      <trkpt lat="68.69674" lon="15.41315">
        <ele>11.718503</ele>
        <time>2020-07-16T00:15:56.517Z</time>
      </trkpt>
      <trkpt lat="68.69684" lon="15.41315">
        <ele>11.793854</ele>
        <time>2020-07-16T00:15:58.451Z</time>
      </trkpt>
      <trkpt lat="68.69688" lon="15.41313">
        <ele>11.818029</ele>
        <time>2020-07-16T00:15:59.242Z</time>
      </trkpt>
      <trkpt lat="68.6969" lon="15.41312">
        <ele>11.817996</ele>
        <time>2020-07-16T00:15:59.610Z</time>
      </trkpt>
      <trkpt lat="68.69704" lon="15.41296">
        <ele>11.817705</ele>
        <time>2020-07-16T00:16:02.297Z</time>
      </trkpt>
      <trkpt lat="68.69714" lon="15.41299">
        <ele>11.817516</ele>
        <time>2020-07-16T00:16:04.188Z</time>
      </trkpt>
      <trkpt lat="68.69718" lon="15.41305">
        <ele>11.817436</ele>
        <time>2020-07-16T00:16:05.090Z</time>
      </trkpt>
      <trkpt lat="68.69724" lon="15.41319">
        <ele>11.81728</ele>
        <time>2020-07-16T00:16:06.604Z</time>
      </trkpt>
      <trkpt lat="68.69729" lon="15.41327">
        <ele>11.81717</ele>
        <time>2020-07-16T00:16:07.566Z</time>
      </trkpt>
      <trkpt lat="68.69733" lon="15.4133">
        <ele>11.817104</ele>
        <time>2020-07-16T00:16:08.145Z</time>
      </trkpt>
      <trkpt lat="68.6975" lon="15.4134">
        <ele>11.816776</ele>
        <time>2020-07-16T00:16:11.456Z</time>
      </trkpt>
      <trkpt lat="68.69779" lon="15.41351">
        <ele>11.816216</ele>
        <time>2020-07-16T00:16:16.623Z</time>
      </trkpt>
      <trkpt lat="68.69798" lon="15.41355">
        <ele>11.815851</ele>
        <time>2020-07-16T00:16:20.156Z</time>
      </trkpt>
      <trkpt lat="68.69851" lon="15.41365">
        <ele>11.814862</ele>
        <time>2020-07-16T00:16:29.188Z</time>
      </trkpt>
      <trkpt lat="68.69857" lon="15.41366">
        <ele>11.814739</ele>
        <time>2020-07-16T00:16:30.484Z</time>
      </trkpt>
      <trkpt lat="68.69864" lon="15.41369">
        <ele>11.804881</ele>
        <time>2020-07-16T00:16:31.661Z</time>
      </trkpt>
      <trkpt lat="68.69868" lon="15.41371">
        <ele>11.793361</ele>
        <time>2020-07-16T00:16:32.205Z</time>
      </trkpt>
      <trkpt lat="68.69884" lon="15.41387">
        <ele>11.737147</ele>
        <time>2020-07-16T00:16:35.092Z</time>
      </trkpt>
      <trkpt lat="68.69942" lon="15.41408">
        <ele>11.548824</ele>
        <time>2020-07-16T00:16:45.284Z</time>
      </trkpt>
      <trkpt lat="68.69972" lon="15.41417">
        <ele>11.449677</ele>
        <time>2020-07-16T00:16:50.601Z</time>
      </trkpt>
      <trkpt lat="68.69989" lon="15.41422">
        <ele>11.395297</ele>
        <time>2020-07-16T00:16:53.450Z</time>
      </trkpt>
      <trkpt lat="68.70107" lon="15.41425">
        <ele>10.68467</ele>
        <time>2020-07-16T00:17:12.637Z</time>
      </trkpt>
      <trkpt lat="68.70154" lon="15.41427">
        <ele>10.305588</ele>
        <time>2020-07-16T00:17:20.026Z</time>
      </trkpt>
      <trkpt lat="68.70187" lon="15.41427">
        <ele>10.037016</ele>
        <time>2020-07-16T00:17:25.320Z</time>
      </trkpt>
      <trkpt lat="68.70193" lon="15.41427">
        <ele>9.99427</ele>
        <time>2020-07-16T00:17:26.053Z</time>
      </trkpt>
      <trkpt lat="68.7026" lon="15.4142">
        <ele>9.259948</ele>
        <time>2020-07-16T00:17:36.418Z</time>
      </trkpt>
      <trkpt lat="68.70343" lon="15.41344">
        <ele>8.137639</ele>
        <time>2020-07-16T00:17:49.651Z</time>
      </trkpt>
      <trkpt lat="68.7035" lon="15.41339">
        <ele>8.054599</ele>
        <time>2020-07-16T00:17:50.661Z</time>
      </trkpt>
      <trkpt lat="68.70359" lon="15.41329">
        <ele>7.921925</ele>
        <time>2020-07-16T00:17:52.215Z</time>
      </trkpt>
      <trkpt lat="68.70383" lon="15.41313">
        <ele>7.60739</ele>
        <time>2020-07-16T00:17:55.890Z</time>
      </trkpt>
      <trkpt lat="68.70394" lon="15.41308">
        <ele>7.47277</ele>
        <time>2020-07-16T00:17:57.434Z</time>
      </trkpt>
      <trkpt lat="68.70407" lon="15.41302">
        <ele>7.251993</ele>
        <time>2020-07-16T00:17:59.376Z</time>
      </trkpt>
      <trkpt lat="68.70489" lon="15.41272">
        <ele>5.878188</ele>
        <time>2020-07-16T00:18:11.472Z</time>
      </trkpt>
      <trkpt lat="68.70504" lon="15.41265">
        <ele>5.615463</ele>
        <time>2020-07-16T00:18:13.786Z</time>
      </trkpt>
      <trkpt lat="68.70506" lon="15.41287">
        <ele>5.483392</ele>
        <time>2020-07-16T00:18:14.860Z</time>
      </trkpt>
      <trkpt lat="68.70506" lon="15.41305">
        <ele>5.374958</ele>
        <time>2020-07-16T00:18:15.868Z</time>
      </trkpt>
      <trkpt lat="68.70558" lon="15.41296">
        <ele>4.509806</ele>
        <time>2020-07-16T00:18:23.868Z</time>
      </trkpt>
      <trkpt lat="68.70565" lon="15.41302">
        <ele>4.401351</ele>
        <time>2020-07-16T00:18:24.901Z</time>
      </trkpt>
      <trkpt lat="68.70587" lon="15.41305">
        <ele>4.072588</ele>
        <time>2020-07-16T00:18:28.116Z</time>
      </trkpt>
      <trkpt lat="68.70599" lon="15.41305">
        <ele>3.893331</ele>
        <time>2020-07-16T00:18:30.020Z</time>
      </trkpt>
      <trkpt lat="68.70604" lon="15.41308">
        <ele>3.815483</ele>
        <time>2020-07-16T00:18:30.625Z</time>
      </trkpt>
      <trkpt lat="68.70616" lon="15.4134">
        <ele>3.558765</ele>
        <time>2020-07-16T00:18:33.222Z</time>
      </trkpt>
      <trkpt lat="68.70623" lon="15.41552">
        <ele>2.395379</ele>
        <time>2020-07-16T00:18:44.559Z</time>
      </trkpt>
      <trkpt lat="68.7063" lon="15.41574">
        <ele>2.239897</ele>
        <time>2020-07-16T00:18:46.068Z</time>
      </trkpt>
      <trkpt lat="68.70631" lon="15.41577">
        <ele>2.217231</ele>
        <time>2020-07-16T00:18:46.239Z</time>
      </trkpt>
      <trkpt lat="68.70631" lon="15.41604">
        <ele>2.066611</ele>
        <time>2020-07-16T00:18:47.794Z</time>
      </trkpt>
      <trkpt lat="68.70646" lon="15.42375">
        <ele>0.4177</ele>
        <time>2020-07-16T00:19:33.619Z</time>
      </trkpt>
      <trkpt lat="68.70653" lon="15.42781">
        <ele>0.296232</ele>
        <time>2020-07-16T00:19:59.780Z</time>
      </trkpt>
      <trkpt lat="68.70676" lon="15.4395">
        <ele>1.957849</ele>
        <time>2020-07-16T00:21:20.594Z</time>
      </trkpt>
      <trkpt lat="68.70677" lon="15.44">
        <ele>2.07838</ele>
        <time>2020-07-16T00:21:24.553Z</time>
      </trkpt>
      <trkpt lat="68.7068" lon="15.44129">
        <ele>2.391016</ele>
        <time>2020-07-16T00:21:34.613Z</time>
      </trkpt>
      <trkpt lat="68.7068" lon="15.44154">
        <ele>2.463975</ele>
        <time>2020-07-16T00:21:36.811Z</time>
      </trkpt>
      <trkpt lat="68.7069" lon="15.44149">
        <ele>2.547599</ele>
        <time>2020-07-16T00:21:39.000Z</time>
      </trkpt>
      <trkpt lat="68.70713" lon="15.44144">
        <ele>2.72931</ele>
        <time>2020-07-16T00:21:43.674Z</time>
      </trkpt>
      <trkpt lat="68.7071" lon="15.4416">
        <ele>2.781516</ele>
        <time>2020-07-16T00:21:45.540Z</time>
      </trkpt>
      <trkpt lat="68.7071" lon="15.44169">
        <ele>2.809083</ele>
        <time>2020-07-16T00:21:46.493Z</time>
      </trkpt>
      <trkpt lat="68.70718" lon="15.44166">
        <ele>2.876074</ele>
        <time>2020-07-16T00:21:48.123Z</time>
      </trkpt>
      <trkpt lat="68.70743" lon="15.44157">
        <ele>3.085793</ele>
        <time>2020-07-16T00:21:53.695Z</time>
      </trkpt>
      <trkpt lat="68.70779" lon="15.44147">
        <ele>3.380108</ele>
        <time>2020-07-16T00:22:01.315Z</time>
      </trkpt>
      <trkpt lat="68.70804" lon="15.44142">
        <ele>3.580596</ele>
        <time>2020-07-16T00:22:06.077Z</time>
      </trkpt>
      <trkpt lat="68.70828" lon="15.44138">
        <ele>3.780826</ele>
        <time>2020-07-16T00:22:10.952Z</time>
      </trkpt>
      <trkpt lat="68.70865" lon="15.44134">
        <ele>3.770331</ele>
        <time>2020-07-16T00:22:17.396Z</time>
      </trkpt>
      <trkpt lat="68.70972" lon="15.44122">
        <ele>3.432783</ele>
        <time>2020-07-16T00:22:35.260Z</time>
      </trkpt>
      <trkpt lat="68.70999" lon="15.44119">
        <ele>3.349462</ele>
        <time>2020-07-16T00:22:39.625Z</time>
      </trkpt>
      <trkpt lat="68.71036" lon="15.44115">
        <ele>3.208388</ele>
        <time>2020-07-16T00:22:45.752Z</time>
      </trkpt>
      <trkpt lat="68.71099" lon="15.44107">
        <ele>2.920723</ele>
        <time>2020-07-16T00:22:56.345Z</time>
      </trkpt>
      <trkpt lat="68.71189" lon="15.44096">
        <ele>2.515195</ele>
        <time>2020-07-16T00:23:11.259Z</time>
      </trkpt>
      <trkpt lat="68.7124" lon="15.44089">
        <ele>2.302169</ele>
        <time>2020-07-16T00:23:19.807Z</time>
      </trkpt>
      <trkpt lat="68.71245" lon="15.44089">
        <ele>2.284128</ele>
        <time>2020-07-16T00:23:20.495Z</time>
      </trkpt>
      <trkpt lat="68.7133" lon="15.44079">
        <ele>1.935305</ele>
        <time>2020-07-16T00:23:34.654Z</time>
      </trkpt>
      <trkpt lat="68.71349" lon="15.44076">
        <ele>1.856907</ele>
        <time>2020-07-16T00:23:37.835Z</time>
      </trkpt>
      <trkpt lat="68.71413" lon="15.44068">
        <ele>1.721304</ele>
        <time>2020-07-16T00:23:48.580Z</time>
      </trkpt>
      <trkpt lat="68.71515" lon="15.44056">
        <ele>1.662837</ele>
        <time>2020-07-16T00:24:06.411Z</time>
      </trkpt>
      <trkpt lat="68.71568" lon="15.44064">
        <ele>1.759795</ele>
        <time>2020-07-16T00:24:16.452Z</time>
      </trkpt>
      <trkpt lat="68.71619" lon="15.44096">
        <ele>2.279468</ele>
        <time>2020-07-16T00:24:26.756Z</time>
      </trkpt>
      <trkpt lat="68.71649" lon="15.44135">
        <ele>2.615821</ele>
        <time>2020-07-16T00:24:33.739Z</time>
      </trkpt>
      <trkpt lat="68.71676" lon="15.44196">
        <ele>2.967404</ele>
        <time>2020-07-16T00:24:41.282Z</time>
      </trkpt>
      <trkpt lat="68.71693" lon="15.44271">
        <ele>3.292951</ele>
        <time>2020-07-16T00:24:48.467Z</time>
      </trkpt>
      <trkpt lat="68.71722" lon="15.44485">
        <ele>4.956409</ele>
        <time>2020-07-16T00:25:07.854Z</time>
      </trkpt>
      <trkpt lat="68.71747" lon="15.44815">
        <ele>7.77541</ele>
        <time>2020-07-16T00:25:39.853Z</time>
      </trkpt>
      <trkpt lat="68.71755" lon="15.44863">
        <ele>8.349722</ele>
        <time>2020-07-16T00:25:44.413Z</time>
      </trkpt>
      <trkpt lat="68.71758" lon="15.44868">
        <ele>8.466235</ele>
        <time>2020-07-16T00:25:45.901Z</time>
      </trkpt>
      <trkpt lat="68.71767" lon="15.44995">
        <ele>9.898971</ele>
        <time>2020-07-16T00:25:58.810Z</time>
      </trkpt>
      <trkpt lat="68.71777" lon="15.45143">
        <ele>11.570896</ele>
        <time>2020-07-16T00:26:13.576Z</time>
      </trkpt>
      <trkpt lat="68.71779" lon="15.45162">
        <ele>11.793122</ele>
        <time>2020-07-16T00:26:16.241Z</time>
      </trkpt>
      <trkpt lat="68.71782" lon="15.45194">
        <ele>12.156144</ele>
        <time>2020-07-16T00:26:19.830Z</time>
      </trkpt>
      <trkpt lat="68.71792" lon="15.45272">
        <ele>13.104892</ele>
        <time>2020-07-16T00:26:28.499Z</time>
      </trkpt>
      <trkpt lat="68.71821" lon="15.45396">
        <ele>15.183521</ele>
        <time>2020-07-16T00:26:42.955Z</time>
      </trkpt>
      <trkpt lat="68.71839" lon="15.45455">
        <ele>16.267275</ele>
        <time>2020-07-16T00:26:50.838Z</time>
      </trkpt>
      <trkpt lat="68.71858" lon="15.45512">
        <ele>17.349225</ele>
        <time>2020-07-16T00:26:58.626Z</time>
      </trkpt>
      <trkpt lat="68.71943" lon="15.45761">
        <ele>22.760037</ele>
        <time>2020-07-16T00:27:40.999Z</time>
      </trkpt>
      <trkpt lat="68.71953" lon="15.45789">
        <ele>23.463683</ele>
        <time>2020-07-16T00:27:45.410Z</time>
      </trkpt>
      <trkpt lat="68.71958" lon="15.45808">
        <ele>23.887113</ele>
        <time>2020-07-16T00:27:48.073Z</time>
      </trkpt>
      <trkpt lat="68.71965" lon="15.4583">
        <ele>24.384978</ele>
        <time>2020-07-16T00:27:52.991Z</time>
      </trkpt>
      <trkpt lat="68.71994" lon="15.45977">
        <ele>27.362043</ele>
        <time>2020-07-16T00:28:13.020Z</time>
      </trkpt>
      <trkpt lat="68.72009" lon="15.46093">
        <ele>28.720504</ele>
        <time>2020-07-16T00:28:28.583Z</time>
      </trkpt>
      <trkpt lat="68.72011" lon="15.46105">
        <ele>28.70826</ele>
        <time>2020-07-16T00:28:30.379Z</time>
      </trkpt>
      <trkpt lat="68.72035" lon="15.46264">
        <ele>28.542456</ele>
        <time>2020-07-16T00:28:45.420Z</time>
      </trkpt>
      <trkpt lat="68.72063" lon="15.46364">
        <ele>28.419762</ele>
        <time>2020-07-16T00:28:53.169Z</time>
      </trkpt>
      <trkpt lat="68.72073" lon="15.46393">
        <ele>28.381529</ele>
        <time>2020-07-16T00:28:55.142Z</time>
      </trkpt>
      <trkpt lat="68.72215" lon="15.46763">
        <ele>18.403342</ele>
        <time>2020-07-16T00:29:18.024Z</time>
      </trkpt>
      <trkpt lat="68.72287" lon="15.46951">
        <ele>12.673409</ele>
        <time>2020-07-16T00:29:29.470Z</time>
      </trkpt>
      <trkpt lat="68.72365" lon="15.47166">
        <ele>6.746944</ele>
        <time>2020-07-16T00:29:42.794Z</time>
      </trkpt>
      <trkpt lat="68.72393" lon="15.4725">
        <ele>5.863856</ele>
        <time>2020-07-16T00:29:48.104Z</time>
      </trkpt>
      <trkpt lat="68.72406" lon="15.47289">
        <ele>5.462395</ele>
        <time>2020-07-16T00:29:50.688Z</time>
      </trkpt>
      <trkpt lat="68.72486" lon="15.47533">
        <ele>3.152408</ele>
        <time>2020-07-16T00:30:08.610Z</time>
      </trkpt>
      <trkpt lat="68.72491" lon="15.4755">
        <ele>3.202918</ele>
        <time>2020-07-16T00:30:09.946Z</time>
      </trkpt>
      <trkpt lat="68.725" lon="15.4758">
        <ele>3.286545</ele>
        <time>2020-07-16T00:30:12.891Z</time>
      </trkpt>
      <trkpt lat="68.72515" lon="15.47667">
        <ele>3.502108</ele>
        <time>2020-07-16T00:30:20.074Z</time>
      </trkpt>
      <trkpt lat="68.72518" lon="15.47758">
        <ele>3.704846</ele>
        <time>2020-07-16T00:30:26.728Z</time>
      </trkpt>
      <trkpt lat="68.72518" lon="15.47766">
        <ele>3.722966</ele>
        <time>2020-07-16T00:30:27.605Z</time>
      </trkpt>
      <trkpt lat="68.72517" lon="15.47782">
        <ele>3.759051</ele>
        <time>2020-07-16T00:30:28.967Z</time>
      </trkpt>
      <trkpt lat="68.72503" lon="15.47884">
        <ele>4.003644</ele>
        <time>2020-07-16T00:30:37.348Z</time>
      </trkpt>
      <trkpt lat="68.72468" lon="15.48034">
        <ele>4.423936</ele>
        <time>2020-07-16T00:30:51.120Z</time>
      </trkpt>
      <trkpt lat="68.72342" lon="15.48562">
        <ele>5.687581</ele>
        <time>2020-07-16T00:31:36.274Z</time>
      </trkpt>
      <trkpt lat="68.72316" lon="15.48688">
        <ele>5.848982</ele>
        <time>2020-07-16T00:31:45.934Z</time>
      </trkpt>
      <trkpt lat="68.72307" lon="15.48776">
        <ele>5.951656</ele>
        <time>2020-07-16T00:31:51.977Z</time>
      </trkpt>
      <trkpt lat="68.72299" lon="15.48886">
        <ele>6.004984</ele>
        <time>2020-07-16T00:31:59.193Z</time>
      </trkpt>
      <trkpt lat="68.72294" lon="15.49171">
        <ele>6.062084</ele>
        <time>2020-07-16T00:32:17.696Z</time>
      </trkpt>
      <trkpt lat="68.72278" lon="15.49303">
        <ele>6.097682</ele>
        <time>2020-07-16T00:32:26.845Z</time>
      </trkpt>
      <trkpt lat="68.72178" lon="15.49832">
        <ele>6.945911</ele>
        <time>2020-07-16T00:33:08.393Z</time>
      </trkpt>
      <trkpt lat="68.7215" lon="15.4998">
        <ele>7.241884</ele>
        <time>2020-07-16T00:33:20.186Z</time>
      </trkpt>
      <trkpt lat="68.72138" lon="15.50071">
        <ele>7.414229</ele>
        <time>2020-07-16T00:33:27.076Z</time>
      </trkpt>
      <trkpt lat="68.72128" lon="15.50189">
        <ele>7.627669</ele>
        <time>2020-07-16T00:33:35.547Z</time>
      </trkpt>
      <trkpt lat="68.72119" lon="15.50306">
        <ele>7.970873</ele>
        <time>2020-07-16T00:33:43.877Z</time>
      </trkpt>
      <trkpt lat="68.72108" lon="15.5045">
        <ele>8.39958</ele>
        <time>2020-07-16T00:33:54.520Z</time>
      </trkpt>
      <trkpt lat="68.7209" lon="15.50698">
        <ele>9.184174</ele>
        <time>2020-07-16T00:34:13.778Z</time>
      </trkpt>
      <trkpt lat="68.72088" lon="15.50727">
        <ele>9.334709</ele>
        <time>2020-07-16T00:34:16.076Z</time>
      </trkpt>
      <trkpt lat="68.72086" lon="15.50761">
        <ele>9.512043</ele>
        <time>2020-07-16T00:34:19.098Z</time>
      </trkpt>
      <trkpt lat="68.72087" lon="15.50918">
        <ele>10.321082</ele>
        <time>2020-07-16T00:34:31.600Z</time>
      </trkpt>
      <trkpt lat="68.72087" lon="15.50941">
        <ele>10.440405</ele>
        <time>2020-07-16T00:34:33.732Z</time>
      </trkpt>
      <trkpt lat="68.72091" lon="15.5111">
        <ele>11.311811</ele>
        <time>2020-07-16T00:34:47.648Z</time>
      </trkpt>
      <trkpt lat="68.72113" lon="15.51502">
        <ele>13.02554</ele>
        <time>2020-07-16T00:35:20.620Z</time>
      </trkpt>
      <trkpt lat="68.72127" lon="15.51715">
        <ele>13.364691</ele>
        <time>2020-07-16T00:35:36.288Z</time>
      </trkpt>
      <trkpt lat="68.72136" lon="15.51867">
        <ele>12.442572</ele>
        <time>2020-07-16T00:35:45.158Z</time>
      </trkpt>
      <trkpt lat="68.72145" lon="15.51989">
        <ele>11.694683</ele>
        <time>2020-07-16T00:35:51.643Z</time>
      </trkpt>
      <trkpt lat="68.72149" lon="15.52025">
        <ele>11.471435</ele>
        <time>2020-07-16T00:35:53.337Z</time>
      </trkpt>
      <trkpt lat="68.72154" lon="15.52068">
        <ele>11.203615</ele>
        <time>2020-07-16T00:35:55.593Z</time>
      </trkpt>
      <trkpt lat="68.72171" lon="15.52174">
        <ele>10.21256</ele>
        <time>2020-07-16T00:36:01.266Z</time>
      </trkpt>
      <trkpt lat="68.72173" lon="15.52183">
        <ele>10.073582</ele>
        <time>2020-07-16T00:36:01.671Z</time>
      </trkpt>
      <trkpt lat="68.72176" lon="15.52199">
        <ele>9.801528</ele>
        <time>2020-07-16T00:36:02.554Z</time>
      </trkpt>
      <trkpt lat="68.72192" lon="15.52253">
        <ele>8.838559</ele>
        <time>2020-07-16T00:36:05.774Z</time>
      </trkpt>
      <trkpt lat="68.72198" lon="15.52268">
        <ele>8.530376</ele>
        <time>2020-07-16T00:36:06.702Z</time>
      </trkpt>
      <trkpt lat="68.72208" lon="15.52294">
        <ele>8.003911</ele>
        <time>2020-07-16T00:36:08.423Z</time>
      </trkpt>
      <trkpt lat="68.72258" lon="15.52379">
        <ele>5.760381</ele>
        <time>2020-07-16T00:36:15.623Z</time>
      </trkpt>
      <trkpt lat="68.723" lon="15.52408">
        <ele>4.085493</ele>
        <time>2020-07-16T00:36:21.207Z</time>
      </trkpt>
      <trkpt lat="68.72318" lon="15.52411">
        <ele>3.670956</ele>
        <time>2020-07-16T00:36:23.496Z</time>
      </trkpt>
      <trkpt lat="68.72324" lon="15.52411">
        <ele>3.568309</ele>
        <time>2020-07-16T00:36:24.409Z</time>
      </trkpt>
      <trkpt lat="68.72388" lon="15.52393">
        <ele>2.621864</ele>
        <time>2020-07-16T00:36:33.266Z</time>
      </trkpt>
      <trkpt lat="68.72673" lon="15.52273">
        <ele>0.475471</ele>
        <time>2020-07-16T00:37:21.224Z</time>
      </trkpt>
      <trkpt lat="68.72682" lon="15.5227">
        <ele>0.486785</ele>
        <time>2020-07-16T00:37:22.851Z</time>
      </trkpt>
      <trkpt lat="68.72873" lon="15.52189">
        <ele>0.72482</ele>
        <time>2020-07-16T00:37:59.021Z</time>
      </trkpt>
      <trkpt lat="68.72879" lon="15.52186">
        <ele>0.729538</ele>
        <time>2020-07-16T00:38:00.123Z</time>
      </trkpt>
      <trkpt lat="68.72982" lon="15.52143">
        <ele>0.811951</ele>
        <time>2020-07-16T00:38:18.841Z</time>
      </trkpt>
      <trkpt lat="68.73001" lon="15.52136">
        <ele>0.827116</ele>
        <time>2020-07-16T00:38:22.235Z</time>
      </trkpt>
      <trkpt lat="68.73031" lon="15.52123">
        <ele>0.847518</ele>
        <time>2020-07-16T00:38:27.460Z</time>
      </trkpt>
      <trkpt lat="68.73118" lon="15.52087">
        <ele>0.894064</ele>
        <time>2020-07-16T00:38:42.913Z</time>
      </trkpt>
      <trkpt lat="68.73124" lon="15.52084">
        <ele>0.897555</ele>
        <time>2020-07-16T00:38:44.107Z</time>
      </trkpt>
      <trkpt lat="68.7322" lon="15.52077">
        <ele>1.038427</ele>
        <time>2020-07-16T00:39:01.703Z</time>
      </trkpt>
      <trkpt lat="68.73411" lon="15.52141">
        <ele>1.755524</ele>
        <time>2020-07-16T00:39:39.309Z</time>
      </trkpt>
      <trkpt lat="68.73454" lon="15.52136">
        <ele>1.761117</ele>
        <time>2020-07-16T00:39:47.106Z</time>
      </trkpt>
      <trkpt lat="68.73514" lon="15.52099">
        <ele>1.768934</ele>
        <time>2020-07-16T00:39:57.511Z</time>
      </trkpt>
      <trkpt lat="68.73525" lon="15.52089">
        <ele>1.770467</ele>
        <time>2020-07-16T00:39:59.687Z</time>
      </trkpt>
      <trkpt lat="68.73529" lon="15.52085">
        <ele>1.77106</ele>
        <time>2020-07-16T00:40:00.404Z</time>
      </trkpt>
      <trkpt lat="68.7356" lon="15.52057">
        <ele>1.843309</ele>
        <time>2020-07-16T00:40:06.089Z</time>
      </trkpt>
      <trkpt lat="68.7361" lon="15.5201">
        <ele>2.287519</ele>
        <time>2020-07-16T00:40:15.205Z</time>
      </trkpt>
      <trkpt lat="68.7366" lon="15.51963">
        <ele>2.729239</ele>
        <time>2020-07-16T00:40:25.300Z</time>
      </trkpt>
      <trkpt lat="68.73734" lon="15.51901">
        <ele>3.652849</ele>
        <time>2020-07-16T00:40:43.813Z</time>
      </trkpt>
      <trkpt lat="68.73785" lon="15.51883">
        <ele>5.210133</ele>
        <time>2020-07-16T00:40:57.340Z</time>
      </trkpt>
      <trkpt lat="68.73796" lon="15.5188">
        <ele>5.555005</ele>
        <time>2020-07-16T00:41:00.556Z</time>
      </trkpt>
      <trkpt lat="68.73803" lon="15.51878">
        <ele>5.780329</ele>
        <time>2020-07-16T00:41:02.907Z</time>
      </trkpt>
      <trkpt lat="68.73823" lon="15.51873">
        <ele>6.39684</ele>
        <time>2020-07-16T00:41:08.080Z</time>
      </trkpt>
      <trkpt lat="68.73835" lon="15.51871">
        <ele>6.76904</ele>
        <time>2020-07-16T00:41:11.766Z</time>
      </trkpt>
      <trkpt lat="68.73854" lon="15.51869">
        <ele>7.328263</ele>
        <time>2020-07-16T00:41:17.302Z</time>
      </trkpt>
      <trkpt lat="68.73985" lon="15.51841">
        <ele>10.985956</ele>
        <time>2020-07-16T00:41:55.894Z</time>
      </trkpt>
      <trkpt lat="68.73994" lon="15.51839">
        <ele>11.218436</ele>
        <time>2020-07-16T00:41:58.685Z</time>
      </trkpt>
      <trkpt lat="68.74022" lon="15.51833">
        <ele>11.955785</ele>
        <time>2020-07-16T00:42:05.253Z</time>
      </trkpt>
      <trkpt lat="68.74032" lon="15.51831">
        <ele>12.224567</ele>
        <time>2020-07-16T00:42:07.827Z</time>
      </trkpt>
      <trkpt lat="68.7406" lon="15.51824">
        <ele>12.957211</ele>
        <time>2020-07-16T00:42:14.175Z</time>
      </trkpt>
      <trkpt lat="68.74084" lon="15.51817">
        <ele>13.524178</ele>
        <time>2020-07-16T00:42:19.395Z</time>
      </trkpt>
      <trkpt lat="68.74116" lon="15.51796">
        <ele>13.863249</ele>
        <time>2020-07-16T00:42:26.604Z</time>
      </trkpt>
      <trkpt lat="68.7412" lon="15.51793">
        <ele>13.903594</ele>
        <time>2020-07-16T00:42:27.466Z</time>
      </trkpt>
      <trkpt lat="68.74125" lon="15.51787">
        <ele>13.963503</ele>
        <time>2020-07-16T00:42:28.664Z</time>
      </trkpt>
      <trkpt lat="68.7413" lon="15.51781">
        <ele>14.023368</ele>
        <time>2020-07-16T00:42:30.047Z</time>
      </trkpt>
      <trkpt lat="68.74147" lon="15.51763">
        <ele>14.203667</ele>
        <time>2020-07-16T00:42:33.745Z</time>
      </trkpt>
      <trkpt lat="68.74192" lon="15.51673">
        <ele>14.780884</ele>
        <time>2020-07-16T00:42:45.036Z</time>
      </trkpt>
      <trkpt lat="68.74231" lon="15.51538">
        <ele>15.450566</ele>
        <time>2020-07-16T00:42:57.943Z</time>
      </trkpt>
      <trkpt lat="68.74257" lon="15.51433">
        <ele>16.084687</ele>
        <time>2020-07-16T00:43:07.936Z</time>
      </trkpt>
      <trkpt lat="68.74298" lon="15.51245">
        <ele>17.187219</ele>
        <time>2020-07-16T00:43:26.182Z</time>
      </trkpt>
      <trkpt lat="68.74338" lon="15.51056">
        <ele>17.794637</ele>
        <time>2020-07-16T00:43:44.767Z</time>
      </trkpt>
      <trkpt lat="68.74379" lon="15.50869">
        <ele>17.712081</ele>
        <time>2020-07-16T00:44:00.517Z</time>
      </trkpt>
      <trkpt lat="68.74387" lon="15.50841">
        <ele>17.699039</ele>
        <time>2020-07-16T00:44:02.886Z</time>
      </trkpt>
      <trkpt lat="68.74392" lon="15.50826">
        <ele>17.691129</ele>
        <time>2020-07-16T00:44:04.210Z</time>
      </trkpt>
      <trkpt lat="68.744" lon="15.50806">
        <ele>17.680175</ele>
        <time>2020-07-16T00:44:05.749Z</time>
      </trkpt>
      <trkpt lat="68.74435" lon="15.50742">
        <ele>17.465088</ele>
        <time>2020-07-16T00:44:11.544Z</time>
      </trkpt>
      <trkpt lat="68.74453" lon="15.5071">
        <ele>16.71217</ele>
        <time>2020-07-16T00:44:14.333Z</time>
      </trkpt>
      <trkpt lat="68.74461" lon="15.50695">
        <ele>16.386148</ele>
        <time>2020-07-16T00:44:15.585Z</time>
      </trkpt>
      <trkpt lat="68.74465" lon="15.50687">
        <ele>16.208515</ele>
        <time>2020-07-16T00:44:16.271Z</time>
      </trkpt>
      <trkpt lat="68.74471" lon="15.50677">
        <ele>15.980949</ele>
        <time>2020-07-16T00:44:17.066Z</time>
      </trkpt>
      <trkpt lat="68.74479" lon="15.5066">
        <ele>15.609279</ele>
        <time>2020-07-16T00:44:18.494Z</time>
      </trkpt>
      <trkpt lat="68.74493" lon="15.50635">
        <ele>15.052133</ele>
        <time>2020-07-16T00:44:20.537Z</time>
      </trkpt>
      <trkpt lat="68.74523" lon="15.50576">
        <ele>13.750936</ele>
        <time>2020-07-16T00:44:25.328Z</time>
      </trkpt>
      <trkpt lat="68.74529" lon="15.50565">
        <ele>13.514811</ele>
        <time>2020-07-16T00:44:26.127Z</time>
      </trkpt>
      <trkpt lat="68.74536" lon="15.50555">
        <ele>13.238488</ele>
        <time>2020-07-16T00:44:27.200Z</time>
      </trkpt>
      <trkpt lat="68.74538" lon="15.50553">
        <ele>13.178108</ele>
        <time>2020-07-16T00:44:27.403Z</time>
      </trkpt>
      <trkpt lat="68.74543" lon="15.50545">
        <ele>12.968089</ele>
        <time>2020-07-16T00:44:28.132Z</time>
      </trkpt>
      <trkpt lat="68.74564" lon="15.50519">
        <ele>12.160572</ele>
        <time>2020-07-16T00:44:31.076Z</time>
      </trkpt>
      <trkpt lat="68.74576" lon="15.50509">
        <ele>11.725697</ele>
        <time>2020-07-16T00:44:32.614Z</time>
      </trkpt>
      <trkpt lat="68.74599" lon="15.5049">
        <ele>11.08434</ele>
        <time>2020-07-16T00:44:35.528Z</time>
      </trkpt>
      <trkpt lat="68.74707" lon="15.50376">
        <ele>8.427659</ele>
        <time>2020-07-16T00:44:51.121Z</time>
      </trkpt>
      <trkpt lat="68.7472" lon="15.50356">
        <ele>8.091675</ele>
        <time>2020-07-16T00:44:53.292Z</time>
      </trkpt>
      <trkpt lat="68.74762" lon="15.50292">
        <ele>7.343608</ele>
        <time>2020-07-16T00:45:01.444Z</time>
      </trkpt>
      <trkpt lat="68.74798" lon="15.50201">
        <ele>7.566423</ele>
        <time>2020-07-16T00:45:10.263Z</time>
      </trkpt>
      <trkpt lat="68.7485" lon="15.49995">
        <ele>7.977927</ele>
        <time>2020-07-16T00:45:29.186Z</time>
      </trkpt>
      <trkpt lat="68.74853" lon="15.49979">
        <ele>8.008873</ele>
        <time>2020-07-16T00:45:30.928Z</time>
      </trkpt>
      <trkpt lat="68.74859" lon="15.49952">
        <ele>8.060777</ele>
        <time>2020-07-16T00:45:32.917Z</time>
      </trkpt>
      <trkpt lat="68.74863" lon="15.49939">
        <ele>8.088478</ele>
        <time>2020-07-16T00:45:34.304Z</time>
      </trkpt>
      <trkpt lat="68.74905" lon="15.49764">
        <ele>8.562305</ele>
        <time>2020-07-16T00:45:49.598Z</time>
      </trkpt>
      <trkpt lat="68.74911" lon="15.49742">
        <ele>8.625385</ele>
        <time>2020-07-16T00:45:51.719Z</time>
      </trkpt>
      <trkpt lat="68.74916" lon="15.49722">
        <ele>8.677816</ele>
        <time>2020-07-16T00:45:53.343Z</time>
      </trkpt>
      <trkpt lat="68.74929" lon="15.49667">
        <ele>8.829611</ele>
        <time>2020-07-16T00:45:57.672Z</time>
      </trkpt>
      <trkpt lat="68.74932" lon="15.49651">
        <ele>8.871863</ele>
        <time>2020-07-16T00:45:59.281Z</time>
      </trkpt>
      <trkpt lat="68.74943" lon="15.49602">
        <ele>9.001923</ele>
        <time>2020-07-16T00:46:02.982Z</time>
      </trkpt>
      <trkpt lat="68.74961" lon="15.49515">
        <ele>9.228484</ele>
        <time>2020-07-16T00:46:10.130Z</time>
      </trkpt>
      <trkpt lat="68.74964" lon="15.49495">
        <ele>9.290114</ele>
        <time>2020-07-16T00:46:11.721Z</time>
      </trkpt>
      <trkpt lat="68.74978" lon="15.49429">
        <ele>9.504342</ele>
        <time>2020-07-16T00:46:17.221Z</time>
      </trkpt>
      <trkpt lat="68.74987" lon="15.49389">
        <ele>9.634172</ele>
        <time>2020-07-16T00:46:21.304Z</time>
      </trkpt>
      <trkpt lat="68.74992" lon="15.49363">
        <ele>9.716983</ele>
        <time>2020-07-16T00:46:23.350Z</time>
      </trkpt>
      <trkpt lat="68.74997" lon="15.49338">
        <ele>9.799411</ele>
        <time>2020-07-16T00:46:25.134Z</time>
      </trkpt>
      <trkpt lat="68.75007" lon="15.49288">
        <ele>9.960995</ele>
        <time>2020-07-16T00:46:29.541Z</time>
      </trkpt>
      <trkpt lat="68.75008" lon="15.49281">
        <ele>9.98089</ele>
        <time>2020-07-16T00:46:30.022Z</time>
      </trkpt>
      <trkpt lat="68.75017" lon="15.49241">
        <ele>10.113703</ele>
        <time>2020-07-16T00:46:32.843Z</time>
      </trkpt>
      <trkpt lat="68.75019" lon="15.49231">
        <ele>10.142112</ele>
        <time>2020-07-16T00:46:33.868Z</time>
      </trkpt>
      <trkpt lat="68.75055" lon="15.49048">
        <ele>10.826952</ele>
        <time>2020-07-16T00:46:49.231Z</time>
      </trkpt>
      <trkpt lat="68.75056" lon="15.4904">
        <ele>10.871549</ele>
        <time>2020-07-16T00:46:50.202Z</time>
      </trkpt>
      <trkpt lat="68.75061" lon="15.49008">
        <ele>11.061895</ele>
        <time>2020-07-16T00:46:52.729Z</time>
      </trkpt>
      <trkpt lat="68.75073" lon="15.48893">
        <ele>11.713862</ele>
        <time>2020-07-16T00:47:02.740Z</time>
      </trkpt>
      <trkpt lat="68.75076" lon="15.48863">
        <ele>11.881654</ele>
        <time>2020-07-16T00:47:05.705Z</time>
      </trkpt>
      <trkpt lat="68.75084" lon="15.48774">
        <ele>12.37851</ele>
        <time>2020-07-16T00:47:13.727Z</time>
      </trkpt>
      <trkpt lat="68.75085" lon="15.48757">
        <ele>12.475996</ele>
        <time>2020-07-16T00:47:15.441Z</time>
      </trkpt>
      <trkpt lat="68.7509" lon="15.48709">
        <ele>12.74476</ele>
        <time>2020-07-16T00:47:19.392Z</time>
      </trkpt>
      <trkpt lat="68.75108" lon="15.48506">
        <ele>13.66272</ele>
        <time>2020-07-16T00:47:36.218Z</time>
      </trkpt>
      <trkpt lat="68.75119" lon="15.48387">
        <ele>14.068873</ele>
        <time>2020-07-16T00:47:45.819Z</time>
      </trkpt>
      <trkpt lat="68.75126" lon="15.48297">
        <ele>14.374781</ele>
        <time>2020-07-16T00:47:52.909Z</time>
      </trkpt>
      <trkpt lat="68.75147" lon="15.48069">
        <ele>14.759548</ele>
        <time>2020-07-16T00:48:09.934Z</time>
      </trkpt>
      <trkpt lat="68.7515" lon="15.48037">
        <ele>14.639357</ele>
        <time>2020-07-16T00:48:11.739Z</time>
      </trkpt>
      <trkpt lat="68.75152" lon="15.48008">
        <ele>14.529938</ele>
        <time>2020-07-16T00:48:13.697Z</time>
      </trkpt>
      <trkpt lat="68.75154" lon="15.47989">
        <ele>14.45608</ele>
        <time>2020-07-16T00:48:14.948Z</time>
      </trkpt>
      <trkpt lat="68.75164" lon="15.47884">
        <ele>14.06141</ele>
        <time>2020-07-16T00:48:21.104Z</time>
      </trkpt>
      <trkpt lat="68.75166" lon="15.47873">
        <ele>14.016997</ele>
        <time>2020-07-16T00:48:21.736Z</time>
      </trkpt>
      <trkpt lat="68.75169" lon="15.47844">
        <ele>13.905902</ele>
        <time>2020-07-16T00:48:23.231Z</time>
      </trkpt>
      <trkpt lat="68.75169" lon="15.4784">
        <ele>13.890771</ele>
        <time>2020-07-16T00:48:23.481Z</time>
      </trkpt>
      <trkpt lat="68.75174" lon="15.4777">
        <ele>13.629833</ele>
        <time>2020-07-16T00:48:27.468Z</time>
      </trkpt>
      <trkpt lat="68.75175" lon="15.47752">
        <ele>13.564228</ele>
        <time>2020-07-16T00:48:28.308Z</time>
      </trkpt>
      <trkpt lat="68.75181" lon="15.47593">
        <ele>12.745046</ele>
        <time>2020-07-16T00:48:36.744Z</time>
      </trkpt>
      <trkpt lat="68.75198" lon="15.47506">
        <ele>11.885988</ele>
        <time>2020-07-16T00:48:41.715Z</time>
      </trkpt>
      <trkpt lat="68.75203" lon="15.4749">
        <ele>11.701808</ele>
        <time>2020-07-16T00:48:42.728Z</time>
      </trkpt>
      <trkpt lat="68.75209" lon="15.47464">
        <ele>11.435054</ele>
        <time>2020-07-16T00:48:44.118Z</time>
      </trkpt>
      <trkpt lat="68.75218" lon="15.47435">
        <ele>11.108947</ele>
        <time>2020-07-16T00:48:46.042Z</time>
      </trkpt>
      <trkpt lat="68.75221" lon="15.47421">
        <ele>10.965747</ele>
        <time>2020-07-16T00:48:46.880Z</time>
      </trkpt>
      <trkpt lat="68.75232" lon="15.47381">
        <ele>10.530514</ele>
        <time>2020-07-16T00:48:49.172Z</time>
      </trkpt>
      <trkpt lat="68.75243" lon="15.47337">
        <ele>10.050916</ele>
        <time>2020-07-16T00:48:51.964Z</time>
      </trkpt>
      <trkpt lat="68.75255" lon="15.47292">
        <ele>9.566367</ele>
        <time>2020-07-16T00:48:54.637Z</time>
      </trkpt>
      <trkpt lat="68.75288" lon="15.47172">
        <ele>8.550833</ele>
        <time>2020-07-16T00:49:02.029Z</time>
      </trkpt>
      <trkpt lat="68.75297" lon="15.47136">
        <ele>8.356563</ele>
        <time>2020-07-16T00:49:04.291Z</time>
      </trkpt>
      <trkpt lat="68.75305" lon="15.47106">
        <ele>8.195441</ele>
        <time>2020-07-16T00:49:06.546Z</time>
      </trkpt>
      <trkpt lat="68.75327" lon="15.47032">
        <ele>7.783241</ele>
        <time>2020-07-16T00:49:12.103Z</time>
      </trkpt>
      <trkpt lat="68.75346" lon="15.46962">
        <ele>7.405471</ele>
        <time>2020-07-16T00:49:17.228Z</time>
      </trkpt>
      <trkpt lat="68.75363" lon="15.46909">
        <ele>7.104848</ele>
        <time>2020-07-16T00:49:21.013Z</time>
      </trkpt>
      <trkpt lat="68.75366" lon="15.46899">
        <ele>7.047733</ele>
        <time>2020-07-16T00:49:21.815Z</time>
      </trkpt>
      <trkpt lat="68.75369" lon="15.46886">
        <ele>6.976062</ele>
        <time>2020-07-16T00:49:23.044Z</time>
      </trkpt>
      <trkpt lat="68.75378" lon="15.4686">
        <ele>6.822544</ele>
        <time>2020-07-16T00:49:25.027Z</time>
      </trkpt>
      <trkpt lat="68.75383" lon="15.46847">
        <ele>6.745669</ele>
        <time>2020-07-16T00:49:25.954Z</time>
      </trkpt>
      <trkpt lat="68.75409" lon="15.46778">
        <ele>6.702048</ele>
        <time>2020-07-16T00:49:31.697Z</time>
      </trkpt>
      <trkpt lat="68.75416" lon="15.46756">
        <ele>6.70759</ele>
        <time>2020-07-16T00:49:33.389Z</time>
      </trkpt>
      <trkpt lat="68.75417" lon="15.46751">
        <ele>6.708908</ele>
        <time>2020-07-16T00:49:33.909Z</time>
      </trkpt>
      <trkpt lat="68.75423" lon="15.4674">
        <ele>6.712385</ele>
        <time>2020-07-16T00:49:35.169Z</time>
      </trkpt>
      <trkpt lat="68.7543" lon="15.46718">
        <ele>6.718325</ele>
        <time>2020-07-16T00:49:36.835Z</time>
      </trkpt>
      <trkpt lat="68.7545" lon="15.46671">
        <ele>6.731904</ele>
        <time>2020-07-16T00:49:41.073Z</time>
      </trkpt>
      <trkpt lat="68.75465" lon="15.46633">
        <ele>6.743069</ele>
        <time>2020-07-16T00:49:44.864Z</time>
      </trkpt>
      <trkpt lat="68.75493" lon="15.46587">
        <ele>6.760201</ele>
        <time>2020-07-16T00:49:51.330Z</time>
      </trkpt>
      <trkpt lat="68.75507" lon="15.46579">
        <ele>6.76785</ele>
        <time>2020-07-16T00:49:54.018Z</time>
      </trkpt>
      <trkpt lat="68.75537" lon="15.46588">
        <ele>6.876672</ele>
        <time>2020-07-16T00:50:00.637Z</time>
      </trkpt>
      <trkpt lat="68.75565" lon="15.46614">
        <ele>7.453241</ele>
        <time>2020-07-16T00:50:07.456Z</time>
      </trkpt>
      <trkpt lat="68.75569" lon="15.46619">
        <ele>7.533994</ele>
        <time>2020-07-16T00:50:08.009Z</time>
      </trkpt>
      <trkpt lat="68.75573" lon="15.46625">
        <ele>7.622082</ele>
        <time>2020-07-16T00:50:08.937Z</time>
      </trkpt>
      <trkpt lat="68.75581" lon="15.46635">
        <ele>7.79417</ele>
        <time>2020-07-16T00:50:10.649Z</time>
      </trkpt>
      <trkpt lat="68.75597" lon="15.46657">
        <ele>8.137427</ele>
        <time>2020-07-16T00:50:15.249Z</time>
      </trkpt>
      <trkpt lat="68.75645" lon="15.46723">
        <ele>9.180904</ele>
        <time>2020-07-16T00:50:27.539Z</time>
      </trkpt>
      <trkpt lat="68.75657" lon="15.46735">
        <ele>9.417167</ele>
        <time>2020-07-16T00:50:31.453Z</time>
      </trkpt>
      <trkpt lat="68.75662" lon="15.46741">
        <ele>9.528883</ele>
        <time>2020-07-16T00:50:33.293Z</time>
      </trkpt>
      <trkpt lat="68.75728" lon="15.46776">
        <ele>10.67073</ele>
        <time>2020-07-16T00:50:51.890Z</time>
      </trkpt>
      <trkpt lat="68.75804" lon="15.46779">
        <ele>11.727807</ele>
        <time>2020-07-16T00:51:10.413Z</time>
      </trkpt>
      <trkpt lat="68.75835" lon="15.46778">
        <ele>12.152035</ele>
        <time>2020-07-16T00:51:16.755Z</time>
      </trkpt>
      <trkpt lat="68.7584" lon="15.46776">
        <ele>12.225051</ele>
        <time>2020-07-16T00:51:17.486Z</time>
      </trkpt>
      <trkpt lat="68.75887" lon="15.46734">
        <ele>12.643832</ele>
        <time>2020-07-16T00:51:26.401Z</time>
      </trkpt>
      <trkpt lat="68.76028" lon="15.46566">
        <ele>11.041761</ele>
        <time>2020-07-16T00:51:49.731Z</time>
      </trkpt>
      <trkpt lat="68.76188" lon="15.46533">
        <ele>8.747737</ele>
        <time>2020-07-16T00:52:13.113Z</time>
      </trkpt>
      <trkpt lat="68.76277" lon="15.46443">
        <ele>7.626915</ele>
        <time>2020-07-16T00:52:27.561Z</time>
      </trkpt>
      <trkpt lat="68.76299" lon="15.4642">
        <ele>7.390595</ele>
        <time>2020-07-16T00:52:31.155Z</time>
      </trkpt>
      <trkpt lat="68.76322" lon="15.46394">
        <ele>7.14534</ele>
        <time>2020-07-16T00:52:35.036Z</time>
      </trkpt>
      <trkpt lat="68.76449" lon="15.46258">
        <ele>6.039947</ele>
        <time>2020-07-16T00:52:56.690Z</time>
      </trkpt>
      <trkpt lat="68.76495" lon="15.4624">
        <ele>5.762272</ele>
        <time>2020-07-16T00:53:04.119Z</time>
      </trkpt>
      <trkpt lat="68.76527" lon="15.46252">
        <ele>5.570121</ele>
        <time>2020-07-16T00:53:09.287Z</time>
      </trkpt>
      <trkpt lat="68.7656" lon="15.46288">
        <ele>5.359487</ele>
        <time>2020-07-16T00:53:15.370Z</time>
      </trkpt>
      <trkpt lat="68.76645" lon="15.46428">
        <ele>5.649385</ele>
        <time>2020-07-16T00:53:33.501Z</time>
      </trkpt>
      <trkpt lat="68.76652" lon="15.46448">
        <ele>5.678525</ele>
        <time>2020-07-16T00:53:35.480Z</time>
      </trkpt>
      <trkpt lat="68.76658" lon="15.46463">
        <ele>5.701761</ele>
        <time>2020-07-16T00:53:37.361Z</time>
      </trkpt>
      <trkpt lat="68.76713" lon="15.46631">
        <ele>5.848024</ele>
        <time>2020-07-16T00:53:53.416Z</time>
      </trkpt>
      <trkpt lat="68.76749" lon="15.46692">
        <ele>5.758184</ele>
        <time>2020-07-16T00:54:01.538Z</time>
      </trkpt>
      <trkpt lat="68.76769" lon="15.46709">
        <ele>5.71216</ele>
        <time>2020-07-16T00:54:05.503Z</time>
      </trkpt>
      <trkpt lat="68.76847" lon="15.46737">
        <ele>5.543891</ele>
        <time>2020-07-16T00:54:18.278Z</time>
      </trkpt>
      <trkpt lat="68.76895" lon="15.46764">
        <ele>5.128122</ele>
        <time>2020-07-16T00:54:25.901Z</time>
      </trkpt>
      <trkpt lat="68.76902" lon="15.46773">
        <ele>5.02338</ele>
        <time>2020-07-16T00:54:27.118Z</time>
      </trkpt>
      <trkpt lat="68.76906" lon="15.46777">
        <ele>4.975484</ele>
        <time>2020-07-16T00:54:27.612Z</time>
      </trkpt>
      <trkpt lat="68.77048" lon="15.47035">
        <ele>3.007204</ele>
        <time>2020-07-16T00:54:52.858Z</time>
      </trkpt>
      <trkpt lat="68.77167" lon="15.47345">
        <ele>2.002203</ele>
        <time>2020-07-16T00:55:19.704Z</time>
      </trkpt>
      <trkpt lat="68.77179" lon="15.47385">
        <ele>2.043296</ele>
        <time>2020-07-16T00:55:23.094Z</time>
      </trkpt>
      <trkpt lat="68.77184" lon="15.47403">
        <ele>2.06021</ele>
        <time>2020-07-16T00:55:24.455Z</time>
      </trkpt>
      <trkpt lat="68.77213" lon="15.47501">
        <ele>2.159711</ele>
        <time>2020-07-16T00:55:32.678Z</time>
      </trkpt>
      <trkpt lat="68.7731" lon="15.47819">
        <ele>2.763287</ele>
        <time>2020-07-16T00:56:02.259Z</time>
      </trkpt>
      <trkpt lat="68.77325" lon="15.47854">
        <ele>2.897555</ele>
        <time>2020-07-16T00:56:06.413Z</time>
      </trkpt>
      <trkpt lat="68.77347" lon="15.47896">
        <ele>3.082629</ele>
        <time>2020-07-16T00:56:11.941Z</time>
      </trkpt>
      <trkpt lat="68.77369" lon="15.47936">
        <ele>3.260392</ele>
        <time>2020-07-16T00:56:17.287Z</time>
      </trkpt>
      <trkpt lat="68.77394" lon="15.47983">
        <ele>3.470218</ele>
        <time>2020-07-16T00:56:23.424Z</time>
      </trkpt>
      <trkpt lat="68.77421" lon="15.48035">
        <ele>3.614911</ele>
        <time>2020-07-16T00:56:30.072Z</time>
      </trkpt>
      <trkpt lat="68.77485" lon="15.48149">
        <ele>3.726766</ele>
        <time>2020-07-16T00:56:44.583Z</time>
      </trkpt>
      <trkpt lat="68.77488" lon="15.48153">
        <ele>3.731755</ele>
        <time>2020-07-16T00:56:45.283Z</time>
      </trkpt>
      <trkpt lat="68.77503" lon="15.48174">
        <ele>3.75555</ele>
        <time>2020-07-16T00:56:48.148Z</time>
      </trkpt>
      <trkpt lat="68.77595" lon="15.48289">
        <ele>3.714777</ele>
        <time>2020-07-16T00:57:05.396Z</time>
      </trkpt>
      <trkpt lat="68.77667" lon="15.48346">
        <ele>3.39032</ele>
        <time>2020-07-16T00:57:17.542Z</time>
      </trkpt>
      <trkpt lat="68.77689" lon="15.48355">
        <ele>3.290803</ele>
        <time>2020-07-16T00:57:21.281Z</time>
      </trkpt>
      <trkpt lat="68.77703" lon="15.48361">
        <ele>3.231264</ele>
        <time>2020-07-16T00:57:23.608Z</time>
      </trkpt>
      <trkpt lat="68.77737" lon="15.4837">
        <ele>3.080745</ele>
        <time>2020-07-16T00:57:29.414Z</time>
      </trkpt>
      <trkpt lat="68.77747" lon="15.48373">
        <ele>3.086457</ele>
        <time>2020-07-16T00:57:31.023Z</time>
      </trkpt>
      <trkpt lat="68.77796" lon="15.48394">
        <ele>3.170146</ele>
        <time>2020-07-16T00:57:39.528Z</time>
      </trkpt>
      <trkpt lat="68.77834" lon="15.48431">
        <ele>3.238522</ele>
        <time>2020-07-16T00:57:46.633Z</time>
      </trkpt>
      <trkpt lat="68.77847" lon="15.48447">
        <ele>3.262056</ele>
        <time>2020-07-16T00:57:49.184Z</time>
      </trkpt>
      <trkpt lat="68.78001" lon="15.48657">
        <ele>4.346682</ele>
        <time>2020-07-16T00:58:23.671Z</time>
      </trkpt>
      <trkpt lat="68.78018" lon="15.48678">
        <ele>4.520893</ele>
        <time>2020-07-16T00:58:27.916Z</time>
      </trkpt>
      <trkpt lat="68.78078" lon="15.4873">
        <ele>5.121695</ele>
        <time>2020-07-16T00:58:41.622Z</time>
      </trkpt>
      <trkpt lat="68.78155" lon="15.48772">
        <ele>5.946336</ele>
        <time>2020-07-16T00:58:58.636Z</time>
      </trkpt>
      <trkpt lat="68.78286" lon="15.4884">
        <ele>7.530535</ele>
        <time>2020-07-16T00:59:25.957Z</time>
      </trkpt>
      <trkpt lat="68.78491" lon="15.48942">
        <ele>12.161476</ele>
        <time>2020-07-16T01:00:14.740Z</time>
      </trkpt>
      <trkpt lat="68.78507" lon="15.48949">
        <ele>12.753761</ele>
        <time>2020-07-16T01:00:19.920Z</time>
      </trkpt>
      <trkpt lat="68.78624" lon="15.49017">
        <ele>17.673275</ele>
        <time>2020-07-16T01:00:59.878Z</time>
      </trkpt>
      <trkpt lat="68.78678" lon="15.49076">
        <ele>21.063155</ele>
        <time>2020-07-16T01:01:21.546Z</time>
      </trkpt>
      <trkpt lat="68.78728" lon="15.49179">
        <ele>24.70451</ele>
        <time>2020-07-16T01:01:45.297Z</time>
      </trkpt>
      <trkpt lat="68.78795" lon="15.49401">
        <ele>29.821834</ele>
        <time>2020-07-16T01:02:23.253Z</time>
      </trkpt>
      <trkpt lat="68.78812" lon="15.49458">
        <ele>30.997399</ele>
        <time>2020-07-16T01:02:32.405Z</time>
      </trkpt>
      <trkpt lat="68.78917" lon="15.49819">
        <ele>36.184991</ele>
        <time>2020-07-16T01:03:18.631Z</time>
      </trkpt>
      <trkpt lat="68.79102" lon="15.50353">
        <ele>38.941303</ele>
        <time>2020-07-16T01:04:12.334Z</time>
      </trkpt>
      <trkpt lat="68.7912" lon="15.50411">
        <ele>38.992133</ele>
        <time>2020-07-16T01:04:17.491Z</time>
      </trkpt>
      <trkpt lat="68.79138" lon="15.50461">
        <ele>38.968027</ele>
        <time>2020-07-16T01:04:22.128Z</time>
      </trkpt>
      <trkpt lat="68.79295" lon="15.50917">
        <ele>38.370722</ele>
        <time>2020-07-16T01:05:01.180Z</time>
      </trkpt>
      <trkpt lat="68.7936" lon="15.51102">
        <ele>37.860126</ele>
        <time>2020-07-16T01:05:16.109Z</time>
      </trkpt>
      <trkpt lat="68.79376" lon="15.51153">
        <ele>37.52535</ele>
        <time>2020-07-16T01:05:19.947Z</time>
      </trkpt>
      <trkpt lat="68.79447" lon="15.51355">
        <ele>36.156664</ele>
        <time>2020-07-16T01:05:35.244Z</time>
      </trkpt>
      <trkpt lat="68.79471" lon="15.51441">
        <ele>35.619494</ele>
        <time>2020-07-16T01:05:40.962Z</time>
      </trkpt>
      <trkpt lat="68.79503" lon="15.51586">
        <ele>34.241135</ele>
        <time>2020-07-16T01:05:49.583Z</time>
      </trkpt>
      <trkpt lat="68.79529" lon="15.51751">
        <ele>32.669004</ele>
        <time>2020-07-16T01:05:58.495Z</time>
      </trkpt>
      <trkpt lat="68.79539" lon="15.51819">
        <ele>32.034606</ele>
        <time>2020-07-16T01:06:02.010Z</time>
      </trkpt>
      <trkpt lat="68.79695" lon="15.52873">
        <ele>21.28928</ele>
        <time>2020-07-16T01:06:57.685Z</time>
      </trkpt>
      <trkpt lat="68.79715" lon="15.53014">
        <ele>19.991852</ele>
        <time>2020-07-16T01:07:05.280Z</time>
      </trkpt>
      <trkpt lat="68.79736" lon="15.53116">
        <ele>18.999123</ele>
        <time>2020-07-16T01:07:11.109Z</time>
      </trkpt>
      <trkpt lat="68.79778" lon="15.53229">
        <ele>17.60678</ele>
        <time>2020-07-16T01:07:19.295Z</time>
      </trkpt>
      <trkpt lat="68.79909" lon="15.5341">
        <ele>13.705226</ele>
        <time>2020-07-16T01:07:39.204Z</time>
      </trkpt>
      <trkpt lat="68.80074" lon="15.53698">
        <ele>8.021622</ele>
        <time>2020-07-16T01:08:04.905Z</time>
      </trkpt>
      <trkpt lat="68.80125" lon="15.53808">
        <ele>6.459053</ele>
        <time>2020-07-16T01:08:13.641Z</time>
      </trkpt>
      <trkpt lat="68.80145" lon="15.53873">
        <ele>5.846219</ele>
        <time>2020-07-16T01:08:17.846Z</time>
      </trkpt>
      <trkpt lat="68.80153" lon="15.53901">
        <ele>5.583741</ele>
        <time>2020-07-16T01:08:19.619Z</time>
      </trkpt>
      <trkpt lat="68.80194" lon="15.54082">
        <ele>4.026674</ele>
        <time>2020-07-16T01:08:30.761Z</time>
      </trkpt>
      <trkpt lat="68.80235" lon="15.54324">
        <ele>2.902831</ele>
        <time>2020-07-16T01:08:45.484Z</time>
      </trkpt>
      <trkpt lat="68.80263" lon="15.5442">
        <ele>2.493686</ele>
        <time>2020-07-16T01:08:52.563Z</time>
      </trkpt>
      <trkpt lat="68.80281" lon="15.54453">
        <ele>2.296819</ele>
        <time>2020-07-16T01:08:56.037Z</time>
      </trkpt>
      <trkpt lat="68.80297" lon="15.54473">
        <ele>2.135499</ele>
        <time>2020-07-16T01:08:58.855Z</time>
      </trkpt>
      <trkpt lat="68.80333" lon="15.54492">
        <ele>1.914628</ele>
        <time>2020-07-16T01:09:04.919Z</time>
      </trkpt>
      <trkpt lat="68.80351" lon="15.54491">
        <ele>1.882963</ele>
        <time>2020-07-16T01:09:07.855Z</time>
      </trkpt>
      <trkpt lat="68.8036" lon="15.5449">
        <ele>1.865484</ele>
        <time>2020-07-16T01:09:09.444Z</time>
      </trkpt>
      <trkpt lat="68.80405" lon="15.54481">
        <ele>1.785071</ele>
        <time>2020-07-16T01:09:17.050Z</time>
      </trkpt>
      <trkpt lat="68.80496" lon="15.54508">
        <ele>1.619911</ele>
        <time>2020-07-16T01:09:33.295Z</time>
      </trkpt>
      <trkpt lat="68.80565" lon="15.54544">
        <ele>1.842519</ele>
        <time>2020-07-16T01:09:46.526Z</time>
      </trkpt>
      <trkpt lat="68.80624" lon="15.54591">
        <ele>2.039905</ele>
        <time>2020-07-16T01:09:58.442Z</time>
      </trkpt>
      <trkpt lat="68.80641" lon="15.54592">
        <ele>2.093135</ele>
        <time>2020-07-16T01:10:01.653Z</time>
      </trkpt>
      <trkpt lat="68.80786" lon="15.54494">
        <ele>2.455598</ele>
        <time>2020-07-16T01:10:29.814Z</time>
      </trkpt>
      <trkpt lat="68.81022" lon="15.54426">
        <ele>2.590673</ele>
        <time>2020-07-16T01:11:12.144Z</time>
      </trkpt>
      <trkpt lat="68.81284" lon="15.54332">
        <ele>2.832881</ele>
        <time>2020-07-16T01:11:59.108Z</time>
      </trkpt>
      <trkpt lat="68.81291" lon="15.54332">
        <ele>2.861904</ele>
        <time>2020-07-16T01:12:00.537Z</time>
      </trkpt>
      <trkpt lat="68.81297" lon="15.54333">
        <ele>2.884908</ele>
        <time>2020-07-16T01:12:01.809Z</time>
      </trkpt>
      <trkpt lat="68.81328" lon="15.54357">
        <ele>3.004242</ele>
        <time>2020-07-16T01:12:07.863Z</time>
      </trkpt>
      <trkpt lat="68.81364" lon="15.54453">
        <ele>3.193021</ele>
        <time>2020-07-16T01:12:17.867Z</time>
      </trkpt>
      <trkpt lat="68.81944" lon="15.56504">
        <ele>13.019714</ele>
        <time>2020-07-16T01:15:36.849Z</time>
      </trkpt>
      <trkpt lat="68.8196" lon="15.56577">
        <ele>13.553664</ele>
        <time>2020-07-16T01:15:44.042Z</time>
      </trkpt>
      <trkpt lat="68.81965" lon="15.56608">
        <ele>13.76675</ele>
        <time>2020-07-16T01:15:46.816Z</time>
      </trkpt>
      <trkpt lat="68.81972" lon="15.56667">
        <ele>14.158069</ele>
        <time>2020-07-16T01:15:52.269Z</time>
      </trkpt>
      <trkpt lat="68.81977" lon="15.56763">
        <ele>14.760885</ele>
        <time>2020-07-16T01:16:00.581Z</time>
      </trkpt>
      <trkpt lat="68.81975" lon="15.56883">
        <ele>15.509993</ele>
        <time>2020-07-16T01:16:11.277Z</time>
      </trkpt>
      <trkpt lat="68.81955" lon="15.57178">
        <ele>17.544196</ele>
        <time>2020-07-16T01:16:38.379Z</time>
      </trkpt>
      <trkpt lat="68.81947" lon="15.57304">
        <ele>18.410415</ele>
        <time>2020-07-16T01:16:49.248Z</time>
      </trkpt>
      <trkpt lat="68.8194" lon="15.57413">
        <ele>18.913863</ele>
        <time>2020-07-16T01:16:58.050Z</time>
      </trkpt>
      <trkpt lat="68.81935" lon="15.57476">
        <ele>18.979695</ele>
        <time>2020-07-16T01:17:02.751Z</time>
      </trkpt>
      <trkpt lat="68.81933" lon="15.57501">
        <ele>19.006389</ele>
        <time>2020-07-16T01:17:04.975Z</time>
      </trkpt>
      <trkpt lat="68.8193" lon="15.57548">
        <ele>19.05486</ele>
        <time>2020-07-16T01:17:08.217Z</time>
      </trkpt>
      <trkpt lat="68.8189" lon="15.58019">
        <ele>18.889567</ele>
        <time>2020-07-16T01:17:38.393Z</time>
      </trkpt>
      <trkpt lat="68.81883" lon="15.5809">
        <ele>18.671292</ele>
        <time>2020-07-16T01:17:42.583Z</time>
      </trkpt>
      <trkpt lat="68.81849" lon="15.58459">
        <ele>17.358484</ele>
        <time>2020-07-16T01:18:03.541Z</time>
      </trkpt>
      <trkpt lat="68.81736" lon="15.59675">
        <ele>11.722971</ele>
        <time>2020-07-16T01:19:12.000Z</time>
      </trkpt>
      <trkpt lat="68.81655" lon="15.6055">
        <ele>8.045063</ele>
        <time>2020-07-16T01:20:01.549Z</time>
      </trkpt>
      <trkpt lat="68.81653" lon="15.60567">
        <ele>7.983664</ele>
        <time>2020-07-16T01:20:02.580Z</time>
      </trkpt>
      <trkpt lat="68.81644" lon="15.60654">
        <ele>7.670778</ele>
        <time>2020-07-16T01:20:07.737Z</time>
      </trkpt>
      <trkpt lat="68.81633" lon="15.60781">
        <ele>7.287427</ele>
        <time>2020-07-16T01:20:15.458Z</time>
      </trkpt>
      <trkpt lat="68.81629" lon="15.60833">
        <ele>7.22203</ele>
        <time>2020-07-16T01:20:18.566Z</time>
      </trkpt>
      <trkpt lat="68.81628" lon="15.60903">
        <ele>7.13513</ele>
        <time>2020-07-16T01:20:22.776Z</time>
      </trkpt>
      <trkpt lat="68.81672" lon="15.62099">
        <ele>5.557417</ele>
        <time>2020-07-16T01:21:36.807Z</time>
      </trkpt>
      <trkpt lat="68.81669" lon="15.62294">
        <ele>5.16671</ele>
        <time>2020-07-16T01:21:48.163Z</time>
      </trkpt>
      <trkpt lat="68.81631" lon="15.62913">
        <ele>3.333606</ele>
        <time>2020-07-16T01:22:23.542Z</time>
      </trkpt>
      <trkpt lat="68.81618" lon="15.63038">
        <ele>3.03289</ele>
        <time>2020-07-16T01:22:31.155Z</time>
      </trkpt>
      <trkpt lat="68.81599" lon="15.63129">
        <ele>2.792988</ele>
        <time>2020-07-16T01:22:37.377Z</time>
      </trkpt>
      <trkpt lat="68.81524" lon="15.63326">
        <ele>2.652037</ele>
        <time>2020-07-16T01:22:55.514Z</time>
      </trkpt>
      <trkpt lat="68.81503" lon="15.63411">
        <ele>2.664472</ele>
        <time>2020-07-16T01:23:02.355Z</time>
      </trkpt>
      <trkpt lat="68.8145" lon="15.63778">
        <ele>2.775829</ele>
        <time>2020-07-16T01:23:28.848Z</time>
      </trkpt>
      <trkpt lat="68.8144" lon="15.63871">
        <ele>2.816321</ele>
        <time>2020-07-16T01:23:35.310Z</time>
      </trkpt>
      <trkpt lat="68.81424" lon="15.64156">
        <ele>2.872893</ele>
        <time>2020-07-16T01:23:54.071Z</time>
      </trkpt>
      <trkpt lat="68.81354" lon="15.64857">
        <ele>2.751413</ele>
        <time>2020-07-16T01:24:40.303Z</time>
      </trkpt>
      <trkpt lat="68.8132" lon="15.65434">
        <ele>2.720344</ele>
        <time>2020-07-16T01:25:18.294Z</time>
      </trkpt>
      <trkpt lat="68.81306" lon="15.65601">
        <ele>2.612864</ele>
        <time>2020-07-16T01:25:29.029Z</time>
      </trkpt>
      <trkpt lat="68.81295" lon="15.65686">
        <ele>2.510913</ele>
        <time>2020-07-16T01:25:34.573Z</time>
      </trkpt>
      <trkpt lat="68.81234" lon="15.66015">
        <ele>2.080109</ele>
        <time>2020-07-16T01:25:56.923Z</time>
      </trkpt>
      <trkpt lat="68.81219" lon="15.66167">
        <ele>1.866065</ele>
        <time>2020-07-16T01:26:06.424Z</time>
      </trkpt>
      <trkpt lat="68.81216" lon="15.66342">
        <ele>1.629441</ele>
        <time>2020-07-16T01:26:17.016Z</time>
      </trkpt>
      <trkpt lat="68.81228" lon="15.66506">
        <ele>1.45306</ele>
        <time>2020-07-16T01:26:27.300Z</time>
      </trkpt>
      <trkpt lat="68.81242" lon="15.66595">
        <ele>1.408458</ele>
        <time>2020-07-16T01:26:33.313Z</time>
      </trkpt>
      <trkpt lat="68.81519" lon="15.67897">
        <ele>0.881822</ele>
        <time>2020-07-16T01:28:09.427Z</time>
      </trkpt>
      <trkpt lat="68.81566" lon="15.68059">
        <ele>0.909402</ele>
        <time>2020-07-16T01:28:22.790Z</time>
      </trkpt>
      <trkpt lat="68.81644" lon="15.68233">
        <ele>1.707003</ele>
        <time>2020-07-16T01:28:41.203Z</time>
      </trkpt>
      <trkpt lat="68.81665" lon="15.68271">
        <ele>2.040188</ele>
        <time>2020-07-16T01:28:46.600Z</time>
      </trkpt>
      <trkpt lat="68.81677" lon="15.68294">
        <ele>2.240022</ele>
        <time>2020-07-16T01:28:49.791Z</time>
      </trkpt>
      <trkpt lat="68.81705" lon="15.68337">
        <ele>2.662256</ele>
        <time>2020-07-16T01:28:57.157Z</time>
      </trkpt>
      <trkpt lat="68.8172" lon="15.68354">
        <ele>2.88826</ele>
        <time>2020-07-16T01:29:01.140Z</time>
      </trkpt>
      <trkpt lat="68.81747" lon="15.68385">
        <ele>3.276082</ele>
        <time>2020-07-16T01:29:08.338Z</time>
      </trkpt>
      <trkpt lat="68.81796" lon="15.68446">
        <ele>4.949776</ele>
        <time>2020-07-16T01:29:23.159Z</time>
      </trkpt>
      <trkpt lat="68.81888" lon="15.68547">
        <ele>8.181455</ele>
        <time>2020-07-16T01:29:52.248Z</time>
      </trkpt>
      <trkpt lat="68.81917" lon="15.68565">
        <ele>9.163652</ele>
        <time>2020-07-16T01:30:01.340Z</time>
      </trkpt>
      <trkpt lat="68.81959" lon="15.68567">
        <ele>10.029776</ele>
        <time>2020-07-16T01:30:13.370Z</time>
      </trkpt>
      <trkpt lat="68.82541" lon="15.68282">
        <ele>20.500502</ele>
        <time>2020-07-16T01:32:33.744Z</time>
      </trkpt>
      <trkpt lat="68.82586" lon="15.68249">
        <ele>20.788299</ele>
        <time>2020-07-16T01:32:41.915Z</time>
      </trkpt>
      <trkpt lat="68.82596" lon="15.68238">
        <ele>20.855146</ele>
        <time>2020-07-16T01:32:43.704Z</time>
      </trkpt>
      <trkpt lat="68.82616" lon="15.68207">
        <ele>20.993641</ele>
        <time>2020-07-16T01:32:47.261Z</time>
      </trkpt>
      <trkpt lat="68.82667" lon="15.68094">
        <ele>19.939018</ele>
        <time>2020-07-16T01:32:57.118Z</time>
      </trkpt>
      <trkpt lat="68.82684" lon="15.68046">
        <ele>19.472506</ele>
        <time>2020-07-16T01:33:00.503Z</time>
      </trkpt>
      <trkpt lat="68.82713" lon="15.67958">
        <ele>18.622782</ele>
        <time>2020-07-16T01:33:06.550Z</time>
      </trkpt>
      <trkpt lat="68.82924" lon="15.67313">
        <ele>10.874093</ele>
        <time>2020-07-16T01:33:49.053Z</time>
      </trkpt>
      <trkpt lat="68.82961" lon="15.67196">
        <ele>9.457597</ele>
        <time>2020-07-16T01:33:56.473Z</time>
      </trkpt>
      <trkpt lat="68.82986" lon="15.67119">
        <ele>8.517675</ele>
        <time>2020-07-16T01:34:01.650Z</time>
      </trkpt>
      <trkpt lat="68.83007" lon="15.67058">
        <ele>8.177269</ele>
        <time>2020-07-16T01:34:05.989Z</time>
      </trkpt>
      <trkpt lat="68.83019" lon="15.67024">
        <ele>8.069523</ele>
        <time>2020-07-16T01:34:08.613Z</time>
      </trkpt>
      <trkpt lat="68.83033" lon="15.6698">
        <ele>7.937248</ele>
        <time>2020-07-16T01:34:11.746Z</time>
      </trkpt>
      <trkpt lat="68.83045" lon="15.66942">
        <ele>7.819916</ele>
        <time>2020-07-16T01:34:14.643Z</time>
      </trkpt>
      <trkpt lat="68.83066" lon="15.66879">
        <ele>7.627761</ele>
        <time>2020-07-16T01:34:19.714Z</time>
      </trkpt>
      <trkpt lat="68.83077" lon="15.66845">
        <ele>7.524912</ele>
        <time>2020-07-16T01:34:22.329Z</time>
      </trkpt>
      <trkpt lat="68.83089" lon="15.66803">
        <ele>7.401755</ele>
        <time>2020-07-16T01:34:26.070Z</time>
      </trkpt>
      <trkpt lat="68.83132" lon="15.6667">
        <ele>7.360878</ele>
        <time>2020-07-16T01:34:39.029Z</time>
      </trkpt>
      <trkpt lat="68.83146" lon="15.66625">
        <ele>7.479252</ele>
        <time>2020-07-16T01:34:43.658Z</time>
      </trkpt>
      <trkpt lat="68.8316" lon="15.6657">
        <ele>7.613494</ele>
        <time>2020-07-16T01:34:49.224Z</time>
      </trkpt>
      <trkpt lat="68.83165" lon="15.66552">
        <ele>7.657463</ele>
        <time>2020-07-16T01:34:50.788Z</time>
      </trkpt>
      <trkpt lat="68.83172" lon="15.66515">
        <ele>7.741829</ele>
        <time>2020-07-16T01:34:53.928Z</time>
      </trkpt>
      <trkpt lat="68.83175" lon="15.665">
        <ele>7.775527</ele>
        <time>2020-07-16T01:34:55.236Z</time>
      </trkpt>
      <trkpt lat="68.83186" lon="15.66436">
        <ele>7.917877</ele>
        <time>2020-07-16T01:35:00.196Z</time>
      </trkpt>
      <trkpt lat="68.83199" lon="15.66329">
        <ele>8.143316</ele>
        <time>2020-07-16T01:35:07.656Z</time>
      </trkpt>
      <trkpt lat="68.83202" lon="15.66295">
        <ele>8.149281</ele>
        <time>2020-07-16T01:35:09.905Z</time>
      </trkpt>
      <trkpt lat="68.83205" lon="15.66261">
        <ele>8.057855</ele>
        <time>2020-07-16T01:35:12.041Z</time>
      </trkpt>
      <trkpt lat="68.8321" lon="15.6619">
        <ele>7.86901</ele>
        <time>2020-07-16T01:35:16.397Z</time>
      </trkpt>
      <trkpt lat="68.83216" lon="15.66106">
        <ele>7.646068</ele>
        <time>2020-07-16T01:35:21.313Z</time>
      </trkpt>
      <trkpt lat="68.83227" lon="15.65955">
        <ele>7.243079</ele>
        <time>2020-07-16T01:35:30.111Z</time>
      </trkpt>
      <trkpt lat="68.83236" lon="15.65836">
        <ele>6.923093</ele>
        <time>2020-07-16T01:35:36.878Z</time>
      </trkpt>
      <trkpt lat="68.83242" lon="15.65749">
        <ele>6.668129</ele>
        <time>2020-07-16T01:35:41.689Z</time>
      </trkpt>
      <trkpt lat="68.8325" lon="15.6563">
        <ele>6.311103</ele>
        <time>2020-07-16T01:35:48.296Z</time>
      </trkpt>
      <trkpt lat="68.83253" lon="15.65585">
        <ele>6.176892</ele>
        <time>2020-07-16T01:35:50.830Z</time>
      </trkpt>
      <trkpt lat="68.83261" lon="15.65462">
        <ele>5.809118</ele>
        <time>2020-07-16T01:35:57.860Z</time>
      </trkpt>
      <trkpt lat="68.83267" lon="15.65397">
        <ele>5.613151</ele>
        <time>2020-07-16T01:36:01.920Z</time>
      </trkpt>
      <trkpt lat="68.83274" lon="15.65277">
        <ele>5.441765</ele>
        <time>2020-07-16T01:36:09.572Z</time>
      </trkpt>
      <trkpt lat="68.83283" lon="15.65167">
        <ele>5.490456</ele>
        <time>2020-07-16T01:36:17.087Z</time>
      </trkpt>
      <trkpt lat="68.8329" lon="15.65061">
        <ele>5.537604</ele>
        <time>2020-07-16T01:36:24.588Z</time>
      </trkpt>
      <trkpt lat="68.83298" lon="15.6496">
        <ele>5.582475</ele>
        <time>2020-07-16T01:36:31.719Z</time>
      </trkpt>
      <trkpt lat="68.83307" lon="15.64837">
        <ele>5.620612</ele>
        <time>2020-07-16T01:36:40.024Z</time>
      </trkpt>
      <trkpt lat="68.8332" lon="15.64721">
        <ele>5.342589</ele>
        <time>2020-07-16T01:36:47.846Z</time>
      </trkpt>
      <trkpt lat="68.83326" lon="15.64677">
        <ele>5.236462</ele>
        <time>2020-07-16T01:36:50.517Z</time>
      </trkpt>
      <trkpt lat="68.83345" lon="15.64524">
        <ele>4.865822</ele>
        <time>2020-07-16T01:37:00.033Z</time>
      </trkpt>
      <trkpt lat="68.83349" lon="15.64474">
        <ele>4.748579</ele>
        <time>2020-07-16T01:37:02.823Z</time>
      </trkpt>
      <trkpt lat="68.83366" lon="15.64231">
        <ele>4.069645</ele>
        <time>2020-07-16T01:37:16.399Z</time>
      </trkpt>
      <trkpt lat="68.83373" lon="15.64126">
        <ele>3.739021</ele>
        <time>2020-07-16T01:37:22.242Z</time>
      </trkpt>
      <trkpt lat="68.83384" lon="15.63972">
        <ele>3.249024</ele>
        <time>2020-07-16T01:37:31.284Z</time>
      </trkpt>
      <trkpt lat="68.83396" lon="15.63806">
        <ele>2.868942</ele>
        <time>2020-07-16T01:37:41.547Z</time>
      </trkpt>
      <trkpt lat="68.83406" lon="15.63665">
        <ele>2.715921</ele>
        <time>2020-07-16T01:37:50.388Z</time>
      </trkpt>
      <trkpt lat="68.83412" lon="15.63577">
        <ele>2.619697</ele>
        <time>2020-07-16T01:37:55.902Z</time>
      </trkpt>
      <trkpt lat="68.8343" lon="15.63376">
        <ele>2.406695</ele>
        <time>2020-07-16T01:38:08.683Z</time>
      </trkpt>
      <trkpt lat="68.83437" lon="15.63327">
        <ele>2.380012</ele>
        <time>2020-07-16T01:38:12.026Z</time>
      </trkpt>
      <trkpt lat="68.83444" lon="15.63279">
        <ele>2.354939</ele>
        <time>2020-07-16T01:38:15.219Z</time>
      </trkpt>
      <trkpt lat="68.83481" lon="15.63019">
        <ele>2.21671</ele>
        <time>2020-07-16T01:38:32.697Z</time>
      </trkpt>
      <trkpt lat="68.83493" lon="15.62934">
        <ele>2.171522</ele>
        <time>2020-07-16T01:38:38.502Z</time>
      </trkpt>
      <trkpt lat="68.83514" lon="15.62784">
        <ele>2.350953</ele>
        <time>2020-07-16T01:38:49.272Z</time>
      </trkpt>
      <trkpt lat="68.83538" lon="15.6262">
        <ele>2.563555</ele>
        <time>2020-07-16T01:39:01.564Z</time>
      </trkpt>
      <trkpt lat="68.83543" lon="15.62586">
        <ele>2.607585</ele>
        <time>2020-07-16T01:39:04.121Z</time>
      </trkpt>
      <trkpt lat="68.83583" lon="15.62309">
        <ele>3.037059</ele>
        <time>2020-07-16T01:39:24.874Z</time>
      </trkpt>
      <trkpt lat="68.83599" lon="15.62194">
        <ele>3.237885</ele>
        <time>2020-07-16T01:39:33.488Z</time>
      </trkpt>
      <trkpt lat="68.83604" lon="15.62162">
        <ele>3.294851</ele>
        <time>2020-07-16T01:39:36.064Z</time>
      </trkpt>
      <trkpt lat="68.83613" lon="15.62094">
        <ele>3.413243</ele>
        <time>2020-07-16T01:39:41.146Z</time>
      </trkpt>
      <trkpt lat="68.83639" lon="15.61913">
        <ele>3.713503</ele>
        <time>2020-07-16T01:39:54.570Z</time>
      </trkpt>
      <trkpt lat="68.83668" lon="15.61719">
        <ele>4.02118</ele>
        <time>2020-07-16T01:40:08.820Z</time>
      </trkpt>
      <trkpt lat="68.83704" lon="15.6146">
        <ele>4.471918</ele>
        <time>2020-07-16T01:40:28.243Z</time>
      </trkpt>
      <trkpt lat="68.83714" lon="15.61378">
        <ele>4.645445</ele>
        <time>2020-07-16T01:40:34.366Z</time>
      </trkpt>
      <trkpt lat="68.83724" lon="15.61301">
        <ele>4.810074</ele>
        <time>2020-07-16T01:40:40.149Z</time>
      </trkpt>
      <trkpt lat="68.83744" lon="15.61133">
        <ele>5.165849</ele>
        <time>2020-07-16T01:40:52.617Z</time>
      </trkpt>
      <trkpt lat="68.83761" lon="15.61014">
        <ele>5.49389</ele>
        <time>2020-07-16T01:41:01.746Z</time>
      </trkpt>
      <trkpt lat="68.83803" lon="15.60805">
        <ele>6.262097</ele>
        <time>2020-07-16T01:41:19.539Z</time>
      </trkpt>
      <trkpt lat="68.83846" lon="15.60609">
        <ele>7.026539</ele>
        <time>2020-07-16T01:41:37.134Z</time>
      </trkpt>
      <trkpt lat="68.8387" lon="15.60502">
        <ele>7.523144</ele>
        <time>2020-07-16T01:41:47.011Z</time>
      </trkpt>
      <trkpt lat="68.8388" lon="15.60466">
        <ele>7.70313</ele>
        <time>2020-07-16T01:41:50.682Z</time>
      </trkpt>
      <trkpt lat="68.83898" lon="15.60392">
        <ele>8.061138</ele>
        <time>2020-07-16T01:41:57.759Z</time>
      </trkpt>
      <trkpt lat="68.83913" lon="15.60343">
        <ele>8.308927</ele>
        <time>2020-07-16T01:42:02.553Z</time>
      </trkpt>
      <trkpt lat="68.83923" lon="15.60309">
        <ele>8.483278</ele>
        <time>2020-07-16T01:42:06.058Z</time>
      </trkpt>
      <trkpt lat="68.83935" lon="15.6027">
        <ele>8.688095</ele>
        <time>2020-07-16T01:42:09.942Z</time>
      </trkpt>
      <trkpt lat="68.83952" lon="15.60222">
        <ele>8.917785</ele>
        <time>2020-07-16T01:42:15.225Z</time>
      </trkpt>
      <trkpt lat="68.84069" lon="15.59912">
        <ele>9.654519</ele>
        <time>2020-07-16T01:42:46.281Z</time>
      </trkpt>
      <trkpt lat="68.84188" lon="15.59593">
        <ele>9.685549</ele>
        <time>2020-07-16T01:43:15.681Z</time>
      </trkpt>
      <trkpt lat="68.8428" lon="15.59273">
        <ele>9.592272</ele>
        <time>2020-07-16T01:43:41.614Z</time>
      </trkpt>
      <trkpt lat="68.84335" lon="15.59132">
        <ele>9.550723</ele>
        <time>2020-07-16T01:43:54.978Z</time>
      </trkpt>
      <trkpt lat="68.84461" lon="15.58846">
        <ele>9.563091</ele>
        <time>2020-07-16T01:44:24.252Z</time>
      </trkpt>
      <trkpt lat="68.84491" lon="15.58782">
        <ele>9.442136</ele>
        <time>2020-07-16T01:44:31.010Z</time>
      </trkpt>
      <trkpt lat="68.84568" lon="15.58609">
        <ele>9.122852</ele>
        <time>2020-07-16T01:44:47.752Z</time>
      </trkpt>
      <trkpt lat="68.84603" lon="15.58529">
        <ele>8.980188</ele>
        <time>2020-07-16T01:44:55.071Z</time>
      </trkpt>
      <trkpt lat="68.84655" lon="15.58412">
        <ele>8.913151</ele>
        <time>2020-07-16T01:45:06.215Z</time>
      </trkpt>
      <trkpt lat="68.84692" lon="15.58326">
        <ele>8.865086</ele>
        <time>2020-07-16T01:45:14.599Z</time>
      </trkpt>
      <trkpt lat="68.84706" lon="15.58294">
        <ele>8.847263</ele>
        <time>2020-07-16T01:45:17.678Z</time>
      </trkpt>
      <trkpt lat="68.84747" lon="15.58203">
        <ele>8.89752</ele>
        <time>2020-07-16T01:45:27.366Z</time>
      </trkpt>
      <trkpt lat="68.8485" lon="15.57964">
        <ele>10.48164</ele>
        <time>2020-07-16T01:45:56.364Z</time>
      </trkpt>
      <trkpt lat="68.84897" lon="15.57857">
        <ele>11.340873</ele>
        <time>2020-07-16T01:46:10.791Z</time>
      </trkpt>
      <trkpt lat="68.84961" lon="15.5771">
        <ele>12.833398</ele>
        <time>2020-07-16T01:46:30.576Z</time>
      </trkpt>
      <trkpt lat="68.8503" lon="15.57551">
        <ele>14.352839</ele>
        <time>2020-07-16T01:46:51.939Z</time>
      </trkpt>
      <trkpt lat="68.85058" lon="15.57486">
        <ele>14.824859</ele>
        <time>2020-07-16T01:47:00.244Z</time>
      </trkpt>
      <trkpt lat="68.85107" lon="15.57375">
        <ele>15.64281</ele>
        <time>2020-07-16T01:47:14.525Z</time>
      </trkpt>
      <trkpt lat="68.8516" lon="15.57253">
        <ele>16.454108</ele>
        <time>2020-07-16T01:47:28.700Z</time>
      </trkpt>
      <trkpt lat="68.85202" lon="15.57157">
        <ele>16.433867</ele>
        <time>2020-07-16T01:47:39.415Z</time>
      </trkpt>
      <trkpt lat="68.85277" lon="15.56985">
        <ele>16.397822</ele>
        <time>2020-07-16T01:47:56.065Z</time>
      </trkpt>
      <trkpt lat="68.85318" lon="15.5689">
        <ele>16.126843</ele>
        <time>2020-07-16T01:48:04.683Z</time>
      </trkpt>
      <trkpt lat="68.85346" lon="15.56826">
        <ele>15.820431</ele>
        <time>2020-07-16T01:48:10.256Z</time>
      </trkpt>
      <trkpt lat="68.85396" lon="15.56713">
        <ele>15.277358</ele>
        <time>2020-07-16T01:48:20.162Z</time>
      </trkpt>
      <trkpt lat="68.85468" lon="15.56545">
        <ele>14.611492</ele>
        <time>2020-07-16T01:48:35.164Z</time>
      </trkpt>
      <trkpt lat="68.85494" lon="15.56485">
        <ele>14.424754</ele>
        <time>2020-07-16T01:48:40.639Z</time>
      </trkpt>
      <trkpt lat="68.8553" lon="15.56401">
        <ele>14.164839</ele>
        <time>2020-07-16T01:48:48.427Z</time>
      </trkpt>
      <trkpt lat="68.85532" lon="15.56397">
        <ele>14.150773</ele>
        <time>2020-07-16T01:48:48.849Z</time>
      </trkpt>
      <trkpt lat="68.85537" lon="15.56386">
        <ele>14.117476</ele>
        <time>2020-07-16T01:48:49.839Z</time>
      </trkpt>
      <trkpt lat="68.85607" lon="15.56222">
        <ele>13.690864</ele>
        <time>2020-07-16T01:49:05.166Z</time>
      </trkpt>
      <trkpt lat="68.85623" lon="15.56184">
        <ele>13.607601</ele>
        <time>2020-07-16T01:49:08.889Z</time>
      </trkpt>
      <trkpt lat="68.85645" lon="15.56139">
        <ele>13.505161</ele>
        <time>2020-07-16T01:49:13.518Z</time>
      </trkpt>
      <trkpt lat="68.8566" lon="15.56107">
        <ele>13.429923</ele>
        <time>2020-07-16T01:49:16.962Z</time>
      </trkpt>
      <trkpt lat="68.85725" lon="15.56002">
        <ele>13.030344</ele>
        <time>2020-07-16T01:49:29.507Z</time>
      </trkpt>
      <trkpt lat="68.85787" lon="15.55962">
        <ele>12.038091</ele>
        <time>2020-07-16T01:49:39.291Z</time>
      </trkpt>
      <trkpt lat="68.85806" lon="15.55956">
        <ele>11.734436</ele>
        <time>2020-07-16T01:49:42.274Z</time>
      </trkpt>
      <trkpt lat="68.85833" lon="15.55948">
        <ele>11.311183</ele>
        <time>2020-07-16T01:49:46.216Z</time>
      </trkpt>
      <trkpt lat="68.85856" lon="15.55936">
        <ele>10.940645</ele>
        <time>2020-07-16T01:49:49.470Z</time>
      </trkpt>
      <trkpt lat="68.85906" lon="15.55901">
        <ele>9.957974</ele>
        <time>2020-07-16T01:49:56.489Z</time>
      </trkpt>
      <trkpt lat="68.8596" lon="15.5586">
        <ele>8.394066</ele>
        <time>2020-07-16T01:50:03.872Z</time>
      </trkpt>
      <trkpt lat="68.85991" lon="15.55837">
        <ele>7.50747</ele>
        <time>2020-07-16T01:50:08.069Z</time>
      </trkpt>
      <trkpt lat="68.86018" lon="15.55812">
        <ele>6.708887</ele>
        <time>2020-07-16T01:50:11.869Z</time>
      </trkpt>
      <trkpt lat="68.8603" lon="15.558">
        <ele>6.357634</ele>
        <time>2020-07-16T01:50:13.524Z</time>
      </trkpt>
      <trkpt lat="68.86136" lon="15.55678">
        <ele>4.038822</ele>
        <time>2020-07-16T01:50:29.258Z</time>
      </trkpt>
      <trkpt lat="68.86151" lon="15.55663">
        <ele>3.775454</ele>
        <time>2020-07-16T01:50:31.535Z</time>
      </trkpt>
      <trkpt lat="68.86174" lon="15.5564">
        <ele>3.356348</ele>
        <time>2020-07-16T01:50:35.312Z</time>
      </trkpt>
      <trkpt lat="68.86193" lon="15.55624">
        <ele>3.032274</ele>
        <time>2020-07-16T01:50:38.328Z</time>
      </trkpt>
      <trkpt lat="68.86214" lon="15.55607">
        <ele>2.67262</ele>
        <time>2020-07-16T01:50:41.737Z</time>
      </trkpt>
      <trkpt lat="68.86257" lon="15.55592">
        <ele>2.297375</ele>
        <time>2020-07-16T01:50:48.855Z</time>
      </trkpt>
      <trkpt lat="68.86271" lon="15.55593">
        <ele>2.267674</ele>
        <time>2020-07-16T01:50:51.105Z</time>
      </trkpt>
      <trkpt lat="68.86297" lon="15.55597">
        <ele>2.20883</ele>
        <time>2020-07-16T01:50:55.464Z</time>
      </trkpt>
      <trkpt lat="68.86364" lon="15.55615">
        <ele>2.058728</ele>
        <time>2020-07-16T01:51:07.443Z</time>
      </trkpt>
      <trkpt lat="68.86454" lon="15.55638">
        <ele>1.965692</ele>
        <time>2020-07-16T01:51:23.624Z</time>
      </trkpt>
      <trkpt lat="68.86513" lon="15.55669">
        <ele>1.985702</ele>
        <time>2020-07-16T01:51:34.289Z</time>
      </trkpt>
      <trkpt lat="68.8654" lon="15.55693">
        <ele>1.995268</ele>
        <time>2020-07-16T01:51:39.364Z</time>
      </trkpt>
      <trkpt lat="68.86585" lon="15.55733">
        <ele>2.011013</ele>
        <time>2020-07-16T01:51:47.842Z</time>
      </trkpt>
      <trkpt lat="68.86657" lon="15.55795">
        <ele>2.252628</ele>
        <time>2020-07-16T01:52:01.701Z</time>
      </trkpt>
      <trkpt lat="68.86683" lon="15.55817">
        <ele>2.341512</ele>
        <time>2020-07-16T01:52:06.927Z</time>
      </trkpt>
      <trkpt lat="68.86747" lon="15.55871">
        <ele>2.560427</ele>
        <time>2020-07-16T01:52:20.036Z</time>
      </trkpt>
      <trkpt lat="68.86764" lon="15.55887">
        <ele>2.624668</ele>
        <time>2020-07-16T01:52:23.479Z</time>
      </trkpt>
      <trkpt lat="68.86773" lon="15.55897">
        <ele>2.661103</ele>
        <time>2020-07-16T01:52:25.329Z</time>
      </trkpt>
      <trkpt lat="68.8678" lon="15.55905">
        <ele>2.691879</ele>
        <time>2020-07-16T01:52:26.846Z</time>
      </trkpt>
      <trkpt lat="68.86793" lon="15.55921">
        <ele>2.748501</ele>
        <time>2020-07-16T01:52:29.462Z</time>
      </trkpt>
      <trkpt lat="68.86854" lon="15.56002">
        <ele>3.018783</ele>
        <time>2020-07-16T01:52:42.418Z</time>
      </trkpt>
      <trkpt lat="68.86891" lon="15.56048">
        <ele>3.180645</ele>
        <time>2020-07-16T01:52:50.155Z</time>
      </trkpt>
      <trkpt lat="68.869" lon="15.56056">
        <ele>3.21667</ele>
        <time>2020-07-16T01:52:51.891Z</time>
      </trkpt>
      <trkpt lat="68.86923" lon="15.56079">
        <ele>3.312649</ele>
        <time>2020-07-16T01:52:56.545Z</time>
      </trkpt>
      <trkpt lat="68.86946" lon="15.56095">
        <ele>3.492809</ele>
        <time>2020-07-16T01:53:00.991Z</time>
      </trkpt>
      <trkpt lat="68.86991" lon="15.56129">
        <ele>3.854826</ele>
        <time>2020-07-16T01:53:10.108Z</time>
      </trkpt>
      <trkpt lat="68.87005" lon="15.5614">
        <ele>3.965228</ele>
        <time>2020-07-16T01:53:12.919Z</time>
      </trkpt>
      <trkpt lat="68.87105" lon="15.56236">
        <ele>4.806927</ele>
        <time>2020-07-16T01:53:35.383Z</time>
      </trkpt>
      <trkpt lat="68.872" lon="15.56328">
        <ele>5.823026</ele>
        <time>2020-07-16T01:53:56.891Z</time>
      </trkpt>
      <trkpt lat="68.8724" lon="15.56366">
        <ele>6.250013</ele>
        <time>2020-07-16T01:54:05.744Z</time>
      </trkpt>
      <trkpt lat="68.87327" lon="15.56451">
        <ele>7.084462</ele>
        <time>2020-07-16T01:54:24.768Z</time>
      </trkpt>
      <trkpt lat="68.87618" lon="15.56734">
        <ele>9.571503</ele>
        <time>2020-07-16T01:55:27.998Z</time>
      </trkpt>
      <trkpt lat="68.87708" lon="15.56811">
        <ele>9.842134</ele>
        <time>2020-07-16T01:55:46.596Z</time>
      </trkpt>
      <trkpt lat="68.87856" lon="15.56885">
        <ele>9.362437</ele>
        <time>2020-07-16T01:56:12.430Z</time>
      </trkpt>
      <trkpt lat="68.87921" lon="15.56915">
        <ele>8.792907</ele>
        <time>2020-07-16T01:56:22.420Z</time>
      </trkpt>
      <trkpt lat="68.88137" lon="15.57017">
        <ele>5.906774</ele>
        <time>2020-07-16T01:56:54.321Z</time>
      </trkpt>
      <trkpt lat="68.8828" lon="15.57083">
        <ele>5.913202</ele>
        <time>2020-07-16T01:57:20.183Z</time>
      </trkpt>
      <trkpt lat="68.88358" lon="15.57121">
        <ele>6.43903</ele>
        <time>2020-07-16T01:57:36.872Z</time>
      </trkpt>
      <trkpt lat="68.88575" lon="15.5722">
        <ele>9.044274</ele>
        <time>2020-07-16T01:58:24.373Z</time>
      </trkpt>
      <trkpt lat="68.8866" lon="15.57279">
        <ele>10.210783</ele>
        <time>2020-07-16T01:58:44.046Z</time>
      </trkpt>
      <trkpt lat="68.88742" lon="15.57392">
        <ele>11.120726</ele>
        <time>2020-07-16T01:59:05.138Z</time>
      </trkpt>
      <trkpt lat="68.88793" lon="15.57493">
        <ele>11.724443</ele>
        <time>2020-07-16T01:59:17.961Z</time>
      </trkpt>
      <trkpt lat="68.88831" lon="15.57587">
        <ele>11.827661</ele>
        <time>2020-07-16T01:59:27.288Z</time>
      </trkpt>
      <trkpt lat="68.88926" lon="15.5792">
        <ele>10.515209</ele>
        <time>2020-07-16T01:59:50.808Z</time>
      </trkpt>
      <trkpt lat="68.88938" lon="15.57982">
        <ele>10.277831</ele>
        <time>2020-07-16T01:59:54.563Z</time>
      </trkpt>
      <trkpt lat="68.88944" lon="15.58049">
        <ele>10.045309</ele>
        <time>2020-07-16T01:59:58.227Z</time>
      </trkpt>
      <trkpt lat="68.88942" lon="15.5813">
        <ele>9.768892</ele>
        <time>2020-07-16T02:00:02.773Z</time>
      </trkpt>
      <trkpt lat="68.88929" lon="15.58227">
        <ele>9.412122</ele>
        <time>2020-07-16T02:00:08.769Z</time>
      </trkpt>
      <trkpt lat="68.88862" lon="15.58421">
        <ele>8.589967</ele>
        <time>2020-07-16T02:00:24.037Z</time>
      </trkpt>
      <trkpt lat="68.88848" lon="15.58459">
        <ele>8.466158</ele>
        <time>2020-07-16T02:00:27.361Z</time>
      </trkpt>
      <trkpt lat="68.8877" lon="15.58663">
        <ele>7.800377</ele>
        <time>2020-07-16T02:00:44.797Z</time>
      </trkpt>
      <trkpt lat="68.88725" lon="15.58799">
        <ele>7.711213</ele>
        <time>2020-07-16T02:00:55.384Z</time>
      </trkpt>
      <trkpt lat="68.88666" lon="15.59028">
        <ele>7.872335</ele>
        <time>2020-07-16T02:01:13.866Z</time>
      </trkpt>
      <trkpt lat="68.88642" lon="15.5909">
        <ele>7.923293</ele>
        <time>2020-07-16T02:01:20.623Z</time>
      </trkpt>
      <trkpt lat="68.88597" lon="15.59149">
        <ele>8.530187</ele>
        <time>2020-07-16T02:01:31.684Z</time>
      </trkpt>
      <trkpt lat="68.88448" lon="15.59292">
        <ele>10.267101</ele>
        <time>2020-07-16T02:02:07.498Z</time>
      </trkpt>
      <trkpt lat="68.88413" lon="15.59351">
        <ele>10.192519</ele>
        <time>2020-07-16T02:02:15.609Z</time>
      </trkpt>
      <trkpt lat="68.88391" lon="15.59419">
        <ele>10.13376</ele>
        <time>2020-07-16T02:02:21.402Z</time>
      </trkpt>
      <trkpt lat="68.88383" lon="15.59474">
        <ele>10.094872</ele>
        <time>2020-07-16T02:02:24.945Z</time>
      </trkpt>
      <trkpt lat="68.88379" lon="15.59544">
        <ele>10.049039</ele>
        <time>2020-07-16T02:02:28.943Z</time>
      </trkpt>
      <trkpt lat="68.88382" lon="15.59604">
        <ele>10.009711</ele>
        <time>2020-07-16T02:02:32.256Z</time>
      </trkpt>
      <trkpt lat="68.88398" lon="15.59745">
        <ele>9.372253</ele>
        <time>2020-07-16T02:02:39.958Z</time>
      </trkpt>
      <trkpt lat="68.884" lon="15.59822">
        <ele>8.945049</ele>
        <time>2020-07-16T02:02:43.883Z</time>
      </trkpt>
      <trkpt lat="68.88395" lon="15.60008">
        <ele>7.905586</ele>
        <time>2020-07-16T02:02:53.527Z</time>
      </trkpt>
      <trkpt lat="68.88403" lon="15.6014">
        <ele>7.192617</ele>
        <time>2020-07-16T02:03:00.774Z</time>
      </trkpt>
      <trkpt lat="68.88423" lon="15.60311">
        <ele>6.867215</ele>
        <time>2020-07-16T02:03:10.943Z</time>
      </trkpt>
      <trkpt lat="68.88433" lon="15.60406">
        <ele>6.687658</ele>
        <time>2020-07-16T02:03:16.916Z</time>
      </trkpt>
      <trkpt lat="68.88535" lon="15.6131">
        <ele>5.88522</ele>
        <time>2020-07-16T02:04:17.918Z</time>
      </trkpt>
      <trkpt lat="68.88571" lon="15.62145">
        <ele>3.380147</ele>
        <time>2020-07-16T02:05:05.173Z</time>
      </trkpt>
      <trkpt lat="68.88579" lon="15.62207">
        <ele>3.123612</ele>
        <time>2020-07-16T02:05:08.676Z</time>
      </trkpt>
      <trkpt lat="68.88595" lon="15.62283">
        <ele>2.778601</ele>
        <time>2020-07-16T02:05:13.315Z</time>
      </trkpt>
      <trkpt lat="68.8863" lon="15.62358">
        <ele>2.30575</ele>
        <time>2020-07-16T02:05:19.833Z</time>
      </trkpt>
      <trkpt lat="68.88642" lon="15.62373">
        <ele>2.161191</ele>
        <time>2020-07-16T02:05:21.785Z</time>
      </trkpt>
      <trkpt lat="68.88655" lon="15.62385">
        <ele>2.008742</ele>
        <time>2020-07-16T02:05:23.979Z</time>
      </trkpt>
      <trkpt lat="68.88679" lon="15.62397">
        <ele>1.75511</ele>
        <time>2020-07-16T02:05:27.635Z</time>
      </trkpt>
      <trkpt lat="68.88732" lon="15.62407">
        <ele>2.605067</ele>
        <time>2020-07-16T02:05:37.541Z</time>
      </trkpt>
      <trkpt lat="68.88745" lon="15.6241">
        <ele>2.829978</ele>
        <time>2020-07-16T02:05:40.385Z</time>
      </trkpt>
      <trkpt lat="68.88753" lon="15.62412">
        <ele>2.965925</ele>
        <time>2020-07-16T02:05:42.061Z</time>
      </trkpt>
      <trkpt lat="68.88768" lon="15.62415">
        <ele>3.210943</ele>
        <time>2020-07-16T02:05:45.484Z</time>
      </trkpt>
      <trkpt lat="68.8883" lon="15.62429">
        <ele>4.258205</ele>
        <time>2020-07-16T02:06:01.339Z</time>
      </trkpt>
      <trkpt lat="68.88886" lon="15.6244">
        <ele>5.828271</ele>
        <time>2020-07-16T02:06:17.961Z</time>
      </trkpt>
      <trkpt lat="68.88944" lon="15.62438">
        <ele>8.156523</ele>
        <time>2020-07-16T02:06:36.337Z</time>
      </trkpt>
      <trkpt lat="68.89011" lon="15.62408">
        <ele>10.877491</ele>
        <time>2020-07-16T02:06:58.357Z</time>
      </trkpt>
      <trkpt lat="68.89079" lon="15.62344">
        <ele>13.121206</ele>
        <time>2020-07-16T02:07:19.638Z</time>
      </trkpt>
      <trkpt lat="68.89123" lon="15.62282">
        <ele>14.375165</ele>
        <time>2020-07-16T02:07:33.028Z</time>
      </trkpt>
      <trkpt lat="68.89193" lon="15.62139">
        <ele>16.56611</ele>
        <time>2020-07-16T02:07:54.184Z</time>
      </trkpt>
      <trkpt lat="68.8933" lon="15.61729">
        <ele>17.590972</ele>
        <time>2020-07-16T02:08:33.240Z</time>
      </trkpt>
      <trkpt lat="68.894" lon="15.61557">
        <ele>17.189865</ele>
        <time>2020-07-16T02:08:49.051Z</time>
      </trkpt>
      <trkpt lat="68.89494" lon="15.61405">
        <ele>16.319455</ele>
        <time>2020-07-16T02:09:05.929Z</time>
      </trkpt>
      <trkpt lat="68.89567" lon="15.61332">
        <ele>15.291654</ele>
        <time>2020-07-16T02:09:17.350Z</time>
      </trkpt>
      <trkpt lat="68.89644" lon="15.61288">
        <ele>14.284499</ele>
        <time>2020-07-16T02:09:28.942Z</time>
      </trkpt>
      <trkpt lat="68.89703" lon="15.61278">
        <ele>13.636511</ele>
        <time>2020-07-16T02:09:37.547Z</time>
      </trkpt>
      <trkpt lat="68.90324" lon="15.61322">
        <ele>7.154162</ele>
        <time>2020-07-16T02:11:13.524Z</time>
      </trkpt>
      <trkpt lat="68.90447" lon="15.61317">
        <ele>7.467712</ele>
        <time>2020-07-16T02:11:34.909Z</time>
      </trkpt>
      <trkpt lat="68.90463" lon="15.61317">
        <ele>7.540199</ele>
        <time>2020-07-16T02:11:38.104Z</time>
      </trkpt>
      <trkpt lat="68.9051" lon="15.61314">
        <ele>7.750933</ele>
        <time>2020-07-16T02:11:47.932Z</time>
      </trkpt>
      <trkpt lat="68.9094" lon="15.61369">
        <ele>16.452277</ele>
        <time>2020-07-16T02:13:36.734Z</time>
      </trkpt>
      <trkpt lat="68.91266" lon="15.61358">
        <ele>18.381161</ele>
        <time>2020-07-16T02:14:37.886Z</time>
      </trkpt>
      <trkpt lat="68.91353" lon="15.6137">
        <ele>19.041531</ele>
        <time>2020-07-16T02:14:55.800Z</time>
      </trkpt>
      <trkpt lat="68.91497" lon="15.61424">
        <ele>20.172766</ele>
        <time>2020-07-16T02:15:26.035Z</time>
      </trkpt>
      <trkpt lat="68.91536" lon="15.61442">
        <ele>20.489096</ele>
        <time>2020-07-16T02:15:34.169Z</time>
      </trkpt>
      <trkpt lat="68.91576" lon="15.61466">
        <ele>20.814005</ele>
        <time>2020-07-16T02:15:42.519Z</time>
      </trkpt>
      <trkpt lat="68.91644" lon="15.61509">
        <ele>21.092938</ele>
        <time>2020-07-16T02:15:56.221Z</time>
      </trkpt>
      <trkpt lat="68.91719" lon="15.61556">
        <ele>21.261551</ele>
        <time>2020-07-16T02:16:10.671Z</time>
      </trkpt>
      <trkpt lat="68.91977" lon="15.61718">
        <ele>20.488371</ele>
        <time>2020-07-16T02:16:56.209Z</time>
      </trkpt>
      <trkpt lat="68.92045" lon="15.61761">
        <ele>19.398535</ele>
        <time>2020-07-16T02:17:06.810Z</time>
      </trkpt>
      <trkpt lat="68.92218" lon="15.61871">
        <ele>15.594956</ele>
        <time>2020-07-16T02:17:31.079Z</time>
      </trkpt>
      <trkpt lat="68.92253" lon="15.61895">
        <ele>14.650699</ele>
        <time>2020-07-16T02:17:35.822Z</time>
      </trkpt>
      <trkpt lat="68.92267" lon="15.61907">
        <ele>14.255279</ele>
        <time>2020-07-16T02:17:37.725Z</time>
      </trkpt>
      <trkpt lat="68.92342" lon="15.61977">
        <ele>12.775483</ele>
        <time>2020-07-16T02:17:48.427Z</time>
      </trkpt>
      <trkpt lat="68.9242" lon="15.62062">
        <ele>11.622236</ele>
        <time>2020-07-16T02:18:00.476Z</time>
      </trkpt>
      <trkpt lat="68.92706" lon="15.62563">
        <ele>12.42122</ele>
        <time>2020-07-16T02:19:06.181Z</time>
      </trkpt>
      <trkpt lat="68.92787" lon="15.6267">
        <ele>12.895535</ele>
        <time>2020-07-16T02:19:24.885Z</time>
      </trkpt>
      <trkpt lat="68.92873" lon="15.62755">
        <ele>13.082103</ele>
        <time>2020-07-16T02:19:42.178Z</time>
      </trkpt>
      <trkpt lat="68.92939" lon="15.62817">
        <ele>13.223612</ele>
        <time>2020-07-16T02:19:54.328Z</time>
      </trkpt>
      <trkpt lat="68.93021" lon="15.62894">
        <ele>13.086653</ele>
        <time>2020-07-16T02:20:08.629Z</time>
      </trkpt>
      <trkpt lat="68.93241" lon="15.631">
        <ele>13.205221</ele>
        <time>2020-07-16T02:20:50.266Z</time>
      </trkpt>
      <trkpt lat="68.93398" lon="15.63249">
        <ele>13.673819</ele>
        <time>2020-07-16T02:21:23.334Z</time>
      </trkpt>
      <trkpt lat="68.93601" lon="15.6344">
        <ele>13.366346</ele>
        <time>2020-07-16T02:22:00.170Z</time>
      </trkpt>
      <trkpt lat="68.93856" lon="15.63679">
        <ele>12.382206</ele>
        <time>2020-07-16T02:22:43.362Z</time>
      </trkpt>
      <trkpt lat="68.93932" lon="15.63768">
        <ele>12.6236</ele>
        <time>2020-07-16T02:22:59.978Z</time>
      </trkpt>
      <trkpt lat="68.94068" lon="15.63971">
        <ele>13.914987</ele>
        <time>2020-07-16T02:23:33.679Z</time>
      </trkpt>
      <trkpt lat="68.94115" lon="15.64042">
        <ele>14.438573</ele>
        <time>2020-07-16T02:23:44.542Z</time>
      </trkpt>
      <trkpt lat="68.94172" lon="15.64099">
        <ele>14.370222</ele>
        <time>2020-07-16T02:23:55.529Z</time>
      </trkpt>
      <trkpt lat="68.94313" lon="15.64188">
        <ele>14.16892</ele>
        <time>2020-07-16T02:24:19.715Z</time>
      </trkpt>
      <trkpt lat="68.94555" lon="15.64416">
        <ele>13.593002</ele>
        <time>2020-07-16T02:25:03.870Z</time>
      </trkpt>
      <trkpt lat="68.94594" lon="15.64453">
        <ele>13.509389</ele>
        <time>2020-07-16T02:25:11.014Z</time>
      </trkpt>
      <trkpt lat="68.94636" lon="15.64493">
        <ele>13.43091</ele>
        <time>2020-07-16T02:25:18.738Z</time>
      </trkpt>
      <trkpt lat="68.94646" lon="15.64503">
        <ele>13.431155</ele>
        <time>2020-07-16T02:25:20.504Z</time>
      </trkpt>
      <trkpt lat="68.94691" lon="15.64546">
        <ele>13.432306</ele>
        <time>2020-07-16T02:25:28.772Z</time>
      </trkpt>
      <trkpt lat="68.94749" lon="15.64601">
        <ele>13.433769</ele>
        <time>2020-07-16T02:25:39.438Z</time>
      </trkpt>
      <trkpt lat="68.94786" lon="15.64637">
        <ele>13.434714</ele>
        <time>2020-07-16T02:25:46.696Z</time>
      </trkpt>
      <trkpt lat="68.94825" lon="15.64684">
        <ele>13.601508</ele>
        <time>2020-07-16T02:25:54.778Z</time>
      </trkpt>
      <trkpt lat="68.94853" lon="15.6474">
        <ele>13.806884</ele>
        <time>2020-07-16T02:26:01.385Z</time>
      </trkpt>
      <trkpt lat="68.94861" lon="15.64765">
        <ele>13.878767</ele>
        <time>2020-07-16T02:26:03.651Z</time>
      </trkpt>
      <trkpt lat="68.94871" lon="15.64806">
        <ele>13.988973</ele>
        <time>2020-07-16T02:26:07.358Z</time>
      </trkpt>
      <trkpt lat="68.94876" lon="15.64825">
        <ele>14.037839</ele>
        <time>2020-07-16T02:26:08.920Z</time>
      </trkpt>
      <trkpt lat="68.94934" lon="15.65149">
        <ele>14.963161</ele>
        <time>2020-07-16T02:26:35.572Z</time>
      </trkpt>
      <trkpt lat="68.94995" lon="15.65494">
        <ele>16.151623</ele>
        <time>2020-07-16T02:27:04.487Z</time>
      </trkpt>
      <trkpt lat="68.95012" lon="15.65586">
        <ele>16.342061</ele>
        <time>2020-07-16T02:27:12.080Z</time>
      </trkpt>
      <trkpt lat="68.95016" lon="15.65607">
        <ele>16.384435</ele>
        <time>2020-07-16T02:27:13.770Z</time>
      </trkpt>
      <trkpt lat="68.95024" lon="15.6565">
        <ele>16.47422</ele>
        <time>2020-07-16T02:27:17.356Z</time>
      </trkpt>
      <trkpt lat="68.95026" lon="15.65663">
        <ele>16.502227</ele>
        <time>2020-07-16T02:27:18.420Z</time>
      </trkpt>
      <trkpt lat="68.95033" lon="15.657">
        <ele>16.577717</ele>
        <time>2020-07-16T02:27:21.430Z</time>
      </trkpt>
      <trkpt lat="68.95071" lon="15.65926">
        <ele>17.012833</ele>
        <time>2020-07-16T02:27:38.692Z</time>
      </trkpt>
      <trkpt lat="68.95097" lon="15.66037">
        <ele>16.336319</ele>
        <time>2020-07-16T02:27:46.342Z</time>
      </trkpt>
      <trkpt lat="68.95113" lon="15.66095">
        <ele>15.953755</ele>
        <time>2020-07-16T02:27:50.449Z</time>
      </trkpt>
      <trkpt lat="68.95126" lon="15.66135">
        <ele>15.676246</ele>
        <time>2020-07-16T02:27:53.216Z</time>
      </trkpt>
      <trkpt lat="68.95135" lon="15.66162">
        <ele>15.483016</ele>
        <time>2020-07-16T02:27:55.274Z</time>
      </trkpt>
      <trkpt lat="68.95145" lon="15.66186">
        <ele>15.296335</ele>
        <time>2020-07-16T02:27:57.055Z</time>
      </trkpt>
      <trkpt lat="68.95157" lon="15.66217">
        <ele>15.058018</ele>
        <time>2020-07-16T02:27:59.458Z</time>
      </trkpt>
      <trkpt lat="68.95172" lon="15.6625">
        <ele>14.785041</ele>
        <time>2020-07-16T02:28:02.074Z</time>
      </trkpt>
      <trkpt lat="68.9519" lon="15.66283">
        <ele>14.483858</ele>
        <time>2020-07-16T02:28:05.051Z</time>
      </trkpt>
      <trkpt lat="68.95203" lon="15.66307">
        <ele>14.033141</ele>
        <time>2020-07-16T02:28:07.195Z</time>
      </trkpt>
      <trkpt lat="68.95285" lon="15.66406">
        <ele>11.3663</ele>
        <time>2020-07-16T02:28:18.946Z</time>
      </trkpt>
      <trkpt lat="68.95319" lon="15.66429">
        <ele>10.302585</ele>
        <time>2020-07-16T02:28:23.567Z</time>
      </trkpt>
      <trkpt lat="68.95375" lon="15.66446">
        <ele>8.654694</ele>
        <time>2020-07-16T02:28:30.898Z</time>
      </trkpt>
      <trkpt lat="68.95466" lon="15.66425">
        <ele>6.164425</ele>
        <time>2020-07-16T02:28:42.958Z</time>
      </trkpt>
      <trkpt lat="68.9557" lon="15.66342">
        <ele>3.565751</ele>
        <time>2020-07-16T02:28:57.718Z</time>
      </trkpt>
      <trkpt lat="68.95671" lon="15.6622">
        <ele>1.745423</ele>
        <time>2020-07-16T02:29:13.788Z</time>
      </trkpt>
      <trkpt lat="68.95781" lon="15.66035">
        <ele>0.638538</ele>
        <time>2020-07-16T02:29:34.109Z</time>
      </trkpt>
      <trkpt lat="68.95864" lon="15.65848">
        <ele>0.141057</ele>
        <time>2020-07-16T02:29:52.402Z</time>
      </trkpt>
      <trkpt lat="68.9595" lon="15.65591">
        <ele>0.071087</ele>
        <time>2020-07-16T02:30:14.707Z</time>
      </trkpt>
      <trkpt lat="68.96247" lon="15.64574">
        <ele>1.217797</ele>
        <time>2020-07-16T02:31:40.193Z</time>
      </trkpt>
      <trkpt lat="68.96679" lon="15.63109">
        <ele>8.993464</ele>
        <time>2020-07-16T02:34:07.777Z</time>
      </trkpt>
      <trkpt lat="68.96689" lon="15.63078">
        <ele>9.310477</ele>
        <time>2020-07-16T02:34:11.577Z</time>
      </trkpt>
      <trkpt lat="68.96738" lon="15.62941">
        <ele>10.731375</ele>
        <time>2020-07-16T02:34:28.732Z</time>
      </trkpt>
      <trkpt lat="68.96812" lon="15.62782">
        <ele>12.668511</ele>
        <time>2020-07-16T02:34:53.190Z</time>
      </trkpt>
      <trkpt lat="68.96827" lon="15.62757">
        <ele>13.044529</ele>
        <time>2020-07-16T02:34:57.855Z</time>
      </trkpt>
      <trkpt lat="68.96832" lon="15.6275">
        <ele>13.159698</ele>
        <time>2020-07-16T02:34:59.156Z</time>
      </trkpt>
      <trkpt lat="68.96852" lon="15.62724">
        <ele>13.616699</ele>
        <time>2020-07-16T02:35:04.590Z</time>
      </trkpt>
      <trkpt lat="68.96875" lon="15.62699">
        <ele>14.129586</ele>
        <time>2020-07-16T02:35:10.463Z</time>
      </trkpt>
      <trkpt lat="68.96888" lon="15.62688">
        <ele>14.418176</ele>
        <time>2020-07-16T02:35:13.982Z</time>
      </trkpt>
      <trkpt lat="68.96929" lon="15.62665">
        <ele>15.301821</ele>
        <time>2020-07-16T02:35:24.084Z</time>
      </trkpt>
      <trkpt lat="68.96989" lon="15.62664">
        <ele>15.867047</ele>
        <time>2020-07-16T02:35:37.991Z</time>
      </trkpt>
      <trkpt lat="68.97051" lon="15.62705">
        <ele>16.131971</ele>
        <time>2020-07-16T02:35:50.289Z</time>
      </trkpt>
      <trkpt lat="68.97093" lon="15.62759">
        <ele>16.327939</ele>
        <time>2020-07-16T02:35:58.367Z</time>
      </trkpt>
      <trkpt lat="68.97108" lon="15.62782">
        <ele>16.398952</ele>
        <time>2020-07-16T02:36:01.157Z</time>
      </trkpt>
      <trkpt lat="68.97132" lon="15.62822">
        <ele>16.204638</ele>
        <time>2020-07-16T02:36:05.668Z</time>
      </trkpt>
      <trkpt lat="68.97217" lon="15.6298">
        <ele>14.688456</ele>
        <time>2020-07-16T02:36:21.006Z</time>
      </trkpt>
      <trkpt lat="68.97289" lon="15.63094">
        <ele>13.279332</ele>
        <time>2020-07-16T02:36:32.617Z</time>
      </trkpt>
      <trkpt lat="68.97503" lon="15.63347">
        <ele>9.039165</ele>
        <time>2020-07-16T02:37:04.672Z</time>
      </trkpt>
      <trkpt lat="68.97569" lon="15.63437">
        <ele>8.374817</ele>
        <time>2020-07-16T02:37:16.783Z</time>
      </trkpt>
      <trkpt lat="68.97626" lon="15.63539">
        <ele>8.765034</ele>
        <time>2020-07-16T02:37:30.547Z</time>
      </trkpt>
      <trkpt lat="68.97728" lon="15.63766">
        <ele>11.226844</ele>
        <time>2020-07-16T02:38:03.757Z</time>
      </trkpt>
      <trkpt lat="68.97777" lon="15.63848">
        <ele>11.705167</ele>
        <time>2020-07-16T02:38:18.311Z</time>
      </trkpt>
      <trkpt lat="68.97858" lon="15.63928">
        <ele>12.146267</ele>
        <time>2020-07-16T02:38:37.445Z</time>
      </trkpt>
      <trkpt lat="68.98053" lon="15.64026">
        <ele>8.338459</ele>
        <time>2020-07-16T02:39:04.607Z</time>
      </trkpt>
      <trkpt lat="68.98085" lon="15.64042">
        <ele>7.453672</ele>
        <time>2020-07-16T02:39:08.623Z</time>
      </trkpt>
      <trkpt lat="68.98114" lon="15.64058">
        <ele>6.46843</ele>
        <time>2020-07-16T02:39:12.350Z</time>
      </trkpt>
      <trkpt lat="68.98123" lon="15.64064">
        <ele>6.166051</ele>
        <time>2020-07-16T02:39:13.465Z</time>
      </trkpt>
      <trkpt lat="68.98188" lon="15.64133">
        <ele>3.859696</ele>
        <time>2020-07-16T02:39:22.227Z</time>
      </trkpt>
      <trkpt lat="68.98236" lon="15.64226">
        <ele>1.916415</ele>
        <time>2020-07-16T02:39:29.951Z</time>
      </trkpt>
      <trkpt lat="68.98245" lon="15.64249">
        <ele>1.513319</ele>
        <time>2020-07-16T02:39:31.596Z</time>
      </trkpt>
      <trkpt lat="68.9825" lon="15.64261">
        <ele>1.468668</ele>
        <time>2020-07-16T02:39:32.512Z</time>
      </trkpt>
      <trkpt lat="68.98365" lon="15.64638">
        <ele>0.509454</ele>
        <time>2020-07-16T02:40:02.819Z</time>
      </trkpt>
      <trkpt lat="68.98551" lon="15.65114">
        <ele>2.033815</ele>
        <time>2020-07-16T02:40:52.455Z</time>
      </trkpt>
      <trkpt lat="68.98562" lon="15.65144">
        <ele>2.169361</ele>
        <time>2020-07-16T02:40:55.682Z</time>
      </trkpt>
      <trkpt lat="68.98586" lon="15.65215">
        <ele>2.482219</ele>
        <time>2020-07-16T02:41:03.039Z</time>
      </trkpt>
      <trkpt lat="68.98589" lon="15.65209">
        <ele>2.513951</ele>
        <time>2020-07-16T02:41:04.011Z</time>
      </trkpt>
      <trkpt lat="68.98878" lon="15.64818">
        <ele>6.072806</ele>
        <time>2020-07-16T02:42:13.057Z</time>
      </trkpt>
      <trkpt lat="68.99233" lon="15.64346">
        <ele>10.535083</ele>
        <time>2020-07-16T02:43:37.358Z</time>
      </trkpt>
      <trkpt lat="68.99309" lon="15.64244">
        <ele>11.613823</ele>
        <time>2020-07-16T02:43:56.076Z</time>
      </trkpt>
      <trkpt lat="68.99485" lon="15.64012">
        <ele>14.336802</ele>
        <time>2020-07-16T02:44:39.807Z</time>
      </trkpt>
      <trkpt lat="68.99619" lon="15.63836">
        <ele>16.277113</ele>
        <time>2020-07-16T02:45:12.356Z</time>
      </trkpt>
      <trkpt lat="68.99852" lon="15.63525">
        <ele>19.381227</ele>
        <time>2020-07-16T02:46:08.436Z</time>
      </trkpt>
      <trkpt lat="68.99919" lon="15.63439">
        <ele>20.247452</ele>
        <time>2020-07-16T02:46:24.601Z</time>
      </trkpt>
      <trkpt lat="68.99952" lon="15.63395">
        <ele>20.546689</ele>
        <time>2020-07-16T02:46:32.381Z</time>
      </trkpt>
      <trkpt lat="68.9997" lon="15.63368">
        <ele>20.670435</ele>
        <time>2020-07-16T02:46:36.707Z</time>
      </trkpt>
      <trkpt lat="68.99996" lon="15.63315">
        <ele>20.856171</ele>
        <time>2020-07-16T02:46:42.918Z</time>
      </trkpt>
      <trkpt lat="69.00004" lon="15.63286">
        <ele>20.935406</ele>
        <time>2020-07-16T02:46:45.575Z</time>
      </trkpt>
      <trkpt lat="69.00011" lon="15.63261">
        <ele>21.002809</ele>
        <time>2020-07-16T02:46:47.779Z</time>
      </trkpt>
      <trkpt lat="69.00023" lon="15.63214">
        <ele>21.122233</ele>
        <time>2020-07-16T02:46:51.754Z</time>
      </trkpt>
      <trkpt lat="69.00027" lon="15.63195">
        <ele>21.169778</ele>
        <time>2020-07-16T02:46:53.273Z</time>
      </trkpt>
      <trkpt lat="69.00038" lon="15.63142">
        <ele>21.296492</ele>
        <time>2020-07-16T02:46:57.434Z</time>
      </trkpt>
      <trkpt lat="69.00059" lon="15.63016">
        <ele>21.447993</ele>
        <time>2020-07-16T02:47:06.755Z</time>
      </trkpt>
      <trkpt lat="69.0006" lon="15.63009">
        <ele>21.443773</ele>
        <time>2020-07-16T02:47:07.227Z</time>
      </trkpt>
      <trkpt lat="69.00088" lon="15.62836">
        <ele>21.338045</ele>
        <time>2020-07-16T02:47:19.011Z</time>
      </trkpt>
      <trkpt lat="69.00133" lon="15.62553">
        <ele>21.163043</ele>
        <time>2020-07-16T02:47:37.819Z</time>
      </trkpt>
      <trkpt lat="69.00176" lon="15.62288">
        <ele>20.989354</ele>
        <time>2020-07-16T02:47:55.868Z</time>
      </trkpt>
      <trkpt lat="69.00178" lon="15.62275">
        <ele>20.980913</ele>
        <time>2020-07-16T02:47:56.747Z</time>
      </trkpt>
      <trkpt lat="69.00193" lon="15.62181">
        <ele>20.919229</ele>
        <time>2020-07-16T02:48:03.322Z</time>
      </trkpt>
      <trkpt lat="69.00212" lon="15.62064">
        <ele>20.89654</ele>
        <time>2020-07-16T02:48:11.420Z</time>
      </trkpt>
      <trkpt lat="69.00258" lon="15.61784">
        <ele>20.889572</ele>
        <time>2020-07-16T02:48:30.926Z</time>
      </trkpt>
      <trkpt lat="69.00277" lon="15.61663">
        <ele>20.89124</ele>
        <time>2020-07-16T02:48:39.804Z</time>
      </trkpt>
      <trkpt lat="69.00307" lon="15.61473">
        <ele>20.917167</ele>
        <time>2020-07-16T02:48:53.311Z</time>
      </trkpt>
      <trkpt lat="69.00336" lon="15.61299">
        <ele>20.94121</ele>
        <time>2020-07-16T02:49:05.529Z</time>
      </trkpt>
      <trkpt lat="69.00347" lon="15.6123">
        <ele>20.942826</ele>
        <time>2020-07-16T02:49:10.368Z</time>
      </trkpt>
      <trkpt lat="69.00383" lon="15.61009">
        <ele>20.567548</ele>
        <time>2020-07-16T02:49:25.239Z</time>
      </trkpt>
      <trkpt lat="69.00455" lon="15.60565">
        <ele>19.435062</ele>
        <time>2020-07-16T02:49:53.525Z</time>
      </trkpt>
      <trkpt lat="69.00693" lon="15.59099">
        <ele>14.817587</ele>
        <time>2020-07-16T02:51:23.713Z</time>
      </trkpt>
      <trkpt lat="69.00737" lon="15.58818">
        <ele>15.245833</ele>
        <time>2020-07-16T02:51:44.095Z</time>
      </trkpt>
      <trkpt lat="69.00751" lon="15.58686">
        <ele>15.953381</ele>
        <time>2020-07-16T02:51:54.714Z</time>
      </trkpt>
      <trkpt lat="69.00963" lon="15.56468">
        <ele>34.487333</ele>
        <time>2020-07-16T02:55:27.223Z</time>
      </trkpt>
      <trkpt lat="69.00974" lon="15.56327">
        <ele>33.952826</ele>
        <time>2020-07-16T02:55:36.745Z</time>
      </trkpt>
      <trkpt lat="69.00979" lon="15.55951">
        <ele>31.320137</ele>
        <time>2020-07-16T02:55:55.214Z</time>
      </trkpt>
      <trkpt lat="69.00976" lon="15.5582">
        <ele>28.856804</ele>
        <time>2020-07-16T02:56:00.915Z</time>
      </trkpt>
      <trkpt lat="69.00875" lon="15.54943">
        <ele>9.988705</ele>
        <time>2020-07-16T02:56:39.366Z</time>
      </trkpt>
      <trkpt lat="69.00866" lon="15.5484">
        <ele>8.446561</ele>
        <time>2020-07-16T02:56:44.012Z</time>
      </trkpt>
      <trkpt lat="69.00863" lon="15.54732">
        <ele>6.876141</ele>
        <time>2020-07-16T02:56:48.927Z</time>
      </trkpt>
      <trkpt lat="69.00864" lon="15.5466">
        <ele>5.831598</ele>
        <time>2020-07-16T02:56:52.302Z</time>
      </trkpt>
      <trkpt lat="69.00866" lon="15.54609">
        <ele>5.075578</ele>
        <time>2020-07-16T02:56:54.853Z</time>
      </trkpt>
      <trkpt lat="69.00866" lon="15.54572">
        <ele>4.57176</ele>
        <time>2020-07-16T02:56:56.705Z</time>
      </trkpt>
      <trkpt lat="69.0088" lon="15.54097">
        <ele>4.459873</ele>
        <time>2020-07-16T02:57:27.747Z</time>
      </trkpt>
      <trkpt lat="69.00885" lon="15.53901">
        <ele>5.161699</ele>
        <time>2020-07-16T02:57:43.630Z</time>
      </trkpt>
      <trkpt lat="69.00913" lon="15.52849">
        <ele>9.252617</ele>
        <time>2020-07-16T02:59:05.279Z</time>
      </trkpt>
      <trkpt lat="69.00922" lon="15.52723">
        <ele>9.602406</ele>
        <time>2020-07-16T02:59:14.328Z</time>
      </trkpt>
      <trkpt lat="69.00953" lon="15.5257">
        <ele>10.034545</ele>
        <time>2020-07-16T02:59:26.420Z</time>
      </trkpt>
      <trkpt lat="69.01127" lon="15.5182">
        <ele>10.820984</ele>
        <time>2020-07-16T03:00:25.908Z</time>
      </trkpt>
      <trkpt lat="69.01158" lon="15.5175">
        <ele>10.923932</ele>
        <time>2020-07-16T03:00:33.294Z</time>
      </trkpt>
      <trkpt lat="69.01218" lon="15.51683">
        <ele>11.151619</ele>
        <time>2020-07-16T03:00:45.447Z</time>
      </trkpt>
      <trkpt lat="69.01237" lon="15.51665">
        <ele>11.223721</ele>
        <time>2020-07-16T03:00:49.311Z</time>
      </trkpt>
      <trkpt lat="69.01268" lon="15.51635">
        <ele>11.338432</ele>
        <time>2020-07-16T03:00:55.509Z</time>
      </trkpt>
      <trkpt lat="69.0136" lon="15.51531">
        <ele>11.75607</ele>
        <time>2020-07-16T03:01:14.691Z</time>
      </trkpt>
      <trkpt lat="69.01503" lon="15.51313">
        <ele>12.502705</ele>
        <time>2020-07-16T03:01:46.538Z</time>
      </trkpt>
      <trkpt lat="69.01549" lon="15.51278">
        <ele>12.632556</ele>
        <time>2020-07-16T03:01:55.491Z</time>
      </trkpt>
      <trkpt lat="69.01555" lon="15.51277">
        <ele>12.648711</ele>
        <time>2020-07-16T03:01:56.674Z</time>
      </trkpt>
      <trkpt lat="69.01571" lon="15.51276">
        <ele>12.69303</ele>
        <time>2020-07-16T03:01:59.633Z</time>
      </trkpt>
      <trkpt lat="69.01614" lon="15.51284">
        <ele>12.811162</ele>
        <time>2020-07-16T03:02:07.575Z</time>
      </trkpt>
      <trkpt lat="69.01643" lon="15.51303">
        <ele>12.89176</ele>
        <time>2020-07-16T03:02:12.958Z</time>
      </trkpt>
      <trkpt lat="69.01667" lon="15.51323">
        <ele>12.922929</ele>
        <time>2020-07-16T03:02:17.552Z</time>
      </trkpt>
      <trkpt lat="69.01699" lon="15.51349">
        <ele>12.939374</ele>
        <time>2020-07-16T03:02:23.413Z</time>
      </trkpt>
      <trkpt lat="69.0185" lon="15.51484">
        <ele>13.077123</ele>
        <time>2020-07-16T03:02:51.767Z</time>
      </trkpt>
      <trkpt lat="69.0189" lon="15.51507">
        <ele>13.179105</ele>
        <time>2020-07-16T03:02:59.277Z</time>
      </trkpt>
      <trkpt lat="69.01942" lon="15.51507">
        <ele>13.311259</ele>
        <time>2020-07-16T03:03:09.153Z</time>
      </trkpt>
      <trkpt lat="69.02031" lon="15.51453">
        <ele>13.641778</ele>
        <time>2020-07-16T03:03:26.627Z</time>
      </trkpt>
      <trkpt lat="69.02077" lon="15.5145">
        <ele>13.896773</ele>
        <time>2020-07-16T03:03:35.507Z</time>
      </trkpt>
      <trkpt lat="69.02273" lon="15.51522">
        <ele>15.276704</ele>
        <time>2020-07-16T03:04:14.937Z</time>
      </trkpt>
      <trkpt lat="69.02356" lon="15.51589">
        <ele>16.001756</ele>
        <time>2020-07-16T03:04:33.105Z</time>
      </trkpt>
      <trkpt lat="69.02371" lon="15.51606">
        <ele>16.174653</ele>
        <time>2020-07-16T03:04:36.569Z</time>
      </trkpt>
      <trkpt lat="69.02392" lon="15.5163">
        <ele>16.420968</ele>
        <time>2020-07-16T03:04:41.549Z</time>
      </trkpt>
      <trkpt lat="69.0249" lon="15.51753">
        <ele>17.58077</ele>
        <time>2020-07-16T03:05:04.927Z</time>
      </trkpt>
      <trkpt lat="69.02555" lon="15.5185">
        <ele>17.986818</ele>
        <time>2020-07-16T03:05:20.258Z</time>
      </trkpt>
      <trkpt lat="69.03058" lon="15.52649">
        <ele>18.425255</ele>
        <time>2020-07-16T03:07:04.503Z</time>
      </trkpt>
      <trkpt lat="69.03235" lon="15.52881">
        <ele>17.251603</ele>
        <time>2020-07-16T03:07:36.417Z</time>
      </trkpt>
      <trkpt lat="69.03268" lon="15.52895">
        <ele>16.947545</ele>
        <time>2020-07-16T03:07:41.486Z</time>
      </trkpt>
      <trkpt lat="69.03279" lon="15.52893">
        <ele>16.847275</ele>
        <time>2020-07-16T03:07:43.158Z</time>
      </trkpt>
      <trkpt lat="69.03283" lon="15.52891">
        <ele>16.803688</ele>
        <time>2020-07-16T03:07:43.798Z</time>
      </trkpt>
      <trkpt lat="69.03312" lon="15.52859">
        <ele>16.520874</ele>
        <time>2020-07-16T03:07:48.544Z</time>
      </trkpt>
      <trkpt lat="69.03348" lon="15.52791">
        <ele>15.936046</ele>
        <time>2020-07-16T03:07:54.878Z</time>
      </trkpt>
      <trkpt lat="69.0351" lon="15.52462">
        <ele>13.532758</ele>
        <time>2020-07-16T03:08:24.689Z</time>
      </trkpt>
      <trkpt lat="69.03537" lon="15.52407">
        <ele>13.25783</ele>
        <time>2020-07-16T03:08:30.045Z</time>
      </trkpt>
      <trkpt lat="69.03579" lon="15.52318">
        <ele>12.818515</ele>
        <time>2020-07-16T03:08:38.895Z</time>
      </trkpt>
      <trkpt lat="69.03625" lon="15.52226">
        <ele>12.396098</ele>
        <time>2020-07-16T03:08:48.263Z</time>
      </trkpt>
      <trkpt lat="69.0363" lon="15.52218">
        <ele>12.361807</ele>
        <time>2020-07-16T03:08:49.171Z</time>
      </trkpt>
      <trkpt lat="69.03634" lon="15.52209">
        <ele>12.326587</ele>
        <time>2020-07-16T03:08:50.105Z</time>
      </trkpt>
      <trkpt lat="69.03666" lon="15.52142">
        <ele>12.066404</ele>
        <time>2020-07-16T03:08:56.878Z</time>
      </trkpt>
      <trkpt lat="69.03791" lon="15.51888">
        <ele>10.815071</ele>
        <time>2020-07-16T03:09:21.151Z</time>
      </trkpt>
      <trkpt lat="69.03825" lon="15.51821">
        <ele>10.328992</ele>
        <time>2020-07-16T03:09:27.410Z</time>
      </trkpt>
      <trkpt lat="69.03844" lon="15.51786">
        <ele>10.062113</ele>
        <time>2020-07-16T03:09:30.808Z</time>
      </trkpt>
      <trkpt lat="69.03857" lon="15.51764">
        <ele>9.88279</ele>
        <time>2020-07-16T03:09:33.111Z</time>
      </trkpt>
      <trkpt lat="69.03964" lon="15.51639">
        <ele>8.752624</ele>
        <time>2020-07-16T03:09:50.753Z</time>
      </trkpt>
      <trkpt lat="69.0397" lon="15.51635">
        <ele>8.702763</ele>
        <time>2020-07-16T03:09:51.614Z</time>
      </trkpt>
      <trkpt lat="69.03984" lon="15.51625">
        <ele>8.576274</ele>
        <time>2020-07-16T03:09:54.016Z</time>
      </trkpt>
      <trkpt lat="69.04001" lon="15.51615">
        <ele>8.438117</ele>
        <time>2020-07-16T03:09:56.693Z</time>
      </trkpt>
      <trkpt lat="69.04015" lon="15.51608">
        <ele>8.314627</ele>
        <time>2020-07-16T03:09:59.059Z</time>
      </trkpt>
      <trkpt lat="69.04068" lon="15.51595">
        <ele>7.876355</ele>
        <time>2020-07-16T03:10:07.743Z</time>
      </trkpt>
      <trkpt lat="69.04085" lon="15.51591">
        <ele>7.771511</ele>
        <time>2020-07-16T03:10:10.576Z</time>
      </trkpt>
      <trkpt lat="69.04132" lon="15.51579">
        <ele>7.611112</ele>
        <time>2020-07-16T03:10:18.310Z</time>
      </trkpt>
      <trkpt lat="69.04165" lon="15.5157">
        <ele>7.494047</ele>
        <time>2020-07-16T03:10:24.076Z</time>
      </trkpt>
      <trkpt lat="69.0417" lon="15.51569">
        <ele>7.479541</ele>
        <time>2020-07-16T03:10:24.809Z</time>
      </trkpt>
      <trkpt lat="69.04203" lon="15.51559">
        <ele>7.365895</ele>
        <time>2020-07-16T03:10:30.431Z</time>
      </trkpt>
      <trkpt lat="69.04233" lon="15.51552">
        <ele>7.261045</ele>
        <time>2020-07-16T03:10:35.645Z</time>
      </trkpt>
      <trkpt lat="69.04238" lon="15.5155">
        <ele>7.242068</ele>
        <time>2020-07-16T03:10:36.593Z</time>
      </trkpt>
      <trkpt lat="69.04295" lon="15.51538">
        <ele>7.105284</ele>
        <time>2020-07-16T03:10:46.387Z</time>
      </trkpt>
      <trkpt lat="69.04347" lon="15.5153">
        <ele>7.004045</ele>
        <time>2020-07-16T03:10:55.273Z</time>
      </trkpt>
      <trkpt lat="69.04376" lon="15.51527">
        <ele>6.947641</ele>
        <time>2020-07-16T03:11:00.215Z</time>
      </trkpt>
      <trkpt lat="69.04391" lon="15.51527">
        <ele>6.917987</ele>
        <time>2020-07-16T03:11:02.824Z</time>
      </trkpt>
      <trkpt lat="69.0444" lon="15.51527">
        <ele>6.843327</ele>
        <time>2020-07-16T03:11:11.232Z</time>
      </trkpt>
      <trkpt lat="69.04443" lon="15.51528">
        <ele>6.852401</ele>
        <time>2020-07-16T03:11:11.842Z</time>
      </trkpt>
      <trkpt lat="69.04506" lon="15.51537">
        <ele>7.014739</ele>
        <time>2020-07-16T03:11:23.034Z</time>
      </trkpt>
      <trkpt lat="69.04569" lon="15.51561">
        <ele>7.178495</ele>
        <time>2020-07-16T03:11:34.868Z</time>
      </trkpt>
      <trkpt lat="69.04596" lon="15.51579">
        <ele>7.252468</ele>
        <time>2020-07-16T03:11:40.522Z</time>
      </trkpt>
      <trkpt lat="69.04613" lon="15.51592">
        <ele>7.296932</ele>
        <time>2020-07-16T03:11:43.941Z</time>
      </trkpt>
      <trkpt lat="69.04633" lon="15.51611">
        <ele>7.533484</ele>
        <time>2020-07-16T03:11:48.264Z</time>
      </trkpt>
      <trkpt lat="69.04665" lon="15.51645">
        <ele>7.925105</ele>
        <time>2020-07-16T03:11:55.470Z</time>
      </trkpt>
      <trkpt lat="69.0468" lon="15.51661">
        <ele>8.103574</ele>
        <time>2020-07-16T03:11:58.800Z</time>
      </trkpt>
      <trkpt lat="69.04704" lon="15.51694">
        <ele>8.407954</ele>
        <time>2020-07-16T03:12:04.591Z</time>
      </trkpt>
      <trkpt lat="69.04724" lon="15.51724">
        <ele>8.666774</ele>
        <time>2020-07-16T03:12:09.466Z</time>
      </trkpt>
      <trkpt lat="69.04731" lon="15.51736">
        <ele>8.759439</ele>
        <time>2020-07-16T03:12:11.410Z</time>
      </trkpt>
      <trkpt lat="69.04753" lon="15.51776">
        <ele>9.054198</ele>
        <time>2020-07-16T03:12:17.044Z</time>
      </trkpt>
      <trkpt lat="69.04781" lon="15.51836">
        <ele>9.500968</ele>
        <time>2020-07-16T03:12:25.235Z</time>
      </trkpt>
      <trkpt lat="69.04786" lon="15.51846">
        <ele>9.587181</ele>
        <time>2020-07-16T03:12:26.541Z</time>
      </trkpt>
      <trkpt lat="69.04877" lon="15.52045">
        <ele>11.333523</ele>
        <time>2020-07-16T03:12:52.701Z</time>
      </trkpt>
      <trkpt lat="69.0489" lon="15.52074">
        <ele>11.589971</ele>
        <time>2020-07-16T03:12:56.627Z</time>
      </trkpt>
      <trkpt lat="69.05023" lon="15.52351">
        <ele>14.129411</ele>
        <time>2020-07-16T03:13:34.187Z</time>
      </trkpt>
      <trkpt lat="69.05207" lon="15.52572">
        <ele>16.942187</ele>
        <time>2020-07-16T03:14:20.363Z</time>
      </trkpt>
      <trkpt lat="69.0546" lon="15.52748">
        <ele>17.745618</ele>
        <time>2020-07-16T03:15:10.597Z</time>
      </trkpt>
      <trkpt lat="69.0553" lon="15.52829">
        <ele>17.143721</ele>
        <time>2020-07-16T03:15:22.232Z</time>
      </trkpt>
      <trkpt lat="69.05776" lon="15.53159">
        <ele>13.108582</ele>
        <time>2020-07-16T03:16:01.130Z</time>
      </trkpt>
      <trkpt lat="69.05835" lon="15.53227">
        <ele>12.574524</ele>
        <time>2020-07-16T03:16:11.052Z</time>
      </trkpt>
      <trkpt lat="69.0649" lon="15.53831">
        <ele>13.196211</ele>
        <time>2020-07-16T03:18:16.279Z</time>
      </trkpt>
      <trkpt lat="69.06701" lon="15.54024">
        <ele>15.343105</ele>
        <time>2020-07-16T03:19:06.234Z</time>
      </trkpt>
      <trkpt lat="69.06745" lon="15.54068">
        <ele>15.84596</ele>
        <time>2020-07-16T03:19:15.681Z</time>
      </trkpt>
      <trkpt lat="69.06867" lon="15.5422">
        <ele>15.882022</ele>
        <time>2020-07-16T03:19:39.420Z</time>
      </trkpt>
      <trkpt lat="69.06948" lon="15.54374">
        <ele>15.629618</ele>
        <time>2020-07-16T03:19:55.869Z</time>
      </trkpt>
      <trkpt lat="69.07172" lon="15.5505">
        <ele>13.595668</ele>
        <time>2020-07-16T03:20:49.684Z</time>
      </trkpt>
      <trkpt lat="69.07242" lon="15.55225">
        <ele>12.319421</ele>
        <time>2020-07-16T03:21:03.567Z</time>
      </trkpt>
      <trkpt lat="69.07268" lon="15.55283">
        <ele>11.863323</ele>
        <time>2020-07-16T03:21:08.425Z</time>
      </trkpt>
      <trkpt lat="69.07325" lon="15.5541">
        <ele>10.794413</ele>
        <time>2020-07-16T03:21:18.963Z</time>
      </trkpt>
      <trkpt lat="69.07378" lon="15.55507">
        <ele>9.771598</ele>
        <time>2020-07-16T03:21:28.047Z</time>
      </trkpt>
      <trkpt lat="69.07663" lon="15.55821">
        <ele>5.461897</ele>
        <time>2020-07-16T03:22:13.542Z</time>
      </trkpt>
      <trkpt lat="69.07702" lon="15.55894">
        <ele>4.965674</ele>
        <time>2020-07-16T03:22:20.866Z</time>
      </trkpt>
      <trkpt lat="69.07739" lon="15.55991">
        <ele>4.428934</ele>
        <time>2020-07-16T03:22:28.769Z</time>
      </trkpt>
      <trkpt lat="69.07803" lon="15.56205">
        <ele>3.561696</ele>
        <time>2020-07-16T03:22:44.487Z</time>
      </trkpt>
      <trkpt lat="69.07816" lon="15.56258">
        <ele>3.389292</ele>
        <time>2020-07-16T03:22:48.243Z</time>
      </trkpt>
      <trkpt lat="69.07843" lon="15.56362">
        <ele>3.052634</ele>
        <time>2020-07-16T03:22:55.674Z</time>
      </trkpt>
      <trkpt lat="69.07858" lon="15.56415">
        <ele>2.87571</ele>
        <time>2020-07-16T03:22:59.527Z</time>
      </trkpt>
      <trkpt lat="69.07868" lon="15.56447">
        <ele>2.762971</ele>
        <time>2020-07-16T03:23:01.995Z</time>
      </trkpt>
      <trkpt lat="69.07912" lon="15.56537">
        <ele>2.421309</ele>
        <time>2020-07-16T03:23:10.621Z</time>
      </trkpt>
      <trkpt lat="69.07927" lon="15.56555">
        <ele>2.326723</ele>
        <time>2020-07-16T03:23:13.197Z</time>
      </trkpt>
      <trkpt lat="69.07944" lon="15.5657">
        <ele>2.22308</ele>
        <time>2020-07-16T03:23:16.069Z</time>
      </trkpt>
      <trkpt lat="69.07951" lon="15.56575">
        <ele>2.183728</ele>
        <time>2020-07-16T03:23:17.120Z</time>
      </trkpt>
      <trkpt lat="69.07976" lon="15.56575">
        <ele>2.037042</ele>
        <time>2020-07-16T03:23:21.284Z</time>
      </trkpt>
      <trkpt lat="69.07991" lon="15.56571">
        <ele>1.948232</ele>
        <time>2020-07-16T03:23:23.751Z</time>
      </trkpt>
      <trkpt lat="69.0805" lon="15.56547">
        <ele>1.606895</ele>
        <time>2020-07-16T03:23:33.584Z</time>
      </trkpt>
      <trkpt lat="69.08068" lon="15.56539">
        <ele>1.61981</ele>
        <time>2020-07-16T03:23:36.627Z</time>
      </trkpt>
      <trkpt lat="69.08087" lon="15.5653">
        <ele>1.633592</ele>
        <time>2020-07-16T03:23:40.055Z</time>
      </trkpt>
      <trkpt lat="69.08111" lon="15.56517">
        <ele>1.650321</ele>
        <time>2020-07-16T03:23:44.094Z</time>
      </trkpt>
      <trkpt lat="69.08199" lon="15.56443">
        <ele>1.715163</ele>
        <time>2020-07-16T03:24:01.090Z</time>
      </trkpt>
      <trkpt lat="69.08213" lon="15.56427">
        <ele>1.725799</ele>
        <time>2020-07-16T03:24:04.065Z</time>
      </trkpt>
      <trkpt lat="69.08223" lon="15.56415">
        <ele>1.734884</ele>
        <time>2020-07-16T03:24:06.247Z</time>
      </trkpt>
      <trkpt lat="69.08238" lon="15.56389">
        <ele>1.830973</ele>
        <time>2020-07-16T03:24:09.779Z</time>
      </trkpt>
      <trkpt lat="69.0825" lon="15.56367">
        <ele>1.901896</ele>
        <time>2020-07-16T03:24:12.564Z</time>
      </trkpt>
      <trkpt lat="69.0828" lon="15.56303">
        <ele>2.103231</ele>
        <time>2020-07-16T03:24:20.160Z</time>
      </trkpt>
      <trkpt lat="69.08307" lon="15.56245">
        <ele>2.283379</ele>
        <time>2020-07-16T03:24:26.957Z</time>
      </trkpt>
      <trkpt lat="69.08322" lon="15.56211">
        <ele>2.382502</ele>
        <time>2020-07-16T03:24:30.599Z</time>
      </trkpt>
      <trkpt lat="69.08333" lon="15.56181">
        <ele>2.465084</ele>
        <time>2020-07-16T03:24:33.783Z</time>
      </trkpt>
      <trkpt lat="69.08362" lon="15.56106">
        <ele>2.670643</ele>
        <time>2020-07-16T03:24:41.311Z</time>
      </trkpt>
      <trkpt lat="69.08447" lon="15.55812">
        <ele>3.31791</ele>
        <time>2020-07-16T03:25:06.565Z</time>
      </trkpt>
      <trkpt lat="69.08459" lon="15.55775">
        <ele>3.401386</ele>
        <time>2020-07-16T03:25:10.110Z</time>
      </trkpt>
      <trkpt lat="69.08474" lon="15.55732">
        <ele>3.503797</ele>
        <time>2020-07-16T03:25:14.321Z</time>
      </trkpt>
      <trkpt lat="69.08492" lon="15.55689">
        <ele>3.883126</ele>
        <time>2020-07-16T03:25:19.370Z</time>
      </trkpt>
      <trkpt lat="69.085" lon="15.55676">
        <ele>4.071219</ele>
        <time>2020-07-16T03:25:21.285Z</time>
      </trkpt>
      <trkpt lat="69.08512" lon="15.55662">
        <ele>4.330611</ele>
        <time>2020-07-16T03:25:24.209Z</time>
      </trkpt>
      <trkpt lat="69.08521" lon="15.55655">
        <ele>4.529188</ele>
        <time>2020-07-16T03:25:26.248Z</time>
      </trkpt>
      <trkpt lat="69.08535" lon="15.55648">
        <ele>4.815803</ele>
        <time>2020-07-16T03:25:29.333Z</time>
      </trkpt>
      <trkpt lat="69.08546" lon="15.55644">
        <ele>5.050388</ele>
        <time>2020-07-16T03:25:32.147Z</time>
      </trkpt>
      <trkpt lat="69.08573" lon="15.55645">
        <ele>5.596558</ele>
        <time>2020-07-16T03:25:38.313Z</time>
      </trkpt>
      <trkpt lat="69.08601" lon="15.55648">
        <ele>6.16975</ele>
        <time>2020-07-16T03:25:45.305Z</time>
      </trkpt>
      <trkpt lat="69.08606" lon="15.55648">
        <ele>6.259827</ele>
        <time>2020-07-16T03:25:46.409Z</time>
      </trkpt>
      <trkpt lat="69.08614" lon="15.55648">
        <ele>6.437788</ele>
        <time>2020-07-16T03:25:48.821Z</time>
      </trkpt>
      <trkpt lat="69.08712" lon="15.55661">
        <ele>9.655755</ele>
        <time>2020-07-16T03:26:17.087Z</time>
      </trkpt>
      <trkpt lat="69.08772" lon="15.55677">
        <ele>12.101684</ele>
        <time>2020-07-16T03:26:36.069Z</time>
      </trkpt>
      <trkpt lat="69.08791" lon="15.55699">
        <ele>12.963713</ele>
        <time>2020-07-16T03:26:42.989Z</time>
      </trkpt>
      <trkpt lat="69.08815" lon="15.55748">
        <ele>14.16458</ele>
        <time>2020-07-16T03:26:52.746Z</time>
      </trkpt>
      <trkpt lat="69.08832" lon="15.55814">
        <ele>15.194295</ele>
        <time>2020-07-16T03:27:02.583Z</time>
      </trkpt>
      <trkpt lat="69.08871" lon="15.56063">
        <ele>18.331535</ele>
        <time>2020-07-16T03:27:32.273Z</time>
      </trkpt>
      <trkpt lat="69.0891" lon="15.56222">
        <ele>20.408202</ele>
        <time>2020-07-16T03:27:48.877Z</time>
      </trkpt>
      <trkpt lat="69.08916" lon="15.56239">
        <ele>20.444436</ele>
        <time>2020-07-16T03:27:51.474Z</time>
      </trkpt>
      <trkpt lat="69.08922" lon="15.56259">
        <ele>20.487944</ele>
        <time>2020-07-16T03:27:52.789Z</time>
      </trkpt>
      <trkpt lat="69.08956" lon="15.56347">
        <ele>20.692535</ele>
        <time>2020-07-16T03:28:01.859Z</time>
      </trkpt>
      <trkpt lat="69.08985" lon="15.56404">
        <ele>20.849139</ele>
        <time>2020-07-16T03:28:08.118Z</time>
      </trkpt>
      <trkpt lat="69.09051" lon="15.56488">
        <ele>21.171051</ele>
        <time>2020-07-16T03:28:20.045Z</time>
      </trkpt>
      <trkpt lat="69.09086" lon="15.56511">
        <ele>21.897288</ele>
        <time>2020-07-16T03:28:27.604Z</time>
      </trkpt>
      <trkpt lat="69.09178" lon="15.56524">
        <ele>23.896</ele>
        <time>2020-07-16T03:28:50.831Z</time>
      </trkpt>
      <trkpt lat="69.09199" lon="15.56537">
        <ele>24.344074</ele>
        <time>2020-07-16T03:28:56.483Z</time>
      </trkpt>
      <trkpt lat="69.09204" lon="15.56545">
        <ele>24.471221</ele>
        <time>2020-07-16T03:28:58.310Z</time>
      </trkpt>
      <trkpt lat="69.09224" lon="15.56598">
        <ele>25.065304</ele>
        <time>2020-07-16T03:29:06.189Z</time>
      </trkpt>
      <trkpt lat="69.09262" lon="15.56665">
        <ele>25.88903</ele>
        <time>2020-07-16T03:29:19.492Z</time>
      </trkpt>
      <trkpt lat="69.09319" lon="15.56714">
        <ele>26.969797</ele>
        <time>2020-07-16T03:29:36.863Z</time>
      </trkpt>
      <trkpt lat="69.09415" lon="15.56906">
        <ele>27.199305</ele>
        <time>2020-07-16T03:29:57.060Z</time>
      </trkpt>
      <trkpt lat="69.0946" lon="15.56938">
        <ele>25.983987</ele>
        <time>2020-07-16T03:30:03.239Z</time>
      </trkpt>
      <trkpt lat="69.0947" lon="15.56938">
        <ele>25.710756</ele>
        <time>2020-07-16T03:30:04.722Z</time>
      </trkpt>
      <trkpt lat="69.09484" lon="15.56934">
        <ele>25.330851</ele>
        <time>2020-07-16T03:30:06.413Z</time>
      </trkpt>
      <trkpt lat="69.09512" lon="15.56912">
        <ele>24.582452</ele>
        <time>2020-07-16T03:30:10.176Z</time>
      </trkpt>
      <trkpt lat="69.09552" lon="15.56855">
        <ele>23.451893</ele>
        <time>2020-07-16T03:30:15.706Z</time>
      </trkpt>
      <trkpt lat="69.09666" lon="15.56691">
        <ele>20.926753</ele>
        <time>2020-07-16T03:30:32.480Z</time>
      </trkpt>
      <trkpt lat="69.09864" lon="15.56312">
        <ele>24.819995</ele>
        <time>2020-07-16T03:31:30.093Z</time>
      </trkpt>
      <trkpt lat="69.09887" lon="15.56279">
        <ele>26.337751</ele>
        <time>2020-07-16T03:31:39.423Z</time>
      </trkpt>
      <trkpt lat="69.09909" lon="15.56263">
        <ele>27.708592</ele>
        <time>2020-07-16T03:31:48.127Z</time>
      </trkpt>
      <trkpt lat="69.10005" lon="15.56276">
        <ele>33.351493</ele>
        <time>2020-07-16T03:32:26.667Z</time>
      </trkpt>
      <trkpt lat="69.10038" lon="15.56299">
        <ele>35.24446</ele>
        <time>2020-07-16T03:32:41.100Z</time>
      </trkpt>
      <trkpt lat="69.10114" lon="15.56475">
        <ele>40.313925</ele>
        <time>2020-07-16T03:33:18.607Z</time>
      </trkpt>
      <trkpt lat="69.10179" lon="15.56528">
        <ele>43.765539</ele>
        <time>2020-07-16T03:33:38.312Z</time>
      </trkpt>
      <trkpt lat="69.10205" lon="15.56567">
        <ele>43.831783</ele>
        <time>2020-07-16T03:33:45.591Z</time>
      </trkpt>
      <trkpt lat="69.10324" lon="15.5693">
        <ele>43.051107</ele>
        <time>2020-07-16T03:34:15.518Z</time>
      </trkpt>
      <trkpt lat="69.10363" lon="15.57102">
        <ele>40.01135</ele>
        <time>2020-07-16T03:34:24.715Z</time>
      </trkpt>
      <trkpt lat="69.10379" lon="15.57176">
        <ele>38.719622</ele>
        <time>2020-07-16T03:34:28.439Z</time>
      </trkpt>
      <trkpt lat="69.10389" lon="15.57216">
        <ele>37.999491</ele>
        <time>2020-07-16T03:34:30.448Z</time>
      </trkpt>
      <trkpt lat="69.10402" lon="15.57269">
        <ele>37.035911</ele>
        <time>2020-07-16T03:34:33.202Z</time>
      </trkpt>
      <trkpt lat="69.10429" lon="15.57376">
        <ele>34.129431</ele>
        <time>2020-07-16T03:34:38.578Z</time>
      </trkpt>
      <trkpt lat="69.10497" lon="15.57667">
        <ele>25.798736</ele>
        <time>2020-07-16T03:34:52.788Z</time>
      </trkpt>
      <trkpt lat="69.10519" lon="15.57818">
        <ele>22.83995</ele>
        <time>2020-07-16T03:34:59.652Z</time>
      </trkpt>
      <trkpt lat="69.10523" lon="15.57904">
        <ele>21.498712</ele>
        <time>2020-07-16T03:35:03.446Z</time>
      </trkpt>
      <trkpt lat="69.10523" lon="15.58021">
        <ele>19.676661</ele>
        <time>2020-07-16T03:35:08.715Z</time>
      </trkpt>
      <trkpt lat="69.10508" lon="15.58311">
        <ele>15.848504</ele>
        <time>2020-07-16T03:35:22.462Z</time>
      </trkpt>
      <trkpt lat="69.10508" lon="15.58441">
        <ele>14.734616</ele>
        <time>2020-07-16T03:35:28.779Z</time>
      </trkpt>
      <trkpt lat="69.10521" lon="15.58547">
        <ele>13.768162</ele>
        <time>2020-07-16T03:35:34.344Z</time>
      </trkpt>
      <trkpt lat="69.10584" lon="15.58839">
        <ele>11.407921</ele>
        <time>2020-07-16T03:35:51.529Z</time>
      </trkpt>
      <trkpt lat="69.10697" lon="15.59372">
        <ele>8.537174</ele>
        <time>2020-07-16T03:36:24.809Z</time>
      </trkpt>
      <trkpt lat="69.10741" lon="15.59583">
        <ele>7.71041</ele>
        <time>2020-07-16T03:36:38.749Z</time>
      </trkpt>
      <trkpt lat="69.10765" lon="15.59679">
        <ele>7.537754</ele>
        <time>2020-07-16T03:36:45.485Z</time>
      </trkpt>
      <trkpt lat="69.10814" lon="15.59843">
        <ele>7.216441</ele>
        <time>2020-07-16T03:36:58.424Z</time>
      </trkpt>
      <trkpt lat="69.10833" lon="15.59964">
        <ele>7.021297</ele>
        <time>2020-07-16T03:37:06.505Z</time>
      </trkpt>
      <trkpt lat="69.10845" lon="15.6009">
        <ele>6.906181</ele>
        <time>2020-07-16T03:37:14.611Z</time>
      </trkpt>
      <trkpt lat="69.10853" lon="15.60181">
        <ele>6.825678</ele>
        <time>2020-07-16T03:37:20.375Z</time>
      </trkpt>
      <trkpt lat="69.10861" lon="15.60264">
        <ele>6.751014</ele>
        <time>2020-07-16T03:37:25.700Z</time>
      </trkpt>
      <trkpt lat="69.10905" lon="15.60539">
        <ele>6.374948</ele>
        <time>2020-07-16T03:37:43.959Z</time>
      </trkpt>
      <trkpt lat="69.10924" lon="15.60617">
        <ele>6.187381</ele>
        <time>2020-07-16T03:37:49.553Z</time>
      </trkpt>
      <trkpt lat="69.10951" lon="15.60673">
        <ele>6.001683</ele>
        <time>2020-07-16T03:37:55.006Z</time>
      </trkpt>
      <trkpt lat="69.11197" lon="15.61038">
        <ele>4.438953</ele>
        <time>2020-07-16T03:38:39.817Z</time>
      </trkpt>
      <trkpt lat="69.11223" lon="15.61074">
        <ele>4.432793</ele>
        <time>2020-07-16T03:38:44.818Z</time>
      </trkpt>
      <trkpt lat="69.11233" lon="15.61089">
        <ele>4.430395</ele>
        <time>2020-07-16T03:38:46.837Z</time>
      </trkpt>
      <trkpt lat="69.11247" lon="15.61113">
        <ele>4.4268</ele>
        <time>2020-07-16T03:38:49.828Z</time>
      </trkpt>
      <trkpt lat="69.11269" lon="15.61152">
        <ele>4.421316</ele>
        <time>2020-07-16T03:38:54.489Z</time>
      </trkpt>
      <trkpt lat="69.11328" lon="15.61265">
        <ele>4.405843</ele>
        <time>2020-07-16T03:39:07.998Z</time>
      </trkpt>
      <trkpt lat="69.1143" lon="15.61404">
        <ele>4.441219</ele>
        <time>2020-07-16T03:39:29.265Z</time>
      </trkpt>
      <trkpt lat="69.11495" lon="15.61489">
        <ele>4.448593</ele>
        <time>2020-07-16T03:39:41.529Z</time>
      </trkpt>
      <trkpt lat="69.11533" lon="15.61537">
        <ele>4.252602</ele>
        <time>2020-07-16T03:39:48.290Z</time>
      </trkpt>
      <trkpt lat="69.11559" lon="15.61568">
        <ele>4.113661</ele>
        <time>2020-07-16T03:39:53.027Z</time>
      </trkpt>
      <trkpt lat="69.1163" lon="15.61613">
        <ele>3.767843</ele>
        <time>2020-07-16T03:40:04.752Z</time>
      </trkpt>
      <trkpt lat="69.11703" lon="15.61606">
        <ele>3.5183</ele>
        <time>2020-07-16T03:40:16.847Z</time>
      </trkpt>
      <trkpt lat="69.11924" lon="15.61535">
        <ele>3.137905</ele>
        <time>2020-07-16T03:40:55.713Z</time>
      </trkpt>
      <trkpt lat="69.12004" lon="15.61511">
        <ele>3.066599</ele>
        <time>2020-07-16T03:41:09.938Z</time>
      </trkpt>
      <trkpt lat="69.12012" lon="15.61509">
        <ele>3.059598</ele>
        <time>2020-07-16T03:41:11.341Z</time>
      </trkpt>
      <trkpt lat="69.12034" lon="15.61504">
        <ele>3.056579</ele>
        <time>2020-07-16T03:41:15.208Z</time>
      </trkpt>
      <trkpt lat="69.12102" lon="15.61523">
        <ele>3.093427</ele>
        <time>2020-07-16T03:41:27.347Z</time>
      </trkpt>
      <trkpt lat="69.12128" lon="15.61542">
        <ele>3.107641</ele>
        <time>2020-07-16T03:41:32.103Z</time>
      </trkpt>
      <trkpt lat="69.12162" lon="15.6159">
        <ele>3.128228</ele>
        <time>2020-07-16T03:41:39.018Z</time>
      </trkpt>
      <trkpt lat="69.12193" lon="15.6167">
        <ele>3.180476</ele>
        <time>2020-07-16T03:41:46.659Z</time>
      </trkpt>
      <trkpt lat="69.12434" lon="15.62789">
        <ele>5.424798</ele>
        <time>2020-07-16T03:43:16.949Z</time>
      </trkpt>
      <trkpt lat="69.12453" lon="15.62884">
        <ele>5.650185</ele>
        <time>2020-07-16T03:43:24.741Z</time>
      </trkpt>
      <trkpt lat="69.12472" lon="15.63034">
        <ele>6.058324</ele>
        <time>2020-07-16T03:43:36.233Z</time>
      </trkpt>
      <trkpt lat="69.12519" lon="15.63811">
        <ele>8.520797</ele>
        <time>2020-07-16T03:44:34.574Z</time>
      </trkpt>
      <trkpt lat="69.12523" lon="15.63869">
        <ele>8.712173</ele>
        <time>2020-07-16T03:44:39.056Z</time>
      </trkpt>
      <trkpt lat="69.12529" lon="15.63951">
        <ele>8.975989</ele>
        <time>2020-07-16T03:44:45.221Z</time>
      </trkpt>
      <trkpt lat="69.12552" lon="15.64121">
        <ele>9.350112</ele>
        <time>2020-07-16T03:44:58.595Z</time>
      </trkpt>
      <trkpt lat="69.1266" lon="15.64673">
        <ele>10.084857</ele>
        <time>2020-07-16T03:45:41.321Z</time>
      </trkpt>
      <trkpt lat="69.12726" lon="15.65013">
        <ele>9.677427</ele>
        <time>2020-07-16T03:46:04.510Z</time>
      </trkpt>
      <trkpt lat="69.12732" lon="15.65041">
        <ele>9.60217</ele>
        <time>2020-07-16T03:46:06.275Z</time>
      </trkpt>
      <trkpt lat="69.12754" lon="15.65204">
        <ele>9.188744</ele>
        <time>2020-07-16T03:46:16.214Z</time>
      </trkpt>
      <trkpt lat="69.12765" lon="15.65341">
        <ele>8.837166</ele>
        <time>2020-07-16T03:46:24.026Z</time>
      </trkpt>
      <trkpt lat="69.12785" lon="15.6578">
        <ele>7.551801</ele>
        <time>2020-07-16T03:46:48.929Z</time>
      </trkpt>
      <trkpt lat="69.12794" lon="15.66268">
        <ele>6.613622</ele>
        <time>2020-07-16T03:47:17.154Z</time>
      </trkpt>
      <trkpt lat="69.12798" lon="15.66312">
        <ele>6.538003</ele>
        <time>2020-07-16T03:47:19.914Z</time>
      </trkpt>
      <trkpt lat="69.12804" lon="15.66365">
        <ele>6.617653</ele>
        <time>2020-07-16T03:47:23.694Z</time>
      </trkpt>
      <trkpt lat="69.12817" lon="15.66432">
        <ele>6.725381</ele>
        <time>2020-07-16T03:47:28.723Z</time>
      </trkpt>
      <trkpt lat="69.12835" lon="15.66509">
        <ele>6.855797</ele>
        <time>2020-07-16T03:47:34.951Z</time>
      </trkpt>
      <trkpt lat="69.12849" lon="15.6657">
        <ele>6.959344</ele>
        <time>2020-07-16T03:47:39.812Z</time>
      </trkpt>
      <trkpt lat="69.12859" lon="15.66609">
        <ele>7.028554</ele>
        <time>2020-07-16T03:47:43.377Z</time>
      </trkpt>
      <trkpt lat="69.12871" lon="15.6665">
        <ele>7.103593</ele>
        <time>2020-07-16T03:47:46.947Z</time>
      </trkpt>
      <trkpt lat="69.12877" lon="15.66671">
        <ele>7.141767</ele>
        <time>2020-07-16T03:47:49.048Z</time>
      </trkpt>
      <trkpt lat="69.12944" lon="15.66847">
        <ele>7.56682</ele>
        <time>2020-07-16T03:48:07.987Z</time>
      </trkpt>
      <trkpt lat="69.13065" lon="15.67118">
        <ele>8.065655</ele>
        <time>2020-07-16T03:48:37.126Z</time>
      </trkpt>
      <trkpt lat="69.13074" lon="15.67132">
        <ele>8.046579</ele>
        <time>2020-07-16T03:48:38.914Z</time>
      </trkpt>
      <trkpt lat="69.13079" lon="15.67138">
        <ele>8.037234</ele>
        <time>2020-07-16T03:48:39.729Z</time>
      </trkpt>
      <trkpt lat="69.13103" lon="15.67172">
        <ele>7.986734</ele>
        <time>2020-07-16T03:48:44.782Z</time>
      </trkpt>
      <trkpt lat="69.13144" lon="15.67225">
        <ele>7.905544</ele>
        <time>2020-07-16T03:48:52.555Z</time>
      </trkpt>
      <trkpt lat="69.13286" lon="15.67412">
        <ele>6.879137</ele>
        <time>2020-07-16T03:49:17.660Z</time>
      </trkpt>
      <trkpt lat="69.13302" lon="15.6743">
        <ele>6.723583</ele>
        <time>2020-07-16T03:49:20.245Z</time>
      </trkpt>
      <trkpt lat="69.13362" lon="15.67488">
        <ele>6.167631</ele>
        <time>2020-07-16T03:49:30.110Z</time>
      </trkpt>
      <trkpt lat="69.13374" lon="15.67488">
        <ele>6.111733</ele>
        <time>2020-07-16T03:49:31.710Z</time>
      </trkpt>
      <trkpt lat="69.1338" lon="15.67487">
        <ele>6.081481</ele>
        <time>2020-07-16T03:49:32.584Z</time>
      </trkpt>
      <trkpt lat="69.1346" lon="15.67387">
        <ele>5.646263</ele>
        <time>2020-07-16T03:49:46.627Z</time>
      </trkpt>
      <trkpt lat="69.13505" lon="15.67382">
        <ele>5.424102</ele>
        <time>2020-07-16T03:49:54.214Z</time>
      </trkpt>
      <trkpt lat="69.13517" lon="15.67389">
        <ele>5.365912</ele>
        <time>2020-07-16T03:49:56.095Z</time>
      </trkpt>
      <trkpt lat="69.13526" lon="15.67397">
        <ele>5.316915</ele>
        <time>2020-07-16T03:49:58.332Z</time>
      </trkpt>
      <trkpt lat="69.1355" lon="15.67431">
        <ele>5.606615</ele>
        <time>2020-07-16T03:50:03.591Z</time>
      </trkpt>
      <trkpt lat="69.13595" lon="15.67555">
        <ele>6.403199</ele>
        <time>2020-07-16T03:50:17.165Z</time>
      </trkpt>
      <trkpt lat="69.13606" lon="15.67578">
        <ele>6.580269</ele>
        <time>2020-07-16T03:50:20.821Z</time>
      </trkpt>
      <trkpt lat="69.13648" lon="15.67661">
        <ele>7.233989</ele>
        <time>2020-07-16T03:50:32.620Z</time>
      </trkpt>
      <trkpt lat="69.13652" lon="15.6767">
        <ele>7.294007</ele>
        <time>2020-07-16T03:50:33.633Z</time>
      </trkpt>
      <trkpt lat="69.13654" lon="15.67681">
        <ele>7.35368</ele>
        <time>2020-07-16T03:50:34.725Z</time>
      </trkpt>
      <trkpt lat="69.13655" lon="15.67689">
        <ele>7.39419</ele>
        <time>2020-07-16T03:50:35.490Z</time>
      </trkpt>
      <trkpt lat="69.13656" lon="15.67706">
        <ele>7.47353</ele>
        <time>2020-07-16T03:50:37.378Z</time>
      </trkpt>
      <trkpt lat="69.13636" lon="15.67933">
        <ele>8.428994</ele>
        <time>2020-07-16T03:50:55.851Z</time>
      </trkpt>
      <trkpt lat="69.13636" lon="15.67994">
        <ele>8.677288</ele>
        <time>2020-07-16T03:51:00.670Z</time>
      </trkpt>
      <trkpt lat="69.13635" lon="15.68116">
        <ele>9.168378</ele>
        <time>2020-07-16T03:51:09.901Z</time>
      </trkpt>
      <trkpt lat="69.13636" lon="15.68174">
        <ele>9.403382</ele>
        <time>2020-07-16T03:51:14.052Z</time>
      </trkpt>
      <trkpt lat="69.1364" lon="15.68342">
        <ele>9.704065</ele>
        <time>2020-07-16T03:51:25.625Z</time>
      </trkpt>
      <trkpt lat="69.13645" lon="15.68627">
        <ele>9.897809</ele>
        <time>2020-07-16T03:51:44.228Z</time>
      </trkpt>
      <trkpt lat="69.13646" lon="15.68722">
        <ele>9.962303</ele>
        <time>2020-07-16T03:51:50.279Z</time>
      </trkpt>
      <trkpt lat="69.13648" lon="15.68782">
        <ele>9.951052</ele>
        <time>2020-07-16T03:51:54.086Z</time>
      </trkpt>
      <trkpt lat="69.13651" lon="15.68963">
        <ele>9.879981</ele>
        <time>2020-07-16T03:52:05.411Z</time>
      </trkpt>
      <trkpt lat="69.13652" lon="15.68983">
        <ele>9.872069</ele>
        <time>2020-07-16T03:52:06.667Z</time>
      </trkpt>
      <trkpt lat="69.13654" lon="15.69109">
        <ele>9.822298</ele>
        <time>2020-07-16T03:52:14.521Z</time>
      </trkpt>
      <trkpt lat="69.1367" lon="15.69894">
        <ele>9.313842</ele>
        <time>2020-07-16T03:53:02.440Z</time>
      </trkpt>
      <trkpt lat="69.13729" lon="15.72718">
        <ele>8.811517</ele>
        <time>2020-07-16T03:56:01.274Z</time>
      </trkpt>
      <trkpt lat="69.13737" lon="15.72884">
        <ele>8.831141</ele>
        <time>2020-07-16T03:56:11.983Z</time>
      </trkpt>
      <trkpt lat="69.13747" lon="15.72957">
        <ele>8.848153</ele>
        <time>2020-07-16T03:56:17.025Z</time>
      </trkpt>
      <trkpt lat="69.13755" lon="15.73">
        <ele>8.858533</ele>
        <time>2020-07-16T03:56:20.170Z</time>
      </trkpt>
      <trkpt lat="69.13765" lon="15.73045">
        <ele>8.869887</ele>
        <time>2020-07-16T03:56:23.505Z</time>
      </trkpt>
      <trkpt lat="69.13785" lon="15.73118">
        <ele>8.889752</ele>
        <time>2020-07-16T03:56:29.450Z</time>
      </trkpt>
      <trkpt lat="69.13809" lon="15.73203">
        <ele>8.913006</ele>
        <time>2020-07-16T03:56:36.404Z</time>
      </trkpt>
      <trkpt lat="69.13816" lon="15.73227">
        <ele>8.915451</ele>
        <time>2020-07-16T03:56:38.475Z</time>
      </trkpt>
      <trkpt lat="69.13844" lon="15.73326">
        <ele>8.919883</ele>
        <time>2020-07-16T03:56:46.759Z</time>
      </trkpt>
      <trkpt lat="69.13882" lon="15.73456">
        <ele>8.925713</ele>
        <time>2020-07-16T03:56:57.520Z</time>
      </trkpt>
      <trkpt lat="69.14006" lon="15.73899">
        <ele>8.659939</ele>
        <time>2020-07-16T03:57:32.631Z</time>
      </trkpt>
      <trkpt lat="69.14045" lon="15.74059">
        <ele>8.442562</ele>
        <time>2020-07-16T03:57:44.143Z</time>
      </trkpt>
      <trkpt lat="69.14153" lon="15.74626">
        <ele>7.321739</ele>
        <time>2020-07-16T03:58:21.494Z</time>
      </trkpt>
      <trkpt lat="69.1429" lon="15.75407">
        <ele>6.088919</ele>
        <time>2020-07-16T03:59:14.322Z</time>
      </trkpt>
      <trkpt lat="69.14318" lon="15.7553">
        <ele>5.65047</ele>
        <time>2020-07-16T03:59:22.522Z</time>
      </trkpt>
      <trkpt lat="69.14375" lon="15.75735">
        <ele>4.864173</ele>
        <time>2020-07-16T03:59:36.899Z</time>
      </trkpt>
      <trkpt lat="69.14402" lon="15.75824">
        <ele>4.597157</ele>
        <time>2020-07-16T03:59:43.253Z</time>
      </trkpt>
      <trkpt lat="69.14408" lon="15.75843">
        <ele>4.545661</ele>
        <time>2020-07-16T03:59:44.680Z</time>
      </trkpt>
      <trkpt lat="69.14433" lon="15.75926">
        <ele>4.326158</ele>
        <time>2020-07-16T03:59:50.794Z</time>
      </trkpt>
      <trkpt lat="69.14451" lon="15.75981">
        <ele>4.178681</ele>
        <time>2020-07-16T03:59:54.936Z</time>
      </trkpt>
      <trkpt lat="69.14717" lon="15.76868">
        <ele>3.618955</ele>
        <time>2020-07-16T04:01:07.629Z</time>
      </trkpt>
      <trkpt lat="69.14732" lon="15.7692">
        <ele>3.620853</ele>
        <time>2020-07-16T04:01:12.181Z</time>
      </trkpt>
      <trkpt lat="69.14755" lon="15.76999">
        <ele>3.689901</ele>
        <time>2020-07-16T04:01:19.106Z</time>
      </trkpt>
      <trkpt lat="69.15325" lon="15.79138">
        <ele>5.407768</ele>
        <time>2020-07-16T04:04:14.900Z</time>
      </trkpt>
      <trkpt lat="69.15382" lon="15.79318">
        <ele>5.480816</ele>
        <time>2020-07-16T04:04:30.049Z</time>
      </trkpt>
      <trkpt lat="69.15417" lon="15.79408">
        <ele>5.426335</ele>
        <time>2020-07-16T04:04:38.458Z</time>
      </trkpt>
      <trkpt lat="69.15451" lon="15.79485">
        <ele>5.365934</ele>
        <time>2020-07-16T04:04:45.994Z</time>
      </trkpt>
      <trkpt lat="69.15541" lon="15.79679">
        <ele>5.190495</ele>
        <time>2020-07-16T04:05:05.662Z</time>
      </trkpt>
      <trkpt lat="69.15634" lon="15.79878">
        <ele>4.918047</ele>
        <time>2020-07-16T04:05:25.877Z</time>
      </trkpt>
      <trkpt lat="69.15721" lon="15.80058">
        <ele>4.634622</ele>
        <time>2020-07-16T04:05:43.907Z</time>
      </trkpt>
      <trkpt lat="69.15724" lon="15.80066">
        <ele>4.621644</ele>
        <time>2020-07-16T04:05:44.626Z</time>
      </trkpt>
      <trkpt lat="69.1584" lon="15.80312">
        <ele>4.326081</ele>
        <time>2020-07-16T04:06:09.729Z</time>
      </trkpt>
      <trkpt lat="69.15884" lon="15.80406">
        <ele>4.361934</ele>
        <time>2020-07-16T04:06:19.645Z</time>
      </trkpt>
      <trkpt lat="69.15899" lon="15.80439">
        <ele>4.374389</ele>
        <time>2020-07-16T04:06:23.172Z</time>
      </trkpt>
      <trkpt lat="69.15928" lon="15.805">
        <ele>4.398066</ele>
        <time>2020-07-16T04:06:29.787Z</time>
      </trkpt>
      <trkpt lat="69.15955" lon="15.80559">
        <ele>4.420369</ele>
        <time>2020-07-16T04:06:36.084Z</time>
      </trkpt>
      <trkpt lat="69.16013" lon="15.80683">
        <ele>4.501238</ele>
        <time>2020-07-16T04:06:49.631Z</time>
      </trkpt>
      <trkpt lat="69.1607" lon="15.80805">
        <ele>4.581726</ele>
        <time>2020-07-16T04:07:02.640Z</time>
      </trkpt>
      <trkpt lat="69.16119" lon="15.80909">
        <ele>4.662086</ele>
        <time>2020-07-16T04:07:13.337Z</time>
      </trkpt>
      <trkpt lat="69.16243" lon="15.81177">
        <ele>4.911237</ele>
        <time>2020-07-16T04:07:42.266Z</time>
      </trkpt>
      <trkpt lat="69.16256" lon="15.81206">
        <ele>4.942435</ele>
        <time>2020-07-16T04:07:45.454Z</time>
      </trkpt>
      <trkpt lat="69.16299" lon="15.81299">
        <ele>5.044146</ele>
        <time>2020-07-16T04:07:55.780Z</time>
      </trkpt>
      <trkpt lat="69.16321" lon="15.81343">
        <ele>5.094031</ele>
        <time>2020-07-16T04:08:00.752Z</time>
      </trkpt>
      <trkpt lat="69.16352" lon="15.81399">
        <ele>5.164056</ele>
        <time>2020-07-16T04:08:07.687Z</time>
      </trkpt>
      <trkpt lat="69.16393" lon="15.81464">
        <ele>5.228531</ele>
        <time>2020-07-16T04:08:16.284Z</time>
      </trkpt>
      <trkpt lat="69.16413" lon="15.81492">
        <ele>5.121238</ele>
        <time>2020-07-16T04:08:20.055Z</time>
      </trkpt>
      <trkpt lat="69.16427" lon="15.8151">
        <ele>5.042878</ele>
        <time>2020-07-16T04:08:22.843Z</time>
      </trkpt>
      <trkpt lat="69.16436" lon="15.81521">
        <ele>4.995947</ele>
        <time>2020-07-16T04:08:24.424Z</time>
      </trkpt>
      <trkpt lat="69.16497" lon="15.81577">
        <ele>4.678906</ele>
        <time>2020-07-16T04:08:35.138Z</time>
      </trkpt>
      <trkpt lat="69.16767" lon="15.8177">
        <ele>2.405884</ele>
        <time>2020-07-16T04:09:18.474Z</time>
      </trkpt>
      <trkpt lat="69.16827" lon="15.81798">
        <ele>1.980558</ele>
        <time>2020-07-16T04:09:28.204Z</time>
      </trkpt>
      <trkpt lat="69.16896" lon="15.81811">
        <ele>1.498851</ele>
        <time>2020-07-16T04:09:39.537Z</time>
      </trkpt>
      <trkpt lat="69.1695" lon="15.81814">
        <ele>1.311926</ele>
        <time>2020-07-16T04:09:48.588Z</time>
      </trkpt>
      <trkpt lat="69.17078" lon="15.81818">
        <ele>1.052719</ele>
        <time>2020-07-16T04:10:10.793Z</time>
      </trkpt>
      <trkpt lat="69.17146" lon="15.8182">
        <ele>1.017719</ele>
        <time>2020-07-16T04:10:22.779Z</time>
      </trkpt>
      <trkpt lat="69.17271" lon="15.81823">
        <ele>1.000158</ele>
        <time>2020-07-16T04:10:45.047Z</time>
      </trkpt>
      <trkpt lat="69.17553" lon="15.81835">
        <ele>1.000101</ele>
        <time>2020-07-16T04:11:35.409Z</time>
      </trkpt>
      <trkpt lat="69.17629" lon="15.81837">
        <ele>1.000178</ele>
        <time>2020-07-16T04:11:49.046Z</time>
      </trkpt>
      <trkpt lat="69.17659" lon="15.81837">
        <ele>1.026034</ele>
        <time>2020-07-16T04:11:54.335Z</time>
      </trkpt>
      <trkpt lat="69.17714" lon="15.81838">
        <ele>1.07797</ele>
        <time>2020-07-16T04:12:04.117Z</time>
      </trkpt>
      <trkpt lat="69.17809" lon="15.81852">
        <ele>1.168133</ele>
        <time>2020-07-16T04:12:21.380Z</time>
      </trkpt>
      <trkpt lat="69.1783" lon="15.81862">
        <ele>1.29014</ele>
        <time>2020-07-16T04:12:25.427Z</time>
      </trkpt>
      <trkpt lat="69.17843" lon="15.81868">
        <ele>1.376219</ele>
        <time>2020-07-16T04:12:27.975Z</time>
      </trkpt>
      <trkpt lat="69.17881" lon="15.8189">
        <ele>1.624859</ele>
        <time>2020-07-16T04:12:35.486Z</time>
      </trkpt>
      <trkpt lat="69.17888" lon="15.81895">
        <ele>1.671219</ele>
        <time>2020-07-16T04:12:36.924Z</time>
      </trkpt>
      <trkpt lat="69.17894" lon="15.81898">
        <ele>1.711587</ele>
        <time>2020-07-16T04:12:38.176Z</time>
      </trkpt>
      <trkpt lat="69.17917" lon="15.81912">
        <ele>1.861021</ele>
        <time>2020-07-16T04:12:42.772Z</time>
      </trkpt>
      <trkpt lat="69.1803" lon="15.81981">
        <ele>2.845016</ele>
        <time>2020-07-16T04:13:06.960Z</time>
      </trkpt>
      <trkpt lat="69.18126" lon="15.82049">
        <ele>4.05317</ele>
        <time>2020-07-16T04:13:28.952Z</time>
      </trkpt>
      <trkpt lat="69.18134" lon="15.82057">
        <ele>4.159534</ele>
        <time>2020-07-16T04:13:30.992Z</time>
      </trkpt>
      <trkpt lat="69.18142" lon="15.82066">
        <ele>4.263272</ele>
        <time>2020-07-16T04:13:32.999Z</time>
      </trkpt>
      <trkpt lat="69.18179" lon="15.82115">
        <ele>4.609897</ele>
        <time>2020-07-16T04:13:41.636Z</time>
      </trkpt>
      <trkpt lat="69.18208" lon="15.82171">
        <ele>4.789491</ele>
        <time>2020-07-16T04:13:49.159Z</time>
      </trkpt>
      <trkpt lat="69.18385" lon="15.82585">
        <ele>5.198762</ele>
        <time>2020-07-16T04:14:31.558Z</time>
      </trkpt>
      <trkpt lat="69.18433" lon="15.82679">
        <ele>5.077863</ele>
        <time>2020-07-16T04:14:41.088Z</time>
      </trkpt>
      <trkpt lat="69.18478" lon="15.82728">
        <ele>4.789198</ele>
        <time>2020-07-16T04:14:48.609Z</time>
      </trkpt>
      <trkpt lat="69.1872" lon="15.82914">
        <ele>3.360892</ele>
        <time>2020-07-16T04:15:28.464Z</time>
      </trkpt>
      <trkpt lat="69.19046" lon="15.83164">
        <ele>4.22925</ele>
        <time>2020-07-16T04:16:33.691Z</time>
      </trkpt>
      <trkpt lat="69.19077" lon="15.83194">
        <ele>4.317095</ele>
        <time>2020-07-16T04:16:39.946Z</time>
      </trkpt>
      <trkpt lat="69.19133" lon="15.83276">
        <ele>4.485415</ele>
        <time>2020-07-16T04:16:51.463Z</time>
      </trkpt>
      <trkpt lat="69.19143" lon="15.83297">
        <ele>4.439774</ele>
        <time>2020-07-16T04:16:53.767Z</time>
      </trkpt>
      <trkpt lat="69.19168" lon="15.8335">
        <ele>4.301882</ele>
        <time>2020-07-16T04:16:59.121Z</time>
      </trkpt>
      <trkpt lat="69.19415" lon="15.83923">
        <ele>2.593655</ele>
        <time>2020-07-16T04:17:51.266Z</time>
      </trkpt>
      <trkpt lat="69.19461" lon="15.84032">
        <ele>2.335666</ele>
        <time>2020-07-16T04:18:01.053Z</time>
      </trkpt>
      <trkpt lat="69.19497" lon="15.84122">
        <ele>2.130826</ele>
        <time>2020-07-16T04:18:08.948Z</time>
      </trkpt>
      <trkpt lat="69.1957" lon="15.84357">
        <ele>1.801006</ele>
        <time>2020-07-16T04:18:27.943Z</time>
      </trkpt>
      <trkpt lat="69.19625" lon="15.84627">
        <ele>1.720065</ele>
        <time>2020-07-16T04:18:47.710Z</time>
      </trkpt>
      <trkpt lat="69.19642" lon="15.84724">
        <ele>1.7</ele>
        <time>2020-07-16T04:18:54.524Z</time>
      </trkpt>
      <trkpt lat="69.19663" lon="15.84852">
        <ele>1.7</ele>
        <time>2020-07-16T04:19:03.574Z</time>
      </trkpt>
      <trkpt lat="69.19722" lon="15.85151">
        <ele>1.700013</ele>
        <time>2020-07-16T04:19:25.181Z</time>
      </trkpt>
      <trkpt lat="69.19752" lon="15.85254">
        <ele>1.700264</ele>
        <time>2020-07-16T04:19:33.552Z</time>
      </trkpt>
      <trkpt lat="69.19826" lon="15.85454">
        <ele>1.700807</ele>
        <time>2020-07-16T04:19:51.831Z</time>
      </trkpt>
      <trkpt lat="69.19834" lon="15.85472">
        <ele>1.700862</ele>
        <time>2020-07-16T04:19:53.626Z</time>
      </trkpt>
      <trkpt lat="69.19841" lon="15.85488">
        <ele>1.700911</ele>
        <time>2020-07-16T04:19:55.320Z</time>
      </trkpt>
      <trkpt lat="69.19902" lon="15.85601">
        <ele>1.722761</ele>
        <time>2020-07-16T04:20:08.399Z</time>
      </trkpt>
      <trkpt lat="69.20065" lon="15.85831">
        <ele>1.748917</ele>
        <time>2020-07-16T04:20:41.207Z</time>
      </trkpt>
      <trkpt lat="69.20207" lon="15.86025">
        <ele>1.700465</ele>
        <time>2020-07-16T04:21:09.173Z</time>
      </trkpt>
      <trkpt lat="69.20332" lon="15.86196">
        <ele>1.619646</ele>
        <time>2020-07-16T04:21:33.690Z</time>
      </trkpt>
      <trkpt lat="69.20353" lon="15.86224">
        <ele>1.630398</ele>
        <time>2020-07-16T04:21:37.748Z</time>
      </trkpt>
      <trkpt lat="69.20354" lon="15.86226">
        <ele>1.631115</ele>
        <time>2020-07-16T04:21:38.020Z</time>
      </trkpt>
      <trkpt lat="69.2036" lon="15.86233">
        <ele>1.6342</ele>
        <time>2020-07-16T04:21:39.178Z</time>
      </trkpt>
      <trkpt lat="69.20368" lon="15.8624">
        <ele>1.637774</ele>
        <time>2020-07-16T04:21:40.584Z</time>
      </trkpt>
      <trkpt lat="69.20428" lon="15.86269">
        <ele>1.666461</ele>
        <time>2020-07-16T04:21:51.517Z</time>
      </trkpt>
      <trkpt lat="69.2045" lon="15.86267">
        <ele>1.676564</ele>
        <time>2020-07-16T04:21:55.449Z</time>
      </trkpt>
      <trkpt lat="69.2047" lon="15.86262">
        <ele>1.686018</ele>
        <time>2020-07-16T04:21:59.127Z</time>
      </trkpt>
      <trkpt lat="69.20487" lon="15.86255">
        <ele>1.693721</ele>
        <time>2020-07-16T04:22:02.112Z</time>
      </trkpt>
      <trkpt lat="69.20641" lon="15.86196">
        <ele>2.288728</ele>
        <time>2020-07-16T04:22:31.209Z</time>
      </trkpt>
      <trkpt lat="69.20662" lon="15.86187">
        <ele>2.380923</ele>
        <time>2020-07-16T04:22:35.593Z</time>
      </trkpt>
      <trkpt lat="69.20665" lon="15.86186">
        <ele>2.391836</ele>
        <time>2020-07-16T04:22:36.083Z</time>
      </trkpt>
      <trkpt lat="69.20673" lon="15.86183">
        <ele>2.42628</ele>
        <time>2020-07-16T04:22:37.718Z</time>
      </trkpt>
      <trkpt lat="69.20703" lon="15.86173">
        <ele>2.690872</ele>
        <time>2020-07-16T04:22:43.975Z</time>
      </trkpt>
      <trkpt lat="69.20741" lon="15.86176">
        <ele>3.085812</ele>
        <time>2020-07-16T04:22:52.030Z</time>
      </trkpt>
      <trkpt lat="69.20773" lon="15.86202">
        <ele>3.439204</ele>
        <time>2020-07-16T04:22:59.312Z</time>
      </trkpt>
      <trkpt lat="69.20841" lon="15.86274">
        <ele>4.197784</ele>
        <time>2020-07-16T04:23:15.032Z</time>
      </trkpt>
      <trkpt lat="69.20854" lon="15.86289">
        <ele>4.34504</ele>
        <time>2020-07-16T04:23:18.093Z</time>
      </trkpt>
      <trkpt lat="69.20878" lon="15.86315">
        <ele>4.585285</ele>
        <time>2020-07-16T04:23:23.426Z</time>
      </trkpt>
      <trkpt lat="69.20882" lon="15.8632">
        <ele>4.629943</ele>
        <time>2020-07-16T04:23:24.506Z</time>
      </trkpt>
      <trkpt lat="69.21" lon="15.86455">
        <ele>5.831445</ele>
        <time>2020-07-16T04:23:50.912Z</time>
      </trkpt>
      <trkpt lat="69.21101" lon="15.86639">
        <ele>7.247608</ele>
        <time>2020-07-16T04:24:15.319Z</time>
      </trkpt>
      <trkpt lat="69.21151" lon="15.86766">
        <ele>8.0768</ele>
        <time>2020-07-16T04:24:31.303Z</time>
      </trkpt>
      <trkpt lat="69.21191" lon="15.86943">
        <ele>9.103427</ele>
        <time>2020-07-16T04:24:48.630Z</time>
      </trkpt>
      <trkpt lat="69.21196" lon="15.8698">
        <ele>9.304932</ele>
        <time>2020-07-16T04:24:52.171Z</time>
      </trkpt>
      <trkpt lat="69.21201" lon="15.87019">
        <ele>9.517232</ele>
        <time>2020-07-16T04:24:55.570Z</time>
      </trkpt>
      <trkpt lat="69.21217" lon="15.87177">
        <ele>10.342961</ele>
        <time>2020-07-16T04:25:08.802Z</time>
      </trkpt>
      <trkpt lat="69.21259" lon="15.87828">
        <ele>12.06639</ele>
        <time>2020-07-16T04:25:55.075Z</time>
      </trkpt>
      <trkpt lat="69.21312" lon="15.88345">
        <ele>13.168522</ele>
        <time>2020-07-16T04:26:32.316Z</time>
      </trkpt>
      <trkpt lat="69.21433" lon="15.8998">
        <ele>19.003339</ele>
        <time>2020-07-16T04:28:35.216Z</time>
      </trkpt>
      <trkpt lat="69.21462" lon="15.90184">
        <ele>20.257638</ele>
        <time>2020-07-16T04:28:54.014Z</time>
      </trkpt>
      <trkpt lat="69.21533" lon="15.90526">
        <ele>24.109219</ele>
        <time>2020-07-16T04:29:32.345Z</time>
      </trkpt>
      <trkpt lat="69.21635" lon="15.90994">
        <ele>29.247188</ele>
        <time>2020-07-16T04:30:26.301Z</time>
      </trkpt>
      <trkpt lat="69.21665" lon="15.9113">
        <ele>30.251313</ele>
        <time>2020-07-16T04:30:39.024Z</time>
      </trkpt>
      <trkpt lat="69.21717" lon="15.91329">
        <ele>30.245468</ele>
        <time>2020-07-16T04:30:54.981Z</time>
      </trkpt>
      <trkpt lat="69.21751" lon="15.91433">
        <ele>30.242099</ele>
        <time>2020-07-16T04:31:02.969Z</time>
      </trkpt>
      <trkpt lat="69.21782" lon="15.91525">
        <ele>30.146698</ele>
        <time>2020-07-16T04:31:09.931Z</time>
      </trkpt>
      <trkpt lat="69.21786" lon="15.91538">
        <ele>30.117557</ele>
        <time>2020-07-16T04:31:10.933Z</time>
      </trkpt>
      <trkpt lat="69.2179" lon="15.9155">
        <ele>30.090225</ele>
        <time>2020-07-16T04:31:11.762Z</time>
      </trkpt>
      <trkpt lat="69.21885" lon="15.91807">
        <ele>29.473352</ele>
        <time>2020-07-16T04:31:33.329Z</time>
      </trkpt>
      <trkpt lat="69.22232" lon="15.92557">
        <ele>31.449366</ele>
        <time>2020-07-16T04:33:00.545Z</time>
      </trkpt>
      <trkpt lat="69.22378" lon="15.92871">
        <ele>31.053482</ele>
        <time>2020-07-16T04:33:30.219Z</time>
      </trkpt>
      <trkpt lat="69.225" lon="15.93134">
        <ele>31.045651</ele>
        <time>2020-07-16T04:33:57.034Z</time>
      </trkpt>
      <trkpt lat="69.22587" lon="15.93324">
        <ele>31.930332</ele>
        <time>2020-07-16T04:34:20.052Z</time>
      </trkpt>
      <trkpt lat="69.2261" lon="15.93374">
        <ele>32.166346</ele>
        <time>2020-07-16T04:34:26.506Z</time>
      </trkpt>
      <trkpt lat="69.22616" lon="15.93385">
        <ele>32.257043</ele>
        <time>2020-07-16T04:34:27.977Z</time>
      </trkpt>
      <trkpt lat="69.22655" lon="15.9347">
        <ele>33.020757</ele>
        <time>2020-07-16T04:34:39.159Z</time>
      </trkpt>
      <trkpt lat="69.22774" lon="15.9372">
        <ele>35.423686</ele>
        <time>2020-07-16T04:35:13.317Z</time>
      </trkpt>
      <trkpt lat="69.2291" lon="15.93959">
        <ele>38.682056</ele>
        <time>2020-07-16T04:35:51.465Z</time>
      </trkpt>
      <trkpt lat="69.23421" lon="15.94528">
        <ele>57.71184</ele>
        <time>2020-07-16T04:38:30.834Z</time>
      </trkpt>
      <trkpt lat="69.23445" lon="15.94568">
        <ele>58.791853</ele>
        <time>2020-07-16T04:38:40.802Z</time>
      </trkpt>
      <trkpt lat="69.23483" lon="15.94654">
        <ele>60.59786</ele>
        <time>2020-07-16T04:38:56.837Z</time>
      </trkpt>
      <trkpt lat="69.23561" lon="15.94857">
        <ele>63.99969</ele>
        <time>2020-07-16T04:39:27.419Z</time>
      </trkpt>
      <trkpt lat="69.23565" lon="15.94869">
        <ele>63.997694</ele>
        <time>2020-07-16T04:39:28.945Z</time>
      </trkpt>
      <trkpt lat="69.23591" lon="15.94936">
        <ele>63.98653</ele>
        <time>2020-07-16T04:39:36.728Z</time>
      </trkpt>
      <trkpt lat="69.23664" lon="15.9513">
        <ele>63.954425</ele>
        <time>2020-07-16T04:39:52.700Z</time>
      </trkpt>
      <trkpt lat="69.23754" lon="15.95366">
        <ele>61.519994</ele>
        <time>2020-07-16T04:40:09.485Z</time>
      </trkpt>
      <trkpt lat="69.23813" lon="15.9552">
        <ele>59.581026</ele>
        <time>2020-07-16T04:40:20.294Z</time>
      </trkpt>
      <trkpt lat="69.23841" lon="15.95593">
        <ele>58.259143</ele>
        <time>2020-07-16T04:40:25.566Z</time>
      </trkpt>
      <trkpt lat="69.2387" lon="15.95663">
        <ele>56.945396</ele>
        <time>2020-07-16T04:40:30.655Z</time>
      </trkpt>
      <trkpt lat="69.23881" lon="15.9569">
        <ele>56.432491</ele>
        <time>2020-07-16T04:40:32.635Z</time>
      </trkpt>
      <trkpt lat="69.2389" lon="15.9571">
        <ele>56.057659</ele>
        <time>2020-07-16T04:40:33.949Z</time>
      </trkpt>
      <trkpt lat="69.23956" lon="15.95839">
        <ele>53.284731</ele>
        <time>2020-07-16T04:40:44.096Z</time>
      </trkpt>
      <trkpt lat="69.23989" lon="15.95899">
        <ele>51.706476</ele>
        <time>2020-07-16T04:40:49.014Z</time>
      </trkpt>
      <trkpt lat="69.24023" lon="15.95956">
        <ele>50.147189</ele>
        <time>2020-07-16T04:40:53.818Z</time>
      </trkpt>
      <trkpt lat="69.24052" lon="15.96017">
        <ele>48.691189</ele>
        <time>2020-07-16T04:40:58.411Z</time>
      </trkpt>
      <trkpt lat="69.24132" lon="15.96223">
        <ele>45.219754</ele>
        <time>2020-07-16T04:41:12.398Z</time>
      </trkpt>
      <trkpt lat="69.24177" lon="15.96337">
        <ele>43.880433</ele>
        <time>2020-07-16T04:41:21.125Z</time>
      </trkpt>
      <trkpt lat="69.24223" lon="15.96454">
        <ele>42.520286</ele>
        <time>2020-07-16T04:41:30.131Z</time>
      </trkpt>
      <trkpt lat="69.24229" lon="15.96472">
        <ele>42.315948</ele>
        <time>2020-07-16T04:41:31.395Z</time>
      </trkpt>
      <trkpt lat="69.24242" lon="15.9651">
        <ele>41.899261</ele>
        <time>2020-07-16T04:41:34.125Z</time>
      </trkpt>
      <trkpt lat="69.24247" lon="15.96525">
        <ele>41.730647</ele>
        <time>2020-07-16T04:41:35.207Z</time>
      </trkpt>
      <trkpt lat="69.24262" lon="15.9658">
        <ele>41.190415</ele>
        <time>2020-07-16T04:41:38.653Z</time>
      </trkpt>
      <trkpt lat="69.24267" lon="15.96601">
        <ele>40.985996</ele>
        <time>2020-07-16T04:41:40.006Z</time>
      </trkpt>
      <trkpt lat="69.24272" lon="15.96623">
        <ele>40.776624</ele>
        <time>2020-07-16T04:41:41.277Z</time>
      </trkpt>
      <trkpt lat="69.24279" lon="15.96659">
        <ele>40.443239</ele>
        <time>2020-07-16T04:41:43.482Z</time>
      </trkpt>
      <trkpt lat="69.24298" lon="15.96757">
        <ele>39.566718</ele>
        <time>2020-07-16T04:41:49.109Z</time>
      </trkpt>
      <trkpt lat="69.24314" lon="15.96847">
        <ele>38.764951</ele>
        <time>2020-07-16T04:41:54.136Z</time>
      </trkpt>
      <trkpt lat="69.2434" lon="15.96975">
        <ele>37.028477</ele>
        <time>2020-07-16T04:42:00.818Z</time>
      </trkpt>
      <trkpt lat="69.24361" lon="15.97027">
        <ele>35.891664</ele>
        <time>2020-07-16T04:42:04.269Z</time>
      </trkpt>
      <trkpt lat="69.24394" lon="15.97069">
        <ele>34.429472</ele>
        <time>2020-07-16T04:42:08.705Z</time>
      </trkpt>
      <trkpt lat="69.24425" lon="15.97075">
        <ele>33.13721</ele>
        <time>2020-07-16T04:42:12.607Z</time>
      </trkpt>
      <trkpt lat="69.24441" lon="15.97074">
        <ele>32.498559</ele>
        <time>2020-07-16T04:42:14.576Z</time>
      </trkpt>
      <trkpt lat="69.24461" lon="15.97068">
        <ele>31.667792</ele>
        <time>2020-07-16T04:42:17.092Z</time>
      </trkpt>
      <trkpt lat="69.2461" lon="15.96999">
        <ele>26.364506</ele>
        <time>2020-07-16T04:42:36.112Z</time>
      </trkpt>
      <trkpt lat="69.24731" lon="15.96906">
        <ele>23.905949</ele>
        <time>2020-07-16T04:42:53.863Z</time>
      </trkpt>
      <trkpt lat="69.24803" lon="15.96875">
        <ele>23.115253</ele>
        <time>2020-07-16T04:43:05.554Z</time>
      </trkpt>
      <trkpt lat="69.24821" lon="15.96866">
        <ele>22.917108</ele>
        <time>2020-07-16T04:43:08.537Z</time>
      </trkpt>
      <trkpt lat="69.24836" lon="15.96857">
        <ele>22.84545</ele>
        <time>2020-07-16T04:43:11.293Z</time>
      </trkpt>
      <trkpt lat="69.24868" lon="15.96827">
        <ele>23.218785</ele>
        <time>2020-07-16T04:43:17.791Z</time>
      </trkpt>
      <trkpt lat="69.2488" lon="15.96811">
        <ele>23.375994</ele>
        <time>2020-07-16T04:43:20.722Z</time>
      </trkpt>
      <trkpt lat="69.24928" lon="15.96744">
        <ele>23.980923</ele>
        <time>2020-07-16T04:43:32.445Z</time>
      </trkpt>
      <trkpt lat="69.2495" lon="15.96713">
        <ele>24.256423</ele>
        <time>2020-07-16T04:43:38.035Z</time>
      </trkpt>
      <trkpt lat="69.24962" lon="15.9669">
        <ele>24.428527</ele>
        <time>2020-07-16T04:43:41.625Z</time>
      </trkpt>
      <trkpt lat="69.24996" lon="15.96623">
        <ele>24.873054</ele>
        <time>2020-07-16T04:43:52.085Z</time>
      </trkpt>
      <trkpt lat="69.25107" lon="15.96474">
        <ele>25.722649</ele>
        <time>2020-07-16T04:44:17.869Z</time>
      </trkpt>
      <trkpt lat="69.2513" lon="15.96437">
        <ele>25.906238</ele>
        <time>2020-07-16T04:44:22.741Z</time>
      </trkpt>
      <trkpt lat="69.2519" lon="15.96344">
        <ele>25.776876</ele>
        <time>2020-07-16T04:44:33.588Z</time>
      </trkpt>
      <trkpt lat="69.2522" lon="15.96294">
        <ele>25.530789</ele>
        <time>2020-07-16T04:44:38.958Z</time>
      </trkpt>
      <trkpt lat="69.25246" lon="15.96248">
        <ele>25.310723</ele>
        <time>2020-07-16T04:44:43.672Z</time>
      </trkpt>
      <trkpt lat="69.25348" lon="15.96015">
        <ele>25.36173</ele>
        <time>2020-07-16T04:45:04.985Z</time>
      </trkpt>
      <trkpt lat="69.25368" lon="15.95965">
        <ele>25.60734</ele>
        <time>2020-07-16T04:45:10.587Z</time>
      </trkpt>
      <trkpt lat="69.25403" lon="15.95878">
        <ele>26.036675</ele>
        <time>2020-07-16T04:45:20.646Z</time>
      </trkpt>
      <trkpt lat="69.25433" lon="15.9581">
        <ele>26.389537</ele>
        <time>2020-07-16T04:45:29.231Z</time>
      </trkpt>
      <trkpt lat="69.25467" lon="15.95758">
        <ele>27.666031</ele>
        <time>2020-07-16T04:45:40.592Z</time>
      </trkpt>
      <trkpt lat="69.2554" lon="15.95721">
        <ele>30.530497</ele>
        <time>2020-07-16T04:46:03.431Z</time>
      </trkpt>
      <trkpt lat="69.25587" lon="15.9571">
        <ele>32.368415</ele>
        <time>2020-07-16T04:46:17.962Z</time>
      </trkpt>
      <trkpt lat="69.25598" lon="15.95714">
        <ele>32.818349</ele>
        <time>2020-07-16T04:46:21.750Z</time>
      </trkpt>
      <trkpt lat="69.25602" lon="15.95717">
        <ele>32.960585</ele>
        <time>2020-07-16T04:46:24.148Z</time>
      </trkpt>
      <trkpt lat="69.2562" lon="15.95751">
        <ele>33.746989</ele>
        <time>2020-07-16T04:46:29.834Z</time>
      </trkpt>
      <trkpt lat="69.25629" lon="15.95805">
        <ele>34.458316</ele>
        <time>2020-07-16T04:46:37.490Z</time>
      </trkpt>
      <trkpt lat="69.25622" lon="15.95989">
        <ele>36.659443</ele>
        <time>2020-07-16T04:46:58.456Z</time>
      </trkpt>
      <trkpt lat="69.25638" lon="15.96146">
        <ele>38.590613</ele>
        <time>2020-07-16T04:47:14.202Z</time>
      </trkpt>
      <trkpt lat="69.25667" lon="15.963">
        <ele>39.542549</ele>
        <time>2020-07-16T04:47:27.312Z</time>
      </trkpt>
      <trkpt lat="69.25705" lon="15.9642">
        <ele>39.633377</ele>
        <time>2020-07-16T04:47:38.070Z</time>
      </trkpt>
      <trkpt lat="69.25752" lon="15.96522">
        <ele>39.728618</ele>
        <time>2020-07-16T04:47:48.600Z</time>
      </trkpt>
      <trkpt lat="69.25784" lon="15.96551">
        <ele>39.648708</ele>
        <time>2020-07-16T04:47:53.952Z</time>
      </trkpt>
      <trkpt lat="69.25812" lon="15.96547">
        <ele>39.044272</ele>
        <time>2020-07-16T04:47:57.925Z</time>
      </trkpt>
      <trkpt lat="69.25882" lon="15.96491">
        <ele>37.431131</ele>
        <time>2020-07-16T04:48:08.335Z</time>
      </trkpt>
      <trkpt lat="69.25889" lon="15.9649">
        <ele>37.278207</ele>
        <time>2020-07-16T04:48:09.380Z</time>
      </trkpt>
      <trkpt lat="69.25903" lon="15.96492">
        <ele>36.97476</ele>
        <time>2020-07-16T04:48:11.150Z</time>
      </trkpt>
      <trkpt lat="69.25982" lon="15.9654">
        <ele>34.806914</ele>
        <time>2020-07-16T04:48:21.810Z</time>
      </trkpt>
      <trkpt lat="69.26036" lon="15.9655">
        <ele>32.902421</ele>
        <time>2020-07-16T04:48:28.674Z</time>
      </trkpt>
      <trkpt lat="69.26081" lon="15.96535">
        <ele>31.341166</ele>
        <time>2020-07-16T04:48:34.270Z</time>
      </trkpt>
      <trkpt lat="69.26128" lon="15.96486">
        <ele>29.581175</ele>
        <time>2020-07-16T04:48:40.788Z</time>
      </trkpt>
      <trkpt lat="69.2617" lon="15.96403">
        <ele>28.710335</ele>
        <time>2020-07-16T04:48:47.764Z</time>
      </trkpt>
      <trkpt lat="69.26197" lon="15.96332">
        <ele>28.130454</ele>
        <time>2020-07-16T04:48:52.925Z</time>
      </trkpt>
      <trkpt lat="69.26277" lon="15.95999">
        <ele>26.582087</ele>
        <time>2020-07-16T04:49:16.112Z</time>
      </trkpt>
      <trkpt lat="69.26395" lon="15.95807">
        <ele>26.471572</ele>
        <time>2020-07-16T04:49:40.410Z</time>
      </trkpt>
      <trkpt lat="69.26421" lon="15.95779">
        <ele>26.7597</ele>
        <time>2020-07-16T04:49:45.496Z</time>
      </trkpt>
      <trkpt lat="69.26484" lon="15.9575">
        <ele>27.427281</ele>
        <time>2020-07-16T04:49:57.794Z</time>
      </trkpt>
      <trkpt lat="69.26541" lon="15.95741">
        <ele>28.016907</ele>
        <time>2020-07-16T04:50:11.215Z</time>
      </trkpt>
      <trkpt lat="69.26566" lon="15.9576">
        <ele>28.286692</ele>
        <time>2020-07-16T04:50:17.164Z</time>
      </trkpt>
      <trkpt lat="69.26624" lon="15.95853">
        <ele>30.186906</ele>
        <time>2020-07-16T04:50:34.063Z</time>
      </trkpt>
      <trkpt lat="69.26635" lon="15.9587">
        <ele>30.547107</ele>
        <time>2020-07-16T04:50:37.808Z</time>
      </trkpt>
      <trkpt lat="69.26649" lon="15.95889">
        <ele>30.986365</ele>
        <time>2020-07-16T04:50:41.905Z</time>
      </trkpt>
      <trkpt lat="69.26711" lon="15.95949">
        <ele>32.866808</ele>
        <time>2020-07-16T04:51:00.878Z</time>
      </trkpt>
      <trkpt lat="69.26753" lon="15.9599">
        <ele>34.058714</ele>
        <time>2020-07-16T04:51:13.719Z</time>
      </trkpt>
      <trkpt lat="69.26792" lon="15.96028">
        <ele>35.07556</ele>
        <time>2020-07-16T04:51:25.267Z</time>
      </trkpt>
      <trkpt lat="69.26822" lon="15.96066">
        <ele>35.903587</ele>
        <time>2020-07-16T04:51:33.558Z</time>
      </trkpt>
      <trkpt lat="69.26833" lon="15.96081">
        <ele>36.221499</ele>
        <time>2020-07-16T04:51:36.968Z</time>
      </trkpt>
      <trkpt lat="69.2687" lon="15.96115">
        <ele>37.173491</ele>
        <time>2020-07-16T04:51:46.512Z</time>
      </trkpt>
      <trkpt lat="69.26899" lon="15.96113">
        <ele>37.895497</ele>
        <time>2020-07-16T04:51:53.384Z</time>
      </trkpt>
      <trkpt lat="69.26919" lon="15.96096">
        <ele>37.628442</ele>
        <time>2020-07-16T04:51:58.276Z</time>
      </trkpt>
      <trkpt lat="69.2696" lon="15.96019">
        <ele>36.83508</ele>
        <time>2020-07-16T04:52:08.090Z</time>
      </trkpt>
      <trkpt lat="69.26978" lon="15.95968">
        <ele>36.432901</ele>
        <time>2020-07-16T04:52:12.046Z</time>
      </trkpt>
      <trkpt lat="69.26994" lon="15.9592">
        <ele>36.065032</ele>
        <time>2020-07-16T04:52:15.105Z</time>
      </trkpt>
      <trkpt lat="69.27024" lon="15.95831">
        <ele>35.364126</ele>
        <time>2020-07-16T04:52:20.861Z</time>
      </trkpt>
      <trkpt lat="69.27041" lon="15.95785">
        <ele>34.738799</ele>
        <time>2020-07-16T04:52:23.742Z</time>
      </trkpt>
      <trkpt lat="69.27054" lon="15.95757">
        <ele>33.727978</ele>
        <time>2020-07-16T04:52:25.614Z</time>
      </trkpt>
      <trkpt lat="69.27066" lon="15.95732">
        <ele>32.715878</ele>
        <time>2020-07-16T04:52:27.412Z</time>
      </trkpt>
      <trkpt lat="69.27077" lon="15.95717">
        <ele>31.967029</ele>
        <time>2020-07-16T04:52:28.868Z</time>
      </trkpt>
      <trkpt lat="69.27086" lon="15.95702">
        <ele>31.301415</ele>
        <time>2020-07-16T04:52:30.004Z</time>
      </trkpt>
      <trkpt lat="69.27106" lon="15.95666">
        <ele>29.750444</ele>
        <time>2020-07-16T04:52:32.839Z</time>
      </trkpt>
      <trkpt lat="69.2714" lon="15.95622">
        <ele>27.35669</ele>
        <time>2020-07-16T04:52:37.095Z</time>
      </trkpt>
      <trkpt lat="69.27149" lon="15.95612">
        <ele>26.704821</ele>
        <time>2020-07-16T04:52:38.197Z</time>
      </trkpt>
      <trkpt lat="69.27158" lon="15.95603">
        <ele>26.101643</ele>
        <time>2020-07-16T04:52:39.237Z</time>
      </trkpt>
      <trkpt lat="69.27181" lon="15.95595">
        <ele>24.566626</ele>
        <time>2020-07-16T04:52:42.022Z</time>
      </trkpt>
      <trkpt lat="69.27185" lon="15.95599">
        <ele>24.293556</ele>
        <time>2020-07-16T04:52:42.467Z</time>
      </trkpt>
      <trkpt lat="69.2719" lon="15.95613">
        <ele>23.843412</ele>
        <time>2020-07-16T04:52:43.253Z</time>
      </trkpt>
      <trkpt lat="69.27195" lon="15.95657">
        <ele>22.957182</ele>
        <time>2020-07-16T04:52:45.243Z</time>
      </trkpt>
      <trkpt lat="69.27199" lon="15.9569">
        <ele>22.35164</ele>
        <time>2020-07-16T04:52:46.616Z</time>
      </trkpt>
      <trkpt lat="69.27224" lon="15.95952">
        <ele>17.706274</ele>
        <time>2020-07-16T04:52:58.271Z</time>
      </trkpt>
      <trkpt lat="69.2723" lon="15.96002">
        <ele>16.817601</ele>
        <time>2020-07-16T04:53:00.551Z</time>
      </trkpt>
      <trkpt lat="69.27251" lon="15.96148">
        <ele>14.417066</ele>
        <time>2020-07-16T04:53:08.082Z</time>
      </trkpt>
      <trkpt lat="69.27277" lon="15.96284">
        <ele>13.031923</ele>
        <time>2020-07-16T04:53:15.681Z</time>
      </trkpt>
      <trkpt lat="69.27292" lon="15.96356">
        <ele>12.277731</ele>
        <time>2020-07-16T04:53:19.779Z</time>
      </trkpt>
      <trkpt lat="69.27296" lon="15.96373">
        <ele>12.090678</ele>
        <time>2020-07-16T04:53:20.862Z</time>
      </trkpt>
      <trkpt lat="69.27301" lon="15.96389">
        <ele>11.907321</ele>
        <time>2020-07-16T04:53:21.796Z</time>
      </trkpt>
      <trkpt lat="69.27431" lon="15.96745">
        <ele>7.194724</ele>
        <time>2020-07-16T04:53:46.431Z</time>
      </trkpt>
      <trkpt lat="69.27443" lon="15.96772">
        <ele>6.803577</ele>
        <time>2020-07-16T04:53:48.391Z</time>
      </trkpt>
      <trkpt lat="69.27452" lon="15.96787">
        <ele>6.51181</ele>
        <time>2020-07-16T04:53:49.868Z</time>
      </trkpt>
      <trkpt lat="69.27495" lon="15.96845">
        <ele>5.29455</ele>
        <time>2020-07-16T04:53:56.308Z</time>
      </trkpt>
      <trkpt lat="69.27507" lon="15.96858">
        <ele>5.017056</ele>
        <time>2020-07-16T04:53:57.976Z</time>
      </trkpt>
      <trkpt lat="69.27525" lon="15.96878">
        <ele>4.600672</ele>
        <time>2020-07-16T04:54:00.576Z</time>
      </trkpt>
      <trkpt lat="69.27547" lon="15.96906">
        <ele>4.069521</ele>
        <time>2020-07-16T04:54:03.850Z</time>
      </trkpt>
      <trkpt lat="69.27577" lon="15.96963">
        <ele>3.287122</ele>
        <time>2020-07-16T04:54:08.732Z</time>
      </trkpt>
      <trkpt lat="69.27584" lon="15.96985">
        <ele>3.045182</ele>
        <time>2020-07-16T04:54:10.277Z</time>
      </trkpt>
      <trkpt lat="69.2759" lon="15.97004">
        <ele>2.855292</ele>
        <time>2020-07-16T04:54:11.527Z</time>
      </trkpt>
      <trkpt lat="69.27617" lon="15.97087">
        <ele>1.987705</ele>
        <time>2020-07-16T04:54:17.226Z</time>
      </trkpt>
      <trkpt lat="69.27649" lon="15.97185">
        <ele>1.336179</ele>
        <time>2020-07-16T04:54:24.268Z</time>
      </trkpt>
      <trkpt lat="69.27664" lon="15.9723">
        <ele>1.176851</ele>
        <time>2020-07-16T04:54:27.628Z</time>
      </trkpt>
      <trkpt lat="69.27702" lon="15.97347">
        <ele>0.767918</ele>
        <time>2020-07-16T04:54:36.610Z</time>
      </trkpt>
      <trkpt lat="69.27717" lon="15.97392">
        <ele>0.608163</ele>
        <time>2020-07-16T04:54:40.247Z</time>
      </trkpt>
      <trkpt lat="69.27836" lon="15.97749">
        <ele>0.07594</ele>
        <time>2020-07-16T04:55:10.334Z</time>
      </trkpt>
      <trkpt lat="69.28005" lon="15.9826">
        <ele>0.003657</ele>
        <time>2020-07-16T04:55:54.550Z</time>
      </trkpt>
      <trkpt lat="69.28095" lon="15.98537">
        <ele>0.065161</ele>
        <time>2020-07-16T04:56:18.309Z</time>
      </trkpt>
      <trkpt lat="69.28208" lon="15.98882">
        <ele>0.374934</ele>
        <time>2020-07-16T04:56:48.989Z</time>
      </trkpt>
      <trkpt lat="69.28235" lon="15.9896">
        <ele>0.462458</ele>
        <time>2020-07-16T04:56:56.248Z</time>
      </trkpt>
      <trkpt lat="69.28241" lon="15.98975">
        <ele>0.481842</ele>
        <time>2020-07-16T04:56:57.819Z</time>
      </trkpt>
      <trkpt lat="69.28253" lon="15.98998">
        <ele>0.528046</ele>
        <time>2020-07-16T04:57:00.333Z</time>
      </trkpt>
      <trkpt lat="69.28255" lon="15.99003">
        <ele>0.540692</ele>
        <time>2020-07-16T04:57:01.153Z</time>
      </trkpt>
      <trkpt lat="69.28297" lon="15.99058">
        <ele>0.730816</ele>
        <time>2020-07-16T04:57:09.924Z</time>
      </trkpt>
      <trkpt lat="69.28331" lon="15.99075">
        <ele>0.871541</ele>
        <time>2020-07-16T04:57:16.458Z</time>
      </trkpt>
      <trkpt lat="69.28392" lon="15.99051">
        <ele>1.122897</ele>
        <time>2020-07-16T04:57:28.187Z</time>
      </trkpt>
      <trkpt lat="69.28508" lon="15.98956">
        <ele>2.540292</ele>
        <time>2020-07-16T04:57:51.874Z</time>
      </trkpt>
      <trkpt lat="69.28585" lon="15.98895">
        <ele>3.640463</ele>
        <time>2020-07-16T04:58:11.509Z</time>
      </trkpt>
      <trkpt lat="69.28614" lon="15.98881">
        <ele>4.395102</ele>
        <time>2020-07-16T04:58:19.283Z</time>
      </trkpt>
      <trkpt lat="69.2865" lon="15.98881">
        <ele>5.404575</ele>
        <time>2020-07-16T04:58:29.191Z</time>
      </trkpt>
      <trkpt lat="69.28667" lon="15.98887">
        <ele>5.859211</ele>
        <time>2020-07-16T04:58:34.054Z</time>
      </trkpt>
      <trkpt lat="69.28699" lon="15.98908">
        <ele>6.795817</ele>
        <time>2020-07-16T04:58:43.899Z</time>
      </trkpt>
      <trkpt lat="69.28793" lon="15.98982">
        <ele>8.925</ele>
        <time>2020-07-16T04:59:09.424Z</time>
      </trkpt>
      <trkpt lat="69.28839" lon="15.99017">
        <ele>9.2323</ele>
        <time>2020-07-16T04:59:20.336Z</time>
      </trkpt>
      <trkpt lat="69.29014" lon="15.9915">
        <ele>10.297109</ele>
        <time>2020-07-16T04:59:50.690Z</time>
      </trkpt>
      <trkpt lat="69.29077" lon="15.99198">
        <ele>10.628757</ele>
        <time>2020-07-16T05:00:03.373Z</time>
      </trkpt>
      <trkpt lat="69.2912" lon="15.99235">
        <ele>10.973132</ele>
        <time>2020-07-16T05:00:13.722Z</time>
      </trkpt>
      <trkpt lat="69.29285" lon="15.99422">
        <ele>14.598505</ele>
        <time>2020-07-16T05:00:59.122Z</time>
      </trkpt>
      <trkpt lat="69.29344" lon="15.9947">
        <ele>14.954916</ele>
        <time>2020-07-16T05:01:12.077Z</time>
      </trkpt>
      <trkpt lat="69.29411" lon="15.99488">
        <ele>15.351357</ele>
        <time>2020-07-16T05:01:23.456Z</time>
      </trkpt>
      <trkpt lat="69.2948" lon="15.99469">
        <ele>15.726227</ele>
        <time>2020-07-16T05:01:36.967Z</time>
      </trkpt>
      <trkpt lat="69.2954" lon="15.99436">
        <ele>15.987326</ele>
        <time>2020-07-16T05:01:48.431Z</time>
      </trkpt>
      <trkpt lat="69.29552" lon="15.99429">
        <ele>16.038816</ele>
        <time>2020-07-16T05:01:50.599Z</time>
      </trkpt>
      <trkpt lat="69.29597" lon="15.99401">
        <ele>16.239253</ele>
        <time>2020-07-16T05:01:59.848Z</time>
      </trkpt>
      <trkpt lat="69.29637" lon="15.99378">
        <ele>16.479718</ele>
        <time>2020-07-16T05:02:08.534Z</time>
      </trkpt>
      <trkpt lat="69.29646" lon="15.99374">
        <ele>16.675351</ele>
        <time>2020-07-16T05:02:09.802Z</time>
      </trkpt>
      <trkpt lat="69.29648" lon="15.99372">
        <ele>16.721532</ele>
        <time>2020-07-16T05:02:10.051Z</time>
      </trkpt>
      <trkpt lat="69.29745" lon="15.99354">
        <ele>18.91997</ele>
        <time>2020-07-16T05:02:31.978Z</time>
      </trkpt>
      <trkpt lat="69.29752" lon="15.99354">
        <ele>19.091731</ele>
        <time>2020-07-16T05:02:33.036Z</time>
      </trkpt>
      <trkpt lat="69.2976" lon="15.99356">
        <ele>19.27539</ele>
        <time>2020-07-16T05:02:34.139Z</time>
      </trkpt>
      <trkpt lat="69.29768" lon="15.99361">
        <ele>19.454892</ele>
        <time>2020-07-16T05:02:37.696Z</time>
      </trkpt>
      <trkpt lat="69.2978" lon="15.9937">
        <ele>19.729845</ele>
        <time>2020-07-16T05:02:43.516Z</time>
      </trkpt>
      <trkpt lat="69.29784" lon="15.99374">
        <ele>19.826354</ele>
        <time>2020-07-16T05:02:44.192Z</time>
      </trkpt>
      <trkpt lat="69.29797" lon="15.99387">
        <ele>20.131264</ele>
        <time>2020-07-16T05:02:46.200Z</time>
      </trkpt>
      <trkpt lat="69.29837" lon="15.99449">
        <ele>22.697422</ele>
        <time>2020-07-16T05:03:03.897Z</time>
      </trkpt>
      <trkpt lat="69.29871" lon="15.99551">
        <ele>26.17489</ele>
        <time>2020-07-16T05:03:23.570Z</time>
      </trkpt>
      <trkpt lat="69.29876" lon="15.99574">
        <ele>26.896041</ele>
        <time>2020-07-16T05:03:25.938Z</time>
      </trkpt>
      <trkpt lat="69.29887" lon="15.99622">
        <ele>28.300917</ele>
        <time>2020-07-16T05:03:37.231Z</time>
      </trkpt>
      <trkpt lat="69.29894" lon="15.99679">
        <ele>29.821794</ele>
        <time>2020-07-16T05:03:44.584Z</time>
      </trkpt>
      <trkpt lat="69.29894" lon="15.99718">
        <ele>30.817772</ele>
        <time>2020-07-16T05:03:52.730Z</time>
      </trkpt>
      <trkpt lat="69.29881" lon="15.99861">
        <ele>34.091179</ele>
        <time>2020-07-16T05:04:14.714Z</time>
      </trkpt>
      <trkpt lat="69.29847" lon="16.00053">
        <ele>37.694785</ele>
        <time>2020-07-16T05:04:49.513Z</time>
      </trkpt>
      <trkpt lat="69.29821" lon="16.00156">
        <ele>39.846329</ele>
        <time>2020-07-16T05:05:01.564Z</time>
      </trkpt>
      <trkpt lat="69.29781" lon="16.00237">
        <ele>41.4412</ele>
        <time>2020-07-16T05:05:10.841Z</time>
      </trkpt>
      <trkpt lat="69.29677" lon="16.00324">
        <ele>36.956052</ele>
        <time>2020-07-16T05:05:25.081Z</time>
      </trkpt>
      <trkpt lat="69.29637" lon="16.00374">
        <ele>35.154859</ele>
        <time>2020-07-16T05:05:30.099Z</time>
      </trkpt>
      <trkpt lat="69.29602" lon="16.00466">
        <ele>32.307171</ele>
        <time>2020-07-16T05:05:35.462Z</time>
      </trkpt>
      <trkpt lat="69.29584" lon="16.00561">
        <ele>29.534591</ele>
        <time>2020-07-16T05:05:39.758Z</time>
      </trkpt>
      <trkpt lat="69.29542" lon="16.00869">
        <ele>21.270345</ele>
        <time>2020-07-16T05:05:53.082Z</time>
      </trkpt>
      <trkpt lat="69.29533" lon="16.00928">
        <ele>20.874039</ele>
        <time>2020-07-16T05:05:55.736Z</time>
      </trkpt>
      <trkpt lat="69.2952" lon="16.01024">
        <ele>20.219524</ele>
        <time>2020-07-16T05:06:00.327Z</time>
      </trkpt>
      <trkpt lat="69.29513" lon="16.01069">
        <ele>19.915583</ele>
        <time>2020-07-16T05:06:02.689Z</time>
      </trkpt>
      <trkpt lat="69.29508" lon="16.01099">
        <ele>19.697124</ele>
        <time>2020-07-16T05:06:04.282Z</time>
      </trkpt>
      <trkpt lat="69.29498" lon="16.0115">
        <ele>19.335166</ele>
        <time>2020-07-16T05:06:07.587Z</time>
      </trkpt>
      <trkpt lat="69.29471" lon="16.01254">
        <ele>18.516596</ele>
        <time>2020-07-16T05:06:16.501Z</time>
      </trkpt>
      <trkpt lat="69.29345" lon="16.0163">
        <ele>22.146046</ele>
        <time>2020-07-16T05:07:07.632Z</time>
      </trkpt>
      <trkpt lat="69.29322" lon="16.01698">
        <ele>22.442204</ele>
        <time>2020-07-16T05:07:15.334Z</time>
      </trkpt>
      <trkpt lat="69.29311" lon="16.01741">
        <ele>22.215503</ele>
        <time>2020-07-16T05:07:18.821Z</time>
      </trkpt>
      <trkpt lat="69.29293" lon="16.01835">
        <ele>21.771985</ele>
        <time>2020-07-16T05:07:24.998Z</time>
      </trkpt>
      <trkpt lat="69.29281" lon="16.01944">
        <ele>21.293507</ele>
        <time>2020-07-16T05:07:31.026Z</time>
      </trkpt>
      <trkpt lat="69.29279" lon="16.01977">
        <ele>21.154128</ele>
        <time>2020-07-16T05:07:32.860Z</time>
      </trkpt>
      <trkpt lat="69.29277" lon="16.01999">
        <ele>21.061118</ele>
        <time>2020-07-16T05:07:33.899Z</time>
      </trkpt>
      <trkpt lat="69.29276" lon="16.02139">
        <ele>20.463952</ele>
        <time>2020-07-16T05:07:40.174Z</time>
      </trkpt>
      <trkpt lat="69.29278" lon="16.02192">
        <ele>19.932996</ele>
        <time>2020-07-16T05:07:42.721Z</time>
      </trkpt>
      <trkpt lat="69.29279" lon="16.02215">
        <ele>19.709501</ele>
        <time>2020-07-16T05:07:43.818Z</time>
      </trkpt>
      <trkpt lat="69.29281" lon="16.02234">
        <ele>19.51938</ele>
        <time>2020-07-16T05:07:44.609Z</time>
      </trkpt>
      <trkpt lat="69.29374" lon="16.02815">
        <ele>14.477467</ele>
        <time>2020-07-16T05:08:15.319Z</time>
      </trkpt>
      <trkpt lat="69.29408" lon="16.02946">
        <ele>13.767115</ele>
        <time>2020-07-16T05:08:24.868Z</time>
      </trkpt>
      <trkpt lat="69.29434" lon="16.03019">
        <ele>13.313675</ele>
        <time>2020-07-16T05:08:31.317Z</time>
      </trkpt>
      <trkpt lat="69.29442" lon="16.03036">
        <ele>13.225352</ele>
        <time>2020-07-16T05:08:33.595Z</time>
      </trkpt>
      <trkpt lat="69.29485" lon="16.03123">
        <ele>12.996967</ele>
        <time>2020-07-16T05:08:43.052Z</time>
      </trkpt>
      <trkpt lat="69.29571" lon="16.03298">
        <ele>12.533889</ele>
        <time>2020-07-16T05:09:00.827Z</time>
      </trkpt>
      <trkpt lat="69.29617" lon="16.03395">
        <ele>12.107192</ele>
        <time>2020-07-16T05:09:09.329Z</time>
      </trkpt>
      <trkpt lat="69.29638" lon="16.03447">
        <ele>11.869147</ele>
        <time>2020-07-16T05:09:13.332Z</time>
      </trkpt>
      <trkpt lat="69.29684" lon="16.03602">
        <ele>11.258846</ele>
        <time>2020-07-16T05:09:24.339Z</time>
      </trkpt>
      <trkpt lat="69.29712" lon="16.03764">
        <ele>11.196973</ele>
        <time>2020-07-16T05:09:35.212Z</time>
      </trkpt>
      <trkpt lat="69.29756" lon="16.04121">
        <ele>12.693529</ele>
        <time>2020-07-16T05:10:04.895Z</time>
      </trkpt>
      <trkpt lat="69.29775" lon="16.04288">
        <ele>13.445122</ele>
        <time>2020-07-16T05:10:20.069Z</time>
      </trkpt>
      <trkpt lat="69.29782" lon="16.04353">
        <ele>13.747879</ele>
        <time>2020-07-16T05:10:25.753Z</time>
      </trkpt>
      <trkpt lat="69.29783" lon="16.04373">
        <ele>13.837854</ele>
        <time>2020-07-16T05:10:27.670Z</time>
      </trkpt>
      <trkpt lat="69.29785" lon="16.04411">
        <ele>14.008906</ele>
        <time>2020-07-16T05:10:31.017Z</time>
      </trkpt>
      <trkpt lat="69.29785" lon="16.04592">
        <ele>14.81431</ele>
        <time>2020-07-16T05:10:45.431Z</time>
      </trkpt>
      <trkpt lat="69.2978" lon="16.04714">
        <ele>14.922321</ele>
        <time>2020-07-16T05:10:53.448Z</time>
      </trkpt>
      <trkpt lat="69.29774" lon="16.04872">
        <ele>13.680457</ele>
        <time>2020-07-16T05:11:01.691Z</time>
      </trkpt>
      <trkpt lat="69.29772" lon="16.04965">
        <ele>12.952048</ele>
        <time>2020-07-16T05:11:06.311Z</time>
      </trkpt>
      <trkpt lat="69.29773" lon="16.04991">
        <ele>12.75135</ele>
        <time>2020-07-16T05:11:07.509Z</time>
      </trkpt>
      <trkpt lat="69.29775" lon="16.0499">
        <ele>12.69572</ele>
        <time>2020-07-16T05:11:07.778Z</time>
      </trkpt>
      <trkpt lat="69.29802" lon="16.04987">
        <ele>12.1069</ele>
        <time>2020-07-16T05:11:11.359Z</time>
      </trkpt>
      <trkpt lat="69.2982" lon="16.0499">
        <ele>11.712432</ele>
        <time>2020-07-16T05:11:13.604Z</time>
      </trkpt>
      <trkpt lat="69.29826" lon="16.04992">
        <ele>11.574543</ele>
        <time>2020-07-16T05:11:14.467Z</time>
      </trkpt>
      <trkpt lat="69.29831" lon="16.04994">
        <ele>11.460097</ele>
        <time>2020-07-16T05:11:15.191Z</time>
      </trkpt>
      <trkpt lat="69.29838" lon="16.04998">
        <ele>11.300745</ele>
        <time>2020-07-16T05:11:16.068Z</time>
      </trkpt>
      <trkpt lat="69.29874" lon="16.0503">
        <ele>10.152596</ele>
        <time>2020-07-16T05:11:20.832Z</time>
      </trkpt>
      <trkpt lat="69.29906" lon="16.05078">
        <ele>9.007615</ele>
        <time>2020-07-16T05:11:25.414Z</time>
      </trkpt>
      <trkpt lat="69.2992" lon="16.05108">
        <ele>8.464611</ele>
        <time>2020-07-16T05:11:27.544Z</time>
      </trkpt>
      <trkpt lat="69.29935" lon="16.05141">
        <ele>7.888949</ele>
        <time>2020-07-16T05:11:29.912Z</time>
      </trkpt>
      <trkpt lat="69.29957" lon="16.05196">
        <ele>6.962924</ele>
        <time>2020-07-16T05:11:33.790Z</time>
      </trkpt>
      <trkpt lat="69.29992" lon="16.05287">
        <ele>5.56659</ele>
        <time>2020-07-16T05:11:40.639Z</time>
      </trkpt>
      <trkpt lat="69.30019" lon="16.05367">
        <ele>5.293404</ele>
        <time>2020-07-16T05:11:46.660Z</time>
      </trkpt>
      <trkpt lat="69.3004" lon="16.05436">
        <ele>5.073195</ele>
        <time>2020-07-16T05:11:51.836Z</time>
      </trkpt>
      <trkpt lat="69.30049" lon="16.05463">
        <ele>4.985709</ele>
        <time>2020-07-16T05:11:54.053Z</time>
      </trkpt>
      <trkpt lat="69.30056" lon="16.05488">
        <ele>4.907858</ele>
        <time>2020-07-16T05:11:56.088Z</time>
      </trkpt>
      <trkpt lat="69.30056" lon="16.05503">
        <ele>4.871377</ele>
        <time>2020-07-16T05:11:57.074Z</time>
      </trkpt>
      <trkpt lat="69.30057" lon="16.05517">
        <ele>4.835454</ele>
        <time>2020-07-16T05:11:57.947Z</time>
      </trkpt>
      <trkpt lat="69.30075" lon="16.0559">
        <ele>4.618425</ele>
        <time>2020-07-16T05:12:03.439Z</time>
      </trkpt>
      <trkpt lat="69.30084" lon="16.05628">
        <ele>4.506565</ele>
        <time>2020-07-16T05:12:06.069Z</time>
      </trkpt>
      <trkpt lat="69.301" lon="16.05709">
        <ele>4.293077</ele>
        <time>2020-07-16T05:12:11.678Z</time>
      </trkpt>
      <trkpt lat="69.30123" lon="16.05839">
        <ele>4.000833</ele>
        <time>2020-07-16T05:12:20.304Z</time>
      </trkpt>
      <trkpt lat="69.30136" lon="16.0591">
        <ele>3.839163</ele>
        <time>2020-07-16T05:12:24.974Z</time>
      </trkpt>
      <trkpt lat="69.30146" lon="16.05951">
        <ele>3.739197</ele>
        <time>2020-07-16T05:12:27.871Z</time>
      </trkpt>
      <trkpt lat="69.30156" lon="16.05983">
        <ele>3.652915</ele>
        <time>2020-07-16T05:12:30.229Z</time>
      </trkpt>
      <trkpt lat="69.30245" lon="16.06213">
        <ele>3.159049</ele>
        <time>2020-07-16T05:12:49.350Z</time>
      </trkpt>
      <trkpt lat="69.30282" lon="16.06327">
        <ele>3.014954</ele>
        <time>2020-07-16T05:12:58.358Z</time>
      </trkpt>
      <trkpt lat="69.30314" lon="16.06469">
        <ele>2.857777</ele>
        <time>2020-07-16T05:13:09.367Z</time>
      </trkpt>
      <trkpt lat="69.30341" lon="16.06649">
        <ele>3.728057</ele>
        <time>2020-07-16T05:13:23.620Z</time>
      </trkpt>
      <trkpt lat="69.30347" lon="16.06709">
        <ele>4.016837</ele>
        <time>2020-07-16T05:13:28.435Z</time>
      </trkpt>
      <trkpt lat="69.30351" lon="16.06752">
        <ele>4.223258</ele>
        <time>2020-07-16T05:13:31.906Z</time>
      </trkpt>
      <trkpt lat="69.30371" lon="16.06992">
        <ele>5.49771</ele>
        <time>2020-07-16T05:13:52.583Z</time>
      </trkpt>
      <trkpt lat="69.30388" lon="16.07185">
        <ele>7.226407</ele>
        <time>2020-07-16T05:14:10.848Z</time>
      </trkpt>
      <trkpt lat="69.30391" lon="16.07272">
        <ele>7.979481</ele>
        <time>2020-07-16T05:14:18.671Z</time>
      </trkpt>
      <trkpt lat="69.30391" lon="16.07288">
        <ele>8.120682</ele>
        <time>2020-07-16T05:14:20.445Z</time>
      </trkpt>
      <trkpt lat="69.30394" lon="16.07331">
        <ele>8.507193</ele>
        <time>2020-07-16T05:14:24.524Z</time>
      </trkpt>
      <trkpt lat="69.30402" lon="16.07406">
        <ele>9.186307</ele>
        <time>2020-07-16T05:14:31.890Z</time>
      </trkpt>
      <trkpt lat="69.30408" lon="16.0746">
        <ele>9.675375</ele>
        <time>2020-07-16T05:14:36.794Z</time>
      </trkpt>
      <trkpt lat="69.30411" lon="16.07498">
        <ele>10.061183</ele>
        <time>2020-07-16T05:14:40.794Z</time>
      </trkpt>
      <trkpt lat="69.30434" lon="16.07575">
        <ele>11.070276</ele>
        <time>2020-07-16T05:14:50.523Z</time>
      </trkpt>
      <trkpt lat="69.30461" lon="16.07648">
        <ele>12.122294</ele>
        <time>2020-07-16T05:15:01.169Z</time>
      </trkpt>
      <trkpt lat="69.30512" lon="16.07739">
        <ele>13.815307</ele>
        <time>2020-07-16T05:15:17.482Z</time>
      </trkpt>
      <trkpt lat="69.30529" lon="16.07789">
        <ele>14.49182</ele>
        <time>2020-07-16T05:15:24.104Z</time>
      </trkpt>
      <trkpt lat="69.30533" lon="16.078">
        <ele>14.655494</ele>
        <time>2020-07-16T05:15:25.479Z</time>
      </trkpt>
      <trkpt lat="69.30536" lon="16.07806">
        <ele>14.697716</ele>
        <time>2020-07-16T05:15:26.332Z</time>
      </trkpt>
      <trkpt lat="69.30548" lon="16.07816">
        <ele>14.832723</ele>
        <time>2020-07-16T05:15:29.428Z</time>
      </trkpt>
      <trkpt lat="69.30557" lon="16.07826">
        <ele>14.943</ele>
        <time>2020-07-16T05:15:32.316Z</time>
      </trkpt>
      <trkpt lat="69.30617" lon="16.07959">
        <ele>15.766104</ele>
        <time>2020-07-16T05:15:50.316Z</time>
      </trkpt>
      <trkpt lat="69.30697" lon="16.08172">
        <ele>15.958364</ele>
        <time>2020-07-16T05:16:10.223Z</time>
      </trkpt>
      <trkpt lat="69.30953" lon="16.08963">
        <ele>7.339876</ele>
        <time>2020-07-16T05:17:01.419Z</time>
      </trkpt>
      <trkpt lat="69.30963" lon="16.09">
        <ele>7.075609</ele>
        <time>2020-07-16T05:17:03.560Z</time>
      </trkpt>
      <trkpt lat="69.30966" lon="16.09013">
        <ele>6.980637</ele>
        <time>2020-07-16T05:17:04.374Z</time>
      </trkpt>
      <trkpt lat="69.30974" lon="16.09053">
        <ele>6.720045</ele>
        <time>2020-07-16T05:17:06.734Z</time>
      </trkpt>
      <trkpt lat="69.30978" lon="16.09079">
        <ele>6.557646</ele>
        <time>2020-07-16T05:17:08.074Z</time>
      </trkpt>
      <trkpt lat="69.30981" lon="16.09102">
        <ele>6.410586</ele>
        <time>2020-07-16T05:17:09.332Z</time>
      </trkpt>
      <trkpt lat="69.31083" lon="16.09846">
        <ele>4.525635</ele>
        <time>2020-07-16T05:17:56.440Z</time>
      </trkpt>
      <trkpt lat="69.31098" lon="16.10032">
        <ele>4.456246</ele>
        <time>2020-07-16T05:18:08.615Z</time>
      </trkpt>
      <trkpt lat="69.31101" lon="16.10136">
        <ele>4.418232</ele>
        <time>2020-07-16T05:18:15.198Z</time>
      </trkpt>
      <trkpt lat="69.31105" lon="16.10294">
        <ele>4.364191</ele>
        <time>2020-07-16T05:18:25.034Z</time>
      </trkpt>
      <trkpt lat="69.31114" lon="16.10643">
        <ele>4.276772</ele>
        <time>2020-07-16T05:18:46.507Z</time>
      </trkpt>
      <trkpt lat="69.31115" lon="16.1068">
        <ele>4.267493</ele>
        <time>2020-07-16T05:18:48.770Z</time>
      </trkpt>
      <trkpt lat="69.31131" lon="16.11013">
        <ele>4.590112</ele>
        <time>2020-07-16T05:19:10.579Z</time>
      </trkpt>
      <trkpt lat="69.31131" lon="16.11029">
        <ele>4.612895</ele>
        <time>2020-07-16T05:19:11.685Z</time>
      </trkpt>
      <trkpt lat="69.31131" lon="16.11052">
        <ele>4.64492</ele>
        <time>2020-07-16T05:19:13.196Z</time>
      </trkpt>
      <trkpt lat="69.31131" lon="16.11077">
        <ele>4.680075</ele>
        <time>2020-07-16T05:19:14.852Z</time>
      </trkpt>
      <trkpt lat="69.31132" lon="16.11105">
        <ele>4.719684</ele>
        <time>2020-07-16T05:19:16.726Z</time>
      </trkpt>
      <trkpt lat="69.31134" lon="16.11121">
        <ele>4.743337</ele>
        <time>2020-07-16T05:19:18.019Z</time>
      </trkpt>
      <trkpt lat="69.31158" lon="16.11299">
        <ele>5.065044</ele>
        <time>2020-07-16T05:19:32.072Z</time>
      </trkpt>
      <trkpt lat="69.31188" lon="16.11625">
        <ele>6.023128</ele>
        <time>2020-07-16T05:19:58.140Z</time>
      </trkpt>
      <trkpt lat="69.31192" lon="16.1167">
        <ele>6.155118</ele>
        <time>2020-07-16T05:20:01.733Z</time>
      </trkpt>
      <trkpt lat="69.312" lon="16.11663">
        <ele>6.216748</ele>
        <time>2020-07-16T05:20:07.081Z</time>
      </trkpt>
      <trkpt lat="69.31202" lon="16.11683">
        <ele>6.275042</ele>
        <time>2020-07-16T05:20:08.635Z</time>
      </trkpt>
      <trkpt lat="69.31219" lon="16.11775">
        <ele>6.376088</ele>
        <time>2020-07-16T05:20:16.039Z</time>
      </trkpt>
      <trkpt lat="69.31223" lon="16.11787">
        <ele>6.365643</ele>
        <time>2020-07-16T05:20:17.213Z</time>
      </trkpt>
      <trkpt lat="69.31229" lon="16.11805">
        <ele>6.347596</ele>
        <time>2020-07-16T05:20:19.040Z</time>
      </trkpt>
      <trkpt lat="69.31233" lon="16.11817">
        <ele>6.335281</ele>
        <time>2020-07-16T05:20:20.266Z</time>
      </trkpt>
      <trkpt lat="69.31235" lon="16.1182">
        <ele>6.331825</ele>
        <time>2020-07-16T05:20:20.566Z</time>
      </trkpt>
      <trkpt lat="69.3124" lon="16.11831">
        <ele>6.319061</ele>
        <time>2020-07-16T05:20:21.613Z</time>
      </trkpt>
      <trkpt lat="69.31268" lon="16.11866">
        <ele>6.258283</ele>
        <time>2020-07-16T05:20:27.563Z</time>
      </trkpt>
      <trkpt lat="69.31274" lon="16.1187">
        <ele>6.245616</ele>
        <time>2020-07-16T05:20:28.596Z</time>
      </trkpt>
      <trkpt lat="69.31273" lon="16.11887">
        <ele>6.234036</ele>
        <time>2020-07-16T05:20:29.730Z</time>
      </trkpt>
      <trkpt lat="69.31438" lon="16.11954">
        <ele>5.449257</ele>
        <time>2020-07-16T05:20:57.572Z</time>
      </trkpt>
      <trkpt lat="69.31471" lon="16.11968">
        <ele>5.183075</ele>
        <time>2020-07-16T05:21:03.094Z</time>
      </trkpt>
      <trkpt lat="69.31512" lon="16.11984">
        <ele>4.858867</ele>
        <time>2020-07-16T05:21:09.888Z</time>
      </trkpt>
      <trkpt lat="69.31613" lon="16.12025">
        <ele>4.249595</ele>
        <time>2020-07-16T05:21:26.970Z</time>
      </trkpt>
      <trkpt lat="69.31745" lon="16.1208">
        <ele>3.581675</ele>
        <time>2020-07-16T05:21:50.268Z</time>
      </trkpt>
      <trkpt lat="69.31751" lon="16.12083">
        <ele>3.556817</ele>
        <time>2020-07-16T05:21:51.378Z</time>
      </trkpt>
      <trkpt lat="69.31832" lon="16.12155">
        <ele>3.222825</ele>
        <time>2020-07-16T05:22:06.375Z</time>
      </trkpt>
      <trkpt lat="69.31889" lon="16.12214">
        <ele>2.981579</ele>
        <time>2020-07-16T05:22:16.991Z</time>
      </trkpt>
      <trkpt lat="69.31942" lon="16.1227">
        <ele>2.606598</ele>
        <time>2020-07-16T05:22:26.730Z</time>
      </trkpt>
      <trkpt lat="69.32" lon="16.12333">
        <ele>2.19312</ele>
        <time>2020-07-16T05:22:37.138Z</time>
      </trkpt>
      <trkpt lat="69.3206" lon="16.12396">
        <ele>1.765718</ele>
        <time>2020-07-16T05:22:47.794Z</time>
      </trkpt>
      <trkpt lat="69.32057" lon="16.12426">
        <ele>1.686603</ele>
        <time>2020-07-16T05:22:49.634Z</time>
      </trkpt>
      <trkpt lat="69.32048" lon="16.12497">
        <ele>1.497176</ele>
        <time>2020-07-16T05:22:53.989Z</time>
      </trkpt>
      <trkpt lat="69.32039" lon="16.12616">
        <ele>1.190682</ele>
        <time>2020-07-16T05:23:01.090Z</time>
      </trkpt>
      <trkpt lat="69.32033" lon="16.12692">
        <ele>0.993793</ele>
        <time>2020-07-16T05:23:05.718Z</time>
      </trkpt>
      <trkpt lat="69.32032" lon="16.12725">
        <ele>0.911348</ele>
        <time>2020-07-16T05:23:07.682Z</time>
      </trkpt>
      <trkpt lat="69.32033" lon="16.12746">
        <ele>0.858458</ele>
        <time>2020-07-16T05:23:08.918Z</time>
      </trkpt>
      <trkpt lat="69.32035" lon="16.12767">
        <ele>0.803027</ele>
        <time>2020-07-16T05:23:10.199Z</time>
      </trkpt>
      <trkpt lat="69.32047" lon="16.12814">
        <ele>0.658352</ele>
        <time>2020-07-16T05:23:13.690Z</time>
      </trkpt>
      <trkpt lat="69.32064" lon="16.1284">
        <ele>0.522518</ele>
        <time>2020-07-16T05:23:16.901Z</time>
      </trkpt>
      <trkpt lat="69.32097" lon="16.12862">
        <ele>0.416884</ele>
        <time>2020-07-16T05:23:22.825Z</time>
      </trkpt>
      <trkpt lat="69.32127" lon="16.12878">
        <ele>0.333787</ele>
        <time>2020-07-16T05:23:28.181Z</time>
      </trkpt>
      <trkpt lat="69.32137" lon="16.12885">
        <ele>0.306893</ele>
        <time>2020-07-16T05:23:29.908Z</time>
      </trkpt>
      <trkpt lat="69.32147" lon="16.12896">
        <ele>0.2756</ele>
        <time>2020-07-16T05:23:31.996Z</time>
      </trkpt>
      <trkpt lat="69.3216" lon="16.12915">
        <ele>0.237764</ele>
        <time>2020-07-16T05:23:34.418Z</time>
      </trkpt>
      <trkpt lat="69.32168" lon="16.1293">
        <ele>0.211177</ele>
        <time>2020-07-16T05:23:36.150Z</time>
      </trkpt>
      <trkpt lat="69.32174" lon="16.12945">
        <ele>0.189289</ele>
        <time>2020-07-16T05:23:37.605Z</time>
      </trkpt>
      <trkpt lat="69.32175" lon="16.12949">
        <ele>0.183776</ele>
        <time>2020-07-16T05:23:37.979Z</time>
      </trkpt>
      <trkpt lat="69.32182" lon="16.12968">
        <ele>0.157973</ele>
        <time>2020-07-16T05:23:39.710Z</time>
      </trkpt>
      <trkpt lat="69.32189" lon="16.12998">
        <ele>0.12234</ele>
        <time>2020-07-16T05:23:42.090Z</time>
      </trkpt>
      <trkpt lat="69.32234" lon="16.13207">
        <ele>0.008732</ele>
        <time>2020-07-16T05:23:58.030Z</time>
      </trkpt>
      <trkpt lat="69.32252" lon="16.13266">
        <ele>0.006952</ele>
        <time>2020-07-16T05:24:03.120Z</time>
      </trkpt>
      <trkpt lat="69.32289" lon="16.13286">
        <ele>0.004461</ele>
        <time>2020-07-16T05:24:10.233Z</time>
      </trkpt>
      <trkpt lat="69.32296" lon="16.13282">
        <ele>0.003989</ele>
        <time>2020-07-16T05:24:11.586Z</time>
      </trkpt>
      <trkpt lat="69.32303" lon="16.13278">
        <ele>0.003525</ele>
        <time>2020-07-16T05:24:12.903Z</time>
      </trkpt>
      <trkpt lat="69.32314" lon="16.13275">
        <ele>0.002807</ele>
        <time>2020-07-16T05:24:14.966Z</time>
      </trkpt>
      <trkpt lat="69.32411" lon="16.13267">
        <ele>1.6</ele>
        <time>2020-07-16T05:24:32.869Z</time>
      </trkpt>
      <trkpt lat="69.32429" lon="16.13265">
        <ele>2</ele>
        <time>2020-07-16T05:24:36.283Z</time>
      </trkpt>
      <trkpt lat="69.32439" lon="16.13261">
        <ele>2.2</ele>
        <time>2020-07-16T05:24:38.198Z</time>
      </trkpt>
      <trkpt lat="69.32446" lon="16.13256">
        <ele>2.2</ele>
        <time>2020-07-16T05:24:39.477Z</time>
      </trkpt>
      <trkpt lat="69.32452" lon="16.13248">
        <ele>2</ele>
        <time>2020-07-16T05:24:40.810Z</time>
      </trkpt>
      <trkpt lat="69.32494" lon="16.13189">
        <ele>2.8</ele>
        <time>2020-07-16T05:24:49.494Z</time>
      </trkpt>
      <trkpt lat="69.32559" lon="16.13145">
        <ele>3</ele>
        <time>2020-07-16T05:25:01.850Z</time>
      </trkpt>
      <trkpt lat="69.3257" lon="16.1314">
        <ele>3</ele>
        <time>2020-07-16T05:25:03.886Z</time>
      </trkpt>
      <trkpt lat="69.32575" lon="16.13137">
        <ele>3</ele>
        <time>2020-07-16T05:25:04.973Z</time>
      </trkpt>
      <trkpt lat="69.32589" lon="16.13149">
        <ele>2.9</ele>
        <time>2020-07-16T05:25:07.654Z</time>
      </trkpt>
      <trkpt lat="69.32665" lon="16.13246">
        <ele>2.9</ele>
        <time>2020-07-16T05:25:23.124Z</time>
      </trkpt>
      <trkpt lat="69.32681" lon="16.13269">
        <ele>2.5</ele>
        <time>2020-07-16T05:25:26.446Z</time>
      </trkpt>
      <trkpt lat="69.32682" lon="16.13286">
        <ele>2.2</ele>
        <time>2020-07-16T05:25:27.632Z</time>
      </trkpt>
      <trkpt lat="69.32682" lon="16.13389">
        <ele>1</ele>
        <time>2020-07-16T05:25:34.378Z</time>
      </trkpt>
      <trkpt lat="69.32689" lon="16.1397">
        <time>2020-07-16T05:26:03.000Z</time>
      </trkpt>
      <trkpt lat="69.32678" lon="16.14331">
        <time>2020-07-16T05:26:20.860Z</time>
      </trkpt>
      <trkpt lat="69.32614" lon="16.14665">
        <time>2020-07-16T05:26:39.541Z</time>
      </trkpt>
      <trkpt lat="69.32465" lon="16.153">
        <time>2020-07-16T05:27:17.124Z</time>
      </trkpt>
      <trkpt lat="69.32333" lon="16.15812">
        <time>2020-07-16T05:27:48.339Z</time>
      </trkpt>
      <trkpt lat="69.32297" lon="16.16222">
        <time>2020-07-16T05:28:09.161Z</time>
      </trkpt>
      <trkpt lat="69.32353" lon="16.16967">
        <time>2020-07-16T05:28:46.711Z</time>
      </trkpt>
      <trkpt lat="69.32393" lon="16.17983">
        <time>2020-07-16T05:29:37.057Z</time>
      </trkpt>
      <trkpt lat="69.32658" lon="16.22678">
        <time>2020-07-16T05:33:31.315Z</time>
      </trkpt>
      <trkpt lat="69.3286" lon="16.30341">
        <time>2020-07-16T05:39:49.925Z</time>
      </trkpt>
      <trkpt lat="69.34383" lon="16.7064">
        <time>2020-07-16T06:13:05.873Z</time>
      </trkpt>
      <trkpt lat="69.35073" lon="16.83546">
        <time>2020-07-16T06:23:48.400Z</time>
      </trkpt>
      <trkpt lat="69.35515" lon="16.95828">
        <time>2020-07-16T06:33:55.964Z</time>
      </trkpt>
      <trkpt lat="69.35645" lon="16.97844">
        <time>2020-07-16T06:35:36.777Z</time>
      </trkpt>
      <trkpt lat="69.35727" lon="16.98997">
        <time>2020-07-16T06:36:34.644Z</time>
      </trkpt>
      <trkpt lat="69.35938" lon="17.0049">
        <time>2020-07-16T06:37:53.786Z</time>
      </trkpt>
      <trkpt lat="69.36244" lon="17.01619">
        <time>2020-07-16T06:39:03.824Z</time>
      </trkpt>
      <trkpt lat="69.36575" lon="17.03208">
        <time>2020-07-16T06:40:34.589Z</time>
      </trkpt>
      <trkpt lat="69.36592" lon="17.03347">
        <time>2020-07-16T06:40:41.805Z</time>
      </trkpt>
      <trkpt lat="69.36579" lon="17.05011">
        <time>2020-07-16T06:42:03.675Z</time>
      </trkpt>
      <trkpt lat="69.36568" lon="17.05207">
        <time>2020-07-16T06:42:13.428Z</time>
      </trkpt>
      <trkpt lat="69.36532" lon="17.05379">
        <time>2020-07-16T06:42:23.307Z</time>
      </trkpt>
      <trkpt lat="69.36372" lon="17.05417">
        <ele>0.179447</ele>
        <time>2020-07-16T06:42:45.672Z</time>
      </trkpt>
      <trkpt lat="69.36347" lon="17.0529">
        <ele>0.259365</ele>
        <time>2020-07-16T06:42:52.839Z</time>
      </trkpt>
      <trkpt lat="69.36339" lon="17.05247">
        <ele>0.291571</ele>
        <time>2020-07-16T06:42:56.311Z</time>
      </trkpt>
      <trkpt lat="69.36337" lon="17.05239">
        <ele>0.301634</ele>
        <time>2020-07-16T06:42:57.021Z</time>
      </trkpt>
      <trkpt lat="69.36333" lon="17.05228">
        <ele>0.31899</ele>
        <time>2020-07-16T06:42:58.064Z</time>
      </trkpt>
      <trkpt lat="69.36328" lon="17.05221">
        <ele>0.334731</ele>
        <time>2020-07-16T06:42:59.017Z</time>
      </trkpt>
      <trkpt lat="69.36319" lon="17.05213">
        <ele>0.363118</ele>
        <time>2020-07-16T06:43:00.823Z</time>
      </trkpt>
      <trkpt lat="69.36304" lon="17.05202">
        <ele>0.407931</ele>
        <time>2020-07-16T06:43:03.881Z</time>
      </trkpt>
      <trkpt lat="69.36299" lon="17.05254">
        <ele>0.464028</ele>
        <time>2020-07-16T06:43:07.324Z</time>
      </trkpt>
      <trkpt lat="69.36291" lon="17.05336">
        <ele>0.552702</ele>
        <time>2020-07-16T06:43:12.906Z</time>
      </trkpt>
      <trkpt lat="69.36276" lon="17.05329">
        <ele>0.599169</ele>
        <time>2020-07-16T06:43:15.953Z</time>
      </trkpt>
      <trkpt lat="69.3627" lon="17.0533">
        <ele>0.616669</ele>
        <time>2020-07-16T06:43:17.297Z</time>
      </trkpt>
      <trkpt lat="69.36266" lon="17.05353">
        <ele>0.642283</ele>
        <time>2020-07-16T06:43:18.809Z</time>
      </trkpt>
      <trkpt lat="69.36255" lon="17.05413">
        <ele>0.712923</ele>
        <time>2020-07-16T06:43:23.138Z</time>
      </trkpt>
      <trkpt lat="69.36247" lon="17.05462">
        <ele>0.76913</ele>
        <time>2020-07-16T06:43:26.669Z</time>
      </trkpt>
      <trkpt lat="69.36242" lon="17.05496">
        <ele>0.808908</ele>
        <time>2020-07-16T06:43:29.119Z</time>
      </trkpt>
      <trkpt lat="69.36222" lon="17.05627">
        <ele>0.782413</ele>
        <time>2020-07-16T06:43:38.674Z</time>
      </trkpt>
      <trkpt lat="69.3622" lon="17.05644">
        <ele>0.7786</ele>
        <time>2020-07-16T06:43:39.693Z</time>
      </trkpt>
      <trkpt lat="69.36218" lon="17.05665">
        <ele>0.774061</ele>
        <time>2020-07-16T06:43:41.023Z</time>
      </trkpt>
      <trkpt lat="69.36212" lon="17.05733">
        <ele>0.758988</ele>
        <time>2020-07-16T06:43:45.767Z</time>
      </trkpt>
      <trkpt lat="69.36205" lon="17.05794">
        <ele>0.745469</ele>
        <time>2020-07-16T06:43:49.441Z</time>
      </trkpt>
      <trkpt lat="69.36203" lon="17.05822">
        <ele>0.739237</ele>
        <time>2020-07-16T06:43:51.349Z</time>
      </trkpt>
      <trkpt lat="69.36199" lon="17.05861">
        <ele>0.730642</ele>
        <time>2020-07-16T06:43:53.642Z</time>
      </trkpt>
      <trkpt lat="69.36196" lon="17.06331">
        <ele>0.471546</ele>
        <time>2020-07-16T06:44:22.148Z</time>
      </trkpt>
      <trkpt lat="69.36197" lon="17.06348">
        <ele>0.459701</ele>
        <time>2020-07-16T06:44:23.144Z</time>
      </trkpt>
      <trkpt lat="69.36181" lon="17.06474">
        <ele>0.368947</ele>
        <time>2020-07-16T06:44:31.357Z</time>
      </trkpt>
      <trkpt lat="69.36167" lon="17.06595">
        <ele>0.409895</ele>
        <time>2020-07-16T06:44:39.365Z</time>
      </trkpt>
      <trkpt lat="69.36155" lon="17.06699">
        <ele>0.461639</ele>
        <time>2020-07-16T06:44:46.350Z</time>
      </trkpt>
      <trkpt lat="69.36149" lon="17.06752">
        <ele>0.487885</ele>
        <time>2020-07-16T06:44:49.937Z</time>
      </trkpt>
      <trkpt lat="69.36142" lon="17.06795">
        <ele>0.510778</ele>
        <time>2020-07-16T06:44:53.031Z</time>
      </trkpt>
      <trkpt lat="69.36135" lon="17.0683">
        <ele>0.529237</ele>
        <time>2020-07-16T06:44:55.653Z</time>
      </trkpt>
      <trkpt lat="69.36125" lon="17.06897">
        <ele>0.564231</ele>
        <time>2020-07-16T06:45:00.434Z</time>
      </trkpt>
      <trkpt lat="69.36117" lon="17.0695">
        <ele>0.591037</ele>
        <time>2020-07-16T06:45:04.187Z</time>
      </trkpt>
      <trkpt lat="69.3611" lon="17.07001">
        <ele>0.644118</ele>
        <time>2020-07-16T06:45:07.877Z</time>
      </trkpt>
      <trkpt lat="69.36096" lon="17.07156">
        <ele>0.830304</ele>
        <time>2020-07-16T06:45:18.516Z</time>
      </trkpt>
      <trkpt lat="69.36077" lon="17.07567">
        <ele>1.729889</ele>
        <time>2020-07-16T06:45:46.231Z</time>
      </trkpt>
      <trkpt lat="69.36062" lon="17.07673">
        <ele>2.33318</ele>
        <time>2020-07-16T06:45:54.015Z</time>
      </trkpt>
      <trkpt lat="69.36034" lon="17.07795">
        <ele>3.095042</ele>
        <time>2020-07-16T06:46:05.682Z</time>
      </trkpt>
      <trkpt lat="69.35982" lon="17.08001">
        <ele>5.924811</ele>
        <time>2020-07-16T06:46:29.119Z</time>
      </trkpt>
      <trkpt lat="69.35943" lon="17.08151">
        <ele>9.54094</ele>
        <time>2020-07-16T06:46:51.309Z</time>
      </trkpt>
      <trkpt lat="69.35901" lon="17.08314">
        <ele>13.452144</ele>
        <time>2020-07-16T06:47:20.558Z</time>
      </trkpt>
      <trkpt lat="69.35882" lon="17.08388">
        <ele>15.407564</ele>
        <time>2020-07-16T06:47:35.841Z</time>
      </trkpt>
      <trkpt lat="69.3586" lon="17.08473">
        <ele>17.66232</ele>
        <time>2020-07-16T06:47:51.290Z</time>
      </trkpt>
      <trkpt lat="69.35823" lon="17.08615">
        <ele>21.461386</ele>
        <time>2020-07-16T06:48:14.975Z</time>
      </trkpt>
      <trkpt lat="69.35802" lon="17.08697">
        <ele>23.661645</ele>
        <time>2020-07-16T06:48:27.592Z</time>
      </trkpt>
      <trkpt lat="69.35788" lon="17.08756">
        <ele>24.882179</ele>
        <time>2020-07-16T06:48:34.955Z</time>
      </trkpt>
      <trkpt lat="69.35757" lon="17.08986">
        <ele>26.217363</ele>
        <time>2020-07-16T06:48:57.540Z</time>
      </trkpt>
      <trkpt lat="69.35735" lon="17.0917">
        <ele>27.266219</ele>
        <time>2020-07-16T06:49:09.119Z</time>
      </trkpt>
      <trkpt lat="69.35688" lon="17.09567">
        <ele>27.007327</ele>
        <time>2020-07-16T06:49:35.597Z</time>
      </trkpt>
      <trkpt lat="69.35682" lon="17.09634">
        <ele>26.907411</ele>
        <time>2020-07-16T06:49:39.406Z</time>
      </trkpt>
      <trkpt lat="69.3568" lon="17.09691">
        <ele>26.824152</ele>
        <time>2020-07-16T06:49:42.430Z</time>
      </trkpt>
      <trkpt lat="69.35679" lon="17.09765">
        <ele>26.326298</ele>
        <time>2020-07-16T06:49:46.588Z</time>
      </trkpt>
      <trkpt lat="69.35678" lon="17.098">
        <ele>26.049224</ele>
        <time>2020-07-16T06:49:48.195Z</time>
      </trkpt>
      <trkpt lat="69.35662" lon="17.10019">
        <ele>24.230263</ele>
        <time>2020-07-16T06:49:59.297Z</time>
      </trkpt>
      <trkpt lat="69.35667" lon="17.10391">
        <ele>20.84967</ele>
        <time>2020-07-16T06:50:16.523Z</time>
      </trkpt>
      <trkpt lat="69.35647" lon="17.10777">
        <ele>17.196187</ele>
        <time>2020-07-16T06:50:34.837Z</time>
      </trkpt>
      <trkpt lat="69.35631" lon="17.11019">
        <ele>15.957696</ele>
        <time>2020-07-16T06:50:47.703Z</time>
      </trkpt>
      <trkpt lat="69.35597" lon="17.11527">
        <ele>12.962005</ele>
        <time>2020-07-16T06:51:17.179Z</time>
      </trkpt>
      <trkpt lat="69.3555" lon="17.12224">
        <ele>5.410082</ele>
        <time>2020-07-16T06:51:49.392Z</time>
      </trkpt>
      <trkpt lat="69.35544" lon="17.12319">
        <ele>4.669055</ele>
        <time>2020-07-16T06:51:53.678Z</time>
      </trkpt>
      <trkpt lat="69.35624" lon="17.12396">
        <ele>2.828715</ele>
        <time>2020-07-16T06:52:04.850Z</time>
      </trkpt>
      <trkpt lat="69.35704" lon="17.12471">
        <ele>2.799111</ele>
        <time>2020-07-16T06:52:17.688Z</time>
      </trkpt>
      <trkpt lat="69.3581" lon="17.1257">
        <ele>9.08838</ele>
        <time>2020-07-16T06:52:49.718Z</time>
      </trkpt>
      <trkpt lat="69.35893" lon="17.12647">
        <ele>22.60967</ele>
        <time>2020-07-16T06:53:43.324Z</time>
      </trkpt>
      <trkpt lat="69.35925" lon="17.12674">
        <ele>31.069572</ele>
        <time>2020-07-16T06:54:13.070Z</time>
      </trkpt>
      <trkpt lat="69.35943" lon="17.12689">
        <ele>35.886787</ele>
        <time>2020-07-16T06:54:30.243Z</time>
      </trkpt>
      <trkpt lat="69.35995" lon="17.12728">
        <ele>49.777674</ele>
        <time>2020-07-16T06:55:20.090Z</time>
      </trkpt>
      <trkpt lat="69.36109" lon="17.12857">
        <ele>86.201533</ele>
        <time>2020-07-16T06:57:17.110Z</time>
      </trkpt>
      <trkpt lat="69.36233" lon="17.12944">
        <ele>113.427299</ele>
        <time>2020-07-16T06:59:15.427Z</time>
      </trkpt>
      <trkpt lat="69.36757" lon="17.13131">
        <ele>97.714899</ele>
        <time>2020-07-16T07:00:23.293Z</time>
      </trkpt>
      <trkpt lat="69.36798" lon="17.13134">
        <ele>92.105889</ele>
        <time>2020-07-16T07:00:27.656Z</time>
      </trkpt>
      <trkpt lat="69.36827" lon="17.1313">
        <ele>87.971629</ele>
        <time>2020-07-16T07:00:30.869Z</time>
      </trkpt>
      <trkpt lat="69.36859" lon="17.13124">
        <ele>83.486145</ele>
        <time>2020-07-16T07:00:34.194Z</time>
      </trkpt>
      <trkpt lat="69.36869" lon="17.13121">
        <ele>82.071344</ele>
        <time>2020-07-16T07:00:35.232Z</time>
      </trkpt>
      <trkpt lat="69.36919" lon="17.13105">
        <ele>75.309003</ele>
        <time>2020-07-16T07:00:40.425Z</time>
      </trkpt>
      <trkpt lat="69.36945" lon="17.13091">
        <ele>72.260688</ele>
        <time>2020-07-16T07:00:43.129Z</time>
      </trkpt>
      <trkpt lat="69.36971" lon="17.13074">
        <ele>69.140438</ele>
        <time>2020-07-16T07:00:45.919Z</time>
      </trkpt>
      <trkpt lat="69.37027" lon="17.13037">
        <ele>62.483345</ele>
        <time>2020-07-16T07:00:52.125Z</time>
      </trkpt>
      <trkpt lat="69.375" lon="17.12516">
        <ele>27.497342</ele>
        <time>2020-07-16T07:01:50.524Z</time>
      </trkpt>
      <trkpt lat="69.38028" lon="17.11917">
        <ele>7.922229</ele>
        <time>2020-07-16T07:03:05.518Z</time>
      </trkpt>
      <trkpt lat="69.38057" lon="17.11884">
        <ele>7.1798</ele>
        <time>2020-07-16T07:03:10.050Z</time>
      </trkpt>
      <trkpt lat="69.38063" lon="17.11877">
        <ele>7.016609</ele>
        <time>2020-07-16T07:03:11.049Z</time>
      </trkpt>
      <trkpt lat="69.38143" lon="17.11797">
        <ele>6.303018</ele>
        <time>2020-07-16T07:03:24.212Z</time>
      </trkpt>
      <trkpt lat="69.38186" lon="17.11744">
        <ele>6.199551</ele>
        <time>2020-07-16T07:03:32.342Z</time>
      </trkpt>
      <trkpt lat="69.38222" lon="17.11704">
        <ele>6.11245</ele>
        <time>2020-07-16T07:03:39.668Z</time>
      </trkpt>
      <trkpt lat="69.38244" lon="17.11691">
        <ele>6.063205</ele>
        <time>2020-07-16T07:03:43.965Z</time>
      </trkpt>
      <trkpt lat="69.38303" lon="17.11654">
        <ele>6.407301</ele>
        <time>2020-07-16T07:03:56.006Z</time>
      </trkpt>
      <trkpt lat="69.38343" lon="17.1165">
        <ele>6.710657</ele>
        <time>2020-07-16T07:04:04.321Z</time>
      </trkpt>
      <trkpt lat="69.3841" lon="17.11669">
        <ele>7.217551</ele>
        <time>2020-07-16T07:04:18.447Z</time>
      </trkpt>
      <trkpt lat="69.38448" lon="17.11697">
        <ele>7.392942</ele>
        <time>2020-07-16T07:04:26.466Z</time>
      </trkpt>
      <trkpt lat="69.38483" lon="17.11737">
        <ele>7.382593</ele>
        <time>2020-07-16T07:04:33.708Z</time>
      </trkpt>
      <trkpt lat="69.38538" lon="17.11824">
        <ele>7.36498</ele>
        <time>2020-07-16T07:04:45.294Z</time>
      </trkpt>
      <trkpt lat="69.38944" lon="17.1253">
        <ele>4.6371</ele>
        <time>2020-07-16T07:06:00.387Z</time>
      </trkpt>
      <trkpt lat="69.38993" lon="17.12604">
        <ele>4.902807</ele>
        <time>2020-07-16T07:06:10.971Z</time>
      </trkpt>
      <trkpt lat="69.39061" lon="17.12675">
        <ele>5.249578</ele>
        <time>2020-07-16T07:06:26.530Z</time>
      </trkpt>
      <trkpt lat="69.39359" lon="17.12895">
        <ele>12.403596</ele>
        <time>2020-07-16T07:07:47.223Z</time>
      </trkpt>
      <trkpt lat="69.39434" lon="17.12926">
        <ele>13.670993</ele>
        <time>2020-07-16T07:08:04.128Z</time>
      </trkpt>
      <trkpt lat="69.39553" lon="17.12943">
        <ele>14.423683</ele>
        <time>2020-07-16T07:08:26.915Z</time>
      </trkpt>
      <trkpt lat="69.39659" lon="17.12988">
        <ele>16.366769</ele>
        <time>2020-07-16T07:08:47.556Z</time>
      </trkpt>
      <trkpt lat="69.40293" lon="17.12961">
        <ele>33.254373</ele>
        <time>2020-07-16T07:11:35.502Z</time>
      </trkpt>
      <trkpt lat="69.40307" lon="17.12963">
        <ele>33.757754</ele>
        <time>2020-07-16T07:11:40.619Z</time>
      </trkpt>
      <trkpt lat="69.40318" lon="17.12965">
        <ele>34.303772</ele>
        <time>2020-07-16T07:11:46.568Z</time>
      </trkpt>
      <trkpt lat="69.40358" lon="17.13016">
        <ele>36.417587</ele>
        <time>2020-07-16T07:12:03.338Z</time>
      </trkpt>
      <trkpt lat="69.40458" lon="17.13208">
        <ele>42.360172</ele>
        <time>2020-07-16T07:12:46.774Z</time>
      </trkpt>
      <trkpt lat="69.40591" lon="17.13542">
        <ele>43.440663</ele>
        <time>2020-07-16T07:13:18.780Z</time>
      </trkpt>
      <trkpt lat="69.40653" lon="17.13627">
        <ele>43.337839</ele>
        <time>2020-07-16T07:13:29.088Z</time>
      </trkpt>
      <trkpt lat="69.40721" lon="17.13891">
        <ele>43.080411</ele>
        <time>2020-07-16T07:13:49.587Z</time>
      </trkpt>
      <trkpt lat="69.40733" lon="17.14019">
        <ele>43.429695</ele>
        <time>2020-07-16T07:13:58.943Z</time>
      </trkpt>
      <trkpt lat="69.40746" lon="17.14096">
        <ele>43.67555</ele>
        <time>2020-07-16T07:14:05.083Z</time>
      </trkpt>
      <trkpt lat="69.40766" lon="17.14156">
        <ele>43.911404</ele>
        <time>2020-07-16T07:14:10.956Z</time>
      </trkpt>
      <trkpt lat="69.40834" lon="17.14311">
        <ele>44.629858</ele>
        <time>2020-07-16T07:14:29.424Z</time>
      </trkpt>
      <trkpt lat="69.40908" lon="17.145">
        <ele>45.443569</ele>
        <time>2020-07-16T07:14:51.486Z</time>
      </trkpt>
      <trkpt lat="69.40996" lon="17.14889">
        <ele>43.597449</ele>
        <time>2020-07-16T07:15:21.466Z</time>
      </trkpt>
      <trkpt lat="69.41016" lon="17.14951">
        <ele>42.832123</ele>
        <time>2020-07-16T07:15:25.178Z</time>
      </trkpt>
      <trkpt lat="69.41027" lon="17.14975">
        <ele>42.454095</ele>
        <time>2020-07-16T07:15:27.672Z</time>
      </trkpt>
      <trkpt lat="69.41036" lon="17.14991">
        <ele>42.189043</ele>
        <time>2020-07-16T07:15:28.760Z</time>
      </trkpt>
      <trkpt lat="69.4106" lon="17.1502">
        <ele>41.49447</ele>
        <time>2020-07-16T07:15:31.929Z</time>
      </trkpt>
      <trkpt lat="69.41085" lon="17.15032">
        <ele>39.840717</ele>
        <time>2020-07-16T07:15:34.624Z</time>
      </trkpt>
      <trkpt lat="69.41161" lon="17.15008">
        <ele>33.35209</ele>
        <time>2020-07-16T07:15:43.475Z</time>
      </trkpt>
      <trkpt lat="69.41179" lon="17.15017">
        <ele>31.805187</ele>
        <time>2020-07-16T07:15:45.489Z</time>
      </trkpt>
      <trkpt lat="69.41187" lon="17.15026">
        <ele>31.112544</ele>
        <time>2020-07-16T07:15:46.346Z</time>
      </trkpt>
      <trkpt lat="69.41197" lon="17.15046">
        <ele>30.087478</ele>
        <time>2020-07-16T07:15:47.763Z</time>
      </trkpt>
      <trkpt lat="69.41202" lon="17.15064">
        <ele>29.415594</ele>
        <time>2020-07-16T07:15:48.672Z</time>
      </trkpt>
      <trkpt lat="69.41208" lon="17.15088">
        <ele>28.570041</ele>
        <time>2020-07-16T07:15:49.758Z</time>
      </trkpt>
      <trkpt lat="69.41224" lon="17.15161">
        <ele>26.037497</ele>
        <time>2020-07-16T07:15:53.125Z</time>
      </trkpt>
      <trkpt lat="69.41238" lon="17.15216">
        <ele>24.442002</ele>
        <time>2020-07-16T07:15:55.727Z</time>
      </trkpt>
      <trkpt lat="69.41256" lon="17.1527">
        <ele>22.737591</ele>
        <time>2020-07-16T07:15:58.537Z</time>
      </trkpt>
      <trkpt lat="69.41267" lon="17.153">
        <ele>21.703887</ele>
        <time>2020-07-16T07:16:00.356Z</time>
      </trkpt>
      <trkpt lat="69.41289" lon="17.15359">
        <ele>19.681581</ele>
        <time>2020-07-16T07:16:03.780Z</time>
      </trkpt>
      <trkpt lat="69.41301" lon="17.15396">
        <ele>18.516128</ele>
        <time>2020-07-16T07:16:05.921Z</time>
      </trkpt>
      <trkpt lat="69.41316" lon="17.15445">
        <ele>16.979147</ele>
        <time>2020-07-16T07:16:08.758Z</time>
      </trkpt>
      <trkpt lat="69.41325" lon="17.15492">
        <ele>15.704793</ele>
        <time>2020-07-16T07:16:11.144Z</time>
      </trkpt>
      <trkpt lat="69.41328" lon="17.15555">
        <ele>14.229948</ele>
        <time>2020-07-16T07:16:13.818Z</time>
      </trkpt>
      <trkpt lat="69.41277" lon="17.15939">
        <ele>11.120132</ele>
        <time>2020-07-16T07:16:33.133Z</time>
      </trkpt>
      <trkpt lat="69.41271" lon="17.16">
        <ele>10.643868</ele>
        <time>2020-07-16T07:16:37.640Z</time>
      </trkpt>
      <trkpt lat="69.41275" lon="17.16111">
        <ele>10.981132</ele>
        <time>2020-07-16T07:16:45.715Z</time>
      </trkpt>
      <trkpt lat="69.41285" lon="17.16159">
        <ele>11.459092</ele>
        <time>2020-07-16T07:16:49.862Z</time>
      </trkpt>
      <trkpt lat="69.41334" lon="17.16302">
        <ele>13.157204</ele>
        <time>2020-07-16T07:17:07.359Z</time>
      </trkpt>
      <trkpt lat="69.41339" lon="17.1634">
        <ele>13.489236</ele>
        <time>2020-07-16T07:17:11.447Z</time>
      </trkpt>
      <trkpt lat="69.41341" lon="17.16501">
        <ele>15.003606</ele>
        <time>2020-07-16T07:17:28.723Z</time>
      </trkpt>
      <trkpt lat="69.41353" lon="17.16689">
        <ele>18.141505</ele>
        <time>2020-07-16T07:17:52.664Z</time>
      </trkpt>
      <trkpt lat="69.41367" lon="17.16757">
        <ele>19.414769</ele>
        <time>2020-07-16T07:18:02.789Z</time>
      </trkpt>
      <trkpt lat="69.41379" lon="17.16772">
        <ele>20.054499</ele>
        <time>2020-07-16T07:18:07.425Z</time>
      </trkpt>
      <trkpt lat="69.41455" lon="17.16746">
        <ele>22.827628</ele>
        <time>2020-07-16T07:18:31.659Z</time>
      </trkpt>
      <trkpt lat="69.41484" lon="17.16792">
        <ele>22.197975</ele>
        <time>2020-07-16T07:18:40.448Z</time>
      </trkpt>
      <trkpt lat="69.41499" lon="17.16838">
        <ele>21.76955</ele>
        <time>2020-07-16T07:18:45.392Z</time>
      </trkpt>
      <trkpt lat="69.415" lon="17.16899">
        <ele>21.358053</ele>
        <time>2020-07-16T07:18:48.211Z</time>
      </trkpt>
      <trkpt lat="69.41493" lon="17.16998">
        <ele>20.671004</ele>
        <time>2020-07-16T07:18:52.928Z</time>
      </trkpt>
      <trkpt lat="69.41487" lon="17.17079">
        <ele>20.110129</ele>
        <time>2020-07-16T07:18:56.562Z</time>
      </trkpt>
      <trkpt lat="69.41482" lon="17.17153">
        <ele>19.600293</ele>
        <time>2020-07-16T07:18:59.568Z</time>
      </trkpt>
      <trkpt lat="69.41476" lon="17.17228">
        <ele>17.749222</ele>
        <time>2020-07-16T07:19:02.610Z</time>
      </trkpt>
      <trkpt lat="69.41472" lon="17.17299">
        <ele>16.036833</ele>
        <time>2020-07-16T07:19:05.402Z</time>
      </trkpt>
      <trkpt lat="69.41473" lon="17.17493">
        <ele>11.32527</ele>
        <time>2020-07-16T07:19:13.127Z</time>
      </trkpt>
      <trkpt lat="69.4147" lon="17.17525">
        <ele>10.524221</ele>
        <time>2020-07-16T07:19:14.382Z</time>
      </trkpt>
      <trkpt lat="69.41465" lon="17.17555">
        <ele>9.738278</ele>
        <time>2020-07-16T07:19:15.773Z</time>
      </trkpt>
      <trkpt lat="69.41349" lon="17.17911">
        <ele>2.730342</ele>
        <time>2020-07-16T07:19:37.058Z</time>
      </trkpt>
      <trkpt lat="69.41303" lon="17.17972">
        <ele>1.181585</ele>
        <time>2020-07-16T07:19:45.439Z</time>
      </trkpt>
      <trkpt lat="69.41275" lon="17.17988">
        <ele>1.096801</ele>
        <time>2020-07-16T07:19:50.057Z</time>
      </trkpt>
      <trkpt lat="69.41245" lon="17.18011">
        <ele>1.003028</ele>
        <time>2020-07-16T07:19:55.243Z</time>
      </trkpt>
      <trkpt lat="69.41231" lon="17.18029">
        <ele>0.955251</ele>
        <time>2020-07-16T07:19:57.899Z</time>
      </trkpt>
      <trkpt lat="69.41223" lon="17.18044">
        <ele>0.927116</ele>
        <time>2020-07-16T07:19:59.437Z</time>
      </trkpt>
      <trkpt lat="69.41192" lon="17.18125">
        <ele>0.801165</ele>
        <time>2020-07-16T07:20:06.583Z</time>
      </trkpt>
      <trkpt lat="69.41163" lon="17.18193">
        <ele>0.686126</ele>
        <time>2020-07-16T07:20:13.377Z</time>
      </trkpt>
      <trkpt lat="69.41141" lon="17.18244">
        <ele>0.894855</ele>
        <time>2020-07-16T07:20:18.573Z</time>
      </trkpt>
      <trkpt lat="69.41101" lon="17.18344">
        <ele>1.620071</ele>
        <time>2020-07-16T07:20:29.639Z</time>
      </trkpt>
      <trkpt lat="69.41052" lon="17.18556">
        <ele>2.836135</ele>
        <time>2020-07-16T07:20:50.457Z</time>
      </trkpt>
      <trkpt lat="69.41041" lon="17.18621">
        <ele>3.251147</ele>
        <time>2020-07-16T07:20:56.801Z</time>
      </trkpt>
      <trkpt lat="69.41036" lon="17.18672">
        <ele>3.726215</ele>
        <time>2020-07-16T07:21:01.562Z</time>
      </trkpt>
      <trkpt lat="69.41037" lon="17.18976">
        <ele>6.481975</ele>
        <time>2020-07-16T07:21:29.360Z</time>
      </trkpt>
      <trkpt lat="69.41054" lon="17.19066">
        <ele>7.412065</ele>
        <time>2020-07-16T07:21:39.030Z</time>
      </trkpt>
      <trkpt lat="69.41071" lon="17.19122">
        <ele>8.19363</ele>
        <time>2020-07-16T07:21:46.401Z</time>
      </trkpt>
      <trkpt lat="69.41088" lon="17.19181">
        <ele>9.129926</ele>
        <time>2020-07-16T07:21:53.701Z</time>
      </trkpt>
      <trkpt lat="69.41103" lon="17.19213">
        <ele>9.787019</ele>
        <time>2020-07-16T07:21:58.794Z</time>
      </trkpt>
      <trkpt lat="69.41109" lon="17.19244">
        <ele>10.225671</ele>
        <time>2020-07-16T07:22:02.398Z</time>
      </trkpt>
      <trkpt lat="69.41106" lon="17.19376">
        <ele>11.852625</ele>
        <time>2020-07-16T07:22:16.011Z</time>
      </trkpt>
      <trkpt lat="69.41055" lon="17.1963">
        <ele>15.94025</ele>
        <time>2020-07-16T07:22:47.429Z</time>
      </trkpt>
      <trkpt lat="69.41054" lon="17.19755">
        <ele>17.991078</ele>
        <time>2020-07-16T07:23:02.847Z</time>
      </trkpt>
      <trkpt lat="69.4107" lon="17.19852">
        <ele>19.762135</ele>
        <time>2020-07-16T07:23:15.892Z</time>
      </trkpt>
      <trkpt lat="69.41123" lon="17.19988">
        <ele>22.881242</ele>
        <time>2020-07-16T07:23:39.308Z</time>
      </trkpt>
      <trkpt lat="69.41131" lon="17.20031">
        <ele>23.434903</ele>
        <time>2020-07-16T07:23:44.851Z</time>
      </trkpt>
      <trkpt lat="69.41142" lon="17.20248">
        <ele>25.904403</ele>
        <time>2020-07-16T07:24:07.575Z</time>
      </trkpt>
      <trkpt lat="69.41152" lon="17.20343">
        <ele>27.031252</ele>
        <time>2020-07-16T07:24:16.803Z</time>
      </trkpt>
      <trkpt lat="69.41164" lon="17.20401">
        <ele>27.780843</ele>
        <time>2020-07-16T07:24:22.503Z</time>
      </trkpt>
      <trkpt lat="69.41191" lon="17.20484">
        <ele>28.536043</ele>
        <time>2020-07-16T07:24:31.521Z</time>
      </trkpt>
      <trkpt lat="69.41235" lon="17.20585">
        <ele>29.243061</ele>
        <time>2020-07-16T07:24:43.471Z</time>
      </trkpt>
      <trkpt lat="69.41327" lon="17.20739">
        <ele>30.57506</ele>
        <time>2020-07-16T07:25:05.986Z</time>
      </trkpt>
      <trkpt lat="69.4135" lon="17.20795">
        <ele>30.933061</ele>
        <time>2020-07-16T07:25:12.792Z</time>
      </trkpt>
      <trkpt lat="69.41397" lon="17.20961">
        <ele>31.812008</ele>
        <time>2020-07-16T07:25:29.839Z</time>
      </trkpt>
      <trkpt lat="69.41428" lon="17.21187">
        <ele>32.407267</ele>
        <time>2020-07-16T07:25:48.209Z</time>
      </trkpt>
      <trkpt lat="69.4149" lon="17.21425">
        <ele>31.597198</ele>
        <time>2020-07-16T07:26:06.137Z</time>
      </trkpt>
      <trkpt lat="69.41496" lon="17.21453">
        <ele>31.508567</ele>
        <time>2020-07-16T07:26:07.695Z</time>
      </trkpt>
      <trkpt lat="69.41497" lon="17.21459">
        <ele>31.488736</ele>
        <time>2020-07-16T07:26:08.086Z</time>
      </trkpt>
      <trkpt lat="69.41503" lon="17.21486">
        <ele>31.405282</ele>
        <time>2020-07-16T07:26:09.784Z</time>
      </trkpt>
      <trkpt lat="69.41507" lon="17.21517">
        <ele>31.311353</ele>
        <time>2020-07-16T07:26:11.580Z</time>
      </trkpt>
      <trkpt lat="69.41512" lon="17.21555">
        <ele>31.201889</ele>
        <time>2020-07-16T07:26:13.393Z</time>
      </trkpt>
      <trkpt lat="69.41513" lon="17.21722">
        <ele>28.872824</ele>
        <time>2020-07-16T07:26:20.884Z</time>
      </trkpt>
      <trkpt lat="69.41491" lon="17.21884">
        <ele>26.310862</ele>
        <time>2020-07-16T07:26:28.286Z</time>
      </trkpt>
      <trkpt lat="69.41471" lon="17.22002">
        <ele>24.362585</ele>
        <time>2020-07-16T07:26:33.973Z</time>
      </trkpt>
      <trkpt lat="69.41461" lon="17.22081">
        <ele>23.161987</ele>
        <time>2020-07-16T07:26:37.580Z</time>
      </trkpt>
      <trkpt lat="69.41358" lon="17.2244">
        <ele>16.856621</ele>
        <time>2020-07-16T07:26:57.789Z</time>
      </trkpt>
      <trkpt lat="69.41347" lon="17.22455">
        <ele>16.775586</ele>
        <time>2020-07-16T07:26:59.619Z</time>
      </trkpt>
      <trkpt lat="69.41337" lon="17.22497">
        <ele>17.134724</ele>
        <time>2020-07-16T07:27:02.031Z</time>
      </trkpt>
      <trkpt lat="69.41297" lon="17.227">
        <ele>18.783963</ele>
        <time>2020-07-16T07:27:21.954Z</time>
      </trkpt>
      <trkpt lat="69.41279" lon="17.22857">
        <ele>19.956865</ele>
        <time>2020-07-16T07:27:39.767Z</time>
      </trkpt>
      <trkpt lat="69.41277" lon="17.229">
        <ele>20.260481</ele>
        <time>2020-07-16T07:27:44.524Z</time>
      </trkpt>
      <trkpt lat="69.41278" lon="17.22958">
        <ele>21.312703</ele>
        <time>2020-07-16T07:27:52.588Z</time>
      </trkpt>
      <trkpt lat="69.41281" lon="17.23039">
        <ele>22.788035</ele>
        <time>2020-07-16T07:28:03.430Z</time>
      </trkpt>
      <trkpt lat="69.41317" lon="17.23448">
        <ele>29.66431</ele>
        <time>2020-07-16T07:28:55.613Z</time>
      </trkpt>
      <trkpt lat="69.41328" lon="17.23571">
        <ele>30.099918</ele>
        <time>2020-07-16T07:29:06.432Z</time>
      </trkpt>
      <trkpt lat="69.41336" lon="17.23686">
        <ele>30.497199</ele>
        <time>2020-07-16T07:29:15.012Z</time>
      </trkpt>
      <trkpt lat="69.41337" lon="17.23728">
        <ele>30.640586</ele>
        <time>2020-07-16T07:29:17.723Z</time>
      </trkpt>
      <trkpt lat="69.41336" lon="17.23767">
        <ele>30.776368</ele>
        <time>2020-07-16T07:29:20.334Z</time>
      </trkpt>
      <trkpt lat="69.41321" lon="17.23895">
        <ele>31.234517</ele>
        <time>2020-07-16T07:29:27.891Z</time>
      </trkpt>
      <trkpt lat="69.41243" lon="17.24276">
        <ele>26.063861</ele>
        <time>2020-07-16T07:29:47.932Z</time>
      </trkpt>
      <trkpt lat="69.41186" lon="17.2455">
        <ele>21.546301</ele>
        <time>2020-07-16T07:30:01.608Z</time>
      </trkpt>
      <trkpt lat="69.41176" lon="17.24594">
        <ele>20.767009</ele>
        <time>2020-07-16T07:30:03.915Z</time>
      </trkpt>
      <trkpt lat="69.41169" lon="17.24639">
        <ele>20.025968</ele>
        <time>2020-07-16T07:30:06.071Z</time>
      </trkpt>
      <trkpt lat="69.41165" lon="17.24671">
        <ele>19.528689</ele>
        <time>2020-07-16T07:30:07.542Z</time>
      </trkpt>
      <trkpt lat="69.41159" lon="17.24772">
        <ele>18.000153</ele>
        <time>2020-07-16T07:30:12.081Z</time>
      </trkpt>
      <trkpt lat="69.4116" lon="17.24805">
        <ele>17.549342</ele>
        <time>2020-07-16T07:30:13.543Z</time>
      </trkpt>
      <trkpt lat="69.41162" lon="17.24841">
        <ele>17.249504</ele>
        <time>2020-07-16T07:30:15.200Z</time>
      </trkpt>
      <trkpt lat="69.41165" lon="17.24871">
        <ele>16.995851</ele>
        <time>2020-07-16T07:30:16.681Z</time>
      </trkpt>
      <trkpt lat="69.41169" lon="17.24899">
        <ele>16.743203</ele>
        <time>2020-07-16T07:30:18.133Z</time>
      </trkpt>
      <trkpt lat="69.41177" lon="17.24952">
        <ele>16.269228</ele>
        <time>2020-07-16T07:30:20.913Z</time>
      </trkpt>
      <trkpt lat="69.4118" lon="17.24968">
        <ele>16.120033</ele>
        <time>2020-07-16T07:30:21.860Z</time>
      </trkpt>
      <trkpt lat="69.41251" lon="17.25389">
        <ele>12.791147</ele>
        <time>2020-07-16T07:30:45.346Z</time>
      </trkpt>
      <trkpt lat="69.41272" lon="17.25505">
        <ele>12.201594</ele>
        <time>2020-07-16T07:30:51.878Z</time>
      </trkpt>
      <trkpt lat="69.41275" lon="17.25533">
        <ele>12.066868</ele>
        <time>2020-07-16T07:30:53.288Z</time>
      </trkpt>
      <trkpt lat="69.41278" lon="17.25554">
        <ele>11.969368</ele>
        <time>2020-07-16T07:30:54.436Z</time>
      </trkpt>
      <trkpt lat="69.41281" lon="17.256">
        <ele>11.757105</ele>
        <time>2020-07-16T07:30:57.007Z</time>
      </trkpt>
      <trkpt lat="69.41282" lon="17.25805">
        <ele>11.35358</ele>
        <time>2020-07-16T07:31:08.979Z</time>
      </trkpt>
      <trkpt lat="69.41269" lon="17.25919">
        <ele>11.92184</ele>
        <time>2020-07-16T07:31:17.048Z</time>
      </trkpt>
      <trkpt lat="69.41257" lon="17.25984">
        <ele>12.270567</ele>
        <time>2020-07-16T07:31:22.744Z</time>
      </trkpt>
      <trkpt lat="69.41253" lon="17.26">
        <ele>12.360288</ele>
        <time>2020-07-16T07:31:24.159Z</time>
      </trkpt>
      <trkpt lat="69.41246" lon="17.2603">
        <ele>12.536161</ele>
        <time>2020-07-16T07:31:27.612Z</time>
      </trkpt>
      <trkpt lat="69.41198" lon="17.26148">
        <ele>13.38731</ele>
        <time>2020-07-16T07:31:42.915Z</time>
      </trkpt>
      <trkpt lat="69.41156" lon="17.26226">
        <ele>14.724647</ele>
        <time>2020-07-16T07:31:56.706Z</time>
      </trkpt>
      <trkpt lat="69.41104" lon="17.26319">
        <ele>16.544361</ele>
        <time>2020-07-16T07:32:14.831Z</time>
      </trkpt>
      <trkpt lat="69.41056" lon="17.26406">
        <ele>18.213676</ele>
        <time>2020-07-16T07:32:32.241Z</time>
      </trkpt>
      <trkpt lat="69.41054" lon="17.2641">
        <ele>18.294463</ele>
        <time>2020-07-16T07:32:33.040Z</time>
      </trkpt>
      <trkpt lat="69.40967" lon="17.26566">
        <ele>17.885388</ele>
        <time>2020-07-16T07:32:53.993Z</time>
      </trkpt>
      <trkpt lat="69.40952" lon="17.26594">
        <ele>17.684319</ele>
        <time>2020-07-16T07:32:57.582Z</time>
      </trkpt>
      <trkpt lat="69.40939" lon="17.2662">
        <ele>17.507652</ele>
        <time>2020-07-16T07:32:59.693Z</time>
      </trkpt>
      <trkpt lat="69.40924" lon="17.26658">
        <ele>17.27767</ele>
        <time>2020-07-16T07:33:02.838Z</time>
      </trkpt>
      <trkpt lat="69.4091" lon="17.26691">
        <ele>17.083332</ele>
        <time>2020-07-16T07:33:04.971Z</time>
      </trkpt>
      <trkpt lat="69.40831" lon="17.26908">
        <ele>12.408131</ele>
        <time>2020-07-16T07:33:18.034Z</time>
      </trkpt>
      <trkpt lat="69.40765" lon="17.27031">
        <ele>8.436729</ele>
        <time>2020-07-16T07:33:27.245Z</time>
      </trkpt>
      <trkpt lat="69.40552" lon="17.27383">
        <ele>3.432624</ele>
        <time>2020-07-16T07:34:02.399Z</time>
      </trkpt>
      <trkpt lat="69.40515" lon="17.2748">
        <ele>3.134063</ele>
        <time>2020-07-16T07:34:11.094Z</time>
      </trkpt>
      <trkpt lat="69.40429" lon="17.27776">
        <ele>3.366175</ele>
        <time>2020-07-16T07:34:35.601Z</time>
      </trkpt>
      <trkpt lat="69.40391" lon="17.27871">
        <ele>3.969598</ele>
        <time>2020-07-16T07:34:46.046Z</time>
      </trkpt>
      <trkpt lat="69.40172" lon="17.28221">
        <ele>8.994713</ele>
        <time>2020-07-16T07:35:49.994Z</time>
      </trkpt>
      <trkpt lat="69.4016" lon="17.28275">
        <ele>9.099251</ele>
        <time>2020-07-16T07:35:55.628Z</time>
      </trkpt>
      <trkpt lat="69.40157" lon="17.28339">
        <ele>9.206955</ele>
        <time>2020-07-16T07:36:00.884Z</time>
      </trkpt>
      <trkpt lat="69.40163" lon="17.28405">
        <ele>9.319452</ele>
        <time>2020-07-16T07:36:06.681Z</time>
      </trkpt>
      <trkpt lat="69.40174" lon="17.28449">
        <ele>9.410918</ele>
        <time>2020-07-16T07:36:10.147Z</time>
      </trkpt>
      <trkpt lat="69.40183" lon="17.2847">
        <ele>9.463597</ele>
        <time>2020-07-16T07:36:13.244Z</time>
      </trkpt>
      <trkpt lat="69.40191" lon="17.28483">
        <ele>9.506991</ele>
        <time>2020-07-16T07:36:14.649Z</time>
      </trkpt>
      <trkpt lat="69.40228" lon="17.28502">
        <ele>9.68622</ele>
        <time>2020-07-16T07:36:21.190Z</time>
      </trkpt>
      <trkpt lat="69.40305" lon="17.28494">
        <ele>8.552756</ele>
        <time>2020-07-16T07:36:32.351Z</time>
      </trkpt>
      <trkpt lat="69.40339" lon="17.28504">
        <ele>7.547219</ele>
        <time>2020-07-16T07:36:36.934Z</time>
      </trkpt>
      <trkpt lat="69.4037" lon="17.28557">
        <ele>6.498572</ele>
        <time>2020-07-16T07:36:41.452Z</time>
      </trkpt>
      <trkpt lat="69.40386" lon="17.28613">
        <ele>5.756856</ele>
        <time>2020-07-16T07:36:44.665Z</time>
      </trkpt>
      <trkpt lat="69.40397" lon="17.28684">
        <ele>4.958109</ele>
        <time>2020-07-16T07:36:48.154Z</time>
      </trkpt>
      <trkpt lat="69.40396" lon="17.28801">
        <ele>4.008432</ele>
        <time>2020-07-16T07:36:53.494Z</time>
      </trkpt>
      <trkpt lat="69.40385" lon="17.28883">
        <ele>3.379943</ele>
        <time>2020-07-16T07:36:57.602Z</time>
      </trkpt>
      <trkpt lat="69.40336" lon="17.29124">
        <ele>1.374253</ele>
        <time>2020-07-16T07:37:11.679Z</time>
      </trkpt>
      <trkpt lat="69.40333" lon="17.2916">
        <ele>1.110709</ele>
        <time>2020-07-16T07:37:13.704Z</time>
      </trkpt>
      <trkpt lat="69.40332" lon="17.29176">
        <ele>0.993179</ele>
        <time>2020-07-16T07:37:14.649Z</time>
      </trkpt>
      <trkpt lat="69.40329" lon="17.2953">
        <ele>0.5821</ele>
        <time>2020-07-16T07:37:35.970Z</time>
      </trkpt>
      <trkpt lat="69.40328" lon="17.29544">
        <ele>0.568707</ele>
        <time>2020-07-16T07:37:36.874Z</time>
      </trkpt>
      <trkpt lat="69.40328" lon="17.2956">
        <ele>0.553399</ele>
        <time>2020-07-16T07:37:37.895Z</time>
      </trkpt>
      <trkpt lat="69.4032" lon="17.29609">
        <ele>0.500476</ele>
        <time>2020-07-16T07:37:41.394Z</time>
      </trkpt>
      <trkpt lat="69.40274" lon="17.29779">
        <ele>0.4604</ele>
        <time>2020-07-16T07:37:54.983Z</time>
      </trkpt>
      <trkpt lat="69.40253" lon="17.29878">
        <ele>0.49676</ele>
        <time>2020-07-16T07:38:02.300Z</time>
      </trkpt>
      <trkpt lat="69.40169" lon="17.30498">
        <ele>1.402472</ele>
        <time>2020-07-16T07:38:44.834Z</time>
      </trkpt>
      <trkpt lat="69.40158" lon="17.30637">
        <ele>1.993276</ele>
        <time>2020-07-16T07:38:55.446Z</time>
      </trkpt>
      <trkpt lat="69.40154" lon="17.30944">
        <ele>5.740807</ele>
        <time>2020-07-16T07:39:27.347Z</time>
      </trkpt>
      <trkpt lat="69.40141" lon="17.31077">
        <ele>7.409771</ele>
        <time>2020-07-16T07:39:42.378Z</time>
      </trkpt>
      <trkpt lat="69.40133" lon="17.31146">
        <ele>8.253389</ele>
        <time>2020-07-16T07:39:51.129Z</time>
      </trkpt>
      <trkpt lat="69.40116" lon="17.31243">
        <ele>9.4391</ele>
        <time>2020-07-16T07:40:03.510Z</time>
      </trkpt>
      <trkpt lat="69.40037" lon="17.31573">
        <ele>13.378178</ele>
        <time>2020-07-16T07:40:42.604Z</time>
      </trkpt>
      <trkpt lat="69.39735" lon="17.32789">
        <ele>9.996697</ele>
        <time>2020-07-16T07:42:03.880Z</time>
      </trkpt>
      <trkpt lat="69.39601" lon="17.33528">
        <ele>13.870297</ele>
        <time>2020-07-16T07:43:10.222Z</time>
      </trkpt>
      <trkpt lat="69.39583" lon="17.33677">
        <ele>14.739264</ele>
        <time>2020-07-16T07:43:23.193Z</time>
      </trkpt>
      <trkpt lat="69.39572" lon="17.33901">
        <ele>15.814233</ele>
        <time>2020-07-16T07:43:41.350Z</time>
      </trkpt>
      <trkpt lat="69.3956" lon="17.34022">
        <ele>16.389134</ele>
        <time>2020-07-16T07:43:51.113Z</time>
      </trkpt>
      <trkpt lat="69.39527" lon="17.34212">
        <ele>17.365702</ele>
        <time>2020-07-16T07:44:06.855Z</time>
      </trkpt>
      <trkpt lat="69.39514" lon="17.34321">
        <ele>18.184532</ele>
        <time>2020-07-16T07:44:15.257Z</time>
      </trkpt>
      <trkpt lat="69.39489" lon="17.34751">
        <ele>21.87399</ele>
        <time>2020-07-16T07:44:52.763Z</time>
      </trkpt>
      <trkpt lat="69.39489" lon="17.34981">
        <ele>26.47573</ele>
        <time>2020-07-16T07:45:20.585Z</time>
      </trkpt>
      <trkpt lat="69.39506" lon="17.3539">
        <ele>34.508972</ele>
        <time>2020-07-16T07:46:21.190Z</time>
      </trkpt>
      <trkpt lat="69.39507" lon="17.3549">
        <ele>36.395351</ele>
        <time>2020-07-16T07:46:36.195Z</time>
      </trkpt>
      <trkpt lat="69.395" lon="17.35997">
        <ele>39.448345</ele>
        <time>2020-07-16T07:47:23.614Z</time>
      </trkpt>
      <trkpt lat="69.39493" lon="17.36146">
        <ele>38.708116</ele>
        <time>2020-07-16T07:47:30.210Z</time>
      </trkpt>
      <trkpt lat="69.39422" lon="17.36545">
        <ele>28.444286</ele>
        <time>2020-07-16T07:47:47.873Z</time>
      </trkpt>
      <trkpt lat="69.394" lon="17.36777">
        <ele>22.566276</ele>
        <time>2020-07-16T07:47:57.449Z</time>
      </trkpt>
      <trkpt lat="69.39381" lon="17.36915">
        <ele>19.678048</ele>
        <time>2020-07-16T07:48:03.630Z</time>
      </trkpt>
      <trkpt lat="69.39338" lon="17.37075">
        <ele>15.775852</ele>
        <time>2020-07-16T07:48:12.220Z</time>
      </trkpt>
      <trkpt lat="69.39277" lon="17.37276">
        <ele>12.171918</ele>
        <time>2020-07-16T07:48:24.260Z</time>
      </trkpt>
      <trkpt lat="69.39259" lon="17.37324">
        <ele>11.368484</ele>
        <time>2020-07-16T07:48:27.485Z</time>
      </trkpt>
      <trkpt lat="69.39179" lon="17.37443">
        <ele>8.517691</ele>
        <time>2020-07-16T07:48:39.586Z</time>
      </trkpt>
      <trkpt lat="69.39147" lon="17.37532">
        <ele>7.839172</ele>
        <time>2020-07-16T07:48:45.621Z</time>
      </trkpt>
      <trkpt lat="69.39126" lon="17.37653">
        <ele>7.119423</ele>
        <time>2020-07-16T07:48:52.557Z</time>
      </trkpt>
      <trkpt lat="69.39111" lon="17.37847">
        <ele>6.059722</ele>
        <time>2020-07-16T07:49:03.507Z</time>
      </trkpt>
      <trkpt lat="69.3905" lon="17.38066">
        <ele>5.428047</ele>
        <time>2020-07-16T07:49:19.816Z</time>
      </trkpt>
      <trkpt lat="69.39028" lon="17.382">
        <ele>5.176969</ele>
        <time>2020-07-16T07:49:28.551Z</time>
      </trkpt>
      <trkpt lat="69.39022" lon="17.38332">
        <ele>4.947396</ele>
        <time>2020-07-16T07:49:36.436Z</time>
      </trkpt>
      <trkpt lat="69.39023" lon="17.38683">
        <ele>4.27967</ele>
        <time>2020-07-16T07:49:56.539Z</time>
      </trkpt>
      <trkpt lat="69.39017" lon="17.38886">
        <ele>4.055083</ele>
        <time>2020-07-16T07:50:08.171Z</time>
      </trkpt>
      <trkpt lat="69.39022" lon="17.38991">
        <ele>4.185003</ele>
        <time>2020-07-16T07:50:14.743Z</time>
      </trkpt>
      <trkpt lat="69.39039" lon="17.39127">
        <ele>4.363737</ele>
        <time>2020-07-16T07:50:24.416Z</time>
      </trkpt>
      <trkpt lat="69.39042" lon="17.39161">
        <ele>4.405728</ele>
        <time>2020-07-16T07:50:26.420Z</time>
      </trkpt>
      <trkpt lat="69.39042" lon="17.39194">
        <ele>4.447328</ele>
        <time>2020-07-16T07:50:29.220Z</time>
      </trkpt>
      <trkpt lat="69.39031" lon="17.39311">
        <ele>4.595288</ele>
        <time>2020-07-16T07:50:37.876Z</time>
      </trkpt>
      <trkpt lat="69.39004" lon="17.39437">
        <ele>5.727392</ele>
        <time>2020-07-16T07:50:48.890Z</time>
      </trkpt>
      <trkpt lat="69.38969" lon="17.39596">
        <ele>7.346264</ele>
        <time>2020-07-16T07:51:05.639Z</time>
      </trkpt>
      <trkpt lat="69.38906" lon="17.39873">
        <ele>11.792558</ele>
        <time>2020-07-16T07:51:39.514Z</time>
      </trkpt>
      <trkpt lat="69.38916" lon="17.39892">
        <ele>12.519046</ele>
        <time>2020-07-16T07:51:44.131Z</time>
      </trkpt>
      <trkpt lat="69.3893" lon="17.39894">
        <ele>13.301816</ele>
        <time>2020-07-16T07:51:48.446Z</time>
      </trkpt>
      <trkpt lat="69.39" lon="17.39734">
        <ele>18.528081</ele>
        <time>2020-07-16T07:52:22.799Z</time>
      </trkpt>
      <trkpt lat="69.39046" lon="17.39707">
        <ele>22.650479</ele>
        <time>2020-07-16T07:52:43.531Z</time>
      </trkpt>
      <trkpt lat="69.39074" lon="17.39714">
        <ele>25.533185</ele>
        <time>2020-07-16T07:52:57.798Z</time>
      </trkpt>
      <trkpt lat="69.39102" lon="17.39744">
        <ele>28.575964</ele>
        <time>2020-07-16T07:53:14.547Z</time>
      </trkpt>
      <trkpt lat="69.3912" lon="17.39781">
        <ele>30.858879</ele>
        <time>2020-07-16T07:53:27.052Z</time>
      </trkpt>
      <trkpt lat="69.39144" lon="17.39865">
        <ele>34.777786</ele>
        <time>2020-07-16T07:53:47.727Z</time>
      </trkpt>
      <trkpt lat="69.39152" lon="17.39926">
        <ele>37.096978</ele>
        <time>2020-07-16T07:53:58.053Z</time>
      </trkpt>
      <trkpt lat="69.39154" lon="17.39958">
        <ele>38.230863</ele>
        <time>2020-07-16T07:54:05.815Z</time>
      </trkpt>
      <trkpt lat="69.39154" lon="17.39998">
        <ele>39.50152</ele>
        <time>2020-07-16T07:54:12.610Z</time>
      </trkpt>
      <trkpt lat="69.39155" lon="17.40031">
        <ele>40.538961</ele>
        <time>2020-07-16T07:54:17.370Z</time>
      </trkpt>
      <trkpt lat="69.39154" lon="17.40063">
        <ele>41.577458</ele>
        <time>2020-07-16T07:54:24.775Z</time>
      </trkpt>
      <trkpt lat="69.39152" lon="17.40106">
        <ele>42.962823</ele>
        <time>2020-07-16T07:54:31.838Z</time>
      </trkpt>
      <trkpt lat="69.3912" lon="17.40374">
        <ele>51.920538</ele>
        <time>2020-07-16T07:55:19.685Z</time>
      </trkpt>
      <trkpt lat="69.39104" lon="17.40606">
        <ele>57.462665</ele>
        <time>2020-07-16T07:55:49.637Z</time>
      </trkpt>
      <trkpt lat="69.39103" lon="17.40735">
        <ele>60.039681</ele>
        <time>2020-07-16T07:56:05.184Z</time>
      </trkpt>
      <trkpt lat="69.3911" lon="17.41127">
        <ele>67.749821</ele>
        <time>2020-07-16T07:56:53.655Z</time>
      </trkpt>
      <trkpt lat="69.3909" lon="17.41941">
        <ele>83.633379</ele>
        <time>2020-07-16T07:58:35.326Z</time>
      </trkpt>
      <trkpt lat="69.39107" lon="17.42703">
        <ele>101.610372</ele>
        <time>2020-07-16T08:00:18.207Z</time>
      </trkpt>
      <trkpt lat="69.39132" lon="17.43167">
        <ele>115.259624</ele>
        <time>2020-07-16T08:01:34.282Z</time>
      </trkpt>
      <trkpt lat="69.39141" lon="17.43295">
        <ele>119.436634</ele>
        <time>2020-07-16T08:01:56.629Z</time>
      </trkpt>
      <trkpt lat="69.39156" lon="17.43493">
        <ele>125.885561</ele>
        <time>2020-07-16T08:02:30.416Z</time>
      </trkpt>
      <trkpt lat="69.39184" lon="17.43801">
        <ele>135.463868</ele>
        <time>2020-07-16T08:03:21.563Z</time>
      </trkpt>
      <trkpt lat="69.3925" lon="17.44325">
        <ele>152.239555</ele>
        <time>2020-07-16T08:04:47.975Z</time>
      </trkpt>
      <trkpt lat="69.39567" lon="17.46429">
        <ele>227.062367</ele>
        <time>2020-07-16T08:11:12.927Z</time>
      </trkpt>
      <trkpt lat="69.39581" lon="17.46541">
        <ele>231.02772</ele>
        <time>2020-07-16T08:11:32.792Z</time>
      </trkpt>
      <trkpt lat="69.39591" lon="17.46694">
        <ele>236.269076</ele>
        <time>2020-07-16T08:11:59.244Z</time>
      </trkpt>
      <trkpt lat="69.39593" lon="17.46921">
        <ele>244.415497</ele>
        <time>2020-07-16T08:12:38.897Z</time>
      </trkpt>
      <trkpt lat="69.39571" lon="17.47164">
        <ele>254.21078</ele>
        <time>2020-07-16T08:13:25.190Z</time>
      </trkpt>
      <trkpt lat="69.39522" lon="17.47462">
        <ele>267.376225</ele>
        <time>2020-07-16T08:14:31.695Z</time>
      </trkpt>
      <trkpt lat="69.395" lon="17.47639">
        <ele>275.005246</ele>
        <time>2020-07-16T08:15:09.906Z</time>
      </trkpt>
      <trkpt lat="69.39498" lon="17.47734">
        <ele>278.880029</ele>
        <time>2020-07-16T08:15:27.929Z</time>
      </trkpt>
      <trkpt lat="69.39503" lon="17.47839">
        <ele>282.419466</ele>
        <time>2020-07-16T08:15:46.515Z</time>
      </trkpt>
      <trkpt lat="69.39513" lon="17.47935">
        <ele>284.480045</ele>
        <time>2020-07-16T08:16:02.701Z</time>
      </trkpt>
      <trkpt lat="69.39531" lon="17.48023">
        <ele>286.597302</ele>
        <time>2020-07-16T08:16:17.709Z</time>
      </trkpt>
      <trkpt lat="69.39655" lon="17.48485">
        <ele>294.896935</ele>
        <time>2020-07-16T08:17:14.619Z</time>
      </trkpt>
      <trkpt lat="69.3968" lon="17.48601">
        <ele>296.088184</ele>
        <time>2020-07-16T08:17:24.429Z</time>
      </trkpt>
      <trkpt lat="69.39698" lon="17.48707">
        <ele>297.727452</ele>
        <time>2020-07-16T08:17:32.627Z</time>
      </trkpt>
      <trkpt lat="69.39737" lon="17.49134">
        <ele>306.61038</ele>
        <time>2020-07-16T08:18:24.405Z</time>
      </trkpt>
      <trkpt lat="69.3974" lon="17.49162">
        <ele>307.945358</ele>
        <time>2020-07-16T08:18:29.057Z</time>
      </trkpt>
      <trkpt lat="69.39748" lon="17.49205">
        <ele>311.862393</ele>
        <time>2020-07-16T08:18:42.405Z</time>
      </trkpt>
      <trkpt lat="69.39762" lon="17.49284">
        <ele>319.099914</ele>
        <time>2020-07-16T08:19:05.483Z</time>
      </trkpt>
      <trkpt lat="69.39774" lon="17.49339">
        <ele>324.341061</ele>
        <time>2020-07-16T08:19:22.973Z</time>
      </trkpt>
      <trkpt lat="69.39788" lon="17.49389">
        <ele>329.48191</ele>
        <time>2020-07-16T08:19:43.531Z</time>
      </trkpt>
      <trkpt lat="69.39878" lon="17.49669">
        <ele>365.217025</ele>
        <time>2020-07-16T08:21:48.574Z</time>
      </trkpt>
      <trkpt lat="69.4006" lon="17.50145">
        <ele>447.549185</ele>
        <time>2020-07-16T08:25:40.746Z</time>
      </trkpt>
      <trkpt lat="69.40214" lon="17.50476">
        <ele>514.070957</ele>
        <time>2020-07-16T08:28:43.258Z</time>
      </trkpt>
      <trkpt lat="69.40323" lon="17.5068">
        <ele>535.458034</ele>
        <time>2020-07-16T08:30:44.840Z</time>
      </trkpt>
      <trkpt lat="69.40745" lon="17.51433">
        <ele>527.868171</ele>
        <time>2020-07-16T08:32:00.930Z</time>
      </trkpt>
      <trkpt lat="69.40899" lon="17.51672">
        <ele>444.936341</ele>
        <time>2020-07-16T08:32:21.253Z</time>
      </trkpt>
      <trkpt lat="69.41023" lon="17.51832">
        <ele>353.536549</ele>
        <time>2020-07-16T08:32:37.970Z</time>
      </trkpt>
      <trkpt lat="69.41082" lon="17.51886">
        <ele>316.643728</ele>
        <time>2020-07-16T08:32:45.587Z</time>
      </trkpt>
      <trkpt lat="69.41117" lon="17.519">
        <ele>295.500258</ele>
        <time>2020-07-16T08:32:49.834Z</time>
      </trkpt>
      <trkpt lat="69.41164" lon="17.51877">
        <ele>267.211745</ele>
        <time>2020-07-16T08:32:55.348Z</time>
      </trkpt>
      <trkpt lat="69.41175" lon="17.51863">
        <ele>260.04152</ele>
        <time>2020-07-16T08:32:56.827Z</time>
      </trkpt>
      <trkpt lat="69.41198" lon="17.51811">
        <ele>242.952028</ele>
        <time>2020-07-16T08:32:59.907Z</time>
      </trkpt>
      <trkpt lat="69.41243" lon="17.5169">
        <ele>225.324268</ele>
        <time>2020-07-16T08:33:06.409Z</time>
      </trkpt>
      <trkpt lat="69.41264" lon="17.51637">
        <ele>217.393189</ele>
        <time>2020-07-16T08:33:09.341Z</time>
      </trkpt>
      <trkpt lat="69.41285" lon="17.51588">
        <ele>209.819704</ele>
        <time>2020-07-16T08:33:12.104Z</time>
      </trkpt>
      <trkpt lat="69.41332" lon="17.51513">
        <ele>194.553249</ele>
        <time>2020-07-16T08:33:17.869Z</time>
      </trkpt>
      <trkpt lat="69.41398" lon="17.51452">
        <ele>189.198992</ele>
        <time>2020-07-16T08:33:25.468Z</time>
      </trkpt>
      <trkpt lat="69.41655" lon="17.51339">
        <ele>181.845303</ele>
        <time>2020-07-16T08:34:03.826Z</time>
      </trkpt>
      <trkpt lat="69.41676" lon="17.51314">
        <ele>181.569764</ele>
        <time>2020-07-16T08:34:08.231Z</time>
      </trkpt>
      <trkpt lat="69.41699" lon="17.51258">
        <ele>181.018315</ele>
        <time>2020-07-16T08:34:13.387Z</time>
      </trkpt>
      <trkpt lat="69.41711" lon="17.51194">
        <ele>180.31395</ele>
        <time>2020-07-16T08:34:17.672Z</time>
      </trkpt>
      <trkpt lat="69.41719" lon="17.50932">
        <ele>177.822313</ele>
        <time>2020-07-16T08:34:30.979Z</time>
      </trkpt>
      <trkpt lat="69.41725" lon="17.50874">
        <ele>177.24557</ele>
        <time>2020-07-16T08:34:33.720Z</time>
      </trkpt>
      <trkpt lat="69.41738" lon="17.50821">
        <ele>176.632422</ele>
        <time>2020-07-16T08:34:36.479Z</time>
      </trkpt>
      <trkpt lat="69.41751" lon="17.50793">
        <ele>175.203168</ele>
        <time>2020-07-16T08:34:38.366Z</time>
      </trkpt>
      <trkpt lat="69.4177" lon="17.50773">
        <ele>173.005593</ele>
        <time>2020-07-16T08:34:40.685Z</time>
      </trkpt>
      <trkpt lat="69.41859" lon="17.50753">
        <ele>163.409261</ele>
        <time>2020-07-16T08:34:50.332Z</time>
      </trkpt>
      <trkpt lat="69.41978" lon="17.50628">
        <ele>146.666888</ele>
        <time>2020-07-16T08:35:03.625Z</time>
      </trkpt>
      <trkpt lat="69.42062" lon="17.50611">
        <ele>133.810467</ele>
        <time>2020-07-16T08:35:12.357Z</time>
      </trkpt>
      <trkpt lat="69.42088" lon="17.50592">
        <ele>129.764594</ele>
        <time>2020-07-16T08:35:15.127Z</time>
      </trkpt>
      <trkpt lat="69.42172" lon="17.50495">
        <ele>121.025741</ele>
        <time>2020-07-16T08:35:24.672Z</time>
      </trkpt>
      <trkpt lat="69.42256" lon="17.50503">
        <ele>112.923345</ele>
        <time>2020-07-16T08:35:34.481Z</time>
      </trkpt>
      <trkpt lat="69.4227" lon="17.50498">
        <ele>112.599146</ele>
        <time>2020-07-16T08:35:36.326Z</time>
      </trkpt>
      <trkpt lat="69.42282" lon="17.5048">
        <ele>112.800572</ele>
        <time>2020-07-16T08:35:38.333Z</time>
      </trkpt>
      <trkpt lat="69.42286" lon="17.50464">
        <ele>112.90668</ele>
        <time>2020-07-16T08:35:39.593Z</time>
      </trkpt>
      <trkpt lat="69.42289" lon="17.50452">
        <ele>112.978507</ele>
        <time>2020-07-16T08:35:40.553Z</time>
      </trkpt>
      <trkpt lat="69.42287" lon="17.50405">
        <ele>113.229831</ele>
        <time>2020-07-16T08:35:43.274Z</time>
      </trkpt>
      <trkpt lat="69.42284" lon="17.5039">
        <ele>113.322185</ele>
        <time>2020-07-16T08:35:44.598Z</time>
      </trkpt>
      <trkpt lat="69.42279" lon="17.50378">
        <ele>113.415721</ele>
        <time>2020-07-16T08:35:47.261Z</time>
      </trkpt>
      <trkpt lat="69.4226" lon="17.50354">
        <ele>113.736405</ele>
        <time>2020-07-16T08:35:51.787Z</time>
      </trkpt>
      <trkpt lat="69.42185" lon="17.50313">
        <ele>114.880635</ele>
        <time>2020-07-16T08:36:14.413Z</time>
      </trkpt>
      <trkpt lat="69.42139" lon="17.50262">
        <ele>114.65066</ele>
        <time>2020-07-16T08:36:32.153Z</time>
      </trkpt>
      <trkpt lat="69.42101" lon="17.50181">
        <ele>113.856663</ele>
        <time>2020-07-16T08:36:42.164Z</time>
      </trkpt>
      <trkpt lat="69.42079" lon="17.50101">
        <ele>113.250074</ele>
        <time>2020-07-16T08:36:47.401Z</time>
      </trkpt>
      <trkpt lat="69.42074" lon="17.50033">
        <ele>112.843278</ele>
        <time>2020-07-16T08:36:50.458Z</time>
      </trkpt>
      <trkpt lat="69.42086" lon="17.49994">
        <ele>112.544325</ele>
        <time>2020-07-16T08:36:52.549Z</time>
      </trkpt>
      <trkpt lat="69.42102" lon="17.49985">
        <ele>112.270266</ele>
        <time>2020-07-16T08:36:54.426Z</time>
      </trkpt>
      <trkpt lat="69.42116" lon="17.49995">
        <ele>111.241333</ele>
        <time>2020-07-16T08:36:56.132Z</time>
      </trkpt>
      <trkpt lat="69.42187" lon="17.50125">
        <ele>101.380731</ele>
        <time>2020-07-16T08:37:05.212Z</time>
      </trkpt>
      <trkpt lat="69.4222" lon="17.50169">
        <ele>97.043177</ele>
        <time>2020-07-16T08:37:09.112Z</time>
      </trkpt>
      <trkpt lat="69.42255" lon="17.50198">
        <ele>92.772104</ele>
        <time>2020-07-16T08:37:12.918Z</time>
      </trkpt>
      <trkpt lat="69.42291" lon="17.50212">
        <ele>87.783945</ele>
        <time>2020-07-16T08:37:16.690Z</time>
      </trkpt>
      <trkpt lat="69.42482" lon="17.50248">
        <ele>59.157461</ele>
        <time>2020-07-16T08:37:36.594Z</time>
      </trkpt>
      <trkpt lat="69.42519" lon="17.50246">
        <ele>54.261488</ele>
        <time>2020-07-16T08:37:40.417Z</time>
      </trkpt>
      <trkpt lat="69.42565" lon="17.50223">
        <ele>47.942406</ele>
        <time>2020-07-16T08:37:45.389Z</time>
      </trkpt>
      <trkpt lat="69.42605" lon="17.50185">
        <ele>42.279306</ele>
        <time>2020-07-16T08:37:49.892Z</time>
      </trkpt>
      <trkpt lat="69.42662" lon="17.50097">
        <ele>36.405882</ele>
        <time>2020-07-16T08:37:56.846Z</time>
      </trkpt>
      <trkpt lat="69.42762" lon="17.49861">
        <ele>27.172134</ele>
        <time>2020-07-16T08:38:11.958Z</time>
      </trkpt>
      <trkpt lat="69.42903" lon="17.49635">
        <ele>23.657393</ele>
        <time>2020-07-16T08:38:35.273Z</time>
      </trkpt>
      <trkpt lat="69.42995" lon="17.49428">
        <ele>22.552084</ele>
        <time>2020-07-16T08:38:55.775Z</time>
      </trkpt>
      <trkpt lat="69.43136" lon="17.49273">
        <ele>20.681146</ele>
        <time>2020-07-16T08:39:19.140Z</time>
      </trkpt>
      <trkpt lat="69.43175" lon="17.49202">
        <ele>19.768978</ele>
        <time>2020-07-16T08:39:25.490Z</time>
      </trkpt>
      <trkpt lat="69.43206" lon="17.49123">
        <ele>18.952664</ele>
        <time>2020-07-16T08:39:31.108Z</time>
      </trkpt>
      <trkpt lat="69.43329" lon="17.48672">
        <ele>14.087436</ele>
        <time>2020-07-16T08:39:58.415Z</time>
      </trkpt>
      <trkpt lat="69.43399" lon="17.48505">
        <ele>12.180641</ele>
        <time>2020-07-16T08:40:11.102Z</time>
      </trkpt>
      <trkpt lat="69.43405" lon="17.48486">
        <ele>11.992704</ele>
        <time>2020-07-16T08:40:12.395Z</time>
      </trkpt>
      <trkpt lat="69.43412" lon="17.48461">
        <ele>11.762548</ele>
        <time>2020-07-16T08:40:13.866Z</time>
      </trkpt>
      <trkpt lat="69.43417" lon="17.48443">
        <ele>11.600773</ele>
        <time>2020-07-16T08:40:15.130Z</time>
      </trkpt>
      <trkpt lat="69.43426" lon="17.48409">
        <ele>11.296698</ele>
        <time>2020-07-16T08:40:17.272Z</time>
      </trkpt>
      <trkpt lat="69.43428" lon="17.484">
        <ele>11.208559</ele>
        <time>2020-07-16T08:40:17.871Z</time>
      </trkpt>
      <trkpt lat="69.43431" lon="17.4839">
        <ele>11.127519</ele>
        <time>2020-07-16T08:40:18.357Z</time>
      </trkpt>
      <trkpt lat="69.43474" lon="17.48148">
        <ele>9.782209</ele>
        <time>2020-07-16T08:40:32.286Z</time>
      </trkpt>
      <trkpt lat="69.43529" lon="17.47799">
        <ele>8.788571</ele>
        <time>2020-07-16T08:40:53.497Z</time>
      </trkpt>
      <trkpt lat="69.43545" lon="17.477">
        <ele>9.442189</ele>
        <time>2020-07-16T08:41:01.904Z</time>
      </trkpt>
      <trkpt lat="69.43548" lon="17.47683">
        <ele>9.552538</ele>
        <time>2020-07-16T08:41:03.215Z</time>
      </trkpt>
      <trkpt lat="69.43551" lon="17.47659">
        <ele>9.708145</ele>
        <time>2020-07-16T08:41:05.021Z</time>
      </trkpt>
      <trkpt lat="69.43562" lon="17.47607">
        <ele>10.065753</ele>
        <time>2020-07-16T08:41:11.231Z</time>
      </trkpt>
      <trkpt lat="69.43589" lon="17.47526">
        <ele>10.736358</ele>
        <time>2020-07-16T08:41:21.390Z</time>
      </trkpt>
      <trkpt lat="69.43639" lon="17.47479">
        <ele>11.627728</ele>
        <time>2020-07-16T08:41:33.893Z</time>
      </trkpt>
      <trkpt lat="69.43654" lon="17.47476">
        <ele>11.817114</ele>
        <time>2020-07-16T08:41:38.284Z</time>
      </trkpt>
      <trkpt lat="69.43685" lon="17.47469">
        <ele>12.08652</ele>
        <time>2020-07-16T08:41:45.957Z</time>
      </trkpt>
      <trkpt lat="69.437" lon="17.47453">
        <ele>12.217966</ele>
        <time>2020-07-16T08:41:50.030Z</time>
      </trkpt>
      <trkpt lat="69.43714" lon="17.47428">
        <ele>12.359827</ele>
        <time>2020-07-16T08:41:53.297Z</time>
      </trkpt>
      <trkpt lat="69.43755" lon="17.47331">
        <ele>12.817114</ele>
        <time>2020-07-16T08:42:05.056Z</time>
      </trkpt>
      <trkpt lat="69.43827" lon="17.4716">
        <ele>12.802987</ele>
        <time>2020-07-16T08:42:19.940Z</time>
      </trkpt>
      <trkpt lat="69.43898" lon="17.46969">
        <ele>11.591435</ele>
        <time>2020-07-16T08:42:33.913Z</time>
      </trkpt>
      <trkpt lat="69.43908" lon="17.4693">
        <ele>11.379855</ele>
        <time>2020-07-16T08:42:36.531Z</time>
      </trkpt>
      <trkpt lat="69.43922" lon="17.46865">
        <ele>11.055898</ele>
        <time>2020-07-16T08:42:40.668Z</time>
      </trkpt>
      <trkpt lat="69.43942" lon="17.46764">
        <ele>11.103215</ele>
        <time>2020-07-16T08:42:47.309Z</time>
      </trkpt>
      <trkpt lat="69.44013" lon="17.4637">
        <ele>11.314189</ele>
        <time>2020-07-16T08:43:17.301Z</time>
      </trkpt>
      <trkpt lat="69.44037" lon="17.46241">
        <ele>11.464274</ele>
        <time>2020-07-16T08:43:27.687Z</time>
      </trkpt>
      <trkpt lat="69.44059" lon="17.46123">
        <ele>11.600362</ele>
        <time>2020-07-16T08:43:36.529Z</time>
      </trkpt>
      <trkpt lat="69.4407" lon="17.46053">
        <ele>11.678683</ele>
        <time>2020-07-16T08:43:41.616Z</time>
      </trkpt>
      <trkpt lat="69.44095" lon="17.45841">
        <ele>11.596927</ele>
        <time>2020-07-16T08:43:55.182Z</time>
      </trkpt>
      <trkpt lat="69.44108" lon="17.45743">
        <ele>11.422707</ele>
        <time>2020-07-16T08:44:01.199Z</time>
      </trkpt>
      <trkpt lat="69.44137" lon="17.45526">
        <ele>11.037308</ele>
        <time>2020-07-16T08:44:14.669Z</time>
      </trkpt>
      <trkpt lat="69.4414" lon="17.45506">
        <ele>11.001801</ele>
        <time>2020-07-16T08:44:15.886Z</time>
      </trkpt>
      <trkpt lat="69.44149" lon="17.4544">
        <ele>10.757376</ele>
        <time>2020-07-16T08:44:20.019Z</time>
      </trkpt>
      <trkpt lat="69.44152" lon="17.45422">
        <ele>10.650639</ele>
        <time>2020-07-16T08:44:21.169Z</time>
      </trkpt>
      <trkpt lat="69.4416" lon="17.45356">
        <ele>10.271579</ele>
        <time>2020-07-16T08:44:25.028Z</time>
      </trkpt>
      <trkpt lat="69.4418" lon="17.4516">
        <ele>9.170666</ele>
        <time>2020-07-16T08:44:35.645Z</time>
      </trkpt>
      <trkpt lat="69.44186" lon="17.45004">
        <ele>8.316662</ele>
        <time>2020-07-16T08:44:43.408Z</time>
      </trkpt>
      <trkpt lat="69.44187" lon="17.44915">
        <ele>7.695748</ele>
        <time>2020-07-16T08:44:47.601Z</time>
      </trkpt>
      <trkpt lat="69.44188" lon="17.44793">
        <ele>6.755723</ele>
        <time>2020-07-16T08:44:53.415Z</time>
      </trkpt>
      <trkpt lat="69.4419" lon="17.44646">
        <ele>5.623599</ele>
        <time>2020-07-16T08:45:00.499Z</time>
      </trkpt>
      <trkpt lat="69.44195" lon="17.44497">
        <ele>4.472759</ele>
        <time>2020-07-16T08:45:07.789Z</time>
      </trkpt>
      <trkpt lat="69.44207" lon="17.44217">
        <ele>3.543524</ele>
        <time>2020-07-16T08:45:22.854Z</time>
      </trkpt>
      <trkpt lat="69.4423" lon="17.436">
        <ele>2.378705</ele>
        <time>2020-07-16T08:46:00.748Z</time>
      </trkpt>
      <trkpt lat="69.44214" lon="17.43135">
        <ele>1.699346</ele>
        <time>2020-07-16T08:46:26.841Z</time>
      </trkpt>
      <trkpt lat="69.44207" lon="17.42975">
        <ele>1.448235</ele>
        <time>2020-07-16T08:46:36.260Z</time>
      </trkpt>
      <trkpt lat="69.44195" lon="17.42642">
        <ele>1.935334</ele>
        <time>2020-07-16T08:46:59.752Z</time>
      </trkpt>
      <trkpt lat="69.44192" lon="17.42584">
        <ele>2.041202</ele>
        <time>2020-07-16T08:47:03.798Z</time>
      </trkpt>
      <trkpt lat="69.44189" lon="17.42544">
        <ele>2.116226</ele>
        <time>2020-07-16T08:47:06.814Z</time>
      </trkpt>
      <trkpt lat="69.44184" lon="17.42503">
        <ele>2.196922</ele>
        <time>2020-07-16T08:47:09.732Z</time>
      </trkpt>
      <trkpt lat="69.44174" lon="17.42427">
        <ele>2.335926</ele>
        <time>2020-07-16T08:47:15.343Z</time>
      </trkpt>
      <trkpt lat="69.44169" lon="17.42361">
        <ele>2.383427</ele>
        <time>2020-07-16T08:47:20.245Z</time>
      </trkpt>
      <trkpt lat="69.44166" lon="17.42319">
        <ele>2.412983</ele>
        <time>2020-07-16T08:47:22.816Z</time>
      </trkpt>
      <trkpt lat="69.44151" lon="17.42179">
        <ele>2.516232</ele>
        <time>2020-07-16T08:47:32.901Z</time>
      </trkpt>
      <trkpt lat="69.44143" lon="17.42127">
        <ele>2.555315</ele>
        <time>2020-07-16T08:47:36.434Z</time>
      </trkpt>
      <trkpt lat="69.44139" lon="17.42102">
        <ele>2.574618</ele>
        <time>2020-07-16T08:47:38.266Z</time>
      </trkpt>
      <trkpt lat="69.4411" lon="17.41897">
        <ele>2.720554</ele>
        <time>2020-07-16T08:47:51.339Z</time>
      </trkpt>
      <trkpt lat="69.44059" lon="17.41529">
        <ele>2.936151</ele>
        <time>2020-07-16T08:48:16.630Z</time>
      </trkpt>
      <trkpt lat="69.43789" lon="17.40292">
        <ele>7.114059</ele>
        <time>2020-07-16T08:50:01.387Z</time>
      </trkpt>
      <trkpt lat="69.43703" lon="17.3993">
        <ele>8.514275</ele>
        <time>2020-07-16T08:50:35.563Z</time>
      </trkpt>
      <trkpt lat="69.43606" lon="17.39557">
        <ele>9.219719</ele>
        <time>2020-07-16T08:51:06.000Z</time>
      </trkpt>
      <trkpt lat="69.43566" lon="17.39399">
        <ele>9.252886</ele>
        <time>2020-07-16T08:51:17.534Z</time>
      </trkpt>
      <trkpt lat="69.43539" lon="17.39259">
        <ele>9.706971</ele>
        <time>2020-07-16T08:51:27.584Z</time>
      </trkpt>
      <trkpt lat="69.4353" lon="17.39133">
        <ele>10.310467</ele>
        <time>2020-07-16T08:51:35.915Z</time>
      </trkpt>
      <trkpt lat="69.4351" lon="17.38207">
        <ele>17.523795</ele>
        <time>2020-07-16T08:52:58.447Z</time>
      </trkpt>
      <trkpt lat="69.43513" lon="17.38161">
        <ele>18.114884</ele>
        <time>2020-07-16T08:53:03.458Z</time>
      </trkpt>
      <trkpt lat="69.4362" lon="17.37072">
        <ele>31.185044</ele>
        <time>2020-07-16T08:55:02.394Z</time>
      </trkpt>
      <trkpt lat="69.43635" lon="17.36929">
        <ele>32.462824</ele>
        <time>2020-07-16T08:55:13.294Z</time>
      </trkpt>
      <trkpt lat="69.43655" lon="17.3674">
        <ele>33.960151</ele>
        <time>2020-07-16T08:55:26.944Z</time>
      </trkpt>
      <trkpt lat="69.43672" lon="17.36568">
        <ele>35.200529</ele>
        <time>2020-07-16T08:55:40.715Z</time>
      </trkpt>
      <trkpt lat="69.43683" lon="17.36504">
        <ele>35.705698</ele>
        <time>2020-07-16T08:55:47.233Z</time>
      </trkpt>
      <trkpt lat="69.43697" lon="17.36448">
        <ele>36.181142</ele>
        <time>2020-07-16T08:55:53.830Z</time>
      </trkpt>
      <trkpt lat="69.43744" lon="17.36264">
        <ele>38.866373</ele>
        <time>2020-07-16T08:56:17.976Z</time>
      </trkpt>
      <trkpt lat="69.43872" lon="17.35781">
        <ele>44.942829</ele>
        <time>2020-07-16T08:57:25.419Z</time>
      </trkpt>
      <trkpt lat="69.44041" lon="17.35257">
        <ele>41.433756</ele>
        <time>2020-07-16T08:58:00.563Z</time>
      </trkpt>
      <trkpt lat="69.4408" lon="17.3512">
        <ele>38.806591</ele>
        <time>2020-07-16T08:58:07.860Z</time>
      </trkpt>
      <trkpt lat="69.44111" lon="17.34899">
        <ele>34.448809</ele>
        <time>2020-07-16T08:58:17.659Z</time>
      </trkpt>
      <trkpt lat="69.44138" lon="17.34659">
        <ele>31.418876</ele>
        <time>2020-07-16T08:58:28.338Z</time>
      </trkpt>
      <trkpt lat="69.44153" lon="17.34311">
        <ele>31.777483</ele>
        <time>2020-07-16T08:58:53.132Z</time>
      </trkpt>
      <trkpt lat="69.44152" lon="17.34212">
        <ele>32.332484</ele>
        <time>2020-07-16T08:59:04.136Z</time>
      </trkpt>
      <trkpt lat="69.44147" lon="17.34139">
        <ele>34.143828</ele>
        <time>2020-07-16T08:59:11.761Z</time>
      </trkpt>
      <trkpt lat="69.44156" lon="17.34134">
        <ele>34.774233</ele>
        <time>2020-07-16T08:59:16.549Z</time>
      </trkpt>
      <trkpt lat="69.4417" lon="17.34165">
        <ele>36.008584</ele>
        <time>2020-07-16T08:59:22.191Z</time>
      </trkpt>
      <trkpt lat="69.44191" lon="17.34392">
        <ele>41.75026</ele>
        <time>2020-07-16T08:59:55.747Z</time>
      </trkpt>
      <trkpt lat="69.44206" lon="17.34719">
        <ele>56.147925</ele>
        <time>2020-07-16T09:00:55.014Z</time>
      </trkpt>
      <trkpt lat="69.44206" lon="17.34928">
        <ele>67.18918</ele>
        <time>2020-07-16T09:01:50.535Z</time>
      </trkpt>
      <trkpt lat="69.44205" lon="17.34966">
        <ele>69.15584</ele>
        <time>2020-07-16T09:02:02.458Z</time>
      </trkpt>
      <trkpt lat="69.44211" lon="17.35043">
        <ele>73.62538</ele>
        <time>2020-07-16T09:02:24.028Z</time>
      </trkpt>
      <trkpt lat="69.44215" lon="17.35066">
        <ele>75.259744</ele>
        <time>2020-07-16T09:02:32.547Z</time>
      </trkpt>
      <trkpt lat="69.4423" lon="17.35135">
        <ele>80.166086</ele>
        <time>2020-07-16T09:02:55.758Z</time>
      </trkpt>
      <trkpt lat="69.44244" lon="17.3518">
        <ele>83.949766</ele>
        <time>2020-07-16T09:03:13.901Z</time>
      </trkpt>
      <trkpt lat="69.44261" lon="17.35209">
        <ele>87.401181</ele>
        <time>2020-07-16T09:03:31.824Z</time>
      </trkpt>
      <trkpt lat="69.44279" lon="17.35229">
        <ele>90.750518</ele>
        <time>2020-07-16T09:03:47.641Z</time>
      </trkpt>
      <trkpt lat="69.44297" lon="17.3523">
        <ele>93.792618</ele>
        <time>2020-07-16T09:04:03.601Z</time>
      </trkpt>
      <trkpt lat="69.45142" lon="17.34973">
        <ele>166.270119</ele>
        <time>2020-07-16T09:11:18.902Z</time>
      </trkpt>
      <trkpt lat="69.45163" lon="17.3496">
        <ele>163.562318</ele>
        <time>2020-07-16T09:11:21.168Z</time>
      </trkpt>
      <trkpt lat="69.4518" lon="17.34928">
        <ele>160.913312</ele>
        <time>2020-07-16T09:11:23.384Z</time>
      </trkpt>
      <trkpt lat="69.45219" lon="17.34762">
        <ele>149.472093</ele>
        <time>2020-07-16T09:11:30.978Z</time>
      </trkpt>
      <trkpt lat="69.45235" lon="17.34711">
        <ele>141.101118</ele>
        <time>2020-07-16T09:11:33.586Z</time>
      </trkpt>
      <trkpt lat="69.45255" lon="17.34674">
        <ele>132.538081</ele>
        <time>2020-07-16T09:11:36.248Z</time>
      </trkpt>
      <trkpt lat="69.45285" lon="17.34632">
        <ele>120.659753</ele>
        <time>2020-07-16T09:11:39.962Z</time>
      </trkpt>
      <trkpt lat="69.45293" lon="17.34623">
        <ele>117.818411</ele>
        <time>2020-07-16T09:11:40.826Z</time>
      </trkpt>
      <trkpt lat="69.45317" lon="17.34627">
        <ele>109.291889</ele>
        <time>2020-07-16T09:11:43.337Z</time>
      </trkpt>
      <trkpt lat="69.45365" lon="17.34667">
        <ele>91.420815</ele>
        <time>2020-07-16T09:11:48.620Z</time>
      </trkpt>
      <trkpt lat="69.45532" lon="17.34751">
        <ele>56.696387</ele>
        <time>2020-07-16T09:12:05.831Z</time>
      </trkpt>
      <trkpt lat="69.45578" lon="17.3479">
        <ele>50.54762</ele>
        <time>2020-07-16T09:12:11.070Z</time>
      </trkpt>
      <trkpt lat="69.45659" lon="17.34905">
        <ele>42.250284</ele>
        <time>2020-07-16T09:12:21.091Z</time>
      </trkpt>
      <trkpt lat="69.45687" lon="17.3497">
        <ele>38.907672</ele>
        <time>2020-07-16T09:12:25.315Z</time>
      </trkpt>
      <trkpt lat="69.45738" lon="17.35088">
        <ele>35.141516</ele>
        <time>2020-07-16T09:12:33.161Z</time>
      </trkpt>
      <trkpt lat="69.45795" lon="17.35158">
        <ele>32.516283</ele>
        <time>2020-07-16T09:12:40.768Z</time>
      </trkpt>
      <trkpt lat="69.4601" lon="17.35316">
        <ele>26.34003</ele>
        <time>2020-07-16T09:13:10.550Z</time>
      </trkpt>
      <trkpt lat="69.46057" lon="17.35342">
        <ele>25.774233</ele>
        <time>2020-07-16T09:13:18.902Z</time>
      </trkpt>
      <trkpt lat="69.46108" lon="17.3535">
        <ele>25.994195</ele>
        <time>2020-07-16T09:13:28.973Z</time>
      </trkpt>
      <trkpt lat="69.46143" lon="17.35338">
        <ele>26.144875</ele>
        <time>2020-07-16T09:13:36.380Z</time>
      </trkpt>
      <trkpt lat="69.46174" lon="17.35311">
        <ele>26.279508</ele>
        <time>2020-07-16T09:13:43.167Z</time>
      </trkpt>
      <trkpt lat="69.46241" lon="17.3521">
        <ele>26.146075</ele>
        <time>2020-07-16T09:13:58.519Z</time>
      </trkpt>
      <trkpt lat="69.46277" lon="17.35125">
        <ele>25.692158</ele>
        <time>2020-07-16T09:14:06.353Z</time>
      </trkpt>
      <trkpt lat="69.46358" lon="17.34858">
        <ele>24.438588</ele>
        <time>2020-07-16T09:14:23.840Z</time>
      </trkpt>
      <trkpt lat="69.46433" lon="17.34637">
        <ele>23.235234</ele>
        <time>2020-07-16T09:14:39.536Z</time>
      </trkpt>
      <trkpt lat="69.46455" lon="17.346">
        <ele>22.956872</ele>
        <time>2020-07-16T09:14:43.602Z</time>
      </trkpt>
      <trkpt lat="69.46637" lon="17.34384">
        <ele>24.473198</ele>
        <time>2020-07-16T09:15:25.775Z</time>
      </trkpt>
      <trkpt lat="69.46821" lon="17.3401">
        <ele>27.724233</ele>
        <time>2020-07-16T09:16:18.362Z</time>
      </trkpt>
      <trkpt lat="69.46896" lon="17.33872">
        <ele>28.348952</ele>
        <time>2020-07-16T09:16:36.787Z</time>
      </trkpt>
      <trkpt lat="69.47096" lon="17.3354">
        <ele>28.082367</ele>
        <time>2020-07-16T09:17:16.096Z</time>
      </trkpt>
      <trkpt lat="69.47165" lon="17.33463">
        <ele>27.45081</ele>
        <time>2020-07-16T09:17:27.776Z</time>
      </trkpt>
      <trkpt lat="69.47594" lon="17.33157">
        <ele>23.648794</ele>
        <time>2020-07-16T09:18:37.033Z</time>
      </trkpt>
      <trkpt lat="69.47658" lon="17.33126">
        <ele>23.153532</ele>
        <time>2020-07-16T09:18:47.417Z</time>
      </trkpt>
      <trkpt lat="69.47719" lon="17.33117">
        <ele>22.731502</ele>
        <time>2020-07-16T09:18:57.070Z</time>
      </trkpt>
      <trkpt lat="69.47854" lon="17.33128">
        <ele>21.925454</ele>
        <time>2020-07-16T09:19:18.815Z</time>
      </trkpt>
      <trkpt lat="69.48044" lon="17.33123">
        <ele>21.373297</ele>
        <time>2020-07-16T09:19:50.998Z</time>
      </trkpt>
      <trkpt lat="69.48162" lon="17.33162">
        <ele>21.485543</ele>
        <time>2020-07-16T09:20:12.956Z</time>
      </trkpt>
      <trkpt lat="69.48253" lon="17.33225">
        <ele>22.562669</ele>
        <time>2020-07-16T09:20:31.605Z</time>
      </trkpt>
      <trkpt lat="69.48343" lon="17.33264">
        <ele>23.852911</ele>
        <time>2020-07-16T09:20:51.968Z</time>
      </trkpt>
      <trkpt lat="69.48564" lon="17.33329">
        <ele>30.56104</ele>
        <time>2020-07-16T09:21:56.367Z</time>
      </trkpt>
      <trkpt lat="69.48659" lon="17.33333">
        <ele>33.097053</ele>
        <time>2020-07-16T09:22:23.653Z</time>
      </trkpt>
      <trkpt lat="69.48711" lon="17.33326">
        <ele>33.078906</ele>
        <time>2020-07-16T09:22:34.592Z</time>
      </trkpt>
      <trkpt lat="69.48766" lon="17.33331">
        <ele>30.972675</ele>
        <time>2020-07-16T09:22:42.737Z</time>
      </trkpt>
      <trkpt lat="69.48865" lon="17.33386">
        <ele>27.178522</ele>
        <time>2020-07-16T09:22:54.632Z</time>
      </trkpt>
      <trkpt lat="69.48899" lon="17.33418">
        <ele>24.314048</ele>
        <time>2020-07-16T09:22:58.617Z</time>
      </trkpt>
      <trkpt lat="69.48919" lon="17.33468">
        <ele>22.134068</ele>
        <time>2020-07-16T09:23:01.544Z</time>
      </trkpt>
      <trkpt lat="69.48931" lon="17.3353">
        <ele>20.10072</ele>
        <time>2020-07-16T09:23:04.290Z</time>
      </trkpt>
      <trkpt lat="69.48936" lon="17.33612">
        <ele>17.721354</ele>
        <time>2020-07-16T09:23:07.518Z</time>
      </trkpt>
      <trkpt lat="69.48929" lon="17.33831">
        <ele>11.823137</ele>
        <time>2020-07-16T09:23:16.223Z</time>
      </trkpt>
      <trkpt lat="69.48917" lon="17.34011">
        <ele>8.809545</ele>
        <time>2020-07-16T09:23:23.756Z</time>
      </trkpt>
      <trkpt lat="69.48908" lon="17.34087">
        <ele>7.493091</ele>
        <time>2020-07-16T09:23:27.216Z</time>
      </trkpt>
      <trkpt lat="69.48855" lon="17.34279">
        <ele>3.812322</ele>
        <time>2020-07-16T09:23:38.512Z</time>
      </trkpt>
      <trkpt lat="69.48789" lon="17.3465">
        <ele>1.905176</ele>
        <time>2020-07-16T09:24:00.789Z</time>
      </trkpt>
      <trkpt lat="69.48608" lon="17.35393">
        <ele>0.433651</ele>
        <time>2020-07-16T09:24:53.850Z</time>
      </trkpt>
      <trkpt lat="69.48595" lon="17.35473">
        <ele>0.343209</ele>
        <time>2020-07-16T09:24:59.184Z</time>
      </trkpt>
      <trkpt lat="69.4856" lon="17.35829">
        <ele>0.16573</ele>
        <time>2020-07-16T09:25:21.909Z</time>
      </trkpt>
      <trkpt lat="69.48539" lon="17.3597">
        <ele>0.124465</ele>
        <time>2020-07-16T09:25:31.384Z</time>
      </trkpt>
      <trkpt lat="69.48487" lon="17.3622">
        <ele>0.07776</ele>
        <time>2020-07-16T09:25:49.465Z</time>
      </trkpt>
      <trkpt lat="69.48403" lon="17.36573">
        <ele>0.070561</ele>
        <time>2020-07-16T09:26:16.020Z</time>
      </trkpt>
      <trkpt lat="69.48363" lon="17.3669">
        <ele>0.110454</ele>
        <time>2020-07-16T09:26:26.343Z</time>
      </trkpt>
      <trkpt lat="69.48315" lon="17.36806">
        <ele>0.154414</ele>
        <time>2020-07-16T09:26:37.835Z</time>
      </trkpt>
      <trkpt lat="69.48194" lon="17.37047">
        <ele>0.408653</ele>
        <time>2020-07-16T09:27:05.220Z</time>
      </trkpt>
      <trkpt lat="69.48169" lon="17.37118">
        <ele>0.474571</ele>
        <time>2020-07-16T09:27:11.688Z</time>
      </trkpt>
      <trkpt lat="69.48141" lon="17.37232">
        <ele>0.510829</ele>
        <time>2020-07-16T09:27:20.607Z</time>
      </trkpt>
      <trkpt lat="69.48127" lon="17.37327">
        <ele>0.514092</ele>
        <time>2020-07-16T09:27:27.162Z</time>
      </trkpt>
      <trkpt lat="69.48103" lon="17.37535">
        <ele>0.520976</ele>
        <time>2020-07-16T09:27:40.750Z</time>
      </trkpt>
      <trkpt lat="69.48086" lon="17.37627">
        <ele>0.522831</ele>
        <time>2020-07-16T09:27:47.205Z</time>
      </trkpt>
      <trkpt lat="69.48063" lon="17.37702">
        <ele>0.471942</ele>
        <time>2020-07-16T09:27:53.221Z</time>
      </trkpt>
      <trkpt lat="69.47957" lon="17.38017">
        <ele>0.308561</ele>
        <time>2020-07-16T09:28:19.696Z</time>
      </trkpt>
      <trkpt lat="69.47946" lon="17.38057">
        <ele>0.407537</ele>
        <time>2020-07-16T09:28:22.899Z</time>
      </trkpt>
      <trkpt lat="69.47932" lon="17.38169">
        <ele>0.639239</ele>
        <time>2020-07-16T09:28:30.519Z</time>
      </trkpt>
      <trkpt lat="69.47927" lon="17.38347">
        <ele>0.984849</ele>
        <time>2020-07-16T09:28:42.750Z</time>
      </trkpt>
      <trkpt lat="69.47922" lon="17.38434">
        <ele>1.15647</ele>
        <time>2020-07-16T09:28:49.226Z</time>
      </trkpt>
      <trkpt lat="69.4791" lon="17.38548">
        <ele>1.674792</ele>
        <time>2020-07-16T09:28:58.302Z</time>
      </trkpt>
      <trkpt lat="69.47851" lon="17.38953">
        <ele>4.404161</ele>
        <time>2020-07-16T09:29:35.559Z</time>
      </trkpt>
      <trkpt lat="69.47846" lon="17.39017">
        <ele>4.564645</ele>
        <time>2020-07-16T09:29:41.412Z</time>
      </trkpt>
      <trkpt lat="69.47848" lon="17.3915">
        <ele>4.841495</ele>
        <time>2020-07-16T09:29:52.189Z</time>
      </trkpt>
      <trkpt lat="69.47867" lon="17.39283">
        <ele>5.140505</ele>
        <time>2020-07-16T09:30:02.155Z</time>
      </trkpt>
      <trkpt lat="69.47899" lon="17.39406">
        <ele>5.45982</ele>
        <time>2020-07-16T09:30:11.366Z</time>
      </trkpt>
      <trkpt lat="69.47909" lon="17.39444">
        <ele>5.367279</ele>
        <time>2020-07-16T09:30:13.988Z</time>
      </trkpt>
      <trkpt lat="69.47988" lon="17.39746">
        <ele>3.207672</ele>
        <time>2020-07-16T09:30:32.886Z</time>
      </trkpt>
      <trkpt lat="69.48068" lon="17.40033">
        <ele>1.452156</ele>
        <time>2020-07-16T09:30:51.254Z</time>
      </trkpt>
      <trkpt lat="69.48089" lon="17.4012">
        <ele>0.993028</ele>
        <time>2020-07-16T09:30:57.038Z</time>
      </trkpt>
      <trkpt lat="69.481" lon="17.40173">
        <ele>0.722339</ele>
        <time>2020-07-16T09:31:00.572Z</time>
      </trkpt>
      <trkpt lat="69.4811" lon="17.40229">
        <ele>0.452164</ele>
        <time>2020-07-16T09:31:04.117Z</time>
      </trkpt>
      <trkpt lat="69.48118" lon="17.40293">
        <ele>0.305331</ele>
        <time>2020-07-16T09:31:08.098Z</time>
      </trkpt>
      <trkpt lat="69.48125" lon="17.40389">
        <ele>0.250441</ele>
        <time>2020-07-16T09:31:13.929Z</time>
      </trkpt>
      <trkpt lat="69.48126" lon="17.40507">
        <ele>0.184448</ele>
        <time>2020-07-16T09:31:21.145Z</time>
      </trkpt>
      <trkpt lat="69.48113" lon="17.40703">
        <ele>0.07218</ele>
        <time>2020-07-16T09:31:33.649Z</time>
      </trkpt>
      <trkpt lat="69.48097" lon="17.40836">
        <ele>0.126153</ele>
        <time>2020-07-16T09:31:42.472Z</time>
      </trkpt>
      <trkpt lat="69.47975" lon="17.41661">
        <ele>1.844725</ele>
        <time>2020-07-16T09:32:42.170Z</time>
      </trkpt>
      <trkpt lat="69.47963" lon="17.41803">
        <ele>3.062052</ele>
        <time>2020-07-16T09:32:55.410Z</time>
      </trkpt>
      <trkpt lat="69.47956" lon="17.41921">
        <ele>4.410613</ele>
        <time>2020-07-16T09:33:06.748Z</time>
      </trkpt>
      <trkpt lat="69.47954" lon="17.41951">
        <ele>4.756891</ele>
        <time>2020-07-16T09:33:09.374Z</time>
      </trkpt>
      <trkpt lat="69.47952" lon="17.41972">
        <ele>5.000493</ele>
        <time>2020-07-16T09:33:12.598Z</time>
      </trkpt>
      <trkpt lat="69.47933" lon="17.42104">
        <ele>6.598959</ele>
        <time>2020-07-16T09:33:27.030Z</time>
      </trkpt>
      <trkpt lat="69.47897" lon="17.4225">
        <ele>8.499999</ele>
        <time>2020-07-16T09:33:47.172Z</time>
      </trkpt>
      <trkpt lat="69.47808" lon="17.42467">
        <ele>11.84837</ele>
        <time>2020-07-16T09:34:19.825Z</time>
      </trkpt>
      <trkpt lat="69.47758" lon="17.42563">
        <ele>13.394378</ele>
        <time>2020-07-16T09:34:33.039Z</time>
      </trkpt>
      <trkpt lat="69.47729" lon="17.42622">
        <ele>14.135269</ele>
        <time>2020-07-16T09:34:39.608Z</time>
      </trkpt>
      <trkpt lat="69.47693" lon="17.42674">
        <ele>14.998423</ele>
        <time>2020-07-16T09:34:48.551Z</time>
      </trkpt>
      <trkpt lat="69.47607" lon="17.42763">
        <ele>17.937699</ele>
        <time>2020-07-16T09:35:12.517Z</time>
      </trkpt>
      <trkpt lat="69.47591" lon="17.42782">
        <ele>19.692206</ele>
        <time>2020-07-16T09:35:18.592Z</time>
      </trkpt>
      <trkpt lat="69.47572" lon="17.42809">
        <ele>21.907965</ele>
        <time>2020-07-16T09:35:25.503Z</time>
      </trkpt>
      <trkpt lat="69.47563" lon="17.42823">
        <ele>22.916918</ele>
        <time>2020-07-16T09:35:30.116Z</time>
      </trkpt>
      <trkpt lat="69.47531" lon="17.42902">
        <ele>27.285248</ele>
        <time>2020-07-16T09:35:50.454Z</time>
      </trkpt>
      <trkpt lat="69.47516" lon="17.42961">
        <ele>29.921733</ele>
        <time>2020-07-16T09:36:04.299Z</time>
      </trkpt>
      <trkpt lat="69.47497" lon="17.43096">
        <ele>35.273188</ele>
        <time>2020-07-16T09:36:36.311Z</time>
      </trkpt>
      <trkpt lat="69.47496" lon="17.4322">
        <ele>48.087909</ele>
        <time>2020-07-16T09:37:13.091Z</time>
      </trkpt>
      <trkpt lat="69.475" lon="17.4329">
        <ele>55.489813</ele>
        <time>2020-07-16T09:37:35.957Z</time>
      </trkpt>
      <trkpt lat="69.47506" lon="17.43329">
        <ele>59.889242</ele>
        <time>2020-07-16T09:37:49.626Z</time>
      </trkpt>
      <trkpt lat="69.47513" lon="17.43378">
        <ele>65.433704</ele>
        <time>2020-07-16T09:38:06.926Z</time>
      </trkpt>
      <trkpt lat="69.47532" lon="17.43466">
        <ele>76.168234</ele>
        <time>2020-07-16T09:38:40.733Z</time>
      </trkpt>
      <trkpt lat="69.47612" lon="17.43798">
        <ele>127.959464</ele>
        <time>2020-07-16T09:40:55.185Z</time>
      </trkpt>
      <trkpt lat="69.47988" lon="17.46087">
        <ele>404.791244</ele>
        <time>2020-07-16T09:54:51.716Z</time>
      </trkpt>
      <trkpt lat="69.48351" lon="17.48225">
        <ele>100.793177</ele>
        <time>2020-07-16T09:56:20.542Z</time>
      </trkpt>
      <trkpt lat="69.48381" lon="17.48356">
        <ele>79.170182</ele>
        <time>2020-07-16T09:56:26.453Z</time>
      </trkpt>
      <trkpt lat="69.48396" lon="17.48426">
        <ele>67.865253</ele>
        <time>2020-07-16T09:56:29.478Z</time>
      </trkpt>
      <trkpt lat="69.48412" lon="17.4849">
        <ele>56.894749</ele>
        <time>2020-07-16T09:56:32.393Z</time>
      </trkpt>
      <trkpt lat="69.48421" lon="17.48514">
        <ele>52.073613</ele>
        <time>2020-07-16T09:56:33.693Z</time>
      </trkpt>
      <trkpt lat="69.48475" lon="17.48619">
        <ele>33.237477</ele>
        <time>2020-07-16T09:56:40.469Z</time>
      </trkpt>
      <trkpt lat="69.48521" lon="17.48657">
        <ele>26.044285</ele>
        <time>2020-07-16T09:56:45.367Z</time>
      </trkpt>
      <trkpt lat="69.48545" lon="17.48665">
        <ele>22.502157</ele>
        <time>2020-07-16T09:56:47.841Z</time>
      </trkpt>
      <trkpt lat="69.48552" lon="17.48664">
        <ele>21.429691</ele>
        <time>2020-07-16T09:56:48.594Z</time>
      </trkpt>
      <trkpt lat="69.48549" lon="17.487">
        <ele>19.483716</ele>
        <time>2020-07-16T09:56:50.133Z</time>
      </trkpt>
      <trkpt lat="69.48522" lon="17.48848">
        <ele>10.63931</ele>
        <time>2020-07-16T09:56:57.091Z</time>
      </trkpt>
      <trkpt lat="69.48517" lon="17.48884">
        <ele>10.334948</ele>
        <time>2020-07-16T09:56:58.822Z</time>
      </trkpt>
      <trkpt lat="69.48514" lon="17.48929">
        <ele>10.100238</ele>
        <time>2020-07-16T09:57:00.756Z</time>
      </trkpt>
      <trkpt lat="69.48514" lon="17.48969">
        <ele>9.895097</ele>
        <time>2020-07-16T09:57:02.780Z</time>
      </trkpt>
      <trkpt lat="69.48522" lon="17.49059">
        <ele>9.425392</ele>
        <time>2020-07-16T09:57:07.095Z</time>
      </trkpt>
      <trkpt lat="69.4853" lon="17.49104">
        <ele>9.162754</ele>
        <time>2020-07-16T09:57:10.677Z</time>
      </trkpt>
      <trkpt lat="69.48545" lon="17.49157">
        <ele>8.815815</ele>
        <time>2020-07-16T09:57:15.222Z</time>
      </trkpt>
      <trkpt lat="69.48571" lon="17.49207">
        <ele>8.366826</ele>
        <time>2020-07-16T09:57:21.096Z</time>
      </trkpt>
      <trkpt lat="69.48606" lon="17.49253">
        <ele>7.94125</ele>
        <time>2020-07-16T09:57:28.430Z</time>
      </trkpt>
      <trkpt lat="69.48657" lon="17.49327">
        <ele>8.305146</ele>
        <time>2020-07-16T09:57:39.220Z</time>
      </trkpt>
      <trkpt lat="69.4908" lon="17.49901">
        <ele>11.079096</ele>
        <time>2020-07-16T09:59:13.591Z</time>
      </trkpt>
      <trkpt lat="69.49162" lon="17.50003">
        <ele>10.237386</ele>
        <time>2020-07-16T09:59:28.059Z</time>
      </trkpt>
      <trkpt lat="69.49374" lon="17.50197">
        <ele>7.223972</ele>
        <time>2020-07-16T10:00:00.276Z</time>
      </trkpt>
      <trkpt lat="69.49444" lon="17.50254">
        <ele>6.433818</ele>
        <time>2020-07-16T10:00:11.063Z</time>
      </trkpt>
      <trkpt lat="69.49475" lon="17.5028">
        <ele>6.55161</ele>
        <time>2020-07-16T10:00:15.992Z</time>
      </trkpt>
      <trkpt lat="69.49517" lon="17.50302">
        <ele>6.711465</ele>
        <time>2020-07-16T10:00:23.677Z</time>
      </trkpt>
      <trkpt lat="69.49585" lon="17.50292">
        <ele>6.969957</ele>
        <time>2020-07-16T10:00:38.866Z</time>
      </trkpt>
      <trkpt lat="69.49595" lon="17.50294">
        <ele>7.007537</ele>
        <time>2020-07-16T10:00:40.926Z</time>
      </trkpt>
      <trkpt lat="69.4961" lon="17.50303">
        <ele>7.168683</ele>
        <time>2020-07-16T10:00:44.721Z</time>
      </trkpt>
      <trkpt lat="69.49623" lon="17.50315">
        <ele>7.436946</ele>
        <time>2020-07-16T10:00:47.802Z</time>
      </trkpt>
      <trkpt lat="69.49639" lon="17.50335">
        <ele>7.779702</ele>
        <time>2020-07-16T10:00:52.284Z</time>
      </trkpt>
      <trkpt lat="69.49663" lon="17.50375">
        <ele>8.322652</ele>
        <time>2020-07-16T10:00:58.935Z</time>
      </trkpt>
      <trkpt lat="69.4968" lon="17.50417">
        <ele>8.771045</ele>
        <time>2020-07-16T10:01:04.746Z</time>
      </trkpt>
      <trkpt lat="69.49759" lon="17.50681">
        <ele>11.044382</ele>
        <time>2020-07-16T10:01:34.401Z</time>
      </trkpt>
      <trkpt lat="69.49773" lon="17.50728">
        <ele>11.379849</ele>
        <time>2020-07-16T10:01:39.218Z</time>
      </trkpt>
      <trkpt lat="69.49864" lon="17.51005">
        <ele>13.579453</ele>
        <time>2020-07-16T10:02:08.235Z</time>
      </trkpt>
      <trkpt lat="69.4988" lon="17.51063">
        <ele>14.521192</ele>
        <time>2020-07-16T10:02:14.515Z</time>
      </trkpt>
      <trkpt lat="69.49892" lon="17.5115">
        <ele>15.73103</ele>
        <time>2020-07-16T10:02:23.206Z</time>
      </trkpt>
      <trkpt lat="69.49924" lon="17.51645">
        <ele>21.722553</ele>
        <time>2020-07-16T10:03:21.421Z</time>
      </trkpt>
      <trkpt lat="69.49962" lon="17.5211">
        <ele>25.125203</ele>
        <time>2020-07-16T10:04:01.629Z</time>
      </trkpt>
      <trkpt lat="69.49963" lon="17.52122">
        <ele>25.123597</ele>
        <time>2020-07-16T10:04:03.672Z</time>
      </trkpt>
      <trkpt lat="69.49963" lon="17.52157">
        <ele>25.119177</ele>
        <time>2020-07-16T10:04:05.046Z</time>
      </trkpt>
      <trkpt lat="69.49962" lon="17.52217">
        <ele>25.111473</ele>
        <time>2020-07-16T10:04:10.614Z</time>
      </trkpt>
      <trkpt lat="69.49958" lon="17.52255">
        <ele>25.106343</ele>
        <time>2020-07-16T10:04:12.321Z</time>
      </trkpt>
      <trkpt lat="69.49952" lon="17.52298">
        <ele>25.100428</ele>
        <time>2020-07-16T10:04:15.663Z</time>
      </trkpt>
      <trkpt lat="69.49925" lon="17.52459">
        <ele>25.077439</ele>
        <time>2020-07-16T10:04:25.180Z</time>
      </trkpt>
      <trkpt lat="69.49875" lon="17.52626">
        <ele>25.346011</ele>
        <time>2020-07-16T10:04:37.649Z</time>
      </trkpt>
      <trkpt lat="69.4977" lon="17.52854">
        <ele>25.309699</ele>
        <time>2020-07-16T10:05:07.902Z</time>
      </trkpt>
      <trkpt lat="69.49639" lon="17.53251">
        <ele>21.583155</ele>
        <time>2020-07-16T10:05:34.108Z</time>
      </trkpt>
      <trkpt lat="69.49501" lon="17.5355">
        <ele>16.375887</ele>
        <time>2020-07-16T10:05:56.316Z</time>
      </trkpt>
      <trkpt lat="69.4941" lon="17.53795">
        <ele>14.161854</ele>
        <time>2020-07-16T10:06:14.290Z</time>
      </trkpt>
      <trkpt lat="69.4937" lon="17.53889">
        <ele>14.252443</ele>
        <time>2020-07-16T10:06:23.785Z</time>
      </trkpt>
      <trkpt lat="69.49366" lon="17.539">
        <ele>14.359804</ele>
        <time>2020-07-16T10:06:24.718Z</time>
      </trkpt>
      <trkpt lat="69.4934" lon="17.53984">
        <ele>15.089948</ele>
        <time>2020-07-16T10:06:32.990Z</time>
      </trkpt>
      <trkpt lat="69.493" lon="17.54306">
        <ele>17.544075</ele>
        <time>2020-07-16T10:07:05.117Z</time>
      </trkpt>
      <trkpt lat="69.49272" lon="17.54403">
        <ele>19.117011</ele>
        <time>2020-07-16T10:07:19.522Z</time>
      </trkpt>
      <trkpt lat="69.4913" lon="17.54767">
        <ele>22.794394</ele>
        <time>2020-07-16T10:08:15.344Z</time>
      </trkpt>
      <trkpt lat="69.49099" lon="17.54902">
        <ele>22.182176</ele>
        <time>2020-07-16T10:08:23.701Z</time>
      </trkpt>
      <trkpt lat="69.48961" lon="17.55309">
        <ele>12.89246</ele>
        <time>2020-07-16T10:08:46.962Z</time>
      </trkpt>
      <trkpt lat="69.48895" lon="17.55423">
        <ele>8.893294</ele>
        <time>2020-07-16T10:08:55.935Z</time>
      </trkpt>
      <trkpt lat="69.4883" lon="17.55512">
        <ele>5.742157</ele>
        <time>2020-07-16T10:09:04.790Z</time>
      </trkpt>
      <trkpt lat="69.48729" lon="17.55611">
        <ele>2.348806</ele>
        <time>2020-07-16T10:09:19.102Z</time>
      </trkpt>
      <trkpt lat="69.48689" lon="17.5562">
        <ele>1.882058</ele>
        <time>2020-07-16T10:09:25.154Z</time>
      </trkpt>
      <trkpt lat="69.48447" lon="17.55559">
        <ele>0.46191</ele>
        <time>2020-07-16T10:10:06.035Z</time>
      </trkpt>
      <trkpt lat="69.48334" lon="17.55554">
        <ele>0.787167</ele>
        <time>2020-07-16T10:10:27.676Z</time>
      </trkpt>
      <trkpt lat="69.48282" lon="17.55534">
        <ele>1.061415</ele>
        <time>2020-07-16T10:10:38.252Z</time>
      </trkpt>
      <trkpt lat="69.48263" lon="17.55514">
        <ele>1.167405</ele>
        <time>2020-07-16T10:10:42.284Z</time>
      </trkpt>
      <trkpt lat="69.48196" lon="17.55428">
        <ele>1.427374</ele>
        <time>2020-07-16T10:10:56.844Z</time>
      </trkpt>
      <trkpt lat="69.48158" lon="17.55373">
        <ele>1.519733</ele>
        <time>2020-07-16T10:11:04.949Z</time>
      </trkpt>
      <trkpt lat="69.48121" lon="17.55331">
        <ele>1.606903</ele>
        <time>2020-07-16T10:11:12.360Z</time>
      </trkpt>
      <trkpt lat="69.48096" lon="17.5532">
        <ele>1.660948</ele>
        <time>2020-07-16T10:11:16.830Z</time>
      </trkpt>
      <trkpt lat="69.47947" lon="17.55332">
        <ele>1.318017</ele>
        <time>2020-07-16T10:11:41.954Z</time>
      </trkpt>
      <trkpt lat="69.47866" lon="17.55301">
        <ele>1.129799</ele>
        <time>2020-07-16T10:11:55.676Z</time>
      </trkpt>
      <trkpt lat="69.47821" lon="17.5526">
        <ele>1.189518</ele>
        <time>2020-07-16T10:12:03.697Z</time>
      </trkpt>
      <trkpt lat="69.47581" lon="17.54973">
        <ele>2.637503</ele>
        <time>2020-07-16T10:12:53.571Z</time>
      </trkpt>
      <trkpt lat="69.47553" lon="17.54945">
        <ele>2.894865</ele>
        <time>2020-07-16T10:13:00.752Z</time>
      </trkpt>
      <trkpt lat="69.4751" lon="17.54914">
        <ele>4.446532</ele>
        <time>2020-07-16T10:13:12.101Z</time>
      </trkpt>
      <trkpt lat="69.47495" lon="17.54912">
        <ele>4.996625</ele>
        <time>2020-07-16T10:13:16.544Z</time>
      </trkpt>
      <trkpt lat="69.47468" lon="17.5493">
        <ele>6.026531</ele>
        <time>2020-07-16T10:13:25.404Z</time>
      </trkpt>
      <trkpt lat="69.47446" lon="17.54961">
        <ele>6.917643</ele>
        <time>2020-07-16T10:13:33.181Z</time>
      </trkpt>
      <trkpt lat="69.4739" lon="17.55091">
        <ele>9.563177</ele>
        <time>2020-07-16T10:13:56.574Z</time>
      </trkpt>
      <trkpt lat="69.47368" lon="17.55144">
        <ele>10.500689</ele>
        <time>2020-07-16T10:14:05.189Z</time>
      </trkpt>
      <trkpt lat="69.47362" lon="17.5516">
        <ele>10.780952</ele>
        <time>2020-07-16T10:14:08.256Z</time>
      </trkpt>
      <trkpt lat="69.47285" lon="17.55345">
        <ele>14.081413</ele>
        <time>2020-07-16T10:14:37.695Z</time>
      </trkpt>
      <trkpt lat="69.4727" lon="17.55398">
        <ele>14.86513</ele>
        <time>2020-07-16T10:14:44.116Z</time>
      </trkpt>
      <trkpt lat="69.47247" lon="17.55513">
        <ele>15.369983</ele>
        <time>2020-07-16T10:14:54.642Z</time>
      </trkpt>
      <trkpt lat="69.47228" lon="17.55649">
        <ele>15.296834</ele>
        <time>2020-07-16T10:15:03.858Z</time>
      </trkpt>
      <trkpt lat="69.472" lon="17.5597">
        <ele>15.397026</ele>
        <time>2020-07-16T10:15:21.735Z</time>
      </trkpt>
      <trkpt lat="69.47164" lon="17.56174">
        <ele>16.528978</ele>
        <time>2020-07-16T10:15:33.693Z</time>
      </trkpt>
      <trkpt lat="69.47127" lon="17.563">
        <ele>17.337137</ele>
        <time>2020-07-16T10:15:46.025Z</time>
      </trkpt>
      <trkpt lat="69.47068" lon="17.56451">
        <ele>24.710073</ele>
        <time>2020-07-16T10:16:20.841Z</time>
      </trkpt>
      <trkpt lat="69.47024" lon="17.56542">
        <ele>31.797386</ele>
        <time>2020-07-16T10:16:57.584Z</time>
      </trkpt>
      <trkpt lat="69.47" lon="17.5659">
        <ele>35.530891</ele>
        <time>2020-07-16T10:17:19.080Z</time>
      </trkpt>
      <trkpt lat="69.46986" lon="17.56618">
        <ele>37.750978</ele>
        <time>2020-07-16T10:17:32.039Z</time>
      </trkpt>
      <trkpt lat="69.46967" lon="17.56653">
        <ele>40.754875</ele>
        <time>2020-07-16T10:17:46.880Z</time>
      </trkpt>
      <trkpt lat="69.46939" lon="17.56673">
        <ele>42.188325</ele>
        <time>2020-07-16T10:18:06.979Z</time>
      </trkpt>
      <trkpt lat="69.46904" lon="17.56694">
        <ele>43.744775</ele>
        <time>2020-07-16T10:18:29.699Z</time>
      </trkpt>
      <trkpt lat="69.46881" lon="17.56717">
        <ele>44.842163</ele>
        <time>2020-07-16T10:18:44.866Z</time>
      </trkpt>
      <trkpt lat="69.46741" lon="17.57036">
        <ele>40.333695</ele>
        <time>2020-07-16T10:19:07.481Z</time>
      </trkpt>
      <trkpt lat="69.46712" lon="17.57154">
        <ele>35.266261</ele>
        <time>2020-07-16T10:19:13.029Z</time>
      </trkpt>
      <trkpt lat="69.46703" lon="17.57215">
        <ele>32.956548</ele>
        <time>2020-07-16T10:19:15.497Z</time>
      </trkpt>
      <trkpt lat="69.46684" lon="17.57272">
        <ele>30.512008</ele>
        <time>2020-07-16T10:19:18.396Z</time>
      </trkpt>
      <trkpt lat="69.46649" lon="17.57323">
        <ele>28.10742</ele>
        <time>2020-07-16T10:19:22.567Z</time>
      </trkpt>
      <trkpt lat="69.46288" lon="17.57699">
        <ele>15.837474</ele>
        <time>2020-07-16T10:20:14.899Z</time>
      </trkpt>
      <trkpt lat="69.46231" lon="17.57815">
        <ele>16.048147</ele>
        <time>2020-07-16T10:20:28.852Z</time>
      </trkpt>
      <trkpt lat="69.46167" lon="17.58056">
        <ele>20.749285</ele>
        <time>2020-07-16T10:21:01.704Z</time>
      </trkpt>
      <trkpt lat="69.45991" lon="17.58717">
        <ele>42.010132</ele>
        <time>2020-07-16T10:23:14.941Z</time>
      </trkpt>
      <trkpt lat="69.45942" lon="17.58932">
        <ele>41.574024</ele>
        <time>2020-07-16T10:23:31.673Z</time>
      </trkpt>
      <trkpt lat="69.4593" lon="17.59025">
        <ele>41.390129</ele>
        <time>2020-07-16T10:23:35.924Z</time>
      </trkpt>
      <trkpt lat="69.45925" lon="17.59101">
        <ele>41.247394</ele>
        <time>2020-07-16T10:23:39.001Z</time>
      </trkpt>
      <trkpt lat="69.45921" lon="17.59351">
        <ele>44.655176</ele>
        <time>2020-07-16T10:23:54.509Z</time>
      </trkpt>
      <trkpt lat="69.45909" lon="17.59431">
        <ele>46.49838</ele>
        <time>2020-07-16T10:24:00.785Z</time>
      </trkpt>
      <trkpt lat="69.45894" lon="17.59487">
        <ele>47.968025</ele>
        <time>2020-07-16T10:24:11.861Z</time>
      </trkpt>
      <trkpt lat="69.45889" lon="17.595">
        <ele>48.390518</ele>
        <time>2020-07-16T10:24:12.620Z</time>
      </trkpt>
      <trkpt lat="69.45882" lon="17.59517">
        <ele>48.943967</ele>
        <time>2020-07-16T10:24:21.122Z</time>
      </trkpt>
      <trkpt lat="69.45805" lon="17.59668">
        <ele>59.311283</ele>
        <time>2020-07-16T10:25:18.576Z</time>
      </trkpt>
      <trkpt lat="69.45775" lon="17.59821">
        <ele>69.540735</ele>
        <time>2020-07-16T10:26:13.251Z</time>
      </trkpt>
      <trkpt lat="69.45773" lon="17.59922">
        <ele>75.429963</ele>
        <time>2020-07-16T10:26:39.587Z</time>
      </trkpt>
      <trkpt lat="69.45788" lon="17.60008">
        <ele>81.080247</ele>
        <time>2020-07-16T10:27:02.003Z</time>
      </trkpt>
      <trkpt lat="69.45817" lon="17.60088">
        <ele>84.418859</ele>
        <time>2020-07-16T10:27:25.151Z</time>
      </trkpt>
      <trkpt lat="69.45867" lon="17.60187">
        <ele>88.859256</ele>
        <time>2020-07-16T10:27:53.376Z</time>
      </trkpt>
      <trkpt lat="69.45902" lon="17.60244">
        <ele>91.791431</ele>
        <time>2020-07-16T10:28:07.299Z</time>
      </trkpt>
      <trkpt lat="69.45956" lon="17.60359">
        <ele>93.587719</ele>
        <time>2020-07-16T10:28:23.552Z</time>
      </trkpt>
      <trkpt lat="69.45979" lon="17.60384">
        <ele>92.338503</ele>
        <time>2020-07-16T10:28:27.929Z</time>
      </trkpt>
      <trkpt lat="69.4605" lon="17.60379">
        <ele>88.629082</ele>
        <time>2020-07-16T10:28:37.093Z</time>
      </trkpt>
      <trkpt lat="69.46072" lon="17.60395">
        <ele>87.466118</ele>
        <time>2020-07-16T10:28:39.767Z</time>
      </trkpt>
      <trkpt lat="69.46092" lon="17.60423">
        <ele>86.329852</ele>
        <time>2020-07-16T10:28:42.183Z</time>
      </trkpt>
      <trkpt lat="69.46119" lon="17.60524">
        <ele>81.654796</ele>
        <time>2020-07-16T10:28:47.211Z</time>
      </trkpt>
      <trkpt lat="69.46136" lon="17.60639">
        <ele>75.961034</ele>
        <time>2020-07-16T10:28:52.002Z</time>
      </trkpt>
      <trkpt lat="69.46144" lon="17.60671">
        <ele>74.158442</ele>
        <time>2020-07-16T10:28:53.404Z</time>
      </trkpt>
      <trkpt lat="69.46152" lon="17.60716">
        <ele>71.802972</ele>
        <time>2020-07-16T10:28:55.336Z</time>
      </trkpt>
      <trkpt lat="69.46214" lon="17.61211">
        <ele>55.106084</ele>
        <time>2020-07-16T10:29:14.930Z</time>
      </trkpt>
      <trkpt lat="69.46216" lon="17.61302">
        <ele>53.084428</ele>
        <time>2020-07-16T10:29:19.335Z</time>
      </trkpt>
      <trkpt lat="69.46189" lon="17.61922">
        <ele>62.598651</ele>
        <time>2020-07-16T10:30:42.696Z</time>
      </trkpt>
      <trkpt lat="69.46185" lon="17.62093">
        <ele>71.884325</ele>
        <time>2020-07-16T10:31:15.807Z</time>
      </trkpt>
      <trkpt lat="69.4619" lon="17.62269">
        <ele>81.457647</ele>
        <time>2020-07-16T10:31:53.137Z</time>
      </trkpt>
      <trkpt lat="69.46214" lon="17.62589">
        <ele>103.304809</ele>
        <time>2020-07-16T10:33:37.699Z</time>
      </trkpt>
      <trkpt lat="69.4621" lon="17.6264">
        <ele>107.430764</ele>
        <time>2020-07-16T10:33:54.396Z</time>
      </trkpt>
      <trkpt lat="69.46204" lon="17.62676">
        <ele>110.65195</ele>
        <time>2020-07-16T10:34:06.343Z</time>
      </trkpt>
      <trkpt lat="69.46191" lon="17.62716">
        <ele>114.916256</ele>
        <time>2020-07-16T10:34:23.827Z</time>
      </trkpt>
      <trkpt lat="69.46174" lon="17.62744">
        <ele>119.456286</ele>
        <time>2020-07-16T10:34:40.513Z</time>
      </trkpt>
      <trkpt lat="69.46162" lon="17.62782">
        <ele>123.418705</ele>
        <time>2020-07-16T10:34:56.622Z</time>
      </trkpt>
      <trkpt lat="69.46154" lon="17.62837">
        <ele>128.186324</ele>
        <time>2020-07-16T10:35:15.174Z</time>
      </trkpt>
      <trkpt lat="69.46151" lon="17.62962">
        <ele>134.866405</ele>
        <time>2020-07-16T10:35:55.444Z</time>
      </trkpt>
      <trkpt lat="69.46172" lon="17.63264">
        <ele>148.17503</ele>
        <time>2020-07-16T10:36:57.989Z</time>
      </trkpt>
      <trkpt lat="69.46224" lon="17.63684">
        <ele>156.196772</ele>
        <time>2020-07-16T10:37:44.033Z</time>
      </trkpt>
      <trkpt lat="69.46333" lon="17.64252">
        <ele>154.271902</ele>
        <time>2020-07-16T10:38:29.116Z</time>
      </trkpt>
      <trkpt lat="69.46368" lon="17.64393">
        <ele>143.55446</ele>
        <time>2020-07-16T10:38:35.913Z</time>
      </trkpt>
      <trkpt lat="69.46412" lon="17.64502">
        <ele>129.850256</ele>
        <time>2020-07-16T10:38:42.154Z</time>
      </trkpt>
      <trkpt lat="69.46446" lon="17.64542">
        <ele>121.242084</ele>
        <time>2020-07-16T10:38:46.097Z</time>
      </trkpt>
      <trkpt lat="69.46491" lon="17.64525">
        <ele>110.413186</ele>
        <time>2020-07-16T10:38:50.990Z</time>
      </trkpt>
      <trkpt lat="69.46509" lon="17.64534">
        <ele>105.866576</ele>
        <time>2020-07-16T10:38:52.955Z</time>
      </trkpt>
      <trkpt lat="69.46546" lon="17.64581">
        <ele>95.445005</ele>
        <time>2020-07-16T10:38:57.160Z</time>
      </trkpt>
      <trkpt lat="69.46582" lon="17.64659">
        <ele>84.016685</ele>
        <time>2020-07-16T10:39:01.742Z</time>
      </trkpt>
      <trkpt lat="69.46605" lon="17.64766">
        <ele>72.782064</ele>
        <time>2020-07-16T10:39:06.239Z</time>
      </trkpt>
      <trkpt lat="69.46631" lon="17.65061">
        <ele>57.17985</ele>
        <time>2020-07-16T10:39:17.454Z</time>
      </trkpt>
      <trkpt lat="69.46698" lon="17.65379">
        <ele>44.747293</ele>
        <time>2020-07-16T10:39:32.278Z</time>
      </trkpt>
      <trkpt lat="69.4671" lon="17.65494">
        <ele>42.735645</ele>
        <time>2020-07-16T10:39:37.319Z</time>
      </trkpt>
      <trkpt lat="69.46729" lon="17.65862">
        <ele>37.272288</ele>
        <time>2020-07-16T10:39:53.942Z</time>
      </trkpt>
      <trkpt lat="69.46726" lon="17.65994">
        <ele>36.606841</ele>
        <time>2020-07-16T10:40:00.564Z</time>
      </trkpt>
      <trkpt lat="69.46686" lon="17.66293">
        <ele>35.032334</ele>
        <time>2020-07-16T10:40:18.431Z</time>
      </trkpt>
      <trkpt lat="69.46644" lon="17.66783">
        <ele>36.221076</ele>
        <time>2020-07-16T10:40:53.503Z</time>
      </trkpt>
      <trkpt lat="69.46617" lon="17.66896">
        <ele>38.055124</ele>
        <time>2020-07-16T10:41:05.450Z</time>
      </trkpt>
      <trkpt lat="69.46601" lon="17.67003">
        <ele>39.64041</ele>
        <time>2020-07-16T10:41:16.475Z</time>
      </trkpt>
      <trkpt lat="69.46607" lon="17.67796">
        <ele>54.324183</ele>
        <time>2020-07-16T10:42:55.945Z</time>
      </trkpt>
      <trkpt lat="69.46599" lon="17.68162">
        <ele>64.536561</ele>
        <time>2020-07-16T10:43:54.066Z</time>
      </trkpt>
      <trkpt lat="69.46583" lon="17.68535">
        <ele>74.563904</ele>
        <time>2020-07-16T10:44:51.258Z</time>
      </trkpt>
      <trkpt lat="69.46582" lon="17.68596">
        <ele>76.158924</ele>
        <time>2020-07-16T10:44:59.917Z</time>
      </trkpt>
      <trkpt lat="69.46584" lon="17.68686">
        <ele>78.496053</ele>
        <time>2020-07-16T10:45:12.529Z</time>
      </trkpt>
      <trkpt lat="69.46611" lon="17.68927">
        <ele>85.042092</ele>
        <time>2020-07-16T10:45:47.890Z</time>
      </trkpt>
      <trkpt lat="69.46636" lon="17.6926">
        <ele>93.754257</ele>
        <time>2020-07-16T10:46:37.468Z</time>
      </trkpt>
      <trkpt lat="69.46663" lon="17.69375">
        <ele>96.985563</ele>
        <time>2020-07-16T10:46:58.418Z</time>
      </trkpt>
      <trkpt lat="69.46701" lon="17.69464">
        <ele>100.157952</ele>
        <time>2020-07-16T10:47:18.698Z</time>
      </trkpt>
      <trkpt lat="69.46756" lon="17.69561">
        <ele>104.372081</ele>
        <time>2020-07-16T10:47:43.376Z</time>
      </trkpt>
      <trkpt lat="69.46802" lon="17.69606">
        <ele>106.926454</ele>
        <time>2020-07-16T10:47:59.986Z</time>
      </trkpt>
      <trkpt lat="69.46835" lon="17.69607">
        <ele>108.001287</ele>
        <time>2020-07-16T10:48:10.198Z</time>
      </trkpt>
      <trkpt lat="69.46983" lon="17.69547">
        <ele>112.677848</ele>
        <time>2020-07-16T10:48:49.307Z</time>
      </trkpt>
      <trkpt lat="69.47124" lon="17.6955">
        <ele>115.948013</ele>
        <time>2020-07-16T10:49:23.916Z</time>
      </trkpt>
      <trkpt lat="69.47162" lon="17.69518">
        <ele>116.974066</ele>
        <time>2020-07-16T10:49:34.311Z</time>
      </trkpt>
      <trkpt lat="69.47235" lon="17.69407">
        <ele>119.26031</ele>
        <time>2020-07-16T10:49:57.030Z</time>
      </trkpt>
      <trkpt lat="69.47265" lon="17.69398">
        <ele>120.082992</ele>
        <time>2020-07-16T10:50:05.617Z</time>
      </trkpt>
      <trkpt lat="69.47282" lon="17.69426">
        <ele>120.619354</ele>
        <time>2020-07-16T10:50:11.296Z</time>
      </trkpt>
      <trkpt lat="69.47291" lon="17.69469">
        <ele>121.108586</ele>
        <time>2020-07-16T10:50:16.499Z</time>
      </trkpt>
      <trkpt lat="69.47293" lon="17.69711">
        <ele>120.63267</ele>
        <time>2020-07-16T10:50:35.273Z</time>
      </trkpt>
      <trkpt lat="69.47315" lon="17.69858">
        <ele>120.143498</ele>
        <time>2020-07-16T10:50:43.380Z</time>
      </trkpt>
      <trkpt lat="69.47331" lon="17.69922">
        <ele>119.908201</ele>
        <time>2020-07-16T10:50:46.980Z</time>
      </trkpt>
      <trkpt lat="69.47371" lon="17.70112">
        <ele>116.898552</ele>
        <time>2020-07-16T10:50:56.613Z</time>
      </trkpt>
      <trkpt lat="69.47386" lon="17.70261">
        <ele>114.293738</ele>
        <time>2020-07-16T10:51:02.977Z</time>
      </trkpt>
      <trkpt lat="69.47438" lon="17.71119">
        <ele>101.357158</ele>
        <time>2020-07-16T10:51:40.652Z</time>
      </trkpt>
      <trkpt lat="69.47432" lon="17.7139">
        <ele>98.786396</ele>
        <time>2020-07-16T10:51:53.999Z</time>
      </trkpt>
      <trkpt lat="69.47411" lon="17.71963">
        <ele>96.382018</ele>
        <time>2020-07-16T10:52:25.552Z</time>
      </trkpt>
      <trkpt lat="69.47411" lon="17.72152">
        <ele>96.066181</ele>
        <time>2020-07-16T10:52:36.296Z</time>
      </trkpt>
      <trkpt lat="69.47422" lon="17.72294">
        <ele>95.83568</ele>
        <time>2020-07-16T10:52:44.713Z</time>
      </trkpt>
      <trkpt lat="69.47555" lon="17.73294">
        <ele>95.330197</ele>
        <time>2020-07-16T10:53:50.262Z</time>
      </trkpt>
      <trkpt lat="69.47593" lon="17.73662">
        <ele>95.51346</ele>
        <time>2020-07-16T10:54:15.376Z</time>
      </trkpt>
      <trkpt lat="69.47596" lon="17.73937">
        <ele>95.726088</ele>
        <time>2020-07-16T10:54:33.405Z</time>
      </trkpt>
      <trkpt lat="69.47597" lon="17.74092">
        <ele>95.681592</ele>
        <time>2020-07-16T10:54:43.315Z</time>
      </trkpt>
      <trkpt lat="69.47593" lon="17.74414">
        <ele>95.588792</ele>
        <time>2020-07-16T10:55:03.069Z</time>
      </trkpt>
      <trkpt lat="69.47578" lon="17.74585">
        <ele>95.416628</ele>
        <time>2020-07-16T10:55:13.424Z</time>
      </trkpt>
      <trkpt lat="69.47518" lon="17.74922">
        <ele>94.993064</ele>
        <time>2020-07-16T10:55:35.698Z</time>
      </trkpt>
      <trkpt lat="69.4748" lon="17.75188">
        <ele>95.151202</ele>
        <time>2020-07-16T10:55:53.566Z</time>
      </trkpt>
      <trkpt lat="69.47464" lon="17.75268">
        <ele>95.201739</ele>
        <time>2020-07-16T10:55:59.560Z</time>
      </trkpt>
      <trkpt lat="69.47386" lon="17.75534">
        <ele>95.286106</ele>
        <time>2020-07-16T10:56:23.653Z</time>
      </trkpt>
      <trkpt lat="69.47347" lon="17.7563">
        <ele>95.295543</ele>
        <time>2020-07-16T10:56:32.968Z</time>
      </trkpt>
      <trkpt lat="69.47324" lon="17.75683">
        <ele>95.30101</ele>
        <time>2020-07-16T10:56:37.906Z</time>
      </trkpt>
      <trkpt lat="69.47248" lon="17.75842">
        <ele>94.237283</ele>
        <time>2020-07-16T10:56:52.623Z</time>
      </trkpt>
      <trkpt lat="69.47244" lon="17.75851">
        <ele>94.168474</ele>
        <time>2020-07-16T10:56:53.184Z</time>
      </trkpt>
      <trkpt lat="69.47155" lon="17.76065">
        <ele>92.483588</ele>
        <time>2020-07-16T10:57:09.776Z</time>
      </trkpt>
      <trkpt lat="69.47058" lon="17.76473">
        <ele>90.327481</ele>
        <time>2020-07-16T10:57:35.836Z</time>
      </trkpt>
      <trkpt lat="69.47028" lon="17.76563">
        <ele>90.16359</ele>
        <time>2020-07-16T10:57:43.098Z</time>
      </trkpt>
      <trkpt lat="69.46993" lon="17.76617">
        <ele>90.008782</ele>
        <time>2020-07-16T10:57:50.118Z</time>
      </trkpt>
      <trkpt lat="69.46882" lon="17.76705">
        <ele>89.441479</ele>
        <time>2020-07-16T10:58:10.296Z</time>
      </trkpt>
      <trkpt lat="69.46856" lon="17.76736">
        <ele>89.19724</ele>
        <time>2020-07-16T10:58:15.073Z</time>
      </trkpt>
      <trkpt lat="69.46746" lon="17.76904">
        <ele>88.112281</ele>
        <time>2020-07-16T10:58:34.316Z</time>
      </trkpt>
      <trkpt lat="69.46728" lon="17.76947">
        <ele>87.328798</ele>
        <time>2020-07-16T10:58:37.702Z</time>
      </trkpt>
      <trkpt lat="69.46713" lon="17.77008">
        <ele>86.442779</ele>
        <time>2020-07-16T10:58:41.308Z</time>
      </trkpt>
      <trkpt lat="69.46705" lon="17.77114">
        <ele>85.131119</ele>
        <time>2020-07-16T10:58:46.426Z</time>
      </trkpt>
      <trkpt lat="69.46723" lon="17.774">
        <ele>81.386161</ele>
        <time>2020-07-16T10:58:59.116Z</time>
      </trkpt>
      <trkpt lat="69.46713" lon="17.7763">
        <ele>76.27802</ele>
        <time>2020-07-16T10:59:08.641Z</time>
      </trkpt>
      <trkpt lat="69.4672" lon="17.77878">
        <ele>70.75981</ele>
        <time>2020-07-16T10:59:18.720Z</time>
      </trkpt>
      <trkpt lat="69.46716" lon="17.78001">
        <ele>67.915765</ele>
        <time>2020-07-16T10:59:23.671Z</time>
      </trkpt>
      <trkpt lat="69.46701" lon="17.7812">
        <ele>64.985239</ele>
        <time>2020-07-16T10:59:28.776Z</time>
      </trkpt>
      <trkpt lat="69.46636" lon="17.78521">
        <ele>54.957636</ele>
        <time>2020-07-16T10:59:46.931Z</time>
      </trkpt>
      <trkpt lat="69.46581" lon="17.78749">
        <ele>48.910144</ele>
        <time>2020-07-16T10:59:58.338Z</time>
      </trkpt>
      <trkpt lat="69.46569" lon="17.78818">
        <ele>47.244206</ele>
        <time>2020-07-16T11:00:01.497Z</time>
      </trkpt>
      <trkpt lat="69.46562" lon="17.78911">
        <ele>45.264141</ele>
        <time>2020-07-16T11:00:05.405Z</time>
      </trkpt>
      <trkpt lat="69.46561" lon="17.79089">
        <ele>41.567194</ele>
        <time>2020-07-16T11:00:12.715Z</time>
      </trkpt>
      <trkpt lat="69.46557" lon="17.7917">
        <ele>39.857134</ele>
        <time>2020-07-16T11:00:16.105Z</time>
      </trkpt>
      <trkpt lat="69.46435" lon="17.80113">
        <ele>21.662067</ele>
        <time>2020-07-16T11:00:58.471Z</time>
      </trkpt>
      <trkpt lat="69.4642" lon="17.80322">
        <ele>18.654368</ele>
        <time>2020-07-16T11:01:08.154Z</time>
      </trkpt>
      <trkpt lat="69.46418" lon="17.80402">
        <ele>18.08147</ele>
        <time>2020-07-16T11:01:11.905Z</time>
      </trkpt>
      <trkpt lat="69.46408" lon="17.80816">
        <ele>15.193217</ele>
        <time>2020-07-16T11:01:33.109Z</time>
      </trkpt>
      <trkpt lat="69.46402" lon="17.81093">
        <ele>14.036985</ele>
        <time>2020-07-16T11:01:48.464Z</time>
      </trkpt>
      <trkpt lat="69.46369" lon="17.81401">
        <ele>12.368959</ele>
        <time>2020-07-16T11:02:05.353Z</time>
      </trkpt>
      <trkpt lat="69.46338" lon="17.81576">
        <ele>10.998175</ele>
        <time>2020-07-16T11:02:15.029Z</time>
      </trkpt>
      <trkpt lat="69.46319" lon="17.81634">
        <ele>10.448998</ele>
        <time>2020-07-16T11:02:18.771Z</time>
      </trkpt>
      <trkpt lat="69.46291" lon="17.81693">
        <ele>9.74767</ele>
        <time>2020-07-16T11:02:23.577Z</time>
      </trkpt>
      <trkpt lat="69.46282" lon="17.81706">
        <ele>9.568762</ele>
        <time>2020-07-16T11:02:24.885Z</time>
      </trkpt>
      <trkpt lat="69.46271" lon="17.81719">
        <ele>9.367828</ele>
        <time>2020-07-16T11:02:26.625Z</time>
      </trkpt>
      <trkpt lat="69.46201" lon="17.81775">
        <ele>8.174998</ele>
        <time>2020-07-16T11:02:37.078Z</time>
      </trkpt>
      <trkpt lat="69.46194" lon="17.81779">
        <ele>8.054237</ele>
        <time>2020-07-16T11:02:38.102Z</time>
      </trkpt>
      <trkpt lat="69.46191" lon="17.81795">
        <ele>7.953989</ele>
        <time>2020-07-16T11:02:38.939Z</time>
      </trkpt>
      <trkpt lat="69.46195" lon="17.81829">
        <ele>7.74818</ele>
        <time>2020-07-16T11:02:40.750Z</time>
      </trkpt>
      <trkpt lat="69.46205" lon="17.81851">
        <ele>7.543086</ele>
        <time>2020-07-16T11:02:42.636Z</time>
      </trkpt>
      <trkpt lat="69.46208" lon="17.81863">
        <ele>7.459708</ele>
        <time>2020-07-16T11:02:43.348Z</time>
      </trkpt>
      <trkpt lat="69.46216" lon="17.81887">
        <ele>7.265912</ele>
        <time>2020-07-16T11:02:44.991Z</time>
      </trkpt>
      <trkpt lat="69.46219" lon="17.81894">
        <ele>7.204834</ele>
        <time>2020-07-16T11:02:45.571Z</time>
      </trkpt>
      <trkpt lat="69.4623" lon="17.81921">
        <ele>6.970163</ele>
        <time>2020-07-16T11:02:47.794Z</time>
      </trkpt>
      <trkpt lat="69.46248" lon="17.81988">
        <ele>6.773795</ele>
        <time>2020-07-16T11:02:52.501Z</time>
      </trkpt>
      <trkpt lat="69.46256" lon="17.82085">
        <ele>7.138441</ele>
        <time>2020-07-16T11:02:58.365Z</time>
      </trkpt>
      <trkpt lat="69.46256" lon="17.82118">
        <ele>7.257686</ele>
        <time>2020-07-16T11:03:00.350Z</time>
      </trkpt>
      <trkpt lat="69.46254" lon="17.82145">
        <ele>7.357403</ele>
        <time>2020-07-16T11:03:01.798Z</time>
      </trkpt>
      <trkpt lat="69.46212" lon="17.82442">
        <ele>8.5175</ele>
        <time>2020-07-16T11:03:28.581Z</time>
      </trkpt>
      <trkpt lat="69.4619" lon="17.82587">
        <ele>11.078722</ele>
        <time>2020-07-16T11:03:43.502Z</time>
      </trkpt>
      <trkpt lat="69.46169" lon="17.82728">
        <ele>13.594223</ele>
        <time>2020-07-16T11:04:02.434Z</time>
      </trkpt>
      <trkpt lat="69.46133" lon="17.82974">
        <ele>17.766016</ele>
        <time>2020-07-16T11:04:37.155Z</time>
      </trkpt>
      <trkpt lat="69.46126" lon="17.83031">
        <ele>18.582824</ele>
        <time>2020-07-16T11:04:44.813Z</time>
      </trkpt>
      <trkpt lat="69.46123" lon="17.83061">
        <ele>18.998428</ele>
        <time>2020-07-16T11:04:49.135Z</time>
      </trkpt>
      <trkpt lat="69.46117" lon="17.8323">
        <ele>21.291494</ele>
        <time>2020-07-16T11:05:08.574Z</time>
      </trkpt>
      <trkpt lat="69.46124" lon="17.83426">
        <ele>23.682757</ele>
        <time>2020-07-16T11:05:26.448Z</time>
      </trkpt>
      <trkpt lat="69.46138" lon="17.83563">
        <ele>21.855826</ele>
        <time>2020-07-16T11:05:34.317Z</time>
      </trkpt>
      <trkpt lat="69.46157" lon="17.83646">
        <ele>20.606017</ele>
        <time>2020-07-16T11:05:38.857Z</time>
      </trkpt>
      <trkpt lat="69.46174" lon="17.83699">
        <ele>19.686254</ele>
        <time>2020-07-16T11:05:41.971Z</time>
      </trkpt>
      <trkpt lat="69.46197" lon="17.83766">
        <ele>18.493834</ele>
        <time>2020-07-16T11:05:45.814Z</time>
      </trkpt>
      <trkpt lat="69.46252" lon="17.83979">
        <ele>13.337036</ele>
        <time>2020-07-16T11:05:56.372Z</time>
      </trkpt>
      <trkpt lat="69.46279" lon="17.84105">
        <ele>9.896433</ele>
        <time>2020-07-16T11:06:02.228Z</time>
      </trkpt>
      <trkpt lat="69.46295" lon="17.84182">
        <ele>7.817861</ele>
        <time>2020-07-16T11:06:05.919Z</time>
      </trkpt>
      <trkpt lat="69.46342" lon="17.84382">
        <ele>4.271983</ele>
        <time>2020-07-16T11:06:16.205Z</time>
      </trkpt>
      <trkpt lat="69.46368" lon="17.84481">
        <ele>3.268764</ele>
        <time>2020-07-16T11:06:22.015Z</time>
      </trkpt>
      <trkpt lat="69.4638" lon="17.84522">
        <ele>2.827115</ele>
        <time>2020-07-16T11:06:24.758Z</time>
      </trkpt>
      <trkpt lat="69.46503" lon="17.84935">
        <ele>0.936116</ele>
        <time>2020-07-16T11:06:57.173Z</time>
      </trkpt>
      <trkpt lat="69.46527" lon="17.85018">
        <ele>0.855904</ele>
        <time>2020-07-16T11:07:03.868Z</time>
      </trkpt>
      <trkpt lat="69.46544" lon="17.85073">
        <ele>0.807747</ele>
        <time>2020-07-16T11:07:08.445Z</time>
      </trkpt>
      <trkpt lat="69.46581" lon="17.85184">
        <ele>0.809881</ele>
        <time>2020-07-16T11:07:17.992Z</time>
      </trkpt>
      <trkpt lat="69.46611" lon="17.85251">
        <ele>0.81137</ele>
        <time>2020-07-16T11:07:24.648Z</time>
      </trkpt>
      <trkpt lat="69.46673" lon="17.85351">
        <ele>0.8142</ele>
        <time>2020-07-16T11:07:37.479Z</time>
      </trkpt>
      <trkpt lat="69.46862" lon="17.85556">
        <ele>0.85595</ele>
        <time>2020-07-16T11:08:13.848Z</time>
      </trkpt>
      <trkpt lat="69.46908" lon="17.85588">
        <ele>0.863208</ele>
        <time>2020-07-16T11:08:22.238Z</time>
      </trkpt>
      <trkpt lat="69.46951" lon="17.85602">
        <ele>0.869817</ele>
        <time>2020-07-16T11:08:29.938Z</time>
      </trkpt>
      <trkpt lat="69.46961" lon="17.85602">
        <ele>0.871268</ele>
        <time>2020-07-16T11:08:31.806Z</time>
      </trkpt>
      <trkpt lat="69.46973" lon="17.85601">
        <ele>0.87321</ele>
        <time>2020-07-16T11:08:33.932Z</time>
      </trkpt>
      <trkpt lat="69.4707" lon="17.85564">
        <ele>0.972554</ele>
        <time>2020-07-16T11:08:51.618Z</time>
      </trkpt>
      <trkpt lat="69.47312" lon="17.85441">
        <ele>1.688689</ele>
        <time>2020-07-16T11:09:37.857Z</time>
      </trkpt>
      <trkpt lat="69.47506" lon="17.85245">
        <ele>2.236331</ele>
        <time>2020-07-16T11:10:17.718Z</time>
      </trkpt>
      <trkpt lat="69.47811" lon="17.84866">
        <ele>1.234592</ele>
        <time>2020-07-16T11:11:12.909Z</time>
      </trkpt>
      <trkpt lat="69.47936" lon="17.84782">
        <ele>0.957599</ele>
        <time>2020-07-16T11:11:34.984Z</time>
      </trkpt>
      <trkpt lat="69.48006" lon="17.84712">
        <ele>0.912823</ele>
        <time>2020-07-16T11:11:48.275Z</time>
      </trkpt>
      <trkpt lat="69.4802" lon="17.84697">
        <ele>0.903912</ele>
        <time>2020-07-16T11:11:51.007Z</time>
      </trkpt>
      <trkpt lat="69.48049" lon="17.84667">
        <ele>0.885264</ele>
        <time>2020-07-16T11:11:56.518Z</time>
      </trkpt>
      <trkpt lat="69.48182" lon="17.84576">
        <ele>0.804334</ele>
        <time>2020-07-16T11:12:20.687Z</time>
      </trkpt>
      <trkpt lat="69.48229" lon="17.84553">
        <ele>0.775822</ele>
        <time>2020-07-16T11:12:29.225Z</time>
      </trkpt>
      <trkpt lat="69.48392" lon="17.84469">
        <ele>0.615942</ele>
        <time>2020-07-16T11:12:58.112Z</time>
      </trkpt>
      <trkpt lat="69.48447" lon="17.8444">
        <ele>0.52027</ele>
        <time>2020-07-16T11:13:08.008Z</time>
      </trkpt>
      <trkpt lat="69.48459" lon="17.84433">
        <ele>0.494927</ele>
        <time>2020-07-16T11:13:10.167Z</time>
      </trkpt>
      <trkpt lat="69.4847" lon="17.84429">
        <ele>0.472958</ele>
        <time>2020-07-16T11:13:12.031Z</time>
      </trkpt>
      <trkpt lat="69.48482" lon="17.84422">
        <ele>0.446526</ele>
        <time>2020-07-16T11:13:14.291Z</time>
      </trkpt>
      <trkpt lat="69.48495" lon="17.8442">
        <ele>0.42145</ele>
        <time>2020-07-16T11:13:16.388Z</time>
      </trkpt>
      <trkpt lat="69.48504" lon="17.8442">
        <ele>0.402949</ele>
        <time>2020-07-16T11:13:17.918Z</time>
      </trkpt>
      <trkpt lat="69.4853" lon="17.84433">
        <ele>0.348633</ele>
        <time>2020-07-16T11:13:22.434Z</time>
      </trkpt>
      <trkpt lat="69.48564" lon="17.84477">
        <ele>0.273656</ele>
        <time>2020-07-16T11:13:28.595Z</time>
      </trkpt>
      <trkpt lat="69.48672" lon="17.84689">
        <ele>0.161932</ele>
        <time>2020-07-16T11:13:51.748Z</time>
      </trkpt>
      <trkpt lat="69.48737" lon="17.84811">
        <ele>0.123088</ele>
        <time>2020-07-16T11:14:05.714Z</time>
      </trkpt>
      <trkpt lat="69.48765" lon="17.84861">
        <ele>0.138058</ele>
        <time>2020-07-16T11:14:11.701Z</time>
      </trkpt>
      <trkpt lat="69.48792" lon="17.84903">
        <ele>0.151921</ele>
        <time>2020-07-16T11:14:17.246Z</time>
      </trkpt>
      <trkpt lat="69.48821" lon="17.8493">
        <ele>0.165701</ele>
        <time>2020-07-16T11:14:22.765Z</time>
      </trkpt>
      <trkpt lat="69.48859" lon="17.84945">
        <ele>0.18309</ele>
        <time>2020-07-16T11:14:29.719Z</time>
      </trkpt>
      <trkpt lat="69.4897" lon="17.84955">
        <ele>0.166575</ele>
        <time>2020-07-16T11:14:49.511Z</time>
      </trkpt>
      <trkpt lat="69.49001" lon="17.84977">
        <ele>0.152117</ele>
        <time>2020-07-16T11:14:55.136Z</time>
      </trkpt>
      <trkpt lat="69.49033" lon="17.85019">
        <ele>0.136204</ele>
        <time>2020-07-16T11:15:01.354Z</time>
      </trkpt>
      <trkpt lat="69.49081" lon="17.85093">
        <ele>0.116994</ele>
        <time>2020-07-16T11:15:10.982Z</time>
      </trkpt>
      <trkpt lat="69.49089" lon="17.85104">
        <ele>0.116132</ele>
        <time>2020-07-16T11:15:12.469Z</time>
      </trkpt>
      <trkpt lat="69.49197" lon="17.85213">
        <ele>0.104246</ele>
        <time>2020-07-16T11:15:32.885Z</time>
      </trkpt>
      <trkpt lat="69.49226" lon="17.85254">
        <ele>0.100939</ele>
        <time>2020-07-16T11:15:38.592Z</time>
      </trkpt>
      <trkpt lat="69.49312" lon="17.85387">
        <ele>0.139049</ele>
        <time>2020-07-16T11:15:56.221Z</time>
      </trkpt>
      <trkpt lat="69.4952" lon="17.85669">
        <ele>0.344615</ele>
        <time>2020-07-16T11:16:37.942Z</time>
      </trkpt>
      <trkpt lat="69.49686" lon="17.85941">
        <ele>0.649796</ele>
        <time>2020-07-16T11:17:13.390Z</time>
      </trkpt>
      <trkpt lat="69.4973" lon="17.8606">
        <ele>0.763237</ele>
        <time>2020-07-16T11:17:24.099Z</time>
      </trkpt>
      <trkpt lat="69.49777" lon="17.86291">
        <ele>0.957346</ele>
        <time>2020-07-16T11:17:41.590Z</time>
      </trkpt>
      <trkpt lat="69.49783" lon="17.86317">
        <ele>0.980175</ele>
        <time>2020-07-16T11:17:43.431Z</time>
      </trkpt>
      <trkpt lat="69.49798" lon="17.86373">
        <ele>1.030697</ele>
        <time>2020-07-16T11:17:48.236Z</time>
      </trkpt>
      <trkpt lat="69.49846" lon="17.86503">
        <ele>1.282422</ele>
        <time>2020-07-16T11:18:00.737Z</time>
      </trkpt>
      <trkpt lat="69.49915" lon="17.86618">
        <ele>1.643652</ele>
        <time>2020-07-16T11:18:16.312Z</time>
      </trkpt>
      <trkpt lat="69.49935" lon="17.86665">
        <ele>1.75952</ele>
        <time>2020-07-16T11:18:21.272Z</time>
      </trkpt>
      <trkpt lat="69.49977" lon="17.86844">
        <ele>2.110101</ele>
        <time>2020-07-16T11:18:35.917Z</time>
      </trkpt>
      <trkpt lat="69.50033" lon="17.86991">
        <ele>2.465353</ele>
        <time>2020-07-16T11:18:50.893Z</time>
      </trkpt>
      <trkpt lat="69.50045" lon="17.87045">
        <ele>2.568642</ele>
        <time>2020-07-16T11:18:55.138Z</time>
      </trkpt>
      <trkpt lat="69.50055" lon="17.87136">
        <ele>2.724434</ele>
        <time>2020-07-16T11:19:01.573Z</time>
      </trkpt>
      <trkpt lat="69.50058" lon="17.87185">
        <ele>2.751658</ele>
        <time>2020-07-16T11:19:04.922Z</time>
      </trkpt>
      <trkpt lat="69.50061" lon="17.87237">
        <ele>2.780412</ele>
        <time>2020-07-16T11:19:08.364Z</time>
      </trkpt>
      <trkpt lat="69.50071" lon="17.87402">
        <ele>2.871403</ele>
        <time>2020-07-16T11:19:19.298Z</time>
      </trkpt>
      <trkpt lat="69.50078" lon="17.87506">
        <ele>2.929555</ele>
        <time>2020-07-16T11:19:26.172Z</time>
      </trkpt>
      <trkpt lat="69.50096" lon="17.87754">
        <ele>2.80225</ele>
        <time>2020-07-16T11:19:41.800Z</time>
      </trkpt>
      <trkpt lat="69.50103" lon="17.87804">
        <ele>2.71092</ele>
        <time>2020-07-16T11:19:44.870Z</time>
      </trkpt>
      <trkpt lat="69.50112" lon="17.87882">
        <ele>2.567362</ele>
        <time>2020-07-16T11:19:49.639Z</time>
      </trkpt>
      <trkpt lat="69.50121" lon="17.87987">
        <ele>2.381905</ele>
        <time>2020-07-16T11:19:55.742Z</time>
      </trkpt>
      <trkpt lat="69.50125" lon="17.88085">
        <ele>2.212555</ele>
        <time>2020-07-16T11:20:01.251Z</time>
      </trkpt>
      <trkpt lat="69.50132" lon="17.88253">
        <ele>1.862116</ele>
        <time>2020-07-16T11:20:10.710Z</time>
      </trkpt>
      <trkpt lat="69.50135" lon="17.8837">
        <ele>1.602135</ele>
        <time>2020-07-16T11:20:17.244Z</time>
      </trkpt>
      <trkpt lat="69.50141" lon="17.88536">
        <ele>1.230711</ele>
        <time>2020-07-16T11:20:26.585Z</time>
      </trkpt>
      <trkpt lat="69.50151" lon="17.88643">
        <ele>0.982838</ele>
        <time>2020-07-16T11:20:33.154Z</time>
      </trkpt>
      <trkpt lat="69.50178" lon="17.88756">
        <ele>0.877622</ele>
        <time>2020-07-16T11:20:41.256Z</time>
      </trkpt>
      <trkpt lat="69.50186" lon="17.88783">
        <ele>0.851422</ele>
        <time>2020-07-16T11:20:43.380Z</time>
      </trkpt>
      <trkpt lat="69.502" lon="17.88829">
        <ele>0.805961</ele>
        <time>2020-07-16T11:20:47.065Z</time>
      </trkpt>
      <trkpt lat="69.50206" lon="17.8885">
        <ele>0.786556</ele>
        <time>2020-07-16T11:20:48.645Z</time>
      </trkpt>
      <trkpt lat="69.50215" lon="17.8889">
        <ele>0.752019</ele>
        <time>2020-07-16T11:20:51.428Z</time>
      </trkpt>
      <trkpt lat="69.50221" lon="17.88928">
        <ele>0.720406</ele>
        <time>2020-07-16T11:20:54.102Z</time>
      </trkpt>
      <trkpt lat="69.50225" lon="17.88956">
        <ele>0.698152</ele>
        <time>2020-07-16T11:20:56.003Z</time>
      </trkpt>
      <trkpt lat="69.50229" lon="17.88986">
        <ele>0.67434</ele>
        <time>2020-07-16T11:20:57.873Z</time>
      </trkpt>
      <trkpt lat="69.50244" lon="17.89125">
        <ele>0.681733</ele>
        <time>2020-07-16T11:21:06.811Z</time>
      </trkpt>
      <trkpt lat="69.50259" lon="17.89191">
        <ele>0.849491</ele>
        <time>2020-07-16T11:21:11.589Z</time>
      </trkpt>
      <trkpt lat="69.50279" lon="17.89246">
        <ele>1.019221</ele>
        <time>2020-07-16T11:21:17.063Z</time>
      </trkpt>
      <trkpt lat="69.50338" lon="17.89365">
        <ele>1.462624</ele>
        <time>2020-07-16T11:21:32.078Z</time>
      </trkpt>
      <trkpt lat="69.50366" lon="17.89457">
        <ele>1.735414</ele>
        <time>2020-07-16T11:21:41.061Z</time>
      </trkpt>
      <trkpt lat="69.50374" lon="17.89499">
        <ele>1.880991</ele>
        <time>2020-07-16T11:21:44.245Z</time>
      </trkpt>
      <trkpt lat="69.50379" lon="17.89525">
        <ele>1.972007</ele>
        <time>2020-07-16T11:21:46.769Z</time>
      </trkpt>
      <trkpt lat="69.50394" lon="17.8962">
        <ele>2.295471</ele>
        <time>2020-07-16T11:21:54.569Z</time>
      </trkpt>
      <trkpt lat="69.50397" lon="17.8964">
        <ele>2.363933</ele>
        <time>2020-07-16T11:21:56.209Z</time>
      </trkpt>
      <trkpt lat="69.50417" lon="17.89763">
        <ele>2.783868</ele>
        <time>2020-07-16T11:22:06.217Z</time>
      </trkpt>
      <trkpt lat="69.50498" lon="17.90124">
        <ele>3.597077</ele>
        <time>2020-07-16T11:22:35.710Z</time>
      </trkpt>
      <trkpt lat="69.50516" lon="17.90171">
        <ele>3.677877</ele>
        <time>2020-07-16T11:22:40.017Z</time>
      </trkpt>
      <trkpt lat="69.50538" lon="17.90198">
        <ele>3.755836</ele>
        <time>2020-07-16T11:22:44.477Z</time>
      </trkpt>
      <trkpt lat="69.50546" lon="17.90202">
        <ele>3.781862</ele>
        <time>2020-07-16T11:22:45.835Z</time>
      </trkpt>
      <trkpt lat="69.50593" lon="17.90223">
        <ele>3.777119</ele>
        <time>2020-07-16T11:22:54.816Z</time>
      </trkpt>
      <trkpt lat="69.50626" lon="17.90238">
        <ele>3.574111</ele>
        <time>2020-07-16T11:23:00.608Z</time>
      </trkpt>
      <trkpt lat="69.50656" lon="17.90252">
        <ele>3.391174</ele>
        <time>2020-07-16T11:23:05.508Z</time>
      </trkpt>
      <trkpt lat="69.50662" lon="17.90255">
        <ele>3.348396</ele>
        <time>2020-07-16T11:23:06.709Z</time>
      </trkpt>
      <trkpt lat="69.50676" lon="17.90262">
        <ele>3.262419</ele>
        <time>2020-07-16T11:23:08.992Z</time>
      </trkpt>
      <trkpt lat="69.50679" lon="17.90263">
        <ele>3.243261</ele>
        <time>2020-07-16T11:23:09.486Z</time>
      </trkpt>
      <trkpt lat="69.50718" lon="17.90281">
        <ele>3.002009</ele>
        <time>2020-07-16T11:23:15.532Z</time>
      </trkpt>
      <trkpt lat="69.50744" lon="17.90295">
        <ele>2.844104</ele>
        <time>2020-07-16T11:23:19.463Z</time>
      </trkpt>
      <trkpt lat="69.50735" lon="17.90493">
        <ele>2.06118</ele>
        <time>2020-07-16T11:23:30.203Z</time>
      </trkpt>
      <trkpt lat="69.50732" lon="17.90541">
        <ele>1.859608</ele>
        <time>2020-07-16T11:23:32.825Z</time>
      </trkpt>
      <trkpt lat="69.5073" lon="17.9057">
        <ele>1.731251</ele>
        <time>2020-07-16T11:23:34.274Z</time>
      </trkpt>
      <trkpt lat="69.50729" lon="17.90581">
        <ele>1.68564</ele>
        <time>2020-07-16T11:23:34.871Z</time>
      </trkpt>
      <trkpt lat="69.50723" lon="17.9063">
        <ele>1.468064</ele>
        <time>2020-07-16T11:23:37.675Z</time>
      </trkpt>
      <trkpt lat="69.50713" lon="17.90684">
        <ele>1.209599</ele>
        <time>2020-07-16T11:23:40.767Z</time>
      </trkpt>
      <trkpt lat="69.50698" lon="17.90773">
        <ele>0.798324</ele>
        <time>2020-07-16T11:23:45.826Z</time>
      </trkpt>
      <trkpt lat="69.50695" lon="17.90802">
        <ele>0.667256</ele>
        <time>2020-07-16T11:23:47.583Z</time>
      </trkpt>
      <trkpt lat="69.50693" lon="17.90825">
        <ele>0.608577</ele>
        <time>2020-07-16T11:23:48.914Z</time>
      </trkpt>
      <trkpt lat="69.50694" lon="17.90872">
        <ele>0.550988</ele>
        <time>2020-07-16T11:23:51.362Z</time>
      </trkpt>
      <trkpt lat="69.50656" lon="17.91066">
        <ele>0.282051</ele>
        <time>2020-07-16T11:24:02.175Z</time>
      </trkpt>
      <trkpt lat="69.50633" lon="17.91207">
        <ele>0.092032</ele>
        <time>2020-07-16T11:24:09.812Z</time>
      </trkpt>
      <trkpt lat="69.50631" lon="17.91329">
        <ele>0.000507</ele>
        <time>2020-07-16T11:24:15.770Z</time>
      </trkpt>
      <trkpt lat="69.50737" lon="17.91665">
        <ele>1.6E-5</ele>
        <time>2020-07-16T11:24:37.859Z</time>
      </trkpt>
      <trkpt lat="69.50946" lon="17.92053">
        <time>2020-07-16T11:25:12.610Z</time>
      </trkpt>
      <trkpt lat="69.51394" lon="17.92472">
        <time>2020-07-16T11:26:18.390Z</time>
      </trkpt>
      <trkpt lat="69.52121" lon="17.93278">
        <time>2020-07-16T11:28:07.093Z</time>
      </trkpt>
      <trkpt lat="69.54918" lon="17.96047">
        <time>2020-07-16T11:34:59.858Z</time>
      </trkpt>
      <trkpt lat="69.57822" lon="17.98689">
        <time>2020-07-16T11:42:04.775Z</time>
      </trkpt>
      <trkpt lat="69.59826" lon="18.00156">
        <time>2020-07-16T11:46:53.329Z</time>
      </trkpt>
      <trkpt lat="69.60404" lon="18.00294">
        <time>2020-07-16T11:48:14.190Z</time>
      </trkpt>
      <trkpt lat="69.60487" lon="18.00362">
        <time>2020-07-16T11:48:26.229Z</time>
      </trkpt>
      <trkpt lat="69.60646" lon="18.00731">
        <time>2020-07-16T11:48:54.776Z</time>
      </trkpt>
      <trkpt lat="69.60788" lon="18.01212">
        <time>2020-07-16T11:49:25.352Z</time>
      </trkpt>
      <trkpt lat="69.60934" lon="18.02027">
        <time>2020-07-16T11:50:09.958Z</time>
      </trkpt>
      <trkpt lat="69.60975" lon="18.02419">
        <time>2020-07-16T11:50:29.844Z</time>
      </trkpt>
      <trkpt lat="69.60987" lon="18.02842">
        <time>2020-07-16T11:50:50.480Z</time>
      </trkpt>
      <trkpt lat="69.6097" lon="18.03214">
        <ele>0.012872</ele>
        <time>2020-07-16T11:51:08.708Z</time>
      </trkpt>
      <trkpt lat="69.60928" lon="18.03365">
        <ele>0.025245</ele>
        <time>2020-07-16T11:51:18.125Z</time>
      </trkpt>
      <trkpt lat="69.60873" lon="18.03368">
        <ele>0.054562</ele>
        <time>2020-07-16T11:51:25.685Z</time>
      </trkpt>
      <trkpt lat="69.60822" lon="18.03337">
        <ele>0.148857</ele>
        <time>2020-07-16T11:51:33.043Z</time>
      </trkpt>
      <trkpt lat="69.60785" lon="18.03287">
        <ele>0.220918</ele>
        <time>2020-07-16T11:51:38.664Z</time>
      </trkpt>
      <trkpt lat="69.60785" lon="18.03186">
        <ele>0.283841</ele>
        <time>2020-07-16T11:51:43.577Z</time>
      </trkpt>
      <trkpt lat="69.60785" lon="18.03138">
        <ele>0.313767</ele>
        <time>2020-07-16T11:51:46.765Z</time>
      </trkpt>
      <trkpt lat="69.60785" lon="18.03129">
        <ele>0.319295</ele>
        <time>2020-07-16T11:51:47.337Z</time>
      </trkpt>
      <trkpt lat="69.60783" lon="18.03111">
        <ele>0.330685</ele>
        <time>2020-07-16T11:51:48.488Z</time>
      </trkpt>
      <trkpt lat="69.6078" lon="18.03093">
        <ele>0.343495</ele>
        <time>2020-07-16T11:51:49.793Z</time>
      </trkpt>
      <trkpt lat="69.60777" lon="18.03077">
        <ele>0.355927</ele>
        <time>2020-07-16T11:51:51.055Z</time>
      </trkpt>
      <trkpt lat="69.60765" lon="18.0305">
        <ele>0.405366</ele>
        <time>2020-07-16T11:51:53.933Z</time>
      </trkpt>
      <trkpt lat="69.60743" lon="18.03048">
        <ele>0.477299</ele>
        <time>2020-07-16T11:51:58.002Z</time>
      </trkpt>
      <trkpt lat="69.60739" lon="18.03051">
        <ele>0.489324</ele>
        <time>2020-07-16T11:51:58.760Z</time>
      </trkpt>
      <trkpt lat="69.60731" lon="18.03056">
        <ele>0.515287</ele>
        <time>2020-07-16T11:52:00.249Z</time>
      </trkpt>
      <trkpt lat="69.60638" lon="18.03133">
        <ele>0.829836</ele>
        <time>2020-07-16T11:52:18.297Z</time>
      </trkpt>
      <trkpt lat="69.60619" lon="18.03139">
        <ele>0.89175</ele>
        <time>2020-07-16T11:52:21.830Z</time>
      </trkpt>
      <trkpt lat="69.60604" lon="18.03135">
        <ele>0.942459</ele>
        <time>2020-07-16T11:52:24.543Z</time>
      </trkpt>
      <trkpt lat="69.60567" lon="18.03115">
        <ele>1.1746</ele>
        <time>2020-07-16T11:52:32.213Z</time>
      </trkpt>
      <trkpt lat="69.6051" lon="18.03058">
        <ele>1.551119</ele>
        <time>2020-07-16T11:52:45.377Z</time>
      </trkpt>
      <trkpt lat="69.60482" lon="18.03048">
        <ele>1.721945</ele>
        <time>2020-07-16T11:52:50.477Z</time>
      </trkpt>
      <trkpt lat="69.60459" lon="18.03052">
        <ele>1.868151</ele>
        <time>2020-07-16T11:52:54.606Z</time>
      </trkpt>
      <trkpt lat="69.60445" lon="18.0306">
        <ele>1.956044</ele>
        <time>2020-07-16T11:52:57.717Z</time>
      </trkpt>
      <trkpt lat="69.6041" lon="18.03081">
        <ele>2.140869</ele>
        <time>2020-07-16T11:53:04.566Z</time>
      </trkpt>
      <trkpt lat="69.60403" lon="18.03092">
        <ele>2.172837</ele>
        <time>2020-07-16T11:53:06.504Z</time>
      </trkpt>
      <trkpt lat="69.60401" lon="18.031">
        <ele>2.189328</ele>
        <time>2020-07-16T11:53:06.970Z</time>
      </trkpt>
      <trkpt lat="69.6039" lon="18.03305">
        <ele>2.509319</ele>
        <time>2020-07-16T11:53:21.079Z</time>
      </trkpt>
      <trkpt lat="69.60388" lon="18.03348">
        <ele>2.575278</ele>
        <time>2020-07-16T11:53:23.657Z</time>
      </trkpt>
      <trkpt lat="69.60387" lon="18.03379">
        <ele>2.623655</ele>
        <time>2020-07-16T11:53:26.314Z</time>
      </trkpt>
      <trkpt lat="69.60356" lon="18.0396">
        <ele>3.604104</ele>
        <time>2020-07-16T11:54:04.983Z</time>
      </trkpt>
      <trkpt lat="69.60354" lon="18.03996">
        <ele>3.666032</ele>
        <time>2020-07-16T11:54:07.796Z</time>
      </trkpt>
      <trkpt lat="69.60352" lon="18.04022">
        <ele>3.711148</ele>
        <time>2020-07-16T11:54:09.638Z</time>
      </trkpt>
      <trkpt lat="69.6035" lon="18.04049">
        <ele>3.798169</ele>
        <time>2020-07-16T11:54:11.548Z</time>
      </trkpt>
      <trkpt lat="69.60346" lon="18.04102">
        <ele>4.006857</ele>
        <time>2020-07-16T11:54:15.687Z</time>
      </trkpt>
      <trkpt lat="69.60314" lon="18.04302">
        <ele>4.846422</ele>
        <time>2020-07-16T11:54:31.866Z</time>
      </trkpt>
      <trkpt lat="69.60308" lon="18.04328">
        <ele>4.967898</ele>
        <time>2020-07-16T11:54:34.131Z</time>
      </trkpt>
      <trkpt lat="69.60294" lon="18.04385">
        <ele>5.23376</ele>
        <time>2020-07-16T11:54:39.466Z</time>
      </trkpt>
      <trkpt lat="69.60255" lon="18.04502">
        <ele>5.969786</ele>
        <time>2020-07-16T11:54:51.574Z</time>
      </trkpt>
      <trkpt lat="69.60142" lon="18.04749">
        <ele>8.681867</ele>
        <time>2020-07-16T11:55:26.009Z</time>
      </trkpt>
      <trkpt lat="69.60139" lon="18.04755">
        <ele>8.745878</ele>
        <time>2020-07-16T11:55:27.314Z</time>
      </trkpt>
      <trkpt lat="69.60145" lon="18.04799">
        <ele>9.063254</ele>
        <time>2020-07-16T11:55:31.413Z</time>
      </trkpt>
      <trkpt lat="69.60153" lon="18.04838">
        <ele>9.20928</ele>
        <time>2020-07-16T11:55:35.237Z</time>
      </trkpt>
      <trkpt lat="69.60162" lon="18.04883">
        <ele>9.324923</ele>
        <time>2020-07-16T11:55:40.167Z</time>
      </trkpt>
      <trkpt lat="69.6021" lon="18.05061">
        <ele>9.830817</ele>
        <time>2020-07-16T11:55:57.080Z</time>
      </trkpt>
      <trkpt lat="69.60221" lon="18.0509">
        <ele>9.92942</ele>
        <time>2020-07-16T11:56:00.443Z</time>
      </trkpt>
      <trkpt lat="69.6023" lon="18.0511">
        <ele>10.000962</ele>
        <time>2020-07-16T11:56:02.064Z</time>
      </trkpt>
      <trkpt lat="69.60234" lon="18.0512">
        <ele>10.033362</ele>
        <time>2020-07-16T11:56:02.886Z</time>
      </trkpt>
      <trkpt lat="69.6024" lon="18.05136">
        <ele>10.088321</ele>
        <time>2020-07-16T11:56:04.227Z</time>
      </trkpt>
      <trkpt lat="69.60249" lon="18.05156">
        <ele>10.158555</ele>
        <time>2020-07-16T11:56:06.179Z</time>
      </trkpt>
      <trkpt lat="69.60255" lon="18.05168">
        <ele>10.20928</ele>
        <time>2020-07-16T11:56:07.265Z</time>
      </trkpt>
      <trkpt lat="69.60265" lon="18.0519">
        <ele>10.289169</ele>
        <time>2020-07-16T11:56:09.143Z</time>
      </trkpt>
      <trkpt lat="69.60276" lon="18.05213">
        <ele>10.034263</ele>
        <time>2020-07-16T11:56:11.623Z</time>
      </trkpt>
      <trkpt lat="69.60288" lon="18.05235">
        <ele>9.77182</ele>
        <time>2020-07-16T11:56:13.495Z</time>
      </trkpt>
      <trkpt lat="69.60323" lon="18.05307">
        <ele>8.970827</ele>
        <time>2020-07-16T11:56:19.718Z</time>
      </trkpt>
      <trkpt lat="69.60345" lon="18.05352">
        <ele>8.469235</ele>
        <time>2020-07-16T11:56:23.472Z</time>
      </trkpt>
      <trkpt lat="69.60375" lon="18.05412">
        <ele>7.783471</ele>
        <time>2020-07-16T11:56:28.445Z</time>
      </trkpt>
      <trkpt lat="69.60388" lon="18.0544">
        <ele>7.485062</ele>
        <time>2020-07-16T11:56:30.753Z</time>
      </trkpt>
      <trkpt lat="69.60402" lon="18.05471">
        <ele>7.159847</ele>
        <time>2020-07-16T11:56:33.078Z</time>
      </trkpt>
      <trkpt lat="69.60423" lon="18.05535">
        <ele>7.003369</ele>
        <time>2020-07-16T11:56:37.491Z</time>
      </trkpt>
      <trkpt lat="69.6045" lon="18.05618">
        <ele>7.126309</ele>
        <time>2020-07-16T11:56:43.577Z</time>
      </trkpt>
      <trkpt lat="69.60454" lon="18.0563">
        <ele>7.143045</ele>
        <time>2020-07-16T11:56:44.317Z</time>
      </trkpt>
      <trkpt lat="69.60467" lon="18.0567">
        <ele>7.203836</ele>
        <time>2020-07-16T11:56:48.446Z</time>
      </trkpt>
      <trkpt lat="69.6048" lon="18.05712">
        <ele>7.265105</ele>
        <time>2020-07-16T11:56:51.892Z</time>
      </trkpt>
      <trkpt lat="69.60503" lon="18.0578">
        <ele>7.367134</ele>
        <time>2020-07-16T11:56:59.337Z</time>
      </trkpt>
      <trkpt lat="69.60513" lon="18.05811">
        <ele>7.413141</ele>
        <time>2020-07-16T11:57:03.023Z</time>
      </trkpt>
      <trkpt lat="69.6053" lon="18.05866">
        <ele>7.494417</ele>
        <time>2020-07-16T11:57:08.597Z</time>
      </trkpt>
      <trkpt lat="69.60552" lon="18.05935">
        <ele>8.446117</ele>
        <time>2020-07-16T11:57:17.261Z</time>
      </trkpt>
      <trkpt lat="69.60563" lon="18.05967">
        <ele>8.933014</ele>
        <time>2020-07-16T11:57:21.430Z</time>
      </trkpt>
      <trkpt lat="69.60584" lon="18.06015">
        <ele>9.806821</ele>
        <time>2020-07-16T11:57:28.825Z</time>
      </trkpt>
      <trkpt lat="69.60595" lon="18.06032">
        <ele>10.216435</ele>
        <time>2020-07-16T11:57:32.251Z</time>
      </trkpt>
      <trkpt lat="69.6062" lon="18.06066">
        <ele>11.096101</ele>
        <time>2020-07-16T11:57:40.892Z</time>
      </trkpt>
      <trkpt lat="69.60661" lon="18.06125">
        <ele>12.563384</ele>
        <time>2020-07-16T11:57:54.105Z</time>
      </trkpt>
      <trkpt lat="69.60664" lon="18.06133">
        <ele>12.701235</ele>
        <time>2020-07-16T11:57:55.506Z</time>
      </trkpt>
      <trkpt lat="69.60673" lon="18.06152">
        <ele>13.050119</ele>
        <time>2020-07-16T11:57:59.232Z</time>
      </trkpt>
      <trkpt lat="69.60695" lon="18.06218">
        <ele>13.989535</ele>
        <time>2020-07-16T11:58:08.729Z</time>
      </trkpt>
      <trkpt lat="69.60713" lon="18.06298">
        <ele>14.922384</ele>
        <time>2020-07-16T11:58:17.752Z</time>
      </trkpt>
      <trkpt lat="69.60714" lon="18.06305">
        <ele>15.0009</ele>
        <time>2020-07-16T11:58:19.047Z</time>
      </trkpt>
      <trkpt lat="69.60718" lon="18.06329">
        <ele>15.25923</ele>
        <time>2020-07-16T11:58:21.768Z</time>
      </trkpt>
      <trkpt lat="69.6073" lon="18.06418">
        <ele>16.20416</ele>
        <time>2020-07-16T11:58:30.888Z</time>
      </trkpt>
      <trkpt lat="69.60748" lon="18.06673">
        <ele>18.477613</ele>
        <time>2020-07-16T11:58:53.324Z</time>
      </trkpt>
      <trkpt lat="69.60766" lon="18.0685">
        <ele>19.010977</ele>
        <time>2020-07-16T11:59:07.450Z</time>
      </trkpt>
      <trkpt lat="69.60794" lon="18.06978">
        <ele>19.445935</ele>
        <time>2020-07-16T11:59:17.709Z</time>
      </trkpt>
      <trkpt lat="69.60815" lon="18.07033">
        <ele>19.680033</ele>
        <time>2020-07-16T11:59:22.920Z</time>
      </trkpt>
      <trkpt lat="69.60823" lon="18.07049">
        <ele>19.760567</ele>
        <time>2020-07-16T11:59:24.783Z</time>
      </trkpt>
      <trkpt lat="69.60831" lon="18.07066">
        <ele>19.843119</ele>
        <time>2020-07-16T11:59:26.501Z</time>
      </trkpt>
      <trkpt lat="69.60977" lon="18.07348">
        <ele>19.345728</ele>
        <time>2020-07-16T11:59:55.975Z</time>
      </trkpt>
      <trkpt lat="69.60979" lon="18.07352">
        <ele>19.339503</ele>
        <time>2020-07-16T11:59:56.270Z</time>
      </trkpt>
      <trkpt lat="69.60978" lon="18.07357">
        <ele>19.33372</ele>
        <time>2020-07-16T11:59:56.544Z</time>
      </trkpt>
      <trkpt lat="69.60945" lon="18.07557">
        <ele>19.887792</ele>
        <time>2020-07-16T12:00:10.479Z</time>
      </trkpt>
      <trkpt lat="69.60934" lon="18.07665">
        <ele>20.170585</ele>
        <time>2020-07-16T12:00:18.255Z</time>
      </trkpt>
      <trkpt lat="69.60926" lon="18.07853">
        <ele>20.686694</ele>
        <time>2020-07-16T12:00:33.087Z</time>
      </trkpt>
      <trkpt lat="69.60929" lon="18.08012">
        <ele>22.371077</ele>
        <time>2020-07-16T12:00:47.128Z</time>
      </trkpt>
      <trkpt lat="69.60965" lon="18.0871">
        <ele>30.512777</ele>
        <time>2020-07-16T12:01:59.260Z</time>
      </trkpt>
      <trkpt lat="69.61053" lon="18.09353">
        <ele>38.365169</ele>
        <time>2020-07-16T12:03:09.965Z</time>
      </trkpt>
      <trkpt lat="69.61096" lon="18.09511">
        <ele>38.005841</ele>
        <time>2020-07-16T12:03:23.601Z</time>
      </trkpt>
      <trkpt lat="69.6114" lon="18.09602">
        <ele>37.728824</ele>
        <time>2020-07-16T12:03:31.826Z</time>
      </trkpt>
      <trkpt lat="69.61172" lon="18.09643">
        <ele>37.552984</ele>
        <time>2020-07-16T12:03:36.562Z</time>
      </trkpt>
      <trkpt lat="69.6138" lon="18.09817">
        <ele>32.45748</ele>
        <time>2020-07-16T12:04:05.672Z</time>
      </trkpt>
      <trkpt lat="69.61413" lon="18.0987">
        <ele>31.713661</ele>
        <time>2020-07-16T12:04:11.630Z</time>
      </trkpt>
      <trkpt lat="69.61497" lon="18.10046">
        <ele>29.693906</ele>
        <time>2020-07-16T12:04:26.252Z</time>
      </trkpt>
      <trkpt lat="69.61534" lon="18.10109">
        <ele>28.773041</ele>
        <time>2020-07-16T12:04:32.583Z</time>
      </trkpt>
      <trkpt lat="69.61544" lon="18.10122">
        <ele>28.528659</ele>
        <time>2020-07-16T12:04:34.755Z</time>
      </trkpt>
      <trkpt lat="69.61553" lon="18.10135">
        <ele>28.28633</ele>
        <time>2020-07-16T12:04:35.991Z</time>
      </trkpt>
      <trkpt lat="69.61682" lon="18.10254">
        <ele>25.240467</ele>
        <time>2020-07-16T12:04:54.648Z</time>
      </trkpt>
      <trkpt lat="69.61745" lon="18.10343">
        <ele>23.865271</ele>
        <time>2020-07-16T12:05:04.278Z</time>
      </trkpt>
      <trkpt lat="69.61784" lon="18.1042">
        <ele>22.939773</ele>
        <time>2020-07-16T12:05:11.130Z</time>
      </trkpt>
      <trkpt lat="69.6182" lon="18.1051">
        <ele>22.008715</ele>
        <time>2020-07-16T12:05:18.052Z</time>
      </trkpt>
      <trkpt lat="69.61866" lon="18.10666">
        <ele>21.001009</ele>
        <time>2020-07-16T12:05:28.398Z</time>
      </trkpt>
      <trkpt lat="69.61932" lon="18.10999">
        <ele>19.586252</ele>
        <time>2020-07-16T12:05:48.170Z</time>
      </trkpt>
      <trkpt lat="69.62018" lon="18.11323">
        <ele>21.479011</ele>
        <time>2020-07-16T12:06:18.700Z</time>
      </trkpt>
      <trkpt lat="69.62058" lon="18.1153">
        <ele>24.699662</ele>
        <time>2020-07-16T12:06:43.921Z</time>
      </trkpt>
      <trkpt lat="69.62086" lon="18.11755">
        <ele>28.976481</ele>
        <time>2020-07-16T12:07:14.229Z</time>
      </trkpt>
      <trkpt lat="69.62123" lon="18.12133">
        <ele>36.228006</ele>
        <time>2020-07-16T12:08:05.736Z</time>
      </trkpt>
      <trkpt lat="69.6221" lon="18.12808">
        <ele>47.221385</ele>
        <time>2020-07-16T12:09:26.324Z</time>
      </trkpt>
      <trkpt lat="69.6224" lon="18.12985">
        <ele>47.128833</ele>
        <time>2020-07-16T12:09:41.014Z</time>
      </trkpt>
      <trkpt lat="69.62265" lon="18.13083">
        <ele>46.697971</ele>
        <time>2020-07-16T12:09:47.797Z</time>
      </trkpt>
      <trkpt lat="69.62294" lon="18.13171">
        <ele>46.265467</ele>
        <time>2020-07-16T12:09:53.731Z</time>
      </trkpt>
      <trkpt lat="69.62389" lon="18.13395">
        <ele>42.299812</ele>
        <time>2020-07-16T12:10:08.923Z</time>
      </trkpt>
      <trkpt lat="69.62439" lon="18.13595">
        <ele>38.633466</ele>
        <time>2020-07-16T12:10:19.417Z</time>
      </trkpt>
      <trkpt lat="69.62487" lon="18.1374">
        <ele>37.160006</ele>
        <time>2020-07-16T12:10:28.625Z</time>
      </trkpt>
      <trkpt lat="69.62511" lon="18.13861">
        <ele>36.320838</ele>
        <time>2020-07-16T12:10:35.688Z</time>
      </trkpt>
      <trkpt lat="69.62551" lon="18.1413">
        <ele>34.861832</ele>
        <time>2020-07-16T12:10:52.801Z</time>
      </trkpt>
      <trkpt lat="69.62586" lon="18.14274">
        <ele>34.435303</ele>
        <time>2020-07-16T12:11:03.671Z</time>
      </trkpt>
      <trkpt lat="69.62624" lon="18.14386">
        <ele>34.054006</ele>
        <time>2020-07-16T12:11:12.370Z</time>
      </trkpt>
      <trkpt lat="69.62822" lon="18.14896">
        <ele>32.176816</ele>
        <time>2020-07-16T12:11:51.396Z</time>
      </trkpt>
      <trkpt lat="69.6286" lon="18.15013">
        <ele>33.234642</ele>
        <time>2020-07-16T12:12:02.898Z</time>
      </trkpt>
      <trkpt lat="69.6292" lon="18.15262">
        <ele>38.766845</ele>
        <time>2020-07-16T12:12:34.246Z</time>
      </trkpt>
      <trkpt lat="69.62962" lon="18.15533">
        <ele>51.976299</ele>
        <time>2020-07-16T12:13:44.370Z</time>
      </trkpt>
      <trkpt lat="69.62964" lon="18.1555">
        <ele>52.78547</ele>
        <time>2020-07-16T12:13:49.379Z</time>
      </trkpt>
      <trkpt lat="69.62968" lon="18.15585">
        <ele>54.437706</ele>
        <time>2020-07-16T12:13:59.460Z</time>
      </trkpt>
      <trkpt lat="69.62972" lon="18.15638">
        <ele>56.89363</ele>
        <time>2020-07-16T12:14:11.194Z</time>
      </trkpt>
      <trkpt lat="69.62974" lon="18.15685">
        <ele>58.302085</ele>
        <time>2020-07-16T12:14:23.444Z</time>
      </trkpt>
      <trkpt lat="69.62977" lon="18.15748">
        <ele>59.649936</ele>
        <time>2020-07-16T12:14:36.922Z</time>
      </trkpt>
      <trkpt lat="69.62977" lon="18.15859">
        <ele>61.982898</ele>
        <time>2020-07-16T12:15:00.231Z</time>
      </trkpt>
      <trkpt lat="69.6297" lon="18.15989">
        <ele>64.750985</ele>
        <time>2020-07-16T12:15:26.042Z</time>
      </trkpt>
      <trkpt lat="69.62891" lon="18.16829">
        <ele>48.662653</ele>
        <time>2020-07-16T12:16:02.709Z</time>
      </trkpt>
      <trkpt lat="69.62887" lon="18.17222">
        <ele>31.468804</ele>
        <time>2020-07-16T12:16:17.549Z</time>
      </trkpt>
      <trkpt lat="69.62887" lon="18.17235">
        <ele>31.011055</ele>
        <time>2020-07-16T12:16:18.041Z</time>
      </trkpt>
      <trkpt lat="69.62886" lon="18.17289">
        <ele>29.052851</ele>
        <time>2020-07-16T12:16:20.070Z</time>
      </trkpt>
      <trkpt lat="69.62884" lon="18.17324">
        <ele>27.753002</ele>
        <time>2020-07-16T12:16:21.484Z</time>
      </trkpt>
      <trkpt lat="69.62882" lon="18.17346">
        <ele>26.918351</ele>
        <time>2020-07-16T12:16:22.307Z</time>
      </trkpt>
      <trkpt lat="69.62878" lon="18.17375">
        <ele>25.829686</ele>
        <time>2020-07-16T12:16:23.463Z</time>
      </trkpt>
      <trkpt lat="69.62859" lon="18.1746">
        <ele>22.119703</ele>
        <time>2020-07-16T12:16:27.310Z</time>
      </trkpt>
      <trkpt lat="69.62835" lon="18.17543">
        <ele>18.221279</ele>
        <time>2020-07-16T12:16:31.498Z</time>
      </trkpt>
      <trkpt lat="69.62828" lon="18.17567">
        <ele>17.082452</ele>
        <time>2020-07-16T12:16:33.280Z</time>
      </trkpt>
      <trkpt lat="69.62818" lon="18.17601">
        <ele>15.467895</ele>
        <time>2020-07-16T12:16:34.922Z</time>
      </trkpt>
      <trkpt lat="69.62803" lon="18.17645">
        <ele>14.511111</ele>
        <time>2020-07-16T12:16:38.663Z</time>
      </trkpt>
      <trkpt lat="69.6279" lon="18.17683">
        <ele>14.532693</ele>
        <time>2020-07-16T12:16:41.364Z</time>
      </trkpt>
      <trkpt lat="69.62775" lon="18.17721">
        <ele>14.554889</ele>
        <time>2020-07-16T12:16:45.798Z</time>
      </trkpt>
      <trkpt lat="69.62763" lon="18.17754">
        <ele>14.574415</ele>
        <time>2020-07-16T12:16:49.148Z</time>
      </trkpt>
      <trkpt lat="69.62695" lon="18.17994">
        <ele>14.696782</ele>
        <time>2020-07-16T12:17:13.837Z</time>
      </trkpt>
      <trkpt lat="69.62609" lon="18.18225">
        <ele>15.711708</ele>
        <time>2020-07-16T12:17:39.591Z</time>
      </trkpt>
      <trkpt lat="69.6252" lon="18.18533">
        <ele>15.516588</ele>
        <time>2020-07-16T12:18:05.531Z</time>
      </trkpt>
      <trkpt lat="69.62436" lon="18.18741">
        <ele>14.197481</ele>
        <time>2020-07-16T12:18:21.794Z</time>
      </trkpt>
      <trkpt lat="69.62411" lon="18.18828">
        <ele>12.810909</ele>
        <time>2020-07-16T12:18:26.792Z</time>
      </trkpt>
      <trkpt lat="69.62356" lon="18.19093">
        <ele>8.997657</ele>
        <time>2020-07-16T12:18:40.358Z</time>
      </trkpt>
      <trkpt lat="69.6235" lon="18.19119">
        <ele>8.604274</ele>
        <time>2020-07-16T12:18:41.639Z</time>
      </trkpt>
      <trkpt lat="69.62343" lon="18.19152">
        <ele>8.147174</ele>
        <time>2020-07-16T12:18:43.427Z</time>
      </trkpt>
      <trkpt lat="69.62334" lon="18.19211">
        <ele>7.600697</ele>
        <time>2020-07-16T12:18:46.250Z</time>
      </trkpt>
      <trkpt lat="69.6233" lon="18.19236">
        <ele>7.409615</ele>
        <time>2020-07-16T12:18:47.590Z</time>
      </trkpt>
      <trkpt lat="69.62324" lon="18.1929">
        <ele>7.002346</ele>
        <time>2020-07-16T12:18:50.278Z</time>
      </trkpt>
      <trkpt lat="69.62316" lon="18.19365">
        <ele>6.446081</ele>
        <time>2020-07-16T12:18:54.066Z</time>
      </trkpt>
      <trkpt lat="69.62312" lon="18.19401">
        <ele>6.17885</ele>
        <time>2020-07-16T12:18:55.709Z</time>
      </trkpt>
      <trkpt lat="69.62297" lon="18.19548">
        <ele>5.098643</ele>
        <time>2020-07-16T12:19:03.450Z</time>
      </trkpt>
      <trkpt lat="69.62294" lon="18.19578">
        <ele>4.87264</ele>
        <time>2020-07-16T12:19:05.268Z</time>
      </trkpt>
      <trkpt lat="69.62285" lon="18.1967">
        <ele>4.296773</ele>
        <time>2020-07-16T12:19:11.065Z</time>
      </trkpt>
      <trkpt lat="69.6228" lon="18.19722">
        <ele>4.348732</ele>
        <time>2020-07-16T12:19:14.426Z</time>
      </trkpt>
      <trkpt lat="69.62277" lon="18.19748">
        <ele>4.373671</ele>
        <time>2020-07-16T12:19:16.142Z</time>
      </trkpt>
      <trkpt lat="69.62267" lon="18.19852">
        <ele>4.477162</ele>
        <time>2020-07-16T12:19:23.017Z</time>
      </trkpt>
      <trkpt lat="69.6225" lon="18.19987">
        <ele>4.614378</ele>
        <time>2020-07-16T12:19:32.386Z</time>
      </trkpt>
      <trkpt lat="69.62226" lon="18.20101">
        <ele>4.742056</ele>
        <time>2020-07-16T12:19:41.243Z</time>
      </trkpt>
      <trkpt lat="69.62199" lon="18.20174">
        <ele>5.075184</ele>
        <time>2020-07-16T12:19:49.021Z</time>
      </trkpt>
      <trkpt lat="69.62134" lon="18.20303">
        <ele>6.082668</ele>
        <time>2020-07-16T12:20:06.561Z</time>
      </trkpt>
      <trkpt lat="69.62111" lon="18.20353">
        <ele>6.444846</ele>
        <time>2020-07-16T12:20:13.313Z</time>
      </trkpt>
      <trkpt lat="69.62089" lon="18.20397">
        <ele>6.789218</ele>
        <time>2020-07-16T12:20:19.569Z</time>
      </trkpt>
      <trkpt lat="69.62051" lon="18.2052">
        <ele>7.370402</ele>
        <time>2020-07-16T12:20:32.203Z</time>
      </trkpt>
      <trkpt lat="69.62025" lon="18.20666">
        <ele>7.867499</ele>
        <time>2020-07-16T12:20:43.957Z</time>
      </trkpt>
      <trkpt lat="69.62025" lon="18.2067">
        <ele>7.880441</ele>
        <time>2020-07-16T12:20:44.576Z</time>
      </trkpt>
      <trkpt lat="69.62017" lon="18.20753">
        <ele>8.140283</ele>
        <time>2020-07-16T12:20:50.702Z</time>
      </trkpt>
      <trkpt lat="69.62014" lon="18.208">
        <ele>8.28628</ele>
        <time>2020-07-16T12:20:54.308Z</time>
      </trkpt>
      <trkpt lat="69.62013" lon="18.20824">
        <ele>8.359977</ele>
        <time>2020-07-16T12:20:55.845Z</time>
      </trkpt>
      <trkpt lat="69.62011" lon="18.20839">
        <ele>8.407761</ele>
        <time>2020-07-16T12:20:56.594Z</time>
      </trkpt>
      <trkpt lat="69.62011" lon="18.20911">
        <ele>8.624399</ele>
        <time>2020-07-16T12:21:01.653Z</time>
      </trkpt>
      <trkpt lat="69.62017" lon="18.2101">
        <ele>8.583185</ele>
        <time>2020-07-16T12:21:08.052Z</time>
      </trkpt>
      <trkpt lat="69.62033" lon="18.21201">
        <ele>8.502551</ele>
        <time>2020-07-16T12:21:19.572Z</time>
      </trkpt>
      <trkpt lat="69.62049" lon="18.21333">
        <ele>8.445115</ele>
        <time>2020-07-16T12:21:27.495Z</time>
      </trkpt>
      <trkpt lat="69.62052" lon="18.21356">
        <ele>8.43474</ele>
        <time>2020-07-16T12:21:29.506Z</time>
      </trkpt>
      <trkpt lat="69.62058" lon="18.21398">
        <ele>8.416167</ele>
        <time>2020-07-16T12:21:31.916Z</time>
      </trkpt>
      <trkpt lat="69.62084" lon="18.21524">
        <ele>9.032547</ele>
        <time>2020-07-16T12:21:41.313Z</time>
      </trkpt>
      <trkpt lat="69.62171" lon="18.21778">
        <ele>10.640151</ele>
        <time>2020-07-16T12:22:08.162Z</time>
      </trkpt>
      <trkpt lat="69.62175" lon="18.2179">
        <ele>10.712829</ele>
        <time>2020-07-16T12:22:09.232Z</time>
      </trkpt>
      <trkpt lat="69.62186" lon="18.21827">
        <ele>11.41619</ele>
        <time>2020-07-16T12:22:15.734Z</time>
      </trkpt>
      <trkpt lat="69.62243" lon="18.21978">
        <ele>14.831525</ele>
        <time>2020-07-16T12:22:40.399Z</time>
      </trkpt>
      <trkpt lat="69.62245" lon="18.21983">
        <ele>14.965984</ele>
        <time>2020-07-16T12:22:41.965Z</time>
      </trkpt>
      <trkpt lat="69.6226" lon="18.22011">
        <ele>15.76463</ele>
        <time>2020-07-16T12:22:46.887Z</time>
      </trkpt>
      <trkpt lat="69.6228" lon="18.22039">
        <ele>16.715878</ele>
        <time>2020-07-16T12:22:55.635Z</time>
      </trkpt>
      <trkpt lat="69.62297" lon="18.2206">
        <ele>17.53486</ele>
        <time>2020-07-16T12:23:01.187Z</time>
      </trkpt>
      <trkpt lat="69.623" lon="18.22064">
        <ele>17.701709</ele>
        <time>2020-07-16T12:23:04.423Z</time>
      </trkpt>
      <trkpt lat="69.62449" lon="18.22245">
        <ele>22.84839</ele>
        <time>2020-07-16T12:23:54.113Z</time>
      </trkpt>
      <trkpt lat="69.6248" lon="18.22304">
        <ele>23.95855</ele>
        <time>2020-07-16T12:24:00.640Z</time>
      </trkpt>
      <trkpt lat="69.62502" lon="18.22379">
        <ele>23.503967</ele>
        <time>2020-07-16T12:24:06.235Z</time>
      </trkpt>
      <trkpt lat="69.62509" lon="18.22412">
        <ele>23.249093</ele>
        <time>2020-07-16T12:24:08.019Z</time>
      </trkpt>
      <trkpt lat="69.62511" lon="18.22426">
        <ele>23.150487</ele>
        <time>2020-07-16T12:24:08.690Z</time>
      </trkpt>
      <trkpt lat="69.62517" lon="18.22487">
        <ele>22.736984</ele>
        <time>2020-07-16T12:24:12.284Z</time>
      </trkpt>
      <trkpt lat="69.62518" lon="18.22594">
        <ele>22.032545</ele>
        <time>2020-07-16T12:24:17.440Z</time>
      </trkpt>
      <trkpt lat="69.62509" lon="18.22682">
        <ele>21.429912</ele>
        <time>2020-07-16T12:24:21.746Z</time>
      </trkpt>
      <trkpt lat="69.62492" lon="18.22766">
        <ele>20.783943</ele>
        <time>2020-07-16T12:24:26.203Z</time>
      </trkpt>
      <trkpt lat="69.62488" lon="18.22782">
        <ele>20.641406</ele>
        <time>2020-07-16T12:24:27.034Z</time>
      </trkpt>
      <trkpt lat="69.62483" lon="18.22796">
        <ele>20.453209</ele>
        <time>2020-07-16T12:24:27.860Z</time>
      </trkpt>
      <trkpt lat="69.62452" lon="18.22875">
        <ele>19.292782</ele>
        <time>2020-07-16T12:24:33.456Z</time>
      </trkpt>
      <trkpt lat="69.62444" lon="18.22893">
        <ele>19.004585</ele>
        <time>2020-07-16T12:24:34.892Z</time>
      </trkpt>
      <trkpt lat="69.6244" lon="18.22901">
        <ele>18.878114</ele>
        <time>2020-07-16T12:24:35.530Z</time>
      </trkpt>
      <trkpt lat="69.62423" lon="18.22945">
        <ele>18.238334</ele>
        <time>2020-07-16T12:24:38.607Z</time>
      </trkpt>
      <trkpt lat="69.62372" lon="18.23096">
        <ele>16.184425</ele>
        <time>2020-07-16T12:24:48.466Z</time>
      </trkpt>
      <trkpt lat="69.62309" lon="18.23379">
        <ele>13.500122</ele>
        <time>2020-07-16T12:25:04.214Z</time>
      </trkpt>
      <trkpt lat="69.62229" lon="18.23593">
        <ele>11.697638</ele>
        <time>2020-07-16T12:25:20.045Z</time>
      </trkpt>
      <trkpt lat="69.62218" lon="18.23613">
        <ele>11.696147</ele>
        <time>2020-07-16T12:25:21.894Z</time>
      </trkpt>
      <trkpt lat="69.62211" lon="18.23632">
        <ele>11.694984</ele>
        <time>2020-07-16T12:25:23.925Z</time>
      </trkpt>
      <trkpt lat="69.62126" lon="18.23851">
        <ele>11.681807</ele>
        <time>2020-07-16T12:25:45.445Z</time>
      </trkpt>
      <trkpt lat="69.62071" lon="18.24129">
        <ele>13.053704</ele>
        <time>2020-07-16T12:26:10.002Z</time>
      </trkpt>
      <trkpt lat="69.62049" lon="18.24195">
        <ele>13.520533</ele>
        <time>2020-07-16T12:26:17.082Z</time>
      </trkpt>
      <trkpt lat="69.61953" lon="18.24324">
        <ele>15.638287</ele>
        <time>2020-07-16T12:26:42.499Z</time>
      </trkpt>
      <trkpt lat="69.61906" lon="18.24407">
        <ele>17.043705</ele>
        <time>2020-07-16T12:26:56.371Z</time>
      </trkpt>
      <trkpt lat="69.61895" lon="18.24433">
        <ele>17.417469</ele>
        <time>2020-07-16T12:27:00.196Z</time>
      </trkpt>
      <trkpt lat="69.61891" lon="18.24442">
        <ele>17.534369</ele>
        <time>2020-07-16T12:27:01.839Z</time>
      </trkpt>
      <trkpt lat="69.61878" lon="18.24483">
        <ele>18.030711</ele>
        <time>2020-07-16T12:27:06.773Z</time>
      </trkpt>
      <trkpt lat="69.61853" lon="18.24609">
        <ele>19.487404</ele>
        <time>2020-07-16T12:27:21.511Z</time>
      </trkpt>
      <trkpt lat="69.61842" lon="18.24738">
        <ele>21.074835</ele>
        <time>2020-07-16T12:27:35.263Z</time>
      </trkpt>
      <trkpt lat="69.6184" lon="18.24925">
        <ele>23.324257</ele>
        <time>2020-07-16T12:27:55.226Z</time>
      </trkpt>
      <trkpt lat="69.61845" lon="18.25438">
        <ele>27.001002</ele>
        <time>2020-07-16T12:28:43.109Z</time>
      </trkpt>
      <trkpt lat="69.61841" lon="18.25658">
        <ele>26.695929</ele>
        <time>2020-07-16T12:28:55.258Z</time>
      </trkpt>
      <trkpt lat="69.61814" lon="18.25875">
        <ele>23.161221</ele>
        <time>2020-07-16T12:29:05.492Z</time>
      </trkpt>
      <trkpt lat="69.61806" lon="18.26107">
        <ele>19.4925</ele>
        <time>2020-07-16T12:29:14.908Z</time>
      </trkpt>
      <trkpt lat="69.61792" lon="18.2626">
        <ele>16.267518</ele>
        <time>2020-07-16T12:29:21.192Z</time>
      </trkpt>
      <trkpt lat="69.61772" lon="18.26361">
        <ele>13.906101</ele>
        <time>2020-07-16T12:29:25.848Z</time>
      </trkpt>
      <trkpt lat="69.61754" lon="18.2639">
        <ele>12.716167</ele>
        <time>2020-07-16T12:29:28.281Z</time>
      </trkpt>
      <trkpt lat="69.6174" lon="18.26408">
        <ele>11.788432</ele>
        <time>2020-07-16T12:29:30.106Z</time>
      </trkpt>
      <trkpt lat="69.61724" lon="18.26422">
        <ele>10.853522</ele>
        <time>2020-07-16T12:29:32.055Z</time>
      </trkpt>
      <trkpt lat="69.6151" lon="18.2657">
        <ele>4.245127</ele>
        <time>2020-07-16T12:30:01.454Z</time>
      </trkpt>
      <trkpt lat="69.61304" lon="18.26563">
        <ele>3.855894</ele>
        <time>2020-07-16T12:30:38.778Z</time>
      </trkpt>
      <trkpt lat="69.61237" lon="18.26573">
        <ele>4.268027</ele>
        <time>2020-07-16T12:30:52.304Z</time>
      </trkpt>
      <trkpt lat="69.61004" lon="18.26668">
        <ele>6.191281</ele>
        <time>2020-07-16T12:31:40.883Z</time>
      </trkpt>
      <trkpt lat="69.6092" lon="18.26723">
        <ele>7.2132</ele>
        <time>2020-07-16T12:31:59.548Z</time>
      </trkpt>
      <trkpt lat="69.6087" lon="18.26769">
        <ele>7.865905</ele>
        <time>2020-07-16T12:32:11.190Z</time>
      </trkpt>
      <trkpt lat="69.60829" lon="18.26845">
        <ele>8.473729</ele>
        <time>2020-07-16T12:32:21.950Z</time>
      </trkpt>
      <trkpt lat="69.6081" lon="18.26895">
        <ele>8.745012</ele>
        <time>2020-07-16T12:32:27.522Z</time>
      </trkpt>
      <trkpt lat="69.60783" lon="18.27014">
        <ele>9.225659</ele>
        <time>2020-07-16T12:32:38.216Z</time>
      </trkpt>
      <trkpt lat="69.60739" lon="18.27487">
        <ele>10.64548</ele>
        <time>2020-07-16T12:33:13.329Z</time>
      </trkpt>
      <trkpt lat="69.60733" lon="18.27605">
        <ele>10.884378</ele>
        <time>2020-07-16T12:33:21.407Z</time>
      </trkpt>
      <trkpt lat="69.60717" lon="18.27684">
        <ele>11.065706</ele>
        <time>2020-07-16T12:33:27.549Z</time>
      </trkpt>
      <trkpt lat="69.60692" lon="18.27733">
        <ele>11.237666</ele>
        <time>2020-07-16T12:33:33.375Z</time>
      </trkpt>
      <trkpt lat="69.60636" lon="18.27797">
        <ele>11.21296</ele>
        <time>2020-07-16T12:33:44.903Z</time>
      </trkpt>
      <trkpt lat="69.60528" lon="18.28094">
        <ele>10.586071</ele>
        <time>2020-07-16T12:34:10.027Z</time>
      </trkpt>
      <trkpt lat="69.60319" lon="18.28431">
        <ele>6.205052</ele>
        <time>2020-07-16T12:34:44.014Z</time>
      </trkpt>
      <trkpt lat="69.60312" lon="18.28443">
        <ele>6.021431</ele>
        <time>2020-07-16T12:34:45.152Z</time>
      </trkpt>
      <trkpt lat="69.60299" lon="18.28464">
        <ele>5.714069</ele>
        <time>2020-07-16T12:34:47.252Z</time>
      </trkpt>
      <trkpt lat="69.60237" lon="18.28567">
        <ele>4.235042</ele>
        <time>2020-07-16T12:34:57.099Z</time>
      </trkpt>
      <trkpt lat="69.60232" lon="18.28574">
        <ele>4.119552</ele>
        <time>2020-07-16T12:34:57.859Z</time>
      </trkpt>
      <trkpt lat="69.60217" lon="18.28598">
        <ele>3.862633</ele>
        <time>2020-07-16T12:35:00.309Z</time>
      </trkpt>
      <trkpt lat="69.60182" lon="18.28641">
        <ele>3.558486</ele>
        <time>2020-07-16T12:35:05.794Z</time>
      </trkpt>
      <trkpt lat="69.60159" lon="18.28651">
        <ele>3.372828</ele>
        <time>2020-07-16T12:35:09.378Z</time>
      </trkpt>
      <trkpt lat="69.60079" lon="18.28634">
        <ele>2.723381</ele>
        <time>2020-07-16T12:35:22.706Z</time>
      </trkpt>
      <trkpt lat="69.60051" lon="18.2863">
        <ele>2.495067</ele>
        <time>2020-07-16T12:35:27.916Z</time>
      </trkpt>
      <trkpt lat="69.60023" lon="18.28627">
        <ele>2.448249</ele>
        <time>2020-07-16T12:35:33.326Z</time>
      </trkpt>
      <trkpt lat="69.59944" lon="18.28612">
        <ele>2.351781</ele>
        <time>2020-07-16T12:35:47.319Z</time>
      </trkpt>
      <trkpt lat="69.59916" lon="18.28609">
        <ele>2.317683</ele>
        <time>2020-07-16T12:35:52.564Z</time>
      </trkpt>
      <trkpt lat="69.59903" lon="18.28608">
        <ele>2.301488</ele>
        <time>2020-07-16T12:35:54.638Z</time>
      </trkpt>
      <trkpt lat="69.5985" lon="18.28606">
        <ele>2.128819</ele>
        <time>2020-07-16T12:36:03.647Z</time>
      </trkpt>
      <trkpt lat="69.59798" lon="18.28639">
        <ele>1.777324</ele>
        <time>2020-07-16T12:36:11.934Z</time>
      </trkpt>
      <trkpt lat="69.59773" lon="18.28642">
        <ele>1.612187</ele>
        <time>2020-07-16T12:36:16.005Z</time>
      </trkpt>
      <trkpt lat="69.59685" lon="18.28527">
        <ele>1.005214</ele>
        <time>2020-07-16T12:36:31.357Z</time>
      </trkpt>
      <trkpt lat="69.59614" lon="18.28505">
        <ele>0.727087</ele>
        <time>2020-07-16T12:36:43.141Z</time>
      </trkpt>
      <trkpt lat="69.59588" lon="18.28505">
        <ele>0.62645</ele>
        <time>2020-07-16T12:36:47.520Z</time>
      </trkpt>
      <trkpt lat="69.5958" lon="18.28504">
        <ele>0.594825</ele>
        <time>2020-07-16T12:36:48.894Z</time>
      </trkpt>
      <trkpt lat="69.59566" lon="18.28503">
        <ele>0.539771</ele>
        <time>2020-07-16T12:36:51.299Z</time>
      </trkpt>
      <trkpt lat="69.59449" lon="18.28438">
        <ele>0.438927</ele>
        <time>2020-07-16T12:37:12.354Z</time>
      </trkpt>
      <trkpt lat="69.59442" lon="18.28434">
        <ele>0.446626</ele>
        <time>2020-07-16T12:37:13.710Z</time>
      </trkpt>
      <trkpt lat="69.59429" lon="18.28428">
        <ele>0.460333</ele>
        <time>2020-07-16T12:37:16.075Z</time>
      </trkpt>
      <trkpt lat="69.59399" lon="18.28415">
        <ele>0.491095</ele>
        <time>2020-07-16T12:37:21.506Z</time>
      </trkpt>
      <trkpt lat="69.59258" lon="18.28288">
        <ele>0.815064</ele>
        <time>2020-07-16T12:37:49.333Z</time>
      </trkpt>
      <trkpt lat="69.59237" lon="18.28277">
        <ele>0.874846</ele>
        <time>2020-07-16T12:37:53.295Z</time>
      </trkpt>
      <trkpt lat="69.59232" lon="18.28274">
        <ele>0.890988</ele>
        <time>2020-07-16T12:37:54.307Z</time>
      </trkpt>
      <trkpt lat="69.59122" lon="18.28204">
        <ele>1.248347</ele>
        <time>2020-07-16T12:38:15.358Z</time>
      </trkpt>
      <trkpt lat="69.59023" lon="18.28104">
        <ele>1.617589</ele>
        <time>2020-07-16T12:38:35.225Z</time>
      </trkpt>
      <trkpt lat="69.58987" lon="18.28068">
        <ele>1.7788</ele>
        <time>2020-07-16T12:38:42.541Z</time>
      </trkpt>
      <trkpt lat="69.58974" lon="18.28056">
        <ele>1.852421</ele>
        <time>2020-07-16T12:38:45.143Z</time>
      </trkpt>
      <trkpt lat="69.58902" lon="18.28001">
        <ele>2.256415</ele>
        <time>2020-07-16T12:38:59.929Z</time>
      </trkpt>
      <trkpt lat="69.58894" lon="18.27997">
        <ele>2.299547</ele>
        <time>2020-07-16T12:39:01.656Z</time>
      </trkpt>
      <trkpt lat="69.58875" lon="18.27985">
        <ele>2.404616</ele>
        <time>2020-07-16T12:39:05.438Z</time>
      </trkpt>
      <trkpt lat="69.58847" lon="18.27968">
        <ele>2.559206</ele>
        <time>2020-07-16T12:39:11.174Z</time>
      </trkpt>
      <trkpt lat="69.58843" lon="18.27966">
        <ele>2.583047</ele>
        <time>2020-07-16T12:39:11.996Z</time>
      </trkpt>
      <trkpt lat="69.58817" lon="18.27949">
        <ele>2.682583</ele>
        <time>2020-07-16T12:39:17.207Z</time>
      </trkpt>
      <trkpt lat="69.58788" lon="18.27929">
        <ele>2.708463</ele>
        <time>2020-07-16T12:39:23.051Z</time>
      </trkpt>
      <trkpt lat="69.58776" lon="18.27921">
        <ele>2.719032</ele>
        <time>2020-07-16T12:39:25.390Z</time>
      </trkpt>
      <trkpt lat="69.58757" lon="18.2791">
        <ele>2.735524</ele>
        <time>2020-07-16T12:39:29.084Z</time>
      </trkpt>
      <trkpt lat="69.58511" lon="18.27752">
        <ele>2.742829</ele>
        <time>2020-07-16T12:40:12.623Z</time>
      </trkpt>
      <trkpt lat="69.58507" lon="18.27748">
        <ele>2.740222</ele>
        <time>2020-07-16T12:40:13.318Z</time>
      </trkpt>
      <trkpt lat="69.58486" lon="18.27731">
        <ele>2.727142</ele>
        <time>2020-07-16T12:40:17.538Z</time>
      </trkpt>
      <trkpt lat="69.58462" lon="18.27707">
        <ele>2.837715</ele>
        <time>2020-07-16T12:40:22.151Z</time>
      </trkpt>
      <trkpt lat="69.58451" lon="18.27693">
        <ele>2.933148</ele>
        <time>2020-07-16T12:40:24.579Z</time>
      </trkpt>
      <trkpt lat="69.58418" lon="18.27654">
        <ele>3.204758</ele>
        <time>2020-07-16T12:40:31.389Z</time>
      </trkpt>
      <trkpt lat="69.58374" lon="18.276">
        <ele>3.581303</ele>
        <time>2020-07-16T12:40:41.212Z</time>
      </trkpt>
      <trkpt lat="69.58371" lon="18.27596">
        <ele>3.606701</ele>
        <time>2020-07-16T12:40:41.980Z</time>
      </trkpt>
      <trkpt lat="69.58352" lon="18.27573">
        <ele>3.766941</ele>
        <time>2020-07-16T12:40:46.285Z</time>
      </trkpt>
      <trkpt lat="69.58321" lon="18.27539">
        <ele>4.024115</ele>
        <time>2020-07-16T12:40:53.473Z</time>
      </trkpt>
      <trkpt lat="69.58273" lon="18.2752">
        <ele>4.775927</ele>
        <time>2020-07-16T12:41:03.998Z</time>
      </trkpt>
      <trkpt lat="69.58263" lon="18.27524">
        <ele>4.954213</ele>
        <time>2020-07-16T12:41:06.622Z</time>
      </trkpt>
      <trkpt lat="69.58253" lon="18.27529">
        <ele>5.132438</ele>
        <time>2020-07-16T12:41:08.642Z</time>
      </trkpt>
      <trkpt lat="69.58193" lon="18.27606">
        <ele>6.331159</ele>
        <time>2020-07-16T12:41:24.608Z</time>
      </trkpt>
      <trkpt lat="69.58154" lon="18.27682">
        <ele>7.183674</ele>
        <time>2020-07-16T12:41:35.999Z</time>
      </trkpt>
      <trkpt lat="69.5814" lon="18.27754">
        <ele>7.661802</ele>
        <time>2020-07-16T12:41:43.368Z</time>
      </trkpt>
      <trkpt lat="69.58145" lon="18.27835">
        <ele>8.125285</ele>
        <time>2020-07-16T12:41:50.227Z</time>
      </trkpt>
      <trkpt lat="69.58147" lon="18.27855">
        <ele>8.248755</ele>
        <time>2020-07-16T12:41:52.307Z</time>
      </trkpt>
      <trkpt lat="69.58152" lon="18.27878">
        <ele>8.402809</ele>
        <time>2020-07-16T12:41:54.643Z</time>
      </trkpt>
      <trkpt lat="69.58159" lon="18.27909">
        <ele>8.610336</ele>
        <time>2020-07-16T12:41:57.833Z</time>
      </trkpt>
      <trkpt lat="69.58163" lon="18.27923">
        <ele>8.710103</ele>
        <time>2020-07-16T12:41:59.302Z</time>
      </trkpt>
      <trkpt lat="69.58168" lon="18.27939">
        <ele>8.831467</ele>
        <time>2020-07-16T12:42:01.459Z</time>
      </trkpt>
      <trkpt lat="69.58183" lon="18.27979">
        <ele>9.165023</ele>
        <time>2020-07-16T12:42:05.854Z</time>
      </trkpt>
      <trkpt lat="69.58195" lon="18.28012">
        <ele>9.44344</ele>
        <time>2020-07-16T12:42:10.017Z</time>
      </trkpt>
      <trkpt lat="69.5821" lon="18.28039">
        <ele>9.726216</ele>
        <time>2020-07-16T12:42:13.526Z</time>
      </trkpt>
      <trkpt lat="69.58229" lon="18.28068">
        <ele>10.072491</ele>
        <time>2020-07-16T12:42:18.308Z</time>
      </trkpt>
      <trkpt lat="69.58279" lon="18.28113">
        <ele>9.823282</ele>
        <time>2020-07-16T12:42:28.555Z</time>
      </trkpt>
      <trkpt lat="69.58294" lon="18.28125">
        <ele>9.634984</ele>
        <time>2020-07-16T12:42:31.500Z</time>
      </trkpt>
      <trkpt lat="69.58316" lon="18.2814">
        <ele>9.359932</ele>
        <time>2020-07-16T12:42:35.069Z</time>
      </trkpt>
      <trkpt lat="69.58467" lon="18.28255">
        <ele>7.487345</ele>
        <time>2020-07-16T12:42:56.565Z</time>
      </trkpt>
      <trkpt lat="69.58475" lon="18.28261">
        <ele>7.383808</ele>
        <time>2020-07-16T12:42:57.639Z</time>
      </trkpt>
      <trkpt lat="69.58487" lon="18.2827">
        <ele>7.23772</ele>
        <time>2020-07-16T12:42:59.568Z</time>
      </trkpt>
      <trkpt lat="69.58606" lon="18.28405">
        <ele>6.147837</ele>
        <time>2020-07-16T12:43:20.176Z</time>
      </trkpt>
      <trkpt lat="69.58611" lon="18.28411">
        <ele>6.194472</ele>
        <time>2020-07-16T12:43:21.070Z</time>
      </trkpt>
      <trkpt lat="69.58624" lon="18.28427">
        <ele>6.316898</ele>
        <time>2020-07-16T12:43:24.285Z</time>
      </trkpt>
      <trkpt lat="69.58804" lon="18.28659">
        <ele>8.176069</ele>
        <time>2020-07-16T12:44:07.319Z</time>
      </trkpt>
      <trkpt lat="69.58815" lon="18.28674">
        <ele>8.307697</ele>
        <time>2020-07-16T12:44:10.753Z</time>
      </trkpt>
      <trkpt lat="69.58822" lon="18.28683">
        <ele>8.404834</ele>
        <time>2020-07-16T12:44:12.059Z</time>
      </trkpt>
      <trkpt lat="69.58855" lon="18.28715">
        <ele>8.798955</ele>
        <time>2020-07-16T12:44:19.357Z</time>
      </trkpt>
      <trkpt lat="69.58879" lon="18.28733">
        <ele>9.078663</ele>
        <time>2020-07-16T12:44:24.047Z</time>
      </trkpt>
      <trkpt lat="69.58895" lon="18.28743">
        <ele>9.267484</ele>
        <time>2020-07-16T12:44:27.729Z</time>
      </trkpt>
      <trkpt lat="69.58934" lon="18.28773">
        <ele>9.747392</ele>
        <time>2020-07-16T12:44:36.223Z</time>
      </trkpt>
      <trkpt lat="69.5895" lon="18.28787">
        <ele>9.948544</ele>
        <time>2020-07-16T12:44:39.628Z</time>
      </trkpt>
      <trkpt lat="69.58952" lon="18.28789">
        <ele>9.974198</ele>
        <time>2020-07-16T12:44:40.891Z</time>
      </trkpt>
      <trkpt lat="69.59124" lon="18.29033">
        <ele>11.988767</ele>
        <time>2020-07-16T12:45:22.628Z</time>
      </trkpt>
      <trkpt lat="69.59326" lon="18.29278">
        <ele>12.402319</ele>
        <time>2020-07-16T12:46:03.287Z</time>
      </trkpt>
      <trkpt lat="69.59434" lon="18.29386">
        <ele>12.060852</ele>
        <time>2020-07-16T12:46:21.626Z</time>
      </trkpt>
      <trkpt lat="69.59454" lon="18.29405">
        <ele>11.974424</ele>
        <time>2020-07-16T12:46:24.969Z</time>
      </trkpt>
      <trkpt lat="69.59463" lon="18.29413">
        <ele>11.936103</ele>
        <time>2020-07-16T12:46:26.554Z</time>
      </trkpt>
      <trkpt lat="69.59527" lon="18.29471">
        <ele>11.671218</ele>
        <time>2020-07-16T12:46:37.154Z</time>
      </trkpt>
      <trkpt lat="69.59528" lon="18.29473">
        <ele>11.664367</ele>
        <time>2020-07-16T12:46:37.559Z</time>
      </trkpt>
      <trkpt lat="69.59551" lon="18.29494">
        <ele>11.570558</ele>
        <time>2020-07-16T12:46:41.569Z</time>
      </trkpt>
      <trkpt lat="69.59594" lon="18.29532">
        <ele>11.466598</ele>
        <time>2020-07-16T12:46:49.505Z</time>
      </trkpt>
      <trkpt lat="69.59629" lon="18.29566">
        <ele>11.635776</ele>
        <time>2020-07-16T12:46:57.343Z</time>
      </trkpt>
      <trkpt lat="69.59636" lon="18.29573">
        <ele>11.670796</ele>
        <time>2020-07-16T12:46:59.193Z</time>
      </trkpt>
      <trkpt lat="69.59716" lon="18.29678">
        <ele>12.067129</ele>
        <time>2020-07-16T12:47:16.570Z</time>
      </trkpt>
      <trkpt lat="69.59743" lon="18.29722">
        <ele>12.208132</ele>
        <time>2020-07-16T12:47:22.664Z</time>
      </trkpt>
      <trkpt lat="69.59759" lon="18.29749">
        <ele>12.153122</ele>
        <time>2020-07-16T12:47:26.233Z</time>
      </trkpt>
      <trkpt lat="69.59896" lon="18.2997">
        <ele>10.833094</ele>
        <time>2020-07-16T12:47:51.324Z</time>
      </trkpt>
      <trkpt lat="69.59938" lon="18.30016">
        <ele>10.149967</ele>
        <time>2020-07-16T12:47:57.412Z</time>
      </trkpt>
      <trkpt lat="69.59979" lon="18.30044">
        <ele>9.392333</ele>
        <time>2020-07-16T12:48:03.171Z</time>
      </trkpt>
      <trkpt lat="69.60189" lon="18.30136">
        <ele>7.379152</ele>
        <time>2020-07-16T12:48:34.135Z</time>
      </trkpt>
      <trkpt lat="69.60195" lon="18.30141">
        <ele>7.370081</ele>
        <time>2020-07-16T12:48:35.224Z</time>
      </trkpt>
      <trkpt lat="69.60199" lon="18.30144">
        <ele>7.364852</ele>
        <time>2020-07-16T12:48:36.426Z</time>
      </trkpt>
      <trkpt lat="69.60296" lon="18.30264">
        <ele>8.690302</ele>
        <time>2020-07-16T12:49:02.250Z</time>
      </trkpt>
      <trkpt lat="69.603" lon="18.30267">
        <ele>8.815042</ele>
        <time>2020-07-16T12:49:03.723Z</time>
      </trkpt>
      <trkpt lat="69.60316" lon="18.30273">
        <ele>9.317793</ele>
        <time>2020-07-16T12:49:08.188Z</time>
      </trkpt>
      <trkpt lat="69.60388" lon="18.30301">
        <ele>11.637739</ele>
        <time>2020-07-16T12:49:30.053Z</time>
      </trkpt>
      <trkpt lat="69.6041" lon="18.30306">
        <ele>12.325654</ele>
        <time>2020-07-16T12:49:36.689Z</time>
      </trkpt>
      <trkpt lat="69.60439" lon="18.30315">
        <ele>13.155722</ele>
        <time>2020-07-16T12:49:45.251Z</time>
      </trkpt>
      <trkpt lat="69.60501" lon="18.30345">
        <ele>14.4193</ele>
        <time>2020-07-16T12:50:02.700Z</time>
      </trkpt>
      <trkpt lat="69.60575" lon="18.3042">
        <ele>15.985748</ele>
        <time>2020-07-16T12:50:21.400Z</time>
      </trkpt>
      <trkpt lat="69.6073" lon="18.30642">
        <ele>16.369991</ele>
        <time>2020-07-16T12:50:50.941Z</time>
      </trkpt>
      <trkpt lat="69.60797" lon="18.30765">
        <ele>16.353467</ele>
        <time>2020-07-16T12:51:04.788Z</time>
      </trkpt>
      <trkpt lat="69.60817" lon="18.30813">
        <ele>16.378548</ele>
        <time>2020-07-16T12:51:09.091Z</time>
      </trkpt>
      <trkpt lat="69.60835" lon="18.30865">
        <ele>16.403225</ele>
        <time>2020-07-16T12:51:13.941Z</time>
      </trkpt>
      <trkpt lat="69.60862" lon="18.31011">
        <ele>16.459068</ele>
        <time>2020-07-16T12:51:24.643Z</time>
      </trkpt>
      <trkpt lat="69.60961" lon="18.31769">
        <ele>17.401043</ele>
        <time>2020-07-16T12:52:19.747Z</time>
      </trkpt>
      <trkpt lat="69.6101" lon="18.32284">
        <ele>17.554101</ele>
        <time>2020-07-16T12:52:50.861Z</time>
      </trkpt>
      <trkpt lat="69.61042" lon="18.32526">
        <ele>17.721182</ele>
        <time>2020-07-16T12:53:08.297Z</time>
      </trkpt>
      <trkpt lat="69.61055" lon="18.32592">
        <ele>18.003569</ele>
        <time>2020-07-16T12:53:13.690Z</time>
      </trkpt>
      <trkpt lat="69.6106" lon="18.32615">
        <ele>18.144034</ele>
        <time>2020-07-16T12:53:15.851Z</time>
      </trkpt>
      <trkpt lat="69.61116" lon="18.3286">
        <ele>19.699889</ele>
        <time>2020-07-16T12:53:39.367Z</time>
      </trkpt>
      <trkpt lat="69.61192" lon="18.33258">
        <ele>21.688859</ele>
        <time>2020-07-16T12:54:17.317Z</time>
      </trkpt>
      <trkpt lat="69.61244" lon="18.33465">
        <ele>22.425257</ele>
        <time>2020-07-16T12:54:33.431Z</time>
      </trkpt>
      <trkpt lat="69.61263" lon="18.3353">
        <ele>22.261242</ele>
        <time>2020-07-16T12:54:38.843Z</time>
      </trkpt>
      <trkpt lat="69.61278" lon="18.33578">
        <ele>22.141818</ele>
        <time>2020-07-16T12:54:42.328Z</time>
      </trkpt>
      <trkpt lat="69.61289" lon="18.33617">
        <ele>22.043939</ele>
        <time>2020-07-16T12:54:45.302Z</time>
      </trkpt>
      <trkpt lat="69.61291" lon="18.33622">
        <ele>22.030953</ele>
        <time>2020-07-16T12:54:45.582Z</time>
      </trkpt>
      <trkpt lat="69.6145" lon="18.34113">
        <ele>21.05141</ele>
        <time>2020-07-16T12:55:23.019Z</time>
      </trkpt>
      <trkpt lat="69.61496" lon="18.34313">
        <ele>21.088712</ele>
        <time>2020-07-16T12:55:39.841Z</time>
      </trkpt>
      <trkpt lat="69.61534" lon="18.34532">
        <ele>21.402766</ele>
        <time>2020-07-16T12:55:56.930Z</time>
      </trkpt>
      <trkpt lat="69.61568" lon="18.34665">
        <ele>21.494211</ele>
        <time>2020-07-16T12:56:07.345Z</time>
      </trkpt>
      <trkpt lat="69.61601" lon="18.34756">
        <ele>21.003725</ele>
        <time>2020-07-16T12:56:14.838Z</time>
      </trkpt>
      <trkpt lat="69.61812" lon="18.35248">
        <ele>18.116457</ele>
        <time>2020-07-16T12:56:54.961Z</time>
      </trkpt>
      <trkpt lat="69.62007" lon="18.35856">
        <ele>18.747626</ele>
        <time>2020-07-16T12:57:49.398Z</time>
      </trkpt>
      <trkpt lat="69.62083" lon="18.36165">
        <ele>19.925729</ele>
        <time>2020-07-16T12:58:17.364Z</time>
      </trkpt>
      <trkpt lat="69.62257" lon="18.3697">
        <ele>24.421517</ele>
        <time>2020-07-16T12:59:31.665Z</time>
      </trkpt>
      <trkpt lat="69.6231" lon="18.37149">
        <ele>24.590757</ele>
        <time>2020-07-16T12:59:48.155Z</time>
      </trkpt>
      <trkpt lat="69.6244" lon="18.37504">
        <ele>24.074254</ele>
        <time>2020-07-16T13:00:17.929Z</time>
      </trkpt>
      <trkpt lat="69.62454" lon="18.37545">
        <ele>23.909728</ele>
        <time>2020-07-16T13:00:20.687Z</time>
      </trkpt>
      <trkpt lat="69.6247" lon="18.37587">
        <ele>23.724642</ele>
        <time>2020-07-16T13:00:24.289Z</time>
      </trkpt>
      <trkpt lat="69.62661" lon="18.38086">
        <ele>21.031558</ele>
        <time>2020-07-16T13:01:03.946Z</time>
      </trkpt>
      <trkpt lat="69.62808" lon="18.38541">
        <ele>19.163599</ele>
        <time>2020-07-16T13:01:37.300Z</time>
      </trkpt>
      <trkpt lat="69.6284" lon="18.38659">
        <ele>18.962728</ele>
        <time>2020-07-16T13:01:45.991Z</time>
      </trkpt>
      <trkpt lat="69.63059" lon="18.39629">
        <ele>18.815328</ele>
        <time>2020-07-16T13:02:59.030Z</time>
      </trkpt>
      <trkpt lat="69.6309" lon="18.39747">
        <ele>18.616669</ele>
        <time>2020-07-16T13:03:07.696Z</time>
      </trkpt>
      <trkpt lat="69.63124" lon="18.39821">
        <ele>18.22471</ele>
        <time>2020-07-16T13:03:14.594Z</time>
      </trkpt>
      <trkpt lat="69.63239" lon="18.40035">
        <ele>16.672112</ele>
        <time>2020-07-16T13:03:35.706Z</time>
      </trkpt>
      <trkpt lat="69.63405" lon="18.40235">
        <ele>12.71351</ele>
        <time>2020-07-16T13:04:00.242Z</time>
      </trkpt>
      <trkpt lat="69.63407" lon="18.40237">
        <ele>12.674484</ele>
        <time>2020-07-16T13:04:00.490Z</time>
      </trkpt>
      <trkpt lat="69.63423" lon="18.40256">
        <ele>12.392052</ele>
        <time>2020-07-16T13:04:03.001Z</time>
      </trkpt>
      <trkpt lat="69.63439" lon="18.40274">
        <ele>12.122982</ele>
        <time>2020-07-16T13:04:05.448Z</time>
      </trkpt>
      <trkpt lat="69.63449" lon="18.40286">
        <ele>11.936911</ele>
        <time>2020-07-16T13:04:06.883Z</time>
      </trkpt>
      <trkpt lat="69.63454" lon="18.40292">
        <ele>11.849336</ele>
        <time>2020-07-16T13:04:07.704Z</time>
      </trkpt>
      <trkpt lat="69.63474" lon="18.40315">
        <ele>11.50697</ele>
        <time>2020-07-16T13:04:10.603Z</time>
      </trkpt>
      <trkpt lat="69.63489" lon="18.40333">
        <ele>11.241351</ele>
        <time>2020-07-16T13:04:13.091Z</time>
      </trkpt>
      <trkpt lat="69.635" lon="18.40346">
        <ele>11.045375</ele>
        <time>2020-07-16T13:04:15.127Z</time>
      </trkpt>
      <trkpt lat="69.63567" lon="18.40428">
        <ele>10.210735</ele>
        <time>2020-07-16T13:04:26.306Z</time>
      </trkpt>
      <trkpt lat="69.63606" lon="18.40508">
        <ele>10.537486</ele>
        <time>2020-07-16T13:04:36.046Z</time>
      </trkpt>
      <trkpt lat="69.63645" lon="18.40629">
        <ele>10.925795</ele>
        <time>2020-07-16T13:04:48.761Z</time>
      </trkpt>
      <trkpt lat="69.63709" lon="18.40886">
        <ele>11.719493</ele>
        <time>2020-07-16T13:05:11.453Z</time>
      </trkpt>
      <trkpt lat="69.63714" lon="18.40902">
        <ele>11.777463</ele>
        <time>2020-07-16T13:05:13.330Z</time>
      </trkpt>
      <trkpt lat="69.63722" lon="18.40927">
        <ele>11.875177</ele>
        <time>2020-07-16T13:05:15.646Z</time>
      </trkpt>
      <trkpt lat="69.6374" lon="18.40975">
        <ele>12.062382</ele>
        <time>2020-07-16T13:05:20.512Z</time>
      </trkpt>
      <trkpt lat="69.63746" lon="18.40989">
        <ele>12.122669</ele>
        <time>2020-07-16T13:05:21.953Z</time>
      </trkpt>
      <trkpt lat="69.63757" lon="18.41013">
        <ele>12.231516</ele>
        <time>2020-07-16T13:05:24.302Z</time>
      </trkpt>
      <trkpt lat="69.63811" lon="18.41099">
        <ele>12.710529</ele>
        <time>2020-07-16T13:05:36.866Z</time>
      </trkpt>
      <trkpt lat="69.63913" lon="18.41212">
        <ele>14.537854</ele>
        <time>2020-07-16T13:06:00.534Z</time>
      </trkpt>
      <trkpt lat="69.63917" lon="18.41216">
        <ele>14.622092</ele>
        <time>2020-07-16T13:06:02.083Z</time>
      </trkpt>
      <trkpt lat="69.63938" lon="18.41238">
        <ele>14.989457</ele>
        <time>2020-07-16T13:06:07.210Z</time>
      </trkpt>
      <trkpt lat="69.6395" lon="18.41252">
        <ele>15.205277</ele>
        <time>2020-07-16T13:06:10.632Z</time>
      </trkpt>
      <trkpt lat="69.63974" lon="18.41276">
        <ele>15.635645</ele>
        <time>2020-07-16T13:06:16.780Z</time>
      </trkpt>
      <trkpt lat="69.63998" lon="18.41302">
        <ele>16.37698</ele>
        <time>2020-07-16T13:06:23.743Z</time>
      </trkpt>
      <trkpt lat="69.64019" lon="18.41326">
        <ele>17.160616</ele>
        <time>2020-07-16T13:06:30.170Z</time>
      </trkpt>
      <trkpt lat="69.64039" lon="18.41346">
        <ele>17.879902</ele>
        <time>2020-07-16T13:06:35.983Z</time>
      </trkpt>
      <trkpt lat="69.64061" lon="18.41372">
        <ele>18.676729</ele>
        <time>2020-07-16T13:06:42.453Z</time>
      </trkpt>
      <trkpt lat="69.64067" lon="18.41386">
        <ele>18.945623</ele>
        <time>2020-07-16T13:06:44.767Z</time>
      </trkpt>
      <trkpt lat="69.64082" lon="18.41462">
        <ele>19.959996</ele>
        <time>2020-07-16T13:06:53.449Z</time>
      </trkpt>
      <trkpt lat="69.64088" lon="18.4155">
        <ele>21.019517</ele>
        <time>2020-07-16T13:07:02.696Z</time>
      </trkpt>
      <trkpt lat="69.64088" lon="18.41561">
        <ele>21.150651</ele>
        <time>2020-07-16T13:07:04.185Z</time>
      </trkpt>
      <trkpt lat="69.64088" lon="18.41578">
        <ele>21.35605</ele>
        <time>2020-07-16T13:07:06.227Z</time>
      </trkpt>
      <trkpt lat="69.64088" lon="18.41592">
        <ele>21.520603</ele>
        <time>2020-07-16T13:07:08.022Z</time>
      </trkpt>
      <trkpt lat="69.64073" lon="18.41742">
        <ele>24.25991</ele>
        <time>2020-07-16T13:07:24.702Z</time>
      </trkpt>
      <trkpt lat="69.64061" lon="18.41829">
        <ele>26.028535</ele>
        <time>2020-07-16T13:07:35.615Z</time>
      </trkpt>
      <trkpt lat="69.64054" lon="18.41888">
        <ele>27.2095</ele>
        <time>2020-07-16T13:07:43.674Z</time>
      </trkpt>
      <trkpt lat="69.64035" lon="18.42073">
        <ele>30.855729</ele>
        <time>2020-07-16T13:08:07.639Z</time>
      </trkpt>
      <trkpt lat="69.64018" lon="18.42549">
        <ele>42.383021</ele>
        <time>2020-07-16T13:09:16.702Z</time>
      </trkpt>
      <trkpt lat="69.64015" lon="18.42619">
        <ele>44.105105</ele>
        <time>2020-07-16T13:09:26.662Z</time>
      </trkpt>
      <trkpt lat="69.64012" lon="18.42753">
        <ele>46.849077</ele>
        <time>2020-07-16T13:09:44.471Z</time>
      </trkpt>
      <trkpt lat="69.64005" lon="18.42847">
        <ele>48.784591</ele>
        <time>2020-07-16T13:09:57.244Z</time>
      </trkpt>
      <trkpt lat="69.63991" lon="18.42921">
        <ele>50.470722</ele>
        <time>2020-07-16T13:10:07.993Z</time>
      </trkpt>
      <trkpt lat="69.63934" lon="18.43122">
        <ele>55.568372</ele>
        <time>2020-07-16T13:10:38.914Z</time>
      </trkpt>
      <trkpt lat="69.6393" lon="18.43134">
        <ele>55.849538</ele>
        <time>2020-07-16T13:10:40.737Z</time>
      </trkpt>
      <trkpt lat="69.63914" lon="18.43193">
        <ele>57.155605</ele>
        <time>2020-07-16T13:10:48.907Z</time>
      </trkpt>
      <trkpt lat="69.63899" lon="18.43247">
        <ele>58.356909</ele>
        <time>2020-07-16T13:10:56.177Z</time>
      </trkpt>
      <trkpt lat="69.63878" lon="18.43318">
        <ele>60.00845</ele>
        <time>2020-07-16T13:11:06.939Z</time>
      </trkpt>
      <trkpt lat="69.63868" lon="18.43353">
        <ele>60.791298</ele>
        <time>2020-07-16T13:11:12.671Z</time>
      </trkpt>
      <trkpt lat="69.63823" lon="18.43502">
        <ele>64.335092</ele>
        <time>2020-07-16T13:11:36.939Z</time>
      </trkpt>
      <trkpt lat="69.63739" lon="18.43716">
        <ele>70.803254</ele>
        <time>2020-07-16T13:12:18.239Z</time>
      </trkpt>
      <trkpt lat="69.63708" lon="18.43813">
        <ele>73.478773</ele>
        <time>2020-07-16T13:12:35.073Z</time>
      </trkpt>
      <trkpt lat="69.63676" lon="18.43952">
        <ele>76.347708</ele>
        <time>2020-07-16T13:12:55.714Z</time>
      </trkpt>
      <trkpt lat="69.63662" lon="18.44064">
        <ele>78.334575</ele>
        <time>2020-07-16T13:13:10.288Z</time>
      </trkpt>
      <trkpt lat="69.6362" lon="18.44522">
        <ele>84.690085</ele>
        <time>2020-07-16T13:14:01.382Z</time>
      </trkpt>
      <trkpt lat="69.6362" lon="18.44634">
        <ele>85.726651</ele>
        <time>2020-07-16T13:14:11.554Z</time>
      </trkpt>
      <trkpt lat="69.63637" lon="18.4475">
        <ele>86.897785</ele>
        <time>2020-07-16T13:14:21.434Z</time>
      </trkpt>
      <trkpt lat="69.63686" lon="18.44975">
        <ele>88.334618</ele>
        <time>2020-07-16T13:14:40.866Z</time>
      </trkpt>
      <trkpt lat="69.63701" lon="18.45043">
        <ele>88.645047</ele>
        <time>2020-07-16T13:14:46.367Z</time>
      </trkpt>
      <trkpt lat="69.63704" lon="18.45055">
        <ele>88.700213</ele>
        <time>2020-07-16T13:14:47.380Z</time>
      </trkpt>
      <trkpt lat="69.63713" lon="18.45096">
        <ele>88.890789</ele>
        <time>2020-07-16T13:14:50.455Z</time>
      </trkpt>
      <trkpt lat="69.63977" lon="18.46287">
        <ele>96.835286</ele>
        <time>2020-07-16T13:16:44.842Z</time>
      </trkpt>
      <trkpt lat="69.64014" lon="18.4641">
        <ele>97.822979</ele>
        <time>2020-07-16T13:16:58.160Z</time>
      </trkpt>
      <trkpt lat="69.64067" lon="18.46508">
        <ele>98.946302</ele>
        <time>2020-07-16T13:17:12.718Z</time>
      </trkpt>
      <trkpt lat="69.6408" lon="18.46525">
        <ele>99.233774</ele>
        <time>2020-07-16T13:17:16.078Z</time>
      </trkpt>
      <trkpt lat="69.64089" lon="18.46537">
        <ele>99.436341</ele>
        <time>2020-07-16T13:17:18.275Z</time>
      </trkpt>
      <trkpt lat="69.64538" lon="18.47173">
        <ele>110.472642</ele>
        <time>2020-07-16T13:19:20.860Z</time>
      </trkpt>
      <trkpt lat="69.64552" lon="18.47203">
        <ele>111.309772</ele>
        <time>2020-07-16T13:19:27.128Z</time>
      </trkpt>
      <trkpt lat="69.64574" lon="18.47276">
        <ele>113.249492</ele>
        <time>2020-07-16T13:19:38.329Z</time>
      </trkpt>
      <trkpt lat="69.64586" lon="18.47359">
        <ele>115.111162</ele>
        <time>2020-07-16T13:19:49.511Z</time>
      </trkpt>
      <trkpt lat="69.64591" lon="18.474">
        <ele>115.974135</ele>
        <time>2020-07-16T13:19:55.723Z</time>
      </trkpt>
      <trkpt lat="69.64593" lon="18.47426">
        <ele>116.524645</ele>
        <time>2020-07-16T13:19:58.695Z</time>
      </trkpt>
      <trkpt lat="69.64597" lon="18.47459">
        <ele>117.246899</ele>
        <time>2020-07-16T13:20:03.310Z</time>
      </trkpt>
      <trkpt lat="69.64612" lon="18.4753">
        <ele>118.921107</ele>
        <time>2020-07-16T13:20:14.467Z</time>
      </trkpt>
      <trkpt lat="69.64616" lon="18.47545">
        <ele>119.32281</ele>
        <time>2020-07-16T13:20:17.313Z</time>
      </trkpt>
      <trkpt lat="69.64625" lon="18.47573">
        <ele>120.098408</ele>
        <time>2020-07-16T13:20:23.497Z</time>
      </trkpt>
      <trkpt lat="69.64883" lon="18.48323">
        <ele>145.774613</ele>
        <time>2020-07-16T13:22:53.425Z</time>
      </trkpt>
      <trkpt lat="69.64931" lon="18.4848">
        <ele>149.457322</ele>
        <time>2020-07-16T13:23:19.486Z</time>
      </trkpt>
      <trkpt lat="69.64941" lon="18.48543">
        <ele>150.605632</ele>
        <time>2020-07-16T13:23:27.703Z</time>
      </trkpt>
      <trkpt lat="69.64955" lon="18.48686">
        <ele>153.042117</ele>
        <time>2020-07-16T13:23:44.314Z</time>
      </trkpt>
      <trkpt lat="69.64957" lon="18.4875">
        <ele>154.094237</ele>
        <time>2020-07-16T13:23:51.140Z</time>
      </trkpt>
      <trkpt lat="69.64956" lon="18.49314">
        <ele>159.737652</ele>
        <time>2020-07-16T13:24:43.333Z</time>
      </trkpt>
      <trkpt lat="69.64977" lon="18.4967">
        <ele>161.275717</ele>
        <time>2020-07-16T13:25:10.889Z</time>
      </trkpt>
      <trkpt lat="69.64981" lon="18.49745">
        <ele>161.588233</ele>
        <time>2020-07-16T13:25:16.239Z</time>
      </trkpt>
      <trkpt lat="69.64989" lon="18.49865">
        <ele>162.011073</ele>
        <time>2020-07-16T13:25:24.487Z</time>
      </trkpt>
      <trkpt lat="69.64991" lon="18.49896">
        <ele>162.060817</ele>
        <time>2020-07-16T13:25:26.703Z</time>
      </trkpt>
      <trkpt lat="69.64996" lon="18.49964">
        <ele>162.170274</ele>
        <time>2020-07-16T13:25:31.302Z</time>
      </trkpt>
      <trkpt lat="69.65074" lon="18.51246">
        <ele>164.401983</ele>
        <time>2020-07-16T13:26:58.391Z</time>
      </trkpt>
      <trkpt lat="69.65074" lon="18.51356">
        <ele>164.626843</ele>
        <time>2020-07-16T13:27:06.282Z</time>
      </trkpt>
      <trkpt lat="69.65056" lon="18.51886">
        <ele>166.763562</ele>
        <time>2020-07-16T13:27:46.291Z</time>
      </trkpt>
      <trkpt lat="69.65058" lon="18.52076">
        <ele>168.068618</ele>
        <time>2020-07-16T13:28:01.089Z</time>
      </trkpt>
      <trkpt lat="69.65168" lon="18.53605">
        <ele>179.860404</ele>
        <time>2020-07-16T13:30:15.150Z</time>
      </trkpt>
      <trkpt lat="69.6519" lon="18.53884">
        <ele>182.884397</ele>
        <time>2020-07-16T13:30:45.687Z</time>
      </trkpt>
      <trkpt lat="69.65208" lon="18.54018">
        <ele>183.393804</ele>
        <time>2020-07-16T13:30:59.138Z</time>
      </trkpt>
      <trkpt lat="69.6523" lon="18.54136">
        <ele>183.66138</ele>
        <time>2020-07-16T13:31:10.056Z</time>
      </trkpt>
      <trkpt lat="69.65258" lon="18.54248">
        <ele>183.935073</ele>
        <time>2020-07-16T13:31:18.534Z</time>
      </trkpt>
      <trkpt lat="69.65315" lon="18.54427">
        <ele>182.991728</ele>
        <time>2020-07-16T13:31:30.226Z</time>
      </trkpt>
      <trkpt lat="69.65494" lon="18.54862">
        <ele>176.917608</ele>
        <time>2020-07-16T13:32:00.638Z</time>
      </trkpt>
      <trkpt lat="69.65983" lon="18.56151">
        <ele>172.124999</ele>
        <time>2020-07-16T13:33:51.200Z</time>
      </trkpt>
      <trkpt lat="69.65986" lon="18.56159">
        <ele>172.055405</ele>
        <time>2020-07-16T13:33:51.766Z</time>
      </trkpt>
      <trkpt lat="69.65989" lon="18.56165">
        <ele>172.007173</ele>
        <time>2020-07-16T13:33:52.151Z</time>
      </trkpt>
      <trkpt lat="69.66076" lon="18.56401">
        <ele>170.074117</ele>
        <time>2020-07-16T13:34:09.236Z</time>
      </trkpt>
      <trkpt lat="69.66107" lon="18.56491">
        <ele>169.29162</ele>
        <time>2020-07-16T13:34:15.276Z</time>
      </trkpt>
      <trkpt lat="69.66136" lon="18.5657">
        <ele>168.549638</ele>
        <time>2020-07-16T13:34:20.882Z</time>
      </trkpt>
      <trkpt lat="69.66207" lon="18.56805">
        <ele>166.516424</ele>
        <time>2020-07-16T13:34:36.321Z</time>
      </trkpt>
      <trkpt lat="69.66268" lon="18.57031">
        <ele>165.810093</ele>
        <time>2020-07-16T13:34:51.762Z</time>
      </trkpt>
      <trkpt lat="69.66307" lon="18.57195">
        <ele>165.336463</ele>
        <time>2020-07-16T13:35:03.890Z</time>
      </trkpt>
      <trkpt lat="69.66381" lon="18.57551">
        <ele>164.6979</ele>
        <time>2020-07-16T13:35:29.794Z</time>
      </trkpt>
      <trkpt lat="69.66907" lon="18.60811">
        <ele>144.976224</ele>
        <time>2020-07-16T13:38:33.948Z</time>
      </trkpt>
      <trkpt lat="69.67062" lon="18.61806">
        <ele>126.237608</ele>
        <time>2020-07-16T13:39:19.375Z</time>
      </trkpt>
      <trkpt lat="69.67069" lon="18.61851">
        <ele>125.320167</ele>
        <time>2020-07-16T13:39:21.399Z</time>
      </trkpt>
      <trkpt lat="69.6707" lon="18.61858">
        <ele>125.188982</ele>
        <time>2020-07-16T13:39:21.678Z</time>
      </trkpt>
      <trkpt lat="69.67092" lon="18.61998">
        <ele>122.737117</ele>
        <time>2020-07-16T13:39:28.304Z</time>
      </trkpt>
      <trkpt lat="69.67096" lon="18.62022">
        <ele>122.378002</ele>
        <time>2020-07-16T13:39:29.320Z</time>
      </trkpt>
      <trkpt lat="69.67102" lon="18.62063">
        <ele>121.722943</ele>
        <time>2020-07-16T13:39:31.291Z</time>
      </trkpt>
      <trkpt lat="69.672" lon="18.62671">
        <ele>112.366835</ele>
        <time>2020-07-16T13:40:01.075Z</time>
      </trkpt>
      <trkpt lat="69.67224" lon="18.62795">
        <ele>110.44512</ele>
        <time>2020-07-16T13:40:07.269Z</time>
      </trkpt>
      <trkpt lat="69.6731" lon="18.63027">
        <ele>105.018477</ele>
        <time>2020-07-16T13:40:21.883Z</time>
      </trkpt>
      <trkpt lat="69.67372" lon="18.63163">
        <ele>101.32269</ele>
        <time>2020-07-16T13:40:31.339Z</time>
      </trkpt>
      <trkpt lat="69.67488" lon="18.63325">
        <ele>93.261017</ele>
        <time>2020-07-16T13:40:46.501Z</time>
      </trkpt>
      <trkpt lat="69.67538" lon="18.63411">
        <ele>89.499082</ele>
        <time>2020-07-16T13:40:53.220Z</time>
      </trkpt>
      <trkpt lat="69.6765" lon="18.63517">
        <ele>80.367691</ele>
        <time>2020-07-16T13:41:06.493Z</time>
      </trkpt>
      <trkpt lat="69.67728" lon="18.63624">
        <ele>73.634494</ele>
        <time>2020-07-16T13:41:16.306Z</time>
      </trkpt>
      <trkpt lat="69.67822" lon="18.63786">
        <ele>65.296491</ele>
        <time>2020-07-16T13:41:28.617Z</time>
      </trkpt>
      <trkpt lat="69.67892" lon="18.6396">
        <ele>58.525529</ele>
        <time>2020-07-16T13:41:39.237Z</time>
      </trkpt>
      <trkpt lat="69.68168" lon="18.64766">
        <ele>31.540951</ele>
        <time>2020-07-16T13:42:24.658Z</time>
      </trkpt>
      <trkpt lat="69.68192" lon="18.64822">
        <ele>29.437479</ele>
        <time>2020-07-16T13:42:28.171Z</time>
      </trkpt>
      <trkpt lat="69.68224" lon="18.64873">
        <ele>26.933758</ele>
        <time>2020-07-16T13:42:32.362Z</time>
      </trkpt>
      <trkpt lat="69.68248" lon="18.64905">
        <ele>25.103624</ele>
        <time>2020-07-16T13:42:35.403Z</time>
      </trkpt>
      <trkpt lat="69.68284" lon="18.64951">
        <ele>22.75563</ele>
        <time>2020-07-16T13:42:39.947Z</time>
      </trkpt>
      <trkpt lat="69.68466" lon="18.6518">
        <ele>12.296061</ele>
        <time>2020-07-16T13:43:03.599Z</time>
      </trkpt>
      <trkpt lat="69.68545" lon="18.65337">
        <ele>8.929327</ele>
        <time>2020-07-16T13:43:16.386Z</time>
      </trkpt>
      <trkpt lat="69.68548" lon="18.65342">
        <ele>8.804561</ele>
        <time>2020-07-16T13:43:16.782Z</time>
      </trkpt>
      <trkpt lat="69.68546" lon="18.65353">
        <ele>8.643398</ele>
        <time>2020-07-16T13:43:17.634Z</time>
      </trkpt>
      <trkpt lat="69.68511" lon="18.65491">
        <ele>7.815337</ele>
        <time>2020-07-16T13:43:26.549Z</time>
      </trkpt>
      <trkpt lat="69.68501" lon="18.65536">
        <ele>7.756235</ele>
        <time>2020-07-16T13:43:29.367Z</time>
      </trkpt>
      <trkpt lat="69.68497" lon="18.6555">
        <ele>7.737727</ele>
        <time>2020-07-16T13:43:30.368Z</time>
      </trkpt>
      <trkpt lat="69.68495" lon="18.65557">
        <ele>7.727712</ele>
        <time>2020-07-16T13:43:31.150Z</time>
      </trkpt>
      <trkpt lat="69.68478" lon="18.65655">
        <ele>7.607946</ele>
        <time>2020-07-16T13:43:37.644Z</time>
      </trkpt>
      <trkpt lat="69.68469" lon="18.65747">
        <ele>7.503415</ele>
        <time>2020-07-16T13:43:43.579Z</time>
      </trkpt>
      <trkpt lat="69.68459" lon="18.66018">
        <ele>8.566965</ele>
        <time>2020-07-16T13:44:03.902Z</time>
      </trkpt>
      <trkpt lat="69.68458" lon="18.66048">
        <ele>8.803261</ele>
        <time>2020-07-16T13:44:06.045Z</time>
      </trkpt>
      <trkpt lat="69.68456" lon="18.66121">
        <ele>9.379771</ele>
        <time>2020-07-16T13:44:12.306Z</time>
      </trkpt>
      <trkpt lat="69.68456" lon="18.66211">
        <ele>10.076118</ele>
        <time>2020-07-16T13:44:20.278Z</time>
      </trkpt>
      <trkpt lat="69.68457" lon="18.66259">
        <ele>10.454378</ele>
        <time>2020-07-16T13:44:24.308Z</time>
      </trkpt>
      <trkpt lat="69.68457" lon="18.66287">
        <ele>10.672197</ele>
        <time>2020-07-16T13:44:27.574Z</time>
      </trkpt>
      <trkpt lat="69.68468" lon="18.66417">
        <ele>12.112836</ele>
        <time>2020-07-16T13:44:40.890Z</time>
      </trkpt>
      <trkpt lat="69.68484" lon="18.6652">
        <ele>14.146056</ele>
        <time>2020-07-16T13:44:53.153Z</time>
      </trkpt>
      <trkpt lat="69.6855" lon="18.66779">
        <ele>19.916674</ele>
        <time>2020-07-16T13:45:33.611Z</time>
      </trkpt>
      <trkpt lat="69.68574" lon="18.6694">
        <ele>23.220331</ele>
        <time>2020-07-16T13:45:56.468Z</time>
      </trkpt>
      <trkpt lat="69.68593" lon="18.67228">
        <ele>28.837497</ele>
        <time>2020-07-16T13:46:33.456Z</time>
      </trkpt>
      <trkpt lat="69.68595" lon="18.67375">
        <ele>31.09111</ele>
        <time>2020-07-16T13:46:50.797Z</time>
      </trkpt>
      <trkpt lat="69.68591" lon="18.67575">
        <ele>32.681873</ele>
        <time>2020-07-16T13:47:10.531Z</time>
      </trkpt>
      <trkpt lat="69.68589" lon="18.67651">
        <ele>33.286358</ele>
        <time>2020-07-16T13:47:16.926Z</time>
      </trkpt>
      <trkpt lat="69.68583" lon="18.67757">
        <ele>34.134977</ele>
        <time>2020-07-16T13:47:24.628Z</time>
      </trkpt>
      <trkpt lat="69.68579" lon="18.67804">
        <ele>34.517091</ele>
        <time>2020-07-16T13:47:27.732Z</time>
      </trkpt>
      <trkpt lat="69.68577" lon="18.67854">
        <ele>34.734143</ele>
        <time>2020-07-16T13:47:30.956Z</time>
      </trkpt>
      <trkpt lat="69.68565" lon="18.68037">
        <ele>33.987542</ele>
        <time>2020-07-16T13:47:41.332Z</time>
      </trkpt>
      <trkpt lat="69.68542" lon="18.68384">
        <ele>32.377744</ele>
        <time>2020-07-16T13:47:58.987Z</time>
      </trkpt>
      <trkpt lat="69.68519" lon="18.68561">
        <ele>30.674395</ele>
        <time>2020-07-16T13:48:08.851Z</time>
      </trkpt>
      <trkpt lat="69.68516" lon="18.6858">
        <ele>30.486687</ele>
        <time>2020-07-16T13:48:09.744Z</time>
      </trkpt>
      <trkpt lat="69.68507" lon="18.68641">
        <ele>29.883094</ele>
        <time>2020-07-16T13:48:13.185Z</time>
      </trkpt>
      <trkpt lat="69.68499" lon="18.68694">
        <ele>29.36293</ele>
        <time>2020-07-16T13:48:15.747Z</time>
      </trkpt>
      <trkpt lat="69.68491" lon="18.68747">
        <ele>28.835333</ele>
        <time>2020-07-16T13:48:18.534Z</time>
      </trkpt>
      <trkpt lat="69.68488" lon="18.68768">
        <ele>28.634751</ele>
        <time>2020-07-16T13:48:19.429Z</time>
      </trkpt>
      <trkpt lat="69.68469" lon="18.68901">
        <ele>26.699789</ele>
        <time>2020-07-16T13:48:25.559Z</time>
      </trkpt>
      <trkpt lat="69.68462" lon="18.6895">
        <ele>25.777346</ele>
        <time>2020-07-16T13:48:28.005Z</time>
      </trkpt>
      <trkpt lat="69.68459" lon="18.68968">
        <ele>25.447243</ele>
        <time>2020-07-16T13:48:28.723Z</time>
      </trkpt>
      <trkpt lat="69.68448" lon="18.6906">
        <ele>23.751557</ele>
        <time>2020-07-16T13:48:32.906Z</time>
      </trkpt>
      <trkpt lat="69.68444" lon="18.69101">
        <ele>23.024532</ele>
        <time>2020-07-16T13:48:34.653Z</time>
      </trkpt>
      <trkpt lat="69.68441" lon="18.6915">
        <ele>22.164108</ele>
        <time>2020-07-16T13:48:36.741Z</time>
      </trkpt>
      <trkpt lat="69.68439" lon="18.69169">
        <ele>21.829114</ele>
        <time>2020-07-16T13:48:37.454Z</time>
      </trkpt>
      <trkpt lat="69.68439" lon="18.6936">
        <ele>18.953917</ele>
        <time>2020-07-16T13:48:45.607Z</time>
      </trkpt>
      <trkpt lat="69.6845" lon="18.69502">
        <ele>18.366657</ele>
        <time>2020-07-16T13:48:51.977Z</time>
      </trkpt>
      <trkpt lat="69.68457" lon="18.69565">
        <ele>18.099278</ele>
        <time>2020-07-16T13:48:55.103Z</time>
      </trkpt>
      <trkpt lat="69.68458" lon="18.69572">
        <ele>18.068677</ele>
        <time>2020-07-16T13:48:55.417Z</time>
      </trkpt>
      <trkpt lat="69.68459" lon="18.6958">
        <ele>18.033478</ele>
        <time>2020-07-16T13:48:55.838Z</time>
      </trkpt>
      <trkpt lat="69.68465" lon="18.69643">
        <ele>17.765211</ele>
        <time>2020-07-16T13:49:00.019Z</time>
      </trkpt>
      <trkpt lat="69.6847" lon="18.69797">
        <ele>17.143134</ele>
        <time>2020-07-16T13:49:12.168Z</time>
      </trkpt>
      <trkpt lat="69.6845" lon="18.70109">
        <ele>19.955478</ele>
        <time>2020-07-16T13:49:42.038Z</time>
      </trkpt>
      <trkpt lat="69.68449" lon="18.70134">
        <ele>20.218718</ele>
        <time>2020-07-16T13:49:45.255Z</time>
      </trkpt>
      <trkpt lat="69.68445" lon="18.70135">
        <ele>20.356766</ele>
        <time>2020-07-16T13:49:46.809Z</time>
      </trkpt>
      <trkpt lat="69.68438" lon="18.70136">
        <ele>20.580723</ele>
        <time>2020-07-16T13:49:49.099Z</time>
      </trkpt>
      <trkpt lat="69.68441" lon="18.70172">
        <ele>20.980527</ele>
        <time>2020-07-16T13:49:51.936Z</time>
      </trkpt>
      <trkpt lat="69.68443" lon="18.70424">
        <ele>23.610967</ele>
        <time>2020-07-16T13:50:18.329Z</time>
      </trkpt>
      <trkpt lat="69.68437" lon="18.70511">
        <ele>24.507874</ele>
        <time>2020-07-16T13:50:26.944Z</time>
      </trkpt>
      <trkpt lat="69.68427" lon="18.70586">
        <ele>25.325022</ele>
        <time>2020-07-16T13:50:34.425Z</time>
      </trkpt>
      <trkpt lat="69.68358" lon="18.70863">
        <ele>28.610808</ele>
        <time>2020-07-16T13:51:06.764Z</time>
      </trkpt>
      <trkpt lat="69.68314" lon="18.71091">
        <ele>30.800921</ele>
        <time>2020-07-16T13:51:31.927Z</time>
      </trkpt>
      <trkpt lat="69.68246" lon="18.71342">
        <ele>32.353066</ele>
        <time>2020-07-16T13:51:58.376Z</time>
      </trkpt>
      <trkpt lat="69.68243" lon="18.71361">
        <ele>32.386356</ele>
        <time>2020-07-16T13:52:00.149Z</time>
      </trkpt>
      <trkpt lat="69.68237" lon="18.71401">
        <ele>32.453543</ele>
        <time>2020-07-16T13:52:02.846Z</time>
      </trkpt>
      <trkpt lat="69.68217" lon="18.71573">
        <ele>32.732733</ele>
        <time>2020-07-16T13:52:14.786Z</time>
      </trkpt>
      <trkpt lat="69.68208" lon="18.71719">
        <ele>32.774809</ele>
        <time>2020-07-16T13:52:23.479Z</time>
      </trkpt>
      <trkpt lat="69.68207" lon="18.71733">
        <ele>32.729289</ele>
        <time>2020-07-16T13:52:24.402Z</time>
      </trkpt>
      <trkpt lat="69.68205" lon="18.71749">
        <ele>32.673441</ele>
        <time>2020-07-16T13:52:25.338Z</time>
      </trkpt>
      <trkpt lat="69.68198" lon="18.71922">
        <ele>32.101937</ele>
        <time>2020-07-16T13:52:34.856Z</time>
      </trkpt>
      <trkpt lat="69.68198" lon="18.71939">
        <ele>32.048204</ele>
        <time>2020-07-16T13:52:35.805Z</time>
      </trkpt>
      <trkpt lat="69.68198" lon="18.71957">
        <ele>31.989584</ele>
        <time>2020-07-16T13:52:36.725Z</time>
      </trkpt>
      <trkpt lat="69.68201" lon="18.72168">
        <ele>31.296905</ele>
        <time>2020-07-16T13:52:48.785Z</time>
      </trkpt>
      <trkpt lat="69.68202" lon="18.72213">
        <ele>31.198263</ele>
        <time>2020-07-16T13:52:51.390Z</time>
      </trkpt>
      <trkpt lat="69.68204" lon="18.72249">
        <ele>31.182724</ele>
        <time>2020-07-16T13:52:53.343Z</time>
      </trkpt>
      <trkpt lat="69.68214" lon="18.72532">
        <ele>31.059635</ele>
        <time>2020-07-16T13:53:11.009Z</time>
      </trkpt>
      <trkpt lat="69.68214" lon="18.7256">
        <ele>31.047738</ele>
        <time>2020-07-16T13:53:12.628Z</time>
      </trkpt>
      <trkpt lat="69.68214" lon="18.72577">
        <ele>31.040082</ele>
        <time>2020-07-16T13:53:14.331Z</time>
      </trkpt>
      <trkpt lat="69.68219" lon="18.72791">
        <ele>31.000255</ele>
        <time>2020-07-16T13:53:29.162Z</time>
      </trkpt>
      <trkpt lat="69.68217" lon="18.72861">
        <ele>31.016293</ele>
        <time>2020-07-16T13:53:33.868Z</time>
      </trkpt>
      <trkpt lat="69.68227" lon="18.7296">
        <ele>31.039764</ele>
        <time>2020-07-16T13:53:41.025Z</time>
      </trkpt>
      <trkpt lat="69.68232" lon="18.73118">
        <ele>31.076018</ele>
        <time>2020-07-16T13:53:51.025Z</time>
      </trkpt>
      <trkpt lat="69.68232" lon="18.73128">
        <ele>31.078254</ele>
        <time>2020-07-16T13:53:51.587Z</time>
      </trkpt>
      <trkpt lat="69.68231" lon="18.73139">
        <ele>31.080774</ele>
        <time>2020-07-16T13:53:52.481Z</time>
      </trkpt>
      <trkpt lat="69.68231" lon="18.73333">
        <ele>31.377135</ele>
        <time>2020-07-16T13:54:04.103Z</time>
      </trkpt>
      <trkpt lat="69.68232" lon="18.73358">
        <ele>31.440899</ele>
        <time>2020-07-16T13:54:06.026Z</time>
      </trkpt>
      <trkpt lat="69.68233" lon="18.73383">
        <ele>31.505933</ele>
        <time>2020-07-16T13:54:07.348Z</time>
      </trkpt>
      <trkpt lat="69.68238" lon="18.73493">
        <ele>31.787325</ele>
        <time>2020-07-16T13:54:15.277Z</time>
      </trkpt>
      <trkpt lat="69.68238" lon="18.73505">
        <ele>31.81831</ele>
        <time>2020-07-16T13:54:15.839Z</time>
      </trkpt>
      <trkpt lat="69.68238" lon="18.73521">
        <ele>31.857661</ele>
        <time>2020-07-16T13:54:17.552Z</time>
      </trkpt>
      <trkpt lat="69.68216" lon="18.73834">
        <ele>33.25353</ele>
        <time>2020-07-16T13:54:43.597Z</time>
      </trkpt>
      <trkpt lat="69.68213" lon="18.73859">
        <ele>33.474247</ele>
        <time>2020-07-16T13:54:46.754Z</time>
      </trkpt>
      <trkpt lat="69.68213" lon="18.73862">
        <ele>33.496345</ele>
        <time>2020-07-16T13:54:47.012Z</time>
      </trkpt>
      <trkpt lat="69.68212" lon="18.73874">
        <ele>33.598414</ele>
        <time>2020-07-16T13:54:48.162Z</time>
      </trkpt>
      <trkpt lat="69.68207" lon="18.73924">
        <ele>34.034455</ele>
        <time>2020-07-16T13:54:52.686Z</time>
      </trkpt>
      <trkpt lat="69.68191" lon="18.74036">
        <ele>35.049817</ele>
        <time>2020-07-16T13:55:04.668Z</time>
      </trkpt>
      <trkpt lat="69.68187" lon="18.74057">
        <ele>35.241747</ele>
        <time>2020-07-16T13:55:07.443Z</time>
      </trkpt>
      <trkpt lat="69.68167" lon="18.74152">
        <ele>36.172025</ele>
        <time>2020-07-16T13:55:18.186Z</time>
      </trkpt>
      <trkpt lat="69.68165" lon="18.74163">
        <ele>36.283401</ele>
        <time>2020-07-16T13:55:19.578Z</time>
      </trkpt>
      <trkpt lat="69.68088" lon="18.74511">
        <ele>36.859676</ele>
        <time>2020-07-16T13:55:52.497Z</time>
      </trkpt>
      <trkpt lat="69.68085" lon="18.74519">
        <ele>36.863715</ele>
        <time>2020-07-16T13:55:53.304Z</time>
      </trkpt>
      <trkpt lat="69.68077" lon="18.74542">
        <ele>36.874408</ele>
        <time>2020-07-16T13:55:55.012Z</time>
      </trkpt>
      <trkpt lat="69.68028" lon="18.74623">
        <ele>35.782453</ele>
        <time>2020-07-16T13:56:03.229Z</time>
      </trkpt>
      <trkpt lat="69.67951" lon="18.7466">
        <ele>30.417877</ele>
        <time>2020-07-16T13:56:12.942Z</time>
      </trkpt>
      <trkpt lat="69.67936" lon="18.74663">
        <ele>29.40013</ele>
        <time>2020-07-16T13:56:14.690Z</time>
      </trkpt>
      <trkpt lat="69.67931" lon="18.74664">
        <ele>29.01863</ele>
        <time>2020-07-16T13:56:15.319Z</time>
      </trkpt>
      <trkpt lat="69.67872" lon="18.74675">
        <ele>24.960487</ele>
        <time>2020-07-16T13:56:22.029Z</time>
      </trkpt>
      <trkpt lat="69.67846" lon="18.74681">
        <ele>22.812222</ele>
        <time>2020-07-16T13:56:25.060Z</time>
      </trkpt>
      <trkpt lat="69.67822" lon="18.74689">
        <ele>20.760318</ele>
        <time>2020-07-16T13:56:27.804Z</time>
      </trkpt>
      <trkpt lat="69.67818" lon="18.7469">
        <ele>20.417131</ele>
        <time>2020-07-16T13:56:28.304Z</time>
      </trkpt>
      <trkpt lat="69.67804" lon="18.74693">
        <ele>19.236157</ele>
        <time>2020-07-16T13:56:29.846Z</time>
      </trkpt>
      <trkpt lat="69.67782" lon="18.74701">
        <ele>17.326572</ele>
        <time>2020-07-16T13:56:32.465Z</time>
      </trkpt>
      <trkpt lat="69.67777" lon="18.74709">
        <ele>16.864715</ele>
        <time>2020-07-16T13:56:33.056Z</time>
      </trkpt>
      <trkpt lat="69.67772" lon="18.74716">
        <ele>16.40422</ele>
        <time>2020-07-16T13:56:33.657Z</time>
      </trkpt>
      <trkpt lat="69.67758" lon="18.74743">
        <ele>14.907514</ele>
        <time>2020-07-16T13:56:35.765Z</time>
      </trkpt>
      <trkpt lat="69.67734" lon="18.74758">
        <ele>12.875814</ele>
        <time>2020-07-16T13:56:38.557Z</time>
      </trkpt>
      <trkpt lat="69.67733" lon="18.74759">
        <ele>12.738476</ele>
        <time>2020-07-16T13:56:38.726Z</time>
      </trkpt>
      <trkpt lat="69.67733" lon="18.74769">
        <ele>12.425417</ele>
        <time>2020-07-16T13:56:39.191Z</time>
      </trkpt>
      <trkpt lat="69.67733" lon="18.74775">
        <ele>12.249725</ele>
        <time>2020-07-16T13:56:40.640Z</time>
      </trkpt>
      <trkpt lat="69.67734" lon="18.74786">
        <ele>11.926227</ele>
        <time>2020-07-16T13:56:43.284Z</time>
      </trkpt>
      <trkpt lat="69.67734" lon="18.74798">
        <ele>11.562142</ele>
        <time>2020-07-16T13:56:46.262Z</time>
      </trkpt>
      <trkpt lat="69.67734" lon="18.74807">
        <ele>11.290291</ele>
        <time>2020-07-16T13:56:48.469Z</time>
      </trkpt>
      <trkpt lat="69.67733" lon="18.74824">
        <ele>10.794697</ele>
        <time>2020-07-16T13:56:49.124Z</time>
      </trkpt>
      <trkpt lat="69.67727" lon="18.74859">
        <ele>9.65437</ele>
        <time>2020-07-16T13:56:50.666Z</time>
      </trkpt>
      <trkpt lat="69.67724" lon="18.74871">
        <ele>9.203958</ele>
        <time>2020-07-16T13:56:51.408Z</time>
      </trkpt>
      <trkpt lat="69.6772" lon="18.74885">
        <ele>9.031131</ele>
        <time>2020-07-16T13:56:52.302Z</time>
      </trkpt>
      <trkpt lat="69.67678" lon="18.74992">
        <ele>7.972622</ele>
        <time>2020-07-16T13:56:59.644Z</time>
      </trkpt>
      <trkpt lat="69.67676" lon="18.74996">
        <ele>7.919315</ele>
        <time>2020-07-16T13:57:00.087Z</time>
      </trkpt>
      <trkpt lat="69.67673" lon="18.75001">
        <ele>7.851605</ele>
        <time>2020-07-16T13:57:00.535Z</time>
      </trkpt>
      <trkpt lat="69.67657" lon="18.75019">
        <ele>7.532896</ele>
        <time>2020-07-16T13:57:03.842Z</time>
      </trkpt>
      <trkpt lat="69.67649" lon="18.75032">
        <ele>7.35278</ele>
        <time>2020-07-16T13:57:05.501Z</time>
      </trkpt>
      <trkpt lat="69.67637" lon="18.7505">
        <ele>7.09358</ele>
        <time>2020-07-16T13:57:07.625Z</time>
      </trkpt>
      <trkpt lat="69.67586" lon="18.75157">
        <ele>5.893396</ele>
        <time>2020-07-16T13:57:20.276Z</time>
      </trkpt>
      <trkpt lat="69.67581" lon="18.75171">
        <ele>5.767492</ele>
        <time>2020-07-16T13:57:21.816Z</time>
      </trkpt>
      <trkpt lat="69.67573" lon="18.75195">
        <ele>5.737643</ele>
        <time>2020-07-16T13:57:24.174Z</time>
      </trkpt>
      <trkpt lat="69.67525" lon="18.7539">
        <ele>5.839158</ele>
        <time>2020-07-16T13:57:40.350Z</time>
      </trkpt>
      <trkpt lat="69.67519" lon="18.75415">
        <ele>5.852083</ele>
        <time>2020-07-16T13:57:42.609Z</time>
      </trkpt>
      <trkpt lat="69.67515" lon="18.7543">
        <ele>5.859713</ele>
        <time>2020-07-16T13:57:43.941Z</time>
      </trkpt>
      <trkpt lat="69.67496" lon="18.75521">
        <ele>5.904831</ele>
        <time>2020-07-16T13:57:50.726Z</time>
      </trkpt>
      <trkpt lat="69.67493" lon="18.75533">
        <ele>5.910831</ele>
        <time>2020-07-16T13:57:51.722Z</time>
      </trkpt>
      <trkpt lat="69.67491" lon="18.75544">
        <ele>5.916522</ele>
        <time>2020-07-16T13:57:52.437Z</time>
      </trkpt>
      <trkpt lat="69.67454" lon="18.75707">
        <ele>5.641663</ele>
        <time>2020-07-16T13:58:04.237Z</time>
      </trkpt>
      <trkpt lat="69.67435" lon="18.75817">
        <ele>5.346693</ele>
        <time>2020-07-16T13:58:11.316Z</time>
      </trkpt>
      <trkpt lat="69.67434" lon="18.7583">
        <ele>5.314185</ele>
        <time>2020-07-16T13:58:12.048Z</time>
      </trkpt>
      <trkpt lat="69.67433" lon="18.7584">
        <ele>5.28764</ele>
        <time>2020-07-16T13:58:12.591Z</time>
      </trkpt>
      <trkpt lat="69.67428" lon="18.75947">
        <ele>5.026476</ele>
        <time>2020-07-16T13:58:18.687Z</time>
      </trkpt>
      <trkpt lat="69.67433" lon="18.76082">
        <ele>4.697892</ele>
        <time>2020-07-16T13:58:26.435Z</time>
      </trkpt>
      <trkpt lat="69.67504" lon="18.7661">
        <ele>3.968752</ele>
        <time>2020-07-16T13:59:00.577Z</time>
      </trkpt>
      <trkpt lat="69.67526" lon="18.76698">
        <ele>4.118296</ele>
        <time>2020-07-16T13:59:08.162Z</time>
      </trkpt>
      <trkpt lat="69.6756" lon="18.76788">
        <ele>4.30082</ele>
        <time>2020-07-16T13:59:17.890Z</time>
      </trkpt>
      <trkpt lat="69.67659" lon="18.77009">
        <ele>4.460869</ele>
        <time>2020-07-16T13:59:43.594Z</time>
      </trkpt>
      <trkpt lat="69.67694" lon="18.77059">
        <ele>4.32855</ele>
        <time>2020-07-16T13:59:50.849Z</time>
      </trkpt>
      <trkpt lat="69.67696" lon="18.77064">
        <ele>4.320141</ele>
        <time>2020-07-16T13:59:51.685Z</time>
      </trkpt>
      <trkpt lat="69.67698" lon="18.77069">
        <ele>4.311243</ele>
        <time>2020-07-16T13:59:51.999Z</time>
      </trkpt>
      <trkpt lat="69.6772" lon="18.77148">
        <ele>4.190303</ele>
        <time>2020-07-16T13:59:58.067Z</time>
      </trkpt>
      <trkpt lat="69.6783" lon="18.77389">
        <ele>3.042947</ele>
        <time>2020-07-16T14:00:19.970Z</time>
      </trkpt>
      <trkpt lat="69.67836" lon="18.774">
        <ele>2.95998</ele>
        <time>2020-07-16T14:00:21.012Z</time>
      </trkpt>
      <trkpt lat="69.67841" lon="18.77408">
        <ele>2.898964</ele>
        <time>2020-07-16T14:00:21.896Z</time>
      </trkpt>
      <trkpt lat="69.67843" lon="18.77414">
        <ele>2.864383</ele>
        <time>2020-07-16T14:00:22.399Z</time>
      </trkpt>
      <trkpt lat="69.67846" lon="18.77423">
        <ele>2.81489</ele>
        <time>2020-07-16T14:00:23.055Z</time>
      </trkpt>
      <trkpt lat="69.67892" lon="18.7754">
        <ele>2.107035</ele>
        <time>2020-07-16T14:00:32.857Z</time>
      </trkpt>
      <trkpt lat="69.67977" lon="18.77814">
        <ele>1.205184</ele>
        <time>2020-07-16T14:00:54.103Z</time>
      </trkpt>
      <trkpt lat="69.67993" lon="18.77867">
        <ele>1.04507</ele>
        <time>2020-07-16T14:00:58.375Z</time>
      </trkpt>
      <trkpt lat="69.68" lon="18.77894">
        <ele>0.96826</ele>
        <time>2020-07-16T14:01:00.362Z</time>
      </trkpt>
      <trkpt lat="69.68049" lon="18.78047">
        <ele>0.770439</ele>
        <time>2020-07-16T14:01:13.090Z</time>
      </trkpt>
      <trkpt lat="69.68073" lon="18.78125">
        <ele>0.775026</ele>
        <time>2020-07-16T14:01:19.852Z</time>
      </trkpt>
      <trkpt lat="69.68078" lon="18.78142">
        <ele>0.77601</ele>
        <time>2020-07-16T14:01:21.358Z</time>
      </trkpt>
      <trkpt lat="69.68087" lon="18.78169">
        <ele>0.777629</ele>
        <time>2020-07-16T14:01:23.871Z</time>
      </trkpt>
      <trkpt lat="69.68089" lon="18.78176">
        <ele>0.778028</ele>
        <time>2020-07-16T14:01:24.419Z</time>
      </trkpt>
      <trkpt lat="69.68097" lon="18.78202">
        <ele>0.779498</ele>
        <time>2020-07-16T14:01:26.532Z</time>
      </trkpt>
      <trkpt lat="69.68113" lon="18.78259">
        <ele>0.782785</ele>
        <time>2020-07-16T14:01:31.625Z</time>
      </trkpt>
      <trkpt lat="69.68125" lon="18.78298">
        <ele>0.785012</ele>
        <time>2020-07-16T14:01:35.127Z</time>
      </trkpt>
      <trkpt lat="69.68131" lon="18.78321">
        <ele>0.786288</ele>
        <time>2020-07-16T14:01:37.064Z</time>
      </trkpt>
      <trkpt lat="69.68138" lon="18.78346">
        <ele>0.78767</ele>
        <time>2020-07-16T14:01:39.047Z</time>
      </trkpt>
      <trkpt lat="69.68145" lon="18.78374">
        <ele>0.796347</ele>
        <time>2020-07-16T14:01:41.485Z</time>
      </trkpt>
      <trkpt lat="69.68149" lon="18.78391">
        <ele>0.802286</ele>
        <time>2020-07-16T14:01:42.874Z</time>
      </trkpt>
      <trkpt lat="69.68183" lon="18.78581">
        <ele>0.865964</ele>
        <time>2020-07-16T14:01:57.040Z</time>
      </trkpt>
      <trkpt lat="69.68197" lon="18.78613">
        <ele>0.881668</ele>
        <time>2020-07-16T14:02:00.412Z</time>
      </trkpt>
      <trkpt lat="69.68201" lon="18.7863">
        <ele>0.887557</ele>
        <time>2020-07-16T14:02:01.847Z</time>
      </trkpt>
      <trkpt lat="69.68202" lon="18.78636">
        <ele>0.889497</ele>
        <time>2020-07-16T14:02:03.432Z</time>
      </trkpt>
      <trkpt lat="69.68204" lon="18.7865">
        <ele>0.894314</ele>
        <time>2020-07-16T14:02:07.349Z</time>
      </trkpt>
      <trkpt lat="69.68205" lon="18.78656">
        <ele>0.896241</ele>
        <time>2020-07-16T14:02:08.918Z</time>
      </trkpt>
      <trkpt lat="69.68206" lon="18.78662">
        <ele>0.898104</ele>
        <time>2020-07-16T14:02:09.268Z</time>
      </trkpt>
      <trkpt lat="69.68208" lon="18.78739">
        <ele>0.9213</ele>
        <time>2020-07-16T14:02:14.467Z</time>
      </trkpt>
      <trkpt lat="69.68286" lon="18.79202">
        <ele>0.596307</ele>
        <time>2020-07-16T14:02:46.151Z</time>
      </trkpt>
      <trkpt lat="69.6829" lon="18.79225">
        <ele>0.576476</ele>
        <time>2020-07-16T14:02:47.666Z</time>
      </trkpt>
      <trkpt lat="69.68307" lon="18.79325">
        <ele>0.533238</ele>
        <time>2020-07-16T14:02:54.837Z</time>
      </trkpt>
      <trkpt lat="69.68311" lon="18.79351">
        <ele>0.530845</ele>
        <time>2020-07-16T14:02:56.786Z</time>
      </trkpt>
      <trkpt lat="69.68314" lon="18.79369">
        <ele>0.529165</ele>
        <time>2020-07-16T14:02:58.062Z</time>
      </trkpt>
      <trkpt lat="69.68347" lon="18.7957">
        <ele>0.5107</ele>
        <time>2020-07-16T14:03:12.420Z</time>
      </trkpt>
      <trkpt lat="69.68358" lon="18.79667">
        <ele>0.502155</ele>
        <time>2020-07-16T14:03:19.105Z</time>
      </trkpt>
      <trkpt lat="69.68364" lon="18.79717">
        <ele>0.497737</ele>
        <time>2020-07-16T14:03:22.554Z</time>
      </trkpt>
      <trkpt lat="69.68365" lon="18.79742">
        <ele>0.495588</ele>
        <time>2020-07-16T14:03:24.206Z</time>
      </trkpt>
      <trkpt lat="69.68369" lon="18.79786">
        <ele>0.485871</ele>
        <time>2020-07-16T14:03:27.053Z</time>
      </trkpt>
      <trkpt lat="69.68372" lon="18.79817">
        <ele>0.478725</ele>
        <time>2020-07-16T14:03:29.053Z</time>
      </trkpt>
      <trkpt lat="69.68377" lon="18.79892">
        <ele>0.46111</ele>
        <time>2020-07-16T14:03:33.873Z</time>
      </trkpt>
      <trkpt lat="69.68382" lon="18.79981">
        <ele>0.440505</ele>
        <time>2020-07-16T14:03:39.665Z</time>
      </trkpt>
      <trkpt lat="69.68381" lon="18.80089">
        <ele>0.416076</ele>
        <time>2020-07-16T14:03:46.476Z</time>
      </trkpt>
      <trkpt lat="69.68381" lon="18.80098">
        <ele>0.413854</ele>
        <time>2020-07-16T14:03:47.023Z</time>
      </trkpt>
      <trkpt lat="69.6838" lon="18.80107">
        <ele>0.411766</ele>
        <time>2020-07-16T14:03:49.234Z</time>
      </trkpt>
      <trkpt lat="69.6838" lon="18.80126">
        <ele>0.407481</ele>
        <time>2020-07-16T14:03:53.783Z</time>
      </trkpt>
      <trkpt lat="69.68379" lon="18.80135">
        <ele>0.405349</ele>
        <time>2020-07-16T14:03:56.064Z</time>
      </trkpt>
      <trkpt lat="69.68379" lon="18.80144">
        <ele>0.40335</ele>
        <time>2020-07-16T14:03:56.618Z</time>
      </trkpt>
      <trkpt lat="69.68379" lon="18.80158">
        <ele>0.400091</ele>
        <time>2020-07-16T14:03:57.507Z</time>
      </trkpt>
      <trkpt lat="69.68372" lon="18.80705">
        <ele>0.431747</ele>
        <time>2020-07-16T14:04:32.546Z</time>
      </trkpt>
      <trkpt lat="69.68388" lon="18.8133">
        <ele>1.060647</ele>
        <time>2020-07-16T14:05:15.827Z</time>
      </trkpt>
      <trkpt lat="69.68394" lon="18.81371">
        <ele>1.070169</ele>
        <time>2020-07-16T14:05:18.800Z</time>
      </trkpt>
      <trkpt lat="69.68394" lon="18.81377">
        <ele>1.071411</ele>
        <time>2020-07-16T14:05:19.362Z</time>
      </trkpt>
      <trkpt lat="69.68395" lon="18.81381">
        <ele>1.072465</ele>
        <time>2020-07-16T14:05:19.689Z</time>
      </trkpt>
      <trkpt lat="69.68395" lon="18.81388">
        <ele>1.073865</ele>
        <time>2020-07-16T14:05:21.263Z</time>
      </trkpt>
      <trkpt lat="69.68395" lon="18.81393">
        <ele>1.075024</ele>
        <time>2020-07-16T14:05:22.591Z</time>
      </trkpt>
      <trkpt lat="69.68395" lon="18.814">
        <ele>1.076392</ele>
        <time>2020-07-16T14:05:24.132Z</time>
      </trkpt>
      <trkpt lat="69.68396" lon="18.81405">
        <ele>1.077573</ele>
        <time>2020-07-16T14:05:25.468Z</time>
      </trkpt>
      <trkpt lat="69.68396" lon="18.81412">
        <ele>1.079116</ele>
        <time>2020-07-16T14:05:27.219Z</time>
      </trkpt>
      <trkpt lat="69.68396" lon="18.8142">
        <ele>1.080722</ele>
        <time>2020-07-16T14:05:27.725Z</time>
      </trkpt>
      <trkpt lat="69.68392" lon="18.81459">
        <ele>1.08949</ele>
        <time>2020-07-16T14:05:30.430Z</time>
      </trkpt>
      <trkpt lat="69.68411" lon="18.82216">
        <ele>0.89571</ele>
        <time>2020-07-16T14:06:18.546Z</time>
      </trkpt>
      <trkpt lat="69.68412" lon="18.82258">
        <ele>0.867975</ele>
        <time>2020-07-16T14:06:21.076Z</time>
      </trkpt>
      <trkpt lat="69.68416" lon="18.8243">
        <ele>0.71685</ele>
        <time>2020-07-16T14:06:31.690Z</time>
      </trkpt>
      <trkpt lat="69.68418" lon="18.82516">
        <ele>0.630479</ele>
        <time>2020-07-16T14:06:36.929Z</time>
      </trkpt>
      <trkpt lat="69.68429" lon="18.82905">
        <ele>0.293162</ele>
        <time>2020-07-16T14:07:01.016Z</time>
      </trkpt>
      <trkpt lat="69.68431" lon="18.8298">
        <ele>0.279239</ele>
        <time>2020-07-16T14:07:05.740Z</time>
      </trkpt>
      <trkpt lat="69.68435" lon="18.83152">
        <ele>0.24746</ele>
        <time>2020-07-16T14:07:16.784Z</time>
      </trkpt>
      <trkpt lat="69.68437" lon="18.83233">
        <ele>0.23247</ele>
        <time>2020-07-16T14:07:22.039Z</time>
      </trkpt>
      <trkpt lat="69.68441" lon="18.83343">
        <ele>0.21194</ele>
        <time>2020-07-16T14:07:29.240Z</time>
      </trkpt>
      <trkpt lat="69.68441" lon="18.83347">
        <ele>0.211176</ele>
        <time>2020-07-16T14:07:29.507Z</time>
      </trkpt>
      <trkpt lat="69.68444" lon="18.83398">
        <ele>0.221689</ele>
        <time>2020-07-16T14:07:32.812Z</time>
      </trkpt>
      <trkpt lat="69.68446" lon="18.83424">
        <ele>0.228646</ele>
        <time>2020-07-16T14:07:34.574Z</time>
      </trkpt>
      <trkpt lat="69.68447" lon="18.83437">
        <ele>0.231857</ele>
        <time>2020-07-16T14:07:35.465Z</time>
      </trkpt>
      <trkpt lat="69.68495" lon="18.84007">
        <ele>0.332305</ele>
        <time>2020-07-16T14:08:14.030Z</time>
      </trkpt>
      <trkpt lat="69.68504" lon="18.84109">
        <ele>0.324298</ele>
        <time>2020-07-16T14:08:20.756Z</time>
      </trkpt>
      <trkpt lat="69.68508" lon="18.84156">
        <ele>0.320679</ele>
        <time>2020-07-16T14:08:23.767Z</time>
      </trkpt>
      <trkpt lat="69.6853" lon="18.84413">
        <ele>0.331386</ele>
        <time>2020-07-16T14:08:40.909Z</time>
      </trkpt>
      <trkpt lat="69.68538" lon="18.84496">
        <ele>0.373459</ele>
        <time>2020-07-16T14:08:46.306Z</time>
      </trkpt>
      <trkpt lat="69.68541" lon="18.84525">
        <ele>0.388684</ele>
        <time>2020-07-16T14:08:48.250Z</time>
      </trkpt>
      <trkpt lat="69.68545" lon="18.84557">
        <ele>0.405576</ele>
        <time>2020-07-16T14:08:50.414Z</time>
      </trkpt>
      <trkpt lat="69.68551" lon="18.84591">
        <ele>0.42419</ele>
        <time>2020-07-16T14:08:52.961Z</time>
      </trkpt>
      <trkpt lat="69.68557" lon="18.84618">
        <ele>0.440338</ele>
        <time>2020-07-16T14:08:55.049Z</time>
      </trkpt>
      <trkpt lat="69.6862" lon="18.84839">
        <ele>0.719124</ele>
        <time>2020-07-16T14:09:14.002Z</time>
      </trkpt>
      <trkpt lat="69.68626" lon="18.84862">
        <ele>0.834662</ele>
        <time>2020-07-16T14:09:16.174Z</time>
      </trkpt>
      <trkpt lat="69.68641" lon="18.84911">
        <ele>1.083</ele>
        <time>2020-07-16T14:09:20.850Z</time>
      </trkpt>
      <trkpt lat="69.68697" lon="18.85106">
        <ele>2.059441</ele>
        <time>2020-07-16T14:09:40.102Z</time>
      </trkpt>
      <trkpt lat="69.68716" lon="18.85173">
        <ele>2.393406</ele>
        <time>2020-07-16T14:09:46.864Z</time>
      </trkpt>
      <trkpt lat="69.68718" lon="18.85182">
        <ele>2.434631</ele>
        <time>2020-07-16T14:09:47.983Z</time>
      </trkpt>
      <trkpt lat="69.68844" lon="18.85617">
        <ele>6.679794</ele>
        <time>2020-07-16T14:10:39.869Z</time>
      </trkpt>
      <trkpt lat="69.68862" lon="18.85646">
        <ele>6.919872</ele>
        <time>2020-07-16T14:10:44.626Z</time>
      </trkpt>
      <trkpt lat="69.68863" lon="18.85649">
        <ele>6.936361</ele>
        <time>2020-07-16T14:10:45.709Z</time>
      </trkpt>
      <trkpt lat="69.68864" lon="18.85655">
        <ele>6.963527</ele>
        <time>2020-07-16T14:10:47.348Z</time>
      </trkpt>
      <trkpt lat="69.68865" lon="18.8566">
        <ele>6.984667</ele>
        <time>2020-07-16T14:10:48.625Z</time>
      </trkpt>
      <trkpt lat="69.68866" lon="18.85666">
        <ele>7.014234</ele>
        <time>2020-07-16T14:10:50.417Z</time>
      </trkpt>
      <trkpt lat="69.68868" lon="18.85671">
        <ele>7.03836</ele>
        <time>2020-07-16T14:10:51.855Z</time>
      </trkpt>
      <trkpt lat="69.68869" lon="18.85674">
        <ele>7.061665</ele>
        <time>2020-07-16T14:10:53.270Z</time>
      </trkpt>
      <trkpt lat="69.6887" lon="18.85678">
        <ele>7.081647</ele>
        <time>2020-07-16T14:10:53.730Z</time>
      </trkpt>
      <trkpt lat="69.68873" lon="18.85717">
        <ele>7.239246</ele>
        <time>2020-07-16T14:10:56.736Z</time>
      </trkpt>
      <trkpt lat="69.68968" lon="18.86044">
        <ele>8.557169</ele>
        <time>2020-07-16T14:11:28.607Z</time>
      </trkpt>
      <trkpt lat="69.68973" lon="18.86059">
        <ele>8.517273</ele>
        <time>2020-07-16T14:11:29.703Z</time>
      </trkpt>
      <trkpt lat="69.68977" lon="18.86074">
        <ele>8.47857</ele>
        <time>2020-07-16T14:11:30.789Z</time>
      </trkpt>
      <trkpt lat="69.69008" lon="18.86179">
        <ele>8.204216</ele>
        <time>2020-07-16T14:11:38.622Z</time>
      </trkpt>
      <trkpt lat="69.69012" lon="18.86194">
        <ele>8.166731</ele>
        <time>2020-07-16T14:11:39.621Z</time>
      </trkpt>
      <trkpt lat="69.69017" lon="18.86215">
        <ele>8.113053</ele>
        <time>2020-07-16T14:11:41.141Z</time>
      </trkpt>
      <trkpt lat="69.6902" lon="18.86223">
        <ele>8.08986</ele>
        <time>2020-07-16T14:11:41.725Z</time>
      </trkpt>
      <trkpt lat="69.69053" lon="18.8634">
        <ele>7.787332</ele>
        <time>2020-07-16T14:11:50.312Z</time>
      </trkpt>
      <trkpt lat="69.69055" lon="18.86346">
        <ele>7.771088</ele>
        <time>2020-07-16T14:11:50.735Z</time>
      </trkpt>
      <trkpt lat="69.69062" lon="18.86366">
        <ele>7.716533</ele>
        <time>2020-07-16T14:11:52.510Z</time>
      </trkpt>
      <trkpt lat="69.69065" lon="18.86377">
        <ele>7.686871</ele>
        <time>2020-07-16T14:11:53.303Z</time>
      </trkpt>
      <trkpt lat="69.69071" lon="18.86397">
        <ele>7.640876</ele>
        <time>2020-07-16T14:11:54.785Z</time>
      </trkpt>
      <trkpt lat="69.69073" lon="18.86403">
        <ele>7.630427</ele>
        <time>2020-07-16T14:11:55.237Z</time>
      </trkpt>
      <trkpt lat="69.69074" lon="18.86407">
        <ele>7.623755</ele>
        <time>2020-07-16T14:11:55.477Z</time>
      </trkpt>
      <trkpt lat="69.69098" lon="18.86492">
        <ele>7.479012</ele>
        <time>2020-07-16T14:12:01.946Z</time>
      </trkpt>
      <trkpt lat="69.69116" lon="18.86556">
        <ele>7.369864</ele>
        <time>2020-07-16T14:12:06.922Z</time>
      </trkpt>
      <trkpt lat="69.69124" lon="18.86584">
        <ele>7.323602</ele>
        <time>2020-07-16T14:12:08.901Z</time>
      </trkpt>
      <trkpt lat="69.69132" lon="18.86619">
        <ele>7.266127</ele>
        <time>2020-07-16T14:12:11.771Z</time>
      </trkpt>
      <trkpt lat="69.69145" lon="18.86644">
        <ele>7.208183</ele>
        <time>2020-07-16T14:12:14.346Z</time>
      </trkpt>
      <trkpt lat="69.69153" lon="18.86649">
        <ele>7.177423</ele>
        <time>2020-07-16T14:12:15.786Z</time>
      </trkpt>
      <trkpt lat="69.69154" lon="18.8665">
        <ele>7.173847</ele>
        <time>2020-07-16T14:12:16.023Z</time>
      </trkpt>
      <trkpt lat="69.69155" lon="18.86652">
        <ele>7.167573</ele>
        <time>2020-07-16T14:12:16.321Z</time>
      </trkpt>
      <trkpt lat="69.69159" lon="18.86657">
        <ele>7.152247</ele>
        <time>2020-07-16T14:12:17.132Z</time>
      </trkpt>
      <trkpt lat="69.6916" lon="18.86663">
        <ele>7.143779</ele>
        <time>2020-07-16T14:12:18.689Z</time>
      </trkpt>
      <trkpt lat="69.69161" lon="18.8667">
        <ele>7.134925</ele>
        <time>2020-07-16T14:12:20.296Z</time>
      </trkpt>
      <trkpt lat="69.69162" lon="18.86675">
        <ele>7.127207</ele>
        <time>2020-07-16T14:12:21.738Z</time>
      </trkpt>
      <trkpt lat="69.69163" lon="18.8668">
        <ele>7.1179</ele>
        <time>2020-07-16T14:12:23.438Z</time>
      </trkpt>
      <trkpt lat="69.69165" lon="18.86686">
        <ele>7.108295</ele>
        <time>2020-07-16T14:12:25.188Z</time>
      </trkpt>
      <trkpt lat="69.69168" lon="18.86697">
        <ele>7.08946</ele>
        <time>2020-07-16T14:12:26.056Z</time>
      </trkpt>
      <trkpt lat="69.6917" lon="18.86706">
        <ele>7.075672</ele>
        <time>2020-07-16T14:12:26.605Z</time>
      </trkpt>
      <trkpt lat="69.69178" lon="18.86765">
        <ele>6.991743</ele>
        <time>2020-07-16T14:12:30.998Z</time>
      </trkpt>
      <trkpt lat="69.69256" lon="18.87034">
        <ele>7.186826</ele>
        <time>2020-07-16T14:12:54.660Z</time>
      </trkpt>
      <trkpt lat="69.69262" lon="18.87051">
        <ele>7.201619</ele>
        <time>2020-07-16T14:12:56.133Z</time>
      </trkpt>
      <trkpt lat="69.69266" lon="18.87065">
        <ele>7.21399</ele>
        <time>2020-07-16T14:12:57.414Z</time>
      </trkpt>
      <trkpt lat="69.69372" lon="18.87427">
        <ele>7.059542</ele>
        <time>2020-07-16T14:13:28.446Z</time>
      </trkpt>
      <trkpt lat="69.69387" lon="18.87476">
        <ele>7.01169</ele>
        <time>2020-07-16T14:13:32.219Z</time>
      </trkpt>
      <trkpt lat="69.69419" lon="18.87585">
        <ele>6.812363</ele>
        <time>2020-07-16T14:13:40.813Z</time>
      </trkpt>
      <trkpt lat="69.69436" lon="18.87642">
        <ele>6.413622</ele>
        <time>2020-07-16T14:13:45.133Z</time>
      </trkpt>
      <trkpt lat="69.69441" lon="18.87662">
        <ele>6.28219</ele>
        <time>2020-07-16T14:13:46.630Z</time>
      </trkpt>
      <trkpt lat="69.69456" lon="18.87712">
        <ele>5.940845</ele>
        <time>2020-07-16T14:13:49.965Z</time>
      </trkpt>
      <trkpt lat="69.69535" lon="18.87993">
        <ele>4.026264</ele>
        <time>2020-07-16T14:14:08.996Z</time>
      </trkpt>
      <trkpt lat="69.69537" lon="18.88006">
        <ele>3.943557</ele>
        <time>2020-07-16T14:14:09.659Z</time>
      </trkpt>
      <trkpt lat="69.69545" lon="18.88041">
        <ele>3.720553</ele>
        <time>2020-07-16T14:14:11.715Z</time>
      </trkpt>
      <trkpt lat="69.69557" lon="18.88086">
        <ele>3.401756</ele>
        <time>2020-07-16T14:14:14.698Z</time>
      </trkpt>
      <trkpt lat="69.69559" lon="18.88092">
        <ele>3.35613</ele>
        <time>2020-07-16T14:14:15.085Z</time>
      </trkpt>
      <trkpt lat="69.69561" lon="18.88094">
        <ele>3.320577</ele>
        <time>2020-07-16T14:14:15.446Z</time>
      </trkpt>
      <trkpt lat="69.69575" lon="18.88109">
        <ele>3.08214</ele>
        <time>2020-07-16T14:14:17.605Z</time>
      </trkpt>
      <trkpt lat="69.69582" lon="18.88153">
        <ele>2.815186</ele>
        <time>2020-07-16T14:14:19.998Z</time>
      </trkpt>
      <trkpt lat="69.69585" lon="18.88169">
        <ele>2.722312</ele>
        <time>2020-07-16T14:14:20.874Z</time>
      </trkpt>
      <trkpt lat="69.69587" lon="18.88182">
        <ele>2.634048</ele>
        <time>2020-07-16T14:14:21.747Z</time>
      </trkpt>
      <trkpt lat="69.6959" lon="18.88197">
        <ele>2.542121</ele>
        <time>2020-07-16T14:14:22.554Z</time>
      </trkpt>
      <trkpt lat="69.69593" lon="18.88207">
        <ele>2.474029</ele>
        <time>2020-07-16T14:14:23.131Z</time>
      </trkpt>
      <trkpt lat="69.69609" lon="18.88268">
        <ele>2.046881</ele>
        <time>2020-07-16T14:14:27.190Z</time>
      </trkpt>
      <trkpt lat="69.69611" lon="18.88273">
        <ele>2.011624</ele>
        <time>2020-07-16T14:14:27.474Z</time>
      </trkpt>
      <trkpt lat="69.69615" lon="18.88285">
        <ele>1.917455</ele>
        <time>2020-07-16T14:14:28.322Z</time>
      </trkpt>
      <trkpt lat="69.69628" lon="18.88326">
        <ele>1.606764</ele>
        <time>2020-07-16T14:14:31.278Z</time>
      </trkpt>
      <trkpt lat="69.69629" lon="18.88363">
        <ele>1.402634</ele>
        <time>2020-07-16T14:14:33.248Z</time>
      </trkpt>
      <trkpt lat="69.69631" lon="18.88368">
        <ele>1.362064</ele>
        <time>2020-07-16T14:14:33.606Z</time>
      </trkpt>
      <trkpt lat="69.6963" lon="18.88376">
        <ele>1.322619</ele>
        <time>2020-07-16T14:14:34.083Z</time>
      </trkpt>
      <trkpt lat="69.69628" lon="18.88392">
        <ele>1.293527</ele>
        <time>2020-07-16T14:14:38.113Z</time>
      </trkpt>
      <trkpt lat="69.69627" lon="18.88403">
        <ele>1.274299</ele>
        <time>2020-07-16T14:14:40.816Z</time>
      </trkpt>
      <trkpt lat="69.69625" lon="18.88411">
        <ele>1.258459</ele>
        <time>2020-07-16T14:14:41.405Z</time>
      </trkpt>
      <trkpt lat="69.69604" lon="18.88412">
        <ele>1.152665</ele>
        <time>2020-07-16T14:14:44.796Z</time>
      </trkpt>
      <trkpt lat="69.69595" lon="18.88438">
        <ele>1.087228</ele>
        <time>2020-07-16T14:14:47.215Z</time>
      </trkpt>
      <trkpt lat="69.69573" lon="18.88608">
        <ele>0.77214</ele>
        <time>2020-07-16T14:14:57.795Z</time>
      </trkpt>
      <trkpt lat="69.6957" lon="18.88624">
        <ele>0.740044</ele>
        <time>2020-07-16T14:14:59.080Z</time>
      </trkpt>
      <trkpt lat="69.69565" lon="18.88646">
        <ele>0.694297</ele>
        <time>2020-07-16T14:15:00.717Z</time>
      </trkpt>
      <trkpt lat="69.69537" lon="18.88822">
        <ele>0.4016</ele>
        <time>2020-07-16T14:15:13.060Z</time>
      </trkpt>
      <trkpt lat="69.69534" lon="18.88839">
        <ele>0.390588</ele>
        <time>2020-07-16T14:15:14.130Z</time>
      </trkpt>
      <trkpt lat="69.69527" lon="18.88887">
        <ele>0.358642</ele>
        <time>2020-07-16T14:15:17.419Z</time>
      </trkpt>
      <trkpt lat="69.69495" lon="18.89069">
        <ele>0.234542</ele>
        <time>2020-07-16T14:15:30.257Z</time>
      </trkpt>
      <trkpt lat="69.69459" lon="18.89234">
        <ele>0.115856</ele>
        <time>2020-07-16T14:15:42.366Z</time>
      </trkpt>
      <trkpt lat="69.69392" lon="18.89481">
        <ele>0.050712</ele>
        <time>2020-07-16T14:16:02.415Z</time>
      </trkpt>
      <trkpt lat="69.69316" lon="18.89698">
        <ele>0.035795</ele>
        <time>2020-07-16T14:16:22.363Z</time>
      </trkpt>
      <trkpt lat="69.68996" lon="18.90532">
        <ele>0.435439</ele>
        <time>2020-07-16T14:17:43.701Z</time>
      </trkpt>
      <trkpt lat="69.68935" lon="18.90676">
        <ele>0.537999</ele>
        <time>2020-07-16T14:17:58.909Z</time>
      </trkpt>
      <trkpt lat="69.68879" lon="18.90772">
        <ele>0.673312</ele>
        <time>2020-07-16T14:18:11.596Z</time>
      </trkpt>
      <trkpt lat="69.68816" lon="18.90843">
        <ele>0.811861</ele>
        <time>2020-07-16T14:18:24.573Z</time>
      </trkpt>
      <trkpt lat="69.68743" lon="18.90885">
        <ele>1.0002</ele>
        <time>2020-07-16T14:18:38.759Z</time>
      </trkpt>
      <trkpt lat="69.68737" lon="18.90887">
        <ele>1.021871</ele>
        <time>2020-07-16T14:18:40.054Z</time>
      </trkpt>
      <trkpt lat="69.68729" lon="18.90888">
        <ele>1.044746</ele>
        <time>2020-07-16T14:18:41.351Z</time>
      </trkpt>
      <trkpt lat="69.68701" lon="18.90908">
        <ele>1.138004</ele>
        <time>2020-07-16T14:18:46.646Z</time>
      </trkpt>
      <trkpt lat="69.68657" lon="18.90906">
        <ele>1.282165</ele>
        <time>2020-07-16T14:18:55.132Z</time>
      </trkpt>
      <trkpt lat="69.6861" lon="18.90888">
        <ele>1.432791</ele>
        <time>2020-07-16T14:19:04.065Z</time>
      </trkpt>
      <trkpt lat="69.68549" lon="18.90842">
        <ele>1.681835</ele>
        <time>2020-07-16T14:19:16.496Z</time>
      </trkpt>
      <trkpt lat="69.68525" lon="18.90819">
        <ele>1.784175</ele>
        <time>2020-07-16T14:19:21.201Z</time>
      </trkpt>
      <trkpt lat="69.68522" lon="18.90814">
        <ele>1.799306</ele>
        <time>2020-07-16T14:19:22.148Z</time>
      </trkpt>
      <trkpt lat="69.68457" lon="18.90721">
        <ele>2.098595</ele>
        <time>2020-07-16T14:19:36.241Z</time>
      </trkpt>
      <trkpt lat="69.68353" lon="18.90533">
        <ele>2.114788</ele>
        <time>2020-07-16T14:19:58.668Z</time>
      </trkpt>
      <trkpt lat="69.68351" lon="18.9053">
        <ele>2.112264</ele>
        <time>2020-07-16T14:19:59.028Z</time>
      </trkpt>
      <trkpt lat="69.68348" lon="18.90524">
        <ele>2.108059</ele>
        <time>2020-07-16T14:20:01.488Z</time>
      </trkpt>
      <trkpt lat="69.68342" lon="18.90515">
        <ele>2.10023</ele>
        <time>2020-07-16T14:20:06.130Z</time>
      </trkpt>
      <trkpt lat="69.6834" lon="18.9051">
        <ele>2.096412</ele>
        <time>2020-07-16T14:20:08.347Z</time>
      </trkpt>
      <trkpt lat="69.68336" lon="18.90499">
        <ele>2.090205</ele>
        <time>2020-07-16T14:20:09.122Z</time>
      </trkpt>
      <trkpt lat="69.68287" lon="18.90339">
        <ele>1.983733</ele>
        <time>2020-07-16T14:20:21.418Z</time>
      </trkpt>
      <trkpt lat="69.6824" lon="18.90255">
        <ele>1.777615</ele>
        <time>2020-07-16T14:20:30.564Z</time>
      </trkpt>
      <trkpt lat="69.68178" lon="18.90202">
        <ele>1.536294</ele>
        <time>2020-07-16T14:20:41.299Z</time>
      </trkpt>
      <trkpt lat="69.68036" lon="18.9011">
        <ele>1.218658</ele>
        <time>2020-07-16T14:21:06.694Z</time>
      </trkpt>
      <trkpt lat="69.67987" lon="18.90093">
        <ele>1.153724</ele>
        <time>2020-07-16T14:21:15.382Z</time>
      </trkpt>
      <trkpt lat="69.67936" lon="18.90112">
        <ele>1.075692</ele>
        <time>2020-07-16T14:21:24.286Z</time>
      </trkpt>
      <trkpt lat="69.6791" lon="18.90146">
        <ele>1.015397</ele>
        <time>2020-07-16T14:21:29.314Z</time>
      </trkpt>
      <trkpt lat="69.67887" lon="18.90226">
        <ele>0.940397</ele>
        <time>2020-07-16T14:21:35.543Z</time>
      </trkpt>
      <trkpt lat="69.67886" lon="18.90227">
        <ele>0.938192</ele>
        <time>2020-07-16T14:21:35.710Z</time>
      </trkpt>
      <trkpt lat="69.67882" lon="18.90231">
        <ele>0.930706</ele>
        <time>2020-07-16T14:21:38.197Z</time>
      </trkpt>
      <trkpt lat="69.67875" lon="18.9024">
        <ele>0.913991</ele>
        <time>2020-07-16T14:21:43.825Z</time>
      </trkpt>
      <trkpt lat="69.6787" lon="18.90248">
        <ele>0.902128</ele>
        <time>2020-07-16T14:21:47.742Z</time>
      </trkpt>
      <trkpt lat="69.67868" lon="18.9025">
        <ele>0.898435</ele>
        <time>2020-07-16T14:21:48.077Z</time>
      </trkpt>
      <trkpt lat="69.67866" lon="18.90252">
        <ele>0.89283</ele>
        <time>2020-07-16T14:21:48.560Z</time>
      </trkpt>
      <trkpt lat="69.67863" lon="18.90253">
        <ele>0.886333</ele>
        <time>2020-07-16T14:21:49.082Z</time>
      </trkpt>
      <trkpt lat="69.67805" lon="18.90285">
        <ele>0.763386</ele>
        <time>2020-07-16T14:21:59.704Z</time>
      </trkpt>
      <trkpt lat="69.67685" lon="18.90441">
        <ele>0.469441</ele>
        <time>2020-07-16T14:22:23.214Z</time>
      </trkpt>
      <trkpt lat="69.67682" lon="18.90446">
        <ele>0.462335</ele>
        <time>2020-07-16T14:22:23.829Z</time>
      </trkpt>
      <trkpt lat="69.67671" lon="18.90462">
        <ele>0.435324</ele>
        <time>2020-07-16T14:22:25.944Z</time>
      </trkpt>
      <trkpt lat="69.67562" lon="18.90642">
        <ele>0.279988</ele>
        <time>2020-07-16T14:22:48.773Z</time>
      </trkpt>
      <trkpt lat="69.67517" lon="18.90698">
        <ele>0.250849</ele>
        <time>2020-07-16T14:22:57.787Z</time>
      </trkpt>
      <trkpt lat="69.67456" lon="18.90734">
        <ele>0.222824</ele>
        <time>2020-07-16T14:23:09.419Z</time>
      </trkpt>
      <trkpt lat="69.67359" lon="18.90749">
        <ele>0.265757</ele>
        <time>2020-07-16T14:23:27.615Z</time>
      </trkpt>
      <trkpt lat="69.67319" lon="18.90779">
        <ele>0.284344</ele>
        <time>2020-07-16T14:23:35.429Z</time>
      </trkpt>
      <trkpt lat="69.67274" lon="18.90852">
        <ele>0.314373</ele>
        <time>2020-07-16T14:23:44.893Z</time>
      </trkpt>
      <trkpt lat="69.67229" lon="18.90998">
        <ele>0.371371</ele>
        <time>2020-07-16T14:23:57.531Z</time>
      </trkpt>
      <trkpt lat="69.67225" lon="18.91014">
        <ele>0.377052</ele>
        <time>2020-07-16T14:23:58.743Z</time>
      </trkpt>
      <trkpt lat="69.67215" lon="18.91077">
        <ele>0.397576</ele>
        <time>2020-07-16T14:24:03.289Z</time>
      </trkpt>
      <trkpt lat="69.67203" lon="18.91211">
        <ele>0.437846</ele>
        <time>2020-07-16T14:24:12.273Z</time>
      </trkpt>
      <trkpt lat="69.672" lon="18.91279">
        <ele>0.56184</ele>
        <time>2020-07-16T14:24:16.999Z</time>
      </trkpt>
      <trkpt lat="69.67201" lon="18.91288">
        <ele>0.60106</ele>
        <time>2020-07-16T14:24:17.729Z</time>
      </trkpt>
      <trkpt lat="69.67215" lon="18.91474">
        <ele>1.379336</ele>
        <time>2020-07-16T14:24:31.745Z</time>
      </trkpt>
      <trkpt lat="69.6722" lon="18.91642">
        <ele>2.069728</ele>
        <time>2020-07-16T14:24:44.895Z</time>
      </trkpt>
      <trkpt lat="69.67221" lon="18.91661">
        <ele>2.14844</ele>
        <time>2020-07-16T14:24:46.433Z</time>
      </trkpt>
      <trkpt lat="69.67226" lon="18.918">
        <ele>2.882633</ele>
        <time>2020-07-16T14:24:58.714Z</time>
      </trkpt>
      <trkpt lat="69.67226" lon="18.91817">
        <ele>3.027174</ele>
        <time>2020-07-16T14:25:00.266Z</time>
      </trkpt>
      <trkpt lat="69.67222" lon="18.91819">
        <ele>3.130175</ele>
        <time>2020-07-16T14:25:01.147Z</time>
      </trkpt>
      <trkpt lat="69.67217" lon="18.91822">
        <ele>3.262871</ele>
        <time>2020-07-16T14:25:02.329Z</time>
      </trkpt>
      <trkpt lat="69.67213" lon="18.91825">
        <ele>3.359478</ele>
        <time>2020-07-16T14:25:03.258Z</time>
      </trkpt>
      <trkpt lat="69.67182" lon="18.91847">
        <ele>4.140212</ele>
        <time>2020-07-16T14:25:11.821Z</time>
      </trkpt>
      <trkpt lat="69.67173" lon="18.91854">
        <ele>4.364922</ele>
        <time>2020-07-16T14:25:14.136Z</time>
      </trkpt>
      <trkpt lat="69.67166" lon="18.91859">
        <ele>4.556141</ele>
        <time>2020-07-16T14:25:16.432Z</time>
      </trkpt>
      <trkpt lat="69.67131" lon="18.91883">
        <ele>5.435828</ele>
        <time>2020-07-16T14:25:26.279Z</time>
      </trkpt>
      <trkpt lat="69.67124" lon="18.9189">
        <ele>5.629032</ele>
        <time>2020-07-16T14:25:28.927Z</time>
      </trkpt>
      <trkpt lat="69.67112" lon="18.91906">
        <ele>5.943108</ele>
        <time>2020-07-16T14:25:32.887Z</time>
      </trkpt>
      <trkpt lat="69.67101" lon="18.91926">
        <ele>6.2758</ele>
        <time>2020-07-16T14:25:36.080Z</time>
      </trkpt>
      <trkpt lat="69.67097" lon="18.91933">
        <ele>6.398841</ele>
        <time>2020-07-16T14:25:38.041Z</time>
      </trkpt>
      <trkpt lat="69.6702" lon="18.92067">
        <ele>7.508003</ele>
        <time>2020-07-16T14:25:59.839Z</time>
      </trkpt>
      <trkpt lat="69.6701" lon="18.92098">
        <ele>7.621667</ele>
        <time>2020-07-16T14:26:02.491Z</time>
      </trkpt>
      <trkpt lat="69.67007" lon="18.92138">
        <ele>7.730994</ele>
        <time>2020-07-16T14:26:05.259Z</time>
      </trkpt>
      <trkpt lat="69.67008" lon="18.92148">
        <ele>7.756204</ele>
        <time>2020-07-16T14:26:06.681Z</time>
      </trkpt>
      <trkpt lat="69.67004" lon="18.92153">
        <ele>7.785434</ele>
        <time>2020-07-16T14:26:07.417Z</time>
      </trkpt>
      <trkpt lat="69.67002" lon="18.92157">
        <ele>7.807324</ele>
        <time>2020-07-16T14:26:09.446Z</time>
      </trkpt>
      <trkpt lat="69.67001" lon="18.9215">
        <ele>7.827766</ele>
        <time>2020-07-16T14:26:09.813Z</time>
      </trkpt>
      <trkpt lat="69.66999" lon="18.92117">
        <ele>7.916134</ele>
        <time>2020-07-16T14:26:12.399Z</time>
      </trkpt>
      <trkpt lat="69.66999" lon="18.92103">
        <ele>7.951774</ele>
        <time>2020-07-16T14:26:13.112Z</time>
      </trkpt>
      <trkpt lat="69.66999" lon="18.92088">
        <ele>7.992401</ele>
        <time>2020-07-16T14:26:13.932Z</time>
      </trkpt>
      <trkpt lat="69.66994" lon="18.92062">
        <ele>8.072466</ele>
        <time>2020-07-16T14:26:16.531Z</time>
      </trkpt>
      <trkpt lat="69.66989" lon="18.92055">
        <ele>8.112887</ele>
        <time>2020-07-16T14:26:17.270Z</time>
      </trkpt>
      <trkpt lat="69.66978" lon="18.92027">
        <ele>8.223277</ele>
        <time>2020-07-16T14:26:19.433Z</time>
      </trkpt>
      <trkpt lat="69.66973" lon="18.92009">
        <ele>8.285568</ele>
        <time>2020-07-16T14:26:20.935Z</time>
      </trkpt>
      <trkpt lat="69.66967" lon="18.91981">
        <ele>8.369035</ele>
        <time>2020-07-16T14:26:22.910Z</time>
      </trkpt>
      <trkpt lat="69.66964" lon="18.91972">
        <ele>8.385789</ele>
        <time>2020-07-16T14:26:23.569Z</time>
      </trkpt>
      <trkpt lat="69.66951" lon="18.91885">
        <ele>8.38207</ele>
        <time>2020-07-16T14:26:29.184Z</time>
      </trkpt>
      <trkpt lat="69.66949" lon="18.91843">
        <ele>8.380406</ele>
        <time>2020-07-16T14:26:31.319Z</time>
      </trkpt>
      <trkpt lat="69.66946" lon="18.91822">
        <ele>8.379538</ele>
        <time>2020-07-16T14:26:32.563Z</time>
      </trkpt>
      <trkpt lat="69.6693" lon="18.91742">
        <ele>8.375875</ele>
        <time>2020-07-16T14:26:38.183Z</time>
      </trkpt>
      <trkpt lat="69.66921" lon="18.91718">
        <ele>8.374489</ele>
        <time>2020-07-16T14:26:40.775Z</time>
      </trkpt>
      <trkpt lat="69.66898" lon="18.91666">
        <ele>8.371199</ele>
        <time>2020-07-16T14:26:45.488Z</time>
      </trkpt>
      <trkpt lat="69.66875" lon="18.91616">
        <ele>8.367905</ele>
        <time>2020-07-16T14:26:50.790Z</time>
      </trkpt>
      <trkpt lat="69.66871" lon="18.9162">
        <ele>8.367434</ele>
        <time>2020-07-16T14:26:52.155Z</time>
      </trkpt>
      <trkpt lat="69.66866" lon="18.91627">
        <ele>8.366858</ele>
        <time>2020-07-16T14:26:54.207Z</time>
      </trkpt>
      <trkpt lat="69.66864" lon="18.91635">
        <ele>8.366447</ele>
        <time>2020-07-16T14:26:55.353Z</time>
      </trkpt>
      <trkpt lat="69.66859" lon="18.91656">
        <ele>8.363825</ele>
        <time>2020-07-16T14:26:57.568Z</time>
      </trkpt>
      <trkpt lat="69.66856" lon="18.9165">
        <ele>8.360307</ele>
        <time>2020-07-16T14:27:00.427Z</time>
      </trkpt>
      <trkpt lat="69.66854" lon="18.91645">
        <ele>8.358165</ele>
        <time>2020-07-16T14:27:00.828Z</time>
      </trkpt>
      <trkpt lat="69.66852" lon="18.91636">
        <ele>8.354715</ele>
        <time>2020-07-16T14:27:01.481Z</time>
      </trkpt>
      <trkpt lat="69.66847" lon="18.91617">
        <ele>8.347606</ele>
        <time>2020-07-16T14:27:03.428Z</time>
      </trkpt>
      <trkpt lat="69.66843" lon="18.91604">
        <ele>8.342536</ele>
        <time>2020-07-16T14:27:05.385Z</time>
      </trkpt>
      <trkpt lat="69.66789" lon="18.915">
        <ele>8.287141</ele>
        <time>2020-07-16T14:27:16.715Z</time>
      </trkpt>
      <trkpt lat="69.66755" lon="18.91481">
        <ele>8.257186</ele>
        <time>2020-07-16T14:27:22.832Z</time>
      </trkpt>
      <trkpt lat="69.66752" lon="18.91478">
        <ele>8.25483</ele>
        <time>2020-07-16T14:27:24.082Z</time>
      </trkpt>
      <trkpt lat="69.6675" lon="18.91471">
        <ele>8.251802</ele>
        <time>2020-07-16T14:27:26.580Z</time>
      </trkpt>
      <trkpt lat="69.66748" lon="18.91466">
        <ele>8.249742</ele>
        <time>2020-07-16T14:27:28.252Z</time>
      </trkpt>
      <trkpt lat="69.66746" lon="18.91461">
        <ele>8.247621</ele>
        <time>2020-07-16T14:27:29.974Z</time>
      </trkpt>
      <trkpt lat="69.66744" lon="18.91456">
        <ele>8.245391</ele>
        <time>2020-07-16T14:27:31.802Z</time>
      </trkpt>
      <trkpt lat="69.66742" lon="18.91451">
        <ele>8.24302</ele>
        <time>2020-07-16T14:27:33.736Z</time>
      </trkpt>
      <trkpt lat="69.6673" lon="18.91387">
        <ele>8.221653</ele>
        <time>2020-07-16T14:27:38.468Z</time>
      </trkpt>
      <trkpt lat="69.66728" lon="18.91378">
        <ele>8.217846</ele>
        <time>2020-07-16T14:27:39.394Z</time>
      </trkpt>
      <trkpt lat="69.66726" lon="18.91373">
        <ele>8.215786</ele>
        <time>2020-07-16T14:27:39.698Z</time>
      </trkpt>
      <trkpt lat="69.66724" lon="18.91367">
        <ele>8.21333</ele>
        <time>2020-07-16T14:27:40.012Z</time>
      </trkpt>
      <trkpt lat="69.66698" lon="18.91307">
        <ele>7.488114</ele>
        <time>2020-07-16T14:27:45.086Z</time>
      </trkpt>
      <trkpt lat="69.6655" lon="18.91025">
        <ele>3.576296</ele>
        <time>2020-07-16T14:28:08.844Z</time>
      </trkpt>
      <trkpt lat="69.66536" lon="18.91008">
        <ele>3.338088</ele>
        <time>2020-07-16T14:28:11.017Z</time>
      </trkpt>
      <trkpt lat="69.66522" lon="18.90993">
        <ele>3.113847</ele>
        <time>2020-07-16T14:28:13.180Z</time>
      </trkpt>
      <trkpt lat="69.66377" lon="18.909">
        <ele>1.198027</ele>
        <time>2020-07-16T14:28:35.889Z</time>
      </trkpt>
      <trkpt lat="69.66369" lon="18.90896">
        <ele>1.173822</ele>
        <time>2020-07-16T14:28:37.289Z</time>
      </trkpt>
      <trkpt lat="69.66359" lon="18.90895">
        <ele>1.143474</ele>
        <time>2020-07-16T14:28:39.015Z</time>
      </trkpt>
      <trkpt lat="69.66183" lon="18.90803">
        <ele>0.851055</ele>
        <time>2020-07-16T14:29:10.508Z</time>
      </trkpt>
      <trkpt lat="69.66121" lon="18.90794">
        <ele>0.995505</ele>
        <time>2020-07-16T14:29:22.165Z</time>
      </trkpt>
      <trkpt lat="69.66071" lon="18.90801">
        <ele>1.110863</ele>
        <time>2020-07-16T14:29:31.662Z</time>
      </trkpt>
      <trkpt lat="69.66038" lon="18.90806">
        <ele>1.19343</ele>
        <time>2020-07-16T14:29:38.075Z</time>
      </trkpt>
      <trkpt lat="69.65862" lon="18.90828">
        <ele>1.660904</ele>
        <time>2020-07-16T14:30:11.280Z</time>
      </trkpt>
      <trkpt lat="69.6581" lon="18.90807">
        <ele>1.532378</ele>
        <time>2020-07-16T14:30:20.516Z</time>
      </trkpt>
      <trkpt lat="69.65794" lon="18.90793">
        <ele>1.493352</ele>
        <time>2020-07-16T14:30:23.339Z</time>
      </trkpt>
      <trkpt lat="69.65783" lon="18.90782">
        <ele>1.464559</ele>
        <time>2020-07-16T14:30:25.295Z</time>
      </trkpt>
      <trkpt lat="69.65702" lon="18.90661">
        <ele>1.244987</ele>
        <time>2020-07-16T14:30:40.642Z</time>
      </trkpt>
      <trkpt lat="69.65676" lon="18.9062">
        <ele>1.154446</ele>
        <time>2020-07-16T14:30:45.616Z</time>
      </trkpt>
      <trkpt lat="69.65615" lon="18.90528">
        <ele>0.944333</ele>
        <time>2020-07-16T14:30:57.118Z</time>
      </trkpt>
      <trkpt lat="69.65539" lon="18.90421">
        <ele>0.69533</ele>
        <time>2020-07-16T14:31:11.727Z</time>
      </trkpt>
      <trkpt lat="69.65526" lon="18.90411">
        <ele>0.699335</ele>
        <time>2020-07-16T14:31:13.993Z</time>
      </trkpt>
      <trkpt lat="69.65517" lon="18.90405">
        <ele>0.702113</ele>
        <time>2020-07-16T14:31:15.614Z</time>
      </trkpt>
      <trkpt lat="69.65301" lon="18.90347">
        <ele>0.823208</ele>
        <time>2020-07-16T14:31:54.916Z</time>
      </trkpt>
      <trkpt lat="69.65275" lon="18.90339">
        <ele>0.855229</ele>
        <time>2020-07-16T14:31:59.788Z</time>
      </trkpt>
      <trkpt lat="69.65248" lon="18.90334">
        <ele>0.887044</ele>
        <time>2020-07-16T14:32:04.617Z</time>
      </trkpt>
      <trkpt lat="69.65222" lon="18.90325">
        <ele>0.919146</ele>
        <time>2020-07-16T14:32:09.509Z</time>
      </trkpt>
      <trkpt lat="69.65199" lon="18.90315">
        <ele>0.946451</ele>
        <time>2020-07-16T14:32:13.626Z</time>
      </trkpt>
      <trkpt lat="69.65195" lon="18.90312">
        <ele>0.951825</ele>
        <time>2020-07-16T14:32:16.786Z</time>
      </trkpt>
      <trkpt lat="69.6519" lon="18.90308">
        <ele>0.957308</ele>
        <time>2020-07-16T14:32:19.949Z</time>
      </trkpt>
      <trkpt lat="69.65179" lon="18.90297">
        <ele>0.962921</ele>
        <time>2020-07-16T14:32:22.250Z</time>
      </trkpt>
      <trkpt lat="69.65144" lon="18.90258">
        <ele>0.950553</ele>
        <time>2020-07-16T14:32:29.233Z</time>
      </trkpt>
      <trkpt lat="69.65049" lon="18.90102">
        <ele>0.913948</ele>
        <time>2020-07-16T14:32:49.482Z</time>
      </trkpt>
      <trkpt lat="69.65024" lon="18.90059">
        <ele>0.903847</ele>
        <time>2020-07-16T14:32:54.781Z</time>
      </trkpt>
      <trkpt lat="69.64988" lon="18.90001">
        <ele>0.88399</ele>
        <time>2020-07-16T14:33:02.085Z</time>
      </trkpt>
      <trkpt lat="69.64953" lon="18.89945">
        <ele>0.864164</ele>
        <time>2020-07-16T14:33:09.495Z</time>
      </trkpt>
      <trkpt lat="69.64934" lon="18.89916">
        <ele>0.853881</ele>
        <time>2020-07-16T14:33:13.215Z</time>
      </trkpt>
      <trkpt lat="69.64916" lon="18.89892">
        <ele>0.843815</ele>
        <time>2020-07-16T14:33:17.095Z</time>
      </trkpt>
      <trkpt lat="69.64877" lon="18.89883">
        <ele>0.82468</ele>
        <time>2020-07-16T14:33:24.338Z</time>
      </trkpt>
      <trkpt lat="69.64862" lon="18.89885">
        <ele>0.81734</ele>
        <time>2020-07-16T14:33:27.083Z</time>
      </trkpt>
      <trkpt lat="69.64849" lon="18.89888">
        <ele>0.873502</ele>
        <time>2020-07-16T14:33:29.701Z</time>
      </trkpt>
      <trkpt lat="69.64775" lon="18.89931">
        <ele>1.227602</ele>
        <time>2020-07-16T14:33:44.651Z</time>
      </trkpt>
      <trkpt lat="69.64734" lon="18.89951">
        <ele>1.422297</ele>
        <time>2020-07-16T14:33:53.214Z</time>
      </trkpt>
      <trkpt lat="69.64688" lon="18.89974">
        <ele>1.643013</ele>
        <time>2020-07-16T14:34:03.198Z</time>
      </trkpt>
      <trkpt lat="69.64548" lon="18.90037">
        <ele>2.087793</ele>
        <time>2020-07-16T14:34:31.799Z</time>
      </trkpt>
      <trkpt lat="69.64517" lon="18.90052">
        <ele>2.182526</ele>
        <time>2020-07-16T14:34:37.349Z</time>
      </trkpt>
      <trkpt lat="69.64494" lon="18.90064">
        <ele>2.150569</ele>
        <time>2020-07-16T14:34:41.467Z</time>
      </trkpt>
      <trkpt lat="69.64491" lon="18.90065">
        <ele>2.132496</ele>
        <time>2020-07-16T14:34:42.020Z</time>
      </trkpt>
      <trkpt lat="69.64481" lon="18.90069">
        <ele>2.074831</ele>
        <time>2020-07-16T14:34:43.737Z</time>
      </trkpt>
      <trkpt lat="69.64467" lon="18.90076">
        <ele>1.999051</ele>
        <time>2020-07-16T14:34:46.001Z</time>
      </trkpt>
      <trkpt lat="69.64455" lon="18.90082">
        <ele>1.929601</ele>
        <time>2020-07-16T14:34:48.020Z</time>
      </trkpt>
      <trkpt lat="69.64442" lon="18.90086">
        <ele>1.85847</ele>
        <time>2020-07-16T14:34:50.094Z</time>
      </trkpt>
      <trkpt lat="69.64438" lon="18.90089">
        <ele>1.834436</ele>
        <time>2020-07-16T14:34:50.773Z</time>
      </trkpt>
      <trkpt lat="69.64388" lon="18.90099">
        <ele>1.554918</ele>
        <time>2020-07-16T14:34:58.835Z</time>
      </trkpt>
      <trkpt lat="69.6437" lon="18.90099">
        <ele>1.455877</ele>
        <time>2020-07-16T14:35:01.647Z</time>
      </trkpt>
      <trkpt lat="69.64343" lon="18.90098">
        <ele>1.304492</ele>
        <time>2020-07-16T14:35:05.968Z</time>
      </trkpt>
      <trkpt lat="69.64315" lon="18.90096">
        <ele>1.189634</ele>
        <time>2020-07-16T14:35:10.542Z</time>
      </trkpt>
      <trkpt lat="69.6426" lon="18.90093">
        <ele>1.063049</ele>
        <time>2020-07-16T14:35:19.945Z</time>
      </trkpt>
      <trkpt lat="69.64222" lon="18.90092">
        <ele>0.976005</ele>
        <time>2020-07-16T14:35:26.524Z</time>
      </trkpt>
      <trkpt lat="69.6419" lon="18.90089">
        <ele>0.902864</ele>
        <time>2020-07-16T14:35:32.098Z</time>
      </trkpt>
      <trkpt lat="69.64183" lon="18.90089">
        <ele>0.886186</ele>
        <time>2020-07-16T14:35:33.807Z</time>
      </trkpt>
      <trkpt lat="69.64183" lon="18.90073">
        <ele>0.873708</ele>
        <time>2020-07-16T14:35:34.776Z</time>
      </trkpt>
      <trkpt lat="69.64183" lon="18.90065">
        <ele>0.866953</ele>
        <time>2020-07-16T14:35:35.304Z</time>
      </trkpt>
      <trkpt lat="69.64172" lon="18.90063">
        <ele>0.843168</ele>
        <time>2020-07-16T14:35:37.167Z</time>
      </trkpt>
      <trkpt lat="69.64103" lon="18.9006">
        <ele>0.728125</ele>
        <time>2020-07-16T14:35:49.459Z</time>
      </trkpt>
      <trkpt lat="69.64097" lon="18.9006">
        <ele>0.719356</ele>
        <time>2020-07-16T14:35:50.543Z</time>
      </trkpt>
      <trkpt lat="69.64075" lon="18.90065">
        <ele>0.688443</ele>
        <time>2020-07-16T14:35:54.281Z</time>
      </trkpt>
      <trkpt lat="69.64006" lon="18.90108">
        <ele>0.585358</ele>
        <time>2020-07-16T14:36:06.500Z</time>
      </trkpt>
      <trkpt lat="69.63996" lon="18.90116">
        <ele>0.569927</ele>
        <time>2020-07-16T14:36:08.311Z</time>
      </trkpt>
      <trkpt lat="69.63992" lon="18.90119">
        <ele>0.563104</ele>
        <time>2020-07-16T14:36:09.090Z</time>
      </trkpt>
      <trkpt lat="69.63944" lon="18.90152">
        <ele>0.510456</ele>
        <time>2020-07-16T14:36:17.480Z</time>
      </trkpt>
      <trkpt lat="69.63934" lon="18.9016">
        <ele>0.500136</ele>
        <time>2020-07-16T14:36:19.351Z</time>
      </trkpt>
      <trkpt lat="69.63935" lon="18.90169">
        <ele>0.496913</ele>
        <time>2020-07-16T14:36:19.995Z</time>
      </trkpt>
      <trkpt lat="69.63936" lon="18.90183">
        <ele>0.492258</ele>
        <time>2020-07-16T14:36:20.904Z</time>
      </trkpt>
      <trkpt lat="69.63932" lon="18.90187">
        <ele>0.488577</ele>
        <time>2020-07-16T14:36:21.565Z</time>
      </trkpt>
      <trkpt lat="69.63904" lon="18.90206">
        <ele>0.461907</ele>
        <time>2020-07-16T14:36:26.549Z</time>
      </trkpt>
      <trkpt lat="69.63882" lon="18.90224">
        <ele>0.43991</ele>
        <time>2020-07-16T14:36:30.654Z</time>
      </trkpt>
      <trkpt lat="69.63865" lon="18.90236">
        <ele>0.424102</ele>
        <time>2020-07-16T14:36:33.609Z</time>
      </trkpt>
      <trkpt lat="69.63761" lon="18.90276">
        <ele>0.725736</ele>
        <time>2020-07-16T14:36:52.652Z</time>
      </trkpt>
      <trkpt lat="69.63709" lon="18.90323">
        <ele>1.081195</ele>
        <time>2020-07-16T14:37:03.411Z</time>
      </trkpt>
      <trkpt lat="69.63674" lon="18.9037">
        <ele>1.338552</ele>
        <time>2020-07-16T14:37:11.693Z</time>
      </trkpt>
      <trkpt lat="69.63652" lon="18.90399">
        <ele>1.497338</ele>
        <time>2020-07-16T14:37:16.751Z</time>
      </trkpt>
      <trkpt lat="69.63623" lon="18.90437">
        <ele>1.920144</ele>
        <time>2020-07-16T14:37:23.502Z</time>
      </trkpt>
      <trkpt lat="69.63584" lon="18.90488">
        <ele>2.623897</ele>
        <time>2020-07-16T14:37:33.237Z</time>
      </trkpt>
      <trkpt lat="69.63564" lon="18.90515">
        <ele>2.989489</ele>
        <time>2020-07-16T14:37:38.715Z</time>
      </trkpt>
      <trkpt lat="69.63505" lon="18.90596">
        <ele>4.063893</ele>
        <time>2020-07-16T14:37:53.889Z</time>
      </trkpt>
      <trkpt lat="69.63484" lon="18.90623">
        <ele>4.43928</ele>
        <time>2020-07-16T14:37:59.553Z</time>
      </trkpt>
      <trkpt lat="69.63477" lon="18.90634">
        <ele>4.542617</ele>
        <time>2020-07-16T14:38:01.501Z</time>
      </trkpt>
      <trkpt lat="69.63473" lon="18.90642">
        <ele>4.576881</ele>
        <time>2020-07-16T14:38:02.609Z</time>
      </trkpt>
      <trkpt lat="69.63469" lon="18.90646">
        <ele>4.607226</ele>
        <time>2020-07-16T14:38:04.016Z</time>
      </trkpt>
      <trkpt lat="69.63442" lon="18.90683">
        <ele>4.821393</ele>
        <time>2020-07-16T14:38:10.808Z</time>
      </trkpt>
      <trkpt lat="69.63413" lon="18.90744">
        <ele>5.07934</ele>
        <time>2020-07-16T14:38:18.780Z</time>
      </trkpt>
      <trkpt lat="69.63351" lon="18.90935">
        <ele>5.728281</ele>
        <time>2020-07-16T14:38:35.668Z</time>
      </trkpt>
      <trkpt lat="69.63347" lon="18.90949">
        <ele>5.773682</ele>
        <time>2020-07-16T14:38:37.075Z</time>
      </trkpt>
      <trkpt lat="69.63327" lon="18.91011">
        <ele>5.502788</ele>
        <time>2020-07-16T14:38:41.604Z</time>
      </trkpt>
      <trkpt lat="69.63318" lon="18.91038">
        <ele>5.351228</ele>
        <time>2020-07-16T14:38:44.014Z</time>
      </trkpt>
      <trkpt lat="69.63312" lon="18.91047">
        <ele>5.272741</ele>
        <time>2020-07-16T14:38:45.025Z</time>
      </trkpt>
      <trkpt lat="69.63307" lon="18.91013">
        <ele>5.128541</ele>
        <time>2020-07-16T14:38:46.799Z</time>
      </trkpt>
      <trkpt lat="69.63304" lon="18.91018">
        <ele>5.089202</ele>
        <time>2020-07-16T14:38:47.323Z</time>
      </trkpt>
      <trkpt lat="69.63297" lon="18.91029">
        <ele>4.997124</ele>
        <time>2020-07-16T14:38:48.900Z</time>
      </trkpt>
      <trkpt lat="69.63296" lon="18.91032">
        <ele>4.977262</ele>
        <time>2020-07-16T14:38:49.155Z</time>
      </trkpt>
      <trkpt lat="69.63284" lon="18.91046">
        <ele>4.824219</ele>
        <time>2020-07-16T14:38:51.090Z</time>
      </trkpt>
      <trkpt lat="69.63224" lon="18.91127">
        <ele>4.064801</ele>
        <time>2020-07-16T14:39:00.778Z</time>
      </trkpt>
      <trkpt lat="69.63205" lon="18.9116">
        <ele>3.800193</ele>
        <time>2020-07-16T14:39:03.949Z</time>
      </trkpt>
      <trkpt lat="69.63195" lon="18.91172">
        <ele>3.679573</ele>
        <time>2020-07-16T14:39:05.536Z</time>
      </trkpt>
      <trkpt lat="69.6319" lon="18.91177">
        <ele>3.622219</ele>
        <time>2020-07-16T14:39:06.234Z</time>
      </trkpt>
      <trkpt lat="69.63176" lon="18.91189">
        <ele>3.460592</ele>
        <time>2020-07-16T14:39:08.186Z</time>
      </trkpt>
      <trkpt lat="69.6313" lon="18.91218">
        <ele>2.929038</ele>
        <time>2020-07-16T14:39:15.365Z</time>
      </trkpt>
      <trkpt lat="69.63117" lon="18.91232">
        <ele>2.768465</ele>
        <time>2020-07-16T14:39:17.546Z</time>
      </trkpt>
      <trkpt lat="69.63112" lon="18.91239">
        <ele>2.709175</ele>
        <time>2020-07-16T14:39:18.329Z</time>
      </trkpt>
      <trkpt lat="69.63083" lon="18.913">
        <ele>2.304758</ele>
        <time>2020-07-16T14:39:23.954Z</time>
      </trkpt>
      <trkpt lat="69.63061" lon="18.91375">
        <ele>1.924506</ele>
        <time>2020-07-16T14:39:29.339Z</time>
      </trkpt>
      <trkpt lat="69.63054" lon="18.91402">
        <ele>1.792611</ele>
        <time>2020-07-16T14:39:31.228Z</time>
      </trkpt>
      <trkpt lat="69.63049" lon="18.91425">
        <ele>1.700261</ele>
        <time>2020-07-16T14:39:32.847Z</time>
      </trkpt>
      <trkpt lat="69.63019" lon="18.9154">
        <ele>1.819038</ele>
        <time>2020-07-16T14:39:41.050Z</time>
      </trkpt>
      <trkpt lat="69.6301" lon="18.91579">
        <ele>1.857824</ele>
        <time>2020-07-16T14:39:44.128Z</time>
      </trkpt>
      <trkpt lat="69.63006" lon="18.91593">
        <ele>1.872093</ele>
        <time>2020-07-16T14:39:45.226Z</time>
      </trkpt>
      <trkpt lat="69.6299" lon="18.91665">
        <ele>1.943385</ele>
        <time>2020-07-16T14:39:50.834Z</time>
      </trkpt>
      <trkpt lat="69.62983" lon="18.9172">
        <ele>1.991612</ele>
        <time>2020-07-16T14:39:54.653Z</time>
      </trkpt>
      <trkpt lat="69.62985" lon="18.91737">
        <ele>2.005272</ele>
        <time>2020-07-16T14:39:55.830Z</time>
      </trkpt>
      <trkpt lat="69.6298" lon="18.91757">
        <ele>2.024817</ele>
        <time>2020-07-16T14:39:58.495Z</time>
      </trkpt>
      <trkpt lat="69.62963" lon="18.91848">
        <ele>2.110373</ele>
        <time>2020-07-16T14:40:10.166Z</time>
      </trkpt>
      <trkpt lat="69.62963" lon="18.91858">
        <ele>2.118663</ele>
        <time>2020-07-16T14:40:11.233Z</time>
      </trkpt>
      <trkpt lat="69.62963" lon="18.91859">
        <ele>2.120153</ele>
        <time>2020-07-16T14:40:11.440Z</time>
      </trkpt>
      <trkpt lat="69.62972" lon="18.919">
        <ele>2.252539</ele>
        <time>2020-07-16T14:40:15.853Z</time>
      </trkpt>
      <trkpt lat="69.62975" lon="18.91908">
        <ele>2.290272</ele>
        <time>2020-07-16T14:40:17.025Z</time>
      </trkpt>
      <trkpt lat="69.62985" lon="18.91916">
        <ele>2.385828</ele>
        <time>2020-07-16T14:40:20.064Z</time>
      </trkpt>
      <trkpt lat="69.62999" lon="18.91918">
        <ele>2.506921</ele>
        <time>2020-07-16T14:40:23.718Z</time>
      </trkpt>
      <trkpt lat="69.63022" lon="18.91976">
        <ele>2.776019</ele>
        <time>2020-07-16T14:40:31.972Z</time>
      </trkpt>
      <trkpt lat="69.63048" lon="18.92051">
        <ele>3.105303</ele>
        <time>2020-07-16T14:40:42.100Z</time>
      </trkpt>
      <trkpt lat="69.63057" lon="18.92056">
        <ele>3.178207</ele>
        <time>2020-07-16T14:40:44.397Z</time>
      </trkpt>
      <trkpt lat="69.63074" lon="18.91998">
        <ele>3.409602</ele>
        <time>2020-07-16T14:40:51.161Z</time>
      </trkpt>
      <trkpt lat="69.63092" lon="18.92042">
        <ele>3.617765</ele>
        <time>2020-07-16T14:40:56.280Z</time>
      </trkpt>
      <trkpt lat="69.63105" lon="18.92073">
        <ele>3.68688</ele>
        <time>2020-07-16T14:40:59.561Z</time>
      </trkpt>
      <trkpt lat="69.6317" lon="18.92229">
        <ele>3.336549</ele>
        <time>2020-07-16T14:41:14.629Z</time>
      </trkpt>
      <trkpt lat="69.6317" lon="18.92231">
        <ele>3.333061</ele>
        <time>2020-07-16T14:41:14.798Z</time>
      </trkpt>
      <trkpt lat="69.63173" lon="18.92237">
        <ele>3.320204</ele>
        <time>2020-07-16T14:41:15.319Z</time>
      </trkpt>
      <trkpt lat="69.63176" lon="18.92247">
        <ele>3.299082</ele>
        <time>2020-07-16T14:41:16.148Z</time>
      </trkpt>
      <trkpt lat="69.63177" lon="18.92248">
        <ele>3.294776</ele>
        <time>2020-07-16T14:41:16.293Z</time>
      </trkpt>
      <trkpt lat="69.63182" lon="18.92257">
        <ele>3.273092</ele>
        <time>2020-07-16T14:41:16.996Z</time>
      </trkpt>
      <trkpt lat="69.6323" lon="18.92377">
        <ele>3.009614</ele>
        <time>2020-07-16T14:41:26.994Z</time>
      </trkpt>
      <trkpt lat="69.63235" lon="18.9239">
        <ele>2.980992</ele>
        <time>2020-07-16T14:41:27.930Z</time>
      </trkpt>
      <trkpt lat="69.63239" lon="18.92399">
        <ele>2.959058</ele>
        <time>2020-07-16T14:41:28.606Z</time>
      </trkpt>
      <trkpt lat="69.6327" lon="18.92475">
        <ele>2.74018</ele>
        <time>2020-07-16T14:41:34.978Z</time>
      </trkpt>
      <trkpt lat="69.6328" lon="18.92499">
        <ele>2.668627</ele>
        <time>2020-07-16T14:41:37.143Z</time>
      </trkpt>
      <trkpt lat="69.63284" lon="18.92508">
        <ele>2.642863</ele>
        <time>2020-07-16T14:41:37.924Z</time>
      </trkpt>
      <trkpt lat="69.63287" lon="18.92518">
        <ele>2.615348</ele>
        <time>2020-07-16T14:41:38.642Z</time>
      </trkpt>
      <trkpt lat="69.63311" lon="18.92576">
        <ele>2.450303</ele>
        <time>2020-07-16T14:41:43.543Z</time>
      </trkpt>
      <trkpt lat="69.63314" lon="18.92585">
        <ele>2.42438</ele>
        <time>2020-07-16T14:41:44.259Z</time>
      </trkpt>
      <trkpt lat="69.63321" lon="18.92595">
        <ele>2.381762</ele>
        <time>2020-07-16T14:41:45.592Z</time>
      </trkpt>
      <trkpt lat="69.63345" lon="18.92615">
        <ele>2.249779</ele>
        <time>2020-07-16T14:41:49.745Z</time>
      </trkpt>
      <trkpt lat="69.63346" lon="18.92614">
        <ele>2.243399</ele>
        <time>2020-07-16T14:41:49.908Z</time>
      </trkpt>
      <trkpt lat="69.63346" lon="18.92611">
        <ele>2.238246</ele>
        <time>2020-07-16T14:41:50.065Z</time>
      </trkpt>
      <trkpt lat="69.63347" lon="18.92603">
        <ele>2.222337</ele>
        <time>2020-07-16T14:41:50.533Z</time>
      </trkpt>
      <trkpt lat="69.63355" lon="18.92607">
        <ele>2.179931</ele>
        <time>2020-07-16T14:41:51.939Z</time>
      </trkpt>
      <trkpt lat="69.63367" lon="18.9261">
        <ele>2.112011</ele>
        <time>2020-07-16T14:41:54.077Z</time>
      </trkpt>
      <trkpt lat="69.6337" lon="18.92612">
        <ele>2.094675</ele>
        <time>2020-07-16T14:41:54.616Z</time>
      </trkpt>
      <trkpt lat="69.63377" lon="18.92614">
        <ele>2.061623</ele>
        <time>2020-07-16T14:41:55.706Z</time>
      </trkpt>
      <trkpt lat="69.63382" lon="18.92619">
        <ele>2.030382</ele>
        <time>2020-07-16T14:41:56.734Z</time>
      </trkpt>
      <trkpt lat="69.6339" lon="18.92625">
        <ele>2.028257</ele>
        <time>2020-07-16T14:41:58.522Z</time>
      </trkpt>
      <trkpt lat="69.63415" lon="18.92671">
        <ele>2.273919</ele>
        <time>2020-07-16T14:42:04.166Z</time>
      </trkpt>
      <trkpt lat="69.63444" lon="18.92738">
        <ele>2.578821</ele>
        <time>2020-07-16T14:42:12.245Z</time>
      </trkpt>
      <trkpt lat="69.63447" lon="18.92743">
        <ele>2.60325</ele>
        <time>2020-07-16T14:42:13.082Z</time>
      </trkpt>
      <trkpt lat="69.63505" lon="18.92839">
        <ele>3.154173</ele>
        <time>2020-07-16T14:42:27.635Z</time>
      </trkpt>
      <trkpt lat="69.6352" lon="18.92853">
        <ele>3.283264</ele>
        <time>2020-07-16T14:42:30.817Z</time>
      </trkpt>
      <trkpt lat="69.63531" lon="18.92864">
        <ele>3.38147</ele>
        <time>2020-07-16T14:42:33.287Z</time>
      </trkpt>
      <trkpt lat="69.63545" lon="18.9288">
        <ele>3.48183</ele>
        <time>2020-07-16T14:42:36.423Z</time>
      </trkpt>
      <trkpt lat="69.63557" lon="18.92896">
        <ele>3.508721</ele>
        <time>2020-07-16T14:42:38.722Z</time>
      </trkpt>
      <trkpt lat="69.63562" lon="18.92905">
        <ele>3.521808</ele>
        <time>2020-07-16T14:42:40.101Z</time>
      </trkpt>
      <trkpt lat="69.63567" lon="18.92912">
        <ele>3.531931</ele>
        <time>2020-07-16T14:42:40.969Z</time>
      </trkpt>
      <trkpt lat="69.63569" lon="18.92917">
        <ele>3.538331</ele>
        <time>2020-07-16T14:42:41.494Z</time>
      </trkpt>
      <trkpt lat="69.63582" lon="18.92945">
        <ele>3.571558</ele>
        <time>2020-07-16T14:42:44.573Z</time>
      </trkpt>
      <trkpt lat="69.63608" lon="18.93035">
        <ele>3.653878</ele>
        <time>2020-07-16T14:42:52.002Z</time>
      </trkpt>
      <trkpt lat="69.63614" lon="18.93068">
        <ele>3.680851</ele>
        <time>2020-07-16T14:42:54.516Z</time>
      </trkpt>
      <trkpt lat="69.63617" lon="18.93083">
        <ele>3.692602</ele>
        <time>2020-07-16T14:42:55.523Z</time>
      </trkpt>
      <trkpt lat="69.63621" lon="18.93101">
        <ele>3.707245</ele>
        <time>2020-07-16T14:42:57.130Z</time>
      </trkpt>
      <trkpt lat="69.63616" lon="18.93107">
        <ele>3.716718</ele>
        <time>2020-07-16T14:42:57.856Z</time>
      </trkpt>
      <trkpt lat="69.63614" lon="18.93115">
        <ele>3.72415</ele>
        <time>2020-07-16T14:42:58.587Z</time>
      </trkpt>
      <trkpt lat="69.63636" lon="18.93231">
        <ele>3.816869</ele>
        <time>2020-07-16T14:43:07.293Z</time>
      </trkpt>
      <trkpt lat="69.63639" lon="18.93249">
        <ele>3.831387</ele>
        <time>2020-07-16T14:43:08.444Z</time>
      </trkpt>
      <trkpt lat="69.63643" lon="18.93265">
        <ele>3.837738</ele>
        <time>2020-07-16T14:43:09.732Z</time>
      </trkpt>
      <trkpt lat="69.63664" lon="18.93327">
        <ele>3.764646</ele>
        <time>2020-07-16T14:43:14.994Z</time>
      </trkpt>
      <trkpt lat="69.63693" lon="18.93367">
        <ele>3.688731</ele>
        <time>2020-07-16T14:43:20.704Z</time>
      </trkpt>
      <trkpt lat="69.63698" lon="18.93371">
        <ele>3.675417</ele>
        <time>2020-07-16T14:43:21.594Z</time>
      </trkpt>
      <trkpt lat="69.637" lon="18.93349">
        <ele>3.656854</ele>
        <time>2020-07-16T14:43:23.127Z</time>
      </trkpt>
      <trkpt lat="69.63705" lon="18.93356">
        <ele>3.642353</ele>
        <time>2020-07-16T14:43:24.011Z</time>
      </trkpt>
      <trkpt lat="69.6372" lon="18.93375">
        <ele>3.603906</ele>
        <time>2020-07-16T14:43:26.770Z</time>
      </trkpt>
      <trkpt lat="69.63722" lon="18.93377">
        <ele>3.597921</ele>
        <time>2020-07-16T14:43:27.151Z</time>
      </trkpt>
      <trkpt lat="69.63759" lon="18.93423">
        <ele>3.501754</ele>
        <time>2020-07-16T14:43:34.036Z</time>
      </trkpt>
      <trkpt lat="69.63779" lon="18.9345">
        <ele>3.449676</ele>
        <time>2020-07-16T14:43:37.972Z</time>
      </trkpt>
      <trkpt lat="69.6382" lon="18.93513">
        <ele>3.371463</ele>
        <time>2020-07-16T14:43:46.199Z</time>
      </trkpt>
      <trkpt lat="69.63833" lon="18.93535">
        <ele>3.35094</ele>
        <time>2020-07-16T14:43:48.985Z</time>
      </trkpt>
      <trkpt lat="69.63889" lon="18.93628">
        <ele>3.266359</ele>
        <time>2020-07-16T14:44:00.189Z</time>
      </trkpt>
      <trkpt lat="69.63923" lon="18.93687">
        <ele>3.214585</ele>
        <time>2020-07-16T14:44:07.076Z</time>
      </trkpt>
      <trkpt lat="69.63939" lon="18.93716">
        <ele>3.189263</ele>
        <time>2020-07-16T14:44:10.352Z</time>
      </trkpt>
      <trkpt lat="69.63957" lon="18.93747">
        <ele>3.167729</ele>
        <time>2020-07-16T14:44:13.953Z</time>
      </trkpt>
      <trkpt lat="69.63974" lon="18.93781">
        <ele>3.152723</ele>
        <time>2020-07-16T14:44:17.419Z</time>
      </trkpt>
      <trkpt lat="69.6398" lon="18.93793">
        <ele>3.147256</ele>
        <time>2020-07-16T14:44:18.850Z</time>
      </trkpt>
      <trkpt lat="69.64027" lon="18.9388">
        <ele>3.106557</ele>
        <time>2020-07-16T14:44:28.170Z</time>
      </trkpt>
      <trkpt lat="69.6404" lon="18.939">
        <ele>3.095977</ele>
        <time>2020-07-16T14:44:30.783Z</time>
      </trkpt>
      <trkpt lat="69.64042" lon="18.93905">
        <ele>3.093929</ele>
        <time>2020-07-16T14:44:31.278Z</time>
      </trkpt>
      <trkpt lat="69.64105" lon="18.94016">
        <ele>3.056346</ele>
        <time>2020-07-16T14:44:44.983Z</time>
      </trkpt>
      <trkpt lat="69.64114" lon="18.94032">
        <ele>3.078689</ele>
        <time>2020-07-16T14:44:46.741Z</time>
      </trkpt>
      <trkpt lat="69.64124" lon="18.94052">
        <ele>3.105448</ele>
        <time>2020-07-16T14:44:49.163Z</time>
      </trkpt>
      <trkpt lat="69.64171" lon="18.94134">
        <ele>3.226895</ele>
        <time>2020-07-16T14:44:59.739Z</time>
      </trkpt>
      <trkpt lat="69.64178" lon="18.94145">
        <ele>3.245111</ele>
        <time>2020-07-16T14:45:01.282Z</time>
      </trkpt>
      <trkpt lat="69.64189" lon="18.94161">
        <ele>3.272588</ele>
        <time>2020-07-16T14:45:03.400Z</time>
      </trkpt>
      <trkpt lat="69.64195" lon="18.94168">
        <ele>3.286677</ele>
        <time>2020-07-16T14:45:04.795Z</time>
      </trkpt>
      <trkpt lat="69.64243" lon="18.94208">
        <ele>3.396542</ele>
        <time>2020-07-16T14:45:13.471Z</time>
      </trkpt>
      <trkpt lat="69.64248" lon="18.94208">
        <ele>3.406917</ele>
        <time>2020-07-16T14:45:14.586Z</time>
      </trkpt>
      <trkpt lat="69.64252" lon="18.94221">
        <ele>3.421474</ele>
        <time>2020-07-16T14:45:15.635Z</time>
      </trkpt>
      <trkpt lat="69.64264" lon="18.9425">
        <ele>3.45595</ele>
        <time>2020-07-16T14:45:18.636Z</time>
      </trkpt>
      <trkpt lat="69.64283" lon="18.94299">
        <ele>3.512107</ele>
        <time>2020-07-16T14:45:23.330Z</time>
      </trkpt>
      <trkpt lat="69.6431" lon="18.94369">
        <ele>3.592513</ele>
        <time>2020-07-16T14:45:30.296Z</time>
      </trkpt>
      <trkpt lat="69.64353" lon="18.94479">
        <ele>3.718527</ele>
        <time>2020-07-16T14:45:41.007Z</time>
      </trkpt>
      <trkpt lat="69.64359" lon="18.94498">
        <ele>3.737665</ele>
        <time>2020-07-16T14:45:42.612Z</time>
      </trkpt>
      <trkpt lat="69.64416" lon="18.94644">
        <ele>4.002977</ele>
        <time>2020-07-16T14:45:56.320Z</time>
      </trkpt>
      <trkpt lat="69.64459" lon="18.9475">
        <ele>4.297911</ele>
        <time>2020-07-16T14:46:07.250Z</time>
      </trkpt>
      <trkpt lat="69.64459" lon="18.94752">
        <ele>4.302192</ele>
        <time>2020-07-16T14:46:07.463Z</time>
      </trkpt>
      <trkpt lat="69.64467" lon="18.94775">
        <ele>4.359294</ele>
        <time>2020-07-16T14:46:09.649Z</time>
      </trkpt>
      <trkpt lat="69.64474" lon="18.94794">
        <ele>4.410929</ele>
        <time>2020-07-16T14:46:11.626Z</time>
      </trkpt>
      <trkpt lat="69.64502" lon="18.94868">
        <ele>4.609769</ele>
        <time>2020-07-16T14:46:19.246Z</time>
      </trkpt>
      <trkpt lat="69.64506" lon="18.94876">
        <ele>4.63346</ele>
        <time>2020-07-16T14:46:20.217Z</time>
      </trkpt>
      <trkpt lat="69.64508" lon="18.94883">
        <ele>4.650584</ele>
        <time>2020-07-16T14:46:20.909Z</time>
      </trkpt>
      <trkpt lat="69.64541" lon="18.94964">
        <ele>4.991265</ele>
        <time>2020-07-16T14:46:29.743Z</time>
      </trkpt>
      <trkpt lat="69.64549" lon="18.94987">
        <ele>5.124476</ele>
        <time>2020-07-16T14:46:32.075Z</time>
      </trkpt>
      <trkpt lat="69.64603" lon="18.95126">
        <ele>5.942858</ele>
        <time>2020-07-16T14:46:47.178Z</time>
      </trkpt>
      <trkpt lat="69.64611" lon="18.95146">
        <ele>6.061595</ele>
        <time>2020-07-16T14:46:49.626Z</time>
      </trkpt>
      <trkpt lat="69.6462" lon="18.95161">
        <ele>6.18038</ele>
        <time>2020-07-16T14:46:51.847Z</time>
      </trkpt>
      <trkpt lat="69.64696" lon="18.9529">
        <ele>7.344221</ele>
        <time>2020-07-16T14:47:11.646Z</time>
      </trkpt>
      <trkpt lat="69.64704" lon="18.95298">
        <ele>7.487554</ele>
        <time>2020-07-16T14:47:13.828Z</time>
      </trkpt>
      <trkpt lat="69.64771" lon="18.95377">
        <ele>8.667184</ele>
        <time>2020-07-16T14:47:30.806Z</time>
      </trkpt>
      <trkpt lat="69.6478" lon="18.95388">
        <ele>8.828416</ele>
        <time>2020-07-16T14:47:33.200Z</time>
      </trkpt>
      <trkpt lat="69.6479" lon="18.95401">
        <ele>9.00789</ele>
        <time>2020-07-16T14:47:35.785Z</time>
      </trkpt>
      <trkpt lat="69.64846" lon="18.95463">
        <ele>9.755845</ele>
        <time>2020-07-16T14:47:50.140Z</time>
      </trkpt>
      <trkpt lat="69.64858" lon="18.95476">
        <ele>9.755845</ele>
        <time>2020-07-16T14:47:52.928Z</time>
      </trkpt>
      <trkpt lat="69.64866" lon="18.95485">
        <ele>9.755845</ele>
        <time>2020-07-16T14:47:54.807Z</time>
      </trkpt>
      <trkpt lat="69.64874" lon="18.95494">
        <ele>9.755845</ele>
        <time>2020-07-16T14:47:56.651Z</time>
      </trkpt>
      <trkpt lat="69.64879" lon="18.95499">
        <ele>9.755845</ele>
        <time>2020-07-16T14:47:58.037Z</time>
      </trkpt>
      <trkpt lat="69.6489" lon="18.9551">
        <ele>9.755845</ele>
        <time>2020-07-16T14:48:00.548Z</time>
      </trkpt>
      <trkpt lat="69.64902" lon="18.95524">
        <ele>9.755845</ele>
        <time>2020-07-16T14:48:03.309Z</time>
      </trkpt>
      <trkpt lat="69.64913" lon="18.95535">
        <ele>9.755845</ele>
        <time>2020-07-16T14:48:06.158Z</time>
      </trkpt>
      <trkpt lat="69.64952" lon="18.95579">
        <ele>9.755845</ele>
        <time>2020-07-16T14:48:14.912Z</time>
      </trkpt>
      <trkpt lat="69.6495" lon="18.95593">
        <ele>9.755845</ele>
        <time>2020-07-16T14:48:18.487Z</time>
      </trkpt>
      <trkpt lat="69.64945" lon="18.95588">
        <ele>9.755845</ele>
        <time>2020-07-16T14:48:21.813Z</time>
      </trkpt>
    </trkseg>
  </trk>
</gpx>